<?xml version="1.0" encoding="UTF-8"?>
<TrainingCenterDatabase xmlns="http://www.garmin.com/xmlschemas/TrainingCenterDatabase/v2" xmlns:xsi="http://www.w3.org/2001/XMLSchema-instance" xsi:schemaLocation="http://www.garmin.com/xmlschemas/TrainingCenterDatabase/v2 http://www.garmin.com/xmlschemas/TrainingCenterDatabasev2.xsd">
  <Activities>
    <Activity Sport="Other">
      <Id>2022-11-06T10:06:43.000Z</Id>
      <Lap StartTime="2022-11-06T10:06:43.000Z">
        <TotalTimeSeconds>7317</TotalTimeSeconds>
        <DistanceMeters>27290</DistanceMeters>
        <Track>
          <Trackpoint>
            <Time>2022-11-06T10:06:43.000Z</Time>
            <Position>
              <LatitudeDegrees>41.351650245487689971923828125</LatitudeDegrees>
              <LongitudeDegrees>-1.64143639616668224334716796875</LongitudeDegrees>
            </Position>
            <AltitudeMeters>538</AltitudeMeters>
            <DistanceMeters>0</DistanceMeters>
          </Trackpoint>
          <Trackpoint>
            <Time>2022-11-06T10:06:44.000Z</Time>
            <Position>
              <LatitudeDegrees>41.35164798237383365631103515625</LatitudeDegrees>
              <LongitudeDegrees>-1.6414381563663482666015625</LongitudeDegrees>
            </Position>
            <AltitudeMeters>538</AltitudeMeters>
            <DistanceMeters>0.3005008559714</DistanceMeters>
          </Trackpoint>
          <Trackpoint>
            <Time>2022-11-06T10:06:51.000Z</Time>
            <Position>
              <LatitudeDegrees>41.35152895934879779815673828125</LatitudeDegrees>
              <LongitudeDegrees>-1.6417010128498077392578125</LongitudeDegrees>
            </Position>
            <AltitudeMeters>538</AltitudeMeters>
            <DistanceMeters>25.948737420432</DistanceMeters>
          </Trackpoint>
          <Trackpoint>
            <Time>2022-11-06T10:06:52.000Z</Time>
            <Position>
              <LatitudeDegrees>41.351508758962154388427734375</LatitudeDegrees>
              <LongitudeDegrees>-1.6417437605559825897216796875</LongitudeDegrees>
            </Position>
            <AltitudeMeters>538</AltitudeMeters>
            <DistanceMeters>30.170747711794</DistanceMeters>
          </Trackpoint>
          <Trackpoint>
            <Time>2022-11-06T10:06:53.000Z</Time>
            <Position>
              <LatitudeDegrees>41.3514894805848598480224609375</LatitudeDegrees>
              <LongitudeDegrees>-1.64178659208118915557861328125</LongitudeDegrees>
            </Position>
            <AltitudeMeters>538</AltitudeMeters>
            <DistanceMeters>34.343275408999</DistanceMeters>
          </Trackpoint>
          <Trackpoint>
            <Time>2022-11-06T10:06:54.000Z</Time>
            <Position>
              <LatitudeDegrees>41.35146928019821643829345703125</LatitudeDegrees>
              <LongitudeDegrees>-1.64183738641440868377685546875</LongitudeDegrees>
            </Position>
            <AltitudeMeters>538</AltitudeMeters>
            <DistanceMeters>39.146591483785</DistanceMeters>
          </Trackpoint>
          <Trackpoint>
            <Time>2022-11-06T10:06:55.000Z</Time>
            <Position>
              <LatitudeDegrees>41.35145167820155620574951171875</LatitudeDegrees>
              <LongitudeDegrees>-1.64188248105347156524658203125</LongitudeDegrees>
            </Position>
            <AltitudeMeters>538.20001220703125</AltitudeMeters>
            <DistanceMeters>43.394189950569</DistanceMeters>
          </Trackpoint>
          <Trackpoint>
            <Time>2022-11-06T10:06:56.000Z</Time>
            <Position>
              <LatitudeDegrees>41.35143340565264225006103515625</LatitudeDegrees>
              <LongitudeDegrees>-1.64192958734929561614990234375</LongitudeDegrees>
            </Position>
            <AltitudeMeters>538.20001220703125</AltitudeMeters>
            <DistanceMeters>47.823902820803</DistanceMeters>
          </Trackpoint>
          <Trackpoint>
            <Time>2022-11-06T10:06:59.000Z</Time>
            <Position>
              <LatitudeDegrees>41.3513865508139133453369140625</LatitudeDegrees>
              <LongitudeDegrees>-1.642076857388019561767578125</LongitudeDegrees>
            </Position>
            <AltitudeMeters>538.4000244140625</AltitudeMeters>
            <DistanceMeters>61.187916136742</DistanceMeters>
          </Trackpoint>
          <Trackpoint>
            <Time>2022-11-06T10:07:00.000Z</Time>
            <Position>
              <LatitudeDegrees>41.35137171484529972076416015625</LatitudeDegrees>
              <LongitudeDegrees>-1.64213041774928569793701171875</LongitudeDegrees>
            </Position>
            <AltitudeMeters>538.4000244140625</AltitudeMeters>
            <DistanceMeters>65.958219338716</DistanceMeters>
          </Trackpoint>
          <Trackpoint>
            <Time>2022-11-06T10:07:02.000Z</Time>
            <Position>
              <LatitudeDegrees>41.35137967765331268310546875</LatitudeDegrees>
              <LongitudeDegrees>-1.6422392986714839935302734375</LongitudeDegrees>
            </Position>
            <AltitudeMeters>538.4000244140625</AltitudeMeters>
            <DistanceMeters>75.09858406117</DistanceMeters>
          </Trackpoint>
          <Trackpoint>
            <Time>2022-11-06T10:07:03.000Z</Time>
            <Position>
              <LatitudeDegrees>41.351399123668670654296875</LatitudeDegrees>
              <LongitudeDegrees>-1.64227827452123165130615234375</LongitudeDegrees>
            </Position>
            <AltitudeMeters>538.20001220703125</AltitudeMeters>
            <DistanceMeters>79.008560968981</DistanceMeters>
          </Trackpoint>
          <Trackpoint>
            <Time>2022-11-06T10:07:06.000Z</Time>
            <Position>
              <LatitudeDegrees>41.3514727167785167694091796875</LatitudeDegrees>
              <LongitudeDegrees>-1.642418839037418365478515625</LongitudeDegrees>
            </Position>
            <AltitudeMeters>538.20001220703125</AltitudeMeters>
            <DistanceMeters>93.327040482659</DistanceMeters>
          </Trackpoint>
          <Trackpoint>
            <Time>2022-11-06T10:07:08.000Z</Time>
            <Position>
              <LatitudeDegrees>41.35154329240322113037109375</LatitudeDegrees>
              <LongitudeDegrees>-1.6424681246280670166015625</LongitudeDegrees>
            </Position>
            <AltitudeMeters>538.20001220703125</AltitudeMeters>
            <DistanceMeters>102.19665298715</DistanceMeters>
          </Trackpoint>
          <Trackpoint>
            <Time>2022-11-06T10:07:13.000Z</Time>
            <Position>
              <LatitudeDegrees>41.35173800401389598846435546875</LatitudeDegrees>
              <LongitudeDegrees>-1.6425464116036891937255859375</LongitudeDegrees>
            </Position>
            <AltitudeMeters>538</AltitudeMeters>
            <DistanceMeters>124.83416252762</DistanceMeters>
          </Trackpoint>
          <Trackpoint>
            <Time>2022-11-06T10:07:15.000Z</Time>
            <Position>
              <LatitudeDegrees>41.3518234156072139739990234375</LatitudeDegrees>
              <LongitudeDegrees>-1.64256828837096691131591796875</LongitudeDegrees>
            </Position>
            <AltitudeMeters>538</AltitudeMeters>
            <DistanceMeters>134.51476856936</DistanceMeters>
          </Trackpoint>
          <Trackpoint>
            <Time>2022-11-06T10:07:20.000Z</Time>
            <Position>
              <LatitudeDegrees>41.35203036479651927947998046875</LatitudeDegrees>
              <LongitudeDegrees>-1.6425792686641216278076171875</LongitudeDegrees>
            </Position>
            <AltitudeMeters>537.5999755859375</AltitudeMeters>
            <DistanceMeters>157.56672962472</DistanceMeters>
          </Trackpoint>
          <Trackpoint>
            <Time>2022-11-06T10:07:21.000Z</Time>
            <Position>
              <LatitudeDegrees>41.35207193903625011444091796875</LatitudeDegrees>
              <LongitudeDegrees>-1.64258002303540706634521484375</LongitudeDegrees>
            </Position>
            <AltitudeMeters>537.5999755859375</AltitudeMeters>
            <DistanceMeters>162.19483305108</DistanceMeters>
          </Trackpoint>
          <Trackpoint>
            <Time>2022-11-06T10:07:23.000Z</Time>
            <Position>
              <LatitudeDegrees>41.3521456159651279449462890625</LatitudeDegrees>
              <LongitudeDegrees>-1.64255621843039989471435546875</LongitudeDegrees>
            </Position>
            <AltitudeMeters>537.4000244140625</AltitudeMeters>
            <DistanceMeters>170.63243476508</DistanceMeters>
          </Trackpoint>
          <Trackpoint>
            <Time>2022-11-06T10:07:27.000Z</Time>
            <Position>
              <LatitudeDegrees>41.3523068837821483612060546875</LatitudeDegrees>
              <LongitudeDegrees>-1.642467789351940155029296875</LongitudeDegrees>
            </Position>
            <AltitudeMeters>537.4000244140625</AltitudeMeters>
            <DistanceMeters>190.04255710872</DistanceMeters>
          </Trackpoint>
          <Trackpoint>
            <Time>2022-11-06T10:07:33.000Z</Time>
            <Position>
              <LatitudeDegrees>41.352463625371456146240234375</LatitudeDegrees>
              <LongitudeDegrees>-1.64256828837096691131591796875</LongitudeDegrees>
            </Position>
            <AltitudeMeters>537.5999755859375</AltitudeMeters>
            <DistanceMeters>209.4037691922</DistanceMeters>
          </Trackpoint>
          <Trackpoint>
            <Time>2022-11-06T10:07:38.000Z</Time>
            <Position>
              <LatitudeDegrees>41.35264107026159763336181640625</LatitudeDegrees>
              <LongitudeDegrees>-1.64267121814191341400146484375</LongitudeDegrees>
            </Position>
            <AltitudeMeters>538.20001220703125</AltitudeMeters>
            <DistanceMeters>230.94488123753</DistanceMeters>
          </Trackpoint>
          <Trackpoint>
            <Time>2022-11-06T10:07:39.000Z</Time>
            <Position>
              <LatitudeDegrees>41.35267811827361583709716796875</LatitudeDegrees>
              <LongitudeDegrees>-1.64268932305276393890380859375</LongitudeDegrees>
            </Position>
            <AltitudeMeters>538.4000244140625</AltitudeMeters>
            <DistanceMeters>235.33671949552</DistanceMeters>
          </Trackpoint>
          <Trackpoint>
            <Time>2022-11-06T10:07:41.000Z</Time>
            <Position>
              <LatitudeDegrees>41.35274332948029041290283203125</LatitudeDegrees>
              <LongitudeDegrees>-1.642733328044414520263671875</LongitudeDegrees>
            </Position>
            <AltitudeMeters>538.4000244140625</AltitudeMeters>
            <DistanceMeters>243.47247147884</DistanceMeters>
          </Trackpoint>
          <Trackpoint>
            <Time>2022-11-06T10:07:45.000Z</Time>
            <Position>
              <LatitudeDegrees>41.35286335833370685577392578125</LatitudeDegrees>
              <LongitudeDegrees>-1.64285176433622837066650390625</LongitudeDegrees>
            </Position>
            <AltitudeMeters>538.5999755859375</AltitudeMeters>
            <DistanceMeters>260.09753026962</DistanceMeters>
          </Trackpoint>
          <Trackpoint>
            <Time>2022-11-06T10:07:48.000Z</Time>
            <Position>
              <LatitudeDegrees>41.35293628089129924774169921875</LatitudeDegrees>
              <LongitudeDegrees>-1.64296709932386875152587890625</LongitudeDegrees>
            </Position>
            <AltitudeMeters>539</AltitudeMeters>
            <DistanceMeters>272.69636687193</DistanceMeters>
          </Trackpoint>
          <Trackpoint>
            <Time>2022-11-06T10:07:49.000Z</Time>
            <Position>
              <LatitudeDegrees>41.35296276770532131195068359375</LatitudeDegrees>
              <LongitudeDegrees>-1.6430164687335491180419921875</LongitudeDegrees>
            </Position>
            <AltitudeMeters>539.20001220703125</AltitudeMeters>
            <DistanceMeters>277.76584392184</DistanceMeters>
          </Trackpoint>
          <Trackpoint>
            <Time>2022-11-06T10:07:55.000Z</Time>
            <Position>
              <LatitudeDegrees>41.35309956036508083343505859375</LatitudeDegrees>
              <LongitudeDegrees>-1.64323129691183567047119140625</LongitudeDegrees>
            </Position>
            <AltitudeMeters>539.5999755859375</AltitudeMeters>
            <DistanceMeters>301.30237084507</DistanceMeters>
          </Trackpoint>
          <Trackpoint>
            <Time>2022-11-06T10:07:57.000Z</Time>
            <Position>
              <LatitudeDegrees>41.35315823368728160858154296875</LatitudeDegrees>
              <LongitudeDegrees>-1.6432930715382099151611328125</LongitudeDegrees>
            </Position>
            <AltitudeMeters>539.79998779296875</AltitudeMeters>
            <DistanceMeters>309.62575636287</DistanceMeters>
          </Trackpoint>
          <Trackpoint>
            <Time>2022-11-06T10:07:59.000Z</Time>
            <Position>
              <LatitudeDegrees>41.35321724228560924530029296875</LatitudeDegrees>
              <LongitudeDegrees>-1.643352247774600982666015625</LongitudeDegrees>
            </Position>
            <AltitudeMeters>540.20001220703125</AltitudeMeters>
            <DistanceMeters>317.84652835257</DistanceMeters>
          </Trackpoint>
          <Trackpoint>
            <Time>2022-11-06T10:08:03.000Z</Time>
            <Position>
              <LatitudeDegrees>41.35332562029361724853515625</LatitudeDegrees>
              <LongitudeDegrees>-1.643478311598300933837890625</LongitudeDegrees>
            </Position>
            <AltitudeMeters>540.5999755859375</AltitudeMeters>
            <DistanceMeters>333.86071490726</DistanceMeters>
          </Trackpoint>
          <Trackpoint>
            <Time>2022-11-06T10:08:06.000Z</Time>
            <Position>
              <LatitudeDegrees>41.35342678986489772796630859375</LatitudeDegrees>
              <LongitudeDegrees>-1.64357445202767848968505859375</LongitudeDegrees>
            </Position>
            <AltitudeMeters>540.5999755859375</AltitudeMeters>
            <DistanceMeters>347.69224409031</DistanceMeters>
          </Trackpoint>
          <Trackpoint>
            <Time>2022-11-06T10:08:07.000Z</Time>
            <Position>
              <LatitudeDegrees>41.35345947928726673126220703125</LatitudeDegrees>
              <LongitudeDegrees>-1.64361476898193359375</LongitudeDegrees>
            </Position>
            <AltitudeMeters>540.79998779296875</AltitudeMeters>
            <DistanceMeters>352.65005288861</DistanceMeters>
          </Trackpoint>
          <Trackpoint>
            <Time>2022-11-06T10:08:12.000Z</Time>
            <Position>
              <LatitudeDegrees>41.35361387394368648529052734375</LatitudeDegrees>
              <LongitudeDegrees>-1.64370487444102764129638671875</LongitudeDegrees>
            </Position>
            <AltitudeMeters>541.20001220703125</AltitudeMeters>
            <DistanceMeters>371.41127219091</DistanceMeters>
          </Trackpoint>
          <Trackpoint>
            <Time>2022-11-06T10:08:17.000Z</Time>
            <Position>
              <LatitudeDegrees>41.35371814481914043426513671875</LatitudeDegrees>
              <LongitudeDegrees>-1.64388910867273807525634765625</LongitudeDegrees>
            </Position>
            <AltitudeMeters>541.79998779296875</AltitudeMeters>
            <DistanceMeters>390.68881783279</DistanceMeters>
          </Trackpoint>
          <Trackpoint>
            <Time>2022-11-06T10:08:21.000Z</Time>
            <Position>
              <LatitudeDegrees>41.3538119383156299591064453125</LatitudeDegrees>
              <LongitudeDegrees>-1.64395851083099842071533203125</LongitudeDegrees>
            </Position>
            <AltitudeMeters>542</AltitudeMeters>
            <DistanceMeters>402.63008816415</DistanceMeters>
          </Trackpoint>
          <Trackpoint>
            <Time>2022-11-06T10:08:22.000Z</Time>
            <Position>
              <LatitudeDegrees>41.35381621308624744415283203125</LatitudeDegrees>
              <LongitudeDegrees>-1.6439485363662242889404296875</LongitudeDegrees>
            </Position>
            <AltitudeMeters>542.20001220703125</AltitudeMeters>
            <DistanceMeters>403.5898109352</DistanceMeters>
          </Trackpoint>
          <Trackpoint>
            <Time>2022-11-06T10:08:24.000Z</Time>
            <Position>
              <LatitudeDegrees>41.3538494892418384552001953125</LatitudeDegrees>
              <LongitudeDegrees>-1.64391173981130123138427734375</LongitudeDegrees>
            </Position>
            <AltitudeMeters>542.20001220703125</AltitudeMeters>
            <DistanceMeters>408.40251766622</DistanceMeters>
          </Trackpoint>
          <Trackpoint>
            <Time>2022-11-06T10:08:28.000Z</Time>
            <Position>
              <LatitudeDegrees>41.35399575345218181610107421875</LatitudeDegrees>
              <LongitudeDegrees>-1.64391878060996532440185546875</LongitudeDegrees>
            </Position>
            <AltitudeMeters>542.79998779296875</AltitudeMeters>
            <DistanceMeters>424.69232510468</DistanceMeters>
          </Trackpoint>
          <Trackpoint>
            <Time>2022-11-06T10:08:33.000Z</Time>
            <Position>
              <LatitudeDegrees>41.3541656546294689178466796875</LatitudeDegrees>
              <LongitudeDegrees>-1.64391945116221904754638671875</LongitudeDegrees>
            </Position>
            <AltitudeMeters>543.20001220703125</AltitudeMeters>
            <DistanceMeters>443.60264126431</DistanceMeters>
          </Trackpoint>
          <Trackpoint>
            <Time>2022-11-06T10:08:34.000Z</Time>
            <Position>
              <LatitudeDegrees>41.3541877828538417816162109375</LatitudeDegrees>
              <LongitudeDegrees>-1.6439042799174785614013671875</LongitudeDegrees>
            </Position>
            <AltitudeMeters>543.20001220703125</AltitudeMeters>
            <DistanceMeters>446.37149209109</DistanceMeters>
          </Trackpoint>
          <Trackpoint>
            <Time>2022-11-06T10:08:36.000Z</Time>
            <Position>
              <LatitudeDegrees>41.3542409241199493408203125</LatitudeDegrees>
              <LongitudeDegrees>-1.64388005621731281280517578125</LongitudeDegrees>
            </Position>
            <AltitudeMeters>543.4000244140625</AltitudeMeters>
            <DistanceMeters>452.62306556098</DistanceMeters>
          </Trackpoint>
          <Trackpoint>
            <Time>2022-11-06T10:08:38.000Z</Time>
            <Position>
              <LatitudeDegrees>41.35428987443447113037109375</LatitudeDegrees>
              <LongitudeDegrees>-1.64381216280162334442138671875</LongitudeDegrees>
            </Position>
            <AltitudeMeters>543.79998779296875</AltitudeMeters>
            <DistanceMeters>460.4879256132</DistanceMeters>
          </Trackpoint>
          <Trackpoint>
            <Time>2022-11-06T10:08:41.000Z</Time>
            <Position>
              <LatitudeDegrees>41.35432549752295017242431640625</LatitudeDegrees>
              <LongitudeDegrees>-1.64362994022667407989501953125</LongitudeDegrees>
            </Position>
            <AltitudeMeters>543.79998779296875</AltitudeMeters>
            <DistanceMeters>476.21994185957</DistanceMeters>
          </Trackpoint>
          <Trackpoint>
            <Time>2022-11-06T10:08:43.000Z</Time>
            <Position>
              <LatitudeDegrees>41.35434611700475215911865234375</LatitudeDegrees>
              <LongitudeDegrees>-1.64353405125439167022705078125</LongitudeDegrees>
            </Position>
            <AltitudeMeters>543.5999755859375</AltitudeMeters>
            <DistanceMeters>484.55308579533</DistanceMeters>
          </Trackpoint>
          <Trackpoint>
            <Time>2022-11-06T10:08:48.000Z</Time>
            <Position>
              <LatitudeDegrees>41.35439439676702022552490234375</LatitudeDegrees>
              <LongitudeDegrees>-1.643318720161914825439453125</LongitudeDegrees>
            </Position>
            <AltitudeMeters>543.4000244140625</AltitudeMeters>
            <DistanceMeters>503.32849855296</DistanceMeters>
          </Trackpoint>
          <Trackpoint>
            <Time>2022-11-06T10:08:49.000Z</Time>
            <Position>
              <LatitudeDegrees>41.3543946482241153717041015625</LatitudeDegrees>
              <LongitudeDegrees>-1.64329131133854389190673828125</LongitudeDegrees>
            </Position>
            <AltitudeMeters>543.4000244140625</AltitudeMeters>
            <DistanceMeters>505.62098726403</DistanceMeters>
          </Trackpoint>
          <Trackpoint>
            <Time>2022-11-06T10:08:52.000Z</Time>
            <Position>
              <LatitudeDegrees>41.35441216640174388885498046875</LatitudeDegrees>
              <LongitudeDegrees>-1.64320950396358966827392578125</LongitudeDegrees>
            </Position>
            <AltitudeMeters>543.4000244140625</AltitudeMeters>
            <DistanceMeters>512.72832485468</DistanceMeters>
          </Trackpoint>
          <Trackpoint>
            <Time>2022-11-06T10:08:54.000Z</Time>
            <Position>
              <LatitudeDegrees>41.35448299348354339599609375</LatitudeDegrees>
              <LongitudeDegrees>-1.64319441653788089752197265625</LongitudeDegrees>
            </Position>
            <AltitudeMeters>543.4000244140625</AltitudeMeters>
            <DistanceMeters>520.71170005201</DistanceMeters>
          </Trackpoint>
          <Trackpoint>
            <Time>2022-11-06T10:08:57.000Z</Time>
            <Position>
              <LatitudeDegrees>41.35459455661475658416748046875</LatitudeDegrees>
              <LongitudeDegrees>-1.64323993027210235595703125</LongitudeDegrees>
            </Position>
            <AltitudeMeters>543.5999755859375</AltitudeMeters>
            <DistanceMeters>533.69806627461</DistanceMeters>
          </Trackpoint>
          <Trackpoint>
            <Time>2022-11-06T10:08:58.000Z</Time>
            <Position>
              <LatitudeDegrees>41.35461400263011455535888671875</LatitudeDegrees>
              <LongitudeDegrees>-1.64323817007243633270263671875</LongitudeDegrees>
            </Position>
            <AltitudeMeters>543.5999755859375</AltitudeMeters>
            <DistanceMeters>535.86500876366</DistanceMeters>
          </Trackpoint>
          <Trackpoint>
            <Time>2022-11-06T10:09:01.000Z</Time>
            <Position>
              <LatitudeDegrees>41.3546843267977237701416015625</LatitudeDegrees>
              <LongitudeDegrees>-1.643291898071765899658203125</LongitudeDegrees>
            </Position>
            <AltitudeMeters>544</AltitudeMeters>
            <DistanceMeters>544.88754383659</DistanceMeters>
          </Trackpoint>
          <Trackpoint>
            <Time>2022-11-06T10:09:03.000Z</Time>
            <Position>
              <LatitudeDegrees>41.354749202728271484375</LatitudeDegrees>
              <LongitudeDegrees>-1.64330807514488697052001953125</LongitudeDegrees>
            </Position>
            <AltitudeMeters>544.4000244140625</AltitudeMeters>
            <DistanceMeters>552.2335452543</DistanceMeters>
          </Trackpoint>
          <Trackpoint>
            <Time>2022-11-06T10:09:06.000Z</Time>
            <Position>
              <LatitudeDegrees>41.35483109392225742340087890625</LatitudeDegrees>
              <LongitudeDegrees>-1.64331964217126369476318359375</LongitudeDegrees>
            </Position>
            <AltitudeMeters>545</AltitudeMeters>
            <DistanceMeters>561.39956026818</DistanceMeters>
          </Trackpoint>
          <Trackpoint>
            <Time>2022-11-06T10:09:09.000Z</Time>
            <Position>
              <LatitudeDegrees>41.35490066371858119964599609375</LatitudeDegrees>
              <LongitudeDegrees>-1.64339574985206127166748046875</LongitudeDegrees>
            </Position>
            <AltitudeMeters>545.5999755859375</AltitudeMeters>
            <DistanceMeters>571.41845889782</DistanceMeters>
          </Trackpoint>
          <Trackpoint>
            <Time>2022-11-06T10:09:10.000Z</Time>
            <Position>
              <LatitudeDegrees>41.3549035973846912384033203125</LatitudeDegrees>
              <LongitudeDegrees>-1.643440090119838714599609375</LongitudeDegrees>
            </Position>
            <AltitudeMeters>545.5999755859375</AltitudeMeters>
            <DistanceMeters>575.13787781912</DistanceMeters>
          </Trackpoint>
          <Trackpoint>
            <Time>2022-11-06T10:09:13.000Z</Time>
            <Position>
              <LatitudeDegrees>41.35492958128452301025390625</LatitudeDegrees>
              <LongitudeDegrees>-1.6435866057872772216796875</LongitudeDegrees>
            </Position>
            <AltitudeMeters>546.5999755859375</AltitudeMeters>
            <DistanceMeters>587.71591181884</DistanceMeters>
          </Trackpoint>
          <Trackpoint>
            <Time>2022-11-06T10:09:14.000Z</Time>
            <Position>
              <LatitudeDegrees>41.35495238006114959716796875</LatitudeDegrees>
              <LongitudeDegrees>-1.643611751496791839599609375</LongitudeDegrees>
            </Position>
            <AltitudeMeters>546.79998779296875</AltitudeMeters>
            <DistanceMeters>591.00910507299</DistanceMeters>
          </Trackpoint>
          <Trackpoint>
            <Time>2022-11-06T10:09:15.000Z</Time>
            <Position>
              <LatitudeDegrees>41.35497325100004673004150390625</LatitudeDegrees>
              <LongitudeDegrees>-1.6436186246573925018310546875</LongitudeDegrees>
            </Position>
            <AltitudeMeters>547</AltitudeMeters>
            <DistanceMeters>593.40181660293</DistanceMeters>
          </Trackpoint>
          <Trackpoint>
            <Time>2022-11-06T10:09:17.000Z</Time>
            <Position>
              <LatitudeDegrees>41.35500627569854259490966796875</LatitudeDegrees>
              <LongitudeDegrees>-1.64359037764370441436767578125</LongitudeDegrees>
            </Position>
            <AltitudeMeters>547.20001220703125</AltitudeMeters>
            <DistanceMeters>597.77097917744</DistanceMeters>
          </Trackpoint>
          <Trackpoint>
            <Time>2022-11-06T10:09:18.000Z</Time>
            <Position>
              <LatitudeDegrees>41.3550299964845180511474609375</LatitudeDegrees>
              <LongitudeDegrees>-1.64355576038360595703125</LongitudeDegrees>
            </Position>
            <AltitudeMeters>547.20001220703125</AltitudeMeters>
            <DistanceMeters>601.68672556885</DistanceMeters>
          </Trackpoint>
          <Trackpoint>
            <Time>2022-11-06T10:09:21.000Z</Time>
            <Position>
              <LatitudeDegrees>41.3551131449639797210693359375</LatitudeDegrees>
              <LongitudeDegrees>-1.643446125090122222900390625</LongitudeDegrees>
            </Position>
            <AltitudeMeters>547.4000244140625</AltitudeMeters>
            <DistanceMeters>614.70815964456</DistanceMeters>
          </Trackpoint>
          <Trackpoint>
            <Time>2022-11-06T10:09:25.000Z</Time>
            <Position>
              <LatitudeDegrees>41.355218254029750823974609375</LatitudeDegrees>
              <LongitudeDegrees>-1.64333774708211421966552734375</LongitudeDegrees>
            </Position>
            <AltitudeMeters>547.20001220703125</AltitudeMeters>
            <DistanceMeters>629.50183845329</DistanceMeters>
          </Trackpoint>
          <Trackpoint>
            <Time>2022-11-06T10:09:26.000Z</Time>
            <Position>
              <LatitudeDegrees>41.35525220073759555816650390625</LatitudeDegrees>
              <LongitudeDegrees>-1.64332048036158084869384765625</LongitudeDegrees>
            </Position>
            <AltitudeMeters>547.20001220703125</AltitudeMeters>
            <DistanceMeters>633.54466399535</DistanceMeters>
          </Trackpoint>
          <Trackpoint>
            <Time>2022-11-06T10:09:29.000Z</Time>
            <Position>
              <LatitudeDegrees>41.35535345412790775299072265625</LatitudeDegrees>
              <LongitudeDegrees>-1.6432900540530681610107421875</LongitudeDegrees>
            </Position>
            <AltitudeMeters>547.79998779296875</AltitudeMeters>
            <DistanceMeters>645.09773977274</DistanceMeters>
          </Trackpoint>
          <Trackpoint>
            <Time>2022-11-06T10:09:31.000Z</Time>
            <Position>
              <LatitudeDegrees>41.35541983880102634429931640625</LatitudeDegrees>
              <LongitudeDegrees>-1.64330388419330120086669921875</LongitudeDegrees>
            </Position>
            <AltitudeMeters>548.20001220703125</AltitudeMeters>
            <DistanceMeters>652.57652934686</DistanceMeters>
          </Trackpoint>
          <Trackpoint>
            <Time>2022-11-06T10:09:33.000Z</Time>
            <Position>
              <LatitudeDegrees>41.3554896600544452667236328125</LatitudeDegrees>
              <LongitudeDegrees>-1.6432970948517322540283203125</LongitudeDegrees>
            </Position>
            <AltitudeMeters>549</AltitudeMeters>
            <DistanceMeters>660.36871992519</DistanceMeters>
          </Trackpoint>
          <Trackpoint>
            <Time>2022-11-06T10:09:36.000Z</Time>
            <Position>
              <LatitudeDegrees>41.35556082241237163543701171875</LatitudeDegrees>
              <LongitudeDegrees>-1.64328611455857753753662109375</LongitudeDegrees>
            </Position>
            <AltitudeMeters>550.4000244140625</AltitudeMeters>
            <DistanceMeters>668.3419086327</DistanceMeters>
          </Trackpoint>
          <Trackpoint>
            <Time>2022-11-06T10:09:37.000Z</Time>
            <Position>
              <LatitudeDegrees>41.35557624511420726776123046875</LatitudeDegrees>
              <LongitudeDegrees>-1.64328427053987979888916015625</LongitudeDegrees>
            </Position>
            <AltitudeMeters>551</AltitudeMeters>
            <DistanceMeters>670.06553711647</DistanceMeters>
          </Trackpoint>
          <Trackpoint>
            <Time>2022-11-06T10:09:38.000Z</Time>
            <Position>
              <LatitudeDegrees>41.3555986247956752777099609375</LatitudeDegrees>
              <LongitudeDegrees>-1.64327605627477169036865234375</LongitudeDegrees>
            </Position>
            <AltitudeMeters>551.20001220703125</AltitudeMeters>
            <DistanceMeters>672.65054322256</DistanceMeters>
          </Trackpoint>
          <Trackpoint>
            <Time>2022-11-06T10:09:39.000Z</Time>
            <Position>
              <LatitudeDegrees>41.35562251321971416473388671875</LatitudeDegrees>
              <LongitudeDegrees>-1.643274463713169097900390625</LongitudeDegrees>
            </Position>
            <AltitudeMeters>551.79998779296875</AltitudeMeters>
            <DistanceMeters>675.31298758977</DistanceMeters>
          </Trackpoint>
          <Trackpoint>
            <Time>2022-11-06T10:09:41.000Z</Time>
            <Position>
              <LatitudeDegrees>41.355668194591999053955078125</LatitudeDegrees>
              <LongitudeDegrees>-1.64329483173787593841552734375</LongitudeDegrees>
            </Position>
            <AltitudeMeters>553</AltitudeMeters>
            <DistanceMeters>680.6750546723</DistanceMeters>
          </Trackpoint>
          <Trackpoint>
            <Time>2022-11-06T10:09:43.000Z</Time>
            <Position>
              <LatitudeDegrees>41.35570800863206386566162109375</LatitudeDegrees>
              <LongitudeDegrees>-1.6433017887175083160400390625</LongitudeDegrees>
            </Position>
            <AltitudeMeters>554.20001220703125</AltitudeMeters>
            <DistanceMeters>685.14434198618</DistanceMeters>
          </Trackpoint>
          <Trackpoint>
            <Time>2022-11-06T10:09:44.000Z</Time>
            <Position>
              <LatitudeDegrees>41.3557169772684574127197265625</LatitudeDegrees>
              <LongitudeDegrees>-1.64331612177193164825439453125</LongitudeDegrees>
            </Position>
            <AltitudeMeters>554.79998779296875</AltitudeMeters>
            <DistanceMeters>686.70579023696</DistanceMeters>
          </Trackpoint>
          <Trackpoint>
            <Time>2022-11-06T10:09:45.000Z</Time>
            <Position>
              <LatitudeDegrees>41.35572443716228008270263671875</LatitudeDegrees>
              <LongitudeDegrees>-1.64333590306341648101806640625</LongitudeDegrees>
            </Position>
            <AltitudeMeters>555.4000244140625</AltitudeMeters>
            <DistanceMeters>688.55576293197</DistanceMeters>
          </Trackpoint>
          <Trackpoint>
            <Time>2022-11-06T10:09:47.000Z</Time>
            <Position>
              <LatitudeDegrees>41.3557411171495914459228515625</LatitudeDegrees>
              <LongitudeDegrees>-1.64339390583336353302001953125</LongitudeDegrees>
            </Position>
            <AltitudeMeters>556.4000244140625</AltitudeMeters>
            <DistanceMeters>693.74321199706</DistanceMeters>
          </Trackpoint>
          <Trackpoint>
            <Time>2022-11-06T10:09:50.000Z</Time>
            <Position>
              <LatitudeDegrees>41.35574086569249629974365234375</LatitudeDegrees>
              <LongitudeDegrees>-1.64349415339529514312744140625</LongitudeDegrees>
            </Position>
            <AltitudeMeters>557.4000244140625</AltitudeMeters>
            <DistanceMeters>702.119050098</DistanceMeters>
          </Trackpoint>
          <Trackpoint>
            <Time>2022-11-06T10:09:57.000Z</Time>
            <Position>
              <LatitudeDegrees>41.35575779713690280914306640625</LatitudeDegrees>
              <LongitudeDegrees>-1.64375717751681804656982421875</LongitudeDegrees>
            </Position>
            <AltitudeMeters>558</AltitudeMeters>
            <DistanceMeters>724.17446185929</DistanceMeters>
          </Trackpoint>
          <Trackpoint>
            <Time>2022-11-06T10:10:01.000Z</Time>
            <Position>
              <LatitudeDegrees>41.3557847030460834503173828125</LatitudeDegrees>
              <LongitudeDegrees>-1.64395364932715892791748046875</LongitudeDegrees>
            </Position>
            <AltitudeMeters>556.20001220703125</AltitudeMeters>
            <DistanceMeters>740.85970254581</DistanceMeters>
          </Trackpoint>
          <Trackpoint>
            <Time>2022-11-06T10:10:03.000Z</Time>
            <Position>
              <LatitudeDegrees>41.3558500818908214569091796875</LatitudeDegrees>
              <LongitudeDegrees>-1.64401014335453510284423828125</LongitudeDegrees>
            </Position>
            <AltitudeMeters>554.5999755859375</AltitudeMeters>
            <DistanceMeters>749.53320050538</DistanceMeters>
          </Trackpoint>
          <Trackpoint>
            <Time>2022-11-06T10:10:04.000Z</Time>
            <Position>
              <LatitudeDegrees>41.3558904826641082763671875</LatitudeDegrees>
              <LongitudeDegrees>-1.644014082849025726318359375</LongitudeDegrees>
            </Position>
            <AltitudeMeters>554.4000244140625</AltitudeMeters>
            <DistanceMeters>754.0417149032</DistanceMeters>
          </Trackpoint>
          <Trackpoint>
            <Time>2022-11-06T10:10:10.000Z</Time>
            <Position>
              <LatitudeDegrees>41.35607798583805561065673828125</LatitudeDegrees>
              <LongitudeDegrees>-1.64399187080562114715576171875</LongitudeDegrees>
            </Position>
            <AltitudeMeters>554.4000244140625</AltitudeMeters>
            <DistanceMeters>774.99354313298</DistanceMeters>
          </Trackpoint>
          <Trackpoint>
            <Time>2022-11-06T10:10:14.000Z</Time>
            <Position>
              <LatitudeDegrees>41.35618745349347591400146484375</LatitudeDegrees>
              <LongitudeDegrees>-1.6439723409712314605712890625</LongitudeDegrees>
            </Position>
            <AltitudeMeters>555.79998779296875</AltitudeMeters>
            <DistanceMeters>787.28619537784</DistanceMeters>
          </Trackpoint>
          <Trackpoint>
            <Time>2022-11-06T10:10:17.000Z</Time>
            <Position>
              <LatitudeDegrees>41.35625350289046764373779296875</LatitudeDegrees>
              <LongitudeDegrees>-1.643945686519145965576171875</LongitudeDegrees>
            </Position>
            <AltitudeMeters>556.5999755859375</AltitudeMeters>
            <DistanceMeters>794.96750512845</DistanceMeters>
          </Trackpoint>
          <Trackpoint>
            <Time>2022-11-06T10:10:18.000Z</Time>
            <Position>
              <LatitudeDegrees>41.35627177543938159942626953125</LatitudeDegrees>
              <LongitudeDegrees>-1.64393370039761066436767578125</LongitudeDegrees>
            </Position>
            <AltitudeMeters>556.79998779296875</AltitudeMeters>
            <DistanceMeters>797.23623683869</DistanceMeters>
          </Trackpoint>
          <Trackpoint>
            <Time>2022-11-06T10:10:21.000Z</Time>
            <Position>
              <LatitudeDegrees>41.35633639991283416748046875</LatitudeDegrees>
              <LongitudeDegrees>-1.64388039149343967437744140625</LongitudeDegrees>
            </Position>
            <AltitudeMeters>558</AltitudeMeters>
            <DistanceMeters>805.69628328625</DistanceMeters>
          </Trackpoint>
          <Trackpoint>
            <Time>2022-11-06T10:10:24.000Z</Time>
            <Position>
              <LatitudeDegrees>41.3563908822834491729736328125</LatitudeDegrees>
              <LongitudeDegrees>-1.64382196962833404541015625</LongitudeDegrees>
            </Position>
            <AltitudeMeters>558.4000244140625</AltitudeMeters>
            <DistanceMeters>813.47977754413</DistanceMeters>
          </Trackpoint>
          <Trackpoint>
            <Time>2022-11-06T10:10:26.000Z</Time>
            <Position>
              <LatitudeDegrees>41.356423906981945037841796875</LatitudeDegrees>
              <LongitudeDegrees>-1.64376958273351192474365234375</LongitudeDegrees>
            </Position>
            <AltitudeMeters>559</AltitudeMeters>
            <DistanceMeters>819.19403658808</DistanceMeters>
          </Trackpoint>
          <Trackpoint>
            <Time>2022-11-06T10:10:30.000Z</Time>
            <Position>
              <LatitudeDegrees>41.35647629387676715850830078125</LatitudeDegrees>
              <LongitudeDegrees>-1.64367671124637126922607421875</LongitudeDegrees>
            </Position>
            <AltitudeMeters>560.4000244140625</AltitudeMeters>
            <DistanceMeters>828.89979557249</DistanceMeters>
          </Trackpoint>
          <Trackpoint>
            <Time>2022-11-06T10:10:31.000Z</Time>
            <Position>
              <LatitudeDegrees>41.35648668743669986724853515625</LatitudeDegrees>
              <LongitudeDegrees>-1.6436511464416980743408203125</LongitudeDegrees>
            </Position>
            <AltitudeMeters>560.79998779296875</AltitudeMeters>
            <DistanceMeters>831.32809537233</DistanceMeters>
          </Trackpoint>
          <Trackpoint>
            <Time>2022-11-06T10:10:33.000Z</Time>
            <Position>
              <LatitudeDegrees>41.35650998912751674652099609375</LatitudeDegrees>
              <LongitudeDegrees>-1.643596328794956207275390625</LongitudeDegrees>
            </Position>
            <AltitudeMeters>561.4000244140625</AltitudeMeters>
            <DistanceMeters>836.5898645023</DistanceMeters>
          </Trackpoint>
          <Trackpoint>
            <Time>2022-11-06T10:10:36.000Z</Time>
            <Position>
              <LatitudeDegrees>41.35653379373252391815185546875</LatitudeDegrees>
              <LongitudeDegrees>-1.64351795800030231475830078125</LongitudeDegrees>
            </Position>
            <AltitudeMeters>562.4000244140625</AltitudeMeters>
            <DistanceMeters>843.6525935978</DistanceMeters>
          </Trackpoint>
          <Trackpoint>
            <Time>2022-11-06T10:10:37.000Z</Time>
            <Position>
              <LatitudeDegrees>41.35653831996023654937744140625</LatitudeDegrees>
              <LongitudeDegrees>-1.6434885375201702117919921875</LongitudeDegrees>
            </Position>
            <AltitudeMeters>562.79998779296875</AltitudeMeters>
            <DistanceMeters>846.16137084607</DistanceMeters>
          </Trackpoint>
          <Trackpoint>
            <Time>2022-11-06T10:10:39.000Z</Time>
            <Position>
              <LatitudeDegrees>41.35654251091182231903076171875</LatitudeDegrees>
              <LongitudeDegrees>-1.64342491887509822845458984375</LongitudeDegrees>
            </Position>
            <AltitudeMeters>563.4000244140625</AltitudeMeters>
            <DistanceMeters>851.49642482437</DistanceMeters>
          </Trackpoint>
          <Trackpoint>
            <Time>2022-11-06T10:10:42.000Z</Time>
            <Position>
              <LatitudeDegrees>41.356562711298465728759765625</LatitudeDegrees>
              <LongitudeDegrees>-1.6433376632630825042724609375</LongitudeDegrees>
            </Position>
            <AltitudeMeters>564.4000244140625</AltitudeMeters>
            <DistanceMeters>859.12524142206</DistanceMeters>
          </Trackpoint>
          <Trackpoint>
            <Time>2022-11-06T10:10:45.000Z</Time>
            <Position>
              <LatitudeDegrees>41.35656899772584438323974609375</LatitudeDegrees>
              <LongitudeDegrees>-1.643248982727527618408203125</LongitudeDegrees>
            </Position>
            <AltitudeMeters>565.4000244140625</AltitudeMeters>
            <DistanceMeters>866.5677201024</DistanceMeters>
          </Trackpoint>
          <Trackpoint>
            <Time>2022-11-06T10:10:46.000Z</Time>
            <Position>
              <LatitudeDegrees>41.356572099030017852783203125</LatitudeDegrees>
              <LongitudeDegrees>-1.6432216577231884002685546875</LongitudeDegrees>
            </Position>
            <AltitudeMeters>565.5999755859375</AltitudeMeters>
            <DistanceMeters>868.87786624028</DistanceMeters>
          </Trackpoint>
          <Trackpoint>
            <Time>2022-11-06T10:10:49.000Z</Time>
            <Position>
              <LatitudeDegrees>41.35657821781933307647705078125</LatitudeDegrees>
              <LongitudeDegrees>-1.643149070441722869873046875</LongitudeDegrees>
            </Position>
            <AltitudeMeters>566.79998779296875</AltitudeMeters>
            <DistanceMeters>874.97884772706</DistanceMeters>
          </Trackpoint>
          <Trackpoint>
            <Time>2022-11-06T10:10:53.000Z</Time>
            <Position>
              <LatitudeDegrees>41.3565853424370288848876953125</LatitudeDegrees>
              <LongitudeDegrees>-1.64306064136326313018798828125</LongitudeDegrees>
            </Position>
            <AltitudeMeters>568</AltitudeMeters>
            <DistanceMeters>882.40857566971</DistanceMeters>
          </Trackpoint>
          <Trackpoint>
            <Time>2022-11-06T10:10:57.000Z</Time>
            <Position>
              <LatitudeDegrees>41.356595568358898162841796875</LatitudeDegrees>
              <LongitudeDegrees>-1.6429537720978260040283203125</LongitudeDegrees>
            </Position>
            <AltitudeMeters>569.20001220703125</AltitudeMeters>
            <DistanceMeters>891.40956705151</DistanceMeters>
          </Trackpoint>
          <Trackpoint>
            <Time>2022-11-06T10:11:02.000Z</Time>
            <Position>
              <LatitudeDegrees>41.35660805739462375640869140625</LatitudeDegrees>
              <LongitudeDegrees>-1.64282846264541149139404296875</LongitudeDegrees>
            </Position>
            <AltitudeMeters>570.4000244140625</AltitudeMeters>
            <DistanceMeters>901.96993845042</DistanceMeters>
          </Trackpoint>
          <Trackpoint>
            <Time>2022-11-06T10:11:06.000Z</Time>
            <Position>
              <LatitudeDegrees>41.35661811567842960357666015625</LatitudeDegrees>
              <LongitudeDegrees>-1.6427150554955005645751953125</LongitudeDegrees>
            </Position>
            <AltitudeMeters>571.5999755859375</AltitudeMeters>
            <DistanceMeters>911.51054485437</DistanceMeters>
          </Trackpoint>
          <Trackpoint>
            <Time>2022-11-06T10:11:08.000Z</Time>
            <Position>
              <LatitudeDegrees>41.35661995969712734222412109375</LatitudeDegrees>
              <LongitudeDegrees>-1.64264674298465251922607421875</LongitudeDegrees>
            </Position>
            <AltitudeMeters>572.20001220703125</AltitudeMeters>
            <DistanceMeters>917.22164248228</DistanceMeters>
          </Trackpoint>
          <Trackpoint>
            <Time>2022-11-06T10:11:09.000Z</Time>
            <Position>
              <LatitudeDegrees>41.35662364773452281951904296875</LatitudeDegrees>
              <LongitudeDegrees>-1.6426181606948375701904296875</LongitudeDegrees>
            </Position>
            <AltitudeMeters>572.5999755859375</AltitudeMeters>
            <DistanceMeters>919.64435783671</DistanceMeters>
          </Trackpoint>
          <Trackpoint>
            <Time>2022-11-06T10:11:13.000Z</Time>
            <Position>
              <LatitudeDegrees>41.356645859777927398681640625</LatitudeDegrees>
              <LongitudeDegrees>-1.64249234832823276519775390625</LongitudeDegrees>
            </Position>
            <AltitudeMeters>573.5999755859375</AltitudeMeters>
            <DistanceMeters>930.44233667741</DistanceMeters>
          </Trackpoint>
          <Trackpoint>
            <Time>2022-11-06T10:11:15.000Z</Time>
            <Position>
              <LatitudeDegrees>41.35666237212717533111572265625</LatitudeDegrees>
              <LongitudeDegrees>-1.64245312102138996124267578125</LongitudeDegrees>
            </Position>
            <AltitudeMeters>574.5999755859375</AltitudeMeters>
            <DistanceMeters>934.19799632726</DistanceMeters>
          </Trackpoint>
          <Trackpoint>
            <Time>2022-11-06T10:11:16.000Z</Time>
            <Position>
              <LatitudeDegrees>41.35666497051715850830078125</LatitudeDegrees>
              <LongitudeDegrees>-1.64242856204509735107421875</LongitudeDegrees>
            </Position>
            <AltitudeMeters>574.79998779296875</AltitudeMeters>
            <DistanceMeters>936.26687434068</DistanceMeters>
          </Trackpoint>
          <Trackpoint>
            <Time>2022-11-06T10:11:19.000Z</Time>
            <Position>
              <LatitudeDegrees>41.35668986476957798004150390625</LatitudeDegrees>
              <LongitudeDegrees>-1.6423613391816616058349609375</LongitudeDegrees>
            </Position>
            <AltitudeMeters>575.79998779296875</AltitudeMeters>
            <DistanceMeters>942.5292718046</DistanceMeters>
          </Trackpoint>
          <Trackpoint>
            <Time>2022-11-06T10:11:22.000Z</Time>
            <Position>
              <LatitudeDegrees>41.35673110373318195343017578125</LatitudeDegrees>
              <LongitudeDegrees>-1.642318926751613616943359375</LongitudeDegrees>
            </Position>
            <AltitudeMeters>577</AltitudeMeters>
            <DistanceMeters>948.32823763286</DistanceMeters>
          </Trackpoint>
          <Trackpoint>
            <Time>2022-11-06T10:11:25.000Z</Time>
            <Position>
              <LatitudeDegrees>41.3567865081131458282470703125</LatitudeDegrees>
              <LongitudeDegrees>-1.64231381379067897796630859375</LongitudeDegrees>
            </Position>
            <AltitudeMeters>578.20001220703125</AltitudeMeters>
            <DistanceMeters>954.50862785985</DistanceMeters>
          </Trackpoint>
          <Trackpoint>
            <Time>2022-11-06T10:11:29.000Z</Time>
            <Position>
              <LatitudeDegrees>41.35685884393751621246337890625</LatitudeDegrees>
              <LongitudeDegrees>-1.6423040069639682769775390625</LongitudeDegrees>
            </Position>
            <AltitudeMeters>579.79998779296875</AltitudeMeters>
            <DistanceMeters>962.60097698551</DistanceMeters>
          </Trackpoint>
          <Trackpoint>
            <Time>2022-11-06T10:11:31.000Z</Time>
            <Position>
              <LatitudeDegrees>41.3568813912570476531982421875</LatitudeDegrees>
              <LongitudeDegrees>-1.64228447712957859039306640625</LongitudeDegrees>
            </Position>
            <AltitudeMeters>580.5999755859375</AltitudeMeters>
            <DistanceMeters>965.59394137427</DistanceMeters>
          </Trackpoint>
          <Trackpoint>
            <Time>2022-11-06T10:11:32.000Z</Time>
            <Position>
              <LatitudeDegrees>41.35689455084502696990966796875</LatitudeDegrees>
              <LongitudeDegrees>-1.6422724910080432891845703125</LongitudeDegrees>
            </Position>
            <AltitudeMeters>580.79998779296875</AltitudeMeters>
            <DistanceMeters>967.36664174447</DistanceMeters>
          </Trackpoint>
          <Trackpoint>
            <Time>2022-11-06T10:11:33.000Z</Time>
            <Position>
              <LatitudeDegrees>41.35691030882298946380615234375</LatitudeDegrees>
              <LongitudeDegrees>-1.64226628839969635009765625</LongitudeDegrees>
            </Position>
            <AltitudeMeters>580.79998779296875</AltitudeMeters>
            <DistanceMeters>969.1945170915</DistanceMeters>
          </Trackpoint>
          <Trackpoint>
            <Time>2022-11-06T10:11:36.000Z</Time>
            <Position>
              <LatitudeDegrees>41.35695599019527435302734375</LatitudeDegrees>
              <LongitudeDegrees>-1.64225287735462188720703125</LongitudeDegrees>
            </Position>
            <AltitudeMeters>581.5999755859375</AltitudeMeters>
            <DistanceMeters>974.40194635757</DistanceMeters>
          </Trackpoint>
          <Trackpoint>
            <Time>2022-11-06T10:11:37.000Z</Time>
            <Position>
              <LatitudeDegrees>41.3569729216396808624267578125</LatitudeDegrees>
              <LongitudeDegrees>-1.64224122650921344757080078125</LongitudeDegrees>
            </Position>
            <AltitudeMeters>582</AltitudeMeters>
            <DistanceMeters>976.52255430557</DistanceMeters>
          </Trackpoint>
          <Trackpoint>
            <Time>2022-11-06T10:11:40.000Z</Time>
            <Position>
              <LatitudeDegrees>41.35700351558625698089599609375</LatitudeDegrees>
              <LongitudeDegrees>-1.6422466747462749481201171875</LongitudeDegrees>
            </Position>
            <AltitudeMeters>583</AltitudeMeters>
            <DistanceMeters>979.9580033173</DistanceMeters>
          </Trackpoint>
          <Trackpoint>
            <Time>2022-11-06T10:11:43.000Z</Time>
            <Position>
              <LatitudeDegrees>41.35703821666538715362548828125</LatitudeDegrees>
              <LongitudeDegrees>-1.6422299109399318695068359375</LongitudeDegrees>
            </Position>
            <AltitudeMeters>584</AltitudeMeters>
            <DistanceMeters>984.06729071906</DistanceMeters>
          </Trackpoint>
          <Trackpoint>
            <Time>2022-11-06T10:11:45.000Z</Time>
            <Position>
              <LatitudeDegrees>41.3570652902126312255859375</LatitudeDegrees>
              <LongitudeDegrees>-1.64221809245645999908447265625</LongitudeDegrees>
            </Position>
            <AltitudeMeters>584.5999755859375</AltitudeMeters>
            <DistanceMeters>987.2389630159</DistanceMeters>
          </Trackpoint>
          <Trackpoint>
            <Time>2022-11-06T10:11:46.000Z</Time>
            <Position>
              <LatitudeDegrees>41.35707526467740535736083984375</LatitudeDegrees>
              <LongitudeDegrees>-1.64221440441906452178955078125</LongitudeDegrees>
            </Position>
            <AltitudeMeters>585.20001220703125</AltitudeMeters>
            <DistanceMeters>988.39501289099</DistanceMeters>
          </Trackpoint>
          <Trackpoint>
            <Time>2022-11-06T10:11:49.000Z</Time>
            <Position>
              <LatitudeDegrees>41.3571207784116268157958984375</LatitudeDegrees>
              <LongitudeDegrees>-1.64219412021338939666748046875</LongitudeDegrees>
            </Position>
            <AltitudeMeters>586.20001220703125</AltitudeMeters>
            <DistanceMeters>993.73683295188</DistanceMeters>
          </Trackpoint>
          <Trackpoint>
            <Time>2022-11-06T10:11:52.000Z</Time>
            <Position>
              <LatitudeDegrees>41.35716243647038936614990234375</LatitudeDegrees>
              <LongitudeDegrees>-1.64217165671288967132568359375</LongitudeDegrees>
            </Position>
            <AltitudeMeters>587.20001220703125</AltitudeMeters>
            <DistanceMeters>998.7381639497</DistanceMeters>
          </Trackpoint>
          <Trackpoint>
            <Time>2022-11-06T10:11:54.000Z</Time>
            <Position>
              <LatitudeDegrees>41.357193700969219207763671875</LatitudeDegrees>
              <LongitudeDegrees>-1.64215522818267345428466796875</LongitudeDegrees>
            </Position>
            <AltitudeMeters>587.5999755859375</AltitudeMeters>
            <DistanceMeters>1002.4769549756</DistanceMeters>
          </Trackpoint>
          <Trackpoint>
            <Time>2022-11-06T10:11:55.000Z</Time>
            <Position>
              <LatitudeDegrees>41.35720275342464447021484375</LatitudeDegrees>
              <LongitudeDegrees>-1.64214399643242359161376953125</LongitudeDegrees>
            </Position>
            <AltitudeMeters>588.20001220703125</AltitudeMeters>
            <DistanceMeters>1003.8540228945</DistanceMeters>
          </Trackpoint>
          <Trackpoint>
            <Time>2022-11-06T10:11:59.000Z</Time>
            <Position>
              <LatitudeDegrees>41.3572626002132892608642578125</LatitudeDegrees>
              <LongitudeDegrees>-1.64210778661072254180908203125</LongitudeDegrees>
            </Position>
            <AltitudeMeters>589.79998779296875</AltitudeMeters>
            <DistanceMeters>1011.1704628184</DistanceMeters>
          </Trackpoint>
          <Trackpoint>
            <Time>2022-11-06T10:12:01.000Z</Time>
            <Position>
              <LatitudeDegrees>41.35728967376053333282470703125</LatitudeDegrees>
              <LongitudeDegrees>-1.64209085516631603240966796875</LongitudeDegrees>
            </Position>
            <AltitudeMeters>590.79998779296875</AltitudeMeters>
            <DistanceMeters>1014.499111763</DistanceMeters>
          </Trackpoint>
          <Trackpoint>
            <Time>2022-11-06T10:12:02.000Z</Time>
            <Position>
              <LatitudeDegrees>41.35730828158557415008544921875</LatitudeDegrees>
              <LongitudeDegrees>-1.642080880701541900634765625</LongitudeDegrees>
            </Position>
            <AltitudeMeters>591</AltitudeMeters>
            <DistanceMeters>1016.7317340322</DistanceMeters>
          </Trackpoint>
          <Trackpoint>
            <Time>2022-11-06T10:12:04.000Z</Time>
            <Position>
              <LatitudeDegrees>41.3573348522186279296875</LatitudeDegrees>
              <LongitudeDegrees>-1.64206646382808685302734375</LongitudeDegrees>
            </Position>
            <AltitudeMeters>592.20001220703125</AltitudeMeters>
            <DistanceMeters>1019.9261019481</DistanceMeters>
          </Trackpoint>
          <Trackpoint>
            <Time>2022-11-06T10:12:07.000Z</Time>
            <Position>
              <LatitudeDegrees>41.35738153941929340362548828125</LatitudeDegrees>
              <LongitudeDegrees>-1.64203821681439876556396484375</LongitudeDegrees>
            </Position>
            <AltitudeMeters>593.20001220703125</AltitudeMeters>
            <DistanceMeters>1025.634036409</DistanceMeters>
          </Trackpoint>
          <Trackpoint>
            <Time>2022-11-06T10:12:10.000Z</Time>
            <Position>
              <LatitudeDegrees>41.3574112951755523681640625</LatitudeDegrees>
              <LongitudeDegrees>-1.64200133644044399261474609375</LongitudeDegrees>
            </Position>
            <AltitudeMeters>594.20001220703125</AltitudeMeters>
            <DistanceMeters>1030.1575475698</DistanceMeters>
          </Trackpoint>
          <Trackpoint>
            <Time>2022-11-06T10:12:11.000Z</Time>
            <Position>
              <LatitudeDegrees>41.3574201799929141998291015625</LatitudeDegrees>
              <LongitudeDegrees>-1.64199144579470157623291015625</LongitudeDegrees>
            </Position>
            <AltitudeMeters>594.5999755859375</AltitudeMeters>
            <DistanceMeters>1031.4395280348</DistanceMeters>
          </Trackpoint>
          <Trackpoint>
            <Time>2022-11-06T10:12:14.000Z</Time>
            <Position>
              <LatitudeDegrees>41.357461921870708465576171875</LatitudeDegrees>
              <LongitudeDegrees>-1.6419717483222484588623046875</LongitudeDegrees>
            </Position>
            <AltitudeMeters>595.5999755859375</AltitudeMeters>
            <DistanceMeters>1036.3681085236</DistanceMeters>
          </Trackpoint>
          <Trackpoint>
            <Time>2022-11-06T10:12:15.000Z</Time>
            <Position>
              <LatitudeDegrees>41.35747709311544895172119140625</LatitudeDegrees>
              <LongitudeDegrees>-1.64197401143610477447509765625</LongitudeDegrees>
            </Position>
            <AltitudeMeters>596</AltitudeMeters>
            <DistanceMeters>1038.0679980677</DistanceMeters>
          </Trackpoint>
          <Trackpoint>
            <Time>2022-11-06T10:12:16.000Z</Time>
            <Position>
              <LatitudeDegrees>41.35748782195150852203369140625</LatitudeDegrees>
              <LongitudeDegrees>-1.64197954349219799041748046875</LongitudeDegrees>
            </Position>
            <AltitudeMeters>596.4000244140625</AltitudeMeters>
            <DistanceMeters>1039.3499785327</DistanceMeters>
          </Trackpoint>
          <Trackpoint>
            <Time>2022-11-06T10:12:17.000Z</Time>
            <Position>
              <LatitudeDegrees>41.3575023226439952850341796875</LatitudeDegrees>
              <LongitudeDegrees>-1.64199328981339931488037109375</LongitudeDegrees>
            </Position>
            <AltitudeMeters>596.79998779296875</AltitudeMeters>
            <DistanceMeters>1041.3296383966</DistanceMeters>
          </Trackpoint>
          <Trackpoint>
            <Time>2022-11-06T10:12:18.000Z</Time>
            <Position>
              <LatitudeDegrees>41.35751229710876941680908203125</LatitudeDegrees>
              <LongitudeDegrees>-1.642001084983348846435546875</LongitudeDegrees>
            </Position>
            <AltitudeMeters>597.20001220703125</AltitudeMeters>
            <DistanceMeters>1042.6186434648</DistanceMeters>
          </Trackpoint>
          <Trackpoint>
            <Time>2022-11-06T10:12:22.000Z</Time>
            <Position>
              <LatitudeDegrees>41.35753895156085491180419921875</LatitudeDegrees>
              <LongitudeDegrees>-1.6420833952724933624267578125</LongitudeDegrees>
            </Position>
            <AltitudeMeters>598.4000244140625</AltitudeMeters>
            <DistanceMeters>1050.1076891178</DistanceMeters>
          </Trackpoint>
          <Trackpoint>
            <Time>2022-11-06T10:12:27.000Z</Time>
            <Position>
              <LatitudeDegrees>41.3575298152863979339599609375</LatitudeDegrees>
              <LongitudeDegrees>-1.64222295396029949188232421875</LongitudeDegrees>
            </Position>
            <AltitudeMeters>599.4000244140625</AltitudeMeters>
            <DistanceMeters>1061.8110304997</DistanceMeters>
          </Trackpoint>
          <Trackpoint>
            <Time>2022-11-06T10:12:29.000Z</Time>
            <Position>
              <LatitudeDegrees>41.35751682333648204803466796875</LatitudeDegrees>
              <LongitudeDegrees>-1.64227626286447048187255859375</LongitudeDegrees>
            </Position>
            <AltitudeMeters>600</AltitudeMeters>
            <DistanceMeters>1066.4934471414</DistanceMeters>
          </Trackpoint>
          <Trackpoint>
            <Time>2022-11-06T10:12:31.000Z</Time>
            <Position>
              <LatitudeDegrees>41.357495784759521484375</LatitudeDegrees>
              <LongitudeDegrees>-1.6423345170915126800537109375</LongitudeDegrees>
            </Position>
            <AltitudeMeters>600.79998779296875</AltitudeMeters>
            <DistanceMeters>1071.8941088521</DistanceMeters>
          </Trackpoint>
          <Trackpoint>
            <Time>2022-11-06T10:12:36.000Z</Time>
            <Position>
              <LatitudeDegrees>41.35744641534984111785888671875</LatitudeDegrees>
              <LongitudeDegrees>-1.6424867324531078338623046875</LongitudeDegrees>
            </Position>
            <AltitudeMeters>602.20001220703125</AltitudeMeters>
            <DistanceMeters>1085.7471657201</DistanceMeters>
          </Trackpoint>
          <Trackpoint>
            <Time>2022-11-06T10:12:39.000Z</Time>
            <Position>
              <LatitudeDegrees>41.35742462240159511566162109375</LatitudeDegrees>
              <LongitudeDegrees>-1.642585806548595428466796875</LongitudeDegrees>
            </Position>
            <AltitudeMeters>603</AltitudeMeters>
            <DistanceMeters>1094.37211614</DistanceMeters>
          </Trackpoint>
          <Trackpoint>
            <Time>2022-11-06T10:12:41.000Z</Time>
            <Position>
              <LatitudeDegrees>41.357419677078723907470703125</LatitudeDegrees>
              <LongitudeDegrees>-1.64264850318431854248046875</LongitudeDegrees>
            </Position>
            <AltitudeMeters>603.4000244140625</AltitudeMeters>
            <DistanceMeters>1099.6390312556</DistanceMeters>
          </Trackpoint>
          <Trackpoint>
            <Time>2022-11-06T10:12:48.000Z</Time>
            <Position>
              <LatitudeDegrees>41.35742479003965854644775390625</LatitudeDegrees>
              <LongitudeDegrees>-1.64290876127779483795166015625</LongitudeDegrees>
            </Position>
            <AltitudeMeters>603.4000244140625</AltitudeMeters>
            <DistanceMeters>1121.3895646951</DistanceMeters>
          </Trackpoint>
          <Trackpoint>
            <Time>2022-11-06T10:12:55.000Z</Time>
            <Position>
              <LatitudeDegrees>41.35743954218924045562744140625</LatitudeDegrees>
              <LongitudeDegrees>-1.64316977374255657196044921875</LongitudeDegrees>
            </Position>
            <AltitudeMeters>603.20001220703125</AltitudeMeters>
            <DistanceMeters>1143.2572744098</DistanceMeters>
          </Trackpoint>
          <Trackpoint>
            <Time>2022-11-06T10:12:56.000Z</Time>
            <Position>
              <LatitudeDegrees>41.35745446197688579559326171875</LatitudeDegrees>
              <LongitudeDegrees>-1.6432002000510692596435546875</LongitudeDegrees>
            </Position>
            <AltitudeMeters>603</AltitudeMeters>
            <DistanceMeters>1146.2936716251</DistanceMeters>
          </Trackpoint>
          <Trackpoint>
            <Time>2022-11-06T10:13:01.000Z</Time>
            <Position>
              <LatitudeDegrees>41.35753828100860118865966796875</LatitudeDegrees>
              <LongitudeDegrees>-1.6432799957692623138427734375</LongitudeDegrees>
            </Position>
            <AltitudeMeters>603.5999755859375</AltitudeMeters>
            <DistanceMeters>1157.7600534879</DistanceMeters>
          </Trackpoint>
          <Trackpoint>
            <Time>2022-11-06T10:13:03.000Z</Time>
            <Position>
              <LatitudeDegrees>41.35757558047771453857421875</LatitudeDegrees>
              <LongitudeDegrees>-1.6432647407054901123046875</LongitudeDegrees>
            </Position>
            <AltitudeMeters>604.4000244140625</AltitudeMeters>
            <DistanceMeters>1162.1022648617</DistanceMeters>
          </Trackpoint>
          <Trackpoint>
            <Time>2022-11-06T10:13:06.000Z</Time>
            <Position>
              <LatitudeDegrees>41.35764188133180141448974609375</LatitudeDegrees>
              <LongitudeDegrees>-1.64323330856859683990478515625</LongitudeDegrees>
            </Position>
            <AltitudeMeters>605.5999755859375</AltitudeMeters>
            <DistanceMeters>1169.9343341467</DistanceMeters>
          </Trackpoint>
          <Trackpoint>
            <Time>2022-11-06T10:13:11.000Z</Time>
            <Position>
              <LatitudeDegrees>41.3577638380229473114013671875</LatitudeDegrees>
              <LongitudeDegrees>-1.6432132758200168609619140625</LongitudeDegrees>
            </Position>
            <AltitudeMeters>606.5999755859375</AltitudeMeters>
            <DistanceMeters>1183.6109201044</DistanceMeters>
          </Trackpoint>
          <Trackpoint>
            <Time>2022-11-06T10:13:14.000Z</Time>
            <Position>
              <LatitudeDegrees>41.357829384505748748779296875</LatitudeDegrees>
              <LongitudeDegrees>-1.643218137323856353759765625</LongitudeDegrees>
            </Position>
            <AltitudeMeters>607.79998779296875</AltitudeMeters>
            <DistanceMeters>1190.9174796188</DistanceMeters>
          </Trackpoint>
          <Trackpoint>
            <Time>2022-11-06T10:13:20.000Z</Time>
            <Position>
              <LatitudeDegrees>41.35799123905599117279052734375</LatitudeDegrees>
              <LongitudeDegrees>-1.6432038880884647369384765625</LongitudeDegrees>
            </Position>
            <AltitudeMeters>608.79998779296875</AltitudeMeters>
            <DistanceMeters>1208.9715550402</DistanceMeters>
          </Trackpoint>
          <Trackpoint>
            <Time>2022-11-06T10:13:23.000Z</Time>
            <Position>
              <LatitudeDegrees>41.358072794973850250244140625</LatitudeDegrees>
              <LongitudeDegrees>-1.64316860027611255645751953125</LongitudeDegrees>
            </Position>
            <AltitudeMeters>609</AltitudeMeters>
            <DistanceMeters>1218.5150004879</DistanceMeters>
          </Trackpoint>
          <Trackpoint>
            <Time>2022-11-06T10:13:29.000Z</Time>
            <Position>
              <LatitudeDegrees>41.35822333395481109619140625</LatitudeDegrees>
              <LongitudeDegrees>-1.64311076514422893524169921875</LongitudeDegrees>
            </Position>
            <AltitudeMeters>609.79998779296875</AltitudeMeters>
            <DistanceMeters>1235.9533735292</DistanceMeters>
          </Trackpoint>
          <Trackpoint>
            <Time>2022-11-06T10:13:30.000Z</Time>
            <Position>
              <LatitudeDegrees>41.35824873112142086029052734375</LatitudeDegrees>
              <LongitudeDegrees>-1.643096096813678741455078125</LongitudeDegrees>
            </Position>
            <AltitudeMeters>610</AltitudeMeters>
            <DistanceMeters>1239.0355221984</DistanceMeters>
          </Trackpoint>
          <Trackpoint>
            <Time>2022-11-06T10:13:34.000Z</Time>
            <Position>
              <LatitudeDegrees>41.35833523236215114593505859375</LatitudeDegrees>
              <LongitudeDegrees>-1.64304387755692005157470703125</LongitudeDegrees>
            </Position>
            <AltitudeMeters>611</AltitudeMeters>
            <DistanceMeters>1249.6057225674</DistanceMeters>
          </Trackpoint>
          <Trackpoint>
            <Time>2022-11-06T10:13:35.000Z</Time>
            <Position>
              <LatitudeDegrees>41.35835350491106510162353515625</LatitudeDegrees>
              <LongitudeDegrees>-1.643037088215351104736328125</LongitudeDegrees>
            </Position>
            <AltitudeMeters>611.20001220703125</AltitudeMeters>
            <DistanceMeters>1251.7177968472</DistanceMeters>
          </Trackpoint>
          <Trackpoint>
            <Time>2022-11-06T10:13:37.000Z</Time>
            <Position>
              <LatitudeDegrees>41.35839105583727359771728515625</LatitudeDegrees>
              <LongitudeDegrees>-1.6430117748677730560302734375</LongitudeDegrees>
            </Position>
            <AltitudeMeters>612.4000244140625</AltitudeMeters>
            <DistanceMeters>1256.4021415995</DistanceMeters>
          </Trackpoint>
          <Trackpoint>
            <Time>2022-11-06T10:13:40.000Z</Time>
            <Position>
              <LatitudeDegrees>41.35843925178050994873046875</LatitudeDegrees>
              <LongitudeDegrees>-1.6429702006280422210693359375</LongitudeDegrees>
            </Position>
            <AltitudeMeters>613.5999755859375</AltitudeMeters>
            <DistanceMeters>1262.7929972352</DistanceMeters>
          </Trackpoint>
          <Trackpoint>
            <Time>2022-11-06T10:13:41.000Z</Time>
            <Position>
              <LatitudeDegrees>41.358455009758472442626953125</LatitudeDegrees>
              <LongitudeDegrees>-1.642957963049411773681640625</LongitudeDegrees>
            </Position>
            <AltitudeMeters>613.79998779296875</AltitudeMeters>
            <DistanceMeters>1264.8199863279</DistanceMeters>
          </Trackpoint>
          <Trackpoint>
            <Time>2022-11-06T10:13:44.000Z</Time>
            <Position>
              <LatitudeDegrees>41.35851074941456317901611328125</LatitudeDegrees>
              <LongitudeDegrees>-1.64295586757361888885498046875</LongitudeDegrees>
            </Position>
            <AltitudeMeters>614.5999755859375</AltitudeMeters>
            <DistanceMeters>1271.0251652904</DistanceMeters>
          </Trackpoint>
          <Trackpoint>
            <Time>2022-11-06T10:13:46.000Z</Time>
            <Position>
              <LatitudeDegrees>41.3585426844656467437744140625</LatitudeDegrees>
              <LongitudeDegrees>-1.64299048483371734619140625</LongitudeDegrees>
            </Position>
            <AltitudeMeters>615</AltitudeMeters>
            <DistanceMeters>1275.6081727974</DistanceMeters>
          </Trackpoint>
          <Trackpoint>
            <Time>2022-11-06T10:13:51.000Z</Time>
            <Position>
              <LatitudeDegrees>41.35856053791940212249755859375</LatitudeDegrees>
              <LongitudeDegrees>-1.64315971545875072479248046875</LongitudeDegrees>
            </Position>
            <AltitudeMeters>615.20001220703125</AltitudeMeters>
            <DistanceMeters>1289.8856006345</DistanceMeters>
          </Trackpoint>
          <Trackpoint>
            <Time>2022-11-06T10:13:53.000Z</Time>
            <Position>
              <LatitudeDegrees>41.3585845939815044403076171875</LatitudeDegrees>
              <LongitudeDegrees>-1.64319709874689579010009765625</LongitudeDegrees>
            </Position>
            <AltitudeMeters>615.20001220703125</AltitudeMeters>
            <DistanceMeters>1293.9992806483</DistanceMeters>
          </Trackpoint>
          <Trackpoint>
            <Time>2022-11-06T10:13:54.000Z</Time>
            <Position>
              <LatitudeDegrees>41.35859976522624492645263671875</LatitudeDegrees>
              <LongitudeDegrees>-1.64319693110883235931396484375</LongitudeDegrees>
            </Position>
            <AltitudeMeters>615.4000244140625</AltitudeMeters>
            <DistanceMeters>1295.6885124727</DistanceMeters>
          </Trackpoint>
          <Trackpoint>
            <Time>2022-11-06T10:13:55.000Z</Time>
            <Position>
              <LatitudeDegrees>41.35861434973776340484619140625</LatitudeDegrees>
              <LongitudeDegrees>-1.64318603463470935821533203125</LongitudeDegrees>
            </Position>
            <AltitudeMeters>615.4000244140625</AltitudeMeters>
            <DistanceMeters>1297.5506481698</DistanceMeters>
          </Trackpoint>
          <Trackpoint>
            <Time>2022-11-06T10:13:56.000Z</Time>
            <Position>
              <LatitudeDegrees>41.3586140982806682586669921875</LatitudeDegrees>
              <LongitudeDegrees>-1.64315803907811641693115234375</LongitudeDegrees>
            </Position>
            <AltitudeMeters>615.79998779296875</AltitudeMeters>
            <DistanceMeters>1299.889927188</DistanceMeters>
          </Trackpoint>
          <Trackpoint>
            <Time>2022-11-06T10:13:57.000Z</Time>
            <Position>
              <LatitudeDegrees>41.35860965587198734283447265625</LatitudeDegrees>
              <LongitudeDegrees>-1.6431368328630924224853515625</LongitudeDegrees>
            </Position>
            <AltitudeMeters>616</AltitudeMeters>
            <DistanceMeters>1301.7325635447</DistanceMeters>
          </Trackpoint>
          <Trackpoint>
            <Time>2022-11-06T10:14:00.000Z</Time>
            <Position>
              <LatitudeDegrees>41.358614601194858551025390625</LatitudeDegrees>
              <LongitudeDegrees>-1.643057875335216522216796875</LongitudeDegrees>
            </Position>
            <AltitudeMeters>617</AltitudeMeters>
            <DistanceMeters>1308.3517727804</DistanceMeters>
          </Trackpoint>
          <Trackpoint>
            <Time>2022-11-06T10:14:03.000Z</Time>
            <Position>
              <LatitudeDegrees>41.35864133946597576141357421875</LatitudeDegrees>
              <LongitudeDegrees>-1.642986126244068145751953125</LongitudeDegrees>
            </Position>
            <AltitudeMeters>618.20001220703125</AltitudeMeters>
            <DistanceMeters>1315.0435699295</DistanceMeters>
          </Trackpoint>
          <Trackpoint>
            <Time>2022-11-06T10:14:05.000Z</Time>
            <Position>
              <LatitudeDegrees>41.35866430588066577911376953125</LatitudeDegrees>
              <LongitudeDegrees>-1.64293943904340267181396484375</LongitudeDegrees>
            </Position>
            <AltitudeMeters>619.20001220703125</AltitudeMeters>
            <DistanceMeters>1319.7066616161</DistanceMeters>
          </Trackpoint>
          <Trackpoint>
            <Time>2022-11-06T10:14:06.000Z</Time>
            <Position>
              <LatitudeDegrees>41.3586741127073764801025390625</LatitudeDegrees>
              <LongitudeDegrees>-1.64291161112487316131591796875</LongitudeDegrees>
            </Position>
            <AltitudeMeters>619.5999755859375</AltitudeMeters>
            <DistanceMeters>1322.274142055</DistanceMeters>
          </Trackpoint>
          <Trackpoint>
            <Time>2022-11-06T10:14:08.000Z</Time>
            <Position>
              <LatitudeDegrees>41.35868241079151630401611328125</LatitudeDegrees>
              <LongitudeDegrees>-1.64285511709749698638916015625</LongitudeDegrees>
            </Position>
            <AltitudeMeters>620.5999755859375</AltitudeMeters>
            <DistanceMeters>1327.0840335142</DistanceMeters>
          </Trackpoint>
          <Trackpoint>
            <Time>2022-11-06T10:14:12.000Z</Time>
            <Position>
              <LatitudeDegrees>41.35867520235478878021240234375</LatitudeDegrees>
              <LongitudeDegrees>-1.64274397306144237518310546875</LongitudeDegrees>
            </Position>
            <AltitudeMeters>621.79998779296875</AltitudeMeters>
            <DistanceMeters>1336.4044055771</DistanceMeters>
          </Trackpoint>
          <Trackpoint>
            <Time>2022-11-06T10:14:13.000Z</Time>
            <Position>
              <LatitudeDegrees>41.35865986347198486328125</LatitudeDegrees>
              <LongitudeDegrees>-1.64272117428481578826904296875</LongitudeDegrees>
            </Position>
            <AltitudeMeters>622.20001220703125</AltitudeMeters>
            <DistanceMeters>1338.9648421606</DistanceMeters>
          </Trackpoint>
          <Trackpoint>
            <Time>2022-11-06T10:14:18.000Z</Time>
            <Position>
              <LatitudeDegrees>41.35852147825062274932861328125</LatitudeDegrees>
              <LongitudeDegrees>-1.64265520870685577392578125</LongitudeDegrees>
            </Position>
            <AltitudeMeters>622.4000244140625</AltitudeMeters>
            <DistanceMeters>1355.323795229</DistanceMeters>
          </Trackpoint>
          <Trackpoint>
            <Time>2022-11-06T10:14:24.000Z</Time>
            <Position>
              <LatitudeDegrees>41.358362473547458648681640625</LatitudeDegrees>
              <LongitudeDegrees>-1.64262914098799228668212890625</LongitudeDegrees>
            </Position>
            <AltitudeMeters>622.4000244140625</AltitudeMeters>
            <DistanceMeters>1373.1546662541</DistanceMeters>
          </Trackpoint>
          <Trackpoint>
            <Time>2022-11-06T10:14:26.000Z</Time>
            <Position>
              <LatitudeDegrees>41.35831645689904689788818359375</LatitudeDegrees>
              <LongitudeDegrees>-1.6426344215869903564453125</LongitudeDegrees>
            </Position>
            <AltitudeMeters>623</AltitudeMeters>
            <DistanceMeters>1378.2949000693</DistanceMeters>
          </Trackpoint>
          <Trackpoint>
            <Time>2022-11-06T10:14:29.000Z</Time>
            <Position>
              <LatitudeDegrees>41.35825174860656261444091796875</LatitudeDegrees>
              <LongitudeDegrees>-1.6426317393779754638671875</LongitudeDegrees>
            </Position>
            <AltitudeMeters>624.20001220703125</AltitudeMeters>
            <DistanceMeters>1385.5006574586</DistanceMeters>
          </Trackpoint>
          <Trackpoint>
            <Time>2022-11-06T10:14:30.000Z</Time>
            <Position>
              <LatitudeDegrees>41.35822760872542858123779296875</LatitudeDegrees>
              <LongitudeDegrees>-1.6426325775682926177978515625</LongitudeDegrees>
            </Position>
            <AltitudeMeters>624.4000244140625</AltitudeMeters>
            <DistanceMeters>1388.1884188236</DistanceMeters>
          </Trackpoint>
          <Trackpoint>
            <Time>2022-11-06T10:14:32.000Z</Time>
            <Position>
              <LatitudeDegrees>41.35818452574312686920166015625</LatitudeDegrees>
              <LongitudeDegrees>-1.64265629835426807403564453125</LongitudeDegrees>
            </Position>
            <AltitudeMeters>624.79998779296875</AltitudeMeters>
            <DistanceMeters>1393.376738193</DistanceMeters>
          </Trackpoint>
          <Trackpoint>
            <Time>2022-11-06T10:14:35.000Z</Time>
            <Position>
              <LatitudeDegrees>41.35813347995281219482421875</LatitudeDegrees>
              <LongitudeDegrees>-1.6427308134734630584716796875</LongitudeDegrees>
            </Position>
            <AltitudeMeters>625</AltitudeMeters>
            <DistanceMeters>1401.8041666995</DistanceMeters>
          </Trackpoint>
          <Trackpoint>
            <Time>2022-11-06T10:14:41.000Z</Time>
            <Position>
              <LatitudeDegrees>41.3579707033932209014892578125</LatitudeDegrees>
              <LongitudeDegrees>-1.64277347736060619354248046875</LongitudeDegrees>
            </Position>
            <AltitudeMeters>624.20001220703125</AltitudeMeters>
            <DistanceMeters>1420.2687156032</DistanceMeters>
          </Trackpoint>
          <Trackpoint>
            <Time>2022-11-06T10:14:44.000Z</Time>
            <Position>
              <LatitudeDegrees>41.357916556298732757568359375</LatitudeDegrees>
              <LongitudeDegrees>-1.6427003033459186553955078125</LongitudeDegrees>
            </Position>
            <AltitudeMeters>623.4000244140625</AltitudeMeters>
            <DistanceMeters>1428.8532629914</DistanceMeters>
          </Trackpoint>
          <Trackpoint>
            <Time>2022-11-06T10:14:45.000Z</Time>
            <Position>
              <LatitudeDegrees>41.357915215194225311279296875</LatitudeDegrees>
              <LongitudeDegrees>-1.64266685955226421356201171875</LongitudeDegrees>
            </Position>
            <AltitudeMeters>623.20001220703125</AltitudeMeters>
            <DistanceMeters>1431.6496975428</DistanceMeters>
          </Trackpoint>
          <Trackpoint>
            <Time>2022-11-06T10:14:46.000Z</Time>
            <Position>
              <LatitudeDegrees>41.357922591269016265869140625</LatitudeDegrees>
              <LongitudeDegrees>-1.64262847043573856353759765625</LongitudeDegrees>
            </Position>
            <AltitudeMeters>623</AltitudeMeters>
            <DistanceMeters>1434.9606661024</DistanceMeters>
          </Trackpoint>
          <Trackpoint>
            <Time>2022-11-06T10:14:47.000Z</Time>
            <Position>
              <LatitudeDegrees>41.357931308448314666748046875</LatitudeDegrees>
              <LongitudeDegrees>-1.64259728975594043731689453125</LongitudeDegrees>
            </Position>
            <AltitudeMeters>622.79998779296875</AltitudeMeters>
            <DistanceMeters>1437.7409080768</DistanceMeters>
          </Trackpoint>
          <Trackpoint>
            <Time>2022-11-06T10:14:49.000Z</Time>
            <Position>
              <LatitudeDegrees>41.3579638302326202392578125</LatitudeDegrees>
              <LongitudeDegrees>-1.6425299830734729766845703125</LongitudeDegrees>
            </Position>
            <AltitudeMeters>622.79998779296875</AltitudeMeters>
            <DistanceMeters>1444.4279805716</DistanceMeters>
          </Trackpoint>
          <Trackpoint>
            <Time>2022-11-06T10:14:50.000Z</Time>
            <Position>
              <LatitudeDegrees>41.3579924963414669036865234375</LatitudeDegrees>
              <LongitudeDegrees>-1.64250173605978488922119140625</LongitudeDegrees>
            </Position>
            <AltitudeMeters>622.79998779296875</AltitudeMeters>
            <DistanceMeters>1448.3964126698</DistanceMeters>
          </Trackpoint>
          <Trackpoint>
            <Time>2022-11-06T10:14:55.000Z</Time>
            <Position>
              <LatitudeDegrees>41.3580657541751861572265625</LatitudeDegrees>
              <LongitudeDegrees>-1.64232688955962657928466796875</LongitudeDegrees>
            </Position>
            <AltitudeMeters>622.79998779296875</AltitudeMeters>
            <DistanceMeters>1465.1251633427</DistanceMeters>
          </Trackpoint>
          <Trackpoint>
            <Time>2022-11-06T10:14:59.000Z</Time>
            <Position>
              <LatitudeDegrees>41.358126439154148101806640625</LatitudeDegrees>
              <LongitudeDegrees>-1.6421543061733245849609375</LongitudeDegrees>
            </Position>
            <AltitudeMeters>622</AltitudeMeters>
            <DistanceMeters>1481.0468886264</DistanceMeters>
          </Trackpoint>
          <Trackpoint>
            <Time>2022-11-06T10:15:04.000Z</Time>
            <Position>
              <LatitudeDegrees>41.35813079774379730224609375</LatitudeDegrees>
              <LongitudeDegrees>-1.641937382519245147705078125</LongitudeDegrees>
            </Position>
            <AltitudeMeters>620.79998779296875</AltitudeMeters>
            <DistanceMeters>1499.1758340523</DistanceMeters>
          </Trackpoint>
          <Trackpoint>
            <Time>2022-11-06T10:15:05.000Z</Time>
            <Position>
              <LatitudeDegrees>41.35812534950673580169677734375</LatitudeDegrees>
              <LongitudeDegrees>-1.64189279079437255859375</LongitudeDegrees>
            </Position>
            <AltitudeMeters>620.79998779296875</AltitudeMeters>
            <DistanceMeters>1502.9506798278</DistanceMeters>
          </Trackpoint>
          <Trackpoint>
            <Time>2022-11-06T10:15:10.000Z</Time>
            <Position>
              <LatitudeDegrees>41.35806080885231494903564453125</LatitudeDegrees>
              <LongitudeDegrees>-1.64167963899672031402587890625</LongitudeDegrees>
            </Position>
            <AltitudeMeters>620</AltitudeMeters>
            <DistanceMeters>1522.1521907373</DistanceMeters>
          </Trackpoint>
          <Trackpoint>
            <Time>2022-11-06T10:15:11.000Z</Time>
            <Position>
              <LatitudeDegrees>41.3580414466559886932373046875</LatitudeDegrees>
              <LongitudeDegrees>-1.6416344605386257171630859375</LongitudeDegrees>
            </Position>
            <AltitudeMeters>619.5999755859375</AltitudeMeters>
            <DistanceMeters>1526.4985593273</DistanceMeters>
          </Trackpoint>
          <Trackpoint>
            <Time>2022-11-06T10:15:15.000Z</Time>
            <Position>
              <LatitudeDegrees>41.35792854242026805877685546875</LatitudeDegrees>
              <LongitudeDegrees>-1.64150361903011798858642578125</LongitudeDegrees>
            </Position>
            <AltitudeMeters>618</AltitudeMeters>
            <DistanceMeters>1543.1540073357</DistanceMeters>
          </Trackpoint>
          <Trackpoint>
            <Time>2022-11-06T10:15:16.000Z</Time>
            <Position>
              <LatitudeDegrees>41.35788864456117153167724609375</LatitudeDegrees>
              <LongitudeDegrees>-1.64148576557636260986328125</LongitudeDegrees>
            </Position>
            <AltitudeMeters>617.20001220703125</AltitudeMeters>
            <DistanceMeters>1547.838352088</DistanceMeters>
          </Trackpoint>
          <Trackpoint>
            <Time>2022-11-06T10:15:17.000Z</Time>
            <Position>
              <LatitudeDegrees>41.35784757323563098907470703125</LatitudeDegrees>
              <LongitudeDegrees>-1.64147059433162212371826171875</LongitudeDegrees>
            </Position>
            <AltitudeMeters>616.5999755859375</AltitudeMeters>
            <DistanceMeters>1552.5820795779</DistanceMeters>
          </Trackpoint>
          <Trackpoint>
            <Time>2022-11-06T10:15:20.000Z</Time>
            <Position>
              <LatitudeDegrees>41.3577262870967388153076171875</LatitudeDegrees>
              <LongitudeDegrees>-1.6414483822882175445556640625</LongitudeDegrees>
            </Position>
            <AltitudeMeters>615</AltitudeMeters>
            <DistanceMeters>1566.208393527</DistanceMeters>
          </Trackpoint>
          <Trackpoint>
            <Time>2022-11-06T10:15:23.000Z</Time>
            <Position>
              <LatitudeDegrees>41.35762126184999942779541015625</LatitudeDegrees>
              <LongitudeDegrees>-1.64143539033830165863037109375</LongitudeDegrees>
            </Position>
            <AltitudeMeters>614.4000244140625</AltitudeMeters>
            <DistanceMeters>1577.9483278013</DistanceMeters>
          </Trackpoint>
          <Trackpoint>
            <Time>2022-11-06T10:15:26.000Z</Time>
            <Position>
              <LatitudeDegrees>41.3575319945812225341796875</LatitudeDegrees>
              <LongitudeDegrees>-1.64141602814197540283203125</LongitudeDegrees>
            </Position>
            <AltitudeMeters>614</AltitudeMeters>
            <DistanceMeters>1588.0144336908</DistanceMeters>
          </Trackpoint>
          <Trackpoint>
            <Time>2022-11-06T10:15:28.000Z</Time>
            <Position>
              <LatitudeDegrees>41.35746334679424762725830078125</LatitudeDegrees>
              <LongitudeDegrees>-1.64140186272561550140380859375</LongitudeDegrees>
            </Position>
            <AltitudeMeters>614</AltitudeMeters>
            <DistanceMeters>1595.7461285929</DistanceMeters>
          </Trackpoint>
          <Trackpoint>
            <Time>2022-11-06T10:15:34.000Z</Time>
            <Position>
              <LatitudeDegrees>41.35727341286838054656982421875</LatitudeDegrees>
              <LongitudeDegrees>-1.64133262820541858673095703125</LongitudeDegrees>
            </Position>
            <AltitudeMeters>612.4000244140625</AltitudeMeters>
            <DistanceMeters>1617.663335224</DistanceMeters>
          </Trackpoint>
          <Trackpoint>
            <Time>2022-11-06T10:15:35.000Z</Time>
            <Position>
              <LatitudeDegrees>41.357245333492755889892578125</LatitudeDegrees>
              <LongitudeDegrees>-1.6413199715316295623779296875</LongitudeDegrees>
            </Position>
            <AltitudeMeters>612</AltitudeMeters>
            <DistanceMeters>1620.9633764649</DistanceMeters>
          </Trackpoint>
          <Trackpoint>
            <Time>2022-11-06T10:15:36.000Z</Time>
            <Position>
              <LatitudeDegrees>41.35721490718424320220947265625</LatitudeDegrees>
              <LongitudeDegrees>-1.64130781777203083038330078125</LongitudeDegrees>
            </Position>
            <AltitudeMeters>611.4000244140625</AltitudeMeters>
            <DistanceMeters>1624.4985745921</DistanceMeters>
          </Trackpoint>
          <Trackpoint>
            <Time>2022-11-06T10:15:41.000Z</Time>
            <Position>
              <LatitudeDegrees>41.35706252418458461761474609375</LatitudeDegrees>
              <LongitudeDegrees>-1.64118410088121891021728515625</LongitudeDegrees>
            </Position>
            <AltitudeMeters>610.4000244140625</AltitudeMeters>
            <DistanceMeters>1644.3600672211</DistanceMeters>
          </Trackpoint>
          <Trackpoint>
            <Time>2022-11-06T10:15:44.000Z</Time>
            <Position>
              <LatitudeDegrees>41.3569802977144718170166015625</LatitudeDegrees>
              <LongitudeDegrees>-1.64111486636102199554443359375</LongitudeDegrees>
            </Position>
            <AltitudeMeters>609.79998779296875</AltitudeMeters>
            <DistanceMeters>1655.1864420642</DistanceMeters>
          </Trackpoint>
          <Trackpoint>
            <Time>2022-11-06T10:15:46.000Z</Time>
            <Position>
              <LatitudeDegrees>41.3569541461765766143798828125</LatitudeDegrees>
              <LongitudeDegrees>-1.641060300171375274658203125</LongitudeDegrees>
            </Position>
            <AltitudeMeters>609.5999755859375</AltitudeMeters>
            <DistanceMeters>1660.5954574717</DistanceMeters>
          </Trackpoint>
          <Trackpoint>
            <Time>2022-11-06T10:15:47.000Z</Time>
            <Position>
              <LatitudeDegrees>41.35695959441363811492919921875</LatitudeDegrees>
              <LongitudeDegrees>-1.64104211144149303436279296875</LongitudeDegrees>
            </Position>
            <AltitudeMeters>609.4000244140625</AltitudeMeters>
            <DistanceMeters>1662.2303588838</DistanceMeters>
          </Trackpoint>
          <Trackpoint>
            <Time>2022-11-06T10:15:51.000Z</Time>
            <Position>
              <LatitudeDegrees>41.35704517364501953125</LatitudeDegrees>
              <LongitudeDegrees>-1.64097321219742298126220703125</LongitudeDegrees>
            </Position>
            <AltitudeMeters>609.79998779296875</AltitudeMeters>
            <DistanceMeters>1673.3598493745</DistanceMeters>
          </Trackpoint>
          <Trackpoint>
            <Time>2022-11-06T10:15:55.000Z</Time>
            <Position>
              <LatitudeDegrees>41.35715003125369548797607421875</LatitudeDegrees>
              <LongitudeDegrees>-1.640940606594085693359375</LongitudeDegrees>
            </Position>
            <AltitudeMeters>610.79998779296875</AltitudeMeters>
            <DistanceMeters>1685.34452275</DistanceMeters>
          </Trackpoint>
          <Trackpoint>
            <Time>2022-11-06T10:15:58.000Z</Time>
            <Position>
              <LatitudeDegrees>41.3572287373244762420654296875</LatitudeDegrees>
              <LongitudeDegrees>-1.64093993604183197021484375</LongitudeDegrees>
            </Position>
            <AltitudeMeters>611.4000244140625</AltitudeMeters>
            <DistanceMeters>1694.1055529276</DistanceMeters>
          </Trackpoint>
          <Trackpoint>
            <Time>2022-11-06T10:15:59.000Z</Time>
            <Position>
              <LatitudeDegrees>41.35725438594818115234375</LatitudeDegrees>
              <LongitudeDegrees>-1.64093515835702419281005859375</LongitudeDegrees>
            </Position>
            <AltitudeMeters>611.79998779296875</AltitudeMeters>
            <DistanceMeters>1696.9878558833</DistanceMeters>
          </Trackpoint>
          <Trackpoint>
            <Time>2022-11-06T10:16:02.000Z</Time>
            <Position>
              <LatitudeDegrees>41.35733074508607387542724609375</LatitudeDegrees>
              <LongitudeDegrees>-1.64093549363315105438232421875</LongitudeDegrees>
            </Position>
            <AltitudeMeters>612.5999755859375</AltitudeMeters>
            <DistanceMeters>1705.4862411064</DistanceMeters>
          </Trackpoint>
          <Trackpoint>
            <Time>2022-11-06T10:16:06.000Z</Time>
            <Position>
              <LatitudeDegrees>41.35741104371845722198486328125</LatitudeDegrees>
              <LongitudeDegrees>-1.64092518389225006103515625</LongitudeDegrees>
            </Position>
            <AltitudeMeters>613.79998779296875</AltitudeMeters>
            <DistanceMeters>1714.4651342726</DistanceMeters>
          </Trackpoint>
          <Trackpoint>
            <Time>2022-11-06T10:16:07.000Z</Time>
            <Position>
              <LatitudeDegrees>41.35743166320025920867919921875</LatitudeDegrees>
              <LongitudeDegrees>-1.6409219987690448760986328125</LongitudeDegrees>
            </Position>
            <AltitudeMeters>614.20001220703125</AltitudeMeters>
            <DistanceMeters>1716.7752804105</DistanceMeters>
          </Trackpoint>
          <Trackpoint>
            <Time>2022-11-06T10:16:09.000Z</Time>
            <Position>
              <LatitudeDegrees>41.35746569372713565826416015625</LatitudeDegrees>
              <LongitudeDegrees>-1.64093448780477046966552734375</LongitudeDegrees>
            </Position>
            <AltitudeMeters>614.79998779296875</AltitudeMeters>
            <DistanceMeters>1720.7048390014</DistanceMeters>
          </Trackpoint>
          <Trackpoint>
            <Time>2022-11-06T10:16:12.000Z</Time>
            <Position>
              <LatitudeDegrees>41.35753107257187366485595703125</LatitudeDegrees>
              <LongitudeDegrees>-1.64093549363315105438232421875</LongitudeDegrees>
            </Position>
            <AltitudeMeters>616.20001220703125</AltitudeMeters>
            <DistanceMeters>1727.9822972351</DistanceMeters>
          </Trackpoint>
          <Trackpoint>
            <Time>2022-11-06T10:16:15.000Z</Time>
            <Position>
              <LatitudeDegrees>41.3575861416757106781005859375</LatitudeDegrees>
              <LongitudeDegrees>-1.640955023467540740966796875</LongitudeDegrees>
            </Position>
            <AltitudeMeters>617.5999755859375</AltitudeMeters>
            <DistanceMeters>1734.3256418288</DistanceMeters>
          </Trackpoint>
          <Trackpoint>
            <Time>2022-11-06T10:16:18.000Z</Time>
            <Position>
              <LatitudeDegrees>41.35764489881694316864013671875</LatitudeDegrees>
              <LongitudeDegrees>-1.6409607231616973876953125</LongitudeDegrees>
            </Position>
            <AltitudeMeters>618.79998779296875</AltitudeMeters>
            <DistanceMeters>1740.8831736836</DistanceMeters>
          </Trackpoint>
          <Trackpoint>
            <Time>2022-11-06T10:16:24.000Z</Time>
            <Position>
              <LatitudeDegrees>41.35777951218187808990478515625</LatitudeDegrees>
              <LongitudeDegrees>-1.64096365682780742645263671875</LongitudeDegrees>
            </Position>
            <AltitudeMeters>619.79998779296875</AltitudeMeters>
            <DistanceMeters>1755.8678952644</DistanceMeters>
          </Trackpoint>
          <Trackpoint>
            <Time>2022-11-06T10:16:28.000Z</Time>
            <Position>
              <LatitudeDegrees>41.357835419476032257080078125</LatitudeDegrees>
              <LongitudeDegrees>-1.64106943644583225250244140625</LongitudeDegrees>
            </Position>
            <AltitudeMeters>621</AltitudeMeters>
            <DistanceMeters>1766.6763224838</DistanceMeters>
          </Trackpoint>
          <Trackpoint>
            <Time>2022-11-06T10:16:29.000Z</Time>
            <Position>
              <LatitudeDegrees>41.35785159654915332794189453125</LatitudeDegrees>
              <LongitudeDegrees>-1.64109391160309314727783203125</LongitudeDegrees>
            </Position>
            <AltitudeMeters>621.20001220703125</AltitudeMeters>
            <DistanceMeters>1769.4007899247</DistanceMeters>
          </Trackpoint>
          <Trackpoint>
            <Time>2022-11-06T10:16:32.000Z</Time>
            <Position>
              <LatitudeDegrees>41.35790976695716381072998046875</LatitudeDegrees>
              <LongitudeDegrees>-1.641168929636478424072265625</LongitudeDegrees>
            </Position>
            <AltitudeMeters>621.79998779296875</AltitudeMeters>
            <DistanceMeters>1778.411808035</DistanceMeters>
          </Trackpoint>
          <Trackpoint>
            <Time>2022-11-06T10:16:33.000Z</Time>
            <Position>
              <LatitudeDegrees>41.357930637896060943603515625</LatitudeDegrees>
              <LongitudeDegrees>-1.64119231514632701873779296875</LongitudeDegrees>
            </Position>
            <AltitudeMeters>622.20001220703125</AltitudeMeters>
            <DistanceMeters>1781.4467179139</DistanceMeters>
          </Trackpoint>
          <Trackpoint>
            <Time>2022-11-06T10:16:38.000Z</Time>
            <Position>
              <LatitudeDegrees>41.35803247801959514617919921875</LatitudeDegrees>
              <LongitudeDegrees>-1.64127680473029613494873046875</LongitudeDegrees>
            </Position>
            <AltitudeMeters>623.20001220703125</AltitudeMeters>
            <DistanceMeters>1794.7995775097</DistanceMeters>
          </Trackpoint>
          <Trackpoint>
            <Time>2022-11-06T10:16:43.000Z</Time>
            <Position>
              <LatitudeDegrees>41.3581574521958827972412109375</LatitudeDegrees>
              <LongitudeDegrees>-1.6413605399429798126220703125</LongitudeDegrees>
            </Position>
            <AltitudeMeters>624</AltitudeMeters>
            <DistanceMeters>1810.3694661482</DistanceMeters>
          </Trackpoint>
          <Trackpoint>
            <Time>2022-11-06T10:16:45.000Z</Time>
            <Position>
              <LatitudeDegrees>41.3582077436149120330810546875</LatitudeDegrees>
              <LongitudeDegrees>-1.64139322936534881591796875</LongitudeDegrees>
            </Position>
            <AltitudeMeters>624.20001220703125</AltitudeMeters>
            <DistanceMeters>1816.5986104297</DistanceMeters>
          </Trackpoint>
          <Trackpoint>
            <Time>2022-11-06T10:16:47.000Z</Time>
            <Position>
              <LatitudeDegrees>41.3582553528249263763427734375</LatitudeDegrees>
              <LongitudeDegrees>-1.64142608642578125</LongitudeDegrees>
            </Position>
            <AltitudeMeters>624.4000244140625</AltitudeMeters>
            <DistanceMeters>1822.5656525293</DistanceMeters>
          </Trackpoint>
          <Trackpoint>
            <Time>2022-11-06T10:16:53.000Z</Time>
            <Position>
              <LatitudeDegrees>41.3583894632756710052490234375</LatitudeDegrees>
              <LongitudeDegrees>-1.641598753631114959716796875</LongitudeDegrees>
            </Position>
            <AltitudeMeters>623.5999755859375</AltitudeMeters>
            <DistanceMeters>1843.323498219</DistanceMeters>
          </Trackpoint>
          <Trackpoint>
            <Time>2022-11-06T10:16:54.000Z</Time>
            <Position>
              <LatitudeDegrees>41.35840714909136295318603515625</LatitudeDegrees>
              <LongitudeDegrees>-1.6416354663670063018798828125</LongitudeDegrees>
            </Position>
            <AltitudeMeters>623.20001220703125</AltitudeMeters>
            <DistanceMeters>1846.9681165048</DistanceMeters>
          </Trackpoint>
          <Trackpoint>
            <Time>2022-11-06T10:16:55.000Z</Time>
            <Position>
              <LatitudeDegrees>41.3584226556122303009033203125</LatitudeDegrees>
              <LongitudeDegrees>-1.641678549349308013916015625</LongitudeDegrees>
            </Position>
            <AltitudeMeters>622.79998779296875</AltitudeMeters>
            <DistanceMeters>1850.9592385083</DistanceMeters>
          </Trackpoint>
          <Trackpoint>
            <Time>2022-11-06T10:16:59.000Z</Time>
            <Position>
              <LatitudeDegrees>41.35844989679753780364990234375</LatitudeDegrees>
              <LongitudeDegrees>-1.64184342138469219207763671875</LongitudeDegrees>
            </Position>
            <AltitudeMeters>621.5999755859375</AltitudeMeters>
            <DistanceMeters>1865.0629445428</DistanceMeters>
          </Trackpoint>
          <Trackpoint>
            <Time>2022-11-06T10:17:06.000Z</Time>
            <Position>
              <LatitudeDegrees>41.35845710523426532745361328125</LatitudeDegrees>
              <LongitudeDegrees>-1.6421088762581348419189453125</LongitudeDegrees>
            </Position>
            <AltitudeMeters>621.4000244140625</AltitudeMeters>
            <DistanceMeters>1887.2540731485</DistanceMeters>
          </Trackpoint>
          <Trackpoint>
            <Time>2022-11-06T10:17:07.000Z</Time>
            <Position>
              <LatitudeDegrees>41.35846062563359737396240234375</LatitudeDegrees>
              <LongitudeDegrees>-1.64214936085045337677001953125</LongitudeDegrees>
            </Position>
            <AltitudeMeters>621.4000244140625</AltitudeMeters>
            <DistanceMeters>1890.6591602478</DistanceMeters>
          </Trackpoint>
          <Trackpoint>
            <Time>2022-11-06T10:17:13.000Z</Time>
            <Position>
              <LatitudeDegrees>41.35851703584194183349609375</LatitudeDegrees>
              <LongitudeDegrees>-1.64238874800503253936767578125</LongitudeDegrees>
            </Position>
            <AltitudeMeters>622</AltitudeMeters>
            <DistanceMeters>1911.620683561</DistanceMeters>
          </Trackpoint>
          <Trackpoint>
            <Time>2022-11-06T10:17:14.000Z</Time>
            <Position>
              <LatitudeDegrees>41.35853581130504608154296875</LatitudeDegrees>
              <LongitudeDegrees>-1.64242009632289409637451171875</LongitudeDegrees>
            </Position>
            <AltitudeMeters>622</AltitudeMeters>
            <DistanceMeters>1914.9709648955</DistanceMeters>
          </Trackpoint>
          <Trackpoint>
            <Time>2022-11-06T10:17:21.000Z</Time>
            <Position>
              <LatitudeDegrees>41.35867939330637454986572265625</LatitudeDegrees>
              <LongitudeDegrees>-1.64257499389350414276123046875</LongitudeDegrees>
            </Position>
            <AltitudeMeters>622.79998779296875</AltitudeMeters>
            <DistanceMeters>1935.5340959694</DistanceMeters>
          </Trackpoint>
          <Trackpoint>
            <Time>2022-11-06T10:17:25.000Z</Time>
            <Position>
              <LatitudeDegrees>41.3587458617985248565673828125</LatitudeDegrees>
              <LongitudeDegrees>-1.6426466591656208038330078125</LongitudeDegrees>
            </Position>
            <AltitudeMeters>624</AltitudeMeters>
            <DistanceMeters>1945.0514851497</DistanceMeters>
          </Trackpoint>
          <Trackpoint>
            <Time>2022-11-06T10:17:26.000Z</Time>
            <Position>
              <LatitudeDegrees>41.35876203887164592742919921875</LatitudeDegrees>
              <LongitudeDegrees>-1.6426681168377399444580078125</LongitudeDegrees>
            </Position>
            <AltitudeMeters>624.5999755859375</AltitudeMeters>
            <DistanceMeters>1947.5906729295</DistanceMeters>
          </Trackpoint>
          <Trackpoint>
            <Time>2022-11-06T10:17:28.000Z</Time>
            <Position>
              <LatitudeDegrees>41.358794979751110076904296875</LatitudeDegrees>
              <LongitudeDegrees>-1.64270021952688694000244140625</LongitudeDegrees>
            </Position>
            <AltitudeMeters>625.79998779296875</AltitudeMeters>
            <DistanceMeters>1952.1331089142</DistanceMeters>
          </Trackpoint>
          <Trackpoint>
            <Time>2022-11-06T10:17:31.000Z</Time>
            <Position>
              <LatitudeDegrees>41.3588387332856655120849609375</LatitudeDegrees>
              <LongitudeDegrees>-1.64275000803172588348388671875</LongitudeDegrees>
            </Position>
            <AltitudeMeters>626.79998779296875</AltitudeMeters>
            <DistanceMeters>1958.5373736814</DistanceMeters>
          </Trackpoint>
          <Trackpoint>
            <Time>2022-11-06T10:17:33.000Z</Time>
            <Position>
              <LatitudeDegrees>41.3588548265397548675537109375</LatitudeDegrees>
              <LongitudeDegrees>-1.64278487674891948699951171875</LongitudeDegrees>
            </Position>
            <AltitudeMeters>627.4000244140625</AltitudeMeters>
            <DistanceMeters>1961.9570153285</DistanceMeters>
          </Trackpoint>
          <Trackpoint>
            <Time>2022-11-06T10:17:34.000Z</Time>
            <Position>
              <LatitudeDegrees>41.35886010713875293731689453125</LatitudeDegrees>
              <LongitudeDegrees>-1.64281002245843410491943359375</LongitudeDegrees>
            </Position>
            <AltitudeMeters>627.79998779296875</AltitudeMeters>
            <DistanceMeters>1964.1364235531</DistanceMeters>
          </Trackpoint>
          <Trackpoint>
            <Time>2022-11-06T10:17:35.000Z</Time>
            <Position>
              <LatitudeDegrees>41.3588638789951801300048828125</LatitudeDegrees>
              <LongitudeDegrees>-1.64283500052988529205322265625</LongitudeDegrees>
            </Position>
            <AltitudeMeters>628.4000244140625</AltitudeMeters>
            <DistanceMeters>1966.2634092838</DistanceMeters>
          </Trackpoint>
          <Trackpoint>
            <Time>2022-11-06T10:17:37.000Z</Time>
            <Position>
              <LatitudeDegrees>41.3588685728609561920166015625</LatitudeDegrees>
              <LongitudeDegrees>-1.64288613013923168182373046875</LongitudeDegrees>
            </Position>
            <AltitudeMeters>629</AltitudeMeters>
            <DistanceMeters>1970.5659267689</DistanceMeters>
          </Trackpoint>
          <Trackpoint>
            <Time>2022-11-06T10:17:41.000Z</Time>
            <Position>
              <LatitudeDegrees>41.3588819839060306549072265625</LatitudeDegrees>
              <LongitudeDegrees>-1.6429919935762882232666015625</LongitudeDegrees>
            </Position>
            <AltitudeMeters>630.20001220703125</AltitudeMeters>
            <DistanceMeters>1979.5347572926</DistanceMeters>
          </Trackpoint>
          <Trackpoint>
            <Time>2022-11-06T10:17:44.000Z</Time>
            <Position>
              <LatitudeDegrees>41.3588930480182170867919921875</LatitudeDegrees>
              <LongitudeDegrees>-1.6430577076971530914306640625</LongitudeDegrees>
            </Position>
            <AltitudeMeters>631.5999755859375</AltitudeMeters>
            <DistanceMeters>1985.159825102</DistanceMeters>
          </Trackpoint>
          <Trackpoint>
            <Time>2022-11-06T10:17:47.000Z</Time>
            <Position>
              <LatitudeDegrees>41.35890067555010318756103515625</LatitudeDegrees>
              <LongitudeDegrees>-1.64312099106609821319580078125</LongitudeDegrees>
            </Position>
            <AltitudeMeters>633</AltitudeMeters>
            <DistanceMeters>1990.5134652312</DistanceMeters>
          </Trackpoint>
          <Trackpoint>
            <Time>2022-11-06T10:17:50.000Z</Time>
            <Position>
              <LatitudeDegrees>41.35890721343457698822021484375</LatitudeDegrees>
              <LongitudeDegrees>-1.64319173432886600494384765625</LongitudeDegrees>
            </Position>
            <AltitudeMeters>633.79998779296875</AltitudeMeters>
            <DistanceMeters>1996.46763017</DistanceMeters>
          </Trackpoint>
          <Trackpoint>
            <Time>2022-11-06T10:17:51.000Z</Time>
            <Position>
              <LatitudeDegrees>41.35891132056713104248046875</LatitudeDegrees>
              <LongitudeDegrees>-1.6432126052677631378173828125</LongitudeDegrees>
            </Position>
            <AltitudeMeters>634.4000244140625</AltitudeMeters>
            <DistanceMeters>1998.2681293906</DistanceMeters>
          </Trackpoint>
          <Trackpoint>
            <Time>2022-11-06T10:17:53.000Z</Time>
            <Position>
              <LatitudeDegrees>41.35894208215177059173583984375</LatitudeDegrees>
              <LongitudeDegrees>-1.643237583339214324951171875</LongitudeDegrees>
            </Position>
            <AltitudeMeters>635</AltitudeMeters>
            <DistanceMeters>2002.2761845292</DistanceMeters>
          </Trackpoint>
          <Trackpoint>
            <Time>2022-11-06T10:17:54.000Z</Time>
            <Position>
              <LatitudeDegrees>41.358960606157779693603515625</LatitudeDegrees>
              <LongitudeDegrees>-1.6432303749024868011474609375</LongitudeDegrees>
            </Position>
            <AltitudeMeters>635.4000244140625</AltitudeMeters>
            <DistanceMeters>2004.4221898848</DistanceMeters>
          </Trackpoint>
          <Trackpoint>
            <Time>2022-11-06T10:17:55.000Z</Time>
            <Position>
              <LatitudeDegrees>41.35897695086896419525146484375</LatitudeDegrees>
              <LongitudeDegrees>-1.6432139463722705841064453125</LongitudeDegrees>
            </Position>
            <AltitudeMeters>635.5999755859375</AltitudeMeters>
            <DistanceMeters>2006.7008504465</DistanceMeters>
          </Trackpoint>
          <Trackpoint>
            <Time>2022-11-06T10:17:57.000Z</Time>
            <Position>
              <LatitudeDegrees>41.35900813154876232147216796875</LatitudeDegrees>
              <LongitudeDegrees>-1.643182598054409027099609375</LongitudeDegrees>
            </Position>
            <AltitudeMeters>636.4000244140625</AltitudeMeters>
            <DistanceMeters>2011.0492961543</DistanceMeters>
          </Trackpoint>
          <Trackpoint>
            <Time>2022-11-06T10:18:01.000Z</Time>
            <Position>
              <LatitudeDegrees>41.359055824577808380126953125</LatitudeDegrees>
              <LongitudeDegrees>-1.64310640655457973480224609375</LongitudeDegrees>
            </Position>
            <AltitudeMeters>637.79998779296875</AltitudeMeters>
            <DistanceMeters>2019.3378920297</DistanceMeters>
          </Trackpoint>
          <Trackpoint>
            <Time>2022-11-06T10:18:02.000Z</Time>
            <Position>
              <LatitudeDegrees>41.359083317220211029052734375</LatitudeDegrees>
              <LongitudeDegrees>-1.643080003559589385986328125</LongitudeDegrees>
            </Position>
            <AltitudeMeters>638</AltitudeMeters>
            <DistanceMeters>2023.1103448757</DistanceMeters>
          </Trackpoint>
          <Trackpoint>
            <Time>2022-11-06T10:18:05.000Z</Time>
            <Position>
              <LatitudeDegrees>41.359139643609523773193359375</LatitudeDegrees>
              <LongitudeDegrees>-1.6430114395916461944580078125</LongitudeDegrees>
            </Position>
            <AltitudeMeters>638.79998779296875</AltitudeMeters>
            <DistanceMeters>2031.6023523228</DistanceMeters>
          </Trackpoint>
          <Trackpoint>
            <Time>2022-11-06T10:18:10.000Z</Time>
            <Position>
              <LatitudeDegrees>41.359217427670955657958984375</LatitudeDegrees>
              <LongitudeDegrees>-1.642923094332218170166015625</LongitudeDegrees>
            </Position>
            <AltitudeMeters>640</AltitudeMeters>
            <DistanceMeters>2042.9786019507</DistanceMeters>
          </Trackpoint>
          <Trackpoint>
            <Time>2022-11-06T10:18:14.000Z</Time>
            <Position>
              <LatitudeDegrees>41.359273754060268402099609375</LatitudeDegrees>
              <LongitudeDegrees>-1.642859391868114471435546875</LongitudeDegrees>
            </Position>
            <AltitudeMeters>641</AltitudeMeters>
            <DistanceMeters>2051.2015705394</DistanceMeters>
          </Trackpoint>
          <Trackpoint>
            <Time>2022-11-06T10:18:18.000Z</Time>
            <Position>
              <LatitudeDegrees>41.3593154959380626678466796875</LatitudeDegrees>
              <LongitudeDegrees>-1.642784960567951202392578125</LongitudeDegrees>
            </Position>
            <AltitudeMeters>642</AltitudeMeters>
            <DistanceMeters>2058.9635722165</DistanceMeters>
          </Trackpoint>
          <Trackpoint>
            <Time>2022-11-06T10:18:21.000Z</Time>
            <Position>
              <LatitudeDegrees>41.3593450002372264862060546875</LatitudeDegrees>
              <LongitudeDegrees>-1.64272083900868892669677734375</LongitudeDegrees>
            </Position>
            <AltitudeMeters>643.20001220703125</AltitudeMeters>
            <DistanceMeters>2065.2468431969</DistanceMeters>
          </Trackpoint>
          <Trackpoint>
            <Time>2022-11-06T10:18:26.000Z</Time>
            <Position>
              <LatitudeDegrees>41.359395124018192291259765625</LatitudeDegrees>
              <LongitudeDegrees>-1.64256937801837921142578125</LongitudeDegrees>
            </Position>
            <AltitudeMeters>644</AltitudeMeters>
            <DistanceMeters>2079.0751076858</DistanceMeters>
          </Trackpoint>
          <Trackpoint>
            <Time>2022-11-06T10:18:29.000Z</Time>
            <Position>
              <LatitudeDegrees>41.35944600217044353485107421875</LatitudeDegrees>
              <LongitudeDegrees>-1.6424981318414211273193359375</LongitudeDegrees>
            </Position>
            <AltitudeMeters>644.4000244140625</AltitudeMeters>
            <DistanceMeters>2087.2898359994</DistanceMeters>
          </Trackpoint>
          <Trackpoint>
            <Time>2022-11-06T10:18:31.000Z</Time>
            <Position>
              <LatitudeDegrees>41.35948020033538341522216796875</LatitudeDegrees>
              <LongitudeDegrees>-1.64249905385076999664306640625</LongitudeDegrees>
            </Position>
            <AltitudeMeters>645</AltitudeMeters>
            <DistanceMeters>2091.0968391111</DistanceMeters>
          </Trackpoint>
          <Trackpoint>
            <Time>2022-11-06T10:18:34.000Z</Time>
            <Position>
              <LatitudeDegrees>41.3595434837043285369873046875</LatitudeDegrees>
              <LongitudeDegrees>-1.64251397363841533660888671875</LongitudeDegrees>
            </Position>
            <AltitudeMeters>645.4000244140625</AltitudeMeters>
            <DistanceMeters>2098.2497694988</DistanceMeters>
          </Trackpoint>
          <Trackpoint>
            <Time>2022-11-06T10:18:40.000Z</Time>
            <Position>
              <LatitudeDegrees>41.3597335852682590484619140625</LatitudeDegrees>
              <LongitudeDegrees>-1.6426077671349048614501953125</LongitudeDegrees>
            </Position>
            <AltitudeMeters>644</AltitudeMeters>
            <DistanceMeters>2120.8125616488</DistanceMeters>
          </Trackpoint>
          <Trackpoint>
            <Time>2022-11-06T10:18:44.000Z</Time>
            <Position>
              <LatitudeDegrees>41.35981120169162750244140625</LatitudeDegrees>
              <LongitudeDegrees>-1.6426902450621128082275390625</LongitudeDegrees>
            </Position>
            <AltitudeMeters>643.5999755859375</AltitudeMeters>
            <DistanceMeters>2131.8622523051</DistanceMeters>
          </Trackpoint>
          <Trackpoint>
            <Time>2022-11-06T10:18:51.000Z</Time>
            <Position>
              <LatitudeDegrees>41.35993801988661289215087890625</LatitudeDegrees>
              <LongitudeDegrees>-1.64285796694457530975341796875</LongitudeDegrees>
            </Position>
            <AltitudeMeters>643</AltitudeMeters>
            <DistanceMeters>2151.7507783578</DistanceMeters>
          </Trackpoint>
          <Trackpoint>
            <Time>2022-11-06T10:18:52.000Z</Time>
            <Position>
              <LatitudeDegrees>41.359957046806812286376953125</LatitudeDegrees>
              <LongitudeDegrees>-1.64288260973989963531494140625</LongitudeDegrees>
            </Position>
            <AltitudeMeters>642.5999755859375</AltitudeMeters>
            <DistanceMeters>2154.7027308928</DistanceMeters>
          </Trackpoint>
          <Trackpoint>
            <Time>2022-11-06T10:18:54.000Z</Time>
            <Position>
              <LatitudeDegrees>41.36000566184520721435546875</LatitudeDegrees>
              <LongitudeDegrees>-1.64290842600166797637939453125</LongitudeDegrees>
            </Position>
            <AltitudeMeters>641.79998779296875</AltitudeMeters>
            <DistanceMeters>2160.5281087583</DistanceMeters>
          </Trackpoint>
          <Trackpoint>
            <Time>2022-11-06T10:18:56.000Z</Time>
            <Position>
              <LatitudeDegrees>41.360062323510646820068359375</LatitudeDegrees>
              <LongitudeDegrees>-1.64293390698730945587158203125</LongitudeDegrees>
            </Position>
            <AltitudeMeters>640.20001220703125</AltitudeMeters>
            <DistanceMeters>2167.1840500917</DistanceMeters>
          </Trackpoint>
          <Trackpoint>
            <Time>2022-11-06T10:18:57.000Z</Time>
            <Position>
              <LatitudeDegrees>41.36008839122951030731201171875</LatitudeDegrees>
              <LongitudeDegrees>-1.642947904765605926513671875</LongitudeDegrees>
            </Position>
            <AltitudeMeters>639.79998779296875</AltitudeMeters>
            <DistanceMeters>2170.3141671729</DistanceMeters>
          </Trackpoint>
          <Trackpoint>
            <Time>2022-11-06T10:18:59.000Z</Time>
            <Position>
              <LatitudeDegrees>41.36014086194336414337158203125</LatitudeDegrees>
              <LongitudeDegrees>-1.64293793030083179473876953125</LongitudeDegrees>
            </Position>
            <AltitudeMeters>638.79998779296875</AltitudeMeters>
            <DistanceMeters>2176.2142472309</DistanceMeters>
          </Trackpoint>
          <Trackpoint>
            <Time>2022-11-06T10:19:00.000Z</Time>
            <Position>
              <LatitudeDegrees>41.36016114614903926849365234375</LatitudeDegrees>
              <LongitudeDegrees>-1.64291161112487316131591796875</LongitudeDegrees>
            </Position>
            <AltitudeMeters>638.20001220703125</AltitudeMeters>
            <DistanceMeters>2179.3659267972</DistanceMeters>
          </Trackpoint>
          <Trackpoint>
            <Time>2022-11-06T10:19:01.000Z</Time>
            <Position>
              <LatitudeDegrees>41.36018344201147556304931640625</LatitudeDegrees>
              <LongitudeDegrees>-1.64288277737796306610107421875</LongitudeDegrees>
            </Position>
            <AltitudeMeters>637.5999755859375</AltitudeMeters>
            <DistanceMeters>2182.8262564585</DistanceMeters>
          </Trackpoint>
          <Trackpoint>
            <Time>2022-11-06T10:19:03.000Z</Time>
            <Position>
              <LatitudeDegrees>41.36023524217307567596435546875</LatitudeDegrees>
              <LongitudeDegrees>-1.642853356897830963134765625</LongitudeDegrees>
            </Position>
            <AltitudeMeters>636.4000244140625</AltitudeMeters>
            <DistanceMeters>2189.0936987224</DistanceMeters>
          </Trackpoint>
          <Trackpoint>
            <Time>2022-11-06T10:19:05.000Z</Time>
            <Position>
              <LatitudeDegrees>41.3602938316762447357177734375</LatitudeDegrees>
              <LongitudeDegrees>-1.6428434662520885467529296875</LongitudeDegrees>
            </Position>
            <AltitudeMeters>634.79998779296875</AltitudeMeters>
            <DistanceMeters>2195.6663607179</DistanceMeters>
          </Trackpoint>
          <Trackpoint>
            <Time>2022-11-06T10:19:07.000Z</Time>
            <Position>
              <LatitudeDegrees>41.36034638620913028717041015625</LatitudeDegrees>
              <LongitudeDegrees>-1.6428320668637752532958984375</LongitudeDegrees>
            </Position>
            <AltitudeMeters>633.5999755859375</AltitudeMeters>
            <DistanceMeters>2201.5931640188</DistanceMeters>
          </Trackpoint>
          <Trackpoint>
            <Time>2022-11-06T10:19:09.000Z</Time>
            <Position>
              <LatitudeDegrees>41.360401622951030731201171875</LatitudeDegrees>
              <LongitudeDegrees>-1.64283282123506069183349609375</LongitudeDegrees>
            </Position>
            <AltitudeMeters>632</AltitudeMeters>
            <DistanceMeters>2207.7420606735</DistanceMeters>
          </Trackpoint>
          <Trackpoint>
            <Time>2022-11-06T10:19:11.000Z</Time>
            <Position>
              <LatitudeDegrees>41.360457278788089752197265625</LatitudeDegrees>
              <LongitudeDegrees>-1.64284321479499340057373046875</LongitudeDegrees>
            </Position>
            <AltitudeMeters>631</AltitudeMeters>
            <DistanceMeters>2213.9965223734</DistanceMeters>
          </Trackpoint>
          <Trackpoint>
            <Time>2022-11-06T10:19:12.000Z</Time>
            <Position>
              <LatitudeDegrees>41.36048435233533382415771484375</LatitudeDegrees>
              <LongitudeDegrees>-1.642848663032054901123046875</LongitudeDegrees>
            </Position>
            <AltitudeMeters>629.79998779296875</AltitudeMeters>
            <DistanceMeters>2217.0447921549</DistanceMeters>
          </Trackpoint>
          <Trackpoint>
            <Time>2022-11-06T10:19:14.000Z</Time>
            <Position>
              <LatitudeDegrees>41.36053632013499736785888671875</LatitudeDegrees>
              <LongitudeDegrees>-1.64286299608647823333740234375</LongitudeDegrees>
            </Position>
            <AltitudeMeters>628.4000244140625</AltitudeMeters>
            <DistanceMeters>2222.9517554508</DistanceMeters>
          </Trackpoint>
          <Trackpoint>
            <Time>2022-11-06T10:19:16.000Z</Time>
            <Position>
              <LatitudeDegrees>41.3605882041156291961669921875</LatitudeDegrees>
              <LongitudeDegrees>-1.6428585536777973175048828125</LongitudeDegrees>
            </Position>
            <AltitudeMeters>627</AltitudeMeters>
            <DistanceMeters>2228.7382503704</DistanceMeters>
          </Trackpoint>
          <Trackpoint>
            <Time>2022-11-06T10:19:17.000Z</Time>
            <Position>
              <LatitudeDegrees>41.3606227375566959381103515625</LatitudeDegrees>
              <LongitudeDegrees>-1.64284958504140377044677734375</LongitudeDegrees>
            </Position>
            <AltitudeMeters>626.4000244140625</AltitudeMeters>
            <DistanceMeters>2232.6551496387</DistanceMeters>
          </Trackpoint>
          <Trackpoint>
            <Time>2022-11-06T10:19:18.000Z</Time>
            <Position>
              <LatitudeDegrees>41.36064268648624420166015625</LatitudeDegrees>
              <LongitudeDegrees>-1.64284564554691314697265625</LongitudeDegrees>
            </Position>
            <AltitudeMeters>626</AltitudeMeters>
            <DistanceMeters>2234.8998729303</DistanceMeters>
          </Trackpoint>
          <Trackpoint>
            <Time>2022-11-06T10:19:19.000Z</Time>
            <Position>
              <LatitudeDegrees>41.36066774837672710418701171875</LatitudeDegrees>
              <LongitudeDegrees>-1.64285100996494293212890625</LongitudeDegrees>
            </Position>
            <AltitudeMeters>624.79998779296875</AltitudeMeters>
            <DistanceMeters>2237.7252202676</DistanceMeters>
          </Trackpoint>
          <Trackpoint>
            <Time>2022-11-06T10:19:21.000Z</Time>
            <Position>
              <LatitudeDegrees>41.36072977446019649505615234375</LatitudeDegrees>
              <LongitudeDegrees>-1.642869450151920318603515625</LongitudeDegrees>
            </Position>
            <AltitudeMeters>623.5999755859375</AltitudeMeters>
            <DistanceMeters>2244.7994469852</DistanceMeters>
          </Trackpoint>
          <Trackpoint>
            <Time>2022-11-06T10:19:22.000Z</Time>
            <Position>
              <LatitudeDegrees>41.36076204478740692138671875</LatitudeDegrees>
              <LongitudeDegrees>-1.64287657476961612701416015625</LongitudeDegrees>
            </Position>
            <AltitudeMeters>623.20001220703125</AltitudeMeters>
            <DistanceMeters>2248.4403469042</DistanceMeters>
          </Trackpoint>
          <Trackpoint>
            <Time>2022-11-06T10:19:23.000Z</Time>
            <Position>
              <LatitudeDegrees>41.36079557240009307861328125</LatitudeDegrees>
              <LongitudeDegrees>-1.64287917315959930419921875</LongitudeDegrees>
            </Position>
            <AltitudeMeters>622.5999755859375</AltitudeMeters>
            <DistanceMeters>2252.1767219098</DistanceMeters>
          </Trackpoint>
          <Trackpoint>
            <Time>2022-11-06T10:19:26.000Z</Time>
            <Position>
              <LatitudeDegrees>41.3608906231820583343505859375</LatitudeDegrees>
              <LongitudeDegrees>-1.6428927518427371978759765625</LongitudeDegrees>
            </Position>
            <AltitudeMeters>621.20001220703125</AltitudeMeters>
            <DistanceMeters>2262.8163195667</DistanceMeters>
          </Trackpoint>
          <Trackpoint>
            <Time>2022-11-06T10:19:29.000Z</Time>
            <Position>
              <LatitudeDegrees>41.36099447496235370635986328125</LatitudeDegrees>
              <LongitudeDegrees>-1.6428930871188640594482421875</LongitudeDegrees>
            </Position>
            <AltitudeMeters>620.4000244140625</AltitudeMeters>
            <DistanceMeters>2274.3748653657</DistanceMeters>
          </Trackpoint>
          <Trackpoint>
            <Time>2022-11-06T10:19:30.000Z</Time>
            <Position>
              <LatitudeDegrees>41.36103169061243534088134765625</LatitudeDegrees>
              <LongitudeDegrees>-1.64288462139666080474853515625</LongitudeDegrees>
            </Position>
            <AltitudeMeters>620.20001220703125</AltitudeMeters>
            <DistanceMeters>2278.5754331097</DistanceMeters>
          </Trackpoint>
          <Trackpoint>
            <Time>2022-11-06T10:19:31.000Z</Time>
            <Position>
              <LatitudeDegrees>41.3610602729022502899169921875</LatitudeDegrees>
              <LongitudeDegrees>-1.64287791587412357330322265625</LongitudeDegrees>
            </Position>
            <AltitudeMeters>620</AltitudeMeters>
            <DistanceMeters>2281.8063413983</DistanceMeters>
          </Trackpoint>
          <Trackpoint>
            <Time>2022-11-06T10:19:37.000Z</Time>
            <Position>
              <LatitudeDegrees>41.36124744080007076263427734375</LatitudeDegrees>
              <LongitudeDegrees>-1.64277054369449615478515625</LongitudeDegrees>
            </Position>
            <AltitudeMeters>619.5999755859375</AltitudeMeters>
            <DistanceMeters>2304.4872892369</DistanceMeters>
          </Trackpoint>
          <Trackpoint>
            <Time>2022-11-06T10:19:41.000Z</Time>
            <Position>
              <LatitudeDegrees>41.36135053820908069610595703125</LatitudeDegrees>
              <LongitudeDegrees>-1.64261975325644016265869140625</LongitudeDegrees>
            </Position>
            <AltitudeMeters>619.20001220703125</AltitudeMeters>
            <DistanceMeters>2321.5270391758</DistanceMeters>
          </Trackpoint>
          <Trackpoint>
            <Time>2022-11-06T10:19:42.000Z</Time>
            <Position>
              <LatitudeDegrees>41.36137484572827816009521484375</LatitudeDegrees>
              <LongitudeDegrees>-1.642579771578311920166015625</LongitudeDegrees>
            </Position>
            <AltitudeMeters>619</AltitudeMeters>
            <DistanceMeters>2325.8253570333</DistanceMeters>
          </Trackpoint>
          <Trackpoint>
            <Time>2022-11-06T10:19:44.000Z</Time>
            <Position>
              <LatitudeDegrees>41.3614190183579921722412109375</LatitudeDegrees>
              <LongitudeDegrees>-1.64249972440302371978759765625</LongitudeDegrees>
            </Position>
            <AltitudeMeters>617.79998779296875</AltitudeMeters>
            <DistanceMeters>2334.1248403374</DistanceMeters>
          </Trackpoint>
          <Trackpoint>
            <Time>2022-11-06T10:19:48.000Z</Time>
            <Position>
              <LatitudeDegrees>41.36149923317134380340576171875</LatitudeDegrees>
              <LongitudeDegrees>-1.64232789538800716400146484375</LongitudeDegrees>
            </Position>
            <AltitudeMeters>617</AltitudeMeters>
            <DistanceMeters>2351.0291820598</DistanceMeters>
          </Trackpoint>
          <Trackpoint>
            <Time>2022-11-06T10:19:49.000Z</Time>
            <Position>
              <LatitudeDegrees>41.3615190982818603515625</LatitudeDegrees>
              <LongitudeDegrees>-1.64229336194694042205810546875</LongitudeDegrees>
            </Position>
            <AltitudeMeters>616.79998779296875</AltitudeMeters>
            <DistanceMeters>2354.665118241</DistanceMeters>
          </Trackpoint>
          <Trackpoint>
            <Time>2022-11-06T10:19:50.000Z</Time>
            <Position>
              <LatitudeDegrees>41.36154097504913806915283203125</LatitudeDegrees>
              <LongitudeDegrees>-1.6422567330300807952880859375</LongitudeDegrees>
            </Position>
            <AltitudeMeters>616.5999755859375</AltitudeMeters>
            <DistanceMeters>2358.5762497264</DistanceMeters>
          </Trackpoint>
          <Trackpoint>
            <Time>2022-11-06T10:19:52.000Z</Time>
            <Position>
              <LatitudeDegrees>41.3615896739065647125244140625</LatitudeDegrees>
              <LongitudeDegrees>-1.6421739198267459869384765625</LongitudeDegrees>
            </Position>
            <AltitudeMeters>615.79998779296875</AltitudeMeters>
            <DistanceMeters>2367.3650649994</DistanceMeters>
          </Trackpoint>
          <Trackpoint>
            <Time>2022-11-06T10:19:55.000Z</Time>
            <Position>
              <LatitudeDegrees>41.36165463365614414215087890625</LatitudeDegrees>
              <LongitudeDegrees>-1.64204777218401432037353515625</LongitudeDegrees>
            </Position>
            <AltitudeMeters>614.5999755859375</AltitudeMeters>
            <DistanceMeters>2380.1453632243</DistanceMeters>
          </Trackpoint>
          <Trackpoint>
            <Time>2022-11-06T10:19:57.000Z</Time>
            <Position>
              <LatitudeDegrees>41.3616966269910335540771484375</LatitudeDegrees>
              <LongitudeDegrees>-1.64196697063744068145751953125</LongitudeDegrees>
            </Position>
            <AltitudeMeters>614.5999755859375</AltitudeMeters>
            <DistanceMeters>2388.356243246</DistanceMeters>
          </Trackpoint>
          <Trackpoint>
            <Time>2022-11-06T10:20:03.000Z</Time>
            <Position>
              <LatitudeDegrees>41.36180810630321502685546875</LatitudeDegrees>
              <LongitudeDegrees>-1.64174862205982208251953125</LongitudeDegrees>
            </Position>
            <AltitudeMeters>615</AltitudeMeters>
            <DistanceMeters>2410.4167722485</DistanceMeters>
          </Trackpoint>
          <Trackpoint>
            <Time>2022-11-06T10:20:04.000Z</Time>
            <Position>
              <LatitudeDegrees>41.361835263669490814208984375</LatitudeDegrees>
              <LongitudeDegrees>-1.64171467535197734832763671875</LongitudeDegrees>
            </Position>
            <AltitudeMeters>615</AltitudeMeters>
            <DistanceMeters>2414.562159501</DistanceMeters>
          </Trackpoint>
          <Trackpoint>
            <Time>2022-11-06T10:20:08.000Z</Time>
            <Position>
              <LatitudeDegrees>41.361939869821071624755859375</LatitudeDegrees>
              <LongitudeDegrees>-1.64159984327852725982666015625</LongitudeDegrees>
            </Position>
            <AltitudeMeters>614.79998779296875</AltitudeMeters>
            <DistanceMeters>2429.6483799254</DistanceMeters>
          </Trackpoint>
          <Trackpoint>
            <Time>2022-11-06T10:20:10.000Z</Time>
            <Position>
              <LatitudeDegrees>41.36199493892490863800048828125</LatitudeDegrees>
              <LongitudeDegrees>-1.64155491627752780914306640625</LongitudeDegrees>
            </Position>
            <AltitudeMeters>614.5999755859375</AltitudeMeters>
            <DistanceMeters>2436.8353151038</DistanceMeters>
          </Trackpoint>
          <Trackpoint>
            <Time>2022-11-06T10:20:16.000Z</Time>
            <Position>
              <LatitudeDegrees>41.36213726364076137542724609375</LatitudeDegrees>
              <LongitudeDegrees>-1.641362048685550689697265625</LongitudeDegrees>
            </Position>
            <AltitudeMeters>614</AltitudeMeters>
            <DistanceMeters>2459.4301021539</DistanceMeters>
          </Trackpoint>
          <Trackpoint>
            <Time>2022-11-06T10:20:17.000Z</Time>
            <Position>
              <LatitudeDegrees>41.36215218342840671539306640625</LatitudeDegrees>
              <LongitudeDegrees>-1.641327850520610809326171875</LongitudeDegrees>
            </Position>
            <AltitudeMeters>614</AltitudeMeters>
            <DistanceMeters>2462.7328786138</DistanceMeters>
          </Trackpoint>
          <Trackpoint>
            <Time>2022-11-06T10:20:23.000Z</Time>
            <Position>
              <LatitudeDegrees>41.3622615672647953033447265625</LatitudeDegrees>
              <LongitudeDegrees>-1.64111034013330936431884765625</LongitudeDegrees>
            </Position>
            <AltitudeMeters>614</AltitudeMeters>
            <DistanceMeters>2484.6047173498</DistanceMeters>
          </Trackpoint>
          <Trackpoint>
            <Time>2022-11-06T10:20:27.000Z</Time>
            <Position>
              <LatitudeDegrees>41.3623460568487644195556640625</LatitudeDegrees>
              <LongitudeDegrees>-1.640956699848175048828125</LongitudeDegrees>
            </Position>
            <AltitudeMeters>614.20001220703125</AltitudeMeters>
            <DistanceMeters>2500.5159468178</DistanceMeters>
          </Trackpoint>
          <Trackpoint>
            <Time>2022-11-06T10:20:28.000Z</Time>
            <Position>
              <LatitudeDegrees>41.36236575432121753692626953125</LatitudeDegrees>
              <LongitudeDegrees>-1.6409219987690448760986328125</LongitudeDegrees>
            </Position>
            <AltitudeMeters>614</AltitudeMeters>
            <DistanceMeters>2504.1506410054</DistanceMeters>
          </Trackpoint>
          <Trackpoint>
            <Time>2022-11-06T10:20:34.000Z</Time>
            <Position>
              <LatitudeDegrees>41.3624939136207103729248046875</LatitudeDegrees>
              <LongitudeDegrees>-1.6407282091677188873291015625</LongitudeDegrees>
            </Position>
            <AltitudeMeters>615.20001220703125</AltitudeMeters>
            <DistanceMeters>2525.7271465397</DistanceMeters>
          </Trackpoint>
          <Trackpoint>
            <Time>2022-11-06T10:20:35.000Z</Time>
            <Position>
              <LatitudeDegrees>41.3625153712928295135498046875</LatitudeDegrees>
              <LongitudeDegrees>-1.640701554715633392333984375</LongitudeDegrees>
            </Position>
            <AltitudeMeters>615.4000244140625</AltitudeMeters>
            <DistanceMeters>2528.9914213755</DistanceMeters>
          </Trackpoint>
          <Trackpoint>
            <Time>2022-11-06T10:20:41.000Z</Time>
            <Position>
              <LatitudeDegrees>41.3626464642584323883056640625</LatitudeDegrees>
              <LongitudeDegrees>-1.64052796550095081329345703125</LongitudeDegrees>
            </Position>
            <AltitudeMeters>615.5999755859375</AltitudeMeters>
            <DistanceMeters>2549.5628944017</DistanceMeters>
          </Trackpoint>
          <Trackpoint>
            <Time>2022-11-06T10:20:45.000Z</Time>
            <Position>
              <LatitudeDegrees>41.3627274334430694580078125</LatitudeDegrees>
              <LongitudeDegrees>-1.64040341041982173919677734375</LongitudeDegrees>
            </Position>
            <AltitudeMeters>615.4000244140625</AltitudeMeters>
            <DistanceMeters>2563.328326618</DistanceMeters>
          </Trackpoint>
          <Trackpoint>
            <Time>2022-11-06T10:20:50.000Z</Time>
            <Position>
              <LatitudeDegrees>41.36281502433121204376220703125</LatitudeDegrees>
              <LongitudeDegrees>-1.64024247787892818450927734375</LongitudeDegrees>
            </Position>
            <AltitudeMeters>615.5999755859375</AltitudeMeters>
            <DistanceMeters>2579.9351795611</DistanceMeters>
          </Trackpoint>
          <Trackpoint>
            <Time>2022-11-06T10:20:51.000Z</Time>
            <Position>
              <LatitudeDegrees>41.362837739288806915283203125</LatitudeDegrees>
              <LongitudeDegrees>-1.6402055136859416961669921875</LongitudeDegrees>
            </Position>
            <AltitudeMeters>615.5999755859375</AltitudeMeters>
            <DistanceMeters>2583.9263015647</DistanceMeters>
          </Trackpoint>
          <Trackpoint>
            <Time>2022-11-06T10:20:53.000Z</Time>
            <Position>
              <LatitudeDegrees>41.36289146728813648223876953125</LatitudeDegrees>
              <LongitudeDegrees>-1.64014407433569431304931640625</LongitudeDegrees>
            </Position>
            <AltitudeMeters>615.4000244140625</AltitudeMeters>
            <DistanceMeters>2591.8072193907</DistanceMeters>
          </Trackpoint>
          <Trackpoint>
            <Time>2022-11-06T10:20:59.000Z</Time>
            <Position>
              <LatitudeDegrees>41.36301568709313869476318359375</LatitudeDegrees>
              <LongitudeDegrees>-1.6399349458515644073486328125</LongitudeDegrees>
            </Position>
            <AltitudeMeters>615.20001220703125</AltitudeMeters>
            <DistanceMeters>2614.0864752574</DistanceMeters>
          </Trackpoint>
          <Trackpoint>
            <Time>2022-11-06T10:21:00.000Z</Time>
            <Position>
              <LatitudeDegrees>41.3630350492894649505615234375</LatitudeDegrees>
              <LongitudeDegrees>-1.63989630527794361114501953125</LongitudeDegrees>
            </Position>
            <AltitudeMeters>615</AltitudeMeters>
            <DistanceMeters>2617.9674760959</DistanceMeters>
          </Trackpoint>
          <Trackpoint>
            <Time>2022-11-06T10:21:02.000Z</Time>
            <Position>
              <LatitudeDegrees>41.36306564323604106903076171875</LatitudeDegrees>
              <LongitudeDegrees>-1.6398078761994838714599609375</LongitudeDegrees>
            </Position>
            <AltitudeMeters>614.5999755859375</AltitudeMeters>
            <DistanceMeters>2626.1021180783</DistanceMeters>
          </Trackpoint>
          <Trackpoint>
            <Time>2022-11-06T10:21:07.000Z</Time>
            <Position>
              <LatitudeDegrees>41.36313915252685546875</LatitudeDegrees>
              <LongitudeDegrees>-1.63957578130066394805908203125</LongitudeDegrees>
            </Position>
            <AltitudeMeters>613.20001220703125</AltitudeMeters>
            <DistanceMeters>2647.146191091</DistanceMeters>
          </Trackpoint>
          <Trackpoint>
            <Time>2022-11-06T10:21:08.000Z</Time>
            <Position>
              <LatitudeDegrees>41.3631560839712619781494140625</LatitudeDegrees>
              <LongitudeDegrees>-1.6395255737006664276123046875</LongitudeDegrees>
            </Position>
            <AltitudeMeters>613</AltitudeMeters>
            <DistanceMeters>2651.7439523892</DistanceMeters>
          </Trackpoint>
          <Trackpoint>
            <Time>2022-11-06T10:21:10.000Z</Time>
            <Position>
              <LatitudeDegrees>41.3631788827478885650634765625</LatitudeDegrees>
              <LongitudeDegrees>-1.6394353844225406646728515625</LongitudeDegrees>
            </Position>
            <AltitudeMeters>612.20001220703125</AltitudeMeters>
            <DistanceMeters>2659.6933218582</DistanceMeters>
          </Trackpoint>
          <Trackpoint>
            <Time>2022-11-06T10:21:16.000Z</Time>
            <Position>
              <LatitudeDegrees>41.36324577033519744873046875</LatitudeDegrees>
              <LongitudeDegrees>-1.63916573859751224517822265625</LongitudeDegrees>
            </Position>
            <AltitudeMeters>610.79998779296875</AltitudeMeters>
            <DistanceMeters>2683.4167177865</DistanceMeters>
          </Trackpoint>
          <Trackpoint>
            <Time>2022-11-06T10:21:19.000Z</Time>
            <Position>
              <LatitudeDegrees>41.36327737011015415191650390625</LatitudeDegrees>
              <LongitudeDegrees>-1.63902827538549900054931640625</LongitudeDegrees>
            </Position>
            <AltitudeMeters>609.5999755859375</AltitudeMeters>
            <DistanceMeters>2695.4258539289</DistanceMeters>
          </Trackpoint>
          <Trackpoint>
            <Time>2022-11-06T10:21:22.000Z</Time>
            <Position>
              <LatitudeDegrees>41.36331223882734775543212890625</LatitudeDegrees>
              <LongitudeDegrees>-1.63889215327799320220947265625</LongitudeDegrees>
            </Position>
            <AltitudeMeters>608.5999755859375</AltitudeMeters>
            <DistanceMeters>2707.4406282519</DistanceMeters>
          </Trackpoint>
          <Trackpoint>
            <Time>2022-11-06T10:21:24.000Z</Time>
            <Position>
              <LatitudeDegrees>41.36335574090480804443359375</LatitudeDegrees>
              <LongitudeDegrees>-1.6388067416846752166748046875</LongitudeDegrees>
            </Position>
            <AltitudeMeters>607</AltitudeMeters>
            <DistanceMeters>2716.0634844747</DistanceMeters>
          </Trackpoint>
          <Trackpoint>
            <Time>2022-11-06T10:21:25.000Z</Time>
            <Position>
              <LatitudeDegrees>41.3633813895285129547119140625</LatitudeDegrees>
              <LongitudeDegrees>-1.63878235034644603729248046875</LongitudeDegrees>
            </Position>
            <AltitudeMeters>606.5999755859375</AltitudeMeters>
            <DistanceMeters>2719.5704723727</DistanceMeters>
          </Trackpoint>
          <Trackpoint>
            <Time>2022-11-06T10:21:27.000Z</Time>
            <Position>
              <LatitudeDegrees>41.363441236317157745361328125</LatitudeDegrees>
              <LongitudeDegrees>-1.6387581266462802886962890625</LongitudeDegrees>
            </Position>
            <AltitudeMeters>605.79998779296875</AltitudeMeters>
            <DistanceMeters>2726.5314629774</DistanceMeters>
          </Trackpoint>
          <Trackpoint>
            <Time>2022-11-06T10:21:29.000Z</Time>
            <Position>
              <LatitudeDegrees>41.36349529959261417388916015625</LatitudeDegrees>
              <LongitudeDegrees>-1.63874580524861812591552734375</LongitudeDegrees>
            </Position>
            <AltitudeMeters>605.79998779296875</AltitudeMeters>
            <DistanceMeters>2732.6354039509</DistanceMeters>
          </Trackpoint>
          <Trackpoint>
            <Time>2022-11-06T10:21:32.000Z</Time>
            <Position>
              <LatitudeDegrees>41.36356168426573276519775390625</LatitudeDegrees>
              <LongitudeDegrees>-1.63873851299285888671875</LongitudeDegrees>
            </Position>
            <AltitudeMeters>607</AltitudeMeters>
            <DistanceMeters>2740.0499238538</DistanceMeters>
          </Trackpoint>
          <Trackpoint>
            <Time>2022-11-06T10:21:35.000Z</Time>
            <Position>
              <LatitudeDegrees>41.36364139616489410400390625</LatitudeDegrees>
              <LongitudeDegrees>-1.6387118585407733917236328125</LongitudeDegrees>
            </Position>
            <AltitudeMeters>608</AltitudeMeters>
            <DistanceMeters>2749.1972014996</DistanceMeters>
          </Trackpoint>
          <Trackpoint>
            <Time>2022-11-06T10:21:36.000Z</Time>
            <Position>
              <LatitudeDegrees>41.363669224083423614501953125</LatitudeDegrees>
              <LongitudeDegrees>-1.63869668729603290557861328125</LongitudeDegrees>
            </Position>
            <AltitudeMeters>608.20001220703125</AltitudeMeters>
            <DistanceMeters>2752.5420878526</DistanceMeters>
          </Trackpoint>
          <Trackpoint>
            <Time>2022-11-06T10:21:40.000Z</Time>
            <Position>
              <LatitudeDegrees>41.3637713156640529632568359375</LatitudeDegrees>
              <LongitudeDegrees>-1.63861538283526897430419921875</LongitudeDegrees>
            </Position>
            <AltitudeMeters>607.4000244140625</AltitudeMeters>
            <DistanceMeters>2765.780506324</DistanceMeters>
          </Trackpoint>
          <Trackpoint>
            <Time>2022-11-06T10:21:41.000Z</Time>
            <Position>
              <LatitudeDegrees>41.36379604227840900421142578125</LatitudeDegrees>
              <LongitudeDegrees>-1.63859727792441844940185546875</LongitudeDegrees>
            </Position>
            <AltitudeMeters>606.79998779296875</AltitudeMeters>
            <DistanceMeters>2768.9207043236</DistanceMeters>
          </Trackpoint>
          <Trackpoint>
            <Time>2022-11-06T10:21:43.000Z</Time>
            <Position>
              <LatitudeDegrees>41.36384046636521816253662109375</LatitudeDegrees>
              <LongitudeDegrees>-1.63856911472976207733154296875</LongitudeDegrees>
            </Position>
            <AltitudeMeters>605.79998779296875</AltitudeMeters>
            <DistanceMeters>2774.3960905012</DistanceMeters>
          </Trackpoint>
          <Trackpoint>
            <Time>2022-11-06T10:21:46.000Z</Time>
            <Position>
              <LatitudeDegrees>41.3638993911445140838623046875</LatitudeDegrees>
              <LongitudeDegrees>-1.63855922408401966094970703125</LongitudeDegrees>
            </Position>
            <AltitudeMeters>604</AltitudeMeters>
            <DistanceMeters>2781.0057432784</DistanceMeters>
          </Trackpoint>
          <Trackpoint>
            <Time>2022-11-06T10:21:48.000Z</Time>
            <Position>
              <LatitudeDegrees>41.36393618769943714141845703125</LatitudeDegrees>
              <LongitudeDegrees>-1.6385549493134021759033203125</LongitudeDegrees>
            </Position>
            <AltitudeMeters>602.4000244140625</AltitudeMeters>
            <DistanceMeters>2785.1150306802</DistanceMeters>
          </Trackpoint>
          <Trackpoint>
            <Time>2022-11-06T10:21:50.000Z</Time>
            <Position>
              <LatitudeDegrees>41.3639845512807369232177734375</LatitudeDegrees>
              <LongitudeDegrees>-1.63854472339153289794921875</LongitudeDegrees>
            </Position>
            <AltitudeMeters>601.20001220703125</AltitudeMeters>
            <DistanceMeters>2790.5656225289</DistanceMeters>
          </Trackpoint>
          <Trackpoint>
            <Time>2022-11-06T10:21:52.000Z</Time>
            <Position>
              <LatitudeDegrees>41.364043392241001129150390625</LatitudeDegrees>
              <LongitudeDegrees>-1.63855955936014652252197265625</LongitudeDegrees>
            </Position>
            <AltitudeMeters>599.4000244140625</AltitudeMeters>
            <DistanceMeters>2797.2310539556</DistanceMeters>
          </Trackpoint>
          <Trackpoint>
            <Time>2022-11-06T10:21:53.000Z</Time>
            <Position>
              <LatitudeDegrees>41.3640707172453403472900390625</LatitudeDegrees>
              <LongitudeDegrees>-1.6385700367391109466552734375</LongitudeDegrees>
            </Position>
            <AltitudeMeters>598.4000244140625</AltitudeMeters>
            <DistanceMeters>2800.3970269265</DistanceMeters>
          </Trackpoint>
          <Trackpoint>
            <Time>2022-11-06T10:21:54.000Z</Time>
            <Position>
              <LatitudeDegrees>41.364096701145172119140625</LatitudeDegrees>
              <LongitudeDegrees>-1.6385762393474578857421875</LongitudeDegrees>
            </Position>
            <AltitudeMeters>597.5999755859375</AltitudeMeters>
            <DistanceMeters>2803.3351816332</DistanceMeters>
          </Trackpoint>
          <Trackpoint>
            <Time>2022-11-06T10:21:56.000Z</Time>
            <Position>
              <LatitudeDegrees>41.364154703915119171142578125</LatitudeDegrees>
              <LongitudeDegrees>-1.63858520798385143280029296875</LongitudeDegrees>
            </Position>
            <AltitudeMeters>596.4000244140625</AltitudeMeters>
            <DistanceMeters>2809.8332303751</DistanceMeters>
          </Trackpoint>
          <Trackpoint>
            <Time>2022-11-06T10:21:58.000Z</Time>
            <Position>
              <LatitudeDegrees>41.3642158918082714080810546875</LatitudeDegrees>
              <LongitudeDegrees>-1.638588644564151763916015625</LongitudeDegrees>
            </Position>
            <AltitudeMeters>595</AltitudeMeters>
            <DistanceMeters>2816.6500311922</DistanceMeters>
          </Trackpoint>
          <Trackpoint>
            <Time>2022-11-06T10:21:59.000Z</Time>
            <Position>
              <LatitudeDegrees>41.36424514465034008026123046875</LatitudeDegrees>
              <LongitudeDegrees>-1.6385894827544689178466796875</LongitudeDegrees>
            </Position>
            <AltitudeMeters>594.4000244140625</AltitudeMeters>
            <DistanceMeters>2819.9073828499</DistanceMeters>
          </Trackpoint>
          <Trackpoint>
            <Time>2022-11-06T10:22:00.000Z</Time>
            <Position>
              <LatitudeDegrees>41.3642738945782184600830078125</LatitudeDegrees>
              <LongitudeDegrees>-1.63859560154378414154052734375</LongitudeDegrees>
            </Position>
            <AltitudeMeters>594</AltitudeMeters>
            <DistanceMeters>2823.1480585363</DistanceMeters>
          </Trackpoint>
          <Trackpoint>
            <Time>2022-11-06T10:22:02.000Z</Time>
            <Position>
              <LatitudeDegrees>41.36433080770075321197509765625</LatitudeDegrees>
              <LongitudeDegrees>-1.63861286826431751251220703125</LongitudeDegrees>
            </Position>
            <AltitudeMeters>592.79998779296875</AltitudeMeters>
            <DistanceMeters>2829.6440224542</DistanceMeters>
          </Trackpoint>
          <Trackpoint>
            <Time>2022-11-06T10:22:04.000Z</Time>
            <Position>
              <LatitudeDegrees>41.36438897810876369476318359375</LatitudeDegrees>
              <LongitudeDegrees>-1.63862812332808971405029296875</LongitudeDegrees>
            </Position>
            <AltitudeMeters>591.5999755859375</AltitudeMeters>
            <DistanceMeters>2836.2427366178</DistanceMeters>
          </Trackpoint>
          <Trackpoint>
            <Time>2022-11-06T10:22:06.000Z</Time>
            <Position>
              <LatitudeDegrees>41.36444463394582271575927734375</LatitudeDegrees>
              <LongitudeDegrees>-1.6386293806135654449462890625</LongitudeDegrees>
            </Position>
            <AltitudeMeters>590.4000244140625</AltitudeMeters>
            <DistanceMeters>2842.4377204666</DistanceMeters>
          </Trackpoint>
          <Trackpoint>
            <Time>2022-11-06T10:22:09.000Z</Time>
            <Position>
              <LatitudeDegrees>41.3645250163972377777099609375</LatitudeDegrees>
              <LongitudeDegrees>-1.6386464796960353851318359375</LongitudeDegrees>
            </Position>
            <AltitudeMeters>589</AltitudeMeters>
            <DistanceMeters>2851.4977091462</DistanceMeters>
          </Trackpoint>
          <Trackpoint>
            <Time>2022-11-06T10:22:11.000Z</Time>
            <Position>
              <LatitudeDegrees>41.36454706080257892608642578125</LatitudeDegrees>
              <LongitudeDegrees>-1.63871730677783489227294921875</LongitudeDegrees>
            </Position>
            <AltitudeMeters>588.20001220703125</AltitudeMeters>
            <DistanceMeters>2857.9019739134</DistanceMeters>
          </Trackpoint>
          <Trackpoint>
            <Time>2022-11-06T10:22:12.000Z</Time>
            <Position>
              <LatitudeDegrees>41.36454957537353038787841796875</LatitudeDegrees>
              <LongitudeDegrees>-1.638754270970821380615234375</LongitudeDegrees>
            </Position>
            <AltitudeMeters>587.79998779296875</AltitudeMeters>
            <DistanceMeters>2861.0016515316</DistanceMeters>
          </Trackpoint>
          <Trackpoint>
            <Time>2022-11-06T10:22:17.000Z</Time>
            <Position>
              <LatitudeDegrees>41.36461981572210788726806640625</LatitudeDegrees>
              <LongitudeDegrees>-1.638962812721729278564453125</LongitudeDegrees>
            </Position>
            <AltitudeMeters>587</AltitudeMeters>
            <DistanceMeters>2880.095637662</DistanceMeters>
          </Trackpoint>
          <Trackpoint>
            <Time>2022-11-06T10:22:19.000Z</Time>
            <Position>
              <LatitudeDegrees>41.36467128060758113861083984375</LatitudeDegrees>
              <LongitudeDegrees>-1.6390253417193889617919921875</LongitudeDegrees>
            </Position>
            <AltitudeMeters>586.79998779296875</AltitudeMeters>
            <DistanceMeters>2887.8471619416</DistanceMeters>
          </Trackpoint>
          <Trackpoint>
            <Time>2022-11-06T10:22:24.000Z</Time>
            <Position>
              <LatitudeDegrees>41.364788375794887542724609375</LatitudeDegrees>
              <LongitudeDegrees>-1.6391822509467601776123046875</LongitudeDegrees>
            </Position>
            <AltitudeMeters>586.4000244140625</AltitudeMeters>
            <DistanceMeters>2906.3307739312</DistanceMeters>
          </Trackpoint>
          <Trackpoint>
            <Time>2022-11-06T10:22:28.000Z</Time>
            <Position>
              <LatitudeDegrees>41.3647627271711826324462890625</LatitudeDegrees>
              <LongitudeDegrees>-1.63934402167797088623046875</LongitudeDegrees>
            </Position>
            <AltitudeMeters>586.5999755859375</AltitudeMeters>
            <DistanceMeters>2920.1423764768</DistanceMeters>
          </Trackpoint>
          <Trackpoint>
            <Time>2022-11-06T10:22:34.000Z</Time>
            <Position>
              <LatitudeDegrees>41.3646547682583332061767578125</LatitudeDegrees>
              <LongitudeDegrees>-1.63955935277044773101806640625</LongitudeDegrees>
            </Position>
            <AltitudeMeters>587.79998779296875</AltitudeMeters>
            <DistanceMeters>2941.7742640812</DistanceMeters>
          </Trackpoint>
          <Trackpoint>
            <Time>2022-11-06T10:22:36.000Z</Time>
            <Position>
              <LatitudeDegrees>41.364629454910755157470703125</LatitudeDegrees>
              <LongitudeDegrees>-1.6396415792405605316162109375</LongitudeDegrees>
            </Position>
            <AltitudeMeters>588.20001220703125</AltitudeMeters>
            <DistanceMeters>2949.1985207183</DistanceMeters>
          </Trackpoint>
          <Trackpoint>
            <Time>2022-11-06T10:22:40.000Z</Time>
            <Position>
              <LatitudeDegrees>41.36468318291008472442626953125</LatitudeDegrees>
              <LongitudeDegrees>-1.6397951357066631317138671875</LongitudeDegrees>
            </Position>
            <AltitudeMeters>588.20001220703125</AltitudeMeters>
            <DistanceMeters>2963.3514411123</DistanceMeters>
          </Trackpoint>
          <Trackpoint>
            <Time>2022-11-06T10:22:45.000Z</Time>
            <Position>
              <LatitudeDegrees>41.36475107632577419281005859375</LatitudeDegrees>
              <LongitudeDegrees>-1.6399735026061534881591796875</LongitudeDegrees>
            </Position>
            <AltitudeMeters>588</AltitudeMeters>
            <DistanceMeters>2980.0583158315</DistanceMeters>
          </Trackpoint>
          <Trackpoint>
            <Time>2022-11-06T10:22:48.000Z</Time>
            <Position>
              <LatitudeDegrees>41.364724673330783843994140625</LatitudeDegrees>
              <LongitudeDegrees>-1.6400878317654132843017578125</LongitudeDegrees>
            </Position>
            <AltitudeMeters>588</AltitudeMeters>
            <DistanceMeters>2990.0510424523</DistanceMeters>
          </Trackpoint>
          <Trackpoint>
            <Time>2022-11-06T10:22:50.000Z</Time>
            <Position>
              <LatitudeDegrees>41.36470631696283817291259765625</LatitudeDegrees>
              <LongitudeDegrees>-1.64016871713101863861083984375</LongitudeDegrees>
            </Position>
            <AltitudeMeters>588</AltitudeMeters>
            <DistanceMeters>2997.1099348454</DistanceMeters>
          </Trackpoint>
          <Trackpoint>
            <Time>2022-11-06T10:22:51.000Z</Time>
            <Position>
              <LatitudeDegrees>41.36470514349639415740966796875</LatitudeDegrees>
              <LongitudeDegrees>-1.6402092017233371734619140625</LongitudeDegrees>
            </Position>
            <AltitudeMeters>588</AltitudeMeters>
            <DistanceMeters>3000.4937399419</DistanceMeters>
          </Trackpoint>
          <Trackpoint>
            <Time>2022-11-06T10:22:54.000Z</Time>
            <Position>
              <LatitudeDegrees>41.36474914848804473876953125</LatitudeDegrees>
              <LongitudeDegrees>-1.64031523279845714569091796875</LongitudeDegrees>
            </Position>
            <AltitudeMeters>588.20001220703125</AltitudeMeters>
            <DistanceMeters>3010.6144196178</DistanceMeters>
          </Trackpoint>
          <Trackpoint>
            <Time>2022-11-06T10:22:58.000Z</Time>
            <Position>
              <LatitudeDegrees>41.36486104689538478851318359375</LatitudeDegrees>
              <LongitudeDegrees>-1.640401817858219146728515625</LongitudeDegrees>
            </Position>
            <AltitudeMeters>588.4000244140625</AltitudeMeters>
            <DistanceMeters>3025.0171594985</DistanceMeters>
          </Trackpoint>
          <Trackpoint>
            <Time>2022-11-06T10:23:00.000Z</Time>
            <Position>
              <LatitudeDegrees>41.36491418816149234771728515625</LatitudeDegrees>
              <LongitudeDegrees>-1.64043844677507877349853515625</LongitudeDegrees>
            </Position>
            <AltitudeMeters>588.4000244140625</AltitudeMeters>
            <DistanceMeters>3031.6771696706</DistanceMeters>
          </Trackpoint>
          <Trackpoint>
            <Time>2022-11-06T10:23:02.000Z</Time>
            <Position>
              <LatitudeDegrees>41.36494453065097332000732421875</LatitudeDegrees>
              <LongitudeDegrees>-1.6405119560658931732177734375</LongitudeDegrees>
            </Position>
            <AltitudeMeters>588.5999755859375</AltitudeMeters>
            <DistanceMeters>3038.6859938128</DistanceMeters>
          </Trackpoint>
          <Trackpoint>
            <Time>2022-11-06T10:23:03.000Z</Time>
            <Position>
              <LatitudeDegrees>41.364944279193878173828125</LatitudeDegrees>
              <LongitudeDegrees>-1.640551351010799407958984375</LongitudeDegrees>
            </Position>
            <AltitudeMeters>588.5999755859375</AltitudeMeters>
            <DistanceMeters>3041.9778157601</DistanceMeters>
          </Trackpoint>
          <Trackpoint>
            <Time>2022-11-06T10:23:06.000Z</Time>
            <Position>
              <LatitudeDegrees>41.3649156130850315093994140625</LatitudeDegrees>
              <LongitudeDegrees>-1.6406658478081226348876953125</LongitudeDegrees>
            </Position>
            <AltitudeMeters>588.79998779296875</AltitudeMeters>
            <DistanceMeters>3052.0600561128</DistanceMeters>
          </Trackpoint>
          <Trackpoint>
            <Time>2022-11-06T10:23:08.000Z</Time>
            <Position>
              <LatitudeDegrees>41.3648998551070690155029296875</LatitudeDegrees>
              <LongitudeDegrees>-1.64074145257472991943359375</LongitudeDegrees>
            </Position>
            <AltitudeMeters>589</AltitudeMeters>
            <DistanceMeters>3058.614144428</DistanceMeters>
          </Trackpoint>
          <Trackpoint>
            <Time>2022-11-06T10:23:10.000Z</Time>
            <Position>
              <LatitudeDegrees>41.3649233244359493255615234375</LatitudeDegrees>
              <LongitudeDegrees>-1.64080917835235595703125</LongitudeDegrees>
            </Position>
            <AltitudeMeters>589.20001220703125</AltitudeMeters>
            <DistanceMeters>3064.8447381904</DistanceMeters>
          </Trackpoint>
          <Trackpoint>
            <Time>2022-11-06T10:23:11.000Z</Time>
            <Position>
              <LatitudeDegrees>41.364942602813243865966796875</LatitudeDegrees>
              <LongitudeDegrees>-1.6408281214535236358642578125</LongitudeDegrees>
            </Position>
            <AltitudeMeters>589.5999755859375</AltitudeMeters>
            <DistanceMeters>3067.510572049</DistanceMeters>
          </Trackpoint>
          <Trackpoint>
            <Time>2022-11-06T10:23:14.000Z</Time>
            <Position>
              <LatitudeDegrees>41.36502365581691265106201171875</LatitudeDegrees>
              <LongitudeDegrees>-1.6408683545887470245361328125</LongitudeDegrees>
            </Position>
            <AltitudeMeters>590</AltitudeMeters>
            <DistanceMeters>3077.1378616271</DistanceMeters>
          </Trackpoint>
          <Trackpoint>
            <Time>2022-11-06T10:23:15.000Z</Time>
            <Position>
              <LatitudeDegrees>41.36505316011607646942138671875</LatitudeDegrees>
              <LongitudeDegrees>-1.6408814303576946258544921875</LongitudeDegrees>
            </Position>
            <AltitudeMeters>590.20001220703125</AltitudeMeters>
            <DistanceMeters>3080.5981912884</DistanceMeters>
          </Trackpoint>
          <Trackpoint>
            <Time>2022-11-06T10:23:21.000Z</Time>
            <Position>
              <LatitudeDegrees>41.365217864513397216796875</LatitudeDegrees>
              <LongitudeDegrees>-1.64098025299608707427978515625</LongitudeDegrees>
            </Position>
            <AltitudeMeters>591</AltitudeMeters>
            <DistanceMeters>3100.7030235877</DistanceMeters>
          </Trackpoint>
          <Trackpoint>
            <Time>2022-11-06T10:23:22.000Z</Time>
            <Position>
              <LatitudeDegrees>41.3652431778609752655029296875</LatitudeDegrees>
              <LongitudeDegrees>-1.64100288413465023040771484375</LongitudeDegrees>
            </Position>
            <AltitudeMeters>591.20001220703125</AltitudeMeters>
            <DistanceMeters>3104.0948250839</DistanceMeters>
          </Trackpoint>
          <Trackpoint>
            <Time>2022-11-06T10:23:27.000Z</Time>
            <Position>
              <LatitudeDegrees>41.36533110402524471282958984375</LatitudeDegrees>
              <LongitudeDegrees>-1.64116121828556060791015625</LongitudeDegrees>
            </Position>
            <AltitudeMeters>591.79998779296875</AltitudeMeters>
            <DistanceMeters>3120.5478987067</DistanceMeters>
          </Trackpoint>
          <Trackpoint>
            <Time>2022-11-06T10:23:28.000Z</Time>
            <Position>
              <LatitudeDegrees>41.365344934165477752685546875</LatitudeDegrees>
              <LongitudeDegrees>-1.641197092831134796142578125</LongitudeDegrees>
            </Position>
            <AltitudeMeters>592</AltitudeMeters>
            <DistanceMeters>3123.9169944444</DistanceMeters>
          </Trackpoint>
          <Trackpoint>
            <Time>2022-11-06T10:23:29.000Z</Time>
            <Position>
              <LatitudeDegrees>41.36535809375345706939697265625</LatitudeDegrees>
              <LongitudeDegrees>-1.64123187772929668426513671875</LongitudeDegrees>
            </Position>
            <AltitudeMeters>592.20001220703125</AltitudeMeters>
            <DistanceMeters>3127.1701851232</DistanceMeters>
          </Trackpoint>
          <Trackpoint>
            <Time>2022-11-06T10:23:34.000Z</Time>
            <Position>
              <LatitudeDegrees>41.3654275797307491302490234375</LatitudeDegrees>
              <LongitudeDegrees>-1.6413806565105915069580078125</LongitudeDegrees>
            </Position>
            <AltitudeMeters>593.4000244140625</AltitudeMeters>
            <DistanceMeters>3141.8080010075</DistanceMeters>
          </Trackpoint>
          <Trackpoint>
            <Time>2022-11-06T10:23:36.000Z</Time>
            <Position>
              <LatitudeDegrees>41.3654681481420993804931640625</LatitudeDegrees>
              <LongitudeDegrees>-1.6414252482354640960693359375</LongitudeDegrees>
            </Position>
            <AltitudeMeters>594</AltitudeMeters>
            <DistanceMeters>3147.6612146571</DistanceMeters>
          </Trackpoint>
          <Trackpoint>
            <Time>2022-11-06T10:23:40.000Z</Time>
            <Position>
              <LatitudeDegrees>41.36553235352039337158203125</LatitudeDegrees>
              <LongitudeDegrees>-1.64156363345682621002197265625</LongitudeDegrees>
            </Position>
            <AltitudeMeters>594.4000244140625</AltitudeMeters>
            <DistanceMeters>3161.251363792</DistanceMeters>
          </Trackpoint>
          <Trackpoint>
            <Time>2022-11-06T10:23:43.000Z</Time>
            <Position>
              <LatitudeDegrees>41.36557216756045818328857421875</LatitudeDegrees>
              <LongitudeDegrees>-1.641678549349308013916015625</LongitudeDegrees>
            </Position>
            <AltitudeMeters>594.5999755859375</AltitudeMeters>
            <DistanceMeters>3171.8245537731</DistanceMeters>
          </Trackpoint>
          <Trackpoint>
            <Time>2022-11-06T10:23:49.000Z</Time>
            <Position>
              <LatitudeDegrees>41.365606784820556640625</LatitudeDegrees>
              <LongitudeDegrees>-1.64190829731523990631103515625</LongitudeDegrees>
            </Position>
            <AltitudeMeters>594.4000244140625</AltitudeMeters>
            <DistanceMeters>3191.3991343221</DistanceMeters>
          </Trackpoint>
          <Trackpoint>
            <Time>2022-11-06T10:23:55.000Z</Time>
            <Position>
              <LatitudeDegrees>41.36557619087398052215576171875</LatitudeDegrees>
              <LongitudeDegrees>-1.6421484388411045074462890625</LongitudeDegrees>
            </Position>
            <AltitudeMeters>594.79998779296875</AltitudeMeters>
            <DistanceMeters>3211.7459494205</DistanceMeters>
          </Trackpoint>
          <Trackpoint>
            <Time>2022-11-06T10:23:58.000Z</Time>
            <Position>
              <LatitudeDegrees>41.36556093581020832061767578125</LatitudeDegrees>
              <LongitudeDegrees>-1.6422723233699798583984375</LongitudeDegrees>
            </Position>
            <AltitudeMeters>594.79998779296875</AltitudeMeters>
            <DistanceMeters>3222.2325251693</DistanceMeters>
          </Trackpoint>
          <Trackpoint>
            <Time>2022-11-06T10:23:59.000Z</Time>
            <Position>
              <LatitudeDegrees>41.365560181438922882080078125</LatitudeDegrees>
              <LongitudeDegrees>-1.64231264032423496246337890625</LongitudeDegrees>
            </Position>
            <AltitudeMeters>595</AltitudeMeters>
            <DistanceMeters>3225.6002805069</DistanceMeters>
          </Trackpoint>
          <Trackpoint>
            <Time>2022-11-06T10:24:02.000Z</Time>
            <Position>
              <LatitudeDegrees>41.36557887308299541473388671875</LatitudeDegrees>
              <LongitudeDegrees>-1.642421185970306396484375</LongitudeDegrees>
            </Position>
            <AltitudeMeters>595.4000244140625</AltitudeMeters>
            <DistanceMeters>3234.9031968581</DistanceMeters>
          </Trackpoint>
          <Trackpoint>
            <Time>2022-11-06T10:24:03.000Z</Time>
            <Position>
              <LatitudeDegrees>41.36559404432773590087890625</LatitudeDegrees>
              <LongitudeDegrees>-1.6424491815268993377685546875</LongitudeDegrees>
            </Position>
            <AltitudeMeters>595.5999755859375</AltitudeMeters>
            <DistanceMeters>3237.788631051</DistanceMeters>
          </Trackpoint>
          <Trackpoint>
            <Time>2022-11-06T10:24:04.000Z</Time>
            <Position>
              <LatitudeDegrees>41.3656136579811573028564453125</LatitudeDegrees>
              <LongitudeDegrees>-1.64246435277163982391357421875</LongitudeDegrees>
            </Position>
            <AltitudeMeters>595.79998779296875</AltitudeMeters>
            <DistanceMeters>3240.313553618</DistanceMeters>
          </Trackpoint>
          <Trackpoint>
            <Time>2022-11-06T10:24:07.000Z</Time>
            <Position>
              <LatitudeDegrees>41.36566822417080402374267578125</LatitudeDegrees>
              <LongitudeDegrees>-1.642484553158283233642578125</LongitudeDegrees>
            </Position>
            <AltitudeMeters>597</AltitudeMeters>
            <DistanceMeters>3246.6169127505</DistanceMeters>
          </Trackpoint>
          <Trackpoint>
            <Time>2022-11-06T10:24:10.000Z</Time>
            <Position>
              <LatitudeDegrees>41.36571616865694522857666015625</LatitudeDegrees>
              <LongitudeDegrees>-1.64249503053724765777587890625</LongitudeDegrees>
            </Position>
            <AltitudeMeters>598.20001220703125</AltitudeMeters>
            <DistanceMeters>3252.025093369</DistanceMeters>
          </Trackpoint>
          <Trackpoint>
            <Time>2022-11-06T10:24:13.000Z</Time>
            <Position>
              <LatitudeDegrees>41.365766711533069610595703125</LatitudeDegrees>
              <LongitudeDegrees>-1.64252503775060176849365234375</LongitudeDegrees>
            </Position>
            <AltitudeMeters>599.4000244140625</AltitudeMeters>
            <DistanceMeters>3258.1842614249</DistanceMeters>
          </Trackpoint>
          <Trackpoint>
            <Time>2022-11-06T10:24:16.000Z</Time>
            <Position>
              <LatitudeDegrees>41.36582781560719013214111328125</LatitudeDegrees>
              <LongitudeDegrees>-1.64254565723240375518798828125</LongitudeDegrees>
            </Position>
            <AltitudeMeters>600.20001220703125</AltitudeMeters>
            <DistanceMeters>3265.1995245433</DistanceMeters>
          </Trackpoint>
          <Trackpoint>
            <Time>2022-11-06T10:24:17.000Z</Time>
            <Position>
              <LatitudeDegrees>41.36584793217480182647705078125</LatitudeDegrees>
              <LongitudeDegrees>-1.642548926174640655517578125</LongitudeDegrees>
            </Position>
            <AltitudeMeters>600.5999755859375</AltitudeMeters>
            <DistanceMeters>3267.4522790708</DistanceMeters>
          </Trackpoint>
          <Trackpoint>
            <Time>2022-11-06T10:24:21.000Z</Time>
            <Position>
              <LatitudeDegrees>41.36593141593039035797119140625</LatitudeDegrees>
              <LongitudeDegrees>-1.6425376944243907928466796875</LongitudeDegrees>
            </Position>
            <AltitudeMeters>601.5999755859375</AltitudeMeters>
            <DistanceMeters>3276.7910412102</DistanceMeters>
          </Trackpoint>
          <Trackpoint>
            <Time>2022-11-06T10:24:22.000Z</Time>
            <Position>
              <LatitudeDegrees>41.36595136485993862152099609375</LatitudeDegrees>
              <LongitudeDegrees>-1.64254398085176944732666015625</LongitudeDegrees>
            </Position>
            <AltitudeMeters>602</AltitudeMeters>
            <DistanceMeters>3279.0716823551</DistanceMeters>
          </Trackpoint>
          <Trackpoint>
            <Time>2022-11-06T10:24:25.000Z</Time>
            <Position>
              <LatitudeDegrees>41.366012804210186004638671875</LatitudeDegrees>
              <LongitudeDegrees>-1.6425517760217189788818359375</LongitudeDegrees>
            </Position>
            <AltitudeMeters>602.79998779296875</AltitudeMeters>
            <DistanceMeters>3285.9406087209</DistanceMeters>
          </Trackpoint>
          <Trackpoint>
            <Time>2022-11-06T10:24:29.000Z</Time>
            <Position>
              <LatitudeDegrees>41.36609000153839588165283203125</LatitudeDegrees>
              <LongitudeDegrees>-1.64256158284842967987060546875</LongitudeDegrees>
            </Position>
            <AltitudeMeters>604.20001220703125</AltitudeMeters>
            <DistanceMeters>3294.5718386833</DistanceMeters>
          </Trackpoint>
          <Trackpoint>
            <Time>2022-11-06T10:24:31.000Z</Time>
            <Position>
              <LatitudeDegrees>41.36613006703555583953857421875</LatitudeDegrees>
              <LongitudeDegrees>-1.642566360533237457275390625</LongitudeDegrees>
            </Position>
            <AltitudeMeters>604.5999755859375</AltitudeMeters>
            <DistanceMeters>3299.0492005969</DistanceMeters>
          </Trackpoint>
          <Trackpoint>
            <Time>2022-11-06T10:24:34.000Z</Time>
            <Position>
              <LatitudeDegrees>41.36618840508162975311279296875</LatitudeDegrees>
              <LongitudeDegrees>-1.64257180877029895782470703125</LongitudeDegrees>
            </Position>
            <AltitudeMeters>605.20001220703125</AltitudeMeters>
            <DistanceMeters>3305.5583571225</DistanceMeters>
          </Trackpoint>
          <Trackpoint>
            <Time>2022-11-06T10:24:37.000Z</Time>
            <Position>
              <LatitudeDegrees>41.36623986996710300445556640625</LatitudeDegrees>
              <LongitudeDegrees>-1.64256543852388858795166015625</LongitudeDegrees>
            </Position>
            <AltitudeMeters>606.5999755859375</AltitudeMeters>
            <DistanceMeters>3311.3119873021</DistanceMeters>
          </Trackpoint>
          <Trackpoint>
            <Time>2022-11-06T10:24:39.000Z</Time>
            <Position>
              <LatitudeDegrees>41.366270966827869415283203125</LatitudeDegrees>
              <LongitudeDegrees>-1.64257952012121677398681640625</LongitudeDegrees>
            </Position>
            <AltitudeMeters>607.4000244140625</AltitudeMeters>
            <DistanceMeters>3314.9677379962</DistanceMeters>
          </Trackpoint>
          <Trackpoint>
            <Time>2022-11-06T10:24:40.000Z</Time>
            <Position>
              <LatitudeDegrees>41.36628814972937107086181640625</LatitudeDegrees>
              <LongitudeDegrees>-1.64258681237697601318359375</LongitudeDegrees>
            </Position>
            <AltitudeMeters>607.79998779296875</AltitudeMeters>
            <DistanceMeters>3316.974579817</DistanceMeters>
          </Trackpoint>
          <Trackpoint>
            <Time>2022-11-06T10:24:43.000Z</Time>
            <Position>
              <LatitudeDegrees>41.366334669291973114013671875</LatitudeDegrees>
              <LongitudeDegrees>-1.6426198370754718780517578125</LongitudeDegrees>
            </Position>
            <AltitudeMeters>608.5999755859375</AltitudeMeters>
            <DistanceMeters>3322.8416618349</DistanceMeters>
          </Trackpoint>
          <Trackpoint>
            <Time>2022-11-06T10:24:44.000Z</Time>
            <Position>
              <LatitudeDegrees>41.366342715919017791748046875</LatitudeDegrees>
              <LongitudeDegrees>-1.64264691062271595001220703125</LongitudeDegrees>
            </Position>
            <AltitudeMeters>609</AltitudeMeters>
            <DistanceMeters>3325.2755332668</DistanceMeters>
          </Trackpoint>
          <Trackpoint>
            <Time>2022-11-06T10:24:45.000Z</Time>
            <Position>
              <LatitudeDegrees>41.3663499243557453155517578125</LatitudeDegrees>
              <LongitudeDegrees>-1.642674319446086883544921875</LongitudeDegrees>
            </Position>
            <AltitudeMeters>609.20001220703125</AltitudeMeters>
            <DistanceMeters>3327.7038330667</DistanceMeters>
          </Trackpoint>
          <Trackpoint>
            <Time>2022-11-06T10:24:51.000Z</Time>
            <Position>
              <LatitudeDegrees>41.3663779199123382568359375</LatitudeDegrees>
              <LongitudeDegrees>-1.64288721978664398193359375</LongitudeDegrees>
            </Position>
            <AltitudeMeters>610</AltitudeMeters>
            <DistanceMeters>3345.758658725</DistanceMeters>
          </Trackpoint>
          <Trackpoint>
            <Time>2022-11-06T10:24:52.000Z</Time>
            <Position>
              <LatitudeDegrees>41.36638437397778034210205078125</LatitudeDegrees>
              <LongitudeDegrees>-1.6429246030747890472412109375</LongitudeDegrees>
            </Position>
            <AltitudeMeters>610</AltitudeMeters>
            <DistanceMeters>3348.9629054253</DistanceMeters>
          </Trackpoint>
          <Trackpoint>
            <Time>2022-11-06T10:24:59.000Z</Time>
            <Position>
              <LatitudeDegrees>41.3664035685360431671142578125</LatitudeDegrees>
              <LongitudeDegrees>-1.64318117313086986541748046875</LongitudeDegrees>
            </Position>
            <AltitudeMeters>610.4000244140625</AltitudeMeters>
            <DistanceMeters>3370.501082857</DistanceMeters>
          </Trackpoint>
          <Trackpoint>
            <Time>2022-11-06T10:25:00.000Z</Time>
            <Position>
              <LatitudeDegrees>41.36640700511634349822998046875</LatitudeDegrees>
              <LongitudeDegrees>-1.643214784562587738037109375</LongitudeDegrees>
            </Position>
            <AltitudeMeters>610.5999755859375</AltitudeMeters>
            <DistanceMeters>3373.3328151682</DistanceMeters>
          </Trackpoint>
          <Trackpoint>
            <Time>2022-11-06T10:25:05.000Z</Time>
            <Position>
              <LatitudeDegrees>41.36640750803053379058837890625</LatitudeDegrees>
              <LongitudeDegrees>-1.64337881840765476226806640625</LongitudeDegrees>
            </Position>
            <AltitudeMeters>611</AltitudeMeters>
            <DistanceMeters>3387.0351269959</DistanceMeters>
          </Trackpoint>
          <Trackpoint>
            <Time>2022-11-06T10:25:11.000Z</Time>
            <Position>
              <LatitudeDegrees>41.3663599826395511627197265625</LatitudeDegrees>
              <LongitudeDegrees>-1.64361275732517242431640625</LongitudeDegrees>
            </Position>
            <AltitudeMeters>611.4000244140625</AltitudeMeters>
            <DistanceMeters>3407.2796089474</DistanceMeters>
          </Trackpoint>
          <Trackpoint>
            <Time>2022-11-06T10:25:13.000Z</Time>
            <Position>
              <LatitudeDegrees>41.3663334958255290985107421875</LatitudeDegrees>
              <LongitudeDegrees>-1.643686853349208831787109375</LongitudeDegrees>
            </Position>
            <AltitudeMeters>611.5999755859375</AltitudeMeters>
            <DistanceMeters>3414.1347178316</DistanceMeters>
          </Trackpoint>
          <Trackpoint>
            <Time>2022-11-06T10:25:19.000Z</Time>
            <Position>
              <LatitudeDegrees>41.36624456383287906646728515625</LatitudeDegrees>
              <LongitudeDegrees>-1.64389698766171932220458984375</LongitudeDegrees>
            </Position>
            <AltitudeMeters>611.5999755859375</AltitudeMeters>
            <DistanceMeters>3434.2862075454</DistanceMeters>
          </Trackpoint>
          <Trackpoint>
            <Time>2022-11-06T10:25:21.000Z</Time>
            <Position>
              <LatitudeDegrees>41.36621187441051006317138671875</LatitudeDegrees>
              <LongitudeDegrees>-1.64396605454385280609130859375</LongitudeDegrees>
            </Position>
            <AltitudeMeters>611.79998779296875</AltitudeMeters>
            <DistanceMeters>3441.1069812434</DistanceMeters>
          </Trackpoint>
          <Trackpoint>
            <Time>2022-11-06T10:25:25.000Z</Time>
            <Position>
              <LatitudeDegrees>41.36615806259214878082275390625</LatitudeDegrees>
              <LongitudeDegrees>-1.6441123187541961669921875</LongitudeDegrees>
            </Position>
            <AltitudeMeters>612</AltitudeMeters>
            <DistanceMeters>3454.7140634952</DistanceMeters>
          </Trackpoint>
          <Trackpoint>
            <Time>2022-11-06T10:25:31.000Z</Time>
            <Position>
              <LatitudeDegrees>41.36610768735408782958984375</LatitudeDegrees>
              <LongitudeDegrees>-1.644337289035320281982421875</LongitudeDegrees>
            </Position>
            <AltitudeMeters>612.20001220703125</AltitudeMeters>
            <DistanceMeters>3474.3250541828</DistanceMeters>
          </Trackpoint>
          <Trackpoint>
            <Time>2022-11-06T10:25:33.000Z</Time>
            <Position>
              <LatitudeDegrees>41.3661018200218677520751953125</LatitudeDegrees>
              <LongitudeDegrees>-1.64441607892513275146484375</LongitudeDegrees>
            </Position>
            <AltitudeMeters>612.20001220703125</AltitudeMeters>
            <DistanceMeters>3480.9388042759</DistanceMeters>
          </Trackpoint>
          <Trackpoint>
            <Time>2022-11-06T10:25:39.000Z</Time>
            <Position>
              <LatitudeDegrees>41.3660723157227039337158203125</LatitudeDegrees>
              <LongitudeDegrees>-1.64465907029807567596435546875</LongitudeDegrees>
            </Position>
            <AltitudeMeters>612.5999755859375</AltitudeMeters>
            <DistanceMeters>3501.5003983053</DistanceMeters>
          </Trackpoint>
          <Trackpoint>
            <Time>2022-11-06T10:25:41.000Z</Time>
            <Position>
              <LatitudeDegrees>41.36605714447796344757080078125</LatitudeDegrees>
              <LongitudeDegrees>-1.644722521305084228515625</LongitudeDegrees>
            </Position>
            <AltitudeMeters>612.79998779296875</AltitudeMeters>
            <DistanceMeters>3507.0625059901</DistanceMeters>
          </Trackpoint>
          <Trackpoint>
            <Time>2022-11-06T10:25:44.000Z</Time>
            <Position>
              <LatitudeDegrees>41.36603853665292263031005859375</LatitudeDegrees>
              <LongitudeDegrees>-1.64482251740992069244384765625</LongitudeDegrees>
            </Position>
            <AltitudeMeters>613</AltitudeMeters>
            <DistanceMeters>3515.6685902909</DistanceMeters>
          </Trackpoint>
          <Trackpoint>
            <Time>2022-11-06T10:25:46.000Z</Time>
            <Position>
              <LatitudeDegrees>41.3660418055951595306396484375</LatitudeDegrees>
              <LongitudeDegrees>-1.64489594288170337677001953125</LongitudeDegrees>
            </Position>
            <AltitudeMeters>613.4000244140625</AltitudeMeters>
            <DistanceMeters>3521.8123448055</DistanceMeters>
          </Trackpoint>
          <Trackpoint>
            <Time>2022-11-06T10:25:53.000Z</Time>
            <Position>
              <LatitudeDegrees>41.36609419248998165130615234375</LatitudeDegrees>
              <LongitudeDegrees>-1.64516173303127288818359375</LongitudeDegrees>
            </Position>
            <AltitudeMeters>613.79998779296875</AltitudeMeters>
            <DistanceMeters>3544.7671486744</DistanceMeters>
          </Trackpoint>
          <Trackpoint>
            <Time>2022-11-06T10:25:54.000Z</Time>
            <Position>
              <LatitudeDegrees>41.36610760353505611419677734375</LatitudeDegrees>
              <LongitudeDegrees>-1.64519660174846649169921875</LongitudeDegrees>
            </Position>
            <AltitudeMeters>613.79998779296875</AltitudeMeters>
            <DistanceMeters>3548.0424701571</DistanceMeters>
          </Trackpoint>
          <Trackpoint>
            <Time>2022-11-06T10:26:00.000Z</Time>
            <Position>
              <LatitudeDegrees>41.36618681252002716064453125</LatitudeDegrees>
              <LongitudeDegrees>-1.64541243575513362884521484375</LongitudeDegrees>
            </Position>
            <AltitudeMeters>614</AltitudeMeters>
            <DistanceMeters>3568.1117882748</DistanceMeters>
          </Trackpoint>
          <Trackpoint>
            <Time>2022-11-06T10:26:02.000Z</Time>
            <Position>
              <LatitudeDegrees>41.3662196695804595947265625</LatitudeDegrees>
              <LongitudeDegrees>-1.64547747932374477386474609375</LongitudeDegrees>
            </Position>
            <AltitudeMeters>614.20001220703125</AltitudeMeters>
            <DistanceMeters>3574.6610525929</DistanceMeters>
          </Trackpoint>
          <Trackpoint>
            <Time>2022-11-06T10:26:03.000Z</Time>
            <Position>
              <LatitudeDegrees>41.3662369363009929656982421875</LatitudeDegrees>
              <LongitudeDegrees>-1.64551536552608013153076171875</LongitudeDegrees>
            </Position>
            <AltitudeMeters>614.20001220703125</AltitudeMeters>
            <DistanceMeters>3578.3634377757</DistanceMeters>
          </Trackpoint>
          <Trackpoint>
            <Time>2022-11-06T10:26:08.000Z</Time>
            <Position>
              <LatitudeDegrees>41.3663189113140106201171875</LatitudeDegrees>
              <LongitudeDegrees>-1.64569473825395107269287109375</LongitudeDegrees>
            </Position>
            <AltitudeMeters>614.5999755859375</AltitudeMeters>
            <DistanceMeters>3595.9061002079</DistanceMeters>
          </Trackpoint>
          <Trackpoint>
            <Time>2022-11-06T10:26:14.000Z</Time>
            <Position>
              <LatitudeDegrees>41.36640046723186969757080078125</LatitudeDegrees>
              <LongitudeDegrees>-1.6459189541637897491455078125</LongitudeDegrees>
            </Position>
            <AltitudeMeters>615</AltitudeMeters>
            <DistanceMeters>3616.7189031671</DistanceMeters>
          </Trackpoint>
          <Trackpoint>
            <Time>2022-11-06T10:26:15.000Z</Time>
            <Position>
              <LatitudeDegrees>41.3664092682301998138427734375</LatitudeDegrees>
              <LongitudeDegrees>-1.64596103131771087646484375</LongitudeDegrees>
            </Position>
            <AltitudeMeters>615</AltitudeMeters>
            <DistanceMeters>3620.36723603</DistanceMeters>
          </Trackpoint>
          <Trackpoint>
            <Time>2022-11-06T10:26:18.000Z</Time>
            <Position>
              <LatitudeDegrees>41.3664330728352069854736328125</LatitudeDegrees>
              <LongitudeDegrees>-1.6460808925330638885498046875</LongitudeDegrees>
            </Position>
            <AltitudeMeters>615</AltitudeMeters>
            <DistanceMeters>3630.7238401067</DistanceMeters>
          </Trackpoint>
          <Trackpoint>
            <Time>2022-11-06T10:26:23.000Z</Time>
            <Position>
              <LatitudeDegrees>41.36646282859146595001220703125</LatitudeDegrees>
              <LongitudeDegrees>-1.6462849080562591552734375</LongitudeDegrees>
            </Position>
            <AltitudeMeters>615.20001220703125</AltitudeMeters>
            <DistanceMeters>3648.0846252695</DistanceMeters>
          </Trackpoint>
          <Trackpoint>
            <Time>2022-11-06T10:26:25.000Z</Time>
            <Position>
              <LatitudeDegrees>41.36647372506558895111083984375</LatitudeDegrees>
              <LongitudeDegrees>-1.64636512286961078643798828125</LongitudeDegrees>
            </Position>
            <AltitudeMeters>615.20001220703125</AltitudeMeters>
            <DistanceMeters>3654.8947994682</DistanceMeters>
          </Trackpoint>
          <Trackpoint>
            <Time>2022-11-06T10:26:31.000Z</Time>
            <Position>
              <LatitudeDegrees>41.3664974458515644073486328125</LatitudeDegrees>
              <LongitudeDegrees>-1.6466255486011505126953125</LongitudeDegrees>
            </Position>
            <AltitudeMeters>615.4000244140625</AltitudeMeters>
            <DistanceMeters>3676.8082977087</DistanceMeters>
          </Trackpoint>
          <Trackpoint>
            <Time>2022-11-06T10:26:32.000Z</Time>
            <Position>
              <LatitudeDegrees>41.36650892905890941619873046875</LatitudeDegrees>
              <LongitudeDegrees>-1.64666385389864444732666015625</LongitudeDegrees>
            </Position>
            <AltitudeMeters>615.5999755859375</AltitudeMeters>
            <DistanceMeters>3680.252934184</DistanceMeters>
          </Trackpoint>
          <Trackpoint>
            <Time>2022-11-06T10:26:37.000Z</Time>
            <Position>
              <LatitudeDegrees>41.3665980286896228790283203125</LatitudeDegrees>
              <LongitudeDegrees>-1.64681724272668361663818359375</LongitudeDegrees>
            </Position>
            <AltitudeMeters>616.20001220703125</AltitudeMeters>
            <DistanceMeters>3696.4549193163</DistanceMeters>
          </Trackpoint>
          <Trackpoint>
            <Time>2022-11-06T10:26:38.000Z</Time>
            <Position>
              <LatitudeDegrees>41.3666178099811077117919921875</LatitudeDegrees>
              <LongitudeDegrees>-1.646849848330020904541015625</LongitudeDegrees>
            </Position>
            <AltitudeMeters>616.4000244140625</AltitudeMeters>
            <DistanceMeters>3699.9567536657</DistanceMeters>
          </Trackpoint>
          <Trackpoint>
            <Time>2022-11-06T10:26:44.000Z</Time>
            <Position>
              <LatitudeDegrees>41.366769187152385711669921875</LatitudeDegrees>
              <LongitudeDegrees>-1.64702444337308406829833984375</LongitudeDegrees>
            </Position>
            <AltitudeMeters>617</AltitudeMeters>
            <DistanceMeters>3722.2404675315</DistanceMeters>
          </Trackpoint>
          <Trackpoint>
            <Time>2022-11-06T10:26:45.000Z</Time>
            <Position>
              <LatitudeDegrees>41.366794668138027191162109375</LatitudeDegrees>
              <LongitudeDegrees>-1.64705269038677215576171875</LongitudeDegrees>
            </Position>
            <AltitudeMeters>617.20001220703125</AltitudeMeters>
            <DistanceMeters>3725.9306376194</DistanceMeters>
          </Trackpoint>
          <Trackpoint>
            <Time>2022-11-06T10:26:51.000Z</Time>
            <Position>
              <LatitudeDegrees>41.36692844331264495849609375</LatitudeDegrees>
              <LongitudeDegrees>-1.647234745323657989501953125</LongitudeDegrees>
            </Position>
            <AltitudeMeters>617</AltitudeMeters>
            <DistanceMeters>3747.2136518463</DistanceMeters>
          </Trackpoint>
          <Trackpoint>
            <Time>2022-11-06T10:26:57.000Z</Time>
            <Position>
              <LatitudeDegrees>41.36702793650329113006591796875</LatitudeDegrees>
              <LongitudeDegrees>-1.6474582068622112274169921875</LongitudeDegrees>
            </Position>
            <AltitudeMeters>617.20001220703125</AltitudeMeters>
            <DistanceMeters>3768.9172208529</DistanceMeters>
          </Trackpoint>
          <Trackpoint>
            <Time>2022-11-06T10:26:59.000Z</Time>
            <Position>
              <LatitudeDegrees>41.36705324985086917877197265625</LatitudeDegrees>
              <LongitudeDegrees>-1.6475455462932586669921875</LongitudeDegrees>
            </Position>
            <AltitudeMeters>617.20001220703125</AltitudeMeters>
            <DistanceMeters>3776.7383293313</DistanceMeters>
          </Trackpoint>
          <Trackpoint>
            <Time>2022-11-06T10:27:00.000Z</Time>
            <Position>
              <LatitudeDegrees>41.367066912353038787841796875</LatitudeDegrees>
              <LongitudeDegrees>-1.64758586324751377105712890625</LongitudeDegrees>
            </Position>
            <AltitudeMeters>617.20001220703125</AltitudeMeters>
            <DistanceMeters>3780.4333903028</DistanceMeters>
          </Trackpoint>
          <Trackpoint>
            <Time>2022-11-06T10:27:04.000Z</Time>
            <Position>
              <LatitudeDegrees>41.367060877382755279541015625</LatitudeDegrees>
              <LongitudeDegrees>-1.64773891679942607879638671875</LongitudeDegrees>
            </Position>
            <AltitudeMeters>617.20001220703125</AltitudeMeters>
            <DistanceMeters>3793.2355732205</DistanceMeters>
          </Trackpoint>
          <Trackpoint>
            <Time>2022-11-06T10:27:07.000Z</Time>
            <Position>
              <LatitudeDegrees>41.3669787347316741943359375</LatitudeDegrees>
              <LongitudeDegrees>-1.64784302003681659698486328125</LongitudeDegrees>
            </Position>
            <AltitudeMeters>616.20001220703125</AltitudeMeters>
            <DistanceMeters>3805.853031273</DistanceMeters>
          </Trackpoint>
          <Trackpoint>
            <Time>2022-11-06T10:27:08.000Z</Time>
            <Position>
              <LatitudeDegrees>41.3669460453093051910400390625</LatitudeDegrees>
              <LongitudeDegrees>-1.647867746651172637939453125</LongitudeDegrees>
            </Position>
            <AltitudeMeters>616</AltitudeMeters>
            <DistanceMeters>3810.0374449984</DistanceMeters>
          </Trackpoint>
          <Trackpoint>
            <Time>2022-11-06T10:27:14.000Z</Time>
            <Position>
              <LatitudeDegrees>41.36676038615405559539794921875</LatitudeDegrees>
              <LongitudeDegrees>-1.6479809023439884185791015625</LongitudeDegrees>
            </Position>
            <AltitudeMeters>615.4000244140625</AltitudeMeters>
            <DistanceMeters>3832.7609533371</DistanceMeters>
          </Trackpoint>
          <Trackpoint>
            <Time>2022-11-06T10:27:17.000Z</Time>
            <Position>
              <LatitudeDegrees>41.366685368120670318603515625</LatitudeDegrees>
              <LongitudeDegrees>-1.64803169667720794677734375</LongitudeDegrees>
            </Position>
            <AltitudeMeters>615.79998779296875</AltitudeMeters>
            <DistanceMeters>3842.1272328894</DistanceMeters>
          </Trackpoint>
          <Trackpoint>
            <Time>2022-11-06T10:27:23.000Z</Time>
            <Position>
              <LatitudeDegrees>41.36651211418211460113525390625</LatitudeDegrees>
              <LongitudeDegrees>-1.64811191149055957794189453125</LongitudeDegrees>
            </Position>
            <AltitudeMeters>616.5999755859375</AltitudeMeters>
            <DistanceMeters>3862.5418376625</DistanceMeters>
          </Trackpoint>
          <Trackpoint>
            <Time>2022-11-06T10:27:25.000Z</Time>
            <Position>
              <LatitudeDegrees>41.36644941754639148712158203125</LatitudeDegrees>
              <LongitudeDegrees>-1.64813655428588390350341796875</LongitudeDegrees>
            </Position>
            <AltitudeMeters>616.5999755859375</AltitudeMeters>
            <DistanceMeters>3869.8174344157</DistanceMeters>
          </Trackpoint>
          <Trackpoint>
            <Time>2022-11-06T10:27:31.000Z</Time>
            <Position>
              <LatitudeDegrees>41.3662681169807910919189453125</LatitudeDegrees>
              <LongitudeDegrees>-1.648204028606414794921875</LongitudeDegrees>
            </Position>
            <AltitudeMeters>617</AltitudeMeters>
            <DistanceMeters>3890.7690471482</DistanceMeters>
          </Trackpoint>
          <Trackpoint>
            <Time>2022-11-06T10:27:32.000Z</Time>
            <Position>
              <LatitudeDegrees>41.36624104343354701995849609375</LatitudeDegrees>
              <LongitudeDegrees>-1.64821266196668148040771484375</LongitudeDegrees>
            </Position>
            <AltitudeMeters>617.20001220703125</AltitudeMeters>
            <DistanceMeters>3893.8658101652</DistanceMeters>
          </Trackpoint>
          <Trackpoint>
            <Time>2022-11-06T10:27:33.000Z</Time>
            <Position>
              <LatitudeDegrees>41.36621053330600261688232421875</LatitudeDegrees>
              <LongitudeDegrees>-1.6482206247746944427490234375</LongitudeDegrees>
            </Position>
            <AltitudeMeters>617.4000244140625</AltitudeMeters>
            <DistanceMeters>3897.3248347804</DistanceMeters>
          </Trackpoint>
          <Trackpoint>
            <Time>2022-11-06T10:27:39.000Z</Time>
            <Position>
              <LatitudeDegrees>41.36603116057813167572021484375</LatitudeDegrees>
              <LongitudeDegrees>-1.64828575216233730316162109375</LongitudeDegrees>
            </Position>
            <AltitudeMeters>617.79998779296875</AltitudeMeters>
            <DistanceMeters>3918.0173245953</DistanceMeters>
          </Trackpoint>
          <Trackpoint>
            <Time>2022-11-06T10:27:41.000Z</Time>
            <Position>
              <LatitudeDegrees>41.365970559418201446533203125</LatitudeDegrees>
              <LongitudeDegrees>-1.648299582302570343017578125</LongitudeDegrees>
            </Position>
            <AltitudeMeters>618</AltitudeMeters>
            <DistanceMeters>3924.8605677182</DistanceMeters>
          </Trackpoint>
          <Trackpoint>
            <Time>2022-11-06T10:27:43.000Z</Time>
            <Position>
              <LatitudeDegrees>41.36591322720050811767578125</LatitudeDegrees>
              <LongitudeDegrees>-1.64831601083278656005859375</LongitudeDegrees>
            </Position>
            <AltitudeMeters>618.4000244140625</AltitudeMeters>
            <DistanceMeters>3931.3870423091</DistanceMeters>
          </Trackpoint>
          <Trackpoint>
            <Time>2022-11-06T10:27:49.000Z</Time>
            <Position>
              <LatitudeDegrees>41.36572505347430706024169921875</LatitudeDegrees>
              <LongitudeDegrees>-1.6483676433563232421875</LongitudeDegrees>
            </Position>
            <AltitudeMeters>618.5999755859375</AltitudeMeters>
            <DistanceMeters>3952.770586938</DistanceMeters>
          </Trackpoint>
          <Trackpoint>
            <Time>2022-11-06T10:27:55.000Z</Time>
            <Position>
              <LatitudeDegrees>41.3655559904873371124267578125</LatitudeDegrees>
              <LongitudeDegrees>-1.6484476067125797271728515625</LongitudeDegrees>
            </Position>
            <AltitudeMeters>619.4000244140625</AltitudeMeters>
            <DistanceMeters>3972.7379587018</DistanceMeters>
          </Trackpoint>
          <Trackpoint>
            <Time>2022-11-06T10:27:57.000Z</Time>
            <Position>
              <LatitudeDegrees>41.365501172840595245361328125</LatitudeDegrees>
              <LongitudeDegrees>-1.64848322980105876922607421875</LongitudeDegrees>
            </Position>
            <AltitudeMeters>619.5999755859375</AltitudeMeters>
            <DistanceMeters>3979.5262191633</DistanceMeters>
          </Trackpoint>
          <Trackpoint>
            <Time>2022-11-06T10:27:59.000Z</Time>
            <Position>
              <LatitudeDegrees>41.36544727720320224761962890625</LatitudeDegrees>
              <LongitudeDegrees>-1.64851508103311061859130859375</LongitudeDegrees>
            </Position>
            <AltitudeMeters>619.79998779296875</AltitudeMeters>
            <DistanceMeters>3986.08788088</DistanceMeters>
          </Trackpoint>
          <Trackpoint>
            <Time>2022-11-06T10:28:04.000Z</Time>
            <Position>
              <LatitudeDegrees>41.365319788455963134765625</LatitudeDegrees>
              <LongitudeDegrees>-1.6485880874097347259521484375</LongitudeDegrees>
            </Position>
            <AltitudeMeters>620</AltitudeMeters>
            <DistanceMeters>4001.5325725035</DistanceMeters>
          </Trackpoint>
          <Trackpoint>
            <Time>2022-11-06T10:28:05.000Z</Time>
            <Position>
              <LatitudeDegrees>41.36529305018484592437744140625</LatitudeDegrees>
              <LongitudeDegrees>-1.6486041806638240814208984375</LongitudeDegrees>
            </Position>
            <AltitudeMeters>620.4000244140625</AltitudeMeters>
            <DistanceMeters>4004.7996125027</DistanceMeters>
          </Trackpoint>
          <Trackpoint>
            <Time>2022-11-06T10:28:10.000Z</Time>
            <Position>
              <LatitudeDegrees>41.3651561737060546875</LatitudeDegrees>
              <LongitudeDegrees>-1.64865799248218536376953125</LongitudeDegrees>
            </Position>
            <AltitudeMeters>621.20001220703125</AltitudeMeters>
            <DistanceMeters>4020.6835772422</DistanceMeters>
          </Trackpoint>
          <Trackpoint>
            <Time>2022-11-06T10:28:12.000Z</Time>
            <Position>
              <LatitudeDegrees>41.365093477070331573486328125</LatitudeDegrees>
              <LongitudeDegrees>-1.648664362728595733642578125</LongitudeDegrees>
            </Position>
            <AltitudeMeters>621.5999755859375</AltitudeMeters>
            <DistanceMeters>4027.6820867001</DistanceMeters>
          </Trackpoint>
          <Trackpoint>
            <Time>2022-11-06T10:28:17.000Z</Time>
            <Position>
              <LatitudeDegrees>41.36495073325932025909423828125</LatitudeDegrees>
              <LongitudeDegrees>-1.64867651648819446563720703125</LongitudeDegrees>
            </Position>
            <AltitudeMeters>622.4000244140625</AltitudeMeters>
            <DistanceMeters>4043.6021104297</DistanceMeters>
          </Trackpoint>
          <Trackpoint>
            <Time>2022-11-06T10:28:20.000Z</Time>
            <Position>
              <LatitudeDegrees>41.3648626394569873809814453125</LatitudeDegrees>
              <LongitudeDegrees>-1.6486574895679950714111328125</LongitudeDegrees>
            </Position>
            <AltitudeMeters>622.79998779296875</AltitudeMeters>
            <DistanceMeters>4053.5354706519</DistanceMeters>
          </Trackpoint>
          <Trackpoint>
            <Time>2022-11-06T10:28:23.000Z</Time>
            <Position>
              <LatitudeDegrees>41.36476985178887844085693359375</LatitudeDegrees>
              <LongitudeDegrees>-1.64864432998001575469970703125</LongitudeDegrees>
            </Position>
            <AltitudeMeters>623.20001220703125</AltitudeMeters>
            <DistanceMeters>4063.9216775244</DistanceMeters>
          </Trackpoint>
          <Trackpoint>
            <Time>2022-11-06T10:28:24.000Z</Time>
            <Position>
              <LatitudeDegrees>41.36474017985165119171142578125</LatitudeDegrees>
              <LongitudeDegrees>-1.64863728918135166168212890625</LongitudeDegrees>
            </Position>
            <AltitudeMeters>623.20001220703125</AltitudeMeters>
            <DistanceMeters>4067.2746530944</DistanceMeters>
          </Trackpoint>
          <Trackpoint>
            <Time>2022-11-06T10:28:30.000Z</Time>
            <Position>
              <LatitudeDegrees>41.36454706080257892608642578125</LatitudeDegrees>
              <LongitudeDegrees>-1.64860703051090240478515625</LongitudeDegrees>
            </Position>
            <AltitudeMeters>623.20001220703125</AltitudeMeters>
            <DistanceMeters>4088.9169742533</DistanceMeters>
          </Trackpoint>
          <Trackpoint>
            <Time>2022-11-06T10:28:33.000Z</Time>
            <Position>
              <LatitudeDegrees>41.36445133946835994720458984375</LatitudeDegrees>
              <LongitudeDegrees>-1.64860342629253864288330078125</LongitudeDegrees>
            </Position>
            <AltitudeMeters>623.20001220703125</AltitudeMeters>
            <DistanceMeters>4099.5752274716</DistanceMeters>
          </Trackpoint>
          <Trackpoint>
            <Time>2022-11-06T10:28:38.000Z</Time>
            <Position>
              <LatitudeDegrees>41.3642953522503376007080078125</LatitudeDegrees>
              <LongitudeDegrees>-1.64858951233327388763427734375</LongitudeDegrees>
            </Position>
            <AltitudeMeters>623.20001220703125</AltitudeMeters>
            <DistanceMeters>4116.9757580143</DistanceMeters>
          </Trackpoint>
          <Trackpoint>
            <Time>2022-11-06T10:28:40.000Z</Time>
            <Position>
              <LatitudeDegrees>41.364239193499088287353515625</LatitudeDegrees>
              <LongitudeDegrees>-1.6485833935439586639404296875</LongitudeDegrees>
            </Position>
            <AltitudeMeters>623.20001220703125</AltitudeMeters>
            <DistanceMeters>4123.2475211627</DistanceMeters>
          </Trackpoint>
          <Trackpoint>
            <Time>2022-11-06T10:28:46.000Z</Time>
            <Position>
              <LatitudeDegrees>41.3640609942376613616943359375</LatitudeDegrees>
              <LongitudeDegrees>-1.64850820787250995635986328125</LongitudeDegrees>
            </Position>
            <AltitudeMeters>623.5999755859375</AltitudeMeters>
            <DistanceMeters>4144.0520789353</DistanceMeters>
          </Trackpoint>
          <Trackpoint>
            <Time>2022-11-06T10:28:47.000Z</Time>
            <Position>
              <LatitudeDegrees>41.3640335015952587127685546875</LatitudeDegrees>
              <LongitudeDegrees>-1.6484928689897060394287109375</LongitudeDegrees>
            </Position>
            <AltitudeMeters>623.79998779296875</AltitudeMeters>
            <DistanceMeters>4147.3698587931</DistanceMeters>
          </Trackpoint>
          <Trackpoint>
            <Time>2022-11-06T10:28:53.000Z</Time>
            <Position>
              <LatitudeDegrees>41.363858990371227264404296875</LatitudeDegrees>
              <LongitudeDegrees>-1.64838884957134723663330078125</LongitudeDegrees>
            </Position>
            <AltitudeMeters>623.79998779296875</AltitudeMeters>
            <DistanceMeters>4168.6482053666</DistanceMeters>
          </Trackpoint>
          <Trackpoint>
            <Time>2022-11-06T10:28:57.000Z</Time>
            <Position>
              <LatitudeDegrees>41.363749690353870391845703125</LatitudeDegrees>
              <LongitudeDegrees>-1.648307628929615020751953125</LongitudeDegrees>
            </Position>
            <AltitudeMeters>623.79998779296875</AltitudeMeters>
            <DistanceMeters>4182.5776437096</DistanceMeters>
          </Trackpoint>
          <Trackpoint>
            <Time>2022-11-06T10:29:00.000Z</Time>
            <Position>
              <LatitudeDegrees>41.36365958489477634429931640625</LatitudeDegrees>
              <LongitudeDegrees>-1.6482461057603359222412109375</LongitudeDegrees>
            </Position>
            <AltitudeMeters>623.20001220703125</AltitudeMeters>
            <DistanceMeters>4193.8470267942</DistanceMeters>
          </Trackpoint>
          <Trackpoint>
            <Time>2022-11-06T10:29:06.000Z</Time>
            <Position>
              <LatitudeDegrees>41.3634802959859371185302734375</LatitudeDegrees>
              <LongitudeDegrees>-1.64812364615499973297119140625</LongitudeDegrees>
            </Position>
            <AltitudeMeters>622.4000244140625</AltitudeMeters>
            <DistanceMeters>4216.2713180173</DistanceMeters>
          </Trackpoint>
          <Trackpoint>
            <Time>2022-11-06T10:29:12.000Z</Time>
            <Position>
              <LatitudeDegrees>41.36330720968544483184814453125</LatitudeDegrees>
              <LongitudeDegrees>-1.64797612465918064117431640625</LongitudeDegrees>
            </Position>
            <AltitudeMeters>622.20001220703125</AltitudeMeters>
            <DistanceMeters>4239.1405980121</DistanceMeters>
          </Trackpoint>
          <Trackpoint>
            <Time>2022-11-06T10:29:15.000Z</Time>
            <Position>
              <LatitudeDegrees>41.36322163045406341552734375</LatitudeDegrees>
              <LongitudeDegrees>-1.6479049623012542724609375</LongitudeDegrees>
            </Position>
            <AltitudeMeters>622.20001220703125</AltitudeMeters>
            <DistanceMeters>4250.3682365509</DistanceMeters>
          </Trackpoint>
          <Trackpoint>
            <Time>2022-11-06T10:29:21.000Z</Time>
            <Position>
              <LatitudeDegrees>41.36308223940432071685791015625</LatitudeDegrees>
              <LongitudeDegrees>-1.64773271419107913970947265625</LongitudeDegrees>
            </Position>
            <AltitudeMeters>622</AltitudeMeters>
            <DistanceMeters>4271.5282769667</DistanceMeters>
          </Trackpoint>
          <Trackpoint>
            <Time>2022-11-06T10:29:23.000Z</Time>
            <Position>
              <LatitudeDegrees>41.36304787360131740570068359375</LatitudeDegrees>
              <LongitudeDegrees>-1.64766247384250164031982421875</LongitudeDegrees>
            </Position>
            <AltitudeMeters>622.20001220703125</AltitudeMeters>
            <DistanceMeters>4278.5319456656</DistanceMeters>
          </Trackpoint>
          <Trackpoint>
            <Time>2022-11-06T10:29:29.000Z</Time>
            <Position>
              <LatitudeDegrees>41.36297863908112049102783203125</LatitudeDegrees>
              <LongitudeDegrees>-1.6474302113056182861328125</LongitudeDegrees>
            </Position>
            <AltitudeMeters>623.5999755859375</AltitudeMeters>
            <DistanceMeters>4299.4084302712</DistanceMeters>
          </Trackpoint>
          <Trackpoint>
            <Time>2022-11-06T10:29:31.000Z</Time>
            <Position>
              <LatitudeDegrees>41.36295734904706478118896484375</LatitudeDegrees>
              <LongitudeDegrees>-1.64735150523483753204345703125</LongitudeDegrees>
            </Position>
            <AltitudeMeters>623.79998779296875</AltitudeMeters>
            <DistanceMeters>4306.3966098202</DistanceMeters>
          </Trackpoint>
          <Trackpoint>
            <Time>2022-11-06T10:29:33.000Z</Time>
            <Position>
              <LatitudeDegrees>41.3629257492721080780029296875</LatitudeDegrees>
              <LongitudeDegrees>-1.64727388881146907806396484375</LongitudeDegrees>
            </Position>
            <AltitudeMeters>624</AltitudeMeters>
            <DistanceMeters>4313.7732784892</DistanceMeters>
          </Trackpoint>
          <Trackpoint>
            <Time>2022-11-06T10:29:39.000Z</Time>
            <Position>
              <LatitudeDegrees>41.3628576882183551788330078125</LatitudeDegrees>
              <LongitudeDegrees>-1.64705025963485240936279296875</LongitudeDegrees>
            </Position>
            <AltitudeMeters>624.4000244140625</AltitudeMeters>
            <DistanceMeters>4333.9319366819</DistanceMeters>
          </Trackpoint>
          <Trackpoint>
            <Time>2022-11-06T10:29:41.000Z</Time>
            <Position>
              <LatitudeDegrees>41.36283933185040950775146484375</LatitudeDegrees>
              <LongitudeDegrees>-1.64697163738310337066650390625</LongitudeDegrees>
            </Position>
            <AltitudeMeters>624.4000244140625</AltitudeMeters>
            <DistanceMeters>4340.8107156845</DistanceMeters>
          </Trackpoint>
          <Trackpoint>
            <Time>2022-11-06T10:29:47.000Z</Time>
            <Position>
              <LatitudeDegrees>41.36276858858764171600341796875</LatitudeDegrees>
              <LongitudeDegrees>-1.64675169624388217926025390625</LongitudeDegrees>
            </Position>
            <AltitudeMeters>624.79998779296875</AltitudeMeters>
            <DistanceMeters>4360.7997832588</DistanceMeters>
          </Trackpoint>
          <Trackpoint>
            <Time>2022-11-06T10:29:48.000Z</Time>
            <Position>
              <LatitudeDegrees>41.3627550937235355377197265625</LatitudeDegrees>
              <LongitudeDegrees>-1.64671112783253192901611328125</LongitudeDegrees>
            </Position>
            <AltitudeMeters>625</AltitudeMeters>
            <DistanceMeters>4364.5070432103</DistanceMeters>
          </Trackpoint>
          <Trackpoint>
            <Time>2022-11-06T10:29:54.000Z</Time>
            <Position>
              <LatitudeDegrees>41.362680494785308837890625</LatitudeDegrees>
              <LongitudeDegrees>-1.64647475816309452056884765625</LongitudeDegrees>
            </Position>
            <AltitudeMeters>625.4000244140625</AltitudeMeters>
            <DistanceMeters>4385.9270848563</DistanceMeters>
          </Trackpoint>
          <Trackpoint>
            <Time>2022-11-06T10:29:58.000Z</Time>
            <Position>
              <LatitudeDegrees>41.36264235712587833404541015625</LatitudeDegrees>
              <LongitudeDegrees>-1.64631365798413753509521484375</LongitudeDegrees>
            </Position>
            <AltitudeMeters>625.4000244140625</AltitudeMeters>
            <DistanceMeters>4400.0384719512</DistanceMeters>
          </Trackpoint>
          <Trackpoint>
            <Time>2022-11-06T10:30:04.000Z</Time>
            <Position>
              <LatitudeDegrees>41.362615786492824554443359375</LatitudeDegrees>
              <LongitudeDegrees>-1.64604342542588710784912109375</LongitudeDegrees>
            </Position>
            <AltitudeMeters>624.79998779296875</AltitudeMeters>
            <DistanceMeters>4422.8056511361</DistanceMeters>
          </Trackpoint>
          <Trackpoint>
            <Time>2022-11-06T10:30:05.000Z</Time>
            <Position>
              <LatitudeDegrees>41.3626134395599365234375</LatitudeDegrees>
              <LongitudeDegrees>-1.64600134827196598052978515625</LongitudeDegrees>
            </Position>
            <AltitudeMeters>624.79998779296875</AltitudeMeters>
            <DistanceMeters>4426.3306171199</DistanceMeters>
          </Trackpoint>
          <Trackpoint>
            <Time>2022-11-06T10:30:11.000Z</Time>
            <Position>
              <LatitudeDegrees>41.36259675957262516021728515625</LatitudeDegrees>
              <LongitudeDegrees>-1.6457489691674709320068359375</LongitudeDegrees>
            </Position>
            <AltitudeMeters>624.4000244140625</AltitudeMeters>
            <DistanceMeters>4447.4951379508</DistanceMeters>
          </Trackpoint>
          <Trackpoint>
            <Time>2022-11-06T10:30:14.000Z</Time>
            <Position>
              <LatitudeDegrees>41.36258938349783420562744140625</LatitudeDegrees>
              <LongitudeDegrees>-1.645628102123737335205078125</LongitudeDegrees>
            </Position>
            <AltitudeMeters>624.4000244140625</AltitudeMeters>
            <DistanceMeters>4457.6251818159</DistanceMeters>
          </Trackpoint>
          <Trackpoint>
            <Time>2022-11-06T10:30:20.000Z</Time>
            <Position>
              <LatitudeDegrees>41.36251193471252918243408203125</LatitudeDegrees>
              <LongitudeDegrees>-1.64541947655379772186279296875</LongitudeDegrees>
            </Position>
            <AltitudeMeters>624.4000244140625</AltitudeMeters>
            <DistanceMeters>4477.0685393019</DistanceMeters>
          </Trackpoint>
          <Trackpoint>
            <Time>2022-11-06T10:30:25.000Z</Time>
            <Position>
              <LatitudeDegrees>41.3623423688113689422607421875</LatitudeDegrees>
              <LongitudeDegrees>-1.64535887539386749267578125</LongitudeDegrees>
            </Position>
            <AltitudeMeters>624.20001220703125</AltitudeMeters>
            <DistanceMeters>4496.6089526127</DistanceMeters>
          </Trackpoint>
          <Trackpoint>
            <Time>2022-11-06T10:30:31.000Z</Time>
            <Position>
              <LatitudeDegrees>41.36215813457965850830078125</LatitudeDegrees>
              <LongitudeDegrees>-1.6453003697097301483154296875</LongitudeDegrees>
            </Position>
            <AltitudeMeters>624.4000244140625</AltitudeMeters>
            <DistanceMeters>4517.6890394675</DistanceMeters>
          </Trackpoint>
          <Trackpoint>
            <Time>2022-11-06T10:30:33.000Z</Time>
            <Position>
              <LatitudeDegrees>41.3621029816567897796630859375</LatitudeDegrees>
              <LongitudeDegrees>-1.64528100751340389251708984375</LongitudeDegrees>
            </Position>
            <AltitudeMeters>624.4000244140625</AltitudeMeters>
            <DistanceMeters>4524.0380757129</DistanceMeters>
          </Trackpoint>
          <Trackpoint>
            <Time>2022-11-06T10:30:39.000Z</Time>
            <Position>
              <LatitudeDegrees>41.36191313154995441436767578125</LatitudeDegrees>
              <LongitudeDegrees>-1.64524714462459087371826171875</LongitudeDegrees>
            </Position>
            <AltitudeMeters>624.5999755859375</AltitudeMeters>
            <DistanceMeters>4545.3571237118</DistanceMeters>
          </Trackpoint>
          <Trackpoint>
            <Time>2022-11-06T10:30:41.000Z</Time>
            <Position>
              <LatitudeDegrees>41.361843310296535491943359375</LatitudeDegrees>
              <LongitudeDegrees>-1.64522116072475910186767578125</LongitudeDegrees>
            </Position>
            <AltitudeMeters>624.20001220703125</AltitudeMeters>
            <DistanceMeters>4553.4260053667</DistanceMeters>
          </Trackpoint>
          <Trackpoint>
            <Time>2022-11-06T10:30:47.000Z</Time>
            <Position>
              <LatitudeDegrees>41.36165228672325611114501953125</LatitudeDegrees>
              <LongitudeDegrees>-1.6452074982225894927978515625</LongitudeDegrees>
            </Position>
            <AltitudeMeters>624.4000244140625</AltitudeMeters>
            <DistanceMeters>4574.7179277269</DistanceMeters>
          </Trackpoint>
          <Trackpoint>
            <Time>2022-11-06T10:30:48.000Z</Time>
            <Position>
              <LatitudeDegrees>41.36162169277667999267578125</LatitudeDegrees>
              <LongitudeDegrees>-1.6451981104910373687744140625</LongitudeDegrees>
            </Position>
            <AltitudeMeters>624.4000244140625</AltitudeMeters>
            <DistanceMeters>4578.2133094555</DistanceMeters>
          </Trackpoint>
          <Trackpoint>
            <Time>2022-11-06T10:30:54.000Z</Time>
            <Position>
              <LatitudeDegrees>41.36143527925014495849609375</LatitudeDegrees>
              <LongitudeDegrees>-1.64514723233878612518310546875</LongitudeDegrees>
            </Position>
            <AltitudeMeters>624.4000244140625</AltitudeMeters>
            <DistanceMeters>4599.3923317937</DistanceMeters>
          </Trackpoint>
          <Trackpoint>
            <Time>2022-11-06T10:30:56.000Z</Time>
            <Position>
              <LatitudeDegrees>41.36137685738503932952880859375</LatitudeDegrees>
              <LongitudeDegrees>-1.6451397724449634552001953125</LongitudeDegrees>
            </Position>
            <AltitudeMeters>624.79998779296875</AltitudeMeters>
            <DistanceMeters>4605.9250296494</DistanceMeters>
          </Trackpoint>
          <Trackpoint>
            <Time>2022-11-06T10:31:03.000Z</Time>
            <Position>
              <LatitudeDegrees>41.3611717522144317626953125</LatitudeDegrees>
              <LongitudeDegrees>-1.645109765231609344482421875</LongitudeDegrees>
            </Position>
            <AltitudeMeters>625.20001220703125</AltitudeMeters>
            <DistanceMeters>4628.890845658</DistanceMeters>
          </Trackpoint>
          <Trackpoint>
            <Time>2022-11-06T10:31:09.000Z</Time>
            <Position>
              <LatitudeDegrees>41.36099447496235370635986328125</LatitudeDegrees>
              <LongitudeDegrees>-1.645080931484699249267578125</LongitudeDegrees>
            </Position>
            <AltitudeMeters>625.20001220703125</AltitudeMeters>
            <DistanceMeters>4648.7684718966</DistanceMeters>
          </Trackpoint>
          <Trackpoint>
            <Time>2022-11-06T10:31:15.000Z</Time>
            <Position>
              <LatitudeDegrees>41.36082951910793781280517578125</LatitudeDegrees>
              <LongitudeDegrees>-1.64503910578787326812744140625</LongitudeDegrees>
            </Position>
            <AltitudeMeters>626.20001220703125</AltitudeMeters>
            <DistanceMeters>4667.4578375072</DistanceMeters>
          </Trackpoint>
          <Trackpoint>
            <Time>2022-11-06T10:31:17.000Z</Time>
            <Position>
              <LatitudeDegrees>41.3607769645750522613525390625</LatitudeDegrees>
              <LongitudeDegrees>-1.6450167261064052581787109375</LongitudeDegrees>
            </Position>
            <AltitudeMeters>626.5999755859375</AltitudeMeters>
            <DistanceMeters>4673.5986517228</DistanceMeters>
          </Trackpoint>
          <Trackpoint>
            <Time>2022-11-06T10:31:20.000Z</Time>
            <Position>
              <LatitudeDegrees>41.36070680804550647735595703125</LatitudeDegrees>
              <LongitudeDegrees>-1.64498060010373592376708984375</LongitudeDegrees>
            </Position>
            <AltitudeMeters>627.4000244140625</AltitudeMeters>
            <DistanceMeters>4681.969636922</DistanceMeters>
          </Trackpoint>
          <Trackpoint>
            <Time>2022-11-06T10:31:24.000Z</Time>
            <Position>
              <LatitudeDegrees>41.36060974560678005218505859375</LatitudeDegrees>
              <LongitudeDegrees>-1.64490181021392345428466796875</LongitudeDegrees>
            </Position>
            <AltitudeMeters>628.4000244140625</AltitudeMeters>
            <DistanceMeters>4694.6199734685</DistanceMeters>
          </Trackpoint>
          <Trackpoint>
            <Time>2022-11-06T10:31:28.000Z</Time>
            <Position>
              <LatitudeDegrees>41.3605360686779022216796875</LatitudeDegrees>
              <LongitudeDegrees>-1.6448215954005718231201171875</LongitudeDegrees>
            </Position>
            <AltitudeMeters>629.5999755859375</AltitudeMeters>
            <DistanceMeters>4705.2102307569</DistanceMeters>
          </Trackpoint>
          <Trackpoint>
            <Time>2022-11-06T10:31:32.000Z</Time>
            <Position>
              <LatitudeDegrees>41.3604550994932651519775390625</LatitudeDegrees>
              <LongitudeDegrees>-1.64474473334848880767822265625</LongitudeDegrees>
            </Position>
            <AltitudeMeters>630.79998779296875</AltitudeMeters>
            <DistanceMeters>4716.2758458134</DistanceMeters>
          </Trackpoint>
          <Trackpoint>
            <Time>2022-11-06T10:31:34.000Z</Time>
            <Position>
              <LatitudeDegrees>41.36040790937840938568115234375</LatitudeDegrees>
              <LongitudeDegrees>-1.64472294040024280548095703125</LongitudeDegrees>
            </Position>
            <AltitudeMeters>631.4000244140625</AltitudeMeters>
            <DistanceMeters>4721.8347055518</DistanceMeters>
          </Trackpoint>
          <Trackpoint>
            <Time>2022-11-06T10:31:36.000Z</Time>
            <Position>
              <LatitudeDegrees>41.36035946197807788848876953125</LatitudeDegrees>
              <LongitudeDegrees>-1.64472461678087711334228515625</LongitudeDegrees>
            </Position>
            <AltitudeMeters>632</AltitudeMeters>
            <DistanceMeters>4727.2286749902</DistanceMeters>
          </Trackpoint>
          <Trackpoint>
            <Time>2022-11-06T10:31:39.000Z</Time>
            <Position>
              <LatitudeDegrees>41.3602810911834239959716796875</LatitudeDegrees>
              <LongitudeDegrees>-1.64476367644965648651123046875</LongitudeDegrees>
            </Position>
            <AltitudeMeters>632.4000244140625</AltitudeMeters>
            <DistanceMeters>4736.541777816</DistanceMeters>
          </Trackpoint>
          <Trackpoint>
            <Time>2022-11-06T10:31:43.000Z</Time>
            <Position>
              <LatitudeDegrees>41.36016483418643474578857421875</LatitudeDegrees>
              <LongitudeDegrees>-1.64482922293245792388916015625</LongitudeDegrees>
            </Position>
            <AltitudeMeters>631.5999755859375</AltitudeMeters>
            <DistanceMeters>4750.5922415528</DistanceMeters>
          </Trackpoint>
          <Trackpoint>
            <Time>2022-11-06T10:31:46.000Z</Time>
            <Position>
              <LatitudeDegrees>41.3600893132388591766357421875</LatitudeDegrees>
              <LongitudeDegrees>-1.64489979855716228485107421875</LongitudeDegrees>
            </Position>
            <AltitudeMeters>630.79998779296875</AltitudeMeters>
            <DistanceMeters>4760.8590853877</DistanceMeters>
          </Trackpoint>
          <Trackpoint>
            <Time>2022-11-06T10:31:47.000Z</Time>
            <Position>
              <LatitudeDegrees>41.3600666821002960205078125</LatitudeDegrees>
              <LongitudeDegrees>-1.64492829702794551849365234375</LongitudeDegrees>
            </Position>
            <AltitudeMeters>630.5999755859375</AltitudeMeters>
            <DistanceMeters>4764.3246303189</DistanceMeters>
          </Trackpoint>
          <Trackpoint>
            <Time>2022-11-06T10:31:53.000Z</Time>
            <Position>
              <LatitudeDegrees>41.3599659316241741180419921875</LatitudeDegrees>
              <LongitudeDegrees>-1.6451449692249298095703125</LongitudeDegrees>
            </Position>
            <AltitudeMeters>630.79998779296875</AltitudeMeters>
            <DistanceMeters>4785.6174008784</DistanceMeters>
          </Trackpoint>
          <Trackpoint>
            <Time>2022-11-06T10:31:55.000Z</Time>
            <Position>
              <LatitudeDegrees>41.35993366129696369171142578125</LatitudeDegrees>
              <LongitudeDegrees>-1.64521194063127040863037109375</LongitudeDegrees>
            </Position>
            <AltitudeMeters>630.5999755859375</AltitudeMeters>
            <DistanceMeters>4792.2651970634</DistanceMeters>
          </Trackpoint>
          <Trackpoint>
            <Time>2022-11-06T10:32:00.000Z</Time>
            <Position>
              <LatitudeDegrees>41.3598172366619110107421875</LatitudeDegrees>
              <LongitudeDegrees>-1.64534940384328365325927734375</LongitudeDegrees>
            </Position>
            <AltitudeMeters>629.79998779296875</AltitudeMeters>
            <DistanceMeters>4809.5798884536</DistanceMeters>
          </Trackpoint>
          <Trackpoint>
            <Time>2022-11-06T10:32:06.000Z</Time>
            <Position>
              <LatitudeDegrees>41.3596410490572452545166015625</LatitudeDegrees>
              <LongitudeDegrees>-1.6454428620636463165283203125</LongitudeDegrees>
            </Position>
            <AltitudeMeters>629.20001220703125</AltitudeMeters>
            <DistanceMeters>4830.6871592747</DistanceMeters>
          </Trackpoint>
          <Trackpoint>
            <Time>2022-11-06T10:32:07.000Z</Time>
            <Position>
              <LatitudeDegrees>41.35961313731968402862548828125</LatitudeDegrees>
              <LongitudeDegrees>-1.64546750485897064208984375</LongitudeDegrees>
            </Position>
            <AltitudeMeters>628.79998779296875</AltitudeMeters>
            <DistanceMeters>4834.4138545361</DistanceMeters>
          </Trackpoint>
          <Trackpoint>
            <Time>2022-11-06T10:32:09.000Z</Time>
            <Position>
              <LatitudeDegrees>41.35956066660583019256591796875</LatitudeDegrees>
              <LongitudeDegrees>-1.64552190341055393218994140625</LongitudeDegrees>
            </Position>
            <AltitudeMeters>628.5999755859375</AltitudeMeters>
            <DistanceMeters>4841.8137453161</DistanceMeters>
          </Trackpoint>
          <Trackpoint>
            <Time>2022-11-06T10:32:14.000Z</Time>
            <Position>
              <LatitudeDegrees>41.35944667272269725799560546875</LatitudeDegrees>
              <LongitudeDegrees>-1.64568610489368438720703125</LongitudeDegrees>
            </Position>
            <AltitudeMeters>627.5999755859375</AltitudeMeters>
            <DistanceMeters>4860.4994868262</DistanceMeters>
          </Trackpoint>
          <Trackpoint>
            <Time>2022-11-06T10:32:16.000Z</Time>
            <Position>
              <LatitudeDegrees>41.359402500092983245849609375</LatitudeDegrees>
              <LongitudeDegrees>-1.645752824842929840087890625</LongitudeDegrees>
            </Position>
            <AltitudeMeters>627.4000244140625</AltitudeMeters>
            <DistanceMeters>4867.9322526428</DistanceMeters>
          </Trackpoint>
          <Trackpoint>
            <Time>2022-11-06T10:32:21.000Z</Time>
            <Position>
              <LatitudeDegrees>41.35928741656243801116943359375</LatitudeDegrees>
              <LongitudeDegrees>-1.64590931497514247894287109375</LongitudeDegrees>
            </Position>
            <AltitudeMeters>626.5999755859375</AltitudeMeters>
            <DistanceMeters>4886.234703729</DistanceMeters>
          </Trackpoint>
          <Trackpoint>
            <Time>2022-11-06T10:32:27.000Z</Time>
            <Position>
              <LatitudeDegrees>41.35915246792137622833251953125</LatitudeDegrees>
              <LongitudeDegrees>-1.6460917890071868896484375</LongitudeDegrees>
            </Position>
            <AltitudeMeters>625.79998779296875</AltitudeMeters>
            <DistanceMeters>4907.6351333277</DistanceMeters>
          </Trackpoint>
          <Trackpoint>
            <Time>2022-11-06T10:32:29.000Z</Time>
            <Position>
              <LatitudeDegrees>41.3591056130826473236083984375</LatitudeDegrees>
              <LongitudeDegrees>-1.646142415702342987060546875</LongitudeDegrees>
            </Position>
            <AltitudeMeters>625.4000244140625</AltitudeMeters>
            <DistanceMeters>4914.3491590655</DistanceMeters>
          </Trackpoint>
          <Trackpoint>
            <Time>2022-11-06T10:32:34.000Z</Time>
            <Position>
              <LatitudeDegrees>41.35897108353674411773681640625</LatitudeDegrees>
              <LongitudeDegrees>-1.64624861441552639007568359375</LongitudeDegrees>
            </Position>
            <AltitudeMeters>625.20001220703125</AltitudeMeters>
            <DistanceMeters>4931.7538407457</DistanceMeters>
          </Trackpoint>
          <Trackpoint>
            <Time>2022-11-06T10:32:37.000Z</Time>
            <Position>
              <LatitudeDegrees>41.3588638789951801300048828125</LatitudeDegrees>
              <LongitudeDegrees>-1.64625548757612705230712890625</LongitudeDegrees>
            </Position>
            <AltitudeMeters>624.4000244140625</AltitudeMeters>
            <DistanceMeters>4943.6996474596</DistanceMeters>
          </Trackpoint>
          <Trackpoint>
            <Time>2022-11-06T10:32:40.000Z</Time>
            <Position>
              <LatitudeDegrees>41.35875885374844074249267578125</LatitudeDegrees>
              <LongitudeDegrees>-1.64622522890567779541015625</LongitudeDegrees>
            </Position>
            <AltitudeMeters>623.5999755859375</AltitudeMeters>
            <DistanceMeters>4955.6594305208</DistanceMeters>
          </Trackpoint>
          <Trackpoint>
            <Time>2022-11-06T10:32:41.000Z</Time>
            <Position>
              <LatitudeDegrees>41.358724571764469146728515625</LatitudeDegrees>
              <LongitudeDegrees>-1.6462098062038421630859375</LongitudeDegrees>
            </Position>
            <AltitudeMeters>623.4000244140625</AltitudeMeters>
            <DistanceMeters>4959.6865904746</DistanceMeters>
          </Trackpoint>
          <Trackpoint>
            <Time>2022-11-06T10:32:47.000Z</Time>
            <Position>
              <LatitudeDegrees>41.3585217297077178955078125</LatitudeDegrees>
              <LongitudeDegrees>-1.6461575031280517578125</LongitudeDegrees>
            </Position>
            <AltitudeMeters>622.4000244140625</AltitudeMeters>
            <DistanceMeters>4982.682269994</DistanceMeters>
          </Trackpoint>
          <Trackpoint>
            <Time>2022-11-06T10:32:48.000Z</Time>
            <Position>
              <LatitudeDegrees>41.3584841787815093994140625</LatitudeDegrees>
              <LongitudeDegrees>-1.6461466066539287567138671875</LongitudeDegrees>
            </Position>
            <AltitudeMeters>622</AltitudeMeters>
            <DistanceMeters>4986.9595278627</DistanceMeters>
          </Trackpoint>
          <Trackpoint>
            <Time>2022-11-06T10:32:50.000Z</Time>
            <Position>
              <LatitudeDegrees>41.35842290706932544708251953125</LatitudeDegrees>
              <LongitudeDegrees>-1.646121628582477569580078125</LongitudeDegrees>
            </Position>
            <AltitudeMeters>621</AltitudeMeters>
            <DistanceMeters>4994.0909646417</DistanceMeters>
          </Trackpoint>
          <Trackpoint>
            <Time>2022-11-06T10:32:52.000Z</Time>
            <Position>
              <LatitudeDegrees>41.358381919562816619873046875</LatitudeDegrees>
              <LongitudeDegrees>-1.64607108570635318756103515625</LongitudeDegrees>
            </Position>
            <AltitudeMeters>620.20001220703125</AltitudeMeters>
            <DistanceMeters>5000.3077746902</DistanceMeters>
          </Trackpoint>
          <Trackpoint>
            <Time>2022-11-06T10:32:53.000Z</Time>
            <Position>
              <LatitudeDegrees>41.35839005000889301300048828125</LatitudeDegrees>
              <LongitudeDegrees>-1.64603236131370067596435546875</LongitudeDegrees>
            </Position>
            <AltitudeMeters>620</AltitudeMeters>
            <DistanceMeters>5003.6661322469</DistanceMeters>
          </Trackpoint>
          <Trackpoint>
            <Time>2022-11-06T10:32:54.000Z</Time>
            <Position>
              <LatitudeDegrees>41.35840295813977718353271484375</LatitudeDegrees>
              <LongitudeDegrees>-1.64599246345460414886474609375</LongitudeDegrees>
            </Position>
            <AltitudeMeters>619.79998779296875</AltitudeMeters>
            <DistanceMeters>5007.2946100897</DistanceMeters>
          </Trackpoint>
          <Trackpoint>
            <Time>2022-11-06T10:32:57.000Z</Time>
            <Position>
              <LatitudeDegrees>41.35846263729035854339599609375</LatitudeDegrees>
              <LongitudeDegrees>-1.64588333107531070709228515625</LongitudeDegrees>
            </Position>
            <AltitudeMeters>619</AltitudeMeters>
            <DistanceMeters>5018.5748054413</DistanceMeters>
          </Trackpoint>
          <Trackpoint>
            <Time>2022-11-06T10:32:59.000Z</Time>
            <Position>
              <LatitudeDegrees>41.35851477272808551788330078125</LatitudeDegrees>
              <LongitudeDegrees>-1.64581560529768466949462890625</LongitudeDegrees>
            </Position>
            <AltitudeMeters>618.5999755859375</AltitudeMeters>
            <DistanceMeters>5026.6794199327</DistanceMeters>
          </Trackpoint>
          <Trackpoint>
            <Time>2022-11-06T10:33:03.000Z</Time>
            <Position>
              <LatitudeDegrees>41.3586298562586307525634765625</LatitudeDegrees>
              <LongitudeDegrees>-1.64569524116814136505126953125</LongitudeDegrees>
            </Position>
            <AltitudeMeters>617.5999755859375</AltitudeMeters>
            <DistanceMeters>5042.9642375554</DistanceMeters>
          </Trackpoint>
          <Trackpoint>
            <Time>2022-11-06T10:33:04.000Z</Time>
            <Position>
              <LatitudeDegrees>41.35865961201488971710205078125</LatitudeDegrees>
              <LongitudeDegrees>-1.645666994154453277587890625</LongitudeDegrees>
            </Position>
            <AltitudeMeters>617</AltitudeMeters>
            <DistanceMeters>5047.0315585466</DistanceMeters>
          </Trackpoint>
          <Trackpoint>
            <Time>2022-11-06T10:33:06.000Z</Time>
            <Position>
              <LatitudeDegrees>41.3587143458425998687744140625</LatitudeDegrees>
              <LongitudeDegrees>-1.64560563862323760986328125</LongitudeDegrees>
            </Position>
            <AltitudeMeters>616.20001220703125</AltitudeMeters>
            <DistanceMeters>5054.9922793986</DistanceMeters>
          </Trackpoint>
          <Trackpoint>
            <Time>2022-11-06T10:33:09.000Z</Time>
            <Position>
              <LatitudeDegrees>41.35878098197281360626220703125</LatitudeDegrees>
              <LongitudeDegrees>-1.64550413377583026885986328125</LongitudeDegrees>
            </Position>
            <AltitudeMeters>615.20001220703125</AltitudeMeters>
            <DistanceMeters>5066.2584568558</DistanceMeters>
          </Trackpoint>
          <Trackpoint>
            <Time>2022-11-06T10:33:10.000Z</Time>
            <Position>
              <LatitudeDegrees>41.35879958979785442352294921875</LatitudeDegrees>
              <LongitudeDegrees>-1.645464487373828887939453125</LongitudeDegrees>
            </Position>
            <AltitudeMeters>615</AltitudeMeters>
            <DistanceMeters>5070.1649679834</DistanceMeters>
          </Trackpoint>
          <Trackpoint>
            <Time>2022-11-06T10:33:13.000Z</Time>
            <Position>
              <LatitudeDegrees>41.358841918408870697021484375</LatitudeDegrees>
              <LongitudeDegrees>-1.6453312151134014129638671875</LongitudeDegrees>
            </Position>
            <AltitudeMeters>614</AltitudeMeters>
            <DistanceMeters>5082.2546667936</DistanceMeters>
          </Trackpoint>
          <Trackpoint>
            <Time>2022-11-06T10:33:16.000Z</Time>
            <Position>
              <LatitudeDegrees>41.3588296808302402496337890625</LatitudeDegrees>
              <LongitudeDegrees>-1.64518645964562892913818359375</LongitudeDegrees>
            </Position>
            <AltitudeMeters>612.79998779296875</AltitudeMeters>
            <DistanceMeters>5094.4240239534</DistanceMeters>
          </Trackpoint>
          <Trackpoint>
            <Time>2022-11-06T10:33:18.000Z</Time>
            <Position>
              <LatitudeDegrees>41.3588038645684719085693359375</LatitudeDegrees>
              <LongitudeDegrees>-1.64508436806499958038330078125</LongitudeDegrees>
            </Position>
            <AltitudeMeters>611.4000244140625</AltitudeMeters>
            <DistanceMeters>5103.4240120479</DistanceMeters>
          </Trackpoint>
          <Trackpoint>
            <Time>2022-11-06T10:33:22.000Z</Time>
            <Position>
              <LatitudeDegrees>41.35876941494643688201904296875</LatitudeDegrees>
              <LongitudeDegrees>-1.64490315131843090057373046875</LongitudeDegrees>
            </Position>
            <AltitudeMeters>610.20001220703125</AltitudeMeters>
            <DistanceMeters>5119.0413858589</DistanceMeters>
          </Trackpoint>
          <Trackpoint>
            <Time>2022-11-06T10:33:23.000Z</Time>
            <Position>
              <LatitudeDegrees>41.35876572690904140472412109375</LatitudeDegrees>
              <LongitudeDegrees>-1.64485805667936801910400390625</LongitudeDegrees>
            </Position>
            <AltitudeMeters>610.20001220703125</AltitudeMeters>
            <DistanceMeters>5122.8329398541</DistanceMeters>
          </Trackpoint>
          <Trackpoint>
            <Time>2022-11-06T10:33:28.000Z</Time>
            <Position>
              <LatitudeDegrees>41.35872884653508663177490234375</LatitudeDegrees>
              <LongitudeDegrees>-1.64461866952478885650634765625</LongitudeDegrees>
            </Position>
            <AltitudeMeters>609.4000244140625</AltitudeMeters>
            <DistanceMeters>5143.2486504326</DistanceMeters>
          </Trackpoint>
          <Trackpoint>
            <Time>2022-11-06T10:33:29.000Z</Time>
            <Position>
              <LatitudeDegrees>41.3587193749845027923583984375</LatitudeDegrees>
              <LongitudeDegrees>-1.64457508362829685211181640625</LongitudeDegrees>
            </Position>
            <AltitudeMeters>609</AltitudeMeters>
            <DistanceMeters>5147.0402044278</DistanceMeters>
          </Trackpoint>
          <Trackpoint>
            <Time>2022-11-06T10:33:31.000Z</Time>
            <Position>
              <LatitudeDegrees>41.35868827812373638153076171875</LatitudeDegrees>
              <LongitudeDegrees>-1.64448657073080539703369140625</LongitudeDegrees>
            </Position>
            <AltitudeMeters>608.4000244140625</AltitudeMeters>
            <DistanceMeters>5155.2047634673</DistanceMeters>
          </Trackpoint>
          <Trackpoint>
            <Time>2022-11-06T10:33:32.000Z</Time>
            <Position>
              <LatitudeDegrees>41.35866413824260234832763671875</LatitudeDegrees>
              <LongitudeDegrees>-1.64445371367037296295166015625</LongitudeDegrees>
            </Position>
            <AltitudeMeters>608.20001220703125</AltitudeMeters>
            <DistanceMeters>5159.046006093</DistanceMeters>
          </Trackpoint>
          <Trackpoint>
            <Time>2022-11-06T10:33:33.000Z</Time>
            <Position>
              <LatitudeDegrees>41.3586271740496158599853515625</LatitudeDegrees>
              <LongitudeDegrees>-1.64443527348339557647705078125</LongitudeDegrees>
            </Position>
            <AltitudeMeters>608</AltitudeMeters>
            <DistanceMeters>5163.439899974</DistanceMeters>
          </Trackpoint>
          <Trackpoint>
            <Time>2022-11-06T10:33:34.000Z</Time>
            <Position>
              <LatitudeDegrees>41.3585852645337581634521484375</LatitudeDegrees>
              <LongitudeDegrees>-1.6444408893585205078125</LongitudeDegrees>
            </Position>
            <AltitudeMeters>608</AltitudeMeters>
            <DistanceMeters>5168.1280985688</DistanceMeters>
          </Trackpoint>
          <Trackpoint>
            <Time>2022-11-06T10:33:37.000Z</Time>
            <Position>
              <LatitudeDegrees>41.35846498422324657440185546875</LatitudeDegrees>
              <LongitudeDegrees>-1.644497551023960113525390625</LongitudeDegrees>
            </Position>
            <AltitudeMeters>606.5999755859375</AltitudeMeters>
            <DistanceMeters>5182.3275192204</DistanceMeters>
          </Trackpoint>
          <Trackpoint>
            <Time>2022-11-06T10:33:38.000Z</Time>
            <Position>
              <LatitudeDegrees>41.358437575399875640869140625</LatitudeDegrees>
              <LongitudeDegrees>-1.64453334175050258636474609375</LongitudeDegrees>
            </Position>
            <AltitudeMeters>605.5999755859375</AltitudeMeters>
            <DistanceMeters>5186.5994958698</DistanceMeters>
          </Trackpoint>
          <Trackpoint>
            <Time>2022-11-06T10:33:39.000Z</Time>
            <Position>
              <LatitudeDegrees>41.35841310024261474609375</LatitudeDegrees>
              <LongitudeDegrees>-1.64457944221794605255126953125</LongitudeDegrees>
            </Position>
            <AltitudeMeters>604.79998779296875</AltitudeMeters>
            <DistanceMeters>5191.3164979217</DistanceMeters>
          </Trackpoint>
          <Trackpoint>
            <Time>2022-11-06T10:33:41.000Z</Time>
            <Position>
              <LatitudeDegrees>41.35839859955012798309326171875</LatitudeDegrees>
              <LongitudeDegrees>-1.64468538947403430938720703125</LongitudeDegrees>
            </Position>
            <AltitudeMeters>603.5999755859375</AltitudeMeters>
            <DistanceMeters>5200.3134754833</DistanceMeters>
          </Trackpoint>
          <Trackpoint>
            <Time>2022-11-06T10:33:42.000Z</Time>
            <Position>
              <LatitudeDegrees>41.35839239694178104400634765625</LatitudeDegrees>
              <LongitudeDegrees>-1.64474733173847198486328125</LongitudeDegrees>
            </Position>
            <AltitudeMeters>602.79998779296875</AltitudeMeters>
            <DistanceMeters>5205.5338941167</DistanceMeters>
          </Trackpoint>
          <Trackpoint>
            <Time>2022-11-06T10:33:43.000Z</Time>
            <Position>
              <LatitudeDegrees>41.35837228037416934967041015625</LatitudeDegrees>
              <LongitudeDegrees>-1.64478697814047336578369140625</LongitudeDegrees>
            </Position>
            <AltitudeMeters>602.20001220703125</AltitudeMeters>
            <DistanceMeters>5209.5317979807</DistanceMeters>
          </Trackpoint>
          <Trackpoint>
            <Time>2022-11-06T10:33:45.000Z</Time>
            <Position>
              <LatitudeDegrees>41.35831763036549091339111328125</LatitudeDegrees>
              <LongitudeDegrees>-1.64480273611843585968017578125</LongitudeDegrees>
            </Position>
            <AltitudeMeters>601.4000244140625</AltitudeMeters>
            <DistanceMeters>5215.7558664206</DistanceMeters>
          </Trackpoint>
          <Trackpoint>
            <Time>2022-11-06T10:33:46.000Z</Time>
            <Position>
              <LatitudeDegrees>41.35828779079020023345947265625</LatitudeDegrees>
              <LongitudeDegrees>-1.64480994455516338348388671875</LongitudeDegrees>
            </Position>
            <AltitudeMeters>601</AltitudeMeters>
            <DistanceMeters>5219.131656176</DistanceMeters>
          </Trackpoint>
          <Trackpoint>
            <Time>2022-11-06T10:33:50.000Z</Time>
            <Position>
              <LatitudeDegrees>41.3581423647701740264892578125</LatitudeDegrees>
              <LongitudeDegrees>-1.644838191568851470947265625</LongitudeDegrees>
            </Position>
            <AltitudeMeters>600</AltitudeMeters>
            <DistanceMeters>5235.4889531725</DistanceMeters>
          </Trackpoint>
          <Trackpoint>
            <Time>2022-11-06T10:33:52.000Z</Time>
            <Position>
              <LatitudeDegrees>41.3580820150673389434814453125</LatitudeDegrees>
              <LongitudeDegrees>-1.6448584757745265960693359375</LongitudeDegrees>
            </Position>
            <AltitudeMeters>599.5999755859375</AltitudeMeters>
            <DistanceMeters>5242.4161334231</DistanceMeters>
          </Trackpoint>
          <Trackpoint>
            <Time>2022-11-06T10:33:55.000Z</Time>
            <Position>
              <LatitudeDegrees>41.35798168368637561798095703125</LatitudeDegrees>
              <LongitudeDegrees>-1.64489896036684513092041015625</LongitudeDegrees>
            </Position>
            <AltitudeMeters>598.79998779296875</AltitudeMeters>
            <DistanceMeters>5254.0843150528</DistanceMeters>
          </Trackpoint>
          <Trackpoint>
            <Time>2022-11-06T10:33:59.000Z</Time>
            <Position>
              <LatitudeDegrees>41.3578500039875507354736328125</LatitudeDegrees>
              <LongitudeDegrees>-1.644974984228610992431640625</LongitudeDegrees>
            </Position>
            <AltitudeMeters>597.79998779296875</AltitudeMeters>
            <DistanceMeters>5270.0572853417</DistanceMeters>
          </Trackpoint>
          <Trackpoint>
            <Time>2022-11-06T10:34:00.000Z</Time>
            <Position>
              <LatitudeDegrees>41.3578163087368011474609375</LatitudeDegrees>
              <LongitudeDegrees>-1.64500189013779163360595703125</LongitudeDegrees>
            </Position>
            <AltitudeMeters>597.4000244140625</AltitudeMeters>
            <DistanceMeters>5274.4285142027</DistanceMeters>
          </Trackpoint>
          <Trackpoint>
            <Time>2022-11-06T10:34:01.000Z</Time>
            <Position>
              <LatitudeDegrees>41.3577829487621784210205078125</LatitudeDegrees>
              <LongitudeDegrees>-1.64503390900790691375732421875</LongitudeDegrees>
            </Position>
            <AltitudeMeters>596.5999755859375</AltitudeMeters>
            <DistanceMeters>5279.0056068771</DistanceMeters>
          </Trackpoint>
          <Trackpoint>
            <Time>2022-11-06T10:34:05.000Z</Time>
            <Position>
              <LatitudeDegrees>41.35763903148472309112548828125</LatitudeDegrees>
              <LongitudeDegrees>-1.64509811438620090484619140625</LongitudeDegrees>
            </Position>
            <AltitudeMeters>595.20001220703125</AltitudeMeters>
            <DistanceMeters>5295.8979251203</DistanceMeters>
          </Trackpoint>
          <Trackpoint>
            <Time>2022-11-06T10:34:06.000Z</Time>
            <Position>
              <LatitudeDegrees>41.35760081000626087188720703125</LatitudeDegrees>
              <LongitudeDegrees>-1.6451055742800235748291015625</LongitudeDegrees>
            </Position>
            <AltitudeMeters>594.79998779296875</AltitudeMeters>
            <DistanceMeters>5300.1962429778</DistanceMeters>
          </Trackpoint>
          <Trackpoint>
            <Time>2022-11-06T10:34:08.000Z</Time>
            <Position>
              <LatitudeDegrees>41.3575341738760471343994140625</LatitudeDegrees>
              <LongitudeDegrees>-1.64509828202426433563232421875</LongitudeDegrees>
            </Position>
            <AltitudeMeters>594</AltitudeMeters>
            <DistanceMeters>5307.6375082435</DistanceMeters>
          </Trackpoint>
          <Trackpoint>
            <Time>2022-11-06T10:34:11.000Z</Time>
            <Position>
              <LatitudeDegrees>41.35744054801762104034423828125</LatitudeDegrees>
              <LongitudeDegrees>-1.64507053792476654052734375</LongitudeDegrees>
            </Position>
            <AltitudeMeters>593.4000244140625</AltitudeMeters>
            <DistanceMeters>5318.3135386329</DistanceMeters>
          </Trackpoint>
          <Trackpoint>
            <Time>2022-11-06T10:34:13.000Z</Time>
            <Position>
              <LatitudeDegrees>41.357376091182231903076171875</LatitudeDegrees>
              <LongitudeDegrees>-1.6450564563274383544921875</LongitudeDegrees>
            </Position>
            <AltitudeMeters>593</AltitudeMeters>
            <DistanceMeters>5325.5835480845</DistanceMeters>
          </Trackpoint>
          <Trackpoint>
            <Time>2022-11-06T10:34:18.000Z</Time>
            <Position>
              <LatitudeDegrees>41.35724139399826526641845703125</LatitudeDegrees>
              <LongitudeDegrees>-1.6449382714927196502685546875</LongitudeDegrees>
            </Position>
            <AltitudeMeters>591.4000244140625</AltitudeMeters>
            <DistanceMeters>5343.5352992005</DistanceMeters>
          </Trackpoint>
          <Trackpoint>
            <Time>2022-11-06T10:34:21.000Z</Time>
            <Position>
              <LatitudeDegrees>41.35715640150010585784912109375</LatitudeDegrees>
              <LongitudeDegrees>-1.644861996173858642578125</LongitudeDegrees>
            </Position>
            <AltitudeMeters>590</AltitudeMeters>
            <DistanceMeters>5354.9416720423</DistanceMeters>
          </Trackpoint>
          <Trackpoint>
            <Time>2022-11-06T10:34:24.000Z</Time>
            <Position>
              <LatitudeDegrees>41.357083730399608612060546875</LatitudeDegrees>
              <LongitudeDegrees>-1.64474196732044219970703125</LongitudeDegrees>
            </Position>
            <AltitudeMeters>588.4000244140625</AltitudeMeters>
            <DistanceMeters>5367.8243648882</DistanceMeters>
          </Trackpoint>
          <Trackpoint>
            <Time>2022-11-06T10:34:25.000Z</Time>
            <Position>
              <LatitudeDegrees>41.35706998407840728759765625</LatitudeDegrees>
              <LongitudeDegrees>-1.64468974806368350982666015625</LongitudeDegrees>
            </Position>
            <AltitudeMeters>587.5999755859375</AltitudeMeters>
            <DistanceMeters>5372.447587892</DistanceMeters>
          </Trackpoint>
          <Trackpoint>
            <Time>2022-11-06T10:34:26.000Z</Time>
            <Position>
              <LatitudeDegrees>41.35706730186939239501953125</LatitudeDegrees>
              <LongitudeDegrees>-1.644642055034637451171875</LongitudeDegrees>
            </Position>
            <AltitudeMeters>587.20001220703125</AltitudeMeters>
            <DistanceMeters>5376.4432324149</DistanceMeters>
          </Trackpoint>
          <Trackpoint>
            <Time>2022-11-06T10:34:28.000Z</Time>
            <Position>
              <LatitudeDegrees>41.35710409842431545257568359375</LatitudeDegrees>
              <LongitudeDegrees>-1.6445637680590152740478515625</LongitudeDegrees>
            </Position>
            <AltitudeMeters>586.20001220703125</AltitudeMeters>
            <DistanceMeters>5384.1603143859</DistanceMeters>
          </Trackpoint>
          <Trackpoint>
            <Time>2022-11-06T10:34:29.000Z</Time>
            <Position>
              <LatitudeDegrees>41.3571274839341640472412109375</LatitudeDegrees>
              <LongitudeDegrees>-1.64452630095183849334716796875</LongitudeDegrees>
            </Position>
            <AltitudeMeters>586</AltitudeMeters>
            <DistanceMeters>5388.2309642449</DistanceMeters>
          </Trackpoint>
          <Trackpoint>
            <Time>2022-11-06T10:34:32.000Z</Time>
            <Position>
              <LatitudeDegrees>41.35719931684434413909912109375</LatitudeDegrees>
              <LongitudeDegrees>-1.64439587853848934173583984375</LongitudeDegrees>
            </Position>
            <AltitudeMeters>585</AltitudeMeters>
            <DistanceMeters>5401.746155191</DistanceMeters>
          </Trackpoint>
          <Trackpoint>
            <Time>2022-11-06T10:34:34.000Z</Time>
            <Position>
              <LatitudeDegrees>41.35723359882831573486328125</LatitudeDegrees>
              <LongitudeDegrees>-1.6443092934787273406982421875</LongitudeDegrees>
            </Position>
            <AltitudeMeters>584.20001220703125</AltitudeMeters>
            <DistanceMeters>5409.9250797105</DistanceMeters>
          </Trackpoint>
          <Trackpoint>
            <Time>2022-11-06T10:34:35.000Z</Time>
            <Position>
              <LatitudeDegrees>41.357246004045009613037109375</LatitudeDegrees>
              <LongitudeDegrees>-1.64426830597221851348876953125</LongitudeDegrees>
            </Position>
            <AltitudeMeters>583.5999755859375</AltitudeMeters>
            <DistanceMeters>5413.61769605</DistanceMeters>
          </Trackpoint>
          <Trackpoint>
            <Time>2022-11-06T10:34:37.000Z</Time>
            <Position>
              <LatitudeDegrees>41.3572501949965953826904296875</LatitudeDegrees>
              <LongitudeDegrees>-1.644183732569217681884765625</LongitudeDegrees>
            </Position>
            <AltitudeMeters>582.20001220703125</AltitudeMeters>
            <DistanceMeters>5420.6989399021</DistanceMeters>
          </Trackpoint>
          <Trackpoint>
            <Time>2022-11-06T10:34:39.000Z</Time>
            <Position>
              <LatitudeDegrees>41.35722043924033641815185546875</LatitudeDegrees>
              <LongitudeDegrees>-1.64416252635419368743896484375</LongitudeDegrees>
            </Position>
            <AltitudeMeters>581.20001220703125</AltitudeMeters>
            <DistanceMeters>5424.4558015554</DistanceMeters>
          </Trackpoint>
          <Trackpoint>
            <Time>2022-11-06T10:34:40.000Z</Time>
            <Position>
              <LatitudeDegrees>41.357200406491756439208984375</LatitudeDegrees>
              <LongitudeDegrees>-1.644182391464710235595703125</LongitudeDegrees>
            </Position>
            <AltitudeMeters>580.79998779296875</AltitudeMeters>
            <DistanceMeters>5427.2360435298</DistanceMeters>
          </Trackpoint>
          <Trackpoint>
            <Time>2022-11-06T10:34:42.000Z</Time>
            <Position>
              <LatitudeDegrees>41.35712656192481517791748046875</LatitudeDegrees>
              <LongitudeDegrees>-1.6442362032830715179443359375</LongitudeDegrees>
            </Position>
            <AltitudeMeters>579.4000244140625</AltitudeMeters>
            <DistanceMeters>5436.6047330345</DistanceMeters>
          </Trackpoint>
          <Trackpoint>
            <Time>2022-11-06T10:34:44.000Z</Time>
            <Position>
              <LatitudeDegrees>41.3570470176637172698974609375</LatitudeDegrees>
              <LongitudeDegrees>-1.6442841477692127227783203125</LongitudeDegrees>
            </Position>
            <AltitudeMeters>578</AltitudeMeters>
            <DistanceMeters>5446.3221148513</DistanceMeters>
          </Trackpoint>
          <Trackpoint>
            <Time>2022-11-06T10:34:46.000Z</Time>
            <Position>
              <LatitudeDegrees>41.35697736404836177825927734375</LatitudeDegrees>
              <LongitudeDegrees>-1.6442965529859066009521484375</LongitudeDegrees>
            </Position>
            <AltitudeMeters>576.5999755859375</AltitudeMeters>
            <DistanceMeters>5454.1438005972</DistanceMeters>
          </Trackpoint>
          <Trackpoint>
            <Time>2022-11-06T10:34:48.000Z</Time>
            <Position>
              <LatitudeDegrees>41.35690771043300628662109375</LatitudeDegrees>
              <LongitudeDegrees>-1.64429613389074802398681640625</LongitudeDegrees>
            </Position>
            <AltitudeMeters>575.5999755859375</AltitudeMeters>
            <DistanceMeters>5461.8964897314</DistanceMeters>
          </Trackpoint>
          <Trackpoint>
            <Time>2022-11-06T10:34:49.000Z</Time>
            <Position>
              <LatitudeDegrees>41.35686789639294147491455078125</LatitudeDegrees>
              <LongitudeDegrees>-1.64430384524166584014892578125</LongitudeDegrees>
            </Position>
            <AltitudeMeters>575.20001220703125</AltitudeMeters>
            <DistanceMeters>5466.373851645</DistanceMeters>
          </Trackpoint>
          <Trackpoint>
            <Time>2022-11-06T10:34:51.000Z</Time>
            <Position>
              <LatitudeDegrees>41.35681341402232646942138671875</LatitudeDegrees>
              <LongitudeDegrees>-1.64436109364032745361328125</LongitudeDegrees>
            </Position>
            <AltitudeMeters>574</AltitudeMeters>
            <DistanceMeters>5474.0961974567</DistanceMeters>
          </Trackpoint>
          <Trackpoint>
            <Time>2022-11-06T10:34:52.000Z</Time>
            <Position>
              <LatitudeDegrees>41.356786675751209259033203125</LatitudeDegrees>
              <LongitudeDegrees>-1.64439151994884014129638671875</LongitudeDegrees>
            </Position>
            <AltitudeMeters>573.79998779296875</AltitudeMeters>
            <DistanceMeters>5478.0107906317</DistanceMeters>
          </Trackpoint>
          <Trackpoint>
            <Time>2022-11-06T10:34:53.000Z</Time>
            <Position>
              <LatitudeDegrees>41.3567643798887729644775390625</LatitudeDegrees>
              <LongitudeDegrees>-1.64442479610443115234375</LongitudeDegrees>
            </Position>
            <AltitudeMeters>572.5999755859375</AltitudeMeters>
            <DistanceMeters>5481.737485893</DistanceMeters>
          </Trackpoint>
          <Trackpoint>
            <Time>2022-11-06T10:34:55.000Z</Time>
            <Position>
              <LatitudeDegrees>41.35672456584870815277099609375</LatitudeDegrees>
              <LongitudeDegrees>-1.64445119909942150115966796875</LongitudeDegrees>
            </Position>
            <AltitudeMeters>570.5999755859375</AltitudeMeters>
            <DistanceMeters>5486.6870916745</DistanceMeters>
          </Trackpoint>
          <Trackpoint>
            <Time>2022-11-06T10:34:57.000Z</Time>
            <Position>
              <LatitudeDegrees>41.35667645372450351715087890625</LatitudeDegrees>
              <LongitudeDegrees>-1.64440962485969066619873046875</LongitudeDegrees>
            </Position>
            <AltitudeMeters>569.5999755859375</AltitudeMeters>
            <DistanceMeters>5493.0701712538</DistanceMeters>
          </Trackpoint>
          <Trackpoint>
            <Time>2022-11-06T10:34:58.000Z</Time>
            <Position>
              <LatitudeDegrees>41.3566473685204982757568359375</LatitudeDegrees>
              <LongitudeDegrees>-1.6444081999361515045166015625</LongitudeDegrees>
            </Position>
            <AltitudeMeters>569</AltitudeMeters>
            <DistanceMeters>5496.3108469402</DistanceMeters>
          </Trackpoint>
          <Trackpoint>
            <Time>2022-11-06T10:35:01.000Z</Time>
            <Position>
              <LatitudeDegrees>41.35654636658728122711181640625</LatitudeDegrees>
              <LongitudeDegrees>-1.64439420215785503387451171875</LongitudeDegrees>
            </Position>
            <AltitudeMeters>567.5999755859375</AltitudeMeters>
            <DistanceMeters>5507.6138342236</DistanceMeters>
          </Trackpoint>
          <Trackpoint>
            <Time>2022-11-06T10:35:03.000Z</Time>
            <Position>
              <LatitudeDegrees>41.356484256684780120849609375</LatitudeDegrees>
              <LongitudeDegrees>-1.64439939893782138824462890625</LongitudeDegrees>
            </Position>
            <AltitudeMeters>566.4000244140625</AltitudeMeters>
            <DistanceMeters>5514.5403626576</DistanceMeters>
          </Trackpoint>
          <Trackpoint>
            <Time>2022-11-06T10:35:05.000Z</Time>
            <Position>
              <LatitudeDegrees>41.3564146868884563446044921875</LatitudeDegrees>
              <LongitudeDegrees>-1.64439252577722072601318359375</LongitudeDegrees>
            </Position>
            <AltitudeMeters>564.79998779296875</AltitudeMeters>
            <DistanceMeters>5522.3052722138</DistanceMeters>
          </Trackpoint>
          <Trackpoint>
            <Time>2022-11-06T10:35:08.000Z</Time>
            <Position>
              <LatitudeDegrees>41.35632609017193317413330078125</LatitudeDegrees>
              <LongitudeDegrees>-1.644346006214618682861328125</LongitudeDegrees>
            </Position>
            <AltitudeMeters>563.20001220703125</AltitudeMeters>
            <DistanceMeters>5532.9049048072</DistanceMeters>
          </Trackpoint>
          <Trackpoint>
            <Time>2022-11-06T10:35:09.000Z</Time>
            <Position>
              <LatitudeDegrees>41.3562926463782787322998046875</LatitudeDegrees>
              <LongitudeDegrees>-1.64433854632079601287841796875</LongitudeDegrees>
            </Position>
            <AltitudeMeters>562.5999755859375</AltitudeMeters>
            <DistanceMeters>5536.6797505827</DistanceMeters>
          </Trackpoint>
          <Trackpoint>
            <Time>2022-11-06T10:35:11.000Z</Time>
            <Position>
              <LatitudeDegrees>41.35622869245707988739013671875</LatitudeDegrees>
              <LongitudeDegrees>-1.64434357546269893646240234375</LongitudeDegrees>
            </Position>
            <AltitudeMeters>561.5999755859375</AltitudeMeters>
            <DistanceMeters>5543.809921014</DistanceMeters>
          </Trackpoint>
          <Trackpoint>
            <Time>2022-11-06T10:35:13.000Z</Time>
            <Position>
              <LatitudeDegrees>41.35614755563437938690185546875</LatitudeDegrees>
              <LongitudeDegrees>-1.6443589143455028533935546875</LongitudeDegrees>
            </Position>
            <AltitudeMeters>560.20001220703125</AltitudeMeters>
            <DistanceMeters>5552.9310006803</DistanceMeters>
          </Trackpoint>
          <Trackpoint>
            <Time>2022-11-06T10:35:14.000Z</Time>
            <Position>
              <LatitudeDegrees>41.356116123497486114501953125</LatitudeDegrees>
              <LongitudeDegrees>-1.6443569026887416839599609375</LongitudeDegrees>
            </Position>
            <AltitudeMeters>559</AltitudeMeters>
            <DistanceMeters>5556.4328350297</DistanceMeters>
          </Trackpoint>
          <Trackpoint>
            <Time>2022-11-06T10:35:15.000Z</Time>
            <Position>
              <LatitudeDegrees>41.35608318261802196502685546875</LatitudeDegrees>
              <LongitudeDegrees>-1.64436989463865756988525390625</LongitudeDegrees>
            </Position>
            <AltitudeMeters>558.4000244140625</AltitudeMeters>
            <DistanceMeters>5560.2575865039</DistanceMeters>
          </Trackpoint>
          <Trackpoint>
            <Time>2022-11-06T10:35:17.000Z</Time>
            <Position>
              <LatitudeDegrees>41.35601629503071308135986328125</LatitudeDegrees>
              <LongitudeDegrees>-1.64436436258256435394287109375</LongitudeDegrees>
            </Position>
            <AltitudeMeters>557.79998779296875</AltitudeMeters>
            <DistanceMeters>5567.7170322639</DistanceMeters>
          </Trackpoint>
          <Trackpoint>
            <Time>2022-11-06T10:35:20.000Z</Time>
            <Position>
              <LatitudeDegrees>41.3559332303702831268310546875</LatitudeDegrees>
              <LongitudeDegrees>-1.6443589143455028533935546875</LongitudeDegrees>
            </Position>
            <AltitudeMeters>556.79998779296875</AltitudeMeters>
            <DistanceMeters>5576.9732391167</DistanceMeters>
          </Trackpoint>
          <Trackpoint>
            <Time>2022-11-06T10:35:21.000Z</Time>
            <Position>
              <LatitudeDegrees>41.35592401027679443359375</LatitudeDegrees>
              <LongitudeDegrees>-1.64433963596820831298828125</LongitudeDegrees>
            </Position>
            <AltitudeMeters>556.5999755859375</AltitudeMeters>
            <DistanceMeters>5578.8832524369</DistanceMeters>
          </Trackpoint>
          <Trackpoint>
            <Time>2022-11-06T10:35:23.000Z</Time>
            <Position>
              <LatitudeDegrees>41.3559057377278804779052734375</LatitudeDegrees>
              <LongitudeDegrees>-1.644276268780231475830078125</LongitudeDegrees>
            </Position>
            <AltitudeMeters>556.20001220703125</AltitudeMeters>
            <DistanceMeters>5584.5546836754</DistanceMeters>
          </Trackpoint>
          <Trackpoint>
            <Time>2022-11-06T10:35:27.000Z</Time>
            <Position>
              <LatitudeDegrees>41.355862319469451904296875</LatitudeDegrees>
              <LongitudeDegrees>-1.64414341561496257781982421875</LongitudeDegrees>
            </Position>
            <AltitudeMeters>556.79998779296875</AltitudeMeters>
            <DistanceMeters>5596.6604306829</DistanceMeters>
          </Trackpoint>
          <Trackpoint>
            <Time>2022-11-06T10:35:28.000Z</Time>
            <Position>
              <LatitudeDegrees>41.355859972536563873291015625</LatitudeDegrees>
              <LongitudeDegrees>-1.64410955272614955902099609375</LongitudeDegrees>
            </Position>
            <AltitudeMeters>557</AltitudeMeters>
            <DistanceMeters>5599.5017135517</DistanceMeters>
          </Trackpoint>
          <Trackpoint>
            <Time>2022-11-06T10:35:32.000Z</Time>
            <Position>
              <LatitudeDegrees>41.35586659424006938934326171875</LatitudeDegrees>
              <LongitudeDegrees>-1.64399455301463603973388671875</LongitudeDegrees>
            </Position>
            <AltitudeMeters>557.79998779296875</AltitudeMeters>
            <DistanceMeters>5609.1374411318</DistanceMeters>
          </Trackpoint>
          <Trackpoint>
            <Time>2022-11-06T10:35:33.000Z</Time>
            <Position>
              <LatitudeDegrees>41.35584681294858455657958984375</LatitudeDegrees>
              <LongitudeDegrees>-1.64397074840962886810302734375</LongitudeDegrees>
            </Position>
            <AltitudeMeters>558.20001220703125</AltitudeMeters>
            <DistanceMeters>5612.1031273014</DistanceMeters>
          </Trackpoint>
          <Trackpoint>
            <Time>2022-11-06T10:35:36.000Z</Time>
            <Position>
              <LatitudeDegrees>41.35577715933322906494140625</LatitudeDegrees>
              <LongitudeDegrees>-1.64390302263200283050537109375</LongitudeDegrees>
            </Position>
            <AltitudeMeters>559</AltitudeMeters>
            <DistanceMeters>5621.7003550119</DistanceMeters>
          </Trackpoint>
          <Trackpoint>
            <Time>2022-11-06T10:35:38.000Z</Time>
            <Position>
              <LatitudeDegrees>41.355725862085819244384765625</LatitudeDegrees>
              <LongitudeDegrees>-1.6438751108944416046142578125</LongitudeDegrees>
            </Position>
            <AltitudeMeters>558.79998779296875</AltitudeMeters>
            <DistanceMeters>5627.8675814535</DistanceMeters>
          </Trackpoint>
          <Trackpoint>
            <Time>2022-11-06T10:35:39.000Z</Time>
            <Position>
              <LatitudeDegrees>41.3556998781859874725341796875</LatitudeDegrees>
              <LongitudeDegrees>-1.64387754164636135101318359375</LongitudeDegrees>
            </Position>
            <AltitudeMeters>558.79998779296875</AltitudeMeters>
            <DistanceMeters>5630.7686211371</DistanceMeters>
          </Trackpoint>
          <Trackpoint>
            <Time>2022-11-06T10:35:40.000Z</Time>
            <Position>
              <LatitudeDegrees>41.355672217905521392822265625</LatitudeDegrees>
              <LongitudeDegrees>-1.64389883168041706085205078125</LongitudeDegrees>
            </Position>
            <AltitudeMeters>558.79998779296875</AltitudeMeters>
            <DistanceMeters>5634.3241952147</DistanceMeters>
          </Trackpoint>
          <Trackpoint>
            <Time>2022-11-06T10:35:42.000Z</Time>
            <Position>
              <LatitudeDegrees>41.35563123039901256561279296875</LatitudeDegrees>
              <LongitudeDegrees>-1.6439827345311641693115234375</LongitudeDegrees>
            </Position>
            <AltitudeMeters>558.20001220703125</AltitudeMeters>
            <DistanceMeters>5642.688165696</DistanceMeters>
          </Trackpoint>
          <Trackpoint>
            <Time>2022-11-06T10:35:43.000Z</Time>
            <Position>
              <LatitudeDegrees>41.3556093536317348480224609375</LatitudeDegrees>
              <LongitudeDegrees>-1.64398700930178165435791015625</LongitudeDegrees>
            </Position>
            <AltitudeMeters>557.5999755859375</AltitudeMeters>
            <DistanceMeters>5645.1478712104</DistanceMeters>
          </Trackpoint>
          <Trackpoint>
            <Time>2022-11-06T10:35:44.000Z</Time>
            <Position>
              <LatitudeDegrees>41.35559217073023319244384765625</LatitudeDegrees>
              <LongitudeDegrees>-1.6439755260944366455078125</LongitudeDegrees>
            </Position>
            <AltitudeMeters>557.20001220703125</AltitudeMeters>
            <DistanceMeters>5647.2854442923</DistanceMeters>
          </Trackpoint>
          <Trackpoint>
            <Time>2022-11-06T10:35:45.000Z</Time>
            <Position>
              <LatitudeDegrees>41.3555684499442577362060546875</LatitudeDegrees>
              <LongitudeDegrees>-1.64395163767039775848388671875</LongitudeDegrees>
            </Position>
            <AltitudeMeters>556.79998779296875</AltitudeMeters>
            <DistanceMeters>5650.593684406</DistanceMeters>
          </Trackpoint>
          <Trackpoint>
            <Time>2022-11-06T10:35:47.000Z</Time>
            <Position>
              <LatitudeDegrees>41.35551287792623043060302734375</LatitudeDegrees>
              <LongitudeDegrees>-1.64389765821397304534912109375</LongitudeDegrees>
            </Position>
            <AltitudeMeters>556.20001220703125</AltitudeMeters>
            <DistanceMeters>5658.248497666</DistanceMeters>
          </Trackpoint>
          <Trackpoint>
            <Time>2022-11-06T10:35:48.000Z</Time>
            <Position>
              <LatitudeDegrees>41.35547935031354427337646484375</LatitudeDegrees>
              <LongitudeDegrees>-1.6438694112002849578857421875</LongitudeDegrees>
            </Position>
            <AltitudeMeters>556</AltitudeMeters>
            <DistanceMeters>5662.6628951295</DistanceMeters>
          </Trackpoint>
          <Trackpoint>
            <Time>2022-11-06T10:35:51.000Z</Time>
            <Position>
              <LatitudeDegrees>41.35536049492657184600830078125</LatitudeDegrees>
              <LongitudeDegrees>-1.64379305206239223480224609375</LongitudeDegrees>
            </Position>
            <AltitudeMeters>555.20001220703125</AltitudeMeters>
            <DistanceMeters>5677.3496727208</DistanceMeters>
          </Trackpoint>
          <Trackpoint>
            <Time>2022-11-06T10:35:52.000Z</Time>
            <Position>
              <LatitudeDegrees>41.3553290627896785736083984375</LatitudeDegrees>
              <LongitudeDegrees>-1.64376564323902130126953125</LongitudeDegrees>
            </Position>
            <AltitudeMeters>554.5999755859375</AltitudeMeters>
            <DistanceMeters>5681.5308481531</DistanceMeters>
          </Trackpoint>
          <Trackpoint>
            <Time>2022-11-06T10:35:55.000Z</Time>
            <Position>
              <LatitudeDegrees>41.35527399368584156036376953125</LatitudeDegrees>
              <LongitudeDegrees>-1.64370738901197910308837890625</LongitudeDegrees>
            </Position>
            <AltitudeMeters>554</AltitudeMeters>
            <DistanceMeters>5689.3565735791</DistanceMeters>
          </Trackpoint>
          <Trackpoint>
            <Time>2022-11-06T10:35:56.000Z</Time>
            <Position>
              <LatitudeDegrees>41.355271898210048675537109375</LatitudeDegrees>
              <LongitudeDegrees>-1.6436967439949512481689453125</LongitudeDegrees>
            </Position>
            <AltitudeMeters>553.79998779296875</AltitudeMeters>
            <DistanceMeters>5690.2778917574</DistanceMeters>
          </Trackpoint>
          <Trackpoint>
            <Time>2022-11-06T10:35:59.000Z</Time>
            <Position>
              <LatitudeDegrees>41.3552636839449405670166015625</LatitudeDegrees>
              <LongitudeDegrees>-1.64363086223602294921875</LongitudeDegrees>
            </Position>
            <AltitudeMeters>553.4000244140625</AltitudeMeters>
            <DistanceMeters>5695.8570201394</DistanceMeters>
          </Trackpoint>
          <Trackpoint>
            <Time>2022-11-06T10:36:02.000Z</Time>
            <Position>
              <LatitudeDegrees>41.35519444942474365234375</LatitudeDegrees>
              <LongitudeDegrees>-1.643554754555225372314453125</LongitudeDegrees>
            </Position>
            <AltitudeMeters>553.4000244140625</AltitudeMeters>
            <DistanceMeters>5705.8470353976</DistanceMeters>
          </Trackpoint>
          <Trackpoint>
            <Time>2022-11-06T10:36:04.000Z</Time>
            <Position>
              <LatitudeDegrees>41.35513007640838623046875</LatitudeDegrees>
              <LongitudeDegrees>-1.6435311175882816314697265625</LongitudeDegrees>
            </Position>
            <AltitudeMeters>553</AltitudeMeters>
            <DistanceMeters>5713.2785862136</DistanceMeters>
          </Trackpoint>
          <Trackpoint>
            <Time>2022-11-06T10:36:05.000Z</Time>
            <Position>
              <LatitudeDegrees>41.3550940342247486114501953125</LatitudeDegrees>
              <LongitudeDegrees>-1.6435234062373638153076171875</LongitudeDegrees>
            </Position>
            <AltitudeMeters>553</AltitudeMeters>
            <DistanceMeters>5717.3414644716</DistanceMeters>
          </Trackpoint>
          <Trackpoint>
            <Time>2022-11-06T10:36:06.000Z</Time>
            <Position>
              <LatitudeDegrees>41.35505371727049350738525390625</LatitudeDegrees>
              <LongitudeDegrees>-1.64349499158561229705810546875</LongitudeDegrees>
            </Position>
            <AltitudeMeters>552.5999755859375</AltitudeMeters>
            <DistanceMeters>5722.4180615771</DistanceMeters>
          </Trackpoint>
          <Trackpoint>
            <Time>2022-11-06T10:36:08.000Z</Time>
            <Position>
              <LatitudeDegrees>41.3549947924911975860595703125</LatitudeDegrees>
              <LongitudeDegrees>-1.64344738237559795379638671875</LongitudeDegrees>
            </Position>
            <AltitudeMeters>552</AltitudeMeters>
            <DistanceMeters>5730.0887837145</DistanceMeters>
          </Trackpoint>
          <Trackpoint>
            <Time>2022-11-06T10:36:09.000Z</Time>
            <Position>
              <LatitudeDegrees>41.3549736700952053070068359375</LatitudeDegrees>
              <LongitudeDegrees>-1.64343162439763545989990234375</LongitudeDegrees>
            </Position>
            <AltitudeMeters>551.79998779296875</AltitudeMeters>
            <DistanceMeters>5732.7832561045</DistanceMeters>
          </Trackpoint>
          <Trackpoint>
            <Time>2022-11-06T10:36:12.000Z</Time>
            <Position>
              <LatitudeDegrees>41.35486923158168792724609375</LatitudeDegrees>
              <LongitudeDegrees>-1.643354259431362152099609375</LongitudeDegrees>
            </Position>
            <AltitudeMeters>551.4000244140625</AltitudeMeters>
            <DistanceMeters>5746.0829229193</DistanceMeters>
          </Trackpoint>
          <Trackpoint>
            <Time>2022-11-06T10:36:15.000Z</Time>
            <Position>
              <LatitudeDegrees>41.35477359406650066375732421875</LatitudeDegrees>
              <LongitudeDegrees>-1.64332098327577114105224609375</LongitudeDegrees>
            </Position>
            <AltitudeMeters>550.5999755859375</AltitudeMeters>
            <DistanceMeters>5757.0842916786</DistanceMeters>
          </Trackpoint>
          <Trackpoint>
            <Time>2022-11-06T10:36:21.000Z</Time>
            <Position>
              <LatitudeDegrees>41.35459891520440578460693359375</LatitudeDegrees>
              <LongitudeDegrees>-1.64320581592619419097900390625</LongitudeDegrees>
            </Position>
            <AltitudeMeters>549.5999755859375</AltitudeMeters>
            <DistanceMeters>5778.7770403207</DistanceMeters>
          </Trackpoint>
          <Trackpoint>
            <Time>2022-11-06T10:36:22.000Z</Time>
            <Position>
              <LatitudeDegrees>41.35456941090524196624755859375</LatitudeDegrees>
              <LongitudeDegrees>-1.64320640265941619873046875</LongitudeDegrees>
            </Position>
            <AltitudeMeters>549.4000244140625</AltitudeMeters>
            <DistanceMeters>5782.0606224004</DistanceMeters>
          </Trackpoint>
          <Trackpoint>
            <Time>2022-11-06T10:36:24.000Z</Time>
            <Position>
              <LatitudeDegrees>41.3545126654207706451416015625</LatitudeDegrees>
              <LongitudeDegrees>-1.6432431153953075408935546875</LongitudeDegrees>
            </Position>
            <AltitudeMeters>549.20001220703125</AltitudeMeters>
            <DistanceMeters>5789.0823185903</DistanceMeters>
          </Trackpoint>
          <Trackpoint>
            <Time>2022-11-06T10:37:02.000Z</Time>
            <Position>
              <LatitudeDegrees>41.35417311452329158782958984375</LatitudeDegrees>
              <LongitudeDegrees>-1.64336389862000942230224609375</LongitudeDegrees>
            </Position>
            <AltitudeMeters>548.79998779296875</AltitudeMeters>
            <DistanceMeters>5828.1990587818</DistanceMeters>
          </Trackpoint>
          <Trackpoint>
            <Time>2022-11-06T10:37:05.000Z</Time>
            <Position>
              <LatitudeDegrees>41.3541006110608577728271484375</LatitudeDegrees>
              <LongitudeDegrees>-1.64334311150014400482177734375</LongitudeDegrees>
            </Position>
            <AltitudeMeters>548.79998779296875</AltitudeMeters>
            <DistanceMeters>5836.4538123726</DistanceMeters>
          </Trackpoint>
          <Trackpoint>
            <Time>2022-11-06T10:37:07.000Z</Time>
            <Position>
              <LatitudeDegrees>41.35402944870293140411376953125</LatitudeDegrees>
              <LongitudeDegrees>-1.64337110705673694610595703125</LongitudeDegrees>
            </Position>
            <AltitudeMeters>548.79998779296875</AltitudeMeters>
            <DistanceMeters>5844.7118470847</DistanceMeters>
          </Trackpoint>
          <Trackpoint>
            <Time>2022-11-06T10:37:08.000Z</Time>
            <Position>
              <LatitudeDegrees>41.3540265150368213653564453125</LatitudeDegrees>
              <LongitudeDegrees>-1.643403880298137664794921875</LongitudeDegrees>
            </Position>
            <AltitudeMeters>548.79998779296875</AltitudeMeters>
            <DistanceMeters>5847.4692597063</DistanceMeters>
          </Trackpoint>
          <Trackpoint>
            <Time>2022-11-06T10:37:10.000Z</Time>
            <Position>
              <LatitudeDegrees>41.35406716726720333099365234375</LatitudeDegrees>
              <LongitudeDegrees>-1.64347068406641483306884765625</LongitudeDegrees>
            </Position>
            <AltitudeMeters>548.79998779296875</AltitudeMeters>
            <DistanceMeters>5854.6543099517</DistanceMeters>
          </Trackpoint>
          <Trackpoint>
            <Time>2022-11-06T10:37:11.000Z</Time>
            <Position>
              <LatitudeDegrees>41.35409004986286163330078125</LatitudeDegrees>
              <LongitudeDegrees>-1.6434996016323566436767578125</LongitudeDegrees>
            </Position>
            <AltitudeMeters>548.79998779296875</AltitudeMeters>
            <DistanceMeters>5858.1638717862</DistanceMeters>
          </Trackpoint>
          <Trackpoint>
            <Time>2022-11-06T10:37:13.000Z</Time>
            <Position>
              <LatitudeDegrees>41.35415433906018733978271484375</LatitudeDegrees>
              <LongitudeDegrees>-1.6435361467301845550537109375</LongitudeDegrees>
            </Position>
            <AltitudeMeters>549</AltitudeMeters>
            <DistanceMeters>5865.9433044343</DistanceMeters>
          </Trackpoint>
          <Trackpoint>
            <Time>2022-11-06T10:37:14.000Z</Time>
            <Position>
              <LatitudeDegrees>41.3541904650628566741943359375</LatitudeDegrees>
              <LongitudeDegrees>-1.64355500601232051849365234375</LongitudeDegrees>
            </Position>
            <AltitudeMeters>549</AltitudeMeters>
            <DistanceMeters>5870.2625795973</DistanceMeters>
          </Trackpoint>
          <Trackpoint>
            <Time>2022-11-06T10:37:17.000Z</Time>
            <Position>
              <LatitudeDegrees>41.3542813248932361602783203125</LatitudeDegrees>
              <LongitudeDegrees>-1.64365139789879322052001953125</LongitudeDegrees>
            </Position>
            <AltitudeMeters>549</AltitudeMeters>
            <DistanceMeters>5883.1904044269</DistanceMeters>
          </Trackpoint>
          <Trackpoint>
            <Time>2022-11-06T10:37:18.000Z</Time>
            <Position>
              <LatitudeDegrees>41.35428710840642452239990234375</LatitudeDegrees>
              <LongitudeDegrees>-1.64369967766106128692626953125</LongitudeDegrees>
            </Position>
            <AltitudeMeters>549.20001220703125</AltitudeMeters>
            <DistanceMeters>5887.2754480335</DistanceMeters>
          </Trackpoint>
          <Trackpoint>
            <Time>2022-11-06T10:37:20.000Z</Time>
            <Position>
              <LatitudeDegrees>41.3542866893112659454345703125</LatitudeDegrees>
              <LongitudeDegrees>-1.64380453526973724365234375</LongitudeDegrees>
            </Position>
            <AltitudeMeters>549.4000244140625</AltitudeMeters>
            <DistanceMeters>5896.0359628413</DistanceMeters>
          </Trackpoint>
          <Trackpoint>
            <Time>2022-11-06T10:37:21.000Z</Time>
            <Position>
              <LatitudeDegrees>41.35428241454064846038818359375</LatitudeDegrees>
              <LongitudeDegrees>-1.64384300820529460906982421875</LongitudeDegrees>
            </Position>
            <AltitudeMeters>549.4000244140625</AltitudeMeters>
            <DistanceMeters>5899.2835972552</DistanceMeters>
          </Trackpoint>
          <Trackpoint>
            <Time>2022-11-06T10:37:22.000Z</Time>
            <Position>
              <LatitudeDegrees>41.354276798665523529052734375</LatitudeDegrees>
              <LongitudeDegrees>-1.64390067569911479949951171875</LongitudeDegrees>
            </Position>
            <AltitudeMeters>549.4000244140625</AltitudeMeters>
            <DistanceMeters>5904.1411264366</DistanceMeters>
          </Trackpoint>
          <Trackpoint>
            <Time>2022-11-06T10:37:23.000Z</Time>
            <Position>
              <LatitudeDegrees>41.354274451732635498046875</LatitudeDegrees>
              <LongitudeDegrees>-1.64396052248775959014892578125</LongitudeDegrees>
            </Position>
            <AltitudeMeters>549.5999755859375</AltitudeMeters>
            <DistanceMeters>5909.1478711084</DistanceMeters>
          </Trackpoint>
          <Trackpoint>
            <Time>2022-11-06T10:37:24.000Z</Time>
            <Position>
              <LatitudeDegrees>41.35425500571727752685546875</LatitudeDegrees>
              <LongitudeDegrees>-1.6440142504870891571044921875</LongitudeDegrees>
            </Position>
            <AltitudeMeters>549.5999755859375</AltitudeMeters>
            <DistanceMeters>5914.1311140506</DistanceMeters>
          </Trackpoint>
          <Trackpoint>
            <Time>2022-11-06T10:37:25.000Z</Time>
            <Position>
              <LatitudeDegrees>41.35423731990158557891845703125</LatitudeDegrees>
              <LongitudeDegrees>-1.644070409238338470458984375</LongitudeDegrees>
            </Position>
            <AltitudeMeters>549.5999755859375</AltitudeMeters>
            <DistanceMeters>5919.2201472831</DistanceMeters>
          </Trackpoint>
          <Trackpoint>
            <Time>2022-11-06T10:37:31.000Z</Time>
            <Position>
              <LatitudeDegrees>41.35415182448923587799072265625</LatitudeDegrees>
              <LongitudeDegrees>-1.64442337118089199066162109375</LongitudeDegrees>
            </Position>
            <AltitudeMeters>550</AltitudeMeters>
            <DistanceMeters>5950.2065797691</DistanceMeters>
          </Trackpoint>
          <Trackpoint>
            <Time>2022-11-06T10:37:33.000Z</Time>
            <Position>
              <LatitudeDegrees>41.35408175177872180938720703125</LatitudeDegrees>
              <LongitudeDegrees>-1.6445201821625232696533203125</LongitudeDegrees>
            </Position>
            <AltitudeMeters>549.79998779296875</AltitudeMeters>
            <DistanceMeters>5961.4422581503</DistanceMeters>
          </Trackpoint>
          <Trackpoint>
            <Time>2022-11-06T10:37:34.000Z</Time>
            <Position>
              <LatitudeDegrees>41.3540375791490077972412109375</LatitudeDegrees>
              <LongitudeDegrees>-1.6445744968950748443603515625</LongitudeDegrees>
            </Position>
            <AltitudeMeters>549.79998779296875</AltitudeMeters>
            <DistanceMeters>5968.1327057387</DistanceMeters>
          </Trackpoint>
          <Trackpoint>
            <Time>2022-11-06T10:37:35.000Z</Time>
            <Position>
              <LatitudeDegrees>41.35400899685919284820556640625</LatitudeDegrees>
              <LongitudeDegrees>-1.644653119146823883056640625</LongitudeDegrees>
            </Position>
            <AltitudeMeters>549.5999755859375</AltitudeMeters>
            <DistanceMeters>5975.4312275714</DistanceMeters>
          </Trackpoint>
          <Trackpoint>
            <Time>2022-11-06T10:37:40.000Z</Time>
            <Position>
              <LatitudeDegrees>41.3538307137787342071533203125</LatitudeDegrees>
              <LongitudeDegrees>-1.64509526453912258148193359375</LongitudeDegrees>
            </Position>
            <AltitudeMeters>548.4000244140625</AltitudeMeters>
            <DistanceMeters>6017.3637505718</DistanceMeters>
          </Trackpoint>
          <Trackpoint>
            <Time>2022-11-06T10:37:41.000Z</Time>
            <Position>
              <LatitudeDegrees>41.35379643179476261138916015625</LatitudeDegrees>
              <LongitudeDegrees>-1.64515628479421138763427734375</LongitudeDegrees>
            </Position>
            <AltitudeMeters>548.20001220703125</AltitudeMeters>
            <DistanceMeters>6023.7312495497</DistanceMeters>
          </Trackpoint>
          <Trackpoint>
            <Time>2022-11-06T10:37:43.000Z</Time>
            <Position>
              <LatitudeDegrees>41.35370221920311450958251953125</LatitudeDegrees>
              <LongitudeDegrees>-1.64530120790004730224609375</LongitudeDegrees>
            </Position>
            <AltitudeMeters>548</AltitudeMeters>
            <DistanceMeters>6039.7488190259</DistanceMeters>
          </Trackpoint>
          <Trackpoint>
            <Time>2022-11-06T10:37:44.000Z</Time>
            <Position>
              <LatitudeDegrees>41.353657878935337066650390625</LatitudeDegrees>
              <LongitudeDegrees>-1.64537706412374973297119140625</LongitudeDegrees>
            </Position>
            <AltitudeMeters>548</AltitudeMeters>
            <DistanceMeters>6047.7818088969</DistanceMeters>
          </Trackpoint>
          <Trackpoint>
            <Time>2022-11-06T10:37:47.000Z</Time>
            <Position>
              <LatitudeDegrees>41.35355536825954914093017578125</LatitudeDegrees>
              <LongitudeDegrees>-1.6456426866352558135986328125</LongitudeDegrees>
            </Position>
            <AltitudeMeters>547.4000244140625</AltitudeMeters>
            <DistanceMeters>6072.7353247067</DistanceMeters>
          </Trackpoint>
          <Trackpoint>
            <Time>2022-11-06T10:37:48.000Z</Time>
            <Position>
              <LatitudeDegrees>41.35352435521781444549560546875</LatitudeDegrees>
              <LongitudeDegrees>-1.6457379050552845001220703125</LongitudeDegrees>
            </Position>
            <AltitudeMeters>547.20001220703125</AltitudeMeters>
            <DistanceMeters>6081.4067401938</DistanceMeters>
          </Trackpoint>
          <Trackpoint>
            <Time>2022-11-06T10:37:50.000Z</Time>
            <Position>
              <LatitudeDegrees>41.353450007736682891845703125</LatitudeDegrees>
              <LongitudeDegrees>-1.64594627916812896728515625</LongitudeDegrees>
            </Position>
            <AltitudeMeters>547.20001220703125</AltitudeMeters>
            <DistanceMeters>6100.6824120462</DistanceMeters>
          </Trackpoint>
          <Trackpoint>
            <Time>2022-11-06T10:37:51.000Z</Time>
            <Position>
              <LatitudeDegrees>41.35341220535337924957275390625</LatitudeDegrees>
              <LongitudeDegrees>-1.64605214260518550872802734375</LongitudeDegrees>
            </Position>
            <AltitudeMeters>547.20001220703125</AltitudeMeters>
            <DistanceMeters>6110.4770806032</DistanceMeters>
          </Trackpoint>
          <Trackpoint>
            <Time>2022-11-06T10:37:53.000Z</Time>
            <Position>
              <LatitudeDegrees>41.35331011377274990081787109375</LatitudeDegrees>
              <LongitudeDegrees>-1.646257080137729644775390625</LongitudeDegrees>
            </Position>
            <AltitudeMeters>546.79998779296875</AltitudeMeters>
            <DistanceMeters>6131.0265938535</DistanceMeters>
          </Trackpoint>
          <Trackpoint>
            <Time>2022-11-06T10:37:55.000Z</Time>
            <Position>
              <LatitudeDegrees>41.35325378738343715667724609375</LatitudeDegrees>
              <LongitudeDegrees>-1.64643041789531707763671875</LongitudeDegrees>
            </Position>
            <AltitudeMeters>546.79998779296875</AltitudeMeters>
            <DistanceMeters>6146.8073241336</DistanceMeters>
          </Trackpoint>
          <Trackpoint>
            <Time>2022-11-06T10:37:56.000Z</Time>
            <Position>
              <LatitudeDegrees>41.3532349281013011932373046875</LatitudeDegrees>
              <LongitudeDegrees>-1.6465050168335437774658203125</LongitudeDegrees>
            </Position>
            <AltitudeMeters>546.79998779296875</AltitudeMeters>
            <DistanceMeters>6153.3841064902</DistanceMeters>
          </Trackpoint>
          <Trackpoint>
            <Time>2022-11-06T10:37:57.000Z</Time>
            <Position>
              <LatitudeDegrees>41.3532198406755924224853515625</LatitudeDegrees>
              <LongitudeDegrees>-1.6465794481337070465087890625</LongitudeDegrees>
            </Position>
            <AltitudeMeters>546.79998779296875</AltitudeMeters>
            <DistanceMeters>6159.8256281474</DistanceMeters>
          </Trackpoint>
          <Trackpoint>
            <Time>2022-11-06T10:37:58.000Z</Time>
            <Position>
              <LatitudeDegrees>41.35320936329662799835205078125</LatitudeDegrees>
              <LongitudeDegrees>-1.64664608426392078399658203125</LongitudeDegrees>
            </Position>
            <AltitudeMeters>547</AltitudeMeters>
            <DistanceMeters>6165.5137529613</DistanceMeters>
          </Trackpoint>
          <Trackpoint>
            <Time>2022-11-06T10:37:59.000Z</Time>
            <Position>
              <LatitudeDegrees>41.35320751927793025970458984375</LatitudeDegrees>
              <LongitudeDegrees>-1.6467169113457202911376953125</LongitudeDegrees>
            </Position>
            <AltitudeMeters>547.20001220703125</AltitudeMeters>
            <DistanceMeters>6171.4344587263</DistanceMeters>
          </Trackpoint>
          <Trackpoint>
            <Time>2022-11-06T10:38:00.000Z</Time>
            <Position>
              <LatitudeDegrees>41.3532141409814357757568359375</LatitudeDegrees>
              <LongitudeDegrees>-1.646784134209156036376953125</LongitudeDegrees>
            </Position>
            <AltitudeMeters>547.5999755859375</AltitudeMeters>
            <DistanceMeters>6177.0987205145</DistanceMeters>
          </Trackpoint>
          <Trackpoint>
            <Time>2022-11-06T10:38:01.000Z</Time>
            <Position>
              <LatitudeDegrees>41.35323819704353809356689453125</LatitudeDegrees>
              <LongitudeDegrees>-1.6468436457216739654541015625</LongitudeDegrees>
            </Position>
            <AltitudeMeters>548</AltitudeMeters>
            <DistanceMeters>6182.7462181904</DistanceMeters>
          </Trackpoint>
          <Trackpoint>
            <Time>2022-11-06T10:38:02.000Z</Time>
            <Position>
              <LatitudeDegrees>41.353272311389446258544921875</LatitudeDegrees>
              <LongitudeDegrees>-1.64689670316874980926513671875</LongitudeDegrees>
            </Position>
            <AltitudeMeters>548.20001220703125</AltitudeMeters>
            <DistanceMeters>6188.5832104316</DistanceMeters>
          </Trackpoint>
          <Trackpoint>
            <Time>2022-11-06T10:38:03.000Z</Time>
            <Position>
              <LatitudeDegrees>41.353308856487274169921875</LatitudeDegrees>
              <LongitudeDegrees>-1.646939702332019805908203125</LongitudeDegrees>
            </Position>
            <AltitudeMeters>548.20001220703125</AltitudeMeters>
            <DistanceMeters>6194.0097267435</DistanceMeters>
          </Trackpoint>
          <Trackpoint>
            <Time>2022-11-06T10:38:04.000Z</Time>
            <Position>
              <LatitudeDegrees>41.35334665887057781219482421875</LatitudeDegrees>
              <LongitudeDegrees>-1.6469834558665752410888671875</LongitudeDegrees>
            </Position>
            <AltitudeMeters>548.4000244140625</AltitudeMeters>
            <DistanceMeters>6199.5831873352</DistanceMeters>
          </Trackpoint>
          <Trackpoint>
            <Time>2022-11-06T10:38:05.000Z</Time>
            <Position>
              <LatitudeDegrees>41.35338186286389827728271484375</LatitudeDegrees>
              <LongitudeDegrees>-1.64702595211565494537353515625</LongitudeDegrees>
            </Position>
            <AltitudeMeters>548.4000244140625</AltitudeMeters>
            <DistanceMeters>6204.8706363109</DistanceMeters>
          </Trackpoint>
          <Trackpoint>
            <Time>2022-11-06T10:38:06.000Z</Time>
            <Position>
              <LatitudeDegrees>41.3534174859523773193359375</LatitudeDegrees>
              <LongitudeDegrees>-1.64706836454570293426513671875</LongitudeDegrees>
            </Position>
            <AltitudeMeters>548.4000244140625</AltitudeMeters>
            <DistanceMeters>6210.1887374215</DistanceMeters>
          </Trackpoint>
          <Trackpoint>
            <Time>2022-11-06T10:38:07.000Z</Time>
            <Position>
              <LatitudeDegrees>41.35344673879444599151611328125</LatitudeDegrees>
              <LongitudeDegrees>-1.6471168957650661468505859375</LongitudeDegrees>
            </Position>
            <AltitudeMeters>548.4000244140625</AltitudeMeters>
            <DistanceMeters>6215.3892257591</DistanceMeters>
          </Trackpoint>
          <Trackpoint>
            <Time>2022-11-06T10:38:08.000Z</Time>
            <Position>
              <LatitudeDegrees>41.353482864797115325927734375</LatitudeDegrees>
              <LongitudeDegrees>-1.6471611522138118743896484375</LongitudeDegrees>
            </Position>
            <AltitudeMeters>548.79998779296875</AltitudeMeters>
            <DistanceMeters>6220.8514023006</DistanceMeters>
          </Trackpoint>
          <Trackpoint>
            <Time>2022-11-06T10:38:11.000Z</Time>
            <Position>
              <LatitudeDegrees>41.3535998761653900146484375</LatitudeDegrees>
              <LongitudeDegrees>-1.6472734697163105010986328125</LongitudeDegrees>
            </Position>
            <AltitudeMeters>549.20001220703125</AltitudeMeters>
            <DistanceMeters>6236.9038868873</DistanceMeters>
          </Trackpoint>
          <Trackpoint>
            <Time>2022-11-06T10:38:12.000Z</Time>
            <Position>
              <LatitudeDegrees>41.353636085987091064453125</LatitudeDegrees>
              <LongitudeDegrees>-1.64731085300445556640625</LongitudeDegrees>
            </Position>
            <AltitudeMeters>549.4000244140625</AltitudeMeters>
            <DistanceMeters>6242.0017844937</DistanceMeters>
          </Trackpoint>
          <Trackpoint>
            <Time>2022-11-06T10:38:13.000Z</Time>
            <Position>
              <LatitudeDegrees>41.3536724634468555450439453125</LatitudeDegrees>
              <LongitudeDegrees>-1.64734303951263427734375</LongitudeDegrees>
            </Position>
            <AltitudeMeters>549.4000244140625</AltitudeMeters>
            <DistanceMeters>6246.8621013535</DistanceMeters>
          </Trackpoint>
          <Trackpoint>
            <Time>2022-11-06T10:38:14.000Z</Time>
            <Position>
              <LatitudeDegrees>41.3537066616117954254150390625</LatitudeDegrees>
              <LongitudeDegrees>-1.64737380109727382659912109375</LongitudeDegrees>
            </Position>
            <AltitudeMeters>549.5999755859375</AltitudeMeters>
            <DistanceMeters>6251.4549499873</DistanceMeters>
          </Trackpoint>
          <Trackpoint>
            <Time>2022-11-06T10:38:15.000Z</Time>
            <Position>
              <LatitudeDegrees>41.35373868048191070556640625</LatitudeDegrees>
              <LongitudeDegrees>-1.64740649051964282989501953125</LongitudeDegrees>
            </Position>
            <AltitudeMeters>550</AltitudeMeters>
            <DistanceMeters>6255.9443965704</DistanceMeters>
          </Trackpoint>
          <Trackpoint>
            <Time>2022-11-06T10:38:16.000Z</Time>
            <Position>
              <LatitudeDegrees>41.35377011261880397796630859375</LatitudeDegrees>
              <LongitudeDegrees>-1.64743917994201183319091796875</LongitudeDegrees>
            </Position>
            <AltitudeMeters>550.20001220703125</AltitudeMeters>
            <DistanceMeters>6260.3812385383</DistanceMeters>
          </Trackpoint>
          <Trackpoint>
            <Time>2022-11-06T10:38:17.000Z</Time>
            <Position>
              <LatitudeDegrees>41.35379768908023834228515625</LatitudeDegrees>
              <LongitudeDegrees>-1.64747513830661773681640625</LongitudeDegrees>
            </Position>
            <AltitudeMeters>550.4000244140625</AltitudeMeters>
            <DistanceMeters>6264.6774550426</DistanceMeters>
          </Trackpoint>
          <Trackpoint>
            <Time>2022-11-06T10:38:18.000Z</Time>
            <Position>
              <LatitudeDegrees>41.35382375679910182952880859375</LatitudeDegrees>
              <LongitudeDegrees>-1.64751327596604824066162109375</LongitudeDegrees>
            </Position>
            <AltitudeMeters>550.5999755859375</AltitudeMeters>
            <DistanceMeters>6268.9862642944</DistanceMeters>
          </Trackpoint>
          <Trackpoint>
            <Time>2022-11-06T10:38:19.000Z</Time>
            <Position>
              <LatitudeDegrees>41.35385124944150447845458984375</LatitudeDegrees>
              <LongitudeDegrees>-1.6475470550358295440673828125</LongitudeDegrees>
            </Position>
            <AltitudeMeters>550.5999755859375</AltitudeMeters>
            <DistanceMeters>6273.1501262965</DistanceMeters>
          </Trackpoint>
          <Trackpoint>
            <Time>2022-11-06T10:38:20.000Z</Time>
            <Position>
              <LatitudeDegrees>41.35388217866420745849609375</LatitudeDegrees>
              <LongitudeDegrees>-1.647576726973056793212890625</LongitudeDegrees>
            </Position>
            <AltitudeMeters>551</AltitudeMeters>
            <DistanceMeters>6277.3934707828</DistanceMeters>
          </Trackpoint>
          <Trackpoint>
            <Time>2022-11-06T10:38:21.000Z</Time>
            <Position>
              <LatitudeDegrees>41.3539155386388301849365234375</LatitudeDegrees>
              <LongitudeDegrees>-1.6476045548915863037109375</LongitudeDegrees>
            </Position>
            <AltitudeMeters>551.20001220703125</AltitudeMeters>
            <DistanceMeters>6281.7729550409</DistanceMeters>
          </Trackpoint>
          <Trackpoint>
            <Time>2022-11-06T10:38:22.000Z</Time>
            <Position>
              <LatitudeDegrees>41.35394948534667491912841796875</LatitudeDegrees>
              <LongitudeDegrees>-1.6476328857243061065673828125</LongitudeDegrees>
            </Position>
            <AltitudeMeters>551.4000244140625</AltitudeMeters>
            <DistanceMeters>6286.2301030277</DistanceMeters>
          </Trackpoint>
          <Trackpoint>
            <Time>2022-11-06T10:38:23.000Z</Time>
            <Position>
              <LatitudeDegrees>41.3539832644164562225341796875</LatitudeDegrees>
              <LongitudeDegrees>-1.64766616187989711761474609375</LongitudeDegrees>
            </Position>
            <AltitudeMeters>551.5999755859375</AltitudeMeters>
            <DistanceMeters>6290.9057650205</DistanceMeters>
          </Trackpoint>
          <Trackpoint>
            <Time>2022-11-06T10:38:24.000Z</Time>
            <Position>
              <LatitudeDegrees>41.35401360690593719482421875</LatitudeDegrees>
              <LongitudeDegrees>-1.6476972587406635284423828125</LongitudeDegrees>
            </Position>
            <AltitudeMeters>551.5999755859375</AltitudeMeters>
            <DistanceMeters>6295.1660999431</DistanceMeters>
          </Trackpoint>
          <Trackpoint>
            <Time>2022-11-06T10:38:25.000Z</Time>
            <Position>
              <LatitudeDegrees>41.35404503904283046722412109375</LatitudeDegrees>
              <LongitudeDegrees>-1.64772785268723964691162109375</LongitudeDegrees>
            </Position>
            <AltitudeMeters>551.79998779296875</AltitudeMeters>
            <DistanceMeters>6299.4979008215</DistanceMeters>
          </Trackpoint>
          <Trackpoint>
            <Time>2022-11-06T10:38:26.000Z</Time>
            <Position>
              <LatitudeDegrees>41.35406767018139362335205078125</LatitudeDegrees>
              <LongitudeDegrees>-1.64776875637471675872802734375</LongitudeDegrees>
            </Position>
            <AltitudeMeters>552</AltitudeMeters>
            <DistanceMeters>6303.7423092026</DistanceMeters>
          </Trackpoint>
          <Trackpoint>
            <Time>2022-11-06T10:38:27.000Z</Time>
            <Position>
              <LatitudeDegrees>41.3540895469486713409423828125</LatitudeDegrees>
              <LongitudeDegrees>-1.647809408605098724365234375</LongitudeDegrees>
            </Position>
            <AltitudeMeters>552.20001220703125</AltitudeMeters>
            <DistanceMeters>6307.9213243788</DistanceMeters>
          </Trackpoint>
          <Trackpoint>
            <Time>2022-11-06T10:38:28.000Z</Time>
            <Position>
              <LatitudeDegrees>41.3541094958782196044921875</LatitudeDegrees>
              <LongitudeDegrees>-1.6478467918932437896728515625</LongitudeDegrees>
            </Position>
            <AltitudeMeters>552.4000244140625</AltitudeMeters>
            <DistanceMeters>6311.75315218</DistanceMeters>
          </Trackpoint>
          <Trackpoint>
            <Time>2022-11-06T10:38:29.000Z</Time>
            <Position>
              <LatitudeDegrees>41.3541227392852306365966796875</LatitudeDegrees>
              <LongitudeDegrees>-1.64788023568689823150634765625</LongitudeDegrees>
            </Position>
            <AltitudeMeters>552.79998779296875</AltitudeMeters>
            <DistanceMeters>6314.9105568728</DistanceMeters>
          </Trackpoint>
          <Trackpoint>
            <Time>2022-11-06T10:38:30.000Z</Time>
            <Position>
              <LatitudeDegrees>41.354133971035480499267578125</LatitudeDegrees>
              <LongitudeDegrees>-1.64791770279407501220703125</LongitudeDegrees>
            </Position>
            <AltitudeMeters>553</AltitudeMeters>
            <DistanceMeters>6318.2809924776</DistanceMeters>
          </Trackpoint>
          <Trackpoint>
            <Time>2022-11-06T10:38:31.000Z</Time>
            <Position>
              <LatitudeDegrees>41.35413958691060543060302734375</LatitudeDegrees>
              <LongitudeDegrees>-1.64795902557671070098876953125</LongitudeDegrees>
            </Position>
            <AltitudeMeters>553.4000244140625</AltitudeMeters>
            <DistanceMeters>6321.7892675799</DistanceMeters>
          </Trackpoint>
          <Trackpoint>
            <Time>2022-11-06T10:38:32.000Z</Time>
            <Position>
              <LatitudeDegrees>41.35414394550025463104248046875</LatitudeDegrees>
              <LongitudeDegrees>-1.64799657650291919708251953125</LongitudeDegrees>
            </Position>
            <AltitudeMeters>553.79998779296875</AltitudeMeters>
            <DistanceMeters>6324.9637857026</DistanceMeters>
          </Trackpoint>
          <Trackpoint>
            <Time>2022-11-06T10:38:33.000Z</Time>
            <Position>
              <LatitudeDegrees>41.354144699871540069580078125</LatitudeDegrees>
              <LongitudeDegrees>-1.64803178049623966217041015625</LongitudeDegrees>
            </Position>
            <AltitudeMeters>554</AltitudeMeters>
            <DistanceMeters>6327.9065468736</DistanceMeters>
          </Trackpoint>
          <Trackpoint>
            <Time>2022-11-06T10:38:34.000Z</Time>
            <Position>
              <LatitudeDegrees>41.35414025746285915374755859375</LatitudeDegrees>
              <LongitudeDegrees>-1.6480714268982410430908203125</LongitudeDegrees>
            </Position>
            <AltitudeMeters>554.4000244140625</AltitudeMeters>
            <DistanceMeters>6331.2554802775</DistanceMeters>
          </Trackpoint>
          <Trackpoint>
            <Time>2022-11-06T10:38:35.000Z</Time>
            <Position>
              <LatitudeDegrees>41.35413774289190769195556640625</LatitudeDegrees>
              <LongitudeDegrees>-1.6481119953095912933349609375</LongitudeDegrees>
            </Position>
            <AltitudeMeters>554.4000244140625</AltitudeMeters>
            <DistanceMeters>6334.6552593656</DistanceMeters>
          </Trackpoint>
          <Trackpoint>
            <Time>2022-11-06T10:38:36.000Z</Time>
            <Position>
              <LatitudeDegrees>41.35413874872028827667236328125</LatitudeDegrees>
              <LongitudeDegrees>-1.64815281517803668975830078125</LongitudeDegrees>
            </Position>
            <AltitudeMeters>554.5999755859375</AltitudeMeters>
            <DistanceMeters>6338.0682930034</DistanceMeters>
          </Trackpoint>
          <Trackpoint>
            <Time>2022-11-06T10:38:37.000Z</Time>
            <Position>
              <LatitudeDegrees>41.3541371561586856842041015625</LatitudeDegrees>
              <LongitudeDegrees>-1.64819053374230861663818359375</LongitudeDegrees>
            </Position>
            <AltitudeMeters>555.20001220703125</AltitudeMeters>
            <DistanceMeters>6341.2256976962</DistanceMeters>
          </Trackpoint>
          <Trackpoint>
            <Time>2022-11-06T10:38:38.000Z</Time>
            <Position>
              <LatitudeDegrees>41.354129612445831298828125</LatitudeDegrees>
              <LongitudeDegrees>-1.6482246480882167816162109375</LongitudeDegrees>
            </Position>
            <AltitudeMeters>555.4000244140625</AltitudeMeters>
            <DistanceMeters>6344.197467331</DistanceMeters>
          </Trackpoint>
          <Trackpoint>
            <Time>2022-11-06T10:38:39.000Z</Time>
            <Position>
              <LatitudeDegrees>41.3541240803897380828857421875</LatitudeDegrees>
              <LongitudeDegrees>-1.6482601873576641082763671875</LongitudeDegrees>
            </Position>
            <AltitudeMeters>555.5999755859375</AltitudeMeters>
            <DistanceMeters>6347.2294003481</DistanceMeters>
          </Trackpoint>
          <Trackpoint>
            <Time>2022-11-06T10:38:40.000Z</Time>
            <Position>
              <LatitudeDegrees>41.35412047617137432098388671875</LatitudeDegrees>
              <LongitudeDegrees>-1.6482953913509845733642578125</LongitudeDegrees>
            </Position>
            <AltitudeMeters>555.79998779296875</AltitudeMeters>
            <DistanceMeters>6350.1966085533</DistanceMeters>
          </Trackpoint>
          <Trackpoint>
            <Time>2022-11-06T10:38:41.000Z</Time>
            <Position>
              <LatitudeDegrees>41.35411729104816913604736328125</LatitudeDegrees>
              <LongitudeDegrees>-1.648330427706241607666015625</LongitudeDegrees>
            </Position>
            <AltitudeMeters>556.20001220703125</AltitudeMeters>
            <DistanceMeters>6353.1455004834</DistanceMeters>
          </Trackpoint>
          <Trackpoint>
            <Time>2022-11-06T10:38:42.000Z</Time>
            <Position>
              <LatitudeDegrees>41.3541123457252979278564453125</LatitudeDegrees>
              <LongitudeDegrees>-1.648365966975688934326171875</LongitudeDegrees>
            </Position>
            <AltitudeMeters>556.4000244140625</AltitudeMeters>
            <DistanceMeters>6356.1654967099</DistanceMeters>
          </Trackpoint>
          <Trackpoint>
            <Time>2022-11-06T10:38:43.000Z</Time>
            <Position>
              <LatitudeDegrees>41.3541049696505069732666015625</LatitudeDegrees>
              <LongitudeDegrees>-1.64840930141508579254150390625</LongitudeDegrees>
            </Position>
            <AltitudeMeters>556.5999755859375</AltitudeMeters>
            <DistanceMeters>6359.8776250285</DistanceMeters>
          </Trackpoint>
          <Trackpoint>
            <Time>2022-11-06T10:38:44.000Z</Time>
            <Position>
              <LatitudeDegrees>41.35410555638372898101806640625</LatitudeDegrees>
              <LongitudeDegrees>-1.6484412364661693572998046875</LongitudeDegrees>
            </Position>
            <AltitudeMeters>556.79998779296875</AltitudeMeters>
            <DistanceMeters>6362.5468440743</DistanceMeters>
          </Trackpoint>
          <Trackpoint>
            <Time>2022-11-06T10:38:45.000Z</Time>
            <Position>
              <LatitudeDegrees>41.3541068136692047119140625</LatitudeDegrees>
              <LongitudeDegrees>-1.64847786538302898406982421875</LongitudeDegrees>
            </Position>
            <AltitudeMeters>557</AltitudeMeters>
            <DistanceMeters>6365.6113635312</DistanceMeters>
          </Trackpoint>
          <Trackpoint>
            <Time>2022-11-06T10:38:46.000Z</Time>
            <Position>
              <LatitudeDegrees>41.354106478393077850341796875</LatitudeDegrees>
              <LongitudeDegrees>-1.6485153324902057647705078125</LongitudeDegrees>
            </Position>
            <AltitudeMeters>557</AltitudeMeters>
            <DistanceMeters>6368.7414806123</DistanceMeters>
          </Trackpoint>
          <Trackpoint>
            <Time>2022-11-06T10:38:47.000Z</Time>
            <Position>
              <LatitudeDegrees>41.35410890914499759674072265625</LatitudeDegrees>
              <LongitudeDegrees>-1.64854777045547962188720703125</LongitudeDegrees>
            </Position>
            <AltitudeMeters>557.20001220703125</AltitudeMeters>
            <DistanceMeters>6371.4659480533</DistanceMeters>
          </Trackpoint>
          <Trackpoint>
            <Time>2022-11-06T10:38:48.000Z</Time>
            <Position>
              <LatitudeDegrees>41.35410907678306102752685546875</LatitudeDegrees>
              <LongitudeDegrees>-1.64857442490756511688232421875</LongitudeDegrees>
            </Position>
            <AltitudeMeters>557.4000244140625</AltitudeMeters>
            <DistanceMeters>6373.6945220467</DistanceMeters>
          </Trackpoint>
          <Trackpoint>
            <Time>2022-11-06T10:38:49.000Z</Time>
            <Position>
              <LatitudeDegrees>41.35411242954432964324951171875</LatitudeDegrees>
              <LongitudeDegrees>-1.648600660264492034912109375</LongitudeDegrees>
            </Position>
            <AltitudeMeters>558</AltitudeMeters>
            <DistanceMeters>6375.9190403971</DistanceMeters>
          </Trackpoint>
          <Trackpoint>
            <Time>2022-11-06T10:38:50.000Z</Time>
            <Position>
              <LatitudeDegrees>41.354115195572376251220703125</LatitudeDegrees>
              <LongitudeDegrees>-1.648624800145626068115234375</LongitudeDegrees>
            </Position>
            <AltitudeMeters>558.4000244140625</AltitudeMeters>
            <DistanceMeters>6377.9593504815</DistanceMeters>
          </Trackpoint>
          <Trackpoint>
            <Time>2022-11-06T10:38:51.000Z</Time>
            <Position>
              <LatitudeDegrees>41.35411896742880344390869140625</LatitudeDegrees>
              <LongitudeDegrees>-1.64864768274128437042236328125</LongitudeDegrees>
            </Position>
            <AltitudeMeters>558.5999755859375</AltitudeMeters>
            <DistanceMeters>6379.9160702909</DistanceMeters>
          </Trackpoint>
          <Trackpoint>
            <Time>2022-11-06T10:38:52.000Z</Time>
            <Position>
              <LatitudeDegrees>41.354123242199420928955078125</LatitudeDegrees>
              <LongitudeDegrees>-1.64867584593594074249267578125</LongitudeDegrees>
            </Position>
            <AltitudeMeters>558.79998779296875</AltitudeMeters>
            <DistanceMeters>6382.3163179388</DistanceMeters>
          </Trackpoint>
          <Trackpoint>
            <Time>2022-11-06T10:38:53.000Z</Time>
            <Position>
              <LatitudeDegrees>41.35412567295134067535400390625</LatitudeDegrees>
              <LongitudeDegrees>-1.64869830943644046783447265625</LongitudeDegrees>
            </Position>
            <AltitudeMeters>559.20001220703125</AltitudeMeters>
            <DistanceMeters>6384.2120949364</DistanceMeters>
          </Trackpoint>
          <Trackpoint>
            <Time>2022-11-06T10:38:54.000Z</Time>
            <Position>
              <LatitudeDegrees>41.3541270978748798370361328125</LatitudeDegrees>
              <LongitudeDegrees>-1.64873083122074604034423828125</LongitudeDegrees>
            </Position>
            <AltitudeMeters>559.5999755859375</AltitudeMeters>
            <DistanceMeters>6386.9332459216</DistanceMeters>
          </Trackpoint>
          <Trackpoint>
            <Time>2022-11-06T10:38:55.000Z</Time>
            <Position>
              <LatitudeDegrees>41.35412651114165782928466796875</LatitudeDegrees>
              <LongitudeDegrees>-1.64875178597867488861083984375</LongitudeDegrees>
            </Position>
            <AltitudeMeters>559.79998779296875</AltitudeMeters>
            <DistanceMeters>6388.6802908088</DistanceMeters>
          </Trackpoint>
          <Trackpoint>
            <Time>2022-11-06T10:38:56.000Z</Time>
            <Position>
              <LatitudeDegrees>41.3541254214942455291748046875</LatitudeDegrees>
              <LongitudeDegrees>-1.6487686336040496826171875</LongitudeDegrees>
            </Position>
            <AltitudeMeters>560</AltitudeMeters>
            <DistanceMeters>6390.0897647595</DistanceMeters>
          </Trackpoint>
          <Trackpoint>
            <Time>2022-11-06T10:38:57.000Z</Time>
            <Position>
              <LatitudeDegrees>41.354121230542659759521484375</LatitudeDegrees>
              <LongitudeDegrees>-1.64879520423710346221923828125</LongitudeDegrees>
            </Position>
            <AltitudeMeters>560.4000244140625</AltitudeMeters>
            <DistanceMeters>6392.3584964697</DistanceMeters>
          </Trackpoint>
          <Trackpoint>
            <Time>2022-11-06T10:38:58.000Z</Time>
            <Position>
              <LatitudeDegrees>41.3541148602962493896484375</LatitudeDegrees>
              <LongitudeDegrees>-1.64881448261439800262451171875</LongitudeDegrees>
            </Position>
            <AltitudeMeters>560.79998779296875</AltitudeMeters>
            <DistanceMeters>6394.1158484959</DistanceMeters>
          </Trackpoint>
          <Trackpoint>
            <Time>2022-11-06T10:38:59.000Z</Time>
            <Position>
              <LatitudeDegrees>41.354111172258853912353515625</LatitudeDegrees>
              <LongitudeDegrees>-1.64883191697299480438232421875</LongitudeDegrees>
            </Position>
            <AltitudeMeters>561.20001220703125</AltitudeMeters>
            <DistanceMeters>6395.6333034353</DistanceMeters>
          </Trackpoint>
          <Trackpoint>
            <Time>2022-11-06T10:39:00.000Z</Time>
            <Position>
              <LatitudeDegrees>41.354107148945331573486328125</LatitudeDegrees>
              <LongitudeDegrees>-1.6488542966544628143310546875</LongitudeDegrees>
            </Position>
            <AltitudeMeters>561.4000244140625</AltitudeMeters>
            <DistanceMeters>6397.5574477496</DistanceMeters>
          </Trackpoint>
          <Trackpoint>
            <Time>2022-11-06T10:39:01.000Z</Time>
            <Position>
              <LatitudeDegrees>41.35410237126052379608154296875</LatitudeDegrees>
              <LongitudeDegrees>-1.64887499995529651641845703125</LongitudeDegrees>
            </Position>
            <AltitudeMeters>561.5999755859375</AltitudeMeters>
            <DistanceMeters>6399.3654542962</DistanceMeters>
          </Trackpoint>
          <Trackpoint>
            <Time>2022-11-06T10:39:02.000Z</Time>
            <Position>
              <LatitudeDegrees>41.354099102318286895751953125</LatitudeDegrees>
              <LongitudeDegrees>-1.64889813400804996490478515625</LongitudeDegrees>
            </Position>
            <AltitudeMeters>562</AltitudeMeters>
            <DistanceMeters>6401.3313822496</DistanceMeters>
          </Trackpoint>
          <Trackpoint>
            <Time>2022-11-06T10:39:03.000Z</Time>
            <Position>
              <LatitudeDegrees>41.354094408452510833740234375</LatitudeDegrees>
              <LongitudeDegrees>-1.64892680011689662933349609375</LongitudeDegrees>
            </Position>
            <AltitudeMeters>562.20001220703125</AltitudeMeters>
            <DistanceMeters>6403.7837343678</DistanceMeters>
          </Trackpoint>
          <Trackpoint>
            <Time>2022-11-06T10:39:04.000Z</Time>
            <Position>
              <LatitudeDegrees>41.35408862493932247161865234375</LatitudeDegrees>
              <LongitudeDegrees>-1.6489501856267452239990234375</LongitudeDegrees>
            </Position>
            <AltitudeMeters>562.4000244140625</AltitudeMeters>
            <DistanceMeters>6405.8416716487</DistanceMeters>
          </Trackpoint>
          <Trackpoint>
            <Time>2022-11-06T10:39:05.000Z</Time>
            <Position>
              <LatitudeDegrees>41.3540835119783878326416015625</LatitudeDegrees>
              <LongitudeDegrees>-1.648971140384674072265625</LongitudeDegrees>
            </Position>
            <AltitudeMeters>562.5999755859375</AltitudeMeters>
            <DistanceMeters>6407.6794008426</DistanceMeters>
          </Trackpoint>
          <Trackpoint>
            <Time>2022-11-06T10:39:06.000Z</Time>
            <Position>
              <LatitudeDegrees>41.3540791533887386322021484375</LatitudeDegrees>
              <LongitudeDegrees>-1.64899033494293689727783203125</LongitudeDegrees>
            </Position>
            <AltitudeMeters>563</AltitudeMeters>
            <DistanceMeters>6409.3579072771</DistanceMeters>
          </Trackpoint>
          <Trackpoint>
            <Time>2022-11-06T10:39:07.000Z</Time>
            <Position>
              <LatitudeDegrees>41.35407839901745319366455078125</LatitudeDegrees>
              <LongitudeDegrees>-1.64901472628116607666015625</LongitudeDegrees>
            </Position>
            <AltitudeMeters>563.4000244140625</AltitudeMeters>
            <DistanceMeters>6411.3960032425</DistanceMeters>
          </Trackpoint>
          <Trackpoint>
            <Time>2022-11-06T10:39:08.000Z</Time>
            <Position>
              <LatitudeDegrees>41.35407588444650173187255859375</LatitudeDegrees>
              <LongitudeDegrees>-1.6490390338003635406494140625</LongitudeDegrees>
            </Position>
            <AltitudeMeters>563.5999755859375</AltitudeMeters>
            <DistanceMeters>6413.4473480753</DistanceMeters>
          </Trackpoint>
          <Trackpoint>
            <Time>2022-11-06T10:39:09.000Z</Time>
            <Position>
              <LatitudeDegrees>41.35407395660877227783203125</LatitudeDegrees>
              <LongitudeDegrees>-1.6490658558905124664306640625</LongitudeDegrees>
            </Position>
            <AltitudeMeters>563.79998779296875</AltitudeMeters>
            <DistanceMeters>6415.6980974805</DistanceMeters>
          </Trackpoint>
          <Trackpoint>
            <Time>2022-11-06T10:39:10.000Z</Time>
            <Position>
              <LatitudeDegrees>41.35407202877104282379150390625</LatitudeDegrees>
              <LongitudeDegrees>-1.64908940903842449188232421875</LongitudeDegrees>
            </Position>
            <AltitudeMeters>564</AltitudeMeters>
            <DistanceMeters>6417.6777573443</DistanceMeters>
          </Trackpoint>
          <Trackpoint>
            <Time>2022-11-06T10:39:11.000Z</Time>
            <Position>
              <LatitudeDegrees>41.354070603847503662109375</LatitudeDegrees>
              <LongitudeDegrees>-1.64911438710987567901611328125</LongitudeDegrees>
            </Position>
            <AltitudeMeters>564.20001220703125</AltitudeMeters>
            <DistanceMeters>6419.7726600036</DistanceMeters>
          </Trackpoint>
          <Trackpoint>
            <Time>2022-11-06T10:39:12.000Z</Time>
            <Position>
              <LatitudeDegrees>41.3540665805339813232421875</LatitudeDegrees>
              <LongitudeDegrees>-1.6491389460861682891845703125</LongitudeDegrees>
            </Position>
            <AltitudeMeters>564.4000244140625</AltitudeMeters>
            <DistanceMeters>6421.8718687366</DistanceMeters>
          </Trackpoint>
          <Trackpoint>
            <Time>2022-11-06T10:39:13.000Z</Time>
            <Position>
              <LatitudeDegrees>41.354058869183063507080078125</LatitudeDegrees>
              <LongitudeDegrees>-1.649159230291843414306640625</LongitudeDegrees>
            </Position>
            <AltitudeMeters>564.79998779296875</AltitudeMeters>
            <DistanceMeters>6423.772403024</DistanceMeters>
          </Trackpoint>
          <Trackpoint>
            <Time>2022-11-06T10:39:14.000Z</Time>
            <Position>
              <LatitudeDegrees>41.35405107401311397552490234375</LatitudeDegrees>
              <LongitudeDegrees>-1.64917909540235996246337890625</LongitudeDegrees>
            </Position>
            <AltitudeMeters>565</AltitudeMeters>
            <DistanceMeters>6425.6442122184</DistanceMeters>
          </Trackpoint>
          <Trackpoint>
            <Time>2022-11-06T10:39:15.000Z</Time>
            <Position>
              <LatitudeDegrees>41.35404151864349842071533203125</LatitudeDegrees>
              <LongitudeDegrees>-1.6492004692554473876953125</LongitudeDegrees>
            </Position>
            <AltitudeMeters>565.4000244140625</AltitudeMeters>
            <DistanceMeters>6427.7239734106</DistanceMeters>
          </Trackpoint>
          <Trackpoint>
            <Time>2022-11-06T10:39:16.000Z</Time>
            <Position>
              <LatitudeDegrees>41.35403833352029323577880859375</LatitudeDegrees>
              <LongitudeDegrees>-1.6492220945656299591064453125</LongitudeDegrees>
            </Position>
            <AltitudeMeters>565.5999755859375</AltitudeMeters>
            <DistanceMeters>6429.5666097673</DistanceMeters>
          </Trackpoint>
          <Trackpoint>
            <Time>2022-11-06T10:39:17.000Z</Time>
            <Position>
              <LatitudeDegrees>41.35403640568256378173828125</LatitudeDegrees>
              <LongitudeDegrees>-1.64924229495227336883544921875</LongitudeDegrees>
            </Position>
            <AltitudeMeters>566</AltitudeMeters>
            <DistanceMeters>6431.269153317</DistanceMeters>
          </Trackpoint>
          <Trackpoint>
            <Time>2022-11-06T10:39:18.000Z</Time>
            <Position>
              <LatitudeDegrees>41.3540372438728809356689453125</LatitudeDegrees>
              <LongitudeDegrees>-1.6492636688053607940673828125</LongitudeDegrees>
            </Position>
            <AltitudeMeters>566.20001220703125</AltitudeMeters>
            <DistanceMeters>6433.0570702784</DistanceMeters>
          </Trackpoint>
          <Trackpoint>
            <Time>2022-11-06T10:39:19.000Z</Time>
            <Position>
              <LatitudeDegrees>41.354040093719959259033203125</LatitudeDegrees>
              <LongitudeDegrees>-1.6492841206490993499755859375</LongitudeDegrees>
            </Position>
            <AltitudeMeters>566.79998779296875</AltitudeMeters>
            <DistanceMeters>6434.7937468552</DistanceMeters>
          </Trackpoint>
          <Trackpoint>
            <Time>2022-11-06T10:39:20.000Z</Time>
            <Position>
              <LatitudeDegrees>41.35404336266219615936279296875</LatitudeDegrees>
              <LongitudeDegrees>-1.649304069578647613525390625</LongitudeDegrees>
            </Position>
            <AltitudeMeters>567.20001220703125</AltitudeMeters>
            <DistanceMeters>6436.5042277139</DistanceMeters>
          </Trackpoint>
          <Trackpoint>
            <Time>2022-11-06T10:39:21.000Z</Time>
            <Position>
              <LatitudeDegrees>41.35404788888990879058837890625</LatitudeDegrees>
              <LongitudeDegrees>-1.64932795800268650054931640625</LongitudeDegrees>
            </Position>
            <AltitudeMeters>567.4000244140625</AltitudeMeters>
            <DistanceMeters>6438.5643577895</DistanceMeters>
          </Trackpoint>
          <Trackpoint>
            <Time>2022-11-06T10:39:22.000Z</Time>
            <Position>
              <LatitudeDegrees>41.3540519960224628448486328125</LatitudeDegrees>
              <LongitudeDegrees>-1.64935000240802764892578125</LongitudeDegrees>
            </Position>
            <AltitudeMeters>567.5999755859375</AltitudeMeters>
            <DistanceMeters>6440.4648920769</DistanceMeters>
          </Trackpoint>
          <Trackpoint>
            <Time>2022-11-06T10:39:23.000Z</Time>
            <Position>
              <LatitudeDegrees>41.35405719280242919921875</LatitudeDegrees>
              <LongitudeDegrees>-1.64937187917530536651611328125</LongitudeDegrees>
            </Position>
            <AltitudeMeters>568</AltitudeMeters>
            <DistanceMeters>6442.3819839142</DistanceMeters>
          </Trackpoint>
          <Trackpoint>
            <Time>2022-11-06T10:39:24.000Z</Time>
            <Position>
              <LatitudeDegrees>41.354066245257854461669921875</LatitudeDegrees>
              <LongitudeDegrees>-1.64939291775226593017578125</LongitudeDegrees>
            </Position>
            <AltitudeMeters>568.20001220703125</AltitudeMeters>
            <DistanceMeters>6444.408973007</DistanceMeters>
          </Trackpoint>
          <Trackpoint>
            <Time>2022-11-06T10:39:25.000Z</Time>
            <Position>
              <LatitudeDegrees>41.35407890193164348602294921875</LatitudeDegrees>
              <LongitudeDegrees>-1.64940875954926013946533203125</LongitudeDegrees>
            </Position>
            <AltitudeMeters>568.4000244140625</AltitudeMeters>
            <DistanceMeters>6446.3424806092</DistanceMeters>
          </Trackpoint>
          <Trackpoint>
            <Time>2022-11-06T10:39:26.000Z</Time>
            <Position>
              <LatitudeDegrees>41.35409004986286163330078125</LatitudeDegrees>
              <LongitudeDegrees>-1.6494212485849857330322265625</LongitudeDegrees>
            </Position>
            <AltitudeMeters>568.79998779296875</AltitudeMeters>
            <DistanceMeters>6447.9662978161</DistanceMeters>
          </Trackpoint>
          <Trackpoint>
            <Time>2022-11-06T10:39:27.000Z</Time>
            <Position>
              <LatitudeDegrees>41.35410505346953868865966796875</LatitudeDegrees>
              <LongitudeDegrees>-1.6494303010404109954833984375</LongitudeDegrees>
            </Position>
            <AltitudeMeters>569.20001220703125</AltitudeMeters>
            <DistanceMeters>6449.7991067088</DistanceMeters>
          </Trackpoint>
          <Trackpoint>
            <Time>2022-11-06T10:39:28.000Z</Time>
            <Position>
              <LatitudeDegrees>41.3541163690388202667236328125</LatitudeDegrees>
              <LongitudeDegrees>-1.64944010786712169647216796875</LongitudeDegrees>
            </Position>
            <AltitudeMeters>569.4000244140625</AltitudeMeters>
            <DistanceMeters>6451.3046129982</DistanceMeters>
          </Trackpoint>
          <Trackpoint>
            <Time>2022-11-06T10:39:29.000Z</Time>
            <Position>
              <LatitudeDegrees>41.35412986390292644500732421875</LatitudeDegrees>
              <LongitudeDegrees>-1.649454943835735321044921875</LongitudeDegrees>
            </Position>
            <AltitudeMeters>569.5999755859375</AltitudeMeters>
            <DistanceMeters>6453.2520811254</DistanceMeters>
          </Trackpoint>
          <Trackpoint>
            <Time>2022-11-06T10:39:30.000Z</Time>
            <Position>
              <LatitudeDegrees>41.35414101183414459228515625</LatitudeDegrees>
              <LongitudeDegrees>-1.6494735516607761383056640625</LongitudeDegrees>
            </Position>
            <AltitudeMeters>569.79998779296875</AltitudeMeters>
            <DistanceMeters>6455.2408429217</DistanceMeters>
          </Trackpoint>
          <Trackpoint>
            <Time>2022-11-06T10:39:31.000Z</Time>
            <Position>
              <LatitudeDegrees>41.35415199212729930877685546875</LatitudeDegrees>
              <LongitudeDegrees>-1.64948947727680206298828125</LongitudeDegrees>
            </Position>
            <AltitudeMeters>570.20001220703125</AltitudeMeters>
            <DistanceMeters>6457.0463504948</DistanceMeters>
          </Trackpoint>
          <Trackpoint>
            <Time>2022-11-06T10:39:32.000Z</Time>
            <Position>
              <LatitudeDegrees>41.35416439734399318695068359375</LatitudeDegrees>
              <LongitudeDegrees>-1.649507582187652587890625</LongitudeDegrees>
            </Position>
            <AltitudeMeters>570.4000244140625</AltitudeMeters>
            <DistanceMeters>6459.0954931317</DistanceMeters>
          </Trackpoint>
          <Trackpoint>
            <Time>2022-11-06T10:39:33.000Z</Time>
            <Position>
              <LatitudeDegrees>41.35417520999908447265625</LatitudeDegrees>
              <LongitudeDegrees>-1.6495292074978351593017578125</LongitudeDegrees>
            </Position>
            <AltitudeMeters>570.79998779296875</AltitudeMeters>
            <DistanceMeters>6461.2686774267</DistanceMeters>
          </Trackpoint>
          <Trackpoint>
            <Time>2022-11-06T10:39:34.000Z</Time>
            <Position>
              <LatitudeDegrees>41.35418392717838287353515625</LatitudeDegrees>
              <LongitudeDegrees>-1.6495499946177005767822265625</LongitudeDegrees>
            </Position>
            <AltitudeMeters>571.20001220703125</AltitudeMeters>
            <DistanceMeters>6463.2597082047</DistanceMeters>
          </Trackpoint>
          <Trackpoint>
            <Time>2022-11-06T10:39:35.000Z</Time>
            <Position>
              <LatitudeDegrees>41.35418987832963466644287109375</LatitudeDegrees>
              <LongitudeDegrees>-1.64956935681402683258056640625</LongitudeDegrees>
            </Position>
            <AltitudeMeters>571.5999755859375</AltitudeMeters>
            <DistanceMeters>6465.006753092</DistanceMeters>
          </Trackpoint>
          <Trackpoint>
            <Time>2022-11-06T10:39:36.000Z</Time>
            <Position>
              <LatitudeDegrees>41.35419809259474277496337890625</LatitudeDegrees>
              <LongitudeDegrees>-1.64958536624908447265625</LongitudeDegrees>
            </Position>
            <AltitudeMeters>571.79998779296875</AltitudeMeters>
            <DistanceMeters>6466.6277874053</DistanceMeters>
          </Trackpoint>
          <Trackpoint>
            <Time>2022-11-06T10:39:37.000Z</Time>
            <Position>
              <LatitudeDegrees>41.35420094244182109832763671875</LatitudeDegrees>
              <LongitudeDegrees>-1.64960389025509357452392578125</LongitudeDegrees>
            </Position>
            <AltitudeMeters>572</AltitudeMeters>
            <DistanceMeters>6468.2064897517</DistanceMeters>
          </Trackpoint>
          <Trackpoint>
            <Time>2022-11-06T10:39:38.000Z</Time>
            <Position>
              <LatitudeDegrees>41.354205049574375152587890625</LatitudeDegrees>
              <LongitudeDegrees>-1.64962266571819782257080078125</LongitudeDegrees>
            </Position>
            <AltitudeMeters>572.20001220703125</AltitudeMeters>
            <DistanceMeters>6469.8413911639</DistanceMeters>
          </Trackpoint>
          <Trackpoint>
            <Time>2022-11-06T10:39:39.000Z</Time>
            <Position>
              <LatitudeDegrees>41.35420748032629489898681640625</LatitudeDegrees>
              <LongitudeDegrees>-1.649645380675792694091796875</LongitudeDegrees>
            </Position>
            <AltitudeMeters>572.4000244140625</AltitudeMeters>
            <DistanceMeters>6471.7584830012</DistanceMeters>
          </Trackpoint>
          <Trackpoint>
            <Time>2022-11-06T10:39:40.000Z</Time>
            <Position>
              <LatitudeDegrees>41.35420672595500946044921875</LatitudeDegrees>
              <LongitudeDegrees>-1.6496698558330535888671875</LongitudeDegrees>
            </Position>
            <AltitudeMeters>572.5999755859375</AltitudeMeters>
            <DistanceMeters>6473.8032141311</DistanceMeters>
          </Trackpoint>
          <Trackpoint>
            <Time>2022-11-06T10:39:41.000Z</Time>
            <Position>
              <LatitudeDegrees>41.3542025350034236907958984375</LatitudeDegrees>
              <LongitudeDegrees>-1.64969273842871189117431640625</LongitudeDegrees>
            </Position>
            <AltitudeMeters>572.5999755859375</AltitudeMeters>
            <DistanceMeters>6475.7691420845</DistanceMeters>
          </Trackpoint>
          <Trackpoint>
            <Time>2022-11-06T10:39:42.000Z</Time>
            <Position>
              <LatitudeDegrees>41.35419440455734729766845703125</LatitudeDegrees>
              <LongitudeDegrees>-1.64971738122403621673583984375</LongitudeDegrees>
            </Position>
            <AltitudeMeters>572.5999755859375</AltitudeMeters>
            <DistanceMeters>6478.0178845795</DistanceMeters>
          </Trackpoint>
          <Trackpoint>
            <Time>2022-11-06T10:39:43.000Z</Time>
            <Position>
              <LatitudeDegrees>41.3541840948164463043212890625</LatitudeDegrees>
              <LongitudeDegrees>-1.64974026381969451904296875</LongitudeDegrees>
            </Position>
            <AltitudeMeters>572.79998779296875</AltitudeMeters>
            <DistanceMeters>6480.2505068487</DistanceMeters>
          </Trackpoint>
          <Trackpoint>
            <Time>2022-11-06T10:39:44.000Z</Time>
            <Position>
              <LatitudeDegrees>41.35417210869491100311279296875</LatitudeDegrees>
              <LongitudeDegrees>-1.64976465515792369842529296875</LongitudeDegrees>
            </Position>
            <AltitudeMeters>573</AltitudeMeters>
            <DistanceMeters>6482.6843782806</DistanceMeters>
          </Trackpoint>
          <Trackpoint>
            <Time>2022-11-06T10:39:45.000Z</Time>
            <Position>
              <LatitudeDegrees>41.3541639782488346099853515625</LatitudeDegrees>
              <LongitudeDegrees>-1.64978711865842342376708984375</LongitudeDegrees>
            </Position>
            <AltitudeMeters>573</AltitudeMeters>
            <DistanceMeters>6484.7663092817</DistanceMeters>
          </Trackpoint>
          <Trackpoint>
            <Time>2022-11-06T10:39:46.000Z</Time>
            <Position>
              <LatitudeDegrees>41.354156099259853363037109375</LatitudeDegrees>
              <LongitudeDegrees>-1.64980673231184482574462890625</LongitudeDegrees>
            </Position>
            <AltitudeMeters>573.20001220703125</AltitudeMeters>
            <DistanceMeters>6486.6260187423</DistanceMeters>
          </Trackpoint>
          <Trackpoint>
            <Time>2022-11-06T10:39:47.000Z</Time>
            <Position>
              <LatitudeDegrees>41.354148052632808685302734375</LatitudeDegrees>
              <LongitudeDegrees>-1.64982550777494907379150390625</LongitudeDegrees>
            </Position>
            <AltitudeMeters>573.20001220703125</AltitudeMeters>
            <DistanceMeters>6488.434025289</DistanceMeters>
          </Trackpoint>
          <Trackpoint>
            <Time>2022-11-06T10:39:48.000Z</Time>
            <Position>
              <LatitudeDegrees>41.35413841344416141510009765625</LatitudeDegrees>
              <LongitudeDegrees>-1.6498410142958164215087890625</LongitudeDegrees>
            </Position>
            <AltitudeMeters>573.4000244140625</AltitudeMeters>
            <DistanceMeters>6490.1179029577</DistanceMeters>
          </Trackpoint>
          <Trackpoint>
            <Time>2022-11-06T10:39:49.000Z</Time>
            <Position>
              <LatitudeDegrees>41.35413086973130702972412109375</LatitudeDegrees>
              <LongitudeDegrees>-1.64985559880733489990234375</LongitudeDegrees>
            </Position>
            <AltitudeMeters>573.4000244140625</AltitudeMeters>
            <DistanceMeters>6491.5961717085</DistanceMeters>
          </Trackpoint>
          <Trackpoint>
            <Time>2022-11-06T10:39:50.000Z</Time>
            <Position>
              <LatitudeDegrees>41.35412089526653289794921875</LatitudeDegrees>
              <LongitudeDegrees>-1.64987227879464626312255859375</LongitudeDegrees>
            </Position>
            <AltitudeMeters>573.5999755859375</AltitudeMeters>
            <DistanceMeters>6493.3764966316</DistanceMeters>
          </Trackpoint>
          <Trackpoint>
            <Time>2022-11-06T10:39:51.000Z</Time>
            <Position>
              <LatitudeDegrees>41.35411025024950504302978515625</LatitudeDegrees>
              <LongitudeDegrees>-1.6498889587819576263427734375</LongitudeDegrees>
            </Position>
            <AltitudeMeters>573.5999755859375</AltitudeMeters>
            <DistanceMeters>6495.2043719786</DistanceMeters>
          </Trackpoint>
          <Trackpoint>
            <Time>2022-11-06T10:39:52.000Z</Time>
            <Position>
              <LatitudeDegrees>41.35409818030893802642822265625</LatitudeDegrees>
              <LongitudeDegrees>-1.649906896054744720458984375</LongitudeDegrees>
            </Position>
            <AltitudeMeters>573.5999755859375</AltitudeMeters>
            <DistanceMeters>6497.2157084117</DistanceMeters>
          </Trackpoint>
          <Trackpoint>
            <Time>2022-11-06T10:39:53.000Z</Time>
            <Position>
              <LatitudeDegrees>41.3540872000157833099365234375</LatitudeDegrees>
              <LongitudeDegrees>-1.64992407895624637603759765625</LongitudeDegrees>
            </Position>
            <AltitudeMeters>574</AltitudeMeters>
            <DistanceMeters>6499.1019348347</DistanceMeters>
          </Trackpoint>
          <Trackpoint>
            <Time>2022-11-06T10:39:54.000Z</Time>
            <Position>
              <LatitudeDegrees>41.35407538153231143951416015625</LatitudeDegrees>
              <LongitudeDegrees>-1.6499392502009868621826171875</LongitudeDegrees>
            </Position>
            <AltitudeMeters>574.4000244140625</AltitudeMeters>
            <DistanceMeters>6500.9298101817</DistanceMeters>
          </Trackpoint>
          <Trackpoint>
            <Time>2022-11-06T10:39:55.000Z</Time>
            <Position>
              <LatitudeDegrees>41.3540644012391567230224609375</LatitudeDegrees>
              <LongitudeDegrees>-1.64995525963604450225830078125</LongitudeDegrees>
            </Position>
            <AltitudeMeters>574.5999755859375</AltitudeMeters>
            <DistanceMeters>6502.7403122527</DistanceMeters>
          </Trackpoint>
          <Trackpoint>
            <Time>2022-11-06T10:39:56.000Z</Time>
            <Position>
              <LatitudeDegrees>41.35405275039374828338623046875</LatitudeDegrees>
              <LongitudeDegrees>-1.649974621832370758056640625</LongitudeDegrees>
            </Position>
            <AltitudeMeters>575</AltitudeMeters>
            <DistanceMeters>6504.8157270218</DistanceMeters>
          </Trackpoint>
          <Trackpoint>
            <Time>2022-11-06T10:39:57.000Z</Time>
            <Position>
              <LatitudeDegrees>41.354043781757354736328125</LatitudeDegrees>
              <LongitudeDegrees>-1.64999373257160186767578125</LongitudeDegrees>
            </Position>
            <AltitudeMeters>575.20001220703125</AltitudeMeters>
            <DistanceMeters>6506.6995582357</DistanceMeters>
          </Trackpoint>
          <Trackpoint>
            <Time>2022-11-06T10:39:58.000Z</Time>
            <Position>
              <LatitudeDegrees>41.35403313674032688140869140625</LatitudeDegrees>
              <LongitudeDegrees>-1.650010831654071807861328125</LongitudeDegrees>
            </Position>
            <AltitudeMeters>575.4000244140625</AltitudeMeters>
            <DistanceMeters>6508.5568382904</DistanceMeters>
          </Trackpoint>
          <Trackpoint>
            <Time>2022-11-06T10:39:59.000Z</Time>
            <Position>
              <LatitudeDegrees>41.3540238328278064727783203125</LatitudeDegrees>
              <LongitudeDegrees>-1.6500284336507320404052734375</LongitudeDegrees>
            </Position>
            <AltitudeMeters>575.79998779296875</AltitudeMeters>
            <DistanceMeters>6510.3548281032</DistanceMeters>
          </Trackpoint>
          <Trackpoint>
            <Time>2022-11-06T10:40:00.000Z</Time>
            <Position>
              <LatitudeDegrees>41.35401352308690547943115234375</LatitudeDegrees>
              <LongitudeDegrees>-1.65004469454288482666015625</LongitudeDegrees>
            </Position>
            <AltitudeMeters>576</AltitudeMeters>
            <DistanceMeters>6512.1351530263</DistanceMeters>
          </Trackpoint>
          <Trackpoint>
            <Time>2022-11-06T10:40:01.000Z</Time>
            <Position>
              <LatitudeDegrees>41.354005225002765655517578125</LatitudeDegrees>
              <LongitudeDegrees>-1.6500656493008136749267578125</LongitudeDegrees>
            </Position>
            <AltitudeMeters>576.4000244140625</AltitudeMeters>
            <DistanceMeters>6514.1148128902</DistanceMeters>
          </Trackpoint>
          <Trackpoint>
            <Time>2022-11-06T10:40:02.000Z</Time>
            <Position>
              <LatitudeDegrees>41.35399675928056240081787109375</LatitudeDegrees>
              <LongitudeDegrees>-1.6500829160213470458984375</LongitudeDegrees>
            </Position>
            <AltitudeMeters>576.5999755859375</AltitudeMeters>
            <DistanceMeters>6515.8358198843</DistanceMeters>
          </Trackpoint>
          <Trackpoint>
            <Time>2022-11-06T10:40:03.000Z</Time>
            <Position>
              <LatitudeDegrees>41.35398552753031253814697265625</LatitudeDegrees>
              <LongitudeDegrees>-1.65009842254221439361572265625</LongitudeDegrees>
            </Position>
            <AltitudeMeters>576.79998779296875</AltitudeMeters>
            <DistanceMeters>6517.6363191049</DistanceMeters>
          </Trackpoint>
          <Trackpoint>
            <Time>2022-11-06T10:40:04.000Z</Time>
            <Position>
              <LatitudeDegrees>41.35397396050393581390380859375</LatitudeDegrees>
              <LongitudeDegrees>-1.65011501871049404144287109375</LongitudeDegrees>
            </Position>
            <AltitudeMeters>577</AltitudeMeters>
            <DistanceMeters>6519.5297129752</DistanceMeters>
          </Trackpoint>
          <Trackpoint>
            <Time>2022-11-06T10:40:05.000Z</Time>
            <Position>
              <LatitudeDegrees>41.35396423749625682830810546875</LatitudeDegrees>
              <LongitudeDegrees>-1.65013010613620281219482421875</LongitudeDegrees>
            </Position>
            <AltitudeMeters>577.20001220703125</AltitudeMeters>
            <DistanceMeters>6521.1920015759</DistanceMeters>
          </Trackpoint>
          <Trackpoint>
            <Time>2022-11-06T10:40:06.000Z</Time>
            <Position>
              <LatitudeDegrees>41.353952251374721527099609375</LatitudeDegrees>
              <LongitudeDegrees>-1.65014938451349735260009765625</LongitudeDegrees>
            </Position>
            <AltitudeMeters>577.20001220703125</AltitudeMeters>
            <DistanceMeters>6523.282589292</DistanceMeters>
          </Trackpoint>
          <Trackpoint>
            <Time>2022-11-06T10:40:07.000Z</Time>
            <Position>
              <LatitudeDegrees>41.35394386947154998779296875</LatitudeDegrees>
              <LongitudeDegrees>-1.650169752538204193115234375</LongitudeDegrees>
            </Position>
            <AltitudeMeters>577.4000244140625</AltitudeMeters>
            <DistanceMeters>6525.2254150571</DistanceMeters>
          </Trackpoint>
          <Trackpoint>
            <Time>2022-11-06T10:40:08.000Z</Time>
            <Position>
              <LatitudeDegrees>41.35393272154033184051513671875</LatitudeDegrees>
              <LongitudeDegrees>-1.65019028820097446441650390625</LongitudeDegrees>
            </Position>
            <AltitudeMeters>577.4000244140625</AltitudeMeters>
            <DistanceMeters>6527.3460230051</DistanceMeters>
          </Trackpoint>
          <Trackpoint>
            <Time>2022-11-06T10:40:09.000Z</Time>
            <Position>
              <LatitudeDegrees>41.35392107069492340087890625</LatitudeDegrees>
              <LongitudeDegrees>-1.65020822547376155853271484375</LongitudeDegrees>
            </Position>
            <AltitudeMeters>577.5999755859375</AltitudeMeters>
            <DistanceMeters>6529.3279622709</DistanceMeters>
          </Trackpoint>
          <Trackpoint>
            <Time>2022-11-06T10:40:10.000Z</Time>
            <Position>
              <LatitudeDegrees>41.35390631854534149169921875</LatitudeDegrees>
              <LongitudeDegrees>-1.65022230707108974456787109375</LongitudeDegrees>
            </Position>
            <AltitudeMeters>577.5999755859375</AltitudeMeters>
            <DistanceMeters>6531.3460218528</DistanceMeters>
          </Trackpoint>
          <Trackpoint>
            <Time>2022-11-06T10:40:11.000Z</Time>
            <Position>
              <LatitudeDegrees>41.35389450006186962127685546875</LatitudeDegrees>
              <LongitudeDegrees>-1.65024309419095516204833984375</LongitudeDegrees>
            </Position>
            <AltitudeMeters>577.79998779296875</AltitudeMeters>
            <DistanceMeters>6533.5254300774</DistanceMeters>
          </Trackpoint>
          <Trackpoint>
            <Time>2022-11-06T10:40:12.000Z</Time>
            <Position>
              <LatitudeDegrees>41.35388209484517574310302734375</LatitudeDegrees>
              <LongitudeDegrees>-1.65026572532951831817626953125</LongitudeDegrees>
            </Position>
            <AltitudeMeters>577.79998779296875</AltitudeMeters>
            <DistanceMeters>6535.8666383982</DistanceMeters>
          </Trackpoint>
          <Trackpoint>
            <Time>2022-11-06T10:40:13.000Z</Time>
            <Position>
              <LatitudeDegrees>41.35386851616203784942626953125</LatitudeDegrees>
              <LongitudeDegrees>-1.6502849198877811431884765625</LongitudeDegrees>
            </Position>
            <AltitudeMeters>578</AltitudeMeters>
            <DistanceMeters>6538.0707665993</DistanceMeters>
          </Trackpoint>
          <Trackpoint>
            <Time>2022-11-06T10:40:14.000Z</Time>
            <Position>
              <LatitudeDegrees>41.3538558594882488250732421875</LatitudeDegrees>
              <LongitudeDegrees>-1.65030444972217082977294921875</LongitudeDegrees>
            </Position>
            <AltitudeMeters>578.20001220703125</AltitudeMeters>
            <DistanceMeters>6540.2272659313</DistanceMeters>
          </Trackpoint>
          <Trackpoint>
            <Time>2022-11-06T10:40:15.000Z</Time>
            <Position>
              <LatitudeDegrees>41.35384286753833293914794921875</LatitudeDegrees>
              <LongitudeDegrees>-1.65032372809946537017822265625</LongitudeDegrees>
            </Position>
            <AltitudeMeters>578.20001220703125</AltitudeMeters>
            <DistanceMeters>6542.3900372086</DistanceMeters>
          </Trackpoint>
          <Trackpoint>
            <Time>2022-11-06T10:40:16.000Z</Time>
            <Position>
              <LatitudeDegrees>41.35382987558841705322265625</LatitudeDegrees>
              <LongitudeDegrees>-1.6503430902957916259765625</LongitudeDegrees>
            </Position>
            <AltitudeMeters>578.4000244140625</AltitudeMeters>
            <DistanceMeters>6544.5611428955</DistanceMeters>
          </Trackpoint>
          <Trackpoint>
            <Time>2022-11-06T10:40:17.000Z</Time>
            <Position>
              <LatitudeDegrees>41.35381856001913547515869140625</LatitudeDegrees>
              <LongitudeDegrees>-1.650364212691783905029296875</LongitudeDegrees>
            </Position>
            <AltitudeMeters>578.5999755859375</AltitudeMeters>
            <DistanceMeters>6546.7301679823</DistanceMeters>
          </Trackpoint>
          <Trackpoint>
            <Time>2022-11-06T10:40:18.000Z</Time>
            <Position>
              <LatitudeDegrees>41.35380699299275875091552734375</LatitudeDegrees>
              <LongitudeDegrees>-1.650382988154888153076171875</LongitudeDegrees>
            </Position>
            <AltitudeMeters>578.5999755859375</AltitudeMeters>
            <DistanceMeters>6548.759383313</DistanceMeters>
          </Trackpoint>
          <Trackpoint>
            <Time>2022-11-06T10:40:19.000Z</Time>
            <Position>
              <LatitudeDegrees>41.35379768908023834228515625</LatitudeDegrees>
              <LongitudeDegrees>-1.65040402673184871673583984375</LongitudeDegrees>
            </Position>
            <AltitudeMeters>578.79998779296875</AltitudeMeters>
            <DistanceMeters>6550.7996933975</DistanceMeters>
          </Trackpoint>
          <Trackpoint>
            <Time>2022-11-06T10:40:20.000Z</Time>
            <Position>
              <LatitudeDegrees>41.3537894748151302337646484375</LatitudeDegrees>
              <LongitudeDegrees>-1.6504264064133167266845703125</LongitudeDegrees>
            </Position>
            <AltitudeMeters>578.79998779296875</AltitudeMeters>
            <DistanceMeters>6552.8816243985</DistanceMeters>
          </Trackpoint>
          <Trackpoint>
            <Time>2022-11-06T10:40:21.000Z</Time>
            <Position>
              <LatitudeDegrees>41.35378419421613216400146484375</LatitudeDegrees>
              <LongitudeDegrees>-1.65045230649411678314208984375</LongitudeDegrees>
            </Position>
            <AltitudeMeters>578.79998779296875</AltitudeMeters>
            <DistanceMeters>6555.1223212774</DistanceMeters>
          </Trackpoint>
          <Trackpoint>
            <Time>2022-11-06T10:40:22.000Z</Time>
            <Position>
              <LatitudeDegrees>41.353780589997768402099609375</LatitudeDegrees>
              <LongitudeDegrees>-1.6504780389368534088134765625</LongitudeDegrees>
            </Position>
            <AltitudeMeters>579.20001220703125</AltitudeMeters>
            <DistanceMeters>6557.3058689325</DistanceMeters>
          </Trackpoint>
          <Trackpoint>
            <Time>2022-11-06T10:40:23.000Z</Time>
            <Position>
              <LatitudeDegrees>41.3537814281880855560302734375</LatitudeDegrees>
              <LongitudeDegrees>-1.6505001671612262725830078125</LongitudeDegrees>
            </Position>
            <AltitudeMeters>579.4000244140625</AltitudeMeters>
            <DistanceMeters>6559.158280617</DistanceMeters>
          </Trackpoint>
          <Trackpoint>
            <Time>2022-11-06T10:40:24.000Z</Time>
            <Position>
              <LatitudeDegrees>41.3537790812551975250244140625</LatitudeDegrees>
              <LongitudeDegrees>-1.65052455849945545196533203125</LongitudeDegrees>
            </Position>
            <AltitudeMeters>579.4000244140625</AltitudeMeters>
            <DistanceMeters>6561.2140227642</DistanceMeters>
          </Trackpoint>
          <Trackpoint>
            <Time>2022-11-06T10:40:25.000Z</Time>
            <Position>
              <LatitudeDegrees>41.35377463884651660919189453125</LatitudeDegrees>
              <LongitudeDegrees>-1.6505491174757480621337890625</LongitudeDegrees>
            </Position>
            <AltitudeMeters>579.5999755859375</AltitudeMeters>
            <DistanceMeters>6563.326097044</DistanceMeters>
          </Trackpoint>
          <Trackpoint>
            <Time>2022-11-06T10:40:26.000Z</Time>
            <Position>
              <LatitudeDegrees>41.35377564467489719390869140625</LatitudeDegrees>
              <LongitudeDegrees>-1.65057367645204067230224609375</LongitudeDegrees>
            </Position>
            <AltitudeMeters>579.79998779296875</AltitudeMeters>
            <DistanceMeters>6565.3818391912</DistanceMeters>
          </Trackpoint>
          <Trackpoint>
            <Time>2022-11-06T10:40:27.000Z</Time>
            <Position>
              <LatitudeDegrees>41.35377732105553150177001953125</LatitudeDegrees>
              <LongitudeDegrees>-1.65059647522866725921630859375</LongitudeDegrees>
            </Position>
            <AltitudeMeters>580</AltitudeMeters>
            <DistanceMeters>6567.2989310285</DistanceMeters>
          </Trackpoint>
          <Trackpoint>
            <Time>2022-11-06T10:40:28.000Z</Time>
            <Position>
              <LatitudeDegrees>41.35378033854067325592041015625</LatitudeDegrees>
              <LongitudeDegrees>-1.6506218723952770233154296875</LongitudeDegrees>
            </Position>
            <AltitudeMeters>580.20001220703125</AltitudeMeters>
            <DistanceMeters>6569.4491401205</DistanceMeters>
          </Trackpoint>
          <Trackpoint>
            <Time>2022-11-06T10:40:29.000Z</Time>
            <Position>
              <LatitudeDegrees>41.3537837751209735870361328125</LatitudeDegrees>
              <LongitudeDegrees>-1.65064676664769649505615234375</LongitudeDegrees>
            </Position>
            <AltitudeMeters>580.4000244140625</AltitudeMeters>
            <DistanceMeters>6571.5654855356</DistanceMeters>
          </Trackpoint>
          <Trackpoint>
            <Time>2022-11-06T10:40:30.000Z</Time>
            <Position>
              <LatitudeDegrees>41.35378637351095676422119140625</LatitudeDegrees>
              <LongitudeDegrees>-1.6506681405007839202880859375</LongitudeDegrees>
            </Position>
            <AltitudeMeters>580.5999755859375</AltitudeMeters>
            <DistanceMeters>6573.3734920823</DistanceMeters>
          </Trackpoint>
          <Trackpoint>
            <Time>2022-11-06T10:40:31.000Z</Time>
            <Position>
              <LatitudeDegrees>41.3537898100912570953369140625</LatitudeDegrees>
              <LongitudeDegrees>-1.65068917907774448394775390625</LongitudeDegrees>
            </Position>
            <AltitudeMeters>580.79998779296875</AltitudeMeters>
            <DistanceMeters>6575.1714818951</DistanceMeters>
          </Trackpoint>
          <Trackpoint>
            <Time>2022-11-06T10:40:32.000Z</Time>
            <Position>
              <LatitudeDegrees>41.35379190556704998016357421875</LatitudeDegrees>
              <LongitudeDegrees>-1.65070896036922931671142578125</LongitudeDegrees>
            </Position>
            <AltitudeMeters>581</AltitudeMeters>
            <DistanceMeters>6576.8418990948</DistanceMeters>
          </Trackpoint>
          <Trackpoint>
            <Time>2022-11-06T10:40:33.000Z</Time>
            <Position>
              <LatitudeDegrees>41.3537898100912570953369140625</LatitudeDegrees>
              <LongitudeDegrees>-1.65072790347039699554443359375</LongitudeDegrees>
            </Position>
            <AltitudeMeters>581.20001220703125</AltitudeMeters>
            <DistanceMeters>6578.440495865</DistanceMeters>
          </Trackpoint>
          <Trackpoint>
            <Time>2022-11-06T10:40:34.000Z</Time>
            <Position>
              <LatitudeDegrees>41.3537908159196376800537109375</LatitudeDegrees>
              <LongitudeDegrees>-1.6507445834577083587646484375</LongitudeDegrees>
            </Position>
            <AltitudeMeters>581.5999755859375</AltitudeMeters>
            <DistanceMeters>6579.8370976378</DistanceMeters>
          </Trackpoint>
          <Trackpoint>
            <Time>2022-11-06T10:40:35.000Z</Time>
            <Position>
              <LatitudeDegrees>41.35378804989159107208251953125</LatitudeDegrees>
              <LongitudeDegrees>-1.65076260454952716827392578125</LongitudeDegrees>
            </Position>
            <AltitudeMeters>581.5999755859375</AltitudeMeters>
            <DistanceMeters>6581.375239383</DistanceMeters>
          </Trackpoint>
          <Trackpoint>
            <Time>2022-11-06T10:40:36.000Z</Time>
            <Position>
              <LatitudeDegrees>41.35378872044384479522705078125</LatitudeDegrees>
              <LongitudeDegrees>-1.6507829725742340087890625</LongitudeDegrees>
            </Position>
            <AltitudeMeters>581.79998779296875</AltitudeMeters>
            <DistanceMeters>6583.0804328075</DistanceMeters>
          </Trackpoint>
          <Trackpoint>
            <Time>2022-11-06T10:40:37.000Z</Time>
            <Position>
              <LatitudeDegrees>41.35378737933933734893798828125</LatitudeDegrees>
              <LongitudeDegrees>-1.6508069448173046112060546875</LongitudeDegrees>
            </Position>
            <AltitudeMeters>582.20001220703125</AltitudeMeters>
            <DistanceMeters>6585.0872746284</DistanceMeters>
          </Trackpoint>
          <Trackpoint>
            <Time>2022-11-06T10:40:38.000Z</Time>
            <Position>
              <LatitudeDegrees>41.3537901453673839569091796875</LatitudeDegrees>
              <LongitudeDegrees>-1.65082982741296291351318359375</LongitudeDegrees>
            </Position>
            <AltitudeMeters>582.4000244140625</AltitudeMeters>
            <DistanceMeters>6587.0231159763</DistanceMeters>
          </Trackpoint>
          <Trackpoint>
            <Time>2022-11-06T10:40:39.000Z</Time>
            <Position>
              <LatitudeDegrees>41.3537911511957645416259765625</LatitudeDegrees>
              <LongitudeDegrees>-1.65085212327539920806884765625</LongitudeDegrees>
            </Position>
            <AltitudeMeters>582.5999755859375</AltitudeMeters>
            <DistanceMeters>6588.8876747528</DistanceMeters>
          </Trackpoint>
          <Trackpoint>
            <Time>2022-11-06T10:40:40.000Z</Time>
            <Position>
              <LatitudeDegrees>41.35379123501479625701904296875</LatitudeDegrees>
              <LongitudeDegrees>-1.650875844061374664306640625</LongitudeDegrees>
            </Position>
            <AltitudeMeters>582.79998779296875</AltitudeMeters>
            <DistanceMeters>6590.8673346167</DistanceMeters>
          </Trackpoint>
          <Trackpoint>
            <Time>2022-11-06T10:40:41.000Z</Time>
            <Position>
              <LatitudeDegrees>41.3537903130054473876953125</LatitudeDegrees>
              <LongitudeDegrees>-1.6509001515805721282958984375</LongitudeDegrees>
            </Position>
            <AltitudeMeters>583</AltitudeMeters>
            <DistanceMeters>6592.9009951122</DistanceMeters>
          </Trackpoint>
          <Trackpoint>
            <Time>2022-11-06T10:40:42.000Z</Time>
            <Position>
              <LatitudeDegrees>41.3537894748151302337646484375</LatitudeDegrees>
              <LongitudeDegrees>-1.650922112166881561279296875</LongitudeDegrees>
            </Position>
            <AltitudeMeters>583.4000244140625</AltitudeMeters>
            <DistanceMeters>6594.7387243061</DistanceMeters>
          </Trackpoint>
          <Trackpoint>
            <Time>2022-11-06T10:40:43.000Z</Time>
            <Position>
              <LatitudeDegrees>41.3537881337106227874755859375</LatitudeDegrees>
              <LongitudeDegrees>-1.65094600059092044830322265625</LongitudeDegrees>
            </Position>
            <AltitudeMeters>583.5999755859375</AltitudeMeters>
            <DistanceMeters>6596.7365465675</DistanceMeters>
          </Trackpoint>
          <Trackpoint>
            <Time>2022-11-06T10:40:44.000Z</Time>
            <Position>
              <LatitudeDegrees>41.35378553532063961029052734375</LatitudeDegrees>
              <LongitudeDegrees>-1.6509685479104518890380859375</LongitudeDegrees>
            </Position>
            <AltitudeMeters>583.5999755859375</AltitudeMeters>
            <DistanceMeters>6598.6418262663</DistanceMeters>
          </Trackpoint>
          <Trackpoint>
            <Time>2022-11-06T10:40:45.000Z</Time>
            <Position>
              <LatitudeDegrees>41.35378469713032245635986328125</LatitudeDegrees>
              <LongitudeDegrees>-1.65099042467772960662841796875</LongitudeDegrees>
            </Position>
            <AltitudeMeters>583.79998779296875</AltitudeMeters>
            <DistanceMeters>6600.474635159</DistanceMeters>
          </Trackpoint>
          <Trackpoint>
            <Time>2022-11-06T10:40:46.000Z</Time>
            <Position>
              <LatitudeDegrees>41.35378285311162471771240234375</LatitudeDegrees>
              <LongitudeDegrees>-1.6510091163218021392822265625</LongitudeDegrees>
            </Position>
            <AltitudeMeters>584</AltitudeMeters>
            <DistanceMeters>6602.0476071694</DistanceMeters>
          </Trackpoint>
          <Trackpoint>
            <Time>2022-11-06T10:40:47.000Z</Time>
            <Position>
              <LatitudeDegrees>41.35378352366387844085693359375</LatitudeDegrees>
              <LongitudeDegrees>-1.65103149600327014923095703125</LongitudeDegrees>
            </Position>
            <AltitudeMeters>584.20001220703125</AltitudeMeters>
            <DistanceMeters>6603.9194163638</DistanceMeters>
          </Trackpoint>
          <Trackpoint>
            <Time>2022-11-06T10:40:48.000Z</Time>
            <Position>
              <LatitudeDegrees>41.3537847809493541717529296875</LatitudeDegrees>
              <LongitudeDegrees>-1.65105496533215045928955078125</LongitudeDegrees>
            </Position>
            <AltitudeMeters>584.4000244140625</AltitudeMeters>
            <DistanceMeters>6605.8853443173</DistanceMeters>
          </Trackpoint>
          <Trackpoint>
            <Time>2022-11-06T10:40:49.000Z</Time>
            <Position>
              <LatitudeDegrees>41.3537861220538616180419921875</LatitudeDegrees>
              <LongitudeDegrees>-1.65107709355652332305908203125</LongitudeDegrees>
            </Position>
            <AltitudeMeters>584.5999755859375</AltitudeMeters>
            <DistanceMeters>6607.7377560017</DistanceMeters>
          </Trackpoint>
          <Trackpoint>
            <Time>2022-11-06T10:40:50.000Z</Time>
            <Position>
              <LatitudeDegrees>41.3537891395390033721923828125</LatitudeDegrees>
              <LongitudeDegrees>-1.65109419263899326324462890625</LongitudeDegrees>
            </Position>
            <AltitudeMeters>585</AltitudeMeters>
            <DistanceMeters>6609.2037567499</DistanceMeters>
          </Trackpoint>
          <Trackpoint>
            <Time>2022-11-06T10:40:51.000Z</Time>
            <Position>
              <LatitudeDegrees>41.3537891395390033721923828125</LatitudeDegrees>
              <LongitudeDegrees>-1.65109419263899326324462890625</LongitudeDegrees>
            </Position>
            <AltitudeMeters>585.20001220703125</AltitudeMeters>
            <DistanceMeters>6609.2037567499</DistanceMeters>
          </Trackpoint>
          <Trackpoint>
            <Time>2022-11-06T10:40:52.000Z</Time>
            <Position>
              <LatitudeDegrees>41.3537988625466823577880859375</LatitudeDegrees>
              <LongitudeDegrees>-1.65113367140293121337890625</LongitudeDegrees>
            </Position>
            <AltitudeMeters>585.4000244140625</AltitudeMeters>
            <DistanceMeters>6612.6758097525</DistanceMeters>
          </Trackpoint>
          <Trackpoint>
            <Time>2022-11-06T10:40:53.000Z</Time>
            <Position>
              <LatitudeDegrees>41.35380950756371021270751953125</LatitudeDegrees>
              <LongitudeDegrees>-1.65115102194249629974365234375</LongitudeDegrees>
            </Position>
            <AltitudeMeters>586</AltitudeMeters>
            <DistanceMeters>6614.5476189469</DistanceMeters>
          </Trackpoint>
          <Trackpoint>
            <Time>2022-11-06T10:40:54.000Z</Time>
            <Position>
              <LatitudeDegrees>41.35381872765719890594482421875</LatitudeDegrees>
              <LongitudeDegrees>-1.65116761811077594757080078125</LongitudeDegrees>
            </Position>
            <AltitudeMeters>586.4000244140625</AltitudeMeters>
            <DistanceMeters>6616.2738649393</DistanceMeters>
          </Trackpoint>
          <Trackpoint>
            <Time>2022-11-06T10:40:55.000Z</Time>
            <Position>
              <LatitudeDegrees>41.353828869760036468505859375</LatitudeDegrees>
              <LongitudeDegrees>-1.651183627545833587646484375</LongitudeDegrees>
            </Position>
            <AltitudeMeters>586.4000244140625</AltitudeMeters>
            <DistanceMeters>6618.0260709749</DistanceMeters>
          </Trackpoint>
          <Trackpoint>
            <Time>2022-11-06T10:40:56.000Z</Time>
            <Position>
              <LatitudeDegrees>41.35383750312030315399169921875</LatitudeDegrees>
              <LongitudeDegrees>-1.65120097808539867401123046875</LongitudeDegrees>
            </Position>
            <AltitudeMeters>586.79998779296875</AltitudeMeters>
            <DistanceMeters>6619.7679394214</DistanceMeters>
          </Trackpoint>
          <Trackpoint>
            <Time>2022-11-06T10:40:57.000Z</Time>
            <Position>
              <LatitudeDegrees>41.35384152643382549285888671875</LatitudeDegrees>
              <LongitudeDegrees>-1.65121589787304401397705078125</LongitudeDegrees>
            </Position>
            <AltitudeMeters>587</AltitudeMeters>
            <DistanceMeters>6621.0949152715</DistanceMeters>
          </Trackpoint>
          <Trackpoint>
            <Time>2022-11-06T10:40:58.000Z</Time>
            <Position>
              <LatitudeDegrees>41.353843621909618377685546875</LatitudeDegrees>
              <LongitudeDegrees>-1.65122964419424533843994140625</LongitudeDegrees>
            </Position>
            <AltitudeMeters>587.4000244140625</AltitudeMeters>
            <DistanceMeters>6622.2664832889</DistanceMeters>
          </Trackpoint>
          <Trackpoint>
            <Time>2022-11-06T10:40:59.000Z</Time>
            <Position>
              <LatitudeDegrees>41.353841610252857208251953125</LatitudeDegrees>
              <LongitudeDegrees>-1.65124573744833469390869140625</LongitudeDegrees>
            </Position>
            <AltitudeMeters>587.79998779296875</AltitudeMeters>
            <DistanceMeters>6623.6270587815</DistanceMeters>
          </Trackpoint>
          <Trackpoint>
            <Time>2022-11-06T10:41:00.000Z</Time>
            <Position>
              <LatitudeDegrees>41.35383658111095428466796875</LatitudeDegrees>
              <LongitudeDegrees>-1.6512657701969146728515625</LongitudeDegrees>
            </Position>
            <AltitudeMeters>588</AltitudeMeters>
            <DistanceMeters>6625.3946578451</DistanceMeters>
          </Trackpoint>
          <Trackpoint>
            <Time>2022-11-06T10:41:01.000Z</Time>
            <Position>
              <LatitudeDegrees>41.35383448563516139984130859375</LatitudeDegrees>
              <LongitudeDegrees>-1.6512850485742092132568359375</LongitudeDegrees>
            </Position>
            <AltitudeMeters>588.20001220703125</AltitudeMeters>
            <DistanceMeters>6627.0212531844</DistanceMeters>
          </Trackpoint>
          <Trackpoint>
            <Time>2022-11-06T10:41:02.000Z</Time>
            <Position>
              <LatitudeDegrees>41.3538357429206371307373046875</LatitudeDegrees>
              <LongitudeDegrees>-1.65130374021828174591064453125</LongitudeDegrees>
            </Position>
            <AltitudeMeters>588.5999755859375</AltitudeMeters>
            <DistanceMeters>6628.5884739069</DistanceMeters>
          </Trackpoint>
          <Trackpoint>
            <Time>2022-11-06T10:41:03.000Z</Time>
            <Position>
              <LatitudeDegrees>41.3538401015102863311767578125</LatitudeDegrees>
              <LongitudeDegrees>-1.651325784623622894287109375</LongitudeDegrees>
            </Position>
            <AltitudeMeters>588.79998779296875</AltitudeMeters>
            <DistanceMeters>6630.4937536056</DistanceMeters>
          </Trackpoint>
          <Trackpoint>
            <Time>2022-11-06T10:41:04.000Z</Time>
            <Position>
              <LatitudeDegrees>41.35384387336671352386474609375</LatitudeDegrees>
              <LongitudeDegrees>-1.65134347043931484222412109375</LongitudeDegrees>
            </Position>
            <AltitudeMeters>589.20001220703125</AltitudeMeters>
            <DistanceMeters>6632.0318953508</DistanceMeters>
          </Trackpoint>
          <Trackpoint>
            <Time>2022-11-06T10:41:05.000Z</Time>
            <Position>
              <LatitudeDegrees>41.35384999215602874755859375</LatitudeDegrees>
              <LongitudeDegrees>-1.651361323893070220947265625</LongitudeDegrees>
            </Position>
            <AltitudeMeters>589.4000244140625</AltitudeMeters>
            <DistanceMeters>6633.67231078</DistanceMeters>
          </Trackpoint>
          <Trackpoint>
            <Time>2022-11-06T10:41:06.000Z</Time>
            <Position>
              <LatitudeDegrees>41.35385476984083652496337890625</LatitudeDegrees>
              <LongitudeDegrees>-1.65137833915650844573974609375</LongitudeDegrees>
            </Position>
            <AltitudeMeters>589.79998779296875</AltitudeMeters>
            <DistanceMeters>6635.1897657194</DistanceMeters>
          </Trackpoint>
          <Trackpoint>
            <Time>2022-11-06T10:41:07.000Z</Time>
            <Position>
              <LatitudeDegrees>41.35385979898273944854736328125</LatitudeDegrees>
              <LongitudeDegrees>-1.651393510401248931884765625</LongitudeDegrees>
            </Position>
            <AltitudeMeters>590.20001220703125</AltitudeMeters>
            <DistanceMeters>6636.5766349571</DistanceMeters>
          </Trackpoint>
          <Trackpoint>
            <Time>2022-11-06T10:41:08.000Z</Time>
            <Position>
              <LatitudeDegrees>41.3538602180778980255126953125</LatitudeDegrees>
              <LongitudeDegrees>-1.65140767581760883331298828125</LongitudeDegrees>
            </Position>
            <AltitudeMeters>590.5999755859375</AltitudeMeters>
            <DistanceMeters>6637.7635182392</DistanceMeters>
          </Trackpoint>
          <Trackpoint>
            <Time>2022-11-06T10:41:09.000Z</Time>
            <Position>
              <LatitudeDegrees>41.35385937988758087158203125</LatitudeDegrees>
              <LongitudeDegrees>-1.6514282114803791046142578125</LongitudeDegrees>
            </Position>
            <AltitudeMeters>591</AltitudeMeters>
            <DistanceMeters>6639.4818997443</DistanceMeters>
          </Trackpoint>
          <Trackpoint>
            <Time>2022-11-06T10:41:10.000Z</Time>
            <Position>
              <LatitudeDegrees>41.35385896079242229461669921875</LatitudeDegrees>
              <LongitudeDegrees>-1.65145159699022769927978515625</LongitudeDegrees>
            </Position>
            <AltitudeMeters>591.20001220703125</AltitudeMeters>
            <DistanceMeters>6641.4386195537</DistanceMeters>
          </Trackpoint>
          <Trackpoint>
            <Time>2022-11-06T10:41:11.000Z</Time>
            <Position>
              <LatitudeDegrees>41.35385862551629543304443359375</LatitudeDegrees>
              <LongitudeDegrees>-1.65146785788238048553466796875</LongitudeDegrees>
            </Position>
            <AltitudeMeters>591.4000244140625</AltitudeMeters>
            <DistanceMeters>6642.802509486</DistanceMeters>
          </Trackpoint>
          <Trackpoint>
            <Time>2022-11-06T10:41:12.000Z</Time>
            <Position>
              <LatitudeDegrees>41.35385669767856597900390625</LatitudeDegrees>
              <LongitudeDegrees>-1.651488058269023895263671875</LongitudeDegrees>
            </Position>
            <AltitudeMeters>591.79998779296875</AltitudeMeters>
            <DistanceMeters>6644.5077029105</DistanceMeters>
          </Trackpoint>
          <Trackpoint>
            <Time>2022-11-06T10:41:13.000Z</Time>
            <Position>
              <LatitudeDegrees>41.3538515008985996246337890625</LatitudeDegrees>
              <LongitudeDegrees>-1.6515073366463184356689453125</LongitudeDegrees>
            </Position>
            <AltitudeMeters>592</AltitudeMeters>
            <DistanceMeters>6646.2208213665</DistanceMeters>
          </Trackpoint>
          <Trackpoint>
            <Time>2022-11-06T10:41:14.000Z</Time>
            <Position>
              <LatitudeDegrees>41.3538454659283161163330078125</LatitudeDegrees>
              <LongitudeDegrees>-1.651522256433963775634765625</LongitudeDegrees>
            </Position>
            <AltitudeMeters>592.20001220703125</AltitudeMeters>
            <DistanceMeters>6647.6398728268</DistanceMeters>
          </Trackpoint>
          <Trackpoint>
            <Time>2022-11-06T10:41:15.000Z</Time>
            <Position>
              <LatitudeDegrees>41.35384219698607921600341796875</LatitudeDegrees>
              <LongitudeDegrees>-1.65153692476451396942138671875</LongitudeDegrees>
            </Position>
            <AltitudeMeters>592.5999755859375</AltitudeMeters>
            <DistanceMeters>6648.9183265164</DistanceMeters>
          </Trackpoint>
          <Trackpoint>
            <Time>2022-11-06T10:41:16.000Z</Time>
            <Position>
              <LatitudeDegrees>41.35383850894868373870849609375</LatitudeDegrees>
              <LongitudeDegrees>-1.6515527665615081787109375</LongitudeDegrees>
            </Position>
            <AltitudeMeters>592.79998779296875</AltitudeMeters>
            <DistanceMeters>6650.3051957541</DistanceMeters>
          </Trackpoint>
          <Trackpoint>
            <Time>2022-11-06T10:41:17.000Z</Time>
            <Position>
              <LatitudeDegrees>41.353836916387081146240234375</LatitudeDegrees>
              <LongitudeDegrees>-1.6515737213194370269775390625</LongitudeDegrees>
            </Position>
            <AltitudeMeters>593</AltitudeMeters>
            <DistanceMeters>6652.067678746</DistanceMeters>
          </Trackpoint>
          <Trackpoint>
            <Time>2022-11-06T10:41:18.000Z</Time>
            <Position>
              <LatitudeDegrees>41.35383792221546173095703125</LatitudeDegrees>
              <LongitudeDegrees>-1.65158939547836780548095703125</LongitudeDegrees>
            </Position>
            <AltitudeMeters>593.20001220703125</AltitudeMeters>
            <DistanceMeters>6653.3844075249</DistanceMeters>
          </Trackpoint>
          <Trackpoint>
            <Time>2022-11-06T10:41:19.000Z</Time>
            <Position>
              <LatitudeDegrees>41.3538412749767303466796875</LatitudeDegrees>
              <LongitudeDegrees>-1.65160733275115489959716796875</LongitudeDegrees>
            </Position>
            <AltitudeMeters>593.5999755859375</AltitudeMeters>
            <DistanceMeters>6654.9284088789</DistanceMeters>
          </Trackpoint>
          <Trackpoint>
            <Time>2022-11-06T10:41:20.000Z</Time>
            <Position>
              <LatitudeDegrees>41.35384328663349151611328125</LatitudeDegrees>
              <LongitudeDegrees>-1.65162292309105396270751953125</LongitudeDegrees>
            </Position>
            <AltitudeMeters>593.79998779296875</AltitudeMeters>
            <DistanceMeters>6656.2519778534</DistanceMeters>
          </Trackpoint>
          <Trackpoint>
            <Time>2022-11-06T10:41:21.000Z</Time>
            <Position>
              <LatitudeDegrees>41.35384328663349151611328125</LatitudeDegrees>
              <LongitudeDegrees>-1.651639603078365325927734375</LongitudeDegrees>
            </Position>
            <AltitudeMeters>594.20001220703125</AltitudeMeters>
            <DistanceMeters>6657.6485796262</DistanceMeters>
          </Trackpoint>
          <Trackpoint>
            <Time>2022-11-06T10:41:22.000Z</Time>
            <Position>
              <LatitudeDegrees>41.35384269990026950836181640625</LatitudeDegrees>
              <LongitudeDegrees>-1.65165804326534271240234375</LongitudeDegrees>
            </Position>
            <AltitudeMeters>594.4000244140625</AltitudeMeters>
            <DistanceMeters>6659.1925809802</DistanceMeters>
          </Trackpoint>
          <Trackpoint>
            <Time>2022-11-06T10:41:23.000Z</Time>
            <Position>
              <LatitudeDegrees>41.353844292461872100830078125</LatitudeDegrees>
              <LongitudeDegrees>-1.65167824365198612213134765625</LongitudeDegrees>
            </Position>
            <AltitudeMeters>594.5999755859375</AltitudeMeters>
            <DistanceMeters>6660.8924705243</DistanceMeters>
          </Trackpoint>
          <Trackpoint>
            <Time>2022-11-06T10:41:24.000Z</Time>
            <Position>
              <LatitudeDegrees>41.353845298290252685546875</LatitudeDegrees>
              <LongitudeDegrees>-1.6516984440386295318603515625</LongitudeDegrees>
            </Position>
            <AltitudeMeters>594.79998779296875</AltitudeMeters>
            <DistanceMeters>6662.5817023486</DistanceMeters>
          </Trackpoint>
          <Trackpoint>
            <Time>2022-11-06T10:41:25.000Z</Time>
            <Position>
              <LatitudeDegrees>41.35384588502347469329833984375</LatitudeDegrees>
              <LongitudeDegrees>-1.6517163813114166259765625</LongitudeDegrees>
            </Position>
            <AltitudeMeters>595</AltitudeMeters>
            <DistanceMeters>6664.078184543</DistanceMeters>
          </Trackpoint>
          <Trackpoint>
            <Time>2022-11-06T10:41:26.000Z</Time>
            <Position>
              <LatitudeDegrees>41.35384320281445980072021484375</LatitudeDegrees>
              <LongitudeDegrees>-1.65173356421291828155517578125</LongitudeDegrees>
            </Position>
            <AltitudeMeters>595.20001220703125</AltitudeMeters>
            <DistanceMeters>6665.5441852912</DistanceMeters>
          </Trackpoint>
          <Trackpoint>
            <Time>2022-11-06T10:41:27.000Z</Time>
            <Position>
              <LatitudeDegrees>41.3538427837193012237548828125</LatitudeDegrees>
              <LongitudeDegrees>-1.65174948982894420623779296875</LongitudeDegrees>
            </Position>
            <AltitudeMeters>595.4000244140625</AltitudeMeters>
            <DistanceMeters>6666.8745592924</DistanceMeters>
          </Trackpoint>
          <Trackpoint>
            <Time>2022-11-06T10:41:28.000Z</Time>
            <Position>
              <LatitudeDegrees>41.35384672321379184722900390625</LatitudeDegrees>
              <LongitudeDegrees>-1.65176843293011188507080078125</LongitudeDegrees>
            </Position>
            <AltitudeMeters>595.79998779296875</AltitudeMeters>
            <DistanceMeters>6668.5149747215</DistanceMeters>
          </Trackpoint>
          <Trackpoint>
            <Time>2022-11-06T10:41:29.000Z</Time>
            <Position>
              <LatitudeDegrees>41.3538521714508533477783203125</LatitudeDegrees>
              <LongitudeDegrees>-1.65178754366934299468994140625</LongitudeDegrees>
            </Position>
            <AltitudeMeters>596.20001220703125</AltitudeMeters>
            <DistanceMeters>6670.220168146</DistanceMeters>
          </Trackpoint>
          <Trackpoint>
            <Time>2022-11-06T10:41:30.000Z</Time>
            <Position>
              <LatitudeDegrees>41.35385644622147083282470703125</LatitudeDegrees>
              <LongitudeDegrees>-1.65180824697017669677734375</LongitudeDegrees>
            </Position>
            <AltitudeMeters>596.20001220703125</AltitudeMeters>
            <DistanceMeters>6672.0131286069</DistanceMeters>
          </Trackpoint>
          <Trackpoint>
            <Time>2022-11-06T10:41:31.000Z</Time>
            <Position>
              <LatitudeDegrees>41.3538568653166294097900390625</LatitudeDegrees>
              <LongitudeDegrees>-1.65182459168136119842529296875</LongitudeDegrees>
            </Position>
            <AltitudeMeters>596.5999755859375</AltitudeMeters>
            <DistanceMeters>6673.3770185392</DistanceMeters>
          </Trackpoint>
          <Trackpoint>
            <Time>2022-11-06T10:41:32.000Z</Time>
            <Position>
              <LatitudeDegrees>41.35385292582213878631591796875</LatitudeDegrees>
              <LongitudeDegrees>-1.65183682925999164581298828125</LongitudeDegrees>
            </Position>
            <AltitudeMeters>597</AltitudeMeters>
            <DistanceMeters>6674.4933296738</DistanceMeters>
          </Trackpoint>
          <Trackpoint>
            <Time>2022-11-06T10:41:33.000Z</Time>
            <Position>
              <LatitudeDegrees>41.3538458012044429779052734375</LatitudeDegrees>
              <LongitudeDegrees>-1.6518478095531463623046875</LongitudeDegrees>
            </Position>
            <AltitudeMeters>597.20001220703125</AltitudeMeters>
            <DistanceMeters>6675.7065495468</DistanceMeters>
          </Trackpoint>
          <Trackpoint>
            <Time>2022-11-06T10:41:34.000Z</Time>
            <Position>
              <LatitudeDegrees>41.3538384251296520233154296875</LatitudeDegrees>
              <LongitudeDegrees>-1.6518600471317768096923828125</LongitudeDegrees>
            </Position>
            <AltitudeMeters>597.4000244140625</AltitudeMeters>
            <DistanceMeters>6677.0198448681</DistanceMeters>
          </Trackpoint>
          <Trackpoint>
            <Time>2022-11-06T10:41:35.000Z</Time>
            <Position>
              <LatitudeDegrees>41.35382878594100475311279296875</LatitudeDegrees>
              <LongitudeDegrees>-1.65187303908169269561767578125</LongitudeDegrees>
            </Position>
            <AltitudeMeters>597.5999755859375</AltitudeMeters>
            <DistanceMeters>6678.5491551044</DistanceMeters>
          </Trackpoint>
          <Trackpoint>
            <Time>2022-11-06T10:41:36.000Z</Time>
            <Position>
              <LatitudeDegrees>41.353818140923976898193359375</LatitudeDegrees>
              <LongitudeDegrees>-1.65188871324062347412109375</LongitudeDegrees>
            </Position>
            <AltitudeMeters>597.79998779296875</AltitudeMeters>
            <DistanceMeters>6680.3141979858</DistanceMeters>
          </Trackpoint>
          <Trackpoint>
            <Time>2022-11-06T10:41:37.000Z</Time>
            <Position>
              <LatitudeDegrees>41.35381202213466167449951171875</LatitudeDegrees>
              <LongitudeDegrees>-1.651907823979854583740234375</LongitudeDegrees>
            </Position>
            <AltitudeMeters>598.20001220703125</AltitudeMeters>
            <DistanceMeters>6682.0508745626</DistanceMeters>
          </Trackpoint>
          <Trackpoint>
            <Time>2022-11-06T10:41:38.000Z</Time>
            <Position>
              <LatitudeDegrees>41.35381252504885196685791015625</LatitudeDegrees>
              <LongitudeDegrees>-1.6519282758235931396484375</LongitudeDegrees>
            </Position>
            <AltitudeMeters>598.4000244140625</AltitudeMeters>
            <DistanceMeters>6683.7587137504</DistanceMeters>
          </Trackpoint>
          <Trackpoint>
            <Time>2022-11-06T10:41:39.000Z</Time>
            <Position>
              <LatitudeDegrees>41.3538199849426746368408203125</LatitudeDegrees>
              <LongitudeDegrees>-1.6519428603351116180419921875</LongitudeDegrees>
            </Position>
            <AltitudeMeters>598.5999755859375</AltitudeMeters>
            <DistanceMeters>6685.2369825011</DistanceMeters>
          </Trackpoint>
          <Trackpoint>
            <Time>2022-11-06T10:41:40.000Z</Time>
            <Position>
              <LatitudeDegrees>41.35383515618741512298583984375</LatitudeDegrees>
              <LongitudeDegrees>-1.6519499011337757110595703125</LongitudeDegrees>
            </Position>
            <AltitudeMeters>598.79998779296875</AltitudeMeters>
            <DistanceMeters>6687.0274229882</DistanceMeters>
          </Trackpoint>
          <Trackpoint>
            <Time>2022-11-06T10:41:41.000Z</Time>
            <Position>
              <LatitudeDegrees>41.353849656879901885986328125</LatitudeDegrees>
              <LongitudeDegrees>-1.651950739324092864990234375</LongitudeDegrees>
            </Position>
            <AltitudeMeters>599.20001220703125</AltitudeMeters>
            <DistanceMeters>6688.6456696223</DistanceMeters>
          </Trackpoint>
          <Trackpoint>
            <Time>2022-11-06T10:41:42.000Z</Time>
            <Position>
              <LatitudeDegrees>41.3538618944585323333740234375</LatitudeDegrees>
              <LongitudeDegrees>-1.65194638073444366455078125</LongitudeDegrees>
            </Position>
            <AltitudeMeters>599.5999755859375</AltitudeMeters>
            <DistanceMeters>6690.0551435729</DistanceMeters>
          </Trackpoint>
          <Trackpoint>
            <Time>2022-11-06T10:41:43.000Z</Time>
            <Position>
              <LatitudeDegrees>41.35387388058006763458251953125</LatitudeDegrees>
              <LongitudeDegrees>-1.65194545872509479522705078125</LongitudeDegrees>
            </Position>
            <AltitudeMeters>599.79998779296875</AltitudeMeters>
            <DistanceMeters>6691.3956603436</DistanceMeters>
          </Trackpoint>
          <Trackpoint>
            <Time>2022-11-06T10:41:44.000Z</Time>
            <Position>
              <LatitudeDegrees>41.353885866701602935791015625</LatitudeDegrees>
              <LongitudeDegrees>-1.65194411762058734893798828125</LongitudeDegrees>
            </Position>
            <AltitudeMeters>600.4000244140625</AltitudeMeters>
            <DistanceMeters>6692.7328047396</DistanceMeters>
          </Trackpoint>
          <Trackpoint>
            <Time>2022-11-06T10:41:45.000Z</Time>
            <Position>
              <LatitudeDegrees>41.3539007864892482757568359375</LatitudeDegrees>
              <LongitudeDegrees>-1.65194244123995304107666015625</LongitudeDegrees>
            </Position>
            <AltitudeMeters>600.5999755859375</AltitudeMeters>
            <DistanceMeters>6694.4005168085</DistanceMeters>
          </Trackpoint>
          <Trackpoint>
            <Time>2022-11-06T10:41:46.000Z</Time>
            <Position>
              <LatitudeDegrees>41.353915035724639892578125</LatitudeDegrees>
              <LongitudeDegrees>-1.6519363224506378173828125</LongitudeDegrees>
            </Position>
            <AltitudeMeters>601</AltitudeMeters>
            <DistanceMeters>6696.0682288774</DistanceMeters>
          </Trackpoint>
          <Trackpoint>
            <Time>2022-11-06T10:41:47.000Z</Time>
            <Position>
              <LatitudeDegrees>41.35392903350293636322021484375</LatitudeDegrees>
              <LongitudeDegrees>-1.65192416869103908538818359375</LongitudeDegrees>
            </Position>
            <AltitudeMeters>601.4000244140625</AltitudeMeters>
            <DistanceMeters>6697.9279383381</DistanceMeters>
          </Trackpoint>
          <Trackpoint>
            <Time>2022-11-06T10:41:48.000Z</Time>
            <Position>
              <LatitudeDegrees>41.3539363257586956024169921875</LatitudeDegrees>
              <LongitudeDegrees>-1.65190614759922027587890625</LongitudeDegrees>
            </Position>
            <AltitudeMeters>601.79998779296875</AltitudeMeters>
            <DistanceMeters>6699.6384191967</DistanceMeters>
          </Trackpoint>
          <Trackpoint>
            <Time>2022-11-06T10:41:49.000Z</Time>
            <Position>
              <LatitudeDegrees>41.35394043289124965667724609375</LatitudeDegrees>
              <LongitudeDegrees>-1.65189030580222606658935546875</LongitudeDegrees>
            </Position>
            <AltitudeMeters>602</AltitudeMeters>
            <DistanceMeters>6701.0382501109</DistanceMeters>
          </Trackpoint>
          <Trackpoint>
            <Time>2022-11-06T10:41:50.000Z</Time>
            <Position>
              <LatitudeDegrees>41.35394428856670856475830078125</LatitudeDegrees>
              <LongitudeDegrees>-1.6518719494342803955078125</LongitudeDegrees>
            </Position>
            <AltitudeMeters>602.4000244140625</AltitudeMeters>
            <DistanceMeters>6702.6283511783</DistanceMeters>
          </Trackpoint>
          <Trackpoint>
            <Time>2022-11-06T10:41:51.000Z</Time>
            <Position>
              <LatitudeDegrees>41.35395032353699207305908203125</LatitudeDegrees>
              <LongitudeDegrees>-1.6518556885421276092529296875</LongitudeDegrees>
            </Position>
            <AltitudeMeters>602.5999755859375</AltitudeMeters>
            <DistanceMeters>6704.1458061177</DistanceMeters>
          </Trackpoint>
          <Trackpoint>
            <Time>2022-11-06T10:41:52.000Z</Time>
            <Position>
              <LatitudeDegrees>41.3539571128785610198974609375</LatitudeDegrees>
              <LongitudeDegrees>-1.651838757097721099853515625</LongitudeDegrees>
            </Position>
            <AltitudeMeters>603.20001220703125</AltitudeMeters>
            <DistanceMeters>6705.7472247732</DistanceMeters>
          </Trackpoint>
          <Trackpoint>
            <Time>2022-11-06T10:41:53.000Z</Time>
            <Position>
              <LatitudeDegrees>41.3539659976959228515625</LatitudeDegrees>
              <LongitudeDegrees>-1.651828698813915252685546875</LongitudeDegrees>
            </Position>
            <AltitudeMeters>603.5999755859375</AltitudeMeters>
            <DistanceMeters>6707.0432163698</DistanceMeters>
          </Trackpoint>
          <Trackpoint>
            <Time>2022-11-06T10:41:54.000Z</Time>
            <Position>
              <LatitudeDegrees>41.353975720703601837158203125</LatitudeDegrees>
              <LongitudeDegrees>-1.651828698813915252685546875</LongitudeDegrees>
            </Position>
            <AltitudeMeters>603.79998779296875</AltitudeMeters>
            <DistanceMeters>6708.1225123724</DistanceMeters>
          </Trackpoint>
          <Trackpoint>
            <Time>2022-11-06T10:41:55.000Z</Time>
            <Position>
              <LatitudeDegrees>41.35398234240710735321044921875</LatitudeDegrees>
              <LongitudeDegrees>-1.65184236131608486175537109375</LongitudeDegrees>
            </Position>
            <AltitudeMeters>604</AltitudeMeters>
            <DistanceMeters>6709.4797653314</DistanceMeters>
          </Trackpoint>
          <Trackpoint>
            <Time>2022-11-06T10:41:56.000Z</Time>
            <Position>
              <LatitudeDegrees>41.3539835996925830841064453125</LatitudeDegrees>
              <LongitudeDegrees>-1.65186298079788684844970703125</LongitudeDegrees>
            </Position>
            <AltitudeMeters>604.20001220703125</AltitudeMeters>
            <DistanceMeters>6711.2060113238</DistanceMeters>
          </Trackpoint>
          <Trackpoint>
            <Time>2022-11-06T10:41:57.000Z</Time>
            <Position>
              <LatitudeDegrees>41.35397949256002902984619140625</LatitudeDegrees>
              <LongitudeDegrees>-1.65188460610806941986083984375</LongitudeDegrees>
            </Position>
            <AltitudeMeters>604.4000244140625</AltitudeMeters>
            <DistanceMeters>6713.0729900348</DistanceMeters>
          </Trackpoint>
          <Trackpoint>
            <Time>2022-11-06T10:41:58.000Z</Time>
            <Position>
              <LatitudeDegrees>41.3539735414087772369384765625</LatitudeDegrees>
              <LongitudeDegrees>-1.65190589614212512969970703125</LongitudeDegrees>
            </Position>
            <AltitudeMeters>604.4000244140625</AltitudeMeters>
            <DistanceMeters>6714.9687670325</DistanceMeters>
          </Trackpoint>
          <Trackpoint>
            <Time>2022-11-06T10:41:59.000Z</Time>
            <Position>
              <LatitudeDegrees>41.35396490804851055145263671875</LatitudeDegrees>
              <LongitudeDegrees>-1.6519311256706714630126953125</LongitudeDegrees>
            </Position>
            <AltitudeMeters>604.5999755859375</AltitudeMeters>
            <DistanceMeters>6717.2847690635</DistanceMeters>
          </Trackpoint>
          <Trackpoint>
            <Time>2022-11-06T10:42:00.000Z</Time>
            <Position>
              <LatitudeDegrees>41.35396021418273448944091796875</LatitudeDegrees>
              <LongitudeDegrees>-1.6519515775144100189208984375</LongitudeDegrees>
            </Position>
            <AltitudeMeters>604.79998779296875</AltitudeMeters>
            <DistanceMeters>6719.072686025</DistanceMeters>
          </Trackpoint>
          <Trackpoint>
            <Time>2022-11-06T10:42:01.000Z</Time>
            <Position>
              <LatitudeDegrees>41.35395904071629047393798828125</LatitudeDegrees>
              <LongitudeDegrees>-1.6519700177013874053955078125</LongitudeDegrees>
            </Position>
            <AltitudeMeters>605</AltitudeMeters>
            <DistanceMeters>6720.616687379</DistanceMeters>
          </Trackpoint>
          <Trackpoint>
            <Time>2022-11-06T10:42:02.000Z</Time>
            <Position>
              <LatitudeDegrees>41.35396205820143222808837890625</LatitudeDegrees>
              <LongitudeDegrees>-1.6519824229180812835693359375</LongitudeDegrees>
            </Position>
            <AltitudeMeters>605.5999755859375</AltitudeMeters>
            <DistanceMeters>6721.7084612066</DistanceMeters>
          </Trackpoint>
          <Trackpoint>
            <Time>2022-11-06T10:42:03.000Z</Time>
            <Position>
              <LatitudeDegrees>41.35396675206720829010009765625</LatitudeDegrees>
              <LongitudeDegrees>-1.65199960581958293914794921875</LongitudeDegrees>
            </Position>
            <AltitudeMeters>606</AltitudeMeters>
            <DistanceMeters>6723.2348162513</DistanceMeters>
          </Trackpoint>
          <Trackpoint>
            <Time>2022-11-06T10:42:04.000Z</Time>
            <Position>
              <LatitudeDegrees>41.35397261939942836761474609375</LatitudeDegrees>
              <LongitudeDegrees>-1.6520194709300994873046875</LongitudeDegrees>
            </Position>
            <AltitudeMeters>606.20001220703125</AltitudeMeters>
            <DistanceMeters>6725.017675446</DistanceMeters>
          </Trackpoint>
          <Trackpoint>
            <Time>2022-11-06T10:42:05.000Z</Time>
            <Position>
              <LatitudeDegrees>41.35397714562714099884033203125</LatitudeDegrees>
              <LongitudeDegrees>-1.6520370729267597198486328125</LongitudeDegrees>
            </Position>
            <AltitudeMeters>606.5999755859375</AltitudeMeters>
            <DistanceMeters>6726.5704247531</DistanceMeters>
          </Trackpoint>
          <Trackpoint>
            <Time>2022-11-06T10:42:06.000Z</Time>
            <Position>
              <LatitudeDegrees>41.35397479869425296783447265625</LatitudeDegrees>
              <LongitudeDegrees>-1.65205324999988079071044921875</LongitudeDegrees>
            </Position>
            <AltitudeMeters>607</AltitudeMeters>
            <DistanceMeters>6727.947492672</DistanceMeters>
          </Trackpoint>
          <Trackpoint>
            <Time>2022-11-06T10:42:07.000Z</Time>
            <Position>
              <LatitudeDegrees>41.35396826080977916717529296875</LatitudeDegrees>
              <LongitudeDegrees>-1.652066744863986968994140625</LongitudeDegrees>
            </Position>
            <AltitudeMeters>607.20001220703125</AltitudeMeters>
            <DistanceMeters>6729.284637068</DistanceMeters>
          </Trackpoint>
          <Trackpoint>
            <Time>2022-11-06T10:42:08.000Z</Time>
            <Position>
              <LatitudeDegrees>41.3539614714682102203369140625</LatitudeDegrees>
              <LongitudeDegrees>-1.6520779766142368316650390625</LongitudeDegrees>
            </Position>
            <AltitudeMeters>607.5999755859375</AltitudeMeters>
            <DistanceMeters>6730.4866404919</DistanceMeters>
          </Trackpoint>
          <Trackpoint>
            <Time>2022-11-06T10:42:09.000Z</Time>
            <Position>
              <LatitudeDegrees>41.35395526885986328125</LatitudeDegrees>
              <LongitudeDegrees>-1.65209700353443622589111328125</LongitudeDegrees>
            </Position>
            <AltitudeMeters>608</AltitudeMeters>
            <DistanceMeters>6732.2233170687</DistanceMeters>
          </Trackpoint>
          <Trackpoint>
            <Time>2022-11-06T10:42:10.000Z</Time>
            <Position>
              <LatitudeDegrees>41.35395116172730922698974609375</LatitudeDegrees>
              <LongitudeDegrees>-1.65211091749370098114013671875</LongitudeDegrees>
            </Position>
            <AltitudeMeters>608.4000244140625</AltitudeMeters>
            <DistanceMeters>6733.4768055214</DistanceMeters>
          </Trackpoint>
          <Trackpoint>
            <Time>2022-11-06T10:42:11.000Z</Time>
            <Position>
              <LatitudeDegrees>41.3539473898708820343017578125</LatitudeDegrees>
              <LongitudeDegrees>-1.652126424014568328857421875</LongitudeDegrees>
            </Position>
            <AltitudeMeters>608.5999755859375</AltitudeMeters>
            <DistanceMeters>6734.837381014</DistanceMeters>
          </Trackpoint>
          <Trackpoint>
            <Time>2022-11-06T10:42:12.000Z</Time>
            <Position>
              <LatitudeDegrees>41.35394361801445484161376953125</LatitudeDegrees>
              <LongitudeDegrees>-1.6521433554589748382568359375</LongitudeDegrees>
            </Position>
            <AltitudeMeters>608.5999755859375</AltitudeMeters>
            <DistanceMeters>6736.3095285428</DistanceMeters>
          </Trackpoint>
          <Trackpoint>
            <Time>2022-11-06T10:42:13.000Z</Time>
            <Position>
              <LatitudeDegrees>41.353936158120632171630859375</LatitudeDegrees>
              <LongitudeDegrees>-1.65216439403593540191650390625</LongitudeDegrees>
            </Position>
            <AltitudeMeters>608.79998779296875</AltitudeMeters>
            <DistanceMeters>6738.2523543079</DistanceMeters>
          </Trackpoint>
          <Trackpoint>
            <Time>2022-11-06T10:42:14.000Z</Time>
            <Position>
              <LatitudeDegrees>41.35393322445452213287353515625</LatitudeDegrees>
              <LongitudeDegrees>-1.65218107402324676513671875</LongitudeDegrees>
            </Position>
            <AltitudeMeters>609.20001220703125</AltitudeMeters>
            <DistanceMeters>6739.6809190689</DistanceMeters>
          </Trackpoint>
          <Trackpoint>
            <Time>2022-11-06T10:42:15.000Z</Time>
            <Position>
              <LatitudeDegrees>41.3539297878742218017578125</LatitudeDegrees>
              <LongitudeDegrees>-1.6521996818482875823974609375</LongitudeDegrees>
            </Position>
            <AltitudeMeters>609.79998779296875</AltitudeMeters>
            <DistanceMeters>6741.2823377244</DistanceMeters>
          </Trackpoint>
          <Trackpoint>
            <Time>2022-11-06T10:42:16.000Z</Time>
            <Position>
              <LatitudeDegrees>41.35392953641712665557861328125</LatitudeDegrees>
              <LongitudeDegrees>-1.652216948568820953369140625</LongitudeDegrees>
            </Position>
            <AltitudeMeters>610</AltitudeMeters>
            <DistanceMeters>6742.7234892022</DistanceMeters>
          </Trackpoint>
          <Trackpoint>
            <Time>2022-11-06T10:42:17.000Z</Time>
            <Position>
              <LatitudeDegrees>41.35393037460744380950927734375</LatitudeDegrees>
              <LongitudeDegrees>-1.65222574956715106964111328125</LongitudeDegrees>
            </Position>
            <AltitudeMeters>610.20001220703125</AltitudeMeters>
            <DistanceMeters>6743.4656715673</DistanceMeters>
          </Trackpoint>
          <Trackpoint>
            <Time>2022-11-06T10:42:18.000Z</Time>
            <Position>
              <LatitudeDegrees>41.35392735712230205535888671875</LatitudeDegrees>
              <LongitudeDegrees>-1.65223337709903717041015625</LongitudeDegrees>
            </Position>
            <AltitudeMeters>610.5999755859375</AltitudeMeters>
            <DistanceMeters>6744.189373463</DistanceMeters>
          </Trackpoint>
          <Trackpoint>
            <Time>2022-11-06T10:42:19.000Z</Time>
            <Position>
              <LatitudeDegrees>41.3539222441613674163818359375</LatitudeDegrees>
              <LongitudeDegrees>-1.6522456146776676177978515625</LongitudeDegrees>
            </Position>
            <AltitudeMeters>610.79998779296875</AltitudeMeters>
            <DistanceMeters>6745.3609414804</DistanceMeters>
          </Trackpoint>
          <Trackpoint>
            <Time>2022-11-06T10:42:20.000Z</Time>
            <Position>
              <LatitudeDegrees>41.35391713120043277740478515625</LatitudeDegrees>
              <LongitudeDegrees>-1.652259863913059234619140625</LongitudeDegrees>
            </Position>
            <AltitudeMeters>611</AltitudeMeters>
            <DistanceMeters>6746.6810947873</DistanceMeters>
          </Trackpoint>
          <Trackpoint>
            <Time>2022-11-06T10:42:21.000Z</Time>
            <Position>
              <LatitudeDegrees>41.3539155386388301849365234375</LatitudeDegrees>
              <LongitudeDegrees>-1.65226547978818416595458984375</LongitudeDegrees>
            </Position>
            <AltitudeMeters>611.20001220703125</AltitudeMeters>
            <DistanceMeters>6747.1839288956</DistanceMeters>
          </Trackpoint>
          <Trackpoint>
            <Time>2022-11-06T10:42:22.000Z</Time>
            <Position>
              <LatitudeDegrees>41.353914029896259307861328125</LatitudeDegrees>
              <LongitudeDegrees>-1.6522717662155628204345703125</LongitudeDegrees>
            </Position>
            <AltitudeMeters>611.4000244140625</AltitudeMeters>
            <DistanceMeters>6747.7298158094</DistanceMeters>
          </Trackpoint>
          <Trackpoint>
            <Time>2022-11-06T10:42:23.000Z</Time>
            <Position>
              <LatitudeDegrees>41.3539098389446735382080078125</LatitudeDegrees>
              <LongitudeDegrees>-1.65228308178484439849853515625</LongitudeDegrees>
            </Position>
            <AltitudeMeters>611.5999755859375</AltitudeMeters>
            <DistanceMeters>6748.7879885169</DistanceMeters>
          </Trackpoint>
          <Trackpoint>
            <Time>2022-11-06T10:42:24.000Z</Time>
            <Position>
              <LatitudeDegrees>41.35390765964984893798828125</LatitudeDegrees>
              <LongitudeDegrees>-1.65229506790637969970703125</LongitudeDegrees>
            </Position>
            <AltitudeMeters>611.79998779296875</AltitudeMeters>
            <DistanceMeters>6749.8202428559</DistanceMeters>
          </Trackpoint>
          <Trackpoint>
            <Time>2022-11-06T10:42:25.000Z</Time>
            <Position>
              <LatitudeDegrees>41.35390740819275379180908203125</LatitudeDegrees>
              <LongitudeDegrees>-1.65230713784694671630859375</LongitudeDegrees>
            </Position>
            <AltitudeMeters>612.20001220703125</AltitudeMeters>
            <DistanceMeters>6750.8303906858</DistanceMeters>
          </Trackpoint>
          <Trackpoint>
            <Time>2022-11-06T10:42:26.000Z</Time>
            <Position>
              <LatitudeDegrees>41.35390774346888065338134765625</LatitudeDegrees>
              <LongitudeDegrees>-1.6523233987390995025634765625</LongitudeDegrees>
            </Position>
            <AltitudeMeters>612.4000244140625</AltitudeMeters>
            <DistanceMeters>6752.1909661784</DistanceMeters>
          </Trackpoint>
          <Trackpoint>
            <Time>2022-11-06T10:42:27.000Z</Time>
            <Position>
              <LatitudeDegrees>41.35390707291662693023681640625</LatitudeDegrees>
              <LongitudeDegrees>-1.6523445211350917816162109375</LongitudeDegrees>
            </Position>
            <AltitudeMeters>612.5999755859375</AltitudeMeters>
            <DistanceMeters>6753.958565242</DistanceMeters>
          </Trackpoint>
          <Trackpoint>
            <Time>2022-11-06T10:42:28.000Z</Time>
            <Position>
              <LatitudeDegrees>41.35390472598373889923095703125</LatitudeDegrees>
              <LongitudeDegrees>-1.6523629613220691680908203125</LongitudeDegrees>
            </Position>
            <AltitudeMeters>612.79998779296875</AltitudeMeters>
            <DistanceMeters>6755.5200134927</DistanceMeters>
          </Trackpoint>
          <Trackpoint>
            <Time>2022-11-06T10:42:29.000Z</Time>
            <Position>
              <LatitudeDegrees>41.3538981042802333831787109375</LatitudeDegrees>
              <LongitudeDegrees>-1.6523815691471099853515625</LongitudeDegrees>
            </Position>
            <AltitudeMeters>613</AltitudeMeters>
            <DistanceMeters>6757.2410204868</DistanceMeters>
          </Trackpoint>
          <Trackpoint>
            <Time>2022-11-06T10:42:30.000Z</Time>
            <Position>
              <LatitudeDegrees>41.3538895547389984130859375</LatitudeDegrees>
              <LongitudeDegrees>-1.65239875204861164093017578125</LongitudeDegrees>
            </Position>
            <AltitudeMeters>613.20001220703125</AltitudeMeters>
            <DistanceMeters>6758.9620274809</DistanceMeters>
          </Trackpoint>
          <Trackpoint>
            <Time>2022-11-06T10:42:31.000Z</Time>
            <Position>
              <LatitudeDegrees>41.3538799993693828582763671875</LatitudeDegrees>
              <LongitudeDegrees>-1.65241367183625698089599609375</LongitudeDegrees>
            </Position>
            <AltitudeMeters>613.5999755859375</AltitudeMeters>
            <DistanceMeters>6760.5996882223</DistanceMeters>
          </Trackpoint>
          <Trackpoint>
            <Time>2022-11-06T10:42:32.000Z</Time>
            <Position>
              <LatitudeDegrees>41.35386834852397441864013671875</LatitudeDegrees>
              <LongitudeDegrees>-1.6524283401668071746826171875</LongitudeDegrees>
            </Position>
            <AltitudeMeters>613.5999755859375</AltitudeMeters>
            <DistanceMeters>6762.382547417</DistanceMeters>
          </Trackpoint>
          <Trackpoint>
            <Time>2022-11-06T10:42:33.000Z</Time>
            <Position>
              <LatitudeDegrees>41.35385979898273944854736328125</LatitudeDegrees>
              <LongitudeDegrees>-1.6524447686970233917236328125</LongitudeDegrees>
            </Position>
            <AltitudeMeters>614</AltitudeMeters>
            <DistanceMeters>6764.0529646167</DistanceMeters>
          </Trackpoint>
          <Trackpoint>
            <Time>2022-11-06T10:42:34.000Z</Time>
            <Position>
              <LatitudeDegrees>41.35385208763182163238525390625</LatitudeDegrees>
              <LongitudeDegrees>-1.652461700141429901123046875</LongitudeDegrees>
            </Position>
            <AltitudeMeters>614.20001220703125</AltitudeMeters>
            <DistanceMeters>6765.7043528467</DistanceMeters>
          </Trackpoint>
          <Trackpoint>
            <Time>2022-11-06T10:42:35.000Z</Time>
            <Position>
              <LatitudeDegrees>41.3538439571857452392578125</LatitudeDegrees>
              <LongitudeDegrees>-1.65247988887131214141845703125</LongitudeDegrees>
            </Position>
            <AltitudeMeters>614.4000244140625</AltitudeMeters>
            <DistanceMeters>6767.4770532169</DistanceMeters>
          </Trackpoint>
          <Trackpoint>
            <Time>2022-11-06T10:42:36.000Z</Time>
            <Position>
              <LatitudeDegrees>41.3538364134728908538818359375</LatitudeDegrees>
              <LongitudeDegrees>-1.65249279700219631195068359375</LongitudeDegrees>
            </Position>
            <AltitudeMeters>614.4000244140625</AltitudeMeters>
            <DistanceMeters>6768.8475479817</DistanceMeters>
          </Trackpoint>
          <Trackpoint>
            <Time>2022-11-06T10:42:37.000Z</Time>
            <Position>
              <LatitudeDegrees>41.35382995940744876861572265625</LatitudeDegrees>
              <LongitudeDegrees>-1.65250536985695362091064453125</LongitudeDegrees>
            </Position>
            <AltitudeMeters>614.5999755859375</AltitudeMeters>
            <DistanceMeters>6770.1153624819</DistanceMeters>
          </Trackpoint>
          <Trackpoint>
            <Time>2022-11-06T10:42:38.000Z</Time>
            <Position>
              <LatitudeDegrees>41.353823505342006683349609375</LatitudeDegrees>
              <LongitudeDegrees>-1.6525198705494403839111328125</LongitudeDegrees>
            </Position>
            <AltitudeMeters>614.79998779296875</AltitudeMeters>
            <DistanceMeters>6771.5216294343</DistanceMeters>
          </Trackpoint>
          <Trackpoint>
            <Time>2022-11-06T10:42:39.000Z</Time>
            <Position>
              <LatitudeDegrees>41.3538156263530254364013671875</LatitudeDegrees>
              <LongitudeDegrees>-1.65253780782222747802734375</LongitudeDegrees>
            </Position>
            <AltitudeMeters>614.79998779296875</AltitudeMeters>
            <DistanceMeters>6773.258306011</DistanceMeters>
          </Trackpoint>
          <Trackpoint>
            <Time>2022-11-06T10:42:40.000Z</Time>
            <Position>
              <LatitudeDegrees>41.353812105953693389892578125</LatitudeDegrees>
              <LongitudeDegrees>-1.65255348198115825653076171875</LongitudeDegrees>
            </Position>
            <AltitudeMeters>615</AltitudeMeters>
            <DistanceMeters>6774.6288007758</DistanceMeters>
          </Trackpoint>
          <Trackpoint>
            <Time>2022-11-06T10:42:41.000Z</Time>
            <Position>
              <LatitudeDegrees>41.3538032211363315582275390625</LatitudeDegrees>
              <LongitudeDegrees>-1.6525684855878353118896484375</LongitudeDegrees>
            </Position>
            <AltitudeMeters>615.4000244140625</AltitudeMeters>
            <DistanceMeters>6776.2245706706</DistanceMeters>
          </Trackpoint>
          <Trackpoint>
            <Time>2022-11-06T10:42:42.000Z</Time>
            <Position>
              <LatitudeDegrees>41.353791989386081695556640625</LatitudeDegrees>
              <LongitudeDegrees>-1.65258030407130718231201171875</LongitudeDegrees>
            </Position>
            <AltitudeMeters>615.5999755859375</AltitudeMeters>
            <DistanceMeters>6777.814671738</DistanceMeters>
          </Trackpoint>
          <Trackpoint>
            <Time>2022-11-06T10:42:43.000Z</Time>
            <Position>
              <LatitudeDegrees>41.35378302074968814849853515625</LatitudeDegrees>
              <LongitudeDegrees>-1.65259069763123989105224609375</LongitudeDegrees>
            </Position>
            <AltitudeMeters>615.79998779296875</AltitudeMeters>
            <DistanceMeters>6779.1314005169</DistanceMeters>
          </Trackpoint>
          <Trackpoint>
            <Time>2022-11-06T10:42:44.000Z</Time>
            <Position>
              <LatitudeDegrees>41.35377354919910430908203125</LatitudeDegrees>
              <LongitudeDegrees>-1.652600504457950592041015625</LongitudeDegrees>
            </Position>
            <AltitudeMeters>616</AltitudeMeters>
            <DistanceMeters>6780.4685449129</DistanceMeters>
          </Trackpoint>
          <Trackpoint>
            <Time>2022-11-06T10:42:45.000Z</Time>
            <Position>
              <LatitudeDegrees>41.3537629880011081695556640625</LatitudeDegrees>
              <LongitudeDegrees>-1.6526120714843273162841796875</LongitudeDegrees>
            </Position>
            <AltitudeMeters>616.20001220703125</AltitudeMeters>
            <DistanceMeters>6781.9919390334</DistanceMeters>
          </Trackpoint>
          <Trackpoint>
            <Time>2022-11-06T10:42:46.000Z</Time>
            <Position>
              <LatitudeDegrees>41.3537519238889217376708984375</LatitudeDegrees>
              <LongitudeDegrees>-1.65262187831103801727294921875</LongitudeDegrees>
            </Position>
            <AltitudeMeters>616.5999755859375</AltitudeMeters>
            <DistanceMeters>6783.467150348</DistanceMeters>
          </Trackpoint>
          <Trackpoint>
            <Time>2022-11-06T10:42:47.000Z</Time>
            <Position>
              <LatitudeDegrees>41.353741027414798736572265625</LatitudeDegrees>
              <LongitudeDegrees>-1.6526283323764801025390625</LongitudeDegrees>
            </Position>
            <AltitudeMeters>616.79998779296875</AltitudeMeters>
            <DistanceMeters>6784.7907193225</DistanceMeters>
          </Trackpoint>
          <Trackpoint>
            <Time>2022-11-06T10:42:48.000Z</Time>
            <Position>
              <LatitudeDegrees>41.353728286921977996826171875</LatitudeDegrees>
              <LongitudeDegrees>-1.65263730101287364959716796875</LongitudeDegrees>
            </Position>
            <AltitudeMeters>617.20001220703125</AltitudeMeters>
            <DistanceMeters>6786.392137978</DistanceMeters>
          </Trackpoint>
          <Trackpoint>
            <Time>2022-11-06T10:42:49.000Z</Time>
            <Position>
              <LatitudeDegrees>41.3537177257239818572998046875</LatitudeDegrees>
              <LongitudeDegrees>-1.6526439227163791656494140625</LongitudeDegrees>
            </Position>
            <AltitudeMeters>617.4000244140625</AltitudeMeters>
            <DistanceMeters>6787.695078641</DistanceMeters>
          </Trackpoint>
          <Trackpoint>
            <Time>2022-11-06T10:42:50.000Z</Time>
            <Position>
              <LatitudeDegrees>41.3537059910595417022705078125</LatitudeDegrees>
              <LongitudeDegrees>-1.65264870040118694305419921875</LongitudeDegrees>
            </Position>
            <AltitudeMeters>617.79998779296875</AltitudeMeters>
            <DistanceMeters>6789.0589685733</DistanceMeters>
          </Trackpoint>
          <Trackpoint>
            <Time>2022-11-06T10:42:51.000Z</Time>
            <Position>
              <LatitudeDegrees>41.3536912389099597930908203125</LatitudeDegrees>
              <LongitudeDegrees>-1.65265155024826526641845703125</LongitudeDegrees>
            </Position>
            <AltitudeMeters>618</AltitudeMeters>
            <DistanceMeters>6790.7158159528</DistanceMeters>
          </Trackpoint>
          <Trackpoint>
            <Time>2022-11-06T10:42:52.000Z</Time>
            <Position>
              <LatitudeDegrees>41.353673301637172698974609375</LatitudeDegrees>
              <LongitudeDegrees>-1.65265607647597789764404296875</LongitudeDegrees>
            </Position>
            <AltitudeMeters>618.20001220703125</AltitudeMeters>
            <DistanceMeters>6792.7494764484</DistanceMeters>
          </Trackpoint>
          <Trackpoint>
            <Time>2022-11-06T10:42:53.000Z</Time>
            <Position>
              <LatitudeDegrees>41.35365687310695648193359375</LatitudeDegrees>
              <LongitudeDegrees>-1.652658842504024505615234375</LongitudeDegrees>
            </Position>
            <AltitudeMeters>618.4000244140625</AltitudeMeters>
            <DistanceMeters>6794.5921128051</DistanceMeters>
          </Trackpoint>
          <Trackpoint>
            <Time>2022-11-06T10:42:54.000Z</Time>
            <Position>
              <LatitudeDegrees>41.35364237241446971893310546875</LatitudeDegrees>
              <LongitudeDegrees>-1.65266412310302257537841796875</LongitudeDegrees>
            </Position>
            <AltitudeMeters>618.4000244140625</AltitudeMeters>
            <DistanceMeters>6796.2625300048</DistanceMeters>
          </Trackpoint>
          <Trackpoint>
            <Time>2022-11-06T10:42:55.000Z</Time>
            <Position>
              <LatitudeDegrees>41.35362762026488780975341796875</LatitudeDegrees>
              <LongitudeDegrees>-1.6526712477207183837890625</LongitudeDegrees>
            </Position>
            <AltitudeMeters>619</AltitudeMeters>
            <DistanceMeters>6798.0095748921</DistanceMeters>
          </Trackpoint>
          <Trackpoint>
            <Time>2022-11-06T10:42:56.000Z</Time>
            <Position>
              <LatitudeDegrees>41.353617645800113677978515625</LatitudeDegrees>
              <LongitudeDegrees>-1.65267501957714557647705078125</LongitudeDegrees>
            </Position>
            <AltitudeMeters>619.20001220703125</AltitudeMeters>
            <DistanceMeters>6799.1656247672</DistanceMeters>
          </Trackpoint>
          <Trackpoint>
            <Time>2022-11-06T10:42:57.000Z</Time>
            <Position>
              <LatitudeDegrees>41.3536040671169757843017578125</LatitudeDegrees>
              <LongitudeDegrees>-1.65268155746161937713623046875</LongitudeDegrees>
            </Position>
            <AltitudeMeters>619.5999755859375</AltitudeMeters>
            <DistanceMeters>6800.7726723281</DistanceMeters>
          </Trackpoint>
          <Trackpoint>
            <Time>2022-11-06T10:42:58.000Z</Time>
            <Position>
              <LatitudeDegrees>41.353589482605457305908203125</LatitudeDegrees>
              <LongitudeDegrees>-1.652687676250934600830078125</LongitudeDegrees>
            </Position>
            <AltitudeMeters>619.79998779296875</AltitudeMeters>
            <DistanceMeters>6802.4752158777</DistanceMeters>
          </Trackpoint>
          <Trackpoint>
            <Time>2022-11-06T10:42:59.000Z</Time>
            <Position>
              <LatitudeDegrees>41.353578083217144012451171875</LatitudeDegrees>
              <LongitudeDegrees>-1.6526965610682964324951171875</LongitudeDegrees>
            </Position>
            <AltitudeMeters>620</AltitudeMeters>
            <DistanceMeters>6803.9473634065</DistanceMeters>
          </Trackpoint>
          <Trackpoint>
            <Time>2022-11-06T10:43:00.000Z</Time>
            <Position>
              <LatitudeDegrees>41.353568695485591888427734375</LatitudeDegrees>
              <LongitudeDegrees>-1.65270234458148479461669921875</LongitudeDegrees>
            </Position>
            <AltitudeMeters>620.20001220703125</AltitudeMeters>
            <DistanceMeters>6805.0995010881</DistanceMeters>
          </Trackpoint>
          <Trackpoint>
            <Time>2022-11-06T10:43:01.000Z</Time>
            <Position>
              <LatitudeDegrees>41.35355888865888118743896484375</LatitudeDegrees>
              <LongitudeDegrees>-1.65271122939884662628173828125</LongitudeDegrees>
            </Position>
            <AltitudeMeters>620.4000244140625</AltitudeMeters>
            <DistanceMeters>6806.419654395</DistanceMeters>
          </Trackpoint>
          <Trackpoint>
            <Time>2022-11-06T10:43:02.000Z</Time>
            <Position>
              <LatitudeDegrees>41.35354748927056789398193359375</LatitudeDegrees>
              <LongitudeDegrees>-1.6527217067778110504150390625</LongitudeDegrees>
            </Position>
            <AltitudeMeters>620.79998779296875</AltitudeMeters>
            <DistanceMeters>6807.9607287296</DistanceMeters>
          </Trackpoint>
          <Trackpoint>
            <Time>2022-11-06T10:43:03.000Z</Time>
            <Position>
              <LatitudeDegrees>41.35353474877774715423583984375</LatitudeDegrees>
              <LongitudeDegrees>-1.65273117832839488983154296875</LongitudeDegrees>
            </Position>
            <AltitudeMeters>621.4000244140625</AltitudeMeters>
            <DistanceMeters>6809.587324069</DistanceMeters>
          </Trackpoint>
          <Trackpoint>
            <Time>2022-11-06T10:43:04.000Z</Time>
            <Position>
              <LatitudeDegrees>41.35352234356105327606201171875</LatitudeDegrees>
              <LongitudeDegrees>-1.6527424938976764678955078125</LongitudeDegrees>
            </Position>
            <AltitudeMeters>621.5999755859375</AltitudeMeters>
            <DistanceMeters>6811.2604420258</DistanceMeters>
          </Trackpoint>
          <Trackpoint>
            <Time>2022-11-06T10:43:05.000Z</Time>
            <Position>
              <LatitudeDegrees>41.35350960306823253631591796875</LatitudeDegrees>
              <LongitudeDegrees>-1.65275313891470432281494140625</LongitudeDegrees>
            </Position>
            <AltitudeMeters>622</AltitudeMeters>
            <DistanceMeters>6812.9335599827</DistanceMeters>
          </Trackpoint>
          <Trackpoint>
            <Time>2022-11-06T10:43:06.000Z</Time>
            <Position>
              <LatitudeDegrees>41.3534977845847606658935546875</LatitudeDegrees>
              <LongitudeDegrees>-1.65276118554174900054931640625</LongitudeDegrees>
            </Position>
            <AltitudeMeters>622.5999755859375</AltitudeMeters>
            <DistanceMeters>6814.4118287335</DistanceMeters>
          </Trackpoint>
          <Trackpoint>
            <Time>2022-11-06T10:43:07.000Z</Time>
            <Position>
              <LatitudeDegrees>41.35348948650062084197998046875</LatitudeDegrees>
              <LongitudeDegrees>-1.65277384221553802490234375</LongitudeDegrees>
            </Position>
            <AltitudeMeters>622.79998779296875</AltitudeMeters>
            <DistanceMeters>6815.8180956858</DistanceMeters>
          </Trackpoint>
          <Trackpoint>
            <Time>2022-11-06T10:43:08.000Z</Time>
            <Position>
              <LatitudeDegrees>41.3534883968532085418701171875</LatitudeDegrees>
              <LongitudeDegrees>-1.65279856882989406585693359375</LongitudeDegrees>
            </Position>
            <AltitudeMeters>623.20001220703125</AltitudeMeters>
            <DistanceMeters>6817.8891549102</DistanceMeters>
          </Trackpoint>
          <Trackpoint>
            <Time>2022-11-06T10:43:09.000Z</Time>
            <Position>
              <LatitudeDegrees>41.35349619202315807342529296875</LatitudeDegrees>
              <LongitudeDegrees>-1.65281767956912517547607421875</LongitudeDegrees>
            </Position>
            <AltitudeMeters>623.4000244140625</AltitudeMeters>
            <DistanceMeters>6819.7046377391</DistanceMeters>
          </Trackpoint>
          <Trackpoint>
            <Time>2022-11-06T10:43:10.000Z</Time>
            <Position>
              <LatitudeDegrees>41.35350809432566165924072265625</LatitudeDegrees>
              <LongitudeDegrees>-1.6528283245861530303955078125</LongitudeDegrees>
            </Position>
            <AltitudeMeters>623.5999755859375</AltitudeMeters>
            <DistanceMeters>6821.3004076339</DistanceMeters>
          </Trackpoint>
          <Trackpoint>
            <Time>2022-11-06T10:43:11.000Z</Time>
            <Position>
              <LatitudeDegrees>41.3535182364284992218017578125</LatitudeDegrees>
              <LongitudeDegrees>-1.65283729322254657745361328125</LongitudeDegrees>
            </Position>
            <AltitudeMeters>624</AltitudeMeters>
            <DistanceMeters>6822.6576605928</DistanceMeters>
          </Trackpoint>
          <Trackpoint>
            <Time>2022-11-06T10:43:12.000Z</Time>
            <Position>
              <LatitudeDegrees>41.3535328209400177001953125</LatitudeDegrees>
              <LongitudeDegrees>-1.6528511233627796173095703125</LongitudeDegrees>
            </Position>
            <AltitudeMeters>624.20001220703125</AltitudeMeters>
            <DistanceMeters>6824.6509577697</DistanceMeters>
          </Trackpoint>
          <Trackpoint>
            <Time>2022-11-06T10:43:13.000Z</Time>
            <Position>
              <LatitudeDegrees>41.353543214499950408935546875</LatitudeDegrees>
              <LongitudeDegrees>-1.65286478586494922637939453125</LongitudeDegrees>
            </Position>
            <AltitudeMeters>624.4000244140625</AltitudeMeters>
            <DistanceMeters>6826.2747749767</DistanceMeters>
          </Trackpoint>
          <Trackpoint>
            <Time>2022-11-06T10:43:14.000Z</Time>
            <Position>
              <LatitudeDegrees>41.35355402715504169464111328125</LatitudeDegrees>
              <LongitudeDegrees>-1.65287853218615055084228515625</LongitudeDegrees>
            </Position>
            <AltitudeMeters>624.79998779296875</AltitudeMeters>
            <DistanceMeters>6827.9370635773</DistanceMeters>
          </Trackpoint>
          <Trackpoint>
            <Time>2022-11-06T10:43:15.000Z</Time>
            <Position>
              <LatitudeDegrees>41.35356358252465724945068359375</LatitudeDegrees>
              <LongitudeDegrees>-1.65289345197379589080810546875</LongitudeDegrees>
            </Position>
            <AltitudeMeters>625.20001220703125</AltitudeMeters>
            <DistanceMeters>6829.5747243187</DistanceMeters>
          </Trackpoint>
          <Trackpoint>
            <Time>2022-11-06T10:43:16.000Z</Time>
            <Position>
              <LatitudeDegrees>41.35357506573200225830078125</LatitudeDegrees>
              <LongitudeDegrees>-1.652905941009521484375</LongitudeDegrees>
            </Position>
            <AltitudeMeters>625.5999755859375</AltitudeMeters>
            <DistanceMeters>6831.2261125487</DistanceMeters>
          </Trackpoint>
          <Trackpoint>
            <Time>2022-11-06T10:43:17.000Z</Time>
            <Position>
              <LatitudeDegrees>41.3535886444151401519775390625</LatitudeDegrees>
              <LongitudeDegrees>-1.65291608311235904693603515625</LongitudeDegrees>
            </Position>
            <AltitudeMeters>625.79998779296875</AltitudeMeters>
            <DistanceMeters>6832.9575816877</DistanceMeters>
          </Trackpoint>
          <Trackpoint>
            <Time>2022-11-06T10:43:18.000Z</Time>
            <Position>
              <LatitudeDegrees>41.3535966910421848297119140625</LatitudeDegrees>
              <LongitudeDegrees>-1.65292127989232540130615234375</LongitudeDegrees>
            </Position>
            <AltitudeMeters>625.79998779296875</AltitudeMeters>
            <DistanceMeters>6833.9542302761</DistanceMeters>
          </Trackpoint>
          <Trackpoint>
            <Time>2022-11-06T10:43:19.000Z</Time>
            <Position>
              <LatitudeDegrees>41.353610269725322723388671875</LatitudeDegrees>
              <LongitudeDegrees>-1.6529309190809726715087890625</LongitudeDegrees>
            </Position>
            <AltitudeMeters>626</AltitudeMeters>
            <DistanceMeters>6835.6699822747</DistanceMeters>
          </Trackpoint>
          <Trackpoint>
            <Time>2022-11-06T10:43:20.000Z</Time>
            <Position>
              <LatitudeDegrees>41.35362074710428714752197265625</LatitudeDegrees>
              <LongitudeDegrees>-1.65293904952704906463623046875</LongitudeDegrees>
            </Position>
            <AltitudeMeters>626.4000244140625</AltitudeMeters>
            <DistanceMeters>6837.0172184698</DistanceMeters>
          </Trackpoint>
          <Trackpoint>
            <Time>2022-11-06T10:43:21.000Z</Time>
            <Position>
              <LatitudeDegrees>41.353630721569061279296875</LatitudeDegrees>
              <LongitudeDegrees>-1.65294793434441089630126953125</LongitudeDegrees>
            </Position>
            <AltitudeMeters>626.5999755859375</AltitudeMeters>
            <DistanceMeters>6838.3543628658</DistanceMeters>
          </Trackpoint>
          <Trackpoint>
            <Time>2022-11-06T10:43:22.000Z</Time>
            <Position>
              <LatitudeDegrees>41.35363901965320110321044921875</LatitudeDegrees>
              <LongitudeDegrees>-1.65295715443789958953857421875</LongitudeDegrees>
            </Position>
            <AltitudeMeters>626.79998779296875</AltitudeMeters>
            <DistanceMeters>6839.5563662897</DistanceMeters>
          </Trackpoint>
          <Trackpoint>
            <Time>2022-11-06T10:43:23.000Z</Time>
            <Position>
              <LatitudeDegrees>41.35364480316638946533203125</LatitudeDegrees>
              <LongitudeDegrees>-1.65296335704624652862548828125</LongitudeDegrees>
            </Position>
            <AltitudeMeters>627</AltitudeMeters>
            <DistanceMeters>6840.3902223242</DistanceMeters>
          </Trackpoint>
          <Trackpoint>
            <Time>2022-11-06T10:43:24.000Z</Time>
            <Position>
              <LatitudeDegrees>41.35365284979343414306640625</LatitudeDegrees>
              <LongitudeDegrees>-1.65297492407262325286865234375</LongitudeDegrees>
            </Position>
            <AltitudeMeters>627.20001220703125</AltitudeMeters>
            <DistanceMeters>6841.7137912986</DistanceMeters>
          </Trackpoint>
          <Trackpoint>
            <Time>2022-11-06T10:43:25.000Z</Time>
            <Position>
              <LatitudeDegrees>41.35366022586822509765625</LatitudeDegrees>
              <LongitudeDegrees>-1.6529818810522556304931640625</LongitudeDegrees>
            </Position>
            <AltitudeMeters>627.4000244140625</AltitudeMeters>
            <DistanceMeters>6842.7194595151</DistanceMeters>
          </Trackpoint>
          <Trackpoint>
            <Time>2022-11-06T10:43:26.000Z</Time>
            <Position>
              <LatitudeDegrees>41.353668607771396636962890625</LatitudeDegrees>
              <LongitudeDegrees>-1.6529904305934906005859375</LongitudeDegrees>
            </Position>
            <AltitudeMeters>627.79998779296875</AltitudeMeters>
            <DistanceMeters>6843.894875057</DistanceMeters>
          </Trackpoint>
          <Trackpoint>
            <Time>2022-11-06T10:43:27.000Z</Time>
            <Position>
              <LatitudeDegrees>41.3536784984171390533447265625</LatitudeDegrees>
              <LongitudeDegrees>-1.65299571119248867034912109375</LongitudeDegrees>
            </Position>
            <AltitudeMeters>628</AltitudeMeters>
            <DistanceMeters>6845.081758339</DistanceMeters>
          </Trackpoint>
          <Trackpoint>
            <Time>2022-11-06T10:43:28.000Z</Time>
            <Position>
              <LatitudeDegrees>41.35368864051997661590576171875</LatitudeDegrees>
              <LongitudeDegrees>-1.6530016623437404632568359375</LongitudeDegrees>
            </Position>
            <AltitudeMeters>628.20001220703125</AltitudeMeters>
            <DistanceMeters>6846.3207551088</DistanceMeters>
          </Trackpoint>
          <Trackpoint>
            <Time>2022-11-06T10:43:29.000Z</Time>
            <Position>
              <LatitudeDegrees>41.353698112070560455322265625</LatitudeDegrees>
              <LongitudeDegrees>-1.65300593711435794830322265625</LongitudeDegrees>
            </Position>
            <AltitudeMeters>628.4000244140625</AltitudeMeters>
            <DistanceMeters>6847.433014284</DistanceMeters>
          </Trackpoint>
          <Trackpoint>
            <Time>2022-11-06T10:43:30.000Z</Time>
            <Position>
              <LatitudeDegrees>41.35370875708758831024169921875</LatitudeDegrees>
              <LongitudeDegrees>-1.65300945751368999481201171875</LongitudeDegrees>
            </Position>
            <AltitudeMeters>628.79998779296875</AltitudeMeters>
            <DistanceMeters>6848.6536545313</DistanceMeters>
          </Trackpoint>
          <Trackpoint>
            <Time>2022-11-06T10:43:31.000Z</Time>
            <Position>
              <LatitudeDegrees>41.353719569742679595947265625</LatitudeDegrees>
              <LongitudeDegrees>-1.65300987660884857177734375</LongitudeDegrees>
            </Position>
            <AltitudeMeters>629</AltitudeMeters>
            <DistanceMeters>6849.8556579551</DistanceMeters>
          </Trackpoint>
          <Trackpoint>
            <Time>2022-11-06T10:43:32.000Z</Time>
            <Position>
              <LatitudeDegrees>41.3537284545600414276123046875</LatitudeDegrees>
              <LongitudeDegrees>-1.65301566012203693389892578125</LongitudeDegrees>
            </Position>
            <AltitudeMeters>629.4000244140625</AltitudeMeters>
            <DistanceMeters>6850.9556717021</DistanceMeters>
          </Trackpoint>
          <Trackpoint>
            <Time>2022-11-06T10:43:33.000Z</Time>
            <Position>
              <LatitudeDegrees>41.35373792611062526702880859375</LatitudeDegrees>
              <LongitudeDegrees>-1.65302957408130168914794921875</LongitudeDegrees>
            </Position>
            <AltitudeMeters>629.4000244140625</AltitudeMeters>
            <DistanceMeters>6852.5228924245</DistanceMeters>
          </Trackpoint>
          <Trackpoint>
            <Time>2022-11-06T10:43:34.000Z</Time>
            <Position>
              <LatitudeDegrees>41.35374513454735279083251953125</LatitudeDegrees>
              <LongitudeDegrees>-1.653040386736392974853515625</LongitudeDegrees>
            </Position>
            <AltitudeMeters>629.5999755859375</AltitudeMeters>
            <DistanceMeters>6853.7286462582</DistanceMeters>
          </Trackpoint>
          <Trackpoint>
            <Time>2022-11-06T10:43:35.000Z</Time>
            <Position>
              <LatitudeDegrees>41.353753097355365753173828125</LatitudeDegrees>
              <LongitudeDegrees>-1.65305254049599170684814453125</LongitudeDegrees>
            </Position>
            <AltitudeMeters>630</AltitudeMeters>
            <DistanceMeters>6855.0758824532</DistanceMeters>
          </Trackpoint>
          <Trackpoint>
            <Time>2022-11-06T10:43:36.000Z</Time>
            <Position>
              <LatitudeDegrees>41.35376240126788616180419921875</LatitudeDegrees>
              <LongitudeDegrees>-1.65306620299816131591796875</LongitudeDegrees>
            </Position>
            <AltitudeMeters>630.20001220703125</AltitudeMeters>
            <DistanceMeters>6856.6140241984</DistanceMeters>
          </Trackpoint>
          <Trackpoint>
            <Time>2022-11-06T10:43:37.000Z</Time>
            <Position>
              <LatitudeDegrees>41.35377480648458003997802734375</LatitudeDegrees>
              <LongitudeDegrees>-1.6530735790729522705078125</LongitudeDegrees>
            </Position>
            <AltitudeMeters>630.5999755859375</AltitudeMeters>
            <DistanceMeters>6858.1225265232</DistanceMeters>
          </Trackpoint>
          <Trackpoint>
            <Time>2022-11-06T10:43:38.000Z</Time>
            <Position>
              <LatitudeDegrees>41.3537876307964324951171875</LatitudeDegrees>
              <LongitudeDegrees>-1.65307517163455486297607421875</LongitudeDegrees>
            </Position>
            <AltitudeMeters>631</AltitudeMeters>
            <DistanceMeters>6859.5510912842</DistanceMeters>
          </Trackpoint>
          <Trackpoint>
            <Time>2022-11-06T10:43:39.000Z</Time>
            <Position>
              <LatitudeDegrees>41.3538035564124584197998046875</LatitudeDegrees>
              <LongitudeDegrees>-1.6530737467110157012939453125</LongitudeDegrees>
            </Position>
            <AltitudeMeters>631.4000244140625</AltitudeMeters>
            <DistanceMeters>6861.328878323</DistanceMeters>
          </Trackpoint>
          <Trackpoint>
            <Time>2022-11-06T10:43:40.000Z</Time>
            <Position>
              <LatitudeDegrees>41.35381755419075489044189453125</LatitudeDegrees>
              <LongitudeDegrees>-1.65307559072971343994140625</LongitudeDegrees>
            </Position>
            <AltitudeMeters>631.5999755859375</AltitudeMeters>
            <DistanceMeters>6862.8960990454</DistanceMeters>
          </Trackpoint>
          <Trackpoint>
            <Time>2022-11-06T10:43:41.000Z</Time>
            <Position>
              <LatitudeDegrees>41.3538251817226409912109375</LatitudeDegrees>
              <LongitudeDegrees>-1.65308506228029727935791015625</LongitudeDegrees>
            </Position>
            <AltitudeMeters>631.79998779296875</AltitudeMeters>
            <DistanceMeters>6864.0560479194</DistanceMeters>
          </Trackpoint>
          <Trackpoint>
            <Time>2022-11-06T10:43:42.000Z</Time>
            <Position>
              <LatitudeDegrees>41.3538253493607044219970703125</LatitudeDegrees>
              <LongitudeDegrees>-1.653096042573451995849609375</LongitudeDegrees>
            </Position>
            <AltitudeMeters>631.79998779296875</AltitudeMeters>
            <DistanceMeters>6864.9773660977</DistanceMeters>
          </Trackpoint>
          <Trackpoint>
            <Time>2022-11-06T10:43:43.000Z</Time>
            <Position>
              <LatitudeDegrees>41.35382392443716526031494140625</LatitudeDegrees>
              <LongitudeDegrees>-1.653107441961765289306640625</LongitudeDegrees>
            </Position>
            <AltitudeMeters>632</AltitudeMeters>
            <DistanceMeters>6865.9417819176</DistanceMeters>
          </Trackpoint>
          <Trackpoint>
            <Time>2022-11-06T10:43:44.000Z</Time>
            <Position>
              <LatitudeDegrees>41.3538157939910888671875</LatitudeDegrees>
              <LongitudeDegrees>-1.65312043391168117523193359375</LongitudeDegrees>
            </Position>
            <AltitudeMeters>632.20001220703125</AltitudeMeters>
            <DistanceMeters>6867.3544555863</DistanceMeters>
          </Trackpoint>
          <Trackpoint>
            <Time>2022-11-06T10:43:45.000Z</Time>
            <Position>
              <LatitudeDegrees>41.35380112566053867340087890625</LatitudeDegrees>
              <LongitudeDegrees>-1.65313585661351680755615234375</LongitudeDegrees>
            </Position>
            <AltitudeMeters>632.5999755859375</AltitudeMeters>
            <DistanceMeters>6869.4342167785</DistanceMeters>
          </Trackpoint>
          <Trackpoint>
            <Time>2022-11-06T10:43:46.000Z</Time>
            <Position>
              <LatitudeDegrees>41.35378419421613216400146484375</LatitudeDegrees>
              <LongitudeDegrees>-1.653148345649242401123046875</LongitudeDegrees>
            </Position>
            <AltitudeMeters>632.79998779296875</AltitudeMeters>
            <DistanceMeters>6871.5886214044</DistanceMeters>
          </Trackpoint>
          <Trackpoint>
            <Time>2022-11-06T10:43:47.000Z</Time>
            <Position>
              <LatitudeDegrees>41.3537700287997722625732421875</LatitudeDegrees>
              <LongitudeDegrees>-1.65316033177077770233154296875</LongitudeDegrees>
            </Position>
            <AltitudeMeters>633</AltitudeMeters>
            <DistanceMeters>6873.4556001155</DistanceMeters>
          </Trackpoint>
          <Trackpoint>
            <Time>2022-11-06T10:43:48.000Z</Time>
            <Position>
              <LatitudeDegrees>41.353760473430156707763671875</LatitudeDegrees>
              <LongitudeDegrees>-1.65317458100616931915283203125</LongitudeDegrees>
            </Position>
            <AltitudeMeters>633.20001220703125</AltitudeMeters>
            <DistanceMeters>6875.0513700103</DistanceMeters>
          </Trackpoint>
          <Trackpoint>
            <Time>2022-11-06T10:43:49.000Z</Time>
            <Position>
              <LatitudeDegrees>41.35375318117439746856689453125</LatitudeDegrees>
              <LongitudeDegrees>-1.65319025516510009765625</LongitudeDegrees>
            </Position>
            <AltitudeMeters>633.5999755859375</AltitudeMeters>
            <DistanceMeters>6876.5895117555</DistanceMeters>
          </Trackpoint>
          <Trackpoint>
            <Time>2022-11-06T10:43:50.000Z</Time>
            <Position>
              <LatitudeDegrees>41.35374647565186023712158203125</LatitudeDegrees>
              <LongitudeDegrees>-1.6532001458108425140380859375</LongitudeDegrees>
            </Position>
            <AltitudeMeters>634</AltitudeMeters>
            <DistanceMeters>6877.7058228901</DistanceMeters>
          </Trackpoint>
          <Trackpoint>
            <Time>2022-11-06T10:43:51.000Z</Time>
            <Position>
              <LatitudeDegrees>41.353742368519306182861328125</LatitudeDegrees>
              <LongitudeDegrees>-1.65321347303688526153564453125</LongitudeDegrees>
            </Position>
            <AltitudeMeters>634.4000244140625</AltitudeMeters>
            <DistanceMeters>6878.907826314</DistanceMeters>
          </Trackpoint>
          <Trackpoint>
            <Time>2022-11-06T10:43:52.000Z</Time>
            <Position>
              <LatitudeDegrees>41.3537393510341644287109375</LatitudeDegrees>
              <LongitudeDegrees>-1.65323174558579921722412109375</LongitudeDegrees>
            </Position>
            <AltitudeMeters>635</AltitudeMeters>
            <DistanceMeters>6880.4692745647</DistanceMeters>
          </Trackpoint>
          <Trackpoint>
            <Time>2022-11-06T10:43:53.000Z</Time>
            <Position>
              <LatitudeDegrees>41.35373692028224468231201171875</LatitudeDegrees>
              <LongitudeDegrees>-1.653247587382793426513671875</LongitudeDegrees>
            </Position>
            <AltitudeMeters>635.4000244140625</AltitudeMeters>
            <DistanceMeters>6881.8198579356</DistanceMeters>
          </Trackpoint>
          <Trackpoint>
            <Time>2022-11-06T10:43:54.000Z</Time>
            <Position>
              <LatitudeDegrees>41.3537344895303249359130859375</LatitudeDegrees>
              <LongitudeDegrees>-1.65326426737010478973388671875</LongitudeDegrees>
            </Position>
            <AltitudeMeters>635.79998779296875</AltitudeMeters>
            <DistanceMeters>6883.2389093959</DistanceMeters>
          </Trackpoint>
          <Trackpoint>
            <Time>2022-11-06T10:43:55.000Z</Time>
            <Position>
              <LatitudeDegrees>41.35372971184551715850830078125</LatitudeDegrees>
              <LongitudeDegrees>-1.65327700786292552947998046875</LongitudeDegrees>
            </Position>
            <AltitudeMeters>636</AltitudeMeters>
            <DistanceMeters>6884.4333766739</DistanceMeters>
          </Trackpoint>
          <Trackpoint>
            <Time>2022-11-06T10:43:56.000Z</Time>
            <Position>
              <LatitudeDegrees>41.353720910847187042236328125</LatitudeDegrees>
              <LongitudeDegrees>-1.65328840725123882293701171875</LongitudeDegrees>
            </Position>
            <AltitudeMeters>636.20001220703125</AltitudeMeters>
            <DistanceMeters>6885.7972666062</DistanceMeters>
          </Trackpoint>
          <Trackpoint>
            <Time>2022-11-06T10:43:57.000Z</Time>
            <Position>
              <LatitudeDegrees>41.35370942763984203338623046875</LatitudeDegrees>
              <LongitudeDegrees>-1.653303243219852447509765625</LongitudeDegrees>
            </Position>
            <AltitudeMeters>636.4000244140625</AltitudeMeters>
            <DistanceMeters>6887.5801258009</DistanceMeters>
          </Trackpoint>
          <Trackpoint>
            <Time>2022-11-06T10:43:58.000Z</Time>
            <Position>
              <LatitudeDegrees>41.35369920171797275543212890625</LatitudeDegrees>
              <LongitudeDegrees>-1.65331556461751461029052734375</LongitudeDegrees>
            </Position>
            <AltitudeMeters>636.5999755859375</AltitudeMeters>
            <DistanceMeters>6889.1153293548</DistanceMeters>
          </Trackpoint>
          <Trackpoint>
            <Time>2022-11-06T10:43:59.000Z</Time>
            <Position>
              <LatitudeDegrees>41.3536912389099597930908203125</LatitudeDegrees>
              <LongitudeDegrees>-1.65332931093871593475341796875</LongitudeDegrees>
            </Position>
            <AltitudeMeters>636.5999755859375</AltitudeMeters>
            <DistanceMeters>6890.5627331461</DistanceMeters>
          </Trackpoint>
          <Trackpoint>
            <Time>2022-11-06T10:44:00.000Z</Time>
            <Position>
              <LatitudeDegrees>41.35368771851062774658203125</LatitudeDegrees>
              <LongitudeDegrees>-1.65334917604923248291015625</LongitudeDegrees>
            </Position>
            <AltitudeMeters>636.79998779296875</AltitudeMeters>
            <DistanceMeters>6892.2679265706</DistanceMeters>
          </Trackpoint>
          <Trackpoint>
            <Time>2022-11-06T10:44:01.000Z</Time>
            <Position>
              <LatitudeDegrees>41.35368495248258113861083984375</LatitudeDegrees>
              <LongitudeDegrees>-1.653368286788463592529296875</LongitudeDegrees>
            </Position>
            <AltitudeMeters>636.79998779296875</AltitudeMeters>
            <DistanceMeters>6893.8917437776</DistanceMeters>
          </Trackpoint>
          <Trackpoint>
            <Time>2022-11-06T10:44:02.000Z</Time>
            <Position>
              <LatitudeDegrees>41.35367891751229763031005859375</LatitudeDegrees>
              <LongitudeDegrees>-1.6533905826508998870849609375</LongitudeDegrees>
            </Position>
            <AltitudeMeters>636.79998779296875</AltitudeMeters>
            <DistanceMeters>6895.8714036415</DistanceMeters>
          </Trackpoint>
          <Trackpoint>
            <Time>2022-11-06T10:44:03.000Z</Time>
            <Position>
              <LatitudeDegrees>41.35367028415203094482421875</LatitudeDegrees>
              <LongitudeDegrees>-1.65341556072235107421875</LongitudeDegrees>
            </Position>
            <AltitudeMeters>636.79998779296875</AltitudeMeters>
            <DistanceMeters>6898.1678279584</DistanceMeters>
          </Trackpoint>
          <Trackpoint>
            <Time>2022-11-06T10:44:04.000Z</Time>
            <Position>
              <LatitudeDegrees>41.353659220039844512939453125</LatitudeDegrees>
              <LongitudeDegrees>-1.65344682522118091583251953125</LongitudeDegrees>
            </Position>
            <AltitudeMeters>636.79998779296875</AltitudeMeters>
            <DistanceMeters>6901.0563899941</DistanceMeters>
          </Trackpoint>
          <Trackpoint>
            <Time>2022-11-06T10:44:05.000Z</Time>
            <Position>
              <LatitudeDegrees>41.3536459766328334808349609375</LatitudeDegrees>
              <LongitudeDegrees>-1.65348856709897518157958984375</LongitudeDegrees>
            </Position>
            <AltitudeMeters>636.79998779296875</AltitudeMeters>
            <DistanceMeters>6904.8431777348</DistanceMeters>
          </Trackpoint>
          <Trackpoint>
            <Time>2022-11-06T10:44:06.000Z</Time>
            <Position>
              <LatitudeDegrees>41.3536292128264904022216796875</LatitudeDegrees>
              <LongitudeDegrees>-1.653542630374431610107421875</LongitudeDegrees>
            </Position>
            <AltitudeMeters>636.4000244140625</AltitudeMeters>
            <DistanceMeters>6909.7312839397</DistanceMeters>
          </Trackpoint>
          <Trackpoint>
            <Time>2022-11-06T10:44:07.000Z</Time>
            <Position>
              <LatitudeDegrees>41.35360901243984699249267578125</LatitudeDegrees>
              <LongitudeDegrees>-1.65361144579946994781494140625</LongitudeDegrees>
            </Position>
            <AltitudeMeters>636</AltitudeMeters>
            <DistanceMeters>6915.9043644182</DistanceMeters>
          </Trackpoint>
          <Trackpoint>
            <Time>2022-11-06T10:44:08.000Z</Time>
            <Position>
              <LatitudeDegrees>41.35358688421547412872314453125</LatitudeDegrees>
              <LongitudeDegrees>-1.65369442664086818695068359375</LongitudeDegrees>
            </Position>
            <AltitudeMeters>635.4000244140625</AltitudeMeters>
            <DistanceMeters>6923.2614207728</DistanceMeters>
          </Trackpoint>
          <Trackpoint>
            <Time>2022-11-06T10:44:09.000Z</Time>
            <Position>
              <LatitudeDegrees>41.35356777347624301910400390625</LatitudeDegrees>
              <LongitudeDegrees>-1.653786711394786834716796875</LongitudeDegrees>
            </Position>
            <AltitudeMeters>634.4000244140625</AltitudeMeters>
            <DistanceMeters>6931.2606158374</DistanceMeters>
          </Trackpoint>
          <Trackpoint>
            <Time>2022-11-06T10:44:10.000Z</Time>
            <Position>
              <LatitudeDegrees>41.35355838574469089508056640625</LatitudeDegrees>
              <LongitudeDegrees>-1.65388871915638446807861328125</LongitudeDegrees>
            </Position>
            <AltitudeMeters>633.5999755859375</AltitudeMeters>
            <DistanceMeters>6939.846740929</DistanceMeters>
          </Trackpoint>
          <Trackpoint>
            <Time>2022-11-06T10:44:11.000Z</Time>
            <Position>
              <LatitudeDegrees>41.35354933328926563262939453125</LatitudeDegrees>
              <LongitudeDegrees>-1.65399827063083648681640625</LongitudeDegrees>
            </Position>
            <AltitudeMeters>632.79998779296875</AltitudeMeters>
            <DistanceMeters>6949.0550207797</DistanceMeters>
          </Trackpoint>
          <Trackpoint>
            <Time>2022-11-06T10:44:12.000Z</Time>
            <Position>
              <LatitudeDegrees>41.35353751480579376220703125</LatitudeDegrees>
              <LongitudeDegrees>-1.6541127674281597137451171875</LongitudeDegrees>
            </Position>
            <AltitudeMeters>632</AltitudeMeters>
            <DistanceMeters>6958.7113435456</DistanceMeters>
          </Trackpoint>
          <Trackpoint>
            <Time>2022-11-06T10:44:13.000Z</Time>
            <Position>
              <LatitudeDegrees>41.35351580567657947540283203125</LatitudeDegrees>
              <LongitudeDegrees>-1.654222905635833740234375</LongitudeDegrees>
            </Position>
            <AltitudeMeters>631</AltitudeMeters>
            <DistanceMeters>6968.2254113546</DistanceMeters>
          </Trackpoint>
          <Trackpoint>
            <Time>2022-11-06T10:44:15.000Z</Time>
            <Position>
              <LatitudeDegrees>41.3534159772098064422607421875</LatitudeDegrees>
              <LongitudeDegrees>-1.654369421303272247314453125</LongitudeDegrees>
            </Position>
            <AltitudeMeters>630</AltitudeMeters>
            <DistanceMeters>6984.7573287768</DistanceMeters>
          </Trackpoint>
          <Trackpoint>
            <Time>2022-11-06T10:44:16.000Z</Time>
            <Position>
              <LatitudeDegrees>41.3533370196819305419921875</LatitudeDegrees>
              <LongitudeDegrees>-1.65437537245452404022216796875</LongitudeDegrees>
            </Position>
            <AltitudeMeters>629</AltitudeMeters>
            <DistanceMeters>6993.5600037092</DistanceMeters>
          </Trackpoint>
          <Trackpoint>
            <Time>2022-11-06T10:44:17.000Z</Time>
            <Position>
              <LatitudeDegrees>41.3532537035644054412841796875</LatitudeDegrees>
              <LongitudeDegrees>-1.6543635539710521697998046875</LongitudeDegrees>
            </Position>
            <AltitudeMeters>628</AltitudeMeters>
            <DistanceMeters>7002.8861870823</DistanceMeters>
          </Trackpoint>
          <Trackpoint>
            <Time>2022-11-06T10:44:19.000Z</Time>
            <Position>
              <LatitudeDegrees>41.35306905023753643035888671875</LatitudeDegrees>
              <LongitudeDegrees>-1.65431611239910125732421875</LongitudeDegrees>
            </Position>
            <AltitudeMeters>626.5999755859375</AltitudeMeters>
            <DistanceMeters>7023.8173174586</DistanceMeters>
          </Trackpoint>
          <Trackpoint>
            <Time>2022-11-06T10:44:20.000Z</Time>
            <Position>
              <LatitudeDegrees>41.35297802276909351348876953125</LatitudeDegrees>
              <LongitudeDegrees>-1.65429792366921901702880859375</LongitudeDegrees>
            </Position>
            <AltitudeMeters>626</AltitudeMeters>
            <DistanceMeters>7034.0625899579</DistanceMeters>
          </Trackpoint>
          <Trackpoint>
            <Time>2022-11-06T10:44:21.000Z</Time>
            <Position>
              <LatitudeDegrees>41.352892778813838958740234375</LatitudeDegrees>
              <LongitudeDegrees>-1.65429037995636463165283203125</LongitudeDegrees>
            </Position>
            <AltitudeMeters>624.5999755859375</AltitudeMeters>
            <DistanceMeters>7043.5714361252</DistanceMeters>
          </Trackpoint>
          <Trackpoint>
            <Time>2022-11-06T10:44:22.000Z</Time>
            <Position>
              <LatitudeDegrees>41.3528086245059967041015625</LatitudeDegrees>
              <LongitudeDegrees>-1.65430127643048763275146484375</LongitudeDegrees>
            </Position>
            <AltitudeMeters>624</AltitudeMeters>
            <DistanceMeters>7052.9824397785</DistanceMeters>
          </Trackpoint>
          <Trackpoint>
            <Time>2022-11-06T10:44:23.000Z</Time>
            <Position>
              <LatitudeDegrees>41.35272790677845478057861328125</LatitudeDegrees>
              <LongitudeDegrees>-1.6543320380151271820068359375</LongitudeDegrees>
            </Position>
            <AltitudeMeters>623.5999755859375</AltitudeMeters>
            <DistanceMeters>7062.3270017914</DistanceMeters>
          </Trackpoint>
          <Trackpoint>
            <Time>2022-11-06T10:44:24.000Z</Time>
            <Position>
              <LatitudeDegrees>41.35266244411468505859375</LatitudeDegrees>
              <LongitudeDegrees>-1.6543729417026042938232421875</LongitudeDegrees>
            </Position>
            <AltitudeMeters>622.79998779296875</AltitudeMeters>
            <DistanceMeters>7070.3745920056</DistanceMeters>
          </Trackpoint>
          <Trackpoint>
            <Time>2022-11-06T10:44:25.000Z</Time>
            <Position>
              <LatitudeDegrees>41.3526128232479095458984375</LatitudeDegrees>
              <LongitudeDegrees>-1.65442700497806072235107421875</LongitudeDegrees>
            </Position>
            <AltitudeMeters>622.4000244140625</AltitudeMeters>
            <DistanceMeters>7077.5085608055</DistanceMeters>
          </Trackpoint>
          <Trackpoint>
            <Time>2022-11-06T10:44:26.000Z</Time>
            <Position>
              <LatitudeDegrees>41.3525828160345554351806640625</LatitudeDegrees>
              <LongitudeDegrees>-1.65448986925184726715087890625</LongitudeDegrees>
            </Position>
            <AltitudeMeters>622</AltitudeMeters>
            <DistanceMeters>7083.7326292454</DistanceMeters>
          </Trackpoint>
          <Trackpoint>
            <Time>2022-11-06T10:44:27.000Z</Time>
            <Position>
              <LatitudeDegrees>41.3525774516165256500244140625</LatitudeDegrees>
              <LongitudeDegrees>-1.6545539908111095428466796875</LongitudeDegrees>
            </Position>
            <AltitudeMeters>622</AltitudeMeters>
            <DistanceMeters>7089.1232494321</DistanceMeters>
          </Trackpoint>
          <Trackpoint>
            <Time>2022-11-06T10:44:28.000Z</Time>
            <Position>
              <LatitudeDegrees>41.3525814749300479888916015625</LatitudeDegrees>
              <LongitudeDegrees>-1.654621548950672149658203125</LongitudeDegrees>
            </Position>
            <AltitudeMeters>622</AltitudeMeters>
            <DistanceMeters>7094.7851193861</DistanceMeters>
          </Trackpoint>
          <Trackpoint>
            <Time>2022-11-06T10:44:29.000Z</Time>
            <Position>
              <LatitudeDegrees>41.35258994065225124359130859375</LatitudeDegrees>
              <LongitudeDegrees>-1.65468768216669559478759765625</LongitudeDegrees>
            </Position>
            <AltitudeMeters>622</AltitudeMeters>
            <DistanceMeters>7100.3892790797</DistanceMeters>
          </Trackpoint>
          <Trackpoint>
            <Time>2022-11-06T10:44:30.000Z</Time>
            <Position>
              <LatitudeDegrees>41.3526015914976596832275390625</LatitudeDegrees>
              <LongitudeDegrees>-1.65474928915500640869140625</LongitudeDegrees>
            </Position>
            <AltitudeMeters>622.20001220703125</AltitudeMeters>
            <DistanceMeters>7105.6971824799</DistanceMeters>
          </Trackpoint>
          <Trackpoint>
            <Time>2022-11-06T10:44:31.000Z</Time>
            <Position>
              <LatitudeDegrees>41.35261944495141506195068359375</LatitudeDegrees>
              <LongitudeDegrees>-1.65480067022144794464111328125</LongitudeDegrees>
            </Position>
            <AltitudeMeters>622.4000244140625</AltitudeMeters>
            <DistanceMeters>7110.4285205046</DistanceMeters>
          </Trackpoint>
          <Trackpoint>
            <Time>2022-11-06T10:44:32.000Z</Time>
            <Position>
              <LatitudeDegrees>41.3526394776999950408935546875</LatitudeDegrees>
              <LongitudeDegrees>-1.6548409871757030487060546875</LongitudeDegrees>
            </Position>
            <AltitudeMeters>622.5999755859375</AltitudeMeters>
            <DistanceMeters>7114.4691118241</DistanceMeters>
          </Trackpoint>
          <Trackpoint>
            <Time>2022-11-06T10:44:33.000Z</Time>
            <Position>
              <LatitudeDegrees>41.35266177356243133544921875</LatitudeDegrees>
              <LongitudeDegrees>-1.65487937629222869873046875</LongitudeDegrees>
            </Position>
            <AltitudeMeters>622.5999755859375</AltitudeMeters>
            <DistanceMeters>7118.5230900095</DistanceMeters>
          </Trackpoint>
          <Trackpoint>
            <Time>2022-11-06T10:44:34.000Z</Time>
            <Position>
              <LatitudeDegrees>41.3526800461113452911376953125</LatitudeDegrees>
              <LongitudeDegrees>-1.65491516701877117156982421875</LongitudeDegrees>
            </Position>
            <AltitudeMeters>623</AltitudeMeters>
            <DistanceMeters>7122.1391031028</DistanceMeters>
          </Trackpoint>
          <Trackpoint>
            <Time>2022-11-06T10:44:35.000Z</Time>
            <Position>
              <LatitudeDegrees>41.352691613137722015380859375</LatitudeDegrees>
              <LongitudeDegrees>-1.6549442522227764129638671875</LongitudeDegrees>
            </Position>
            <AltitudeMeters>623.20001220703125</AltitudeMeters>
            <DistanceMeters>7124.8899582535</DistanceMeters>
          </Trackpoint>
          <Trackpoint>
            <Time>2022-11-06T10:44:36.000Z</Time>
            <Position>
              <LatitudeDegrees>41.3526994921267032623291015625</LatitudeDegrees>
              <LongitudeDegrees>-1.6549645364284515380859375</LongitudeDegrees>
            </Position>
            <AltitudeMeters>623.5999755859375</AltitudeMeters>
            <DistanceMeters>7126.7999715737</DistanceMeters>
          </Trackpoint>
          <Trackpoint>
            <Time>2022-11-06T10:44:37.000Z</Time>
            <Position>
              <LatitudeDegrees>41.35270678438246250152587890625</LatitudeDegrees>
              <LongitudeDegrees>-1.65498306043446063995361328125</LongitudeDegrees>
            </Position>
            <AltitudeMeters>624.20001220703125</AltitudeMeters>
            <DistanceMeters>7128.5470164609</DistanceMeters>
          </Trackpoint>
          <Trackpoint>
            <Time>2022-11-06T10:44:38.000Z</Time>
            <Position>
              <LatitudeDegrees>41.352714411914348602294921875</LatitudeDegrees>
              <LongitudeDegrees>-1.655005104839801788330078125</LongitudeDegrees>
            </Position>
            <AltitudeMeters>624.5999755859375</AltitudeMeters>
            <DistanceMeters>7130.5762317917</DistanceMeters>
          </Trackpoint>
          <Trackpoint>
            <Time>2022-11-06T10:44:39.000Z</Time>
            <Position>
              <LatitudeDegrees>41.3527212850749492645263671875</LatitudeDegrees>
              <LongitudeDegrees>-1.6550327651202678680419921875</LongitudeDegrees>
            </Position>
            <AltitudeMeters>624.79998779296875</AltitudeMeters>
            <DistanceMeters>7133.0101032236</DistanceMeters>
          </Trackpoint>
          <Trackpoint>
            <Time>2022-11-06T10:44:43.000Z</Time>
            <Position>
              <LatitudeDegrees>41.3527467660605907440185546875</LatitudeDegrees>
              <LongitudeDegrees>-1.65513426996767520904541015625</LongitudeDegrees>
            </Position>
            <AltitudeMeters>625.5999755859375</AltitudeMeters>
            <DistanceMeters>7141.9527178853</DistanceMeters>
          </Trackpoint>
          <Trackpoint>
            <Time>2022-11-06T10:44:44.000Z</Time>
            <Position>
              <LatitudeDegrees>41.35274953208863735198974609375</LatitudeDegrees>
              <LongitudeDegrees>-1.65515103377401828765869140625</LongitudeDegrees>
            </Position>
            <AltitudeMeters>626</AltitudeMeters>
            <DistanceMeters>7143.3875898061</DistanceMeters>
          </Trackpoint>
          <Trackpoint>
            <Time>2022-11-06T10:44:45.000Z</Time>
            <Position>
              <LatitudeDegrees>41.35274483822286128997802734375</LatitudeDegrees>
              <LongitudeDegrees>-1.655169390141963958740234375</LongitudeDegrees>
            </Position>
            <AltitudeMeters>626.20001220703125</AltitudeMeters>
            <DistanceMeters>7145.0058364402</DistanceMeters>
          </Trackpoint>
          <Trackpoint>
            <Time>2022-11-06T10:44:46.000Z</Time>
            <Position>
              <LatitudeDegrees>41.35273695923388004302978515625</LatitudeDegrees>
              <LongitudeDegrees>-1.6551911830902099609375</LongitudeDegrees>
            </Position>
            <AltitudeMeters>626.5999755859375</AltitudeMeters>
            <DistanceMeters>7147.0261321</DistanceMeters>
          </Trackpoint>
          <Trackpoint>
            <Time>2022-11-06T10:44:47.000Z</Time>
            <Position>
              <LatitudeDegrees>41.35273042134940624237060546875</LatitudeDegrees>
              <LongitudeDegrees>-1.65521456860005855560302734375</LongitudeDegrees>
            </Position>
            <AltitudeMeters>626.79998779296875</AltitudeMeters>
            <DistanceMeters>7149.1123959486</DistanceMeters>
          </Trackpoint>
          <Trackpoint>
            <Time>2022-11-06T10:44:48.000Z</Time>
            <Position>
              <LatitudeDegrees>41.35272187180817127227783203125</LatitudeDegrees>
              <LongitudeDegrees>-1.6552406363189220428466796875</LongitudeDegrees>
            </Position>
            <AltitudeMeters>627</AltitudeMeters>
            <DistanceMeters>7151.4880638078</DistanceMeters>
          </Trackpoint>
          <Trackpoint>
            <Time>2022-11-06T10:44:49.000Z</Time>
            <Position>
              <LatitudeDegrees>41.352708041667938232421875</LatitudeDegrees>
              <LongitudeDegrees>-1.65526687167584896087646484375</LongitudeDegrees>
            </Position>
            <AltitudeMeters>627.20001220703125</AltitudeMeters>
            <DistanceMeters>7154.1657270982</DistanceMeters>
          </Trackpoint>
          <Trackpoint>
            <Time>2022-11-06T10:44:50.000Z</Time>
            <Position>
              <LatitudeDegrees>41.35268851183354854583740234375</LatitudeDegrees>
              <LongitudeDegrees>-1.6552890837192535400390625</LongitudeDegrees>
            </Position>
            <AltitudeMeters>627.4000244140625</AltitudeMeters>
            <DistanceMeters>7157.0244364541</DistanceMeters>
          </Trackpoint>
          <Trackpoint>
            <Time>2022-11-06T10:44:53.000Z</Time>
            <Position>
              <LatitudeDegrees>41.35260854847729206085205078125</LatitudeDegrees>
              <LongitudeDegrees>-1.6553851403295993804931640625</LongitudeDegrees>
            </Position>
            <AltitudeMeters>627.20001220703125</AltitudeMeters>
            <DistanceMeters>7169.0087330893</DistanceMeters>
          </Trackpoint>
          <Trackpoint>
            <Time>2022-11-06T10:44:54.000Z</Time>
            <Position>
              <LatitudeDegrees>41.35257736779749393463134765625</LatitudeDegrees>
              <LongitudeDegrees>-1.65541808120906352996826171875</LongitudeDegrees>
            </Position>
            <AltitudeMeters>627.20001220703125</AltitudeMeters>
            <DistanceMeters>7173.4374265802</DistanceMeters>
          </Trackpoint>
          <Trackpoint>
            <Time>2022-11-06T10:44:55.000Z</Time>
            <Position>
              <LatitudeDegrees>41.35254048742353916168212890625</LatitudeDegrees>
              <LongitudeDegrees>-1.65544473566114902496337890625</LongitudeDegrees>
            </Position>
            <AltitudeMeters>627</AltitudeMeters>
            <DistanceMeters>7178.1072910978</DistanceMeters>
          </Trackpoint>
          <Trackpoint>
            <Time>2022-11-06T10:44:56.000Z</Time>
            <Position>
              <LatitudeDegrees>41.3525013439357280731201171875</LatitudeDegrees>
              <LongitudeDegrees>-1.65546585805714130401611328125</LongitudeDegrees>
            </Position>
            <AltitudeMeters>626.5999755859375</AltitudeMeters>
            <DistanceMeters>7182.8079928601</DistanceMeters>
          </Trackpoint>
          <Trackpoint>
            <Time>2022-11-06T10:44:57.000Z</Time>
            <Position>
              <LatitudeDegrees>41.35246572084724903106689453125</LatitudeDegrees>
              <LongitudeDegrees>-1.65548765100538730621337890625</LongitudeDegrees>
            </Position>
            <AltitudeMeters>626.5999755859375</AltitudeMeters>
            <DistanceMeters>7187.1709507036</DistanceMeters>
          </Trackpoint>
          <Trackpoint>
            <Time>2022-11-06T10:44:58.000Z</Time>
            <Position>
              <LatitudeDegrees>41.3524363003671169281005859375</LatitudeDegrees>
              <LongitudeDegrees>-1.6555145569145679473876953125</LongitudeDegrees>
            </Position>
            <AltitudeMeters>626.4000244140625</AltitudeMeters>
            <DistanceMeters>7191.1439311495</DistanceMeters>
          </Trackpoint>
          <Trackpoint>
            <Time>2022-11-06T10:44:59.000Z</Time>
            <Position>
              <LatitudeDegrees>41.35241257958114147186279296875</LatitudeDegrees>
              <LongitudeDegrees>-1.655548252165317535400390625</LongitudeDegrees>
            </Position>
            <AltitudeMeters>626.4000244140625</AltitudeMeters>
            <DistanceMeters>7195.0039345346</DistanceMeters>
          </Trackpoint>
          <Trackpoint>
            <Time>2022-11-06T10:45:00.000Z</Time>
            <Position>
              <LatitudeDegrees>41.35239799506962299346923828125</LatitudeDegrees>
              <LongitudeDegrees>-1.6555909998714923858642578125</LongitudeDegrees>
            </Position>
            <AltitudeMeters>626.4000244140625</AltitudeMeters>
            <DistanceMeters>7198.927743951</DistanceMeters>
          </Trackpoint>
          <Trackpoint>
            <Time>2022-11-06T10:45:01.000Z</Time>
            <Position>
              <LatitudeDegrees>41.3523901998996734619140625</LatitudeDegrees>
              <LongitudeDegrees>-1.65563710033893585205078125</LongitudeDegrees>
            </Position>
            <AltitudeMeters>626.4000244140625</AltitudeMeters>
            <DistanceMeters>7202.8756436385</DistanceMeters>
          </Trackpoint>
          <Trackpoint>
            <Time>2022-11-06T10:45:02.000Z</Time>
            <Position>
              <LatitudeDegrees>41.3523886911571025848388671875</LatitudeDegrees>
              <LongitudeDegrees>-1.6556833684444427490234375</LongitudeDegrees>
            </Position>
            <AltitudeMeters>626.4000244140625</AltitudeMeters>
            <DistanceMeters>7206.7449932924</DistanceMeters>
          </Trackpoint>
          <Trackpoint>
            <Time>2022-11-06T10:45:04.000Z</Time>
            <Position>
              <LatitudeDegrees>41.35240687988698482513427734375</LatitudeDegrees>
              <LongitudeDegrees>-1.65577121078968048095703125</LongitudeDegrees>
            </Position>
            <AltitudeMeters>626.5999755859375</AltitudeMeters>
            <DistanceMeters>7214.3584065016</DistanceMeters>
          </Trackpoint>
          <Trackpoint>
            <Time>2022-11-06T10:45:05.000Z</Time>
            <Position>
              <LatitudeDegrees>41.35242112912237644195556640625</LatitudeDegrees>
              <LongitudeDegrees>-1.65581152774393558502197265625</LongitudeDegrees>
            </Position>
            <AltitudeMeters>626.5999755859375</AltitudeMeters>
            <DistanceMeters>7218.0814653705</DistanceMeters>
          </Trackpoint>
          <Trackpoint>
            <Time>2022-11-06T10:45:06.000Z</Time>
            <Position>
              <LatitudeDegrees>41.35243915021419525146484375</LatitudeDegrees>
              <LongitudeDegrees>-1.65585058741271495819091796875</LongitudeDegrees>
            </Position>
            <AltitudeMeters>626.5999755859375</AltitudeMeters>
            <DistanceMeters>7221.9109358489</DistanceMeters>
          </Trackpoint>
          <Trackpoint>
            <Time>2022-11-06T10:45:07.000Z</Time>
            <Position>
              <LatitudeDegrees>41.35245834477245807647705078125</LatitudeDegrees>
              <LongitudeDegrees>-1.65588327683508396148681640625</LongitudeDegrees>
            </Position>
            <AltitudeMeters>626.79998779296875</AltitudeMeters>
            <DistanceMeters>7225.3790854742</DistanceMeters>
          </Trackpoint>
          <Trackpoint>
            <Time>2022-11-06T10:45:08.000Z</Time>
            <Position>
              <LatitudeDegrees>41.3524751923978328704833984375</LatitudeDegrees>
              <LongitudeDegrees>-1.65591395460069179534912109375</LongitudeDegrees>
            </Position>
            <AltitudeMeters>626.79998779296875</AltitudeMeters>
            <DistanceMeters>7228.5550255536</DistanceMeters>
          </Trackpoint>
          <Trackpoint>
            <Time>2022-11-06T10:45:09.000Z</Time>
            <Position>
              <LatitudeDegrees>41.3524889387190341949462890625</LatitudeDegrees>
              <LongitudeDegrees>-1.6559403575956821441650390625</LongitudeDegrees>
            </Position>
            <AltitudeMeters>626.79998779296875</AltitudeMeters>
            <DistanceMeters>7231.2394251144</DistanceMeters>
          </Trackpoint>
          <Trackpoint>
            <Time>2022-11-06T10:45:10.000Z</Time>
            <Position>
              <LatitudeDegrees>41.35249740444123744964599609375</LatitudeDegrees>
              <LongitudeDegrees>-1.65597229264676570892333984375</LongitudeDegrees>
            </Position>
            <AltitudeMeters>627.20001220703125</AltitudeMeters>
            <DistanceMeters>7234.0679667403</DistanceMeters>
          </Trackpoint>
          <Trackpoint>
            <Time>2022-11-06T10:45:11.000Z</Time>
            <Position>
              <LatitudeDegrees>41.35250226594507694244384765625</LatitudeDegrees>
              <LongitudeDegrees>-1.6560020484030246734619140625</LongitudeDegrees>
            </Position>
            <AltitudeMeters>627.4000244140625</AltitudeMeters>
            <DistanceMeters>7236.6142571571</DistanceMeters>
          </Trackpoint>
          <Trackpoint>
            <Time>2022-11-06T10:45:12.000Z</Time>
            <Position>
              <LatitudeDegrees>41.35250511579215526580810546875</LatitudeDegrees>
              <LongitudeDegrees>-1.65602560155093669891357421875</LongitudeDegrees>
            </Position>
            <AltitudeMeters>627.79998779296875</AltitudeMeters>
            <DistanceMeters>7238.607554334</DistanceMeters>
          </Trackpoint>
          <Trackpoint>
            <Time>2022-11-06T10:45:13.000Z</Time>
            <Position>
              <LatitudeDegrees>41.3525060378015041351318359375</LatitudeDegrees>
              <LongitudeDegrees>-1.6560466401278972625732421875</LongitudeDegrees>
            </Position>
            <AltitudeMeters>628.20001220703125</AltitudeMeters>
            <DistanceMeters>7240.3700373259</DistanceMeters>
          </Trackpoint>
          <Trackpoint>
            <Time>2022-11-06T10:45:14.000Z</Time>
            <Position>
              <LatitudeDegrees>41.3525036908686161041259765625</LatitudeDegrees>
              <LongitudeDegrees>-1.65607161819934844970703125</LongitudeDegrees>
            </Position>
            <AltitudeMeters>628.4000244140625</AltitudeMeters>
            <DistanceMeters>7242.4735433177</DistanceMeters>
          </Trackpoint>
          <Trackpoint>
            <Time>2022-11-06T10:45:15.000Z</Time>
            <Position>
              <LatitudeDegrees>41.3524996675550937652587890625</LatitudeDegrees>
              <LongitudeDegrees>-1.6561031341552734375</LongitudeDegrees>
            </Position>
            <AltitudeMeters>628.79998779296875</AltitudeMeters>
            <DistanceMeters>7245.1444533481</DistanceMeters>
          </Trackpoint>
          <Trackpoint>
            <Time>2022-11-06T10:45:17.000Z</Time>
            <Position>
              <LatitudeDegrees>41.35248281992971897125244140625</LatitudeDegrees>
              <LongitudeDegrees>-1.65616021491587162017822265625</LongitudeDegrees>
            </Position>
            <AltitudeMeters>629.20001220703125</AltitudeMeters>
            <DistanceMeters>7250.2688520738</DistanceMeters>
          </Trackpoint>
          <Trackpoint>
            <Time>2022-11-06T10:45:18.000Z</Time>
            <Position>
              <LatitudeDegrees>41.35246932506561279296875</LatitudeDegrees>
              <LongitudeDegrees>-1.656187959015369415283203125</LongitudeDegrees>
            </Position>
            <AltitudeMeters>629.5999755859375</AltitudeMeters>
            <DistanceMeters>7253.0328066088</DistanceMeters>
          </Trackpoint>
          <Trackpoint>
            <Time>2022-11-06T10:45:20.000Z</Time>
            <Position>
              <LatitudeDegrees>41.35243906639516353607177734375</LatitudeDegrees>
              <LongitudeDegrees>-1.65623791515827178955078125</LongitudeDegrees>
            </Position>
            <AltitudeMeters>630</AltitudeMeters>
            <DistanceMeters>7258.3957156583</DistanceMeters>
          </Trackpoint>
          <Trackpoint>
            <Time>2022-11-06T10:45:21.000Z</Time>
            <Position>
              <LatitudeDegrees>41.35242548771202564239501953125</LatitudeDegrees>
              <LongitudeDegrees>-1.65626741945743560791015625</LongitudeDegrees>
            </Position>
            <AltitudeMeters>630</AltitudeMeters>
            <DistanceMeters>7261.2874021536</DistanceMeters>
          </Trackpoint>
          <Trackpoint>
            <Time>2022-11-06T10:45:22.000Z</Time>
            <Position>
              <LatitudeDegrees>41.35240294039249420166015625</LatitudeDegrees>
              <LongitudeDegrees>-1.656305976212024688720703125</LongitudeDegrees>
            </Position>
            <AltitudeMeters>630</AltitudeMeters>
            <DistanceMeters>7265.3702346405</DistanceMeters>
          </Trackpoint>
          <Trackpoint>
            <Time>2022-11-06T10:45:23.000Z</Time>
            <Position>
              <LatitudeDegrees>41.35238609276711940765380859375</LatitudeDegrees>
              <LongitudeDegrees>-1.65632735006511211395263671875</LongitudeDegrees>
            </Position>
            <AltitudeMeters>630</AltitudeMeters>
            <DistanceMeters>7267.9587316409</DistanceMeters>
          </Trackpoint>
          <Trackpoint>
            <Time>2022-11-06T10:45:24.000Z</Time>
            <Position>
              <LatitudeDegrees>41.35236094705760478973388671875</LatitudeDegrees>
              <LongitudeDegrees>-1.65636724792420864105224609375</LongitudeDegrees>
            </Position>
            <AltitudeMeters>630</AltitudeMeters>
            <DistanceMeters>7272.3134027574</DistanceMeters>
          </Trackpoint>
          <Trackpoint>
            <Time>2022-11-06T10:45:25.000Z</Time>
            <Position>
              <LatitudeDegrees>41.35233328677713871002197265625</LatitudeDegrees>
              <LongitudeDegrees>-1.65641318075358867645263671875</LongitudeDegrees>
            </Position>
            <AltitudeMeters>630</AltitudeMeters>
            <DistanceMeters>7277.2328137861</DistanceMeters>
          </Trackpoint>
          <Trackpoint>
            <Time>2022-11-06T10:45:26.000Z</Time>
            <Position>
              <LatitudeDegrees>41.35231099091470241546630859375</LatitudeDegrees>
              <LongitudeDegrees>-1.656440757215023040771484375</LongitudeDegrees>
            </Position>
            <AltitudeMeters>629.79998779296875</AltitudeMeters>
            <DistanceMeters>7280.6192864471</DistanceMeters>
          </Trackpoint>
          <Trackpoint>
            <Time>2022-11-06T10:45:27.000Z</Time>
            <Position>
              <LatitudeDegrees>41.35227813385426998138427734375</LatitudeDegrees>
              <LongitudeDegrees>-1.6564912162721157073974609375</LongitudeDegrees>
            </Position>
            <AltitudeMeters>629.5999755859375</AltitudeMeters>
            <DistanceMeters>7286.2008421202</DistanceMeters>
          </Trackpoint>
          <Trackpoint>
            <Time>2022-11-06T10:45:28.000Z</Time>
            <Position>
              <LatitudeDegrees>41.35225265286862850189208984375</LatitudeDegrees>
              <LongitudeDegrees>-1.65654159151017665863037109375</LongitudeDegrees>
            </Position>
            <AltitudeMeters>629.20001220703125</AltitudeMeters>
            <DistanceMeters>7291.2756601483</DistanceMeters>
          </Trackpoint>
          <Trackpoint>
            <Time>2022-11-06T10:45:29.000Z</Time>
            <Position>
              <LatitudeDegrees>41.352230943739414215087890625</LatitudeDegrees>
              <LongitudeDegrees>-1.65657495148479938507080078125</LongitudeDegrees>
            </Position>
            <AltitudeMeters>629</AltitudeMeters>
            <DistanceMeters>7294.9633823619</DistanceMeters>
          </Trackpoint>
          <Trackpoint>
            <Time>2022-11-06T10:45:30.000Z</Time>
            <Position>
              <LatitudeDegrees>41.35219280607998371124267578125</LatitudeDegrees>
              <LongitudeDegrees>-1.65663111023604869842529296875</LongitudeDegrees>
            </Position>
            <AltitudeMeters>629</AltitudeMeters>
            <DistanceMeters>7301.2896212761</DistanceMeters>
          </Trackpoint>
          <Trackpoint>
            <Time>2022-11-06T10:45:31.000Z</Time>
            <Position>
              <LatitudeDegrees>41.35216799564659595489501953125</LatitudeDegrees>
              <LongitudeDegrees>-1.65666078217327594757080078125</LongitudeDegrees>
            </Position>
            <AltitudeMeters>628.79998779296875</AltitudeMeters>
            <DistanceMeters>7305.0005331016</DistanceMeters>
          </Trackpoint>
          <Trackpoint>
            <Time>2022-11-06T10:45:32.000Z</Time>
            <Position>
              <LatitudeDegrees>41.35213396511971950531005859375</LatitudeDegrees>
              <LongitudeDegrees>-1.65669447742402553558349609375</LongitudeDegrees>
            </Position>
            <AltitudeMeters>628.79998779296875</AltitudeMeters>
            <DistanceMeters>7309.719449133</DistanceMeters>
          </Trackpoint>
          <Trackpoint>
            <Time>2022-11-06T10:45:33.000Z</Time>
            <Position>
              <LatitudeDegrees>41.35209188796579837799072265625</LatitudeDegrees>
              <LongitudeDegrees>-1.656729094684123992919921875</LongitudeDegrees>
            </Position>
            <AltitudeMeters>628.5999755859375</AltitudeMeters>
            <DistanceMeters>7315.2236208663</DistanceMeters>
          </Trackpoint>
          <Trackpoint>
            <Time>2022-11-06T10:45:34.000Z</Time>
            <Position>
              <LatitudeDegrees>41.3520517386496067047119140625</LatitudeDegrees>
              <LongitudeDegrees>-1.6567535698413848876953125</LongitudeDegrees>
            </Position>
            <AltitudeMeters>628.20001220703125</AltitudeMeters>
            <DistanceMeters>7320.137522006</DistanceMeters>
          </Trackpoint>
          <Trackpoint>
            <Time>2022-11-06T10:45:35.000Z</Time>
            <Position>
              <LatitudeDegrees>41.351986192166805267333984375</LatitudeDegrees>
              <LongitudeDegrees>-1.65680243633687496185302734375</LongitudeDegrees>
            </Position>
            <AltitudeMeters>627.5999755859375</AltitudeMeters>
            <DistanceMeters>7328.4977128935</DistanceMeters>
          </Trackpoint>
          <Trackpoint>
            <Time>2022-11-06T10:45:36.000Z</Time>
            <Position>
              <LatitudeDegrees>41.351932547986507415771484375</LatitudeDegrees>
              <LongitudeDegrees>-1.65686345659196376800537109375</LongitudeDegrees>
            </Position>
            <AltitudeMeters>626.79998779296875</AltitudeMeters>
            <DistanceMeters>7336.3487829994</DistanceMeters>
          </Trackpoint>
          <Trackpoint>
            <Time>2022-11-06T10:45:37.000Z</Time>
            <Position>
              <LatitudeDegrees>41.3518887944519519805908203125</LatitudeDegrees>
              <LongitudeDegrees>-1.65693822316825389862060546875</LongitudeDegrees>
            </Position>
            <AltitudeMeters>626</AltitudeMeters>
            <DistanceMeters>7344.2697028407</DistanceMeters>
          </Trackpoint>
          <Trackpoint>
            <Time>2022-11-06T10:45:38.000Z</Time>
            <Position>
              <LatitudeDegrees>41.35185803286731243133544921875</LatitudeDegrees>
              <LongitudeDegrees>-1.65702204219996929168701171875</LongitudeDegrees>
            </Position>
            <AltitudeMeters>625.79998779296875</AltitudeMeters>
            <DistanceMeters>7352.0653692309</DistanceMeters>
          </Trackpoint>
          <Trackpoint>
            <Time>2022-11-06T10:45:39.000Z</Time>
            <Position>
              <LatitudeDegrees>41.35183908976614475250244140625</LatitudeDegrees>
              <LongitudeDegrees>-1.65710695087909698486328125</LongitudeDegrees>
            </Position>
            <AltitudeMeters>625.5999755859375</AltitudeMeters>
            <DistanceMeters>7359.4664802089</DistanceMeters>
          </Trackpoint>
          <Trackpoint>
            <Time>2022-11-06T10:45:40.000Z</Time>
            <Position>
              <LatitudeDegrees>41.35182836093008518218994140625</LatitudeDegrees>
              <LongitudeDegrees>-1.65718649514019489288330078125</LongitudeDegrees>
            </Position>
            <AltitudeMeters>625.5999755859375</AltitudeMeters>
            <DistanceMeters>7366.2187284246</DistanceMeters>
          </Trackpoint>
          <Trackpoint>
            <Time>2022-11-06T10:45:41.000Z</Time>
            <Position>
              <LatitudeDegrees>41.3518214039504528045654296875</LatitudeDegrees>
              <LongitudeDegrees>-1.6572388820350170135498046875</LongitudeDegrees>
            </Position>
            <AltitudeMeters>625.5999755859375</AltitudeMeters>
            <DistanceMeters>7370.6647195779</DistanceMeters>
          </Trackpoint>
          <Trackpoint>
            <Time>2022-11-06T10:45:42.000Z</Time>
            <Position>
              <LatitudeDegrees>41.35181779973208904266357421875</LatitudeDegrees>
              <LongitudeDegrees>-1.6572710685431957244873046875</LongitudeDegrees>
            </Position>
            <AltitudeMeters>626.20001220703125</AltitudeMeters>
            <DistanceMeters>7373.3842108185</DistanceMeters>
          </Trackpoint>
          <Trackpoint>
            <Time>2022-11-06T10:45:43.000Z</Time>
            <Position>
              <LatitudeDegrees>41.35181511752307415008544921875</LatitudeDegrees>
              <LongitudeDegrees>-1.657293699681758880615234375</LongitudeDegrees>
            </Position>
            <AltitudeMeters>626.79998779296875</AltitudeMeters>
            <DistanceMeters>7375.2989460577</DistanceMeters>
          </Trackpoint>
          <Trackpoint>
            <Time>2022-11-06T10:45:44.000Z</Time>
            <Position>
              <LatitudeDegrees>41.35181059129536151885986328125</LatitudeDegrees>
              <LongitudeDegrees>-1.6573173366487026214599609375</LongitudeDegrees>
            </Position>
            <AltitudeMeters>627.4000244140625</AltitudeMeters>
            <DistanceMeters>7377.3370420231</DistanceMeters>
          </Trackpoint>
          <Trackpoint>
            <Time>2022-11-06T10:45:45.000Z</Time>
            <Position>
              <LatitudeDegrees>41.35180237703025341033935546875</LatitudeDegrees>
              <LongitudeDegrees>-1.6573382914066314697265625</LongitudeDegrees>
            </Position>
            <AltitudeMeters>628</AltitudeMeters>
            <DistanceMeters>7379.3121351915</DistanceMeters>
          </Trackpoint>
          <Trackpoint>
            <Time>2022-11-06T10:45:46.000Z</Time>
            <Position>
              <LatitudeDegrees>41.35179583914577960968017578125</LatitudeDegrees>
              <LongitudeDegrees>-1.65736016817390918731689453125</LongitudeDegrees>
            </Position>
            <AltitudeMeters>628.20001220703125</AltitudeMeters>
            <DistanceMeters>7381.2780631449</DistanceMeters>
          </Trackpoint>
          <Trackpoint>
            <Time>2022-11-06T10:45:47.000Z</Time>
            <Position>
              <LatitudeDegrees>41.35178678669035434722900390625</LatitudeDegrees>
              <LongitudeDegrees>-1.65737994946539402008056640625</LongitudeDegrees>
            </Position>
            <AltitudeMeters>628.5999755859375</AltitudeMeters>
            <DistanceMeters>7383.2115707471</DistanceMeters>
          </Trackpoint>
          <Trackpoint>
            <Time>2022-11-06T10:45:49.000Z</Time>
            <Position>
              <LatitudeDegrees>41.35176616720855236053466796875</LatitudeDegrees>
              <LongitudeDegrees>-1.65741314180195331573486328125</LongitudeDegrees>
            </Position>
            <AltitudeMeters>629</AltitudeMeters>
            <DistanceMeters>7386.8100606555</DistanceMeters>
          </Trackpoint>
          <Trackpoint>
            <Time>2022-11-06T10:45:50.000Z</Time>
            <Position>
              <LatitudeDegrees>41.3517518341541290283203125</LatitudeDegrees>
              <LongitudeDegrees>-1.65743912570178508758544921875</LongitudeDegrees>
            </Position>
            <AltitudeMeters>629.20001220703125</AltitudeMeters>
            <DistanceMeters>7389.5045330456</DistanceMeters>
          </Trackpoint>
          <Trackpoint>
            <Time>2022-11-06T10:45:51.000Z</Time>
            <Position>
              <LatitudeDegrees>41.35173641145229339599609375</LatitudeDegrees>
              <LongitudeDegrees>-1.65745756588876247406005859375</LongitudeDegrees>
            </Position>
            <AltitudeMeters>629.20001220703125</AltitudeMeters>
            <DistanceMeters>7391.8107669942</DistanceMeters>
          </Trackpoint>
          <Trackpoint>
            <Time>2022-11-06T10:45:55.000Z</Time>
            <Position>
              <LatitudeDegrees>41.35167866013944149017333984375</LatitudeDegrees>
              <LongitudeDegrees>-1.657551862299442291259765625</LongitudeDegrees>
            </Position>
            <AltitudeMeters>629.4000244140625</AltitudeMeters>
            <DistanceMeters>7401.9790694721</DistanceMeters>
          </Trackpoint>
          <Trackpoint>
            <Time>2022-11-06T10:45:56.000Z</Time>
            <Position>
              <LatitudeDegrees>41.3516661711037158966064453125</LatitudeDegrees>
              <LongitudeDegrees>-1.65757725946605205535888671875</LongitudeDegrees>
            </Position>
            <AltitudeMeters>629.4000244140625</AltitudeMeters>
            <DistanceMeters>7404.5164784862</DistanceMeters>
          </Trackpoint>
          <Trackpoint>
            <Time>2022-11-06T10:46:02.000Z</Time>
            <Position>
              <LatitudeDegrees>41.3516024686396121978759765625</LatitudeDegrees>
              <LongitudeDegrees>-1.6577030718326568603515625</LongitudeDegrees>
            </Position>
            <AltitudeMeters>630.20001220703125</AltitudeMeters>
            <DistanceMeters>7417.1960479192</DistanceMeters>
          </Trackpoint>
          <Trackpoint>
            <Time>2022-11-06T10:46:03.000Z</Time>
            <Position>
              <LatitudeDegrees>41.3515960983932018280029296875</LatitudeDegrees>
              <LongitudeDegrees>-1.657722853124141693115234375</LongitudeDegrees>
            </Position>
            <AltitudeMeters>630.5999755859375</AltitudeMeters>
            <DistanceMeters>7418.9990530551</DistanceMeters>
          </Trackpoint>
          <Trackpoint>
            <Time>2022-11-06T10:46:05.000Z</Time>
            <Position>
              <LatitudeDegrees>41.351575814187526702880859375</LatitudeDegrees>
              <LongitudeDegrees>-1.657757051289081573486328125</LongitudeDegrees>
            </Position>
            <AltitudeMeters>631</AltitudeMeters>
            <DistanceMeters>7422.6411928514</DistanceMeters>
          </Trackpoint>
          <Trackpoint>
            <Time>2022-11-06T10:46:06.000Z</Time>
            <Position>
              <LatitudeDegrees>41.3515649177134037017822265625</LatitudeDegrees>
              <LongitudeDegrees>-1.65776937268674373626708984375</LongitudeDegrees>
            </Position>
            <AltitudeMeters>631.20001220703125</AltitudeMeters>
            <DistanceMeters>7424.2341308542</DistanceMeters>
          </Trackpoint>
          <Trackpoint>
            <Time>2022-11-06T10:46:07.000Z</Time>
            <Position>
              <LatitudeDegrees>41.35155712254345417022705078125</LatitudeDegrees>
              <LongitudeDegrees>-1.65778127498924732208251953125</LongitudeDegrees>
            </Position>
            <AltitudeMeters>631.4000244140625</AltitudeMeters>
            <DistanceMeters>7425.5542841611</DistanceMeters>
          </Trackpoint>
          <Trackpoint>
            <Time>2022-11-06T10:46:08.000Z</Time>
            <Position>
              <LatitudeDegrees>41.351542286574840545654296875</LatitudeDegrees>
              <LongitudeDegrees>-1.65780222974717617034912109375</LongitudeDegrees>
            </Position>
            <AltitudeMeters>632</AltitudeMeters>
            <DistanceMeters>7427.9620443396</DistanceMeters>
          </Trackpoint>
          <Trackpoint>
            <Time>2022-11-06T10:46:09.000Z</Time>
            <Position>
              <LatitudeDegrees>41.351527534425258636474609375</LatitudeDegrees>
              <LongitudeDegrees>-1.6578179039061069488525390625</LongitudeDegrees>
            </Position>
            <AltitudeMeters>632.4000244140625</AltitudeMeters>
            <DistanceMeters>7430.0634028004</DistanceMeters>
          </Trackpoint>
          <Trackpoint>
            <Time>2022-11-06T10:46:10.000Z</Time>
            <Position>
              <LatitudeDegrees>41.351516135036945343017578125</LatitudeDegrees>
              <LongitudeDegrees>-1.65782653726637363433837890625</LongitudeDegrees>
            </Position>
            <AltitudeMeters>632.5999755859375</AltitudeMeters>
            <DistanceMeters>7431.5232308865</DistanceMeters>
          </Trackpoint>
          <Trackpoint>
            <Time>2022-11-06T10:46:11.000Z</Time>
            <Position>
              <LatitudeDegrees>41.35150574147701263427734375</LatitudeDegrees>
              <LongitudeDegrees>-1.6578363440930843353271484375</LongitudeDegrees>
            </Position>
            <AltitudeMeters>633</AltitudeMeters>
            <DistanceMeters>7432.9422823468</DistanceMeters>
          </Trackpoint>
          <Trackpoint>
            <Time>2022-11-06T10:46:12.000Z</Time>
            <Position>
              <LatitudeDegrees>41.35149559937417507171630859375</LatitudeDegrees>
              <LongitudeDegrees>-1.65785168297588825225830078125</LongitudeDegrees>
            </Position>
            <AltitudeMeters>633.20001220703125</AltitudeMeters>
            <DistanceMeters>7434.6527632054</DistanceMeters>
          </Trackpoint>
          <Trackpoint>
            <Time>2022-11-06T10:46:13.000Z</Time>
            <Position>
              <LatitudeDegrees>41.3514864630997180938720703125</LatitudeDegrees>
              <LongitudeDegrees>-1.6578681953251361846923828125</LongitudeDegrees>
            </Position>
            <AltitudeMeters>633.4000244140625</AltitudeMeters>
            <DistanceMeters>7436.3685152041</DistanceMeters>
          </Trackpoint>
          <Trackpoint>
            <Time>2022-11-06T10:46:14.000Z</Time>
            <Position>
              <LatitudeDegrees>41.3514767400920391082763671875</LatitudeDegrees>
              <LongitudeDegrees>-1.6578839533030986785888671875</LongitudeDegrees>
            </Position>
            <AltitudeMeters>633.79998779296875</AltitudeMeters>
            <DistanceMeters>7438.0737086285</DistanceMeters>
          </Trackpoint>
          <Trackpoint>
            <Time>2022-11-06T10:46:15.000Z</Time>
            <Position>
              <LatitudeDegrees>41.351466514170169830322265625</LatitudeDegrees>
              <LongitudeDegrees>-1.657898537814617156982421875</LongitudeDegrees>
            </Position>
            <AltitudeMeters>634</AltitudeMeters>
            <DistanceMeters>7439.7414206974</DistanceMeters>
          </Trackpoint>
          <Trackpoint>
            <Time>2022-11-06T10:46:16.000Z</Time>
            <Position>
              <LatitudeDegrees>41.35145612061023712158203125</LatitudeDegrees>
              <LongitudeDegrees>-1.65791437961161136627197265625</LongitudeDegrees>
            </Position>
            <AltitudeMeters>634.20001220703125</AltitudeMeters>
            <DistanceMeters>7441.4987727236</DistanceMeters>
          </Trackpoint>
          <Trackpoint>
            <Time>2022-11-06T10:46:17.000Z</Time>
            <Position>
              <LatitudeDegrees>41.35144539177417755126953125</LatitudeDegrees>
              <LongitudeDegrees>-1.657933406531810760498046875</LongitudeDegrees>
            </Position>
            <AltitudeMeters>634.79998779296875</AltitudeMeters>
            <DistanceMeters>7443.4875345199</DistanceMeters>
          </Trackpoint>
          <Trackpoint>
            <Time>2022-11-06T10:46:18.000Z</Time>
            <Position>
              <LatitudeDegrees>41.35143826715648174285888671875</LatitudeDegrees>
              <LongitudeDegrees>-1.6579523496329784393310546875</LongitudeDegrees>
            </Position>
            <AltitudeMeters>635.20001220703125</AltitudeMeters>
            <DistanceMeters>7445.2602348901</DistanceMeters>
          </Trackpoint>
          <Trackpoint>
            <Time>2022-11-06T10:46:19.000Z</Time>
            <Position>
              <LatitudeDegrees>41.3514344953000545501708984375</LatitudeDegrees>
              <LongitudeDegrees>-1.65796936489641666412353515625</LongitudeDegrees>
            </Position>
            <AltitudeMeters>635.5999755859375</AltitudeMeters>
            <DistanceMeters>7446.7415547664</DistanceMeters>
          </Trackpoint>
          <Trackpoint>
            <Time>2022-11-06T10:46:20.000Z</Time>
            <Position>
              <LatitudeDegrees>41.35143441148102283477783203125</LatitudeDegrees>
              <LongitudeDegrees>-1.65798948146402835845947265625</LongitudeDegrees>
            </Position>
            <AltitudeMeters>635.79998779296875</AltitudeMeters>
            <DistanceMeters>7448.4200612008</DistanceMeters>
          </Trackpoint>
          <Trackpoint>
            <Time>2022-11-06T10:46:21.000Z</Time>
            <Position>
              <LatitudeDegrees>41.35143927298486232757568359375</LatitudeDegrees>
              <LongitudeDegrees>-1.658013872802257537841796875</LongitudeDegrees>
            </Position>
            <AltitudeMeters>635.79998779296875</AltitudeMeters>
            <DistanceMeters>7450.5278556905</DistanceMeters>
          </Trackpoint>
          <Trackpoint>
            <Time>2022-11-06T10:46:22.000Z</Time>
            <Position>
              <LatitudeDegrees>41.35144480504095554351806640625</LatitudeDegrees>
              <LongitudeDegrees>-1.6580371744930744171142578125</LongitudeDegrees>
            </Position>
            <AltitudeMeters>636</AltitudeMeters>
            <DistanceMeters>7452.5725868203</DistanceMeters>
          </Trackpoint>
          <Trackpoint>
            <Time>2022-11-06T10:46:23.000Z</Time>
            <Position>
              <LatitudeDegrees>41.3514526002109050750732421875</LatitudeDegrees>
              <LongitudeDegrees>-1.65805955417454242706298828125</LongitudeDegrees>
            </Position>
            <AltitudeMeters>636</AltitudeMeters>
            <DistanceMeters>7454.6370954984</DistanceMeters>
          </Trackpoint>
          <Trackpoint>
            <Time>2022-11-06T10:46:24.000Z</Time>
            <Position>
              <LatitudeDegrees>41.35146341286599636077880859375</LatitudeDegrees>
              <LongitudeDegrees>-1.65808436460793018341064453125</LongitudeDegrees>
            </Position>
            <AltitudeMeters>636.20001220703125</AltitudeMeters>
            <DistanceMeters>7457.0335780496</DistanceMeters>
          </Trackpoint>
          <Trackpoint>
            <Time>2022-11-06T10:46:25.000Z</Time>
            <Position>
              <LatitudeDegrees>41.35147489607334136962890625</LatitudeDegrees>
              <LongitudeDegrees>-1.65810850448906421661376953125</LongitudeDegrees>
            </Position>
            <AltitudeMeters>636.20001220703125</AltitudeMeters>
            <DistanceMeters>7459.4187296506</DistanceMeters>
          </Trackpoint>
          <Trackpoint>
            <Time>2022-11-06T10:46:26.000Z</Time>
            <Position>
              <LatitudeDegrees>41.35148788802325725555419921875</LatitudeDegrees>
              <LongitudeDegrees>-1.658129207789897918701171875</LongitudeDegrees>
            </Position>
            <AltitudeMeters>636.20001220703125</AltitudeMeters>
            <DistanceMeters>7461.6714841781</DistanceMeters>
          </Trackpoint>
          <Trackpoint>
            <Time>2022-11-06T10:46:27.000Z</Time>
            <Position>
              <LatitudeDegrees>41.35150305926799774169921875</LatitudeDegrees>
              <LongitudeDegrees>-1.658144630491733551025390625</LongitudeDegrees>
            </Position>
            <AltitudeMeters>636.4000244140625</AltitudeMeters>
            <DistanceMeters>7463.7963461082</DistanceMeters>
          </Trackpoint>
          <Trackpoint>
            <Time>2022-11-06T10:46:28.000Z</Time>
            <Position>
              <LatitudeDegrees>41.35151705704629421234130859375</LatitudeDegrees>
              <LongitudeDegrees>-1.65816642343997955322265625</LongitudeDegrees>
            </Position>
            <AltitudeMeters>636.4000244140625</AltitudeMeters>
            <DistanceMeters>7466.1928286595</DistanceMeters>
          </Trackpoint>
          <Trackpoint>
            <Time>2022-11-06T10:46:29.000Z</Time>
            <Position>
              <LatitudeDegrees>41.35152560658752918243408203125</LatitudeDegrees>
              <LongitudeDegrees>-1.65818997658789157867431640625</LongitudeDegrees>
            </Position>
            <AltitudeMeters>636.4000244140625</AltitudeMeters>
            <DistanceMeters>7468.3805079128</DistanceMeters>
          </Trackpoint>
          <Trackpoint>
            <Time>2022-11-06T10:46:30.000Z</Time>
            <Position>
              <LatitudeDegrees>41.3515344075858592987060546875</LatitudeDegrees>
              <LongitudeDegrees>-1.65821294300258159637451171875</LongitudeDegrees>
            </Position>
            <AltitudeMeters>636.5999755859375</AltitudeMeters>
            <DistanceMeters>7470.5349125387</DistanceMeters>
          </Trackpoint>
          <Trackpoint>
            <Time>2022-11-06T10:46:31.000Z</Time>
            <Position>
              <LatitudeDegrees>41.35153952054679393768310546875</LatitudeDegrees>
              <LongitudeDegrees>-1.6582368314266204833984375</LongitudeDegrees>
            </Position>
            <AltitudeMeters>636.5999755859375</AltitudeMeters>
            <DistanceMeters>7472.6081506792</DistanceMeters>
          </Trackpoint>
          <Trackpoint>
            <Time>2022-11-06T10:46:32.000Z</Time>
            <Position>
              <LatitudeDegrees>41.35153952054679393768310546875</LatitudeDegrees>
              <LongitudeDegrees>-1.65826155804097652435302734375</LongitudeDegrees>
            </Position>
            <AltitudeMeters>636.5999755859375</AltitudeMeters>
            <DistanceMeters>7474.6726593572</DistanceMeters>
          </Trackpoint>
          <Trackpoint>
            <Time>2022-11-06T10:46:33.000Z</Time>
            <Position>
              <LatitudeDegrees>41.35153918527066707611083984375</LatitudeDegrees>
              <LongitudeDegrees>-1.65828620083630084991455078125</LongitudeDegrees>
            </Position>
            <AltitudeMeters>637</AltitudeMeters>
            <DistanceMeters>7476.7284015044</DistanceMeters>
          </Trackpoint>
          <Trackpoint>
            <Time>2022-11-06T10:46:34.000Z</Time>
            <Position>
              <LatitudeDegrees>41.35153750889003276824951171875</LatitudeDegrees>
              <LongitudeDegrees>-1.6583067364990711212158203125</LongitudeDegrees>
            </Position>
            <AltitudeMeters>637</AltitudeMeters>
            <DistanceMeters>7478.4572610426</DistanceMeters>
          </Trackpoint>
          <Trackpoint>
            <Time>2022-11-06T10:46:35.000Z</Time>
            <Position>
              <LatitudeDegrees>41.3515320606529712677001953125</LatitudeDegrees>
              <LongitudeDegrees>-1.6583235003054141998291015625</LongitudeDegrees>
            </Position>
            <AltitudeMeters>637.5999755859375</AltitudeMeters>
            <DistanceMeters>7479.986571279</DistanceMeters>
          </Trackpoint>
          <Trackpoint>
            <Time>2022-11-06T10:46:36.000Z</Time>
            <Position>
              <LatitudeDegrees>41.35152795352041721343994140625</LatitudeDegrees>
              <LongitudeDegrees>-1.65833833627402782440185546875</LongitudeDegrees>
            </Position>
            <AltitudeMeters>637.79998779296875</AltitudeMeters>
            <DistanceMeters>7481.3067245859</DistanceMeters>
          </Trackpoint>
          <Trackpoint>
            <Time>2022-11-06T10:46:37.000Z</Time>
            <Position>
              <LatitudeDegrees>41.35152292437851428985595703125</LatitudeDegrees>
              <LongitudeDegrees>-1.65835593827068805694580078125</LongitudeDegrees>
            </Position>
            <AltitudeMeters>638.20001220703125</AltitudeMeters>
            <DistanceMeters>7482.8796965963</DistanceMeters>
          </Trackpoint>
          <Trackpoint>
            <Time>2022-11-06T10:46:38.000Z</Time>
            <Position>
              <LatitudeDegrees>41.3515159673988819122314453125</LatitudeDegrees>
              <LongitudeDegrees>-1.65837588720023632049560546875</LongitudeDegrees>
            </Position>
            <AltitudeMeters>638.5999755859375</AltitudeMeters>
            <DistanceMeters>7484.7174257902</DistanceMeters>
          </Trackpoint>
          <Trackpoint>
            <Time>2022-11-06T10:46:39.000Z</Time>
            <Position>
              <LatitudeDegrees>41.35151001624763011932373046875</LatitudeDegrees>
              <LongitudeDegrees>-1.65839499793946743011474609375</LongitudeDegrees>
            </Position>
            <AltitudeMeters>639.20001220703125</AltitudeMeters>
            <DistanceMeters>7486.4436717827</DistanceMeters>
          </Trackpoint>
          <Trackpoint>
            <Time>2022-11-06T10:46:40.000Z</Time>
            <Position>
              <LatitudeDegrees>41.3515075854957103729248046875</LatitudeDegrees>
              <LongitudeDegrees>-1.65841209702193737030029296875</LongitudeDegrees>
            </Position>
            <AltitudeMeters>639.5999755859375</AltitudeMeters>
            <DistanceMeters>7487.8973009953</DistanceMeters>
          </Trackpoint>
          <Trackpoint>
            <Time>2022-11-06T10:46:41.000Z</Time>
            <Position>
              <LatitudeDegrees>41.3515022210776805877685546875</LatitudeDegrees>
              <LongitudeDegrees>-1.6584331355988979339599609375</LongitudeDegrees>
            </Position>
            <AltitudeMeters>639.79998779296875</AltitudeMeters>
            <DistanceMeters>7489.7521484621</DistanceMeters>
          </Trackpoint>
          <Trackpoint>
            <Time>2022-11-06T10:46:42.000Z</Time>
            <Position>
              <LatitudeDegrees>41.3514968566596508026123046875</LatitudeDegrees>
              <LongitudeDegrees>-1.65845341980457305908203125</LongitudeDegrees>
            </Position>
            <AltitudeMeters>640</AltitudeMeters>
            <DistanceMeters>7491.5476253599</DistanceMeters>
          </Trackpoint>
          <Trackpoint>
            <Time>2022-11-06T10:46:43.000Z</Time>
            <Position>
              <LatitudeDegrees>41.35149325244128704071044921875</LatitudeDegrees>
              <LongitudeDegrees>-1.6584740392863750457763671875</LongitudeDegrees>
            </Position>
            <AltitudeMeters>640.20001220703125</AltitudeMeters>
            <DistanceMeters>7493.3177769145</DistanceMeters>
          </Trackpoint>
          <Trackpoint>
            <Time>2022-11-06T10:46:44.000Z</Time>
            <Position>
              <LatitudeDegrees>41.35148922912776470184326171875</LatitudeDegrees>
              <LongitudeDegrees>-1.65849608369171619415283203125</LongitudeDegrees>
            </Position>
            <AltitudeMeters>640.5999755859375</AltitudeMeters>
            <DistanceMeters>7495.2135539121</DistanceMeters>
          </Trackpoint>
          <Trackpoint>
            <Time>2022-11-06T10:46:45.000Z</Time>
            <Position>
              <LatitudeDegrees>41.35148436762392520904541015625</LatitudeDegrees>
              <LongitudeDegrees>-1.65851536206901073455810546875</LongitudeDegrees>
            </Position>
            <AltitudeMeters>641</AltitudeMeters>
            <DistanceMeters>7496.9081229751</DistanceMeters>
          </Trackpoint>
          <Trackpoint>
            <Time>2022-11-06T10:46:46.000Z</Time>
            <Position>
              <LatitudeDegrees>41.3514817692339420318603515625</LatitudeDegrees>
              <LongitudeDegrees>-1.65853363461792469024658203125</LongitudeDegrees>
            </Position>
            <AltitudeMeters>641.20001220703125</AltitudeMeters>
            <DistanceMeters>7498.4579617841</DistanceMeters>
          </Trackpoint>
          <Trackpoint>
            <Time>2022-11-06T10:46:47.000Z</Time>
            <Position>
              <LatitudeDegrees>41.35147632099688053131103515625</LatitudeDegrees>
              <LongitudeDegrees>-1.65854972787201404571533203125</LongitudeDegrees>
            </Position>
            <AltitudeMeters>641.4000244140625</AltitudeMeters>
            <DistanceMeters>7499.9331730988</DistanceMeters>
          </Trackpoint>
          <Trackpoint>
            <Time>2022-11-06T10:46:48.000Z</Time>
            <Position>
              <LatitudeDegrees>41.35146995075047016143798828125</LatitudeDegrees>
              <LongitudeDegrees>-1.65856816805899143218994140625</LongitudeDegrees>
            </Position>
            <AltitudeMeters>641.5999755859375</AltitudeMeters>
            <DistanceMeters>7501.6304044872</DistanceMeters>
          </Trackpoint>
          <Trackpoint>
            <Time>2022-11-06T10:46:49.000Z</Time>
            <Position>
              <LatitudeDegrees>41.35145771317183971405029296875</LatitudeDegrees>
              <LongitudeDegrees>-1.6585883684456348419189453125</LongitudeDegrees>
            </Position>
            <AltitudeMeters>641.5999755859375</AltitudeMeters>
            <DistanceMeters>7503.799429574</DistanceMeters>
          </Trackpoint>
          <Trackpoint>
            <Time>2022-11-06T10:46:50.000Z</Time>
            <Position>
              <LatitudeDegrees>41.35144128464162349700927734375</LatitudeDegrees>
              <LongitudeDegrees>-1.65861208923161029815673828125</LongitudeDegrees>
            </Position>
            <AltitudeMeters>641.79998779296875</AltitudeMeters>
            <DistanceMeters>7506.4972512163</DistanceMeters>
          </Trackpoint>
          <Trackpoint>
            <Time>2022-11-06T10:46:51.000Z</Time>
            <Position>
              <LatitudeDegrees>41.3514298014342784881591796875</LatitudeDegrees>
              <LongitudeDegrees>-1.6586252488195896148681640625</LongitudeDegrees>
            </Position>
            <AltitudeMeters>642</AltitudeMeters>
            <DistanceMeters>7508.1838080875</DistanceMeters>
          </Trackpoint>
          <Trackpoint>
            <Time>2022-11-06T10:46:52.000Z</Time>
            <Position>
              <LatitudeDegrees>41.35141731239855289459228515625</LatitudeDegrees>
              <LongitudeDegrees>-1.65863790549337863922119140625</LongitudeDegrees>
            </Position>
            <AltitudeMeters>642.20001220703125</AltitudeMeters>
            <DistanceMeters>7509.9308529748</DistanceMeters>
          </Trackpoint>
          <Trackpoint>
            <Time>2022-11-06T10:46:53.000Z</Time>
            <Position>
              <LatitudeDegrees>41.35140121914446353912353515625</LatitudeDegrees>
              <LongitudeDegrees>-1.65865349583327770233154296875</LongitudeDegrees>
            </Position>
            <AltitudeMeters>642.4000244140625</AltitudeMeters>
            <DistanceMeters>7512.1431597873</DistanceMeters>
          </Trackpoint>
          <Trackpoint>
            <Time>2022-11-06T10:46:54.000Z</Time>
            <Position>
              <LatitudeDegrees>41.35138646699488162994384765625</LatitudeDegrees>
              <LongitudeDegrees>-1.658669002354145050048828125</LongitudeDegrees>
            </Position>
            <AltitudeMeters>642.4000244140625</AltitudeMeters>
            <DistanceMeters>7514.2337475034</DistanceMeters>
          </Trackpoint>
          <Trackpoint>
            <Time>2022-11-06T10:46:55.000Z</Time>
            <Position>
              <LatitudeDegrees>41.3513754867017269134521484375</LatitudeDegrees>
              <LongitudeDegrees>-1.6586812399327754974365234375</LongitudeDegrees>
            </Position>
            <AltitudeMeters>642.5999755859375</AltitudeMeters>
            <DistanceMeters>7515.8266855062</DistanceMeters>
          </Trackpoint>
          <Trackpoint>
            <Time>2022-11-06T10:46:56.000Z</Time>
            <Position>
              <LatitudeDegrees>41.351357214152812957763671875</LatitudeDegrees>
              <LongitudeDegrees>-1.6587023623287677764892578125</LongitudeDegrees>
            </Position>
            <AltitudeMeters>642.79998779296875</AltitudeMeters>
            <DistanceMeters>7518.5211578963</DistanceMeters>
          </Trackpoint>
          <Trackpoint>
            <Time>2022-11-06T10:46:57.000Z</Time>
            <Position>
              <LatitudeDegrees>41.35134539566934108734130859375</LatitudeDegrees>
              <LongitudeDegrees>-1.658721975982189178466796875</LongitudeDegrees>
            </Position>
            <AltitudeMeters>643.20001220703125</AltitudeMeters>
            <DistanceMeters>7520.6246638881</DistanceMeters>
          </Trackpoint>
          <Trackpoint>
            <Time>2022-11-06T10:46:58.000Z</Time>
            <Position>
              <LatitudeDegrees>41.35133676230907440185546875</LatitudeDegrees>
              <LongitudeDegrees>-1.658739745616912841796875</LongitudeDegrees>
            </Position>
            <AltitudeMeters>643.4000244140625</AltitudeMeters>
            <DistanceMeters>7522.3922629517</DistanceMeters>
          </Trackpoint>
          <Trackpoint>
            <Time>2022-11-06T10:46:59.000Z</Time>
            <Position>
              <LatitudeDegrees>41.35132393799722194671630859375</LatitudeDegrees>
              <LongitudeDegrees>-1.6587617062032222747802734375</LongitudeDegrees>
            </Position>
            <AltitudeMeters>643.5999755859375</AltitudeMeters>
            <DistanceMeters>7524.7160498855</DistanceMeters>
          </Trackpoint>
          <Trackpoint>
            <Time>2022-11-06T10:47:00.000Z</Time>
            <Position>
              <LatitudeDegrees>41.35131186805665493011474609375</LatitudeDegrees>
              <LongitudeDegrees>-1.658778972923755645751953125</LongitudeDegrees>
            </Position>
            <AltitudeMeters>643.5999755859375</AltitudeMeters>
            <DistanceMeters>7526.686565775</DistanceMeters>
          </Trackpoint>
          <Trackpoint>
            <Time>2022-11-06T10:47:01.000Z</Time>
            <Position>
              <LatitudeDegrees>41.35130030103027820587158203125</LatitudeDegrees>
              <LongitudeDegrees>-1.6587969101965427398681640625</LongitudeDegrees>
            </Position>
            <AltitudeMeters>643.79998779296875</AltitudeMeters>
            <DistanceMeters>7528.6616589434</DistanceMeters>
          </Trackpoint>
          <Trackpoint>
            <Time>2022-11-06T10:47:02.000Z</Time>
            <Position>
              <LatitudeDegrees>41.351288817822933197021484375</LatitudeDegrees>
              <LongitudeDegrees>-1.658815182745456695556640625</LongitudeDegrees>
            </Position>
            <AltitudeMeters>643.79998779296875</AltitudeMeters>
            <DistanceMeters>7530.6504207397</DistanceMeters>
          </Trackpoint>
          <Trackpoint>
            <Time>2022-11-06T10:47:03.000Z</Time>
            <Position>
              <LatitudeDegrees>41.35128043591976165771484375</LatitudeDegrees>
              <LongitudeDegrees>-1.6588324494659900665283203125</LongitudeDegrees>
            </Position>
            <AltitudeMeters>644</AltitudeMeters>
            <DistanceMeters>7532.3661727383</DistanceMeters>
          </Trackpoint>
          <Trackpoint>
            <Time>2022-11-06T10:47:04.000Z</Time>
            <Position>
              <LatitudeDegrees>41.35126979090273380279541015625</LatitudeDegrees>
              <LongitudeDegrees>-1.65885348804295063018798828125</LongitudeDegrees>
            </Position>
            <AltitudeMeters>644</AltitudeMeters>
            <DistanceMeters>7534.4846504919</DistanceMeters>
          </Trackpoint>
          <Trackpoint>
            <Time>2022-11-06T10:47:05.000Z</Time>
            <Position>
              <LatitudeDegrees>41.35126040317118167877197265625</LatitudeDegrees>
              <LongitudeDegrees>-1.658873520791530609130859375</LongitudeDegrees>
            </Position>
            <AltitudeMeters>644.20001220703125</AltitudeMeters>
            <DistanceMeters>7536.4551663815</DistanceMeters>
          </Trackpoint>
          <Trackpoint>
            <Time>2022-11-06T10:47:06.000Z</Time>
            <Position>
              <LatitudeDegrees>41.35125051252543926239013671875</LatitudeDegrees>
              <LongitudeDegrees>-1.65889740921556949615478515625</LongitudeDegrees>
            </Position>
            <AltitudeMeters>644.4000244140625</AltitudeMeters>
            <DistanceMeters>7538.7358075263</DistanceMeters>
          </Trackpoint>
          <Trackpoint>
            <Time>2022-11-06T10:47:07.000Z</Time>
            <Position>
              <LatitudeDegrees>41.35124213062226772308349609375</LatitudeDegrees>
              <LongitudeDegrees>-1.6589219681918621063232421875</LongitudeDegrees>
            </Position>
            <AltitudeMeters>644.5999755859375</AltitudeMeters>
            <DistanceMeters>7540.9885620539</DistanceMeters>
          </Trackpoint>
          <Trackpoint>
            <Time>2022-11-06T10:47:08.000Z</Time>
            <Position>
              <LatitudeDegrees>41.35123056359589099884033203125</LatitudeDegrees>
              <LongitudeDegrees>-1.658958680927753448486328125</LongitudeDegrees>
            </Position>
            <AltitudeMeters>644.5999755859375</AltitudeMeters>
            <DistanceMeters>7544.3158543044</DistanceMeters>
          </Trackpoint>
          <Trackpoint>
            <Time>2022-11-06T10:47:09.000Z</Time>
            <Position>
              <LatitudeDegrees>41.35121966712176799774169921875</LatitudeDegrees>
              <LongitudeDegrees>-1.6589937172830104827880859375</LongitudeDegrees>
            </Position>
            <AltitudeMeters>644.5999755859375</AltitudeMeters>
            <DistanceMeters>7547.4846782196</DistanceMeters>
          </Trackpoint>
          <Trackpoint>
            <Time>2022-11-06T10:47:10.000Z</Time>
            <Position>
              <LatitudeDegrees>41.35120776481926441192626953125</LatitudeDegrees>
              <LongitudeDegrees>-1.65903286077082157135009765625</LongitudeDegrees>
            </Position>
            <AltitudeMeters>644.5999755859375</AltitudeMeters>
            <DistanceMeters>7551.0147639824</DistanceMeters>
          </Trackpoint>
          <Trackpoint>
            <Time>2022-11-06T10:47:11.000Z</Time>
            <Position>
              <LatitudeDegrees>41.35119670070707798004150390625</LatitudeDegrees>
              <LongitudeDegrees>-1.65907393209636211395263671875</LongitudeDegrees>
            </Position>
            <AltitudeMeters>644.5999755859375</AltitudeMeters>
            <DistanceMeters>7554.6606208811</DistanceMeters>
          </Trackpoint>
          <Trackpoint>
            <Time>2022-11-06T10:47:12.000Z</Time>
            <Position>
              <LatitudeDegrees>41.351187229156494140625</LatitudeDegrees>
              <LongitudeDegrees>-1.65910930372774600982666015625</LongitudeDegrees>
            </Position>
            <AltitudeMeters>644.5999755859375</AltitudeMeters>
            <DistanceMeters>7557.7979419236</DistanceMeters>
          </Trackpoint>
          <Trackpoint>
            <Time>2022-11-06T10:47:13.000Z</Time>
            <Position>
              <LatitudeDegrees>41.35117490775883197784423828125</LatitudeDegrees>
              <LongitudeDegrees>-1.659171245992183685302734375</LongitudeDegrees>
            </Position>
            <AltitudeMeters>644.5999755859375</AltitudeMeters>
            <DistanceMeters>7563.1507386278</DistanceMeters>
          </Trackpoint>
          <Trackpoint>
            <Time>2022-11-06T10:47:14.000Z</Time>
            <Position>
              <LatitudeDegrees>41.35116836987435817718505859375</LatitudeDegrees>
              <LongitudeDegrees>-1.6592203639447689056396484375</LongitudeDegrees>
            </Position>
            <AltitudeMeters>644.4000244140625</AltitudeMeters>
            <DistanceMeters>7567.3178523774</DistanceMeters>
          </Trackpoint>
          <Trackpoint>
            <Time>2022-11-06T10:47:15.000Z</Time>
            <Position>
              <LatitudeDegrees>41.351164765655994415283203125</LatitudeDegrees>
              <LongitudeDegrees>-1.659254729747772216796875</LongitudeDegrees>
            </Position>
            <AltitudeMeters>644.4000244140625</AltitudeMeters>
            <DistanceMeters>7570.2157776858</DistanceMeters>
          </Trackpoint>
          <Trackpoint>
            <Time>2022-11-06T10:47:16.000Z</Time>
            <Position>
              <LatitudeDegrees>41.35115898214280605316162109375</LatitudeDegrees>
              <LongitudeDegrees>-1.65930577553808689117431640625</LongitudeDegrees>
            </Position>
            <AltitudeMeters>644.4000244140625</AltitudeMeters>
            <DistanceMeters>7574.5287763496</DistanceMeters>
          </Trackpoint>
          <Trackpoint>
            <Time>2022-11-06T10:47:17.000Z</Time>
            <Position>
              <LatitudeDegrees>41.35115479119122028350830078125</LatitudeDegrees>
              <LongitudeDegrees>-1.6593467630445957183837890625</LongitudeDegrees>
            </Position>
            <AltitudeMeters>644.5999755859375</AltitudeMeters>
            <DistanceMeters>7577.9838828688</DistanceMeters>
          </Trackpoint>
          <Trackpoint>
            <Time>2022-11-06T10:47:18.000Z</Time>
            <Position>
              <LatitudeDegrees>41.351156048476696014404296875</LatitudeDegrees>
              <LongitudeDegrees>-1.65938540361821651458740234375</LongitudeDegrees>
            </Position>
            <AltitudeMeters>644.5999755859375</AltitudeMeters>
            <DistanceMeters>7581.2147911574</DistanceMeters>
          </Trackpoint>
          <Trackpoint>
            <Time>2022-11-06T10:47:19.000Z</Time>
            <Position>
              <LatitudeDegrees>41.35115428827702999114990234375</LatitudeDegrees>
              <LongitudeDegrees>-1.659423373639583587646484375</LongitudeDegrees>
            </Position>
            <AltitudeMeters>645</AltitudeMeters>
            <DistanceMeters>7584.3935732419</DistanceMeters>
          </Trackpoint>
          <Trackpoint>
            <Time>2022-11-06T10:47:20.000Z</Time>
            <Position>
              <LatitudeDegrees>41.3511510193347930908203125</LatitudeDegrees>
              <LongitudeDegrees>-1.6594545543193817138671875</LongitudeDegrees>
            </Position>
            <AltitudeMeters>645</AltitudeMeters>
            <DistanceMeters>7587.0235995832</DistanceMeters>
          </Trackpoint>
          <Trackpoint>
            <Time>2022-11-06T10:47:21.000Z</Time>
            <Position>
              <LatitudeDegrees>41.351147331297397613525390625</LatitudeDegrees>
              <LongitudeDegrees>-1.6594822145998477935791015625</LongitudeDegrees>
            </Position>
            <AltitudeMeters>645.20001220703125</AltitudeMeters>
            <DistanceMeters>7589.3705862962</DistanceMeters>
          </Trackpoint>
          <Trackpoint>
            <Time>2022-11-06T10:47:22.000Z</Time>
            <Position>
              <LatitudeDegrees>41.3511438108980655670166015625</LatitudeDegrees>
              <LongitudeDegrees>-1.65950308553874492645263671875</LongitudeDegrees>
            </Position>
            <AltitudeMeters>645.4000244140625</AltitudeMeters>
            <DistanceMeters>7591.1585032577</DistanceMeters>
          </Trackpoint>
          <Trackpoint>
            <Time>2022-11-06T10:47:23.000Z</Time>
            <Position>
              <LatitudeDegrees>41.35114322416484355926513671875</LatitudeDegrees>
              <LongitudeDegrees>-1.65953007526695728302001953125</LongitudeDegrees>
            </Position>
            <AltitudeMeters>646</AltitudeMeters>
            <DistanceMeters>7593.4152626853</DistanceMeters>
          </Trackpoint>
          <Trackpoint>
            <Time>2022-11-06T10:47:24.000Z</Time>
            <Position>
              <LatitudeDegrees>41.3511454872786998748779296875</LatitudeDegrees>
              <LongitudeDegrees>-1.65956226177513599395751953125</LongitudeDegrees>
            </Position>
            <AltitudeMeters>646.20001220703125</AltitudeMeters>
            <DistanceMeters>7596.1164294271</DistanceMeters>
          </Trackpoint>
          <Trackpoint>
            <Time>2022-11-06T10:47:25.000Z</Time>
            <Position>
              <LatitudeDegrees>41.35114473290741443634033203125</LatitudeDegrees>
              <LongitudeDegrees>-1.65958539582788944244384765625</LongitudeDegrees>
            </Position>
            <AltitudeMeters>646.4000244140625</AltitudeMeters>
            <DistanceMeters>7598.0499370293</DistanceMeters>
          </Trackpoint>
          <Trackpoint>
            <Time>2022-11-06T10:47:26.000Z</Time>
            <Position>
              <LatitudeDegrees>41.35114364326000213623046875</LatitudeDegrees>
              <LongitudeDegrees>-1.659607104957103729248046875</LongitudeDegrees>
            </Position>
            <AltitudeMeters>647</AltitudeMeters>
            <DistanceMeters>7599.8679051199</DistanceMeters>
          </Trackpoint>
          <Trackpoint>
            <Time>2022-11-06T10:47:27.000Z</Time>
            <Position>
              <LatitudeDegrees>41.35114272125065326690673828125</LatitudeDegrees>
              <LongitudeDegrees>-1.65963300503790378570556640625</LongitudeDegrees>
            </Position>
            <AltitudeMeters>647.20001220703125</AltitudeMeters>
            <DistanceMeters>7602.0327630077</DistanceMeters>
          </Trackpoint>
          <Trackpoint>
            <Time>2022-11-06T10:47:28.000Z</Time>
            <Position>
              <LatitudeDegrees>41.35114221833646297454833984375</LatitudeDegrees>
              <LongitudeDegrees>-1.659660078585147857666015625</LongitudeDegrees>
            </Position>
            <AltitudeMeters>647.5999755859375</AltitudeMeters>
            <DistanceMeters>7604.2975109893</DistanceMeters>
          </Trackpoint>
          <Trackpoint>
            <Time>2022-11-06T10:47:29.000Z</Time>
            <Position>
              <LatitudeDegrees>41.35113936848938465118408203125</LatitudeDegrees>
              <LongitudeDegrees>-1.65968187153339385986328125</LongitudeDegrees>
            </Position>
            <AltitudeMeters>648</AltitudeMeters>
            <DistanceMeters>7606.1474836843</DistanceMeters>
          </Trackpoint>
          <Trackpoint>
            <Time>2022-11-06T10:47:30.000Z</Time>
            <Position>
              <LatitudeDegrees>41.35113819502294063568115234375</LatitudeDegrees>
              <LongitudeDegrees>-1.65970726870000362396240234375</LongitudeDegrees>
            </Position>
            <AltitudeMeters>648.20001220703125</AltitudeMeters>
            <DistanceMeters>7608.274469415</DistanceMeters>
          </Trackpoint>
          <Trackpoint>
            <Time>2022-11-06T10:47:31.000Z</Time>
            <Position>
              <LatitudeDegrees>41.3511397875845432281494140625</LatitudeDegrees>
              <LongitudeDegrees>-1.65972411632537841796875</LongitudeDegrees>
            </Position>
            <AltitudeMeters>648.4000244140625</AltitudeMeters>
            <DistanceMeters>7609.6903355706</DistanceMeters>
          </Trackpoint>
          <Trackpoint>
            <Time>2022-11-06T10:47:32.000Z</Time>
            <Position>
              <LatitudeDegrees>41.3511411286890506744384765625</LatitudeDegrees>
              <LongitudeDegrees>-1.65974884293973445892333984375</LongitudeDegrees>
            </Position>
            <AltitudeMeters>648.5999755859375</AltitudeMeters>
            <DistanceMeters>7611.761394795</DistanceMeters>
          </Trackpoint>
          <Trackpoint>
            <Time>2022-11-06T10:47:33.000Z</Time>
            <Position>
              <LatitudeDegrees>41.3511464931070804595947265625</LatitudeDegrees>
              <LongitudeDegrees>-1.659772396087646484375</LongitudeDegrees>
            </Position>
            <AltitudeMeters>648.79998779296875</AltitudeMeters>
            <DistanceMeters>7613.8171369422</DistanceMeters>
          </Trackpoint>
          <Trackpoint>
            <Time>2022-11-06T10:47:34.000Z</Time>
            <Position>
              <LatitudeDegrees>41.3511498458683490753173828125</LatitudeDegrees>
              <LongitudeDegrees>-1.65979745797812938690185546875</LongitudeDegrees>
            </Position>
            <AltitudeMeters>649</AltitudeMeters>
            <DistanceMeters>7615.9462443549</DistanceMeters>
          </Trackpoint>
          <Trackpoint>
            <Time>2022-11-06T10:47:35.000Z</Time>
            <Position>
              <LatitudeDegrees>41.3511508516967296600341796875</LatitudeDegrees>
              <LongitudeDegrees>-1.65981464087963104248046875</LongitudeDegrees>
            </Position>
            <AltitudeMeters>649</AltitudeMeters>
            <DistanceMeters>7617.3873958327</DistanceMeters>
          </Trackpoint>
          <Trackpoint>
            <Time>2022-11-06T10:47:36.000Z</Time>
            <Position>
              <LatitudeDegrees>41.35115277953445911407470703125</LatitudeDegrees>
              <LongitudeDegrees>-1.65984590537846088409423828125</LongitudeDegrees>
            </Position>
            <AltitudeMeters>649</AltitudeMeters>
            <DistanceMeters>7620.008824484</DistanceMeters>
          </Trackpoint>
          <Trackpoint>
            <Time>2022-11-06T10:47:37.000Z</Time>
            <Position>
              <LatitudeDegrees>41.3511538691818714141845703125</LatitudeDegrees>
              <LongitudeDegrees>-1.6598697938024997711181640625</LongitudeDegrees>
            </Position>
            <AltitudeMeters>649.20001220703125</AltitudeMeters>
            <DistanceMeters>7622.0066467454</DistanceMeters>
          </Trackpoint>
          <Trackpoint>
            <Time>2022-11-06T10:47:38.000Z</Time>
            <Position>
              <LatitudeDegrees>41.35115814395248889923095703125</LatitudeDegrees>
              <LongitudeDegrees>-1.65990315377712249755859375</LongitudeDegrees>
            </Position>
            <AltitudeMeters>649.5999755859375</AltitudeMeters>
            <DistanceMeters>7624.8319940827</DistanceMeters>
          </Trackpoint>
          <Trackpoint>
            <Time>2022-11-06T10:47:39.000Z</Time>
            <Position>
              <LatitudeDegrees>41.35116183198988437652587890625</LatitudeDegrees>
              <LongitudeDegrees>-1.659925617277622222900390625</LongitudeDegrees>
            </Position>
            <AltitudeMeters>649.5999755859375</AltitudeMeters>
            <DistanceMeters>7626.753790447</DistanceMeters>
          </Trackpoint>
          <Trackpoint>
            <Time>2022-11-06T10:47:40.000Z</Time>
            <Position>
              <LatitudeDegrees>41.351168453693389892578125</LatitudeDegrees>
              <LongitudeDegrees>-1.6599534451961517333984375</LongitudeDegrees>
            </Position>
            <AltitudeMeters>649.79998779296875</AltitudeMeters>
            <DistanceMeters>7629.1913692252</DistanceMeters>
          </Trackpoint>
          <Trackpoint>
            <Time>2022-11-06T10:47:41.000Z</Time>
            <Position>
              <LatitudeDegrees>41.35117256082594394683837890625</LatitudeDegrees>
              <LongitudeDegrees>-1.6599868051707744598388671875</LongitudeDegrees>
            </Position>
            <AltitudeMeters>650</AltitudeMeters>
            <DistanceMeters>7632.0167165625</DistanceMeters>
          </Trackpoint>
          <Trackpoint>
            <Time>2022-11-06T10:47:42.000Z</Time>
            <Position>
              <LatitudeDegrees>41.3511716388165950775146484375</LatitudeDegrees>
              <LongitudeDegrees>-1.66000784374773502349853515625</LongitudeDegrees>
            </Position>
            <AltitudeMeters>650</AltitudeMeters>
            <DistanceMeters>7633.7740685887</DistanceMeters>
          </Trackpoint>
          <Trackpoint>
            <Time>2022-11-06T10:47:43.000Z</Time>
            <Position>
              <LatitudeDegrees>41.3511736504733562469482421875</LatitudeDegrees>
              <LongitudeDegrees>-1.66002787649631500244140625</LongitudeDegrees>
            </Position>
            <AltitudeMeters>650.20001220703125</AltitudeMeters>
            <DistanceMeters>7635.4606254599</DistanceMeters>
          </Trackpoint>
          <Trackpoint>
            <Time>2022-11-06T10:47:44.000Z</Time>
            <Position>
              <LatitudeDegrees>41.3511780090630054473876953125</LatitudeDegrees>
              <LongitudeDegrees>-1.6600471548736095428466796875</LongitudeDegrees>
            </Position>
            <AltitudeMeters>650.20001220703125</AltitudeMeters>
            <DistanceMeters>7637.1418196566</DistanceMeters>
          </Trackpoint>
          <Trackpoint>
            <Time>2022-11-06T10:47:45.000Z</Time>
            <Position>
              <LatitudeDegrees>41.35118194855749607086181640625</LatitudeDegrees>
              <LongitudeDegrees>-1.66007238440215587615966796875</LongitudeDegrees>
            </Position>
            <AltitudeMeters>650.20001220703125</AltitudeMeters>
            <DistanceMeters>7639.2962242825</DistanceMeters>
          </Trackpoint>
          <Trackpoint>
            <Time>2022-11-06T10:47:46.000Z</Time>
            <Position>
              <LatitudeDegrees>41.35118831880390644073486328125</LatitudeDegrees>
              <LongitudeDegrees>-1.6601048223674297332763671875</LongitudeDegrees>
            </Position>
            <AltitudeMeters>650.4000244140625</AltitudeMeters>
            <DistanceMeters>7642.0991096719</DistanceMeters>
          </Trackpoint>
          <Trackpoint>
            <Time>2022-11-06T10:47:47.000Z</Time>
            <Position>
              <LatitudeDegrees>41.35118982754647731781005859375</LatitudeDegrees>
              <LongitudeDegrees>-1.66013122536242008209228515625</LongitudeDegrees>
            </Position>
            <AltitudeMeters>650.4000244140625</AltitudeMeters>
            <DistanceMeters>7644.3114164844</DistanceMeters>
          </Trackpoint>
          <Trackpoint>
            <Time>2022-11-06T10:47:48.000Z</Time>
            <Position>
              <LatitudeDegrees>41.35118865408003330230712890625</LatitudeDegrees>
              <LongitudeDegrees>-1.66016894392669200897216796875</LongitudeDegrees>
            </Position>
            <AltitudeMeters>650.4000244140625</AltitudeMeters>
            <DistanceMeters>7647.4659599128</DistanceMeters>
          </Trackpoint>
          <Trackpoint>
            <Time>2022-11-06T10:47:49.000Z</Time>
            <Position>
              <LatitudeDegrees>41.351191587746143341064453125</LatitudeDegrees>
              <LongitudeDegrees>-1.6602060757577419281005859375</LongitudeDegrees>
            </Position>
            <AltitudeMeters>650.5999755859375</AltitudeMeters>
            <DistanceMeters>7650.5859635036</DistanceMeters>
          </Trackpoint>
          <Trackpoint>
            <Time>2022-11-06T10:47:50.000Z</Time>
            <Position>
              <LatitudeDegrees>41.35119318030774593353271484375</LatitudeDegrees>
              <LongitudeDegrees>-1.66024505160748958587646484375</LongitudeDegrees>
            </Position>
            <AltitudeMeters>650.5999755859375</AltitudeMeters>
            <DistanceMeters>7653.8447009735</DistanceMeters>
          </Trackpoint>
          <Trackpoint>
            <Time>2022-11-06T10:47:51.000Z</Time>
            <Position>
              <LatitudeDegrees>41.35119326412677764892578125</LatitudeDegrees>
              <LongitudeDegrees>-1.66027254424989223480224609375</LongitudeDegrees>
            </Position>
            <AltitudeMeters>650.79998779296875</AltitudeMeters>
            <DistanceMeters>7656.1411252904</DistanceMeters>
          </Trackpoint>
          <Trackpoint>
            <Time>2022-11-06T10:47:52.000Z</Time>
            <Position>
              <LatitudeDegrees>41.35119594633579254150390625</LatitudeDegrees>
              <LongitudeDegrees>-1.66030540131032466888427734375</LongitudeDegrees>
            </Position>
            <AltitudeMeters>650.79998779296875</AltitudeMeters>
            <DistanceMeters>7658.9018108065</DistanceMeters>
          </Trackpoint>
          <Trackpoint>
            <Time>2022-11-06T10:47:53.000Z</Time>
            <Position>
              <LatitudeDegrees>41.35119854472577571868896484375</LatitudeDegrees>
              <LongitudeDegrees>-1.66034630499780178070068359375</LongitudeDegrees>
            </Position>
            <AltitudeMeters>651</AltitudeMeters>
            <DistanceMeters>7662.3306822725</DistanceMeters>
          </Trackpoint>
          <Trackpoint>
            <Time>2022-11-06T10:47:54.000Z</Time>
            <Position>
              <LatitudeDegrees>41.35120131075382232666015625</LatitudeDegrees>
              <LongitudeDegrees>-1.6603841073811054229736328125</LongitudeDegrees>
            </Position>
            <AltitudeMeters>651.20001220703125</AltitudeMeters>
            <DistanceMeters>7665.5037778013</DistanceMeters>
          </Trackpoint>
          <Trackpoint>
            <Time>2022-11-06T10:47:55.000Z</Time>
            <Position>
              <LatitudeDegrees>41.35120558552443981170654296875</LatitudeDegrees>
              <LongitudeDegrees>-1.660416126251220703125</LongitudeDegrees>
            </Position>
            <AltitudeMeters>651.4000244140625</AltitudeMeters>
            <DistanceMeters>7668.2216082837</DistanceMeters>
          </Trackpoint>
          <Trackpoint>
            <Time>2022-11-06T10:47:56.000Z</Time>
            <Position>
              <LatitudeDegrees>41.3512115366756916046142578125</LatitudeDegrees>
              <LongitudeDegrees>-1.66045300662517547607421875</LongitudeDegrees>
            </Position>
            <AltitudeMeters>651.5999755859375</AltitudeMeters>
            <DistanceMeters>7671.376151712</DistanceMeters>
          </Trackpoint>
          <Trackpoint>
            <Time>2022-11-06T10:47:57.000Z</Time>
            <Position>
              <LatitudeDegrees>41.3512202538549900054931640625</LatitudeDegrees>
              <LongitudeDegrees>-1.66049667634069919586181640625</LongitudeDegrees>
            </Position>
            <AltitudeMeters>651.5999755859375</AltitudeMeters>
            <DistanceMeters>7675.1509974875</DistanceMeters>
          </Trackpoint>
          <Trackpoint>
            <Time>2022-11-06T10:47:58.000Z</Time>
            <Position>
              <LatitudeDegrees>41.35122536681592464447021484375</LatitudeDegrees>
              <LongitudeDegrees>-1.66052551008760929107666015625</LongitudeDegrees>
            </Position>
            <AltitudeMeters>651.5999755859375</AltitudeMeters>
            <DistanceMeters>7677.6253442354</DistanceMeters>
          </Trackpoint>
          <Trackpoint>
            <Time>2022-11-06T10:47:59.000Z</Time>
            <Position>
              <LatitudeDegrees>41.35123743675649166107177734375</LatitudeDegrees>
              <LongitudeDegrees>-1.66056741960346698760986328125</LongitudeDegrees>
            </Position>
            <AltitudeMeters>651.79998779296875</AltitudeMeters>
            <DistanceMeters>7681.3761920195</DistanceMeters>
          </Trackpoint>
          <Trackpoint>
            <Time>2022-11-06T10:48:00.000Z</Time>
            <Position>
              <LatitudeDegrees>41.35124850086867809295654296875</LatitudeDegrees>
              <LongitudeDegrees>-1.660600863397121429443359375</LongitudeDegrees>
            </Position>
            <AltitudeMeters>651.79998779296875</AltitudeMeters>
            <DistanceMeters>7684.428902109</DistanceMeters>
          </Trackpoint>
          <Trackpoint>
            <Time>2022-11-06T10:48:01.000Z</Time>
            <Position>
              <LatitudeDegrees>41.35125587694346904754638671875</LatitudeDegrees>
              <LongitudeDegrees>-1.66062869131565093994140625</LongitudeDegrees>
            </Position>
            <AltitudeMeters>652</AltitudeMeters>
            <DistanceMeters>7686.89227609</DistanceMeters>
          </Trackpoint>
          <Trackpoint>
            <Time>2022-11-06T10:48:02.000Z</Time>
            <Position>
              <LatitudeDegrees>41.35126258246600627899169921875</LatitudeDegrees>
              <LongitudeDegrees>-1.6606533341109752655029296875</LongitudeDegrees>
            </Position>
            <AltitudeMeters>652.20001220703125</AltitudeMeters>
            <DistanceMeters>7689.0799553433</DistanceMeters>
          </Trackpoint>
          <Trackpoint>
            <Time>2022-11-06T10:48:03.000Z</Time>
            <Position>
              <LatitudeDegrees>41.3512718863785266876220703125</LatitudeDegrees>
              <LongitudeDegrees>-1.66067755781114101409912109375</LongitudeDegrees>
            </Position>
            <AltitudeMeters>652.4000244140625</AltitudeMeters>
            <DistanceMeters>7691.3526637993</DistanceMeters>
          </Trackpoint>
          <Trackpoint>
            <Time>2022-11-06T10:48:04.000Z</Time>
            <Position>
              <LatitudeDegrees>41.3512837886810302734375</LatitudeDegrees>
              <LongitudeDegrees>-1.66070287115871906280517578125</LongitudeDegrees>
            </Position>
            <AltitudeMeters>652.5999755859375</AltitudeMeters>
            <DistanceMeters>7693.8488113803</DistanceMeters>
          </Trackpoint>
          <Trackpoint>
            <Time>2022-11-06T10:48:05.000Z</Time>
            <Position>
              <LatitudeDegrees>41.3512958586215972900390625</LatitudeDegrees>
              <LongitudeDegrees>-1.6607224009931087493896484375</LongitudeDegrees>
            </Position>
            <AltitudeMeters>653</AltitudeMeters>
            <DistanceMeters>7695.9651567955</DistanceMeters>
          </Trackpoint>
          <Trackpoint>
            <Time>2022-11-06T10:48:06.000Z</Time>
            <Position>
              <LatitudeDegrees>41.351304240524768829345703125</LatitudeDegrees>
              <LongitudeDegrees>-1.6607344709336757659912109375</LongitudeDegrees>
            </Position>
            <AltitudeMeters>653.20001220703125</AltitudeMeters>
            <DistanceMeters>7697.3389420686</DistanceMeters>
          </Trackpoint>
          <Trackpoint>
            <Time>2022-11-06T10:48:07.000Z</Time>
            <Position>
              <LatitudeDegrees>41.35132444091141223907470703125</LatitudeDegrees>
              <LongitudeDegrees>-1.66074126027524471282958984375</LongitudeDegrees>
            </Position>
            <AltitudeMeters>653.5999755859375</AltitudeMeters>
            <DistanceMeters>7699.6568927765</DistanceMeters>
          </Trackpoint>
          <Trackpoint>
            <Time>2022-11-06T10:48:08.000Z</Time>
            <Position>
              <LatitudeDegrees>41.35133584029972553253173828125</LatitudeDegrees>
              <LongitudeDegrees>-1.66072634048759937286376953125</LongitudeDegrees>
            </Position>
            <AltitudeMeters>653.5999755859375</AltitudeMeters>
            <DistanceMeters>7701.4346798153</DistanceMeters>
          </Trackpoint>
          <Trackpoint>
            <Time>2022-11-06T10:48:09.000Z</Time>
            <Position>
              <LatitudeDegrees>41.35134003125131130218505859375</LatitudeDegrees>
              <LongitudeDegrees>-1.66070379316806793212890625</LongitudeDegrees>
            </Position>
            <AltitudeMeters>653.5999755859375</AltitudeMeters>
            <DistanceMeters>7703.3775055804</DistanceMeters>
          </Trackpoint>
          <Trackpoint>
            <Time>2022-11-06T10:48:10.000Z</Time>
            <Position>
              <LatitudeDegrees>41.35134975425899028778076171875</LatitudeDegrees>
              <LongitudeDegrees>-1.66065551340579986572265625</LongitudeDegrees>
            </Position>
            <AltitudeMeters>653.5999755859375</AltitudeMeters>
            <DistanceMeters>7707.5543593832</DistanceMeters>
          </Trackpoint>
          <Trackpoint>
            <Time>2022-11-06T10:48:11.000Z</Time>
            <Position>
              <LatitudeDegrees>41.3513548672199249267578125</LatitudeDegrees>
              <LongitudeDegrees>-1.660602204501628875732421875</LongitudeDegrees>
            </Position>
            <AltitudeMeters>653.5999755859375</AltitudeMeters>
            <DistanceMeters>7712.0458169168</DistanceMeters>
          </Trackpoint>
          <Trackpoint>
            <Time>2022-11-06T10:48:12.000Z</Time>
            <Position>
              <LatitudeDegrees>41.35135612450540065765380859375</LatitudeDegrees>
              <LongitudeDegrees>-1.6605569422245025634765625</LongitudeDegrees>
            </Position>
            <AltitudeMeters>652.79998779296875</AltitudeMeters>
            <DistanceMeters>7715.8302192791</DistanceMeters>
          </Trackpoint>
          <Trackpoint>
            <Time>2022-11-06T10:48:13.000Z</Time>
            <Position>
              <LatitudeDegrees>41.351345144212245941162109375</LatitudeDegrees>
              <LongitudeDegrees>-1.66047639213502407073974609375</LongitudeDegrees>
            </Position>
            <AltitudeMeters>652.4000244140625</AltitudeMeters>
            <DistanceMeters>7722.670162704</DistanceMeters>
          </Trackpoint>
          <Trackpoint>
            <Time>2022-11-06T10:48:14.000Z</Time>
            <Position>
              <LatitudeDegrees>41.35132309980690479278564453125</LatitudeDegrees>
              <LongitudeDegrees>-1.66040145792067050933837890625</LongitudeDegrees>
            </Position>
            <AltitudeMeters>651.5999755859375</AltitudeMeters>
            <DistanceMeters>7729.3949394908</DistanceMeters>
          </Trackpoint>
          <Trackpoint>
            <Time>2022-11-06T10:48:15.000Z</Time>
            <Position>
              <LatitudeDegrees>41.3513087667524814605712890625</LatitudeDegrees>
              <LongitudeDegrees>-1.6603515855967998504638671875</LongitudeDegrees>
            </Position>
            <AltitudeMeters>650.79998779296875</AltitudeMeters>
            <DistanceMeters>7733.8561375902</DistanceMeters>
          </Trackpoint>
          <Trackpoint>
            <Time>2022-11-06T10:48:16.000Z</Time>
            <Position>
              <LatitudeDegrees>41.3513020612299442291259765625</LatitudeDegrees>
              <LongitudeDegrees>-1.6603026352822780609130859375</LongitudeDegrees>
            </Position>
            <AltitudeMeters>650</AltitudeMeters>
            <DistanceMeters>7738.0134884671</DistanceMeters>
          </Trackpoint>
          <Trackpoint>
            <Time>2022-11-06T10:48:17.000Z</Time>
            <Position>
              <LatitudeDegrees>41.3513094373047351837158203125</LatitudeDegrees>
              <LongitudeDegrees>-1.6602764837443828582763671875</LongitudeDegrees>
            </Position>
            <AltitudeMeters>649.5999755859375</AltitudeMeters>
            <DistanceMeters>7740.3489040987</DistanceMeters>
          </Trackpoint>
          <Trackpoint>
            <Time>2022-11-06T10:48:18.000Z</Time>
            <Position>
              <LatitudeDegrees>41.35132242925465106964111328125</LatitudeDegrees>
              <LongitudeDegrees>-1.660275645554065704345703125</LongitudeDegrees>
            </Position>
            <AltitudeMeters>649.20001220703125</AltitudeMeters>
            <DistanceMeters>7741.8025333113</DistanceMeters>
          </Trackpoint>
          <Trackpoint>
            <Time>2022-11-06T10:48:19.000Z</Time>
            <Position>
              <LatitudeDegrees>41.35134723968803882598876953125</LatitudeDegrees>
              <LongitudeDegrees>-1.6602945886552333831787109375</LongitudeDegrees>
            </Position>
            <AltitudeMeters>648.79998779296875</AltitudeMeters>
            <DistanceMeters>7744.9855736457</DistanceMeters>
          </Trackpoint>
          <Trackpoint>
            <Time>2022-11-06T10:48:20.000Z</Time>
            <Position>
              <LatitudeDegrees>41.35136970318853855133056640625</LatitudeDegrees>
              <LongitudeDegrees>-1.660332642495632171630859375</LongitudeDegrees>
            </Position>
            <AltitudeMeters>648.4000244140625</AltitudeMeters>
            <DistanceMeters>7749.0306321764</DistanceMeters>
          </Trackpoint>
          <Trackpoint>
            <Time>2022-11-06T10:48:21.000Z</Time>
            <Position>
              <LatitudeDegrees>41.3513949327170848846435546875</LatitudeDegrees>
              <LongitudeDegrees>-1.66036273352801799774169921875</LongitudeDegrees>
            </Position>
            <AltitudeMeters>648.20001220703125</AltitudeMeters>
            <DistanceMeters>7752.7994927796</DistanceMeters>
          </Trackpoint>
          <Trackpoint>
            <Time>2022-11-06T10:48:22.000Z</Time>
            <Position>
              <LatitudeDegrees>41.35142636485397815704345703125</LatitudeDegrees>
              <LongitudeDegrees>-1.66036725975573062896728515625</LongitudeDegrees>
            </Position>
            <AltitudeMeters>648</AltitudeMeters>
            <DistanceMeters>7756.3193315374</DistanceMeters>
          </Trackpoint>
          <Trackpoint>
            <Time>2022-11-06T10:48:24.000Z</Time>
            <Position>
              <LatitudeDegrees>41.3514314778149127960205078125</LatitudeDegrees>
              <LongitudeDegrees>-1.66029836051166057586669921875</LongitudeDegrees>
            </Position>
            <AltitudeMeters>647.4000244140625</AltitudeMeters>
            <DistanceMeters>7762.1042657031</DistanceMeters>
          </Trackpoint>
          <Trackpoint>
            <Time>2022-11-06T10:48:25.000Z</Time>
            <Position>
              <LatitudeDegrees>41.35141278617084026336669921875</LatitudeDegrees>
              <LongitudeDegrees>-1.66024706326425075531005859375</LongitudeDegrees>
            </Position>
            <AltitudeMeters>647.20001220703125</AltitudeMeters>
            <DistanceMeters>7766.8688865883</DistanceMeters>
          </Trackpoint>
          <Trackpoint>
            <Time>2022-11-06T10:48:27.000Z</Time>
            <Position>
              <LatitudeDegrees>41.3513842038810253143310546875</LatitudeDegrees>
              <LongitudeDegrees>-1.6601296328008174896240234375</LongitudeDegrees>
            </Position>
            <AltitudeMeters>647</AltitudeMeters>
            <DistanceMeters>7777.1826783503</DistanceMeters>
          </Trackpoint>
          <Trackpoint>
            <Time>2022-11-06T10:48:29.000Z</Time>
            <Position>
              <LatitudeDegrees>41.35137858800590038299560546875</LatitudeDegrees>
              <LongitudeDegrees>-1.66005495004355907440185546875</LongitudeDegrees>
            </Position>
            <AltitudeMeters>647</AltitudeMeters>
            <DistanceMeters>7783.4544414987</DistanceMeters>
          </Trackpoint>
          <Trackpoint>
            <Time>2022-11-06T10:48:30.000Z</Time>
            <Position>
              <LatitudeDegrees>41.35140121914446353912353515625</LatitudeDegrees>
              <LongitudeDegrees>-1.66006316430866718292236328125</LongitudeDegrees>
            </Position>
            <AltitudeMeters>647</AltitudeMeters>
            <DistanceMeters>7786.0637857916</DistanceMeters>
          </Trackpoint>
          <Trackpoint>
            <Time>2022-11-06T10:48:31.000Z</Time>
            <Position>
              <LatitudeDegrees>41.3514217548072338104248046875</LatitudeDegrees>
              <LongitudeDegrees>-1.66009400971233844757080078125</LongitudeDegrees>
            </Position>
            <AltitudeMeters>646.5999755859375</AltitudeMeters>
            <DistanceMeters>7789.5057997797</DistanceMeters>
          </Trackpoint>
          <Trackpoint>
            <Time>2022-11-06T10:48:32.000Z</Time>
            <Position>
              <LatitudeDegrees>41.35143893770873546600341796875</LatitudeDegrees>
              <LongitudeDegrees>-1.660135500133037567138671875</LongitudeDegrees>
            </Position>
            <AltitudeMeters>646</AltitudeMeters>
            <DistanceMeters>7793.4651195075</DistanceMeters>
          </Trackpoint>
          <Trackpoint>
            <Time>2022-11-06T10:48:34.000Z</Time>
            <Position>
              <LatitudeDegrees>41.35147632099688053131103515625</LatitudeDegrees>
              <LongitudeDegrees>-1.66023935191333293914794921875</LongitudeDegrees>
            </Position>
            <AltitudeMeters>645.5999755859375</AltitudeMeters>
            <DistanceMeters>7803.0886564877</DistanceMeters>
          </Trackpoint>
          <Trackpoint>
            <Time>2022-11-06T10:48:35.000Z</Time>
            <Position>
              <LatitudeDegrees>41.3515012152493000030517578125</LatitudeDegrees>
              <LongitudeDegrees>-1.6602882184088230133056640625</LongitudeDegrees>
            </Position>
            <AltitudeMeters>645.5999755859375</AltitudeMeters>
            <DistanceMeters>7808.022730473</DistanceMeters>
          </Trackpoint>
          <Trackpoint>
            <Time>2022-11-06T10:48:36.000Z</Time>
            <Position>
              <LatitudeDegrees>41.35153616778552532196044921875</LatitudeDegrees>
              <LongitudeDegrees>-1.6603284515440464019775390625</LongitudeDegrees>
            </Position>
            <AltitudeMeters>645.5999755859375</AltitudeMeters>
            <DistanceMeters>7813.1647207325</DistanceMeters>
          </Trackpoint>
          <Trackpoint>
            <Time>2022-11-06T10:48:38.000Z</Time>
            <Position>
              <LatitudeDegrees>41.35161847807466983795166015625</LatitudeDegrees>
              <LongitudeDegrees>-1.66034630499780178070068359375</LongitudeDegrees>
            </Position>
            <AltitudeMeters>645.4000244140625</AltitudeMeters>
            <DistanceMeters>7822.4472305993</DistanceMeters>
          </Trackpoint>
          <Trackpoint>
            <Time>2022-11-06T10:48:39.000Z</Time>
            <Position>
              <LatitudeDegrees>41.35164295323193073272705078125</LatitudeDegrees>
              <LongitudeDegrees>-1.66031914763152599334716796875</LongitudeDegrees>
            </Position>
            <AltitudeMeters>645.4000244140625</AltitudeMeters>
            <DistanceMeters>7825.9926313397</DistanceMeters>
          </Trackpoint>
          <Trackpoint>
            <Time>2022-11-06T10:48:40.000Z</Time>
            <Position>
              <LatitudeDegrees>41.35164278559386730194091796875</LatitudeDegrees>
              <LongitudeDegrees>-1.66027061641216278076171875</LongitudeDegrees>
            </Position>
            <AltitudeMeters>645.4000244140625</AltitudeMeters>
            <DistanceMeters>7830.0477231025</DistanceMeters>
          </Trackpoint>
          <Trackpoint>
            <Time>2022-11-06T10:48:41.000Z</Time>
            <Position>
              <LatitudeDegrees>41.351619064807891845703125</LatitudeDegrees>
              <LongitudeDegrees>-1.6602131165564060211181640625</LongitudeDegrees>
            </Position>
            <AltitudeMeters>644.5999755859375</AltitudeMeters>
            <DistanceMeters>7835.5297021617</DistanceMeters>
          </Trackpoint>
          <Trackpoint>
            <Time>2022-11-06T10:48:44.000Z</Time>
            <Position>
              <LatitudeDegrees>41.35152962990105152130126953125</LatitudeDegrees>
              <LongitudeDegrees>-1.66000398807227611541748046875</LongitudeDegrees>
            </Position>
            <AltitudeMeters>643.5999755859375</AltitudeMeters>
            <DistanceMeters>7855.6392499783</DistanceMeters>
          </Trackpoint>
          <Trackpoint>
            <Time>2022-11-06T10:48:45.000Z</Time>
            <Position>
              <LatitudeDegrees>41.351532228291034698486328125</LatitudeDegrees>
              <LongitudeDegrees>-1.6599666886031627655029296875</LongitudeDegrees>
            </Position>
            <AltitudeMeters>643.5999755859375</AltitudeMeters>
            <DistanceMeters>7858.7708091775</DistanceMeters>
          </Trackpoint>
          <Trackpoint>
            <Time>2022-11-06T10:48:46.000Z</Time>
            <Position>
              <LatitudeDegrees>41.351555697619915008544921875</LatitudeDegrees>
              <LongitudeDegrees>-1.65993978269398212432861328125</LongitudeDegrees>
            </Position>
            <AltitudeMeters>643.20001220703125</AltitudeMeters>
            <DistanceMeters>7862.2180661451</DistanceMeters>
          </Trackpoint>
          <Trackpoint>
            <Time>2022-11-06T10:48:47.000Z</Time>
            <Position>
              <LatitudeDegrees>41.35159014724195003509521484375</LatitudeDegrees>
              <LongitudeDegrees>-1.65993358008563518524169921875</LongitudeDegrees>
            </Position>
            <AltitudeMeters>642.79998779296875</AltitudeMeters>
            <DistanceMeters>7866.0874157989</DistanceMeters>
          </Trackpoint>
          <Trackpoint>
            <Time>2022-11-06T10:48:48.000Z</Time>
            <Position>
              <LatitudeDegrees>41.3516272790729999542236328125</LatitudeDegrees>
              <LongitudeDegrees>-1.65995671413838863372802734375</LongitudeDegrees>
            </Position>
            <AltitudeMeters>642.4000244140625</AltitudeMeters>
            <DistanceMeters>7870.6506773825</DistanceMeters>
          </Trackpoint>
          <Trackpoint>
            <Time>2022-11-06T10:48:49.000Z</Time>
            <Position>
              <LatitudeDegrees>41.35166508145630359649658203125</LatitudeDegrees>
              <LongitudeDegrees>-1.66000046767294406890869140625</LongitudeDegrees>
            </Position>
            <AltitudeMeters>642.20001220703125</AltitudeMeters>
            <DistanceMeters>7876.2241379742</DistanceMeters>
          </Trackpoint>
          <Trackpoint>
            <Time>2022-11-06T10:48:50.000Z</Time>
            <Position>
              <LatitudeDegrees>41.35170179419219493865966796875</LatitudeDegrees>
              <LongitudeDegrees>-1.66004271246492862701416015625</LongitudeDegrees>
            </Position>
            <AltitudeMeters>641.5999755859375</AltitudeMeters>
            <DistanceMeters>7881.6222910551</DistanceMeters>
          </Trackpoint>
          <Trackpoint>
            <Time>2022-11-06T10:48:51.000Z</Time>
            <Position>
              <LatitudeDegrees>41.35174336843192577362060546875</LatitudeDegrees>
              <LongitudeDegrees>-1.66007825173437595367431640625</LongitudeDegrees>
            </Position>
            <AltitudeMeters>641.4000244140625</AltitudeMeters>
            <DistanceMeters>7887.1207177331</DistanceMeters>
          </Trackpoint>
          <Trackpoint>
            <Time>2022-11-06T10:48:52.000Z</Time>
            <Position>
              <LatitudeDegrees>41.35178175754845142364501953125</LatitudeDegrees>
              <LongitudeDegrees>-1.6600981168448925018310546875</LongitudeDegrees>
            </Position>
            <AltitudeMeters>641.20001220703125</AltitudeMeters>
            <DistanceMeters>7891.7056951553</DistanceMeters>
          </Trackpoint>
          <Trackpoint>
            <Time>2022-11-06T10:48:53.000Z</Time>
            <Position>
              <LatitudeDegrees>41.35184043087065219879150390625</LatitudeDegrees>
              <LongitudeDegrees>-1.6601143777370452880859375</LongitudeDegrees>
            </Position>
            <AltitudeMeters>641.20001220703125</AltitudeMeters>
            <DistanceMeters>7898.3765434309</DistanceMeters>
          </Trackpoint>
          <Trackpoint>
            <Time>2022-11-06T10:48:54.000Z</Time>
            <Position>
              <LatitudeDegrees>41.3518810831010341644287109375</LatitudeDegrees>
              <LongitudeDegrees>-1.66011546738445758819580078125</LongitudeDegrees>
            </Position>
            <AltitudeMeters>641.20001220703125</AltitudeMeters>
            <DistanceMeters>7902.9020504052</DistanceMeters>
          </Trackpoint>
          <Trackpoint>
            <Time>2022-11-06T10:48:55.000Z</Time>
            <Position>
              <LatitudeDegrees>41.351933889091014862060546875</LatitudeDegrees>
              <LongitudeDegrees>-1.66010574437677860260009765625</LongitudeDegrees>
            </Position>
            <AltitudeMeters>641.20001220703125</AltitudeMeters>
            <DistanceMeters>7908.8349449752</DistanceMeters>
          </Trackpoint>
          <Trackpoint>
            <Time>2022-11-06T10:48:56.000Z</Time>
            <Position>
              <LatitudeDegrees>41.351960040628910064697265625</LatitudeDegrees>
              <LongitudeDegrees>-1.66007816791534423828125</LongitudeDegrees>
            </Position>
            <AltitudeMeters>641.20001220703125</AltitudeMeters>
            <DistanceMeters>7912.5470732938</DistanceMeters>
          </Trackpoint>
          <Trackpoint>
            <Time>2022-11-06T10:48:57.000Z</Time>
            <Position>
              <LatitudeDegrees>41.35196230374276638031005859375</LatitudeDegrees>
              <LongitudeDegrees>-1.66003902442753314971923828125</LongitudeDegrees>
            </Position>
            <AltitudeMeters>641.20001220703125</AltitudeMeters>
            <DistanceMeters>7915.8251506218</DistanceMeters>
          </Trackpoint>
          <Trackpoint>
            <Time>2022-11-06T10:48:58.000Z</Time>
            <Position>
              <LatitudeDegrees>41.351940594613552093505859375</LatitudeDegrees>
              <LongitudeDegrees>-1.65998856537044048309326171875</LongitudeDegrees>
            </Position>
            <AltitudeMeters>641.20001220703125</AltitudeMeters>
            <DistanceMeters>7920.683609207</DistanceMeters>
          </Trackpoint>
          <Trackpoint>
            <Time>2022-11-06T10:48:59.000Z</Time>
            <Position>
              <LatitudeDegrees>41.3519015349447727203369140625</LatitudeDegrees>
              <LongitudeDegrees>-1.65992218069732189178466796875</LongitudeDegrees>
            </Position>
            <AltitudeMeters>640.79998779296875</AltitudeMeters>
            <DistanceMeters>7927.7309789604</DistanceMeters>
          </Trackpoint>
          <Trackpoint>
            <Time>2022-11-06T10:49:00.000Z</Time>
            <Position>
              <LatitudeDegrees>41.3518644869327545166015625</LatitudeDegrees>
              <LongitudeDegrees>-1.65984255261719226837158203125</LongitudeDegrees>
            </Position>
            <AltitudeMeters>639</AltitudeMeters>
            <DistanceMeters>7935.5578581978</DistanceMeters>
          </Trackpoint>
          <Trackpoint>
            <Time>2022-11-06T10:49:01.000Z</Time>
            <Position>
              <LatitudeDegrees>41.35184101760387420654296875</LatitudeDegrees>
              <LongitudeDegrees>-1.65975621901452541351318359375</LongitudeDegrees>
            </Position>
            <AltitudeMeters>638</AltitudeMeters>
            <DistanceMeters>7943.2285803351</DistanceMeters>
          </Trackpoint>
          <Trackpoint>
            <Time>2022-11-06T10:49:02.000Z</Time>
            <Position>
              <LatitudeDegrees>41.35182735510170459747314453125</LatitudeDegrees>
              <LongitudeDegrees>-1.6596718132495880126953125</LongitudeDegrees>
            </Position>
            <AltitudeMeters>637.20001220703125</AltitudeMeters>
            <DistanceMeters>7950.4431046177</DistanceMeters>
          </Trackpoint>
          <Trackpoint>
            <Time>2022-11-06T10:49:04.000Z</Time>
            <Position>
              <LatitudeDegrees>41.3518465496599674224853515625</LatitudeDegrees>
              <LongitudeDegrees>-1.659514904022216796875</LongitudeDegrees>
            </Position>
            <AltitudeMeters>636.5999755859375</AltitudeMeters>
            <DistanceMeters>7963.7261262482</DistanceMeters>
          </Trackpoint>
          <Trackpoint>
            <Time>2022-11-06T10:49:05.000Z</Time>
            <Position>
              <LatitudeDegrees>41.35187027044594287872314453125</LatitudeDegrees>
              <LongitudeDegrees>-1.65945832617580890655517578125</LongitudeDegrees>
            </Position>
            <AltitudeMeters>636.4000244140625</AltitudeMeters>
            <DistanceMeters>7969.1401476868</DistanceMeters>
          </Trackpoint>
          <Trackpoint>
            <Time>2022-11-06T10:49:06.000Z</Time>
            <Position>
              <LatitudeDegrees>41.3519162870943546295166015625</LatitudeDegrees>
              <LongitudeDegrees>-1.6594040952622890472412109375</LongitudeDegrees>
            </Position>
            <AltitudeMeters>636.20001220703125</AltitudeMeters>
            <DistanceMeters>7975.9787707867</DistanceMeters>
          </Trackpoint>
          <Trackpoint>
            <Time>2022-11-06T10:49:07.000Z</Time>
            <Position>
              <LatitudeDegrees>41.35194704867899417877197265625</LatitudeDegrees>
              <LongitudeDegrees>-1.65940015576779842376708984375</LongitudeDegrees>
            </Position>
            <AltitudeMeters>636.20001220703125</AltitudeMeters>
            <DistanceMeters>7979.418160288</DistanceMeters>
          </Trackpoint>
          <Trackpoint>
            <Time>2022-11-06T10:49:08.000Z</Time>
            <Position>
              <LatitudeDegrees>41.35196716524660587310791015625</LatitudeDegrees>
              <LongitudeDegrees>-1.65942370891571044921875</LongitudeDegrees>
            </Position>
            <AltitudeMeters>636.20001220703125</AltitudeMeters>
            <DistanceMeters>7982.3990318419</DistanceMeters>
          </Trackpoint>
          <Trackpoint>
            <Time>2022-11-06T10:49:09.000Z</Time>
            <Position>
              <LatitudeDegrees>41.35198459960520267486572265625</LatitudeDegrees>
              <LongitudeDegrees>-1.659465618431568145751953125</LongitudeDegrees>
            </Position>
            <AltitudeMeters>636.20001220703125</AltitudeMeters>
            <DistanceMeters>7986.4025784806</DistanceMeters>
          </Trackpoint>
          <Trackpoint>
            <Time>2022-11-06T10:49:10.000Z</Time>
            <Position>
              <LatitudeDegrees>41.3519991002976894378662109375</LatitudeDegrees>
              <LongitudeDegrees>-1.659529320895671844482421875</LongitudeDegrees>
            </Position>
            <AltitudeMeters>636.20001220703125</AltitudeMeters>
            <DistanceMeters>7991.9646861654</DistanceMeters>
          </Trackpoint>
          <Trackpoint>
            <Time>2022-11-06T10:49:11.000Z</Time>
            <Position>
              <LatitudeDegrees>41.35202743113040924072265625</LatitudeDegrees>
              <LongitudeDegrees>-1.6596042551100254058837890625</LongitudeDegrees>
            </Position>
            <AltitudeMeters>636</AltitudeMeters>
            <DistanceMeters>7998.9754426213</DistanceMeters>
          </Trackpoint>
          <Trackpoint>
            <Time>2022-11-06T10:49:12.000Z</Time>
            <Position>
              <LatitudeDegrees>41.35206053964793682098388671875</LatitudeDegrees>
              <LongitudeDegrees>-1.659667454659938812255859375</LongitudeDegrees>
            </Position>
            <AltitudeMeters>635.79998779296875</AltitudeMeters>
            <DistanceMeters>8005.4148611533</DistanceMeters>
          </Trackpoint>
          <Trackpoint>
            <Time>2022-11-06T10:49:13.000Z</Time>
            <Position>
              <LatitudeDegrees>41.35210010223090648651123046875</LatitudeDegrees>
              <LongitudeDegrees>-1.65971271693706512451171875</LongitudeDegrees>
            </Position>
            <AltitudeMeters>635.20001220703125</AltitudeMeters>
            <DistanceMeters>8011.2200523895</DistanceMeters>
          </Trackpoint>
          <Trackpoint>
            <Time>2022-11-06T10:49:14.000Z</Time>
            <Position>
              <LatitudeDegrees>41.35214201174676418304443359375</LatitudeDegrees>
              <LongitudeDegrees>-1.659735850989818572998046875</LongitudeDegrees>
            </Position>
            <AltitudeMeters>635</AltitudeMeters>
            <DistanceMeters>8016.2698975236</DistanceMeters>
          </Trackpoint>
          <Trackpoint>
            <Time>2022-11-06T10:49:15.000Z</Time>
            <Position>
              <LatitudeDegrees>41.35216933675110340118408203125</LatitudeDegrees>
              <LongitudeDegrees>-1.6597360186278820037841796875</LongitudeDegrees>
            </Position>
            <AltitudeMeters>634.79998779296875</AltitudeMeters>
            <DistanceMeters>8019.3107523834</DistanceMeters>
          </Trackpoint>
          <Trackpoint>
            <Time>2022-11-06T10:49:16.000Z</Time>
            <Position>
              <LatitudeDegrees>41.35218844749033451080322265625</LatitudeDegrees>
              <LongitudeDegrees>-1.65971565060317516326904296875</LongitudeDegrees>
            </Position>
            <AltitudeMeters>634.5999755859375</AltitudeMeters>
            <DistanceMeters>8022.0368765393</DistanceMeters>
          </Trackpoint>
          <Trackpoint>
            <Time>2022-11-06T10:49:17.000Z</Time>
            <Position>
              <LatitudeDegrees>41.35220051743090152740478515625</LatitudeDegrees>
              <LongitudeDegrees>-1.65967122651636600494384765625</LongitudeDegrees>
            </Position>
            <AltitudeMeters>634.20001220703125</AltitudeMeters>
            <DistanceMeters>8025.9847762268</DistanceMeters>
          </Trackpoint>
          <Trackpoint>
            <Time>2022-11-06T10:49:18.000Z</Time>
            <Position>
              <LatitudeDegrees>41.3522029481828212738037109375</LatitudeDegrees>
              <LongitudeDegrees>-1.65962076745927333831787109375</LongitudeDegrees>
            </Position>
            <AltitudeMeters>634</AltitudeMeters>
            <DistanceMeters>8030.2089247863</DistanceMeters>
          </Trackpoint>
          <Trackpoint>
            <Time>2022-11-06T10:49:19.000Z</Time>
            <Position>
              <LatitudeDegrees>41.35219012387096881866455078125</LatitudeDegrees>
              <LongitudeDegrees>-1.65957684628665447235107421875</LongitudeDegrees>
            </Position>
            <AltitudeMeters>632.79998779296875</AltitudeMeters>
            <DistanceMeters>8034.1453713029</DistanceMeters>
          </Trackpoint>
          <Trackpoint>
            <Time>2022-11-06T10:49:20.000Z</Time>
            <Position>
              <LatitudeDegrees>41.3521637208759784698486328125</LatitudeDegrees>
              <LongitudeDegrees>-1.6595449112355709075927734375</LongitudeDegrees>
            </Position>
            <AltitudeMeters>632.20001220703125</AltitudeMeters>
            <DistanceMeters>8038.1149409767</DistanceMeters>
          </Trackpoint>
          <Trackpoint>
            <Time>2022-11-06T10:49:22.000Z</Time>
            <Position>
              <LatitudeDegrees>41.3521097414195537567138671875</LatitudeDegrees>
              <LongitudeDegrees>-1.65947810746729373931884765625</LongitudeDegrees>
            </Position>
            <AltitudeMeters>631.5999755859375</AltitudeMeters>
            <DistanceMeters>8046.3159170987</DistanceMeters>
          </Trackpoint>
          <Trackpoint>
            <Time>2022-11-06T10:49:23.000Z</Time>
            <Position>
              <LatitudeDegrees>41.352107226848602294921875</LatitudeDegrees>
              <LongitudeDegrees>-1.65944089181721210479736328125</LongitudeDegrees>
            </Position>
            <AltitudeMeters>631.4000244140625</AltitudeMeters>
            <DistanceMeters>8049.4388136003</DistanceMeters>
          </Trackpoint>
          <Trackpoint>
            <Time>2022-11-06T10:49:24.000Z</Time>
            <Position>
              <LatitudeDegrees>41.35213077999651432037353515625</LatitudeDegrees>
              <LongitudeDegrees>-1.65942345745861530303955078125</LongitudeDegrees>
            </Position>
            <AltitudeMeters>631.4000244140625</AltitudeMeters>
            <DistanceMeters>8052.4378061208</DistanceMeters>
          </Trackpoint>
          <Trackpoint>
            <Time>2022-11-06T10:49:25.000Z</Time>
            <Position>
              <LatitudeDegrees>41.35216782800853252410888671875</LatitudeDegrees>
              <LongitudeDegrees>-1.65942815132439136505126953125</LongitudeDegrees>
            </Position>
            <AltitudeMeters>631</AltitudeMeters>
            <DistanceMeters>8056.5799245696</DistanceMeters>
          </Trackpoint>
          <Trackpoint>
            <Time>2022-11-06T10:49:26.000Z</Time>
            <Position>
              <LatitudeDegrees>41.35221116244792938232421875</LatitudeDegrees>
              <LongitudeDegrees>-1.659456230700016021728515625</LongitudeDegrees>
            </Position>
            <AltitudeMeters>630.4000244140625</AltitudeMeters>
            <DistanceMeters>8061.943675454</DistanceMeters>
          </Trackpoint>
          <Trackpoint>
            <Time>2022-11-06T10:49:28.000Z</Time>
            <Position>
              <LatitudeDegrees>41.35230864398181438446044921875</LatitudeDegrees>
              <LongitudeDegrees>-1.65950643830001354217529296875</LongitudeDegrees>
            </Position>
            <AltitudeMeters>630</AltitudeMeters>
            <DistanceMeters>8073.576591064</DistanceMeters>
          </Trackpoint>
          <Trackpoint>
            <Time>2022-11-06T10:49:30.000Z</Time>
            <Position>
              <LatitudeDegrees>41.35237636975944042205810546875</LatitudeDegrees>
              <LongitudeDegrees>-1.6595003195106983184814453125</LongitudeDegrees>
            </Position>
            <AltitudeMeters>629.79998779296875</AltitudeMeters>
            <DistanceMeters>8081.1316630823</DistanceMeters>
          </Trackpoint>
          <Trackpoint>
            <Time>2022-11-06T10:49:31.000Z</Time>
            <Position>
              <LatitudeDegrees>41.35239757597446441650390625</LatitudeDegrees>
              <LongitudeDegrees>-1.6594795323908329010009765625</LongitudeDegrees>
            </Position>
            <AltitudeMeters>629.79998779296875</AltitudeMeters>
            <DistanceMeters>8084.0605831259</DistanceMeters>
          </Trackpoint>
          <Trackpoint>
            <Time>2022-11-06T10:49:32.000Z</Time>
            <Position>
              <LatitudeDegrees>41.3524101488292217254638671875</LatitudeDegrees>
              <LongitudeDegrees>-1.659445501863956451416015625</LongitudeDegrees>
            </Position>
            <AltitudeMeters>629.79998779296875</AltitudeMeters>
            <DistanceMeters>8087.2294070411</DistanceMeters>
          </Trackpoint>
          <Trackpoint>
            <Time>2022-11-06T10:49:33.000Z</Time>
            <Position>
              <LatitudeDegrees>41.35241408832371234893798828125</LatitudeDegrees>
              <LongitudeDegrees>-1.659386493265628814697265625</LongitudeDegrees>
            </Position>
            <AltitudeMeters>629.79998779296875</AltitudeMeters>
            <DistanceMeters>8092.1799249402</DistanceMeters>
          </Trackpoint>
          <Trackpoint>
            <Time>2022-11-06T10:49:34.000Z</Time>
            <Position>
              <LatitudeDegrees>41.3524101488292217254638671875</LatitudeDegrees>
              <LongitudeDegrees>-1.6593149118125438690185546875</LongitudeDegrees>
            </Position>
            <AltitudeMeters>629.20001220703125</AltitudeMeters>
            <DistanceMeters>8098.1764042739</DistanceMeters>
          </Trackpoint>
          <Trackpoint>
            <Time>2022-11-06T10:49:36.000Z</Time>
            <Position>
              <LatitudeDegrees>41.35239816270768642425537109375</LatitudeDegrees>
              <LongitudeDegrees>-1.6591647081077098846435546875</LongitudeDegrees>
            </Position>
            <AltitudeMeters>627.4000244140625</AltitudeMeters>
            <DistanceMeters>8110.7967247262</DistanceMeters>
          </Trackpoint>
          <Trackpoint>
            <Time>2022-11-06T10:49:38.000Z</Time>
            <Position>
              <LatitudeDegrees>41.35242565535008907318115234375</LatitudeDegrees>
              <LongitudeDegrees>-1.65904308669269084930419921875</LongitudeDegrees>
            </Position>
            <AltitudeMeters>626.79998779296875</AltitudeMeters>
            <DistanceMeters>8121.4082775464</DistanceMeters>
          </Trackpoint>
          <Trackpoint>
            <Time>2022-11-06T10:49:39.000Z</Time>
            <Position>
              <LatitudeDegrees>41.35244996286928653717041015625</LatitudeDegrees>
              <LongitudeDegrees>-1.65900536812841892242431640625</LongitudeDegrees>
            </Position>
            <AltitudeMeters>626.79998779296875</AltitudeMeters>
            <DistanceMeters>8125.561282002</DistanceMeters>
          </Trackpoint>
          <Trackpoint>
            <Time>2022-11-06T10:49:40.000Z</Time>
            <Position>
              <LatitudeDegrees>41.35247712023556232452392578125</LatitudeDegrees>
              <LongitudeDegrees>-1.6589980758726596832275390625</LongitudeDegrees>
            </Position>
            <AltitudeMeters>626.5999755859375</AltitudeMeters>
            <DistanceMeters>8128.6448952228</DistanceMeters>
          </Trackpoint>
          <Trackpoint>
            <Time>2022-11-06T10:49:41.000Z</Time>
            <Position>
              <LatitudeDegrees>41.35250243358314037322998046875</LatitudeDegrees>
              <LongitudeDegrees>-1.65901140309870243072509765625</LongitudeDegrees>
            </Position>
            <AltitudeMeters>626.4000244140625</AltitudeMeters>
            <DistanceMeters>8131.6738484524</DistanceMeters>
          </Trackpoint>
          <Trackpoint>
            <Time>2022-11-06T10:49:42.000Z</Time>
            <Position>
              <LatitudeDegrees>41.35252296924591064453125</LatitudeDegrees>
              <LongitudeDegrees>-1.65903772227466106414794921875</LongitudeDegrees>
            </Position>
            <AltitudeMeters>626.20001220703125</AltitudeMeters>
            <DistanceMeters>8134.8455207492</DistanceMeters>
          </Trackpoint>
          <Trackpoint>
            <Time>2022-11-06T10:49:43.000Z</Time>
            <Position>
              <LatitudeDegrees>41.352523975074291229248046875</LatitudeDegrees>
              <LongitudeDegrees>-1.65907862596213817596435546875</LongitudeDegrees>
            </Position>
            <AltitudeMeters>626</AltitudeMeters>
            <DistanceMeters>8138.2638418164</DistanceMeters>
          </Trackpoint>
          <Trackpoint>
            <Time>2022-11-06T10:49:44.000Z</Time>
            <Position>
              <LatitudeDegrees>41.35250863619148731231689453125</LatitudeDegrees>
              <LongitudeDegrees>-1.6591248102486133575439453125</LongitudeDegrees>
            </Position>
            <AltitudeMeters>625.79998779296875</AltitudeMeters>
            <DistanceMeters>8142.4837127561</DistanceMeters>
          </Trackpoint>
          <Trackpoint>
            <Time>2022-11-06T10:49:45.000Z</Time>
            <Position>
              <LatitudeDegrees>41.35249472223222255706787109375</LatitudeDegrees>
              <LongitudeDegrees>-1.6591757722198963165283203125</LongitudeDegrees>
            </Position>
            <AltitudeMeters>625.4000244140625</AltitudeMeters>
            <DistanceMeters>8147.015201897</DistanceMeters>
          </Trackpoint>
          <Trackpoint>
            <Time>2022-11-06T10:49:47.000Z</Time>
            <Position>
              <LatitudeDegrees>41.35250888764858245849609375</LatitudeDegrees>
              <LongitudeDegrees>-1.65926386602222919464111328125</LongitudeDegrees>
            </Position>
            <AltitudeMeters>624.79998779296875</AltitudeMeters>
            <DistanceMeters>8154.5421335168</DistanceMeters>
          </Trackpoint>
          <Trackpoint>
            <Time>2022-11-06T10:49:48.000Z</Time>
            <Position>
              <LatitudeDegrees>41.352529339492321014404296875</LatitudeDegrees>
              <LongitudeDegrees>-1.65927677415311336517333984375</LongitudeDegrees>
            </Position>
            <AltitudeMeters>624.5999755859375</AltitudeMeters>
            <DistanceMeters>8157.0634771698</DistanceMeters>
          </Trackpoint>
          <Trackpoint>
            <Time>2022-11-06T10:49:49.000Z</Time>
            <Position>
              <LatitudeDegrees>41.35256077162921428680419921875</LatitudeDegrees>
              <LongitudeDegrees>-1.659261099994182586669921875</LongitudeDegrees>
            </Position>
            <AltitudeMeters>624.20001220703125</AltitudeMeters>
            <DistanceMeters>8160.7986435792</DistanceMeters>
          </Trackpoint>
          <Trackpoint>
            <Time>2022-11-06T10:49:50.000Z</Time>
            <Position>
              <LatitudeDegrees>41.35260653682053089141845703125</LatitudeDegrees>
              <LongitudeDegrees>-1.65922799147665500640869140625</LongitudeDegrees>
            </Position>
            <AltitudeMeters>624</AltitudeMeters>
            <DistanceMeters>8166.5944941959</DistanceMeters>
          </Trackpoint>
          <Trackpoint>
            <Time>2022-11-06T10:49:51.000Z</Time>
            <Position>
              <LatitudeDegrees>41.35266923345625400543212890625</LatitudeDegrees>
              <LongitudeDegrees>-1.6591942124068737030029296875</LongitudeDegrees>
            </Position>
            <AltitudeMeters>623.5999755859375</AltitudeMeters>
            <DistanceMeters>8174.1214258157</DistanceMeters>
          </Trackpoint>
          <Trackpoint>
            <Time>2022-11-06T10:49:52.000Z</Time>
            <Position>
              <LatitudeDegrees>41.35274182073771953582763671875</LatitudeDegrees>
              <LongitudeDegrees>-1.6591643728315830230712890625</LongitudeDegrees>
            </Position>
            <AltitudeMeters>623</AltitudeMeters>
            <DistanceMeters>8182.5772016691</DistanceMeters>
          </Trackpoint>
          <Trackpoint>
            <Time>2022-11-06T10:49:53.000Z</Time>
            <Position>
              <LatitudeDegrees>41.35281021706759929656982421875</LatitudeDegrees>
              <LongitudeDegrees>-1.65913796983659267425537109375</LongitudeDegrees>
            </Position>
            <AltitudeMeters>621.79998779296875</AltitudeMeters>
            <DistanceMeters>8190.5026803136</DistanceMeters>
          </Trackpoint>
          <Trackpoint>
            <Time>2022-11-06T10:49:54.000Z</Time>
            <Position>
              <LatitudeDegrees>41.35286067612469196319580078125</LatitudeDegrees>
              <LongitudeDegrees>-1.65911366231739521026611328125</LongitudeDegrees>
            </Position>
            <AltitudeMeters>620.5999755859375</AltitudeMeters>
            <DistanceMeters>8196.4750167035</DistanceMeters>
          </Trackpoint>
          <Trackpoint>
            <Time>2022-11-06T10:49:55.000Z</Time>
            <Position>
              <LatitudeDegrees>41.352895461022853851318359375</LatitudeDegrees>
              <LongitudeDegrees>-1.65909455157816410064697265625</LongitudeDegrees>
            </Position>
            <AltitudeMeters>620</AltitudeMeters>
            <DistanceMeters>8200.6626662177</DistanceMeters>
          </Trackpoint>
          <Trackpoint>
            <Time>2022-11-06T10:49:56.000Z</Time>
            <Position>
              <LatitudeDegrees>41.352929659187793731689453125</LatitudeDegrees>
              <LongitudeDegrees>-1.65908030234277248382568359375</LongitudeDegrees>
            </Position>
            <AltitudeMeters>619.5999755859375</AltitudeMeters>
            <DistanceMeters>8204.6515250388</DistanceMeters>
          </Trackpoint>
          <Trackpoint>
            <Time>2022-11-06T10:49:57.000Z</Time>
            <Position>
              <LatitudeDegrees>41.35296310298144817352294921875</LatitudeDegrees>
              <LongitudeDegrees>-1.65906429290771484375</LongitudeDegrees>
            </Position>
            <AltitudeMeters>619.20001220703125</AltitudeMeters>
            <DistanceMeters>8208.6062807077</DistanceMeters>
          </Trackpoint>
          <Trackpoint>
            <Time>2022-11-06T10:49:58.000Z</Time>
            <Position>
              <LatitudeDegrees>41.35300241410732269287109375</LatitudeDegrees>
              <LongitudeDegrees>-1.65905423462390899658203125</LongitudeDegrees>
            </Position>
            <AltitudeMeters>619</AltitudeMeters>
            <DistanceMeters>8213.0614022575</DistanceMeters>
          </Trackpoint>
          <Trackpoint>
            <Time>2022-11-06T10:49:59.000Z</Time>
            <Position>
              <LatitudeDegrees>41.3530548848211765289306640625</LatitudeDegrees>
              <LongitudeDegrees>-1.65904811583459377288818359375</LongitudeDegrees>
            </Position>
            <AltitudeMeters>618</AltitudeMeters>
            <DistanceMeters>8218.9238651312</DistanceMeters>
          </Trackpoint>
          <Trackpoint>
            <Time>2022-11-06T10:50:00.000Z</Time>
            <Position>
              <LatitudeDegrees>41.353114061057567596435546875</LatitudeDegrees>
              <LongitudeDegrees>-1.65904258377850055694580078125</LongitudeDegrees>
            </Position>
            <AltitudeMeters>617.4000244140625</AltitudeMeters>
            <DistanceMeters>8225.5273671679</DistanceMeters>
          </Trackpoint>
          <Trackpoint>
            <Time>2022-11-06T10:50:01.000Z</Time>
            <Position>
              <LatitudeDegrees>41.35317617096006870269775390625</LatitudeDegrees>
              <LongitudeDegrees>-1.65903084911406040191650390625</LongitudeDegrees>
            </Position>
            <AltitudeMeters>616</AltitudeMeters>
            <DistanceMeters>8232.5090827625</DistanceMeters>
          </Trackpoint>
          <Trackpoint>
            <Time>2022-11-06T10:50:02.000Z</Time>
            <Position>
              <LatitudeDegrees>41.3532364368438720703125</LatitudeDegrees>
              <LongitudeDegrees>-1.659031100571155548095703125</LongitudeDegrees>
            </Position>
            <AltitudeMeters>615.20001220703125</AltitudeMeters>
            <DistanceMeters>8239.2163803438</DistanceMeters>
          </Trackpoint>
          <Trackpoint>
            <Time>2022-11-06T10:50:03.000Z</Time>
            <Position>
              <LatitudeDegrees>41.3532946072518825531005859375</LatitudeDegrees>
              <LongitudeDegrees>-1.65904476307332515716552734375</LongitudeDegrees>
            </Position>
            <AltitudeMeters>614.79998779296875</AltitudeMeters>
            <DistanceMeters>8245.79041608</DistanceMeters>
          </Trackpoint>
          <Trackpoint>
            <Time>2022-11-06T10:50:06.000Z</Time>
            <Position>
              <LatitudeDegrees>41.35348261334002017974853515625</LatitudeDegrees>
              <LongitudeDegrees>-1.65909849107265472412109375</LongitudeDegrees>
            </Position>
            <AltitudeMeters>614.20001220703125</AltitudeMeters>
            <DistanceMeters>8267.1916895775</DistanceMeters>
          </Trackpoint>
          <Trackpoint>
            <Time>2022-11-06T10:50:07.000Z</Time>
            <Position>
              <LatitudeDegrees>41.353528797626495361328125</LatitudeDegrees>
              <LongitudeDegrees>-1.65907409973442554473876953125</LongitudeDegrees>
            </Position>
            <AltitudeMeters>614</AltitudeMeters>
            <DistanceMeters>8272.7212319491</DistanceMeters>
          </Trackpoint>
          <Trackpoint>
            <Time>2022-11-06T10:50:08.000Z</Time>
            <Position>
              <LatitudeDegrees>41.35355369187891483306884765625</LatitudeDegrees>
              <LongitudeDegrees>-1.65903009474277496337890625</LongitudeDegrees>
            </Position>
            <AltitudeMeters>613.79998779296875</AltitudeMeters>
            <DistanceMeters>8277.3248815246</DistanceMeters>
          </Trackpoint>
          <Trackpoint>
            <Time>2022-11-06T10:50:09.000Z</Time>
            <Position>
              <LatitudeDegrees>41.3535762391984462738037109375</LatitudeDegrees>
              <LongitudeDegrees>-1.65898055769503116607666015625</LongitudeDegrees>
            </Position>
            <AltitudeMeters>613.5999755859375</AltitudeMeters>
            <DistanceMeters>8282.1656509233</DistanceMeters>
          </Trackpoint>
          <Trackpoint>
            <Time>2022-11-06T10:50:10.000Z</Time>
            <Position>
              <LatitudeDegrees>41.35360649786889553070068359375</LatitudeDegrees>
              <LongitudeDegrees>-1.65892171673476696014404296875</LongitudeDegrees>
            </Position>
            <AltitudeMeters>613.5999755859375</AltitudeMeters>
            <DistanceMeters>8288.1243639201</DistanceMeters>
          </Trackpoint>
          <Trackpoint>
            <Time>2022-11-06T10:50:11.000Z</Time>
            <Position>
              <LatitudeDegrees>41.35364304296672344207763671875</LatitudeDegrees>
              <LongitudeDegrees>-1.658857762813568115234375</LongitudeDegrees>
            </Position>
            <AltitudeMeters>612.5999755859375</AltitudeMeters>
            <DistanceMeters>8294.8397344803</DistanceMeters>
          </Trackpoint>
          <Trackpoint>
            <Time>2022-11-06T10:50:12.000Z</Time>
            <Position>
              <LatitudeDegrees>41.35366366244852542877197265625</LatitudeDegrees>
              <LongitudeDegrees>-1.65881275199353694915771484375</LongitudeDegrees>
            </Position>
            <AltitudeMeters>612</AltitudeMeters>
            <DistanceMeters>8299.2449171415</DistanceMeters>
          </Trackpoint>
          <Trackpoint>
            <Time>2022-11-06T10:50:13.000Z</Time>
            <Position>
              <LatitudeDegrees>41.35368545539677143096923828125</LatitudeDegrees>
              <LongitudeDegrees>-1.65877201594412326812744140625</LongitudeDegrees>
            </Position>
            <AltitudeMeters>611.5999755859375</AltitudeMeters>
            <DistanceMeters>8303.4239323176</DistanceMeters>
          </Trackpoint>
          <Trackpoint>
            <Time>2022-11-06T10:50:14.000Z</Time>
            <Position>
              <LatitudeDegrees>41.35372350923717021942138671875</LatitudeDegrees>
              <LongitudeDegrees>-1.658707223832607269287109375</LongitudeDegrees>
            </Position>
            <AltitudeMeters>611.20001220703125</AltitudeMeters>
            <DistanceMeters>8310.2974583381</DistanceMeters>
          </Trackpoint>
          <Trackpoint>
            <Time>2022-11-06T10:50:16.000Z</Time>
            <Position>
              <LatitudeDegrees>41.35381537489593029022216796875</LatitudeDegrees>
              <LongitudeDegrees>-1.65854671038687229156494140625</LongitudeDegrees>
            </Position>
            <AltitudeMeters>609</AltitudeMeters>
            <DistanceMeters>8327.1614207292</DistanceMeters>
          </Trackpoint>
          <Trackpoint>
            <Time>2022-11-06T10:50:17.000Z</Time>
            <Position>
              <LatitudeDegrees>41.3538575358688831329345703125</LatitudeDegrees>
              <LongitudeDegrees>-1.658451072871685028076171875</LongitudeDegrees>
            </Position>
            <AltitudeMeters>607.5999755859375</AltitudeMeters>
            <DistanceMeters>8336.4273781449</DistanceMeters>
          </Trackpoint>
          <Trackpoint>
            <Time>2022-11-06T10:50:18.000Z</Time>
            <Position>
              <LatitudeDegrees>41.3538907282054424285888671875</LatitudeDegrees>
              <LongitudeDegrees>-1.658356189727783203125</LongitudeDegrees>
            </Position>
            <AltitudeMeters>606.79998779296875</AltitudeMeters>
            <DistanceMeters>8345.1729340151</DistanceMeters>
          </Trackpoint>
          <Trackpoint>
            <Time>2022-11-06T10:50:19.000Z</Time>
            <Position>
              <LatitudeDegrees>41.35392098687589168548583984375</LatitudeDegrees>
              <LongitudeDegrees>-1.65827329270541667938232421875</LongitudeDegrees>
            </Position>
            <AltitudeMeters>606.20001220703125</AltitudeMeters>
            <DistanceMeters>8352.8742028771</DistanceMeters>
          </Trackpoint>
          <Trackpoint>
            <Time>2022-11-06T10:50:20.000Z</Time>
            <Position>
              <LatitudeDegrees>41.35395283810794353485107421875</LatitudeDegrees>
              <LongitudeDegrees>-1.6582168824970722198486328125</LongitudeDegrees>
            </Position>
            <AltitudeMeters>605.79998779296875</AltitudeMeters>
            <DistanceMeters>8358.7719867373</DistanceMeters>
          </Trackpoint>
          <Trackpoint>
            <Time>2022-11-06T10:50:21.000Z</Time>
            <Position>
              <LatitudeDegrees>41.35399860329926013946533203125</LatitudeDegrees>
              <LongitudeDegrees>-1.6581737995147705078125</LongitudeDegrees>
            </Position>
            <AltitudeMeters>605.4000244140625</AltitudeMeters>
            <DistanceMeters>8365.0098228523</DistanceMeters>
          </Trackpoint>
          <Trackpoint>
            <Time>2022-11-06T10:50:22.000Z</Time>
            <Position>
              <LatitudeDegrees>41.35403648950159549713134765625</LatitudeDegrees>
              <LongitudeDegrees>-1.65814572013914585113525390625</LongitudeDegrees>
            </Position>
            <AltitudeMeters>605</AltitudeMeters>
            <DistanceMeters>8369.8356458027</DistanceMeters>
          </Trackpoint>
          <Trackpoint>
            <Time>2022-11-06T10:50:23.000Z</Time>
            <Position>
              <LatitudeDegrees>41.35407722555100917816162109375</LatitudeDegrees>
              <LongitudeDegrees>-1.65810406208038330078125</LongitudeDegrees>
            </Position>
            <AltitudeMeters>604.5999755859375</AltitudeMeters>
            <DistanceMeters>8375.551484899</DistanceMeters>
          </Trackpoint>
          <Trackpoint>
            <Time>2022-11-06T10:50:24.000Z</Time>
            <Position>
              <LatitudeDegrees>41.35411930270493030548095703125</LatitudeDegrees>
              <LongitudeDegrees>-1.6580475680530071258544921875</LongitudeDegrees>
            </Position>
            <AltitudeMeters>603.5999755859375</AltitudeMeters>
            <DistanceMeters>8382.2006393016</DistanceMeters>
          </Trackpoint>
          <Trackpoint>
            <Time>2022-11-06T10:50:25.000Z</Time>
            <Position>
              <LatitudeDegrees>41.3541609607636928558349609375</LatitudeDegrees>
              <LongitudeDegrees>-1.65797858498990535736083984375</LongitudeDegrees>
            </Position>
            <AltitudeMeters>603</AltitudeMeters>
            <DistanceMeters>8389.5968682797</DistanceMeters>
          </Trackpoint>
          <Trackpoint>
            <Time>2022-11-06T10:50:26.000Z</Time>
            <Position>
              <LatitudeDegrees>41.354190967977046966552734375</LatitudeDegrees>
              <LongitudeDegrees>-1.65790650062263011932373046875</LongitudeDegrees>
            </Position>
            <AltitudeMeters>602.20001220703125</AltitudeMeters>
            <DistanceMeters>8396.4822078742</DistanceMeters>
          </Trackpoint>
          <Trackpoint>
            <Time>2022-11-06T10:50:27.000Z</Time>
            <Position>
              <LatitudeDegrees>41.35421033017337322235107421875</LatitudeDegrees>
              <LongitudeDegrees>-1.6578272916376590728759765625</LongitudeDegrees>
            </Position>
            <AltitudeMeters>601.5999755859375</AltitudeMeters>
            <DistanceMeters>8403.4425498285</DistanceMeters>
          </Trackpoint>
          <Trackpoint>
            <Time>2022-11-06T10:50:28.000Z</Time>
            <Position>
              <LatitudeDegrees>41.35422474704682826995849609375</LatitudeDegrees>
              <LongitudeDegrees>-1.65774674154818058013916015625</LongitudeDegrees>
            </Position>
            <AltitudeMeters>601</AltitudeMeters>
            <DistanceMeters>8410.3605990588</DistanceMeters>
          </Trackpoint>
          <Trackpoint>
            <Time>2022-11-06T10:50:29.000Z</Time>
            <Position>
              <LatitudeDegrees>41.35423547588288784027099609375</LatitudeDegrees>
              <LongitudeDegrees>-1.65766476653516292572021484375</LongitudeDegrees>
            </Position>
            <AltitudeMeters>600.5999755859375</AltitudeMeters>
            <DistanceMeters>8417.3131524894</DistanceMeters>
          </Trackpoint>
          <Trackpoint>
            <Time>2022-11-06T10:50:30.000Z</Time>
            <Position>
              <LatitudeDegrees>41.3542531616985797882080078125</LatitudeDegrees>
              <LongitudeDegrees>-1.6575852222740650177001953125</LongitudeDegrees>
            </Position>
            <AltitudeMeters>600.4000244140625</AltitudeMeters>
            <DistanceMeters>8424.2442423519</DistanceMeters>
          </Trackpoint>
          <Trackpoint>
            <Time>2022-11-06T10:50:31.000Z</Time>
            <Position>
              <LatitudeDegrees>41.3542762957513332366943359375</LatitudeDegrees>
              <LongitudeDegrees>-1.65750768966972827911376953125</LongitudeDegrees>
            </Position>
            <AltitudeMeters>600</AltitudeMeters>
            <DistanceMeters>8431.2143077223</DistanceMeters>
          </Trackpoint>
          <Trackpoint>
            <Time>2022-11-06T10:50:32.000Z</Time>
            <Position>
              <LatitudeDegrees>41.35429247282445430755615234375</LatitudeDegrees>
              <LongitudeDegrees>-1.65742957033216953277587890625</LongitudeDegrees>
            </Position>
            <AltitudeMeters>600</AltitudeMeters>
            <DistanceMeters>8437.9845860054</DistanceMeters>
          </Trackpoint>
          <Trackpoint>
            <Time>2022-11-06T10:50:34.000Z</Time>
            <Position>
              <LatitudeDegrees>41.35428325273096561431884765625</LatitudeDegrees>
              <LongitudeDegrees>-1.65727819316089153289794921875</LongitudeDegrees>
            </Position>
            <AltitudeMeters>599.4000244140625</AltitudeMeters>
            <DistanceMeters>8450.67341034</DistanceMeters>
          </Trackpoint>
          <Trackpoint>
            <Time>2022-11-06T10:50:35.000Z</Time>
            <Position>
              <LatitudeDegrees>41.3542642258107662200927734375</LatitudeDegrees>
              <LongitudeDegrees>-1.65720594115555286407470703125</LongitudeDegrees>
            </Position>
            <AltitudeMeters>599</AltitudeMeters>
            <DistanceMeters>8457.0699153519</DistanceMeters>
          </Trackpoint>
          <Trackpoint>
            <Time>2022-11-06T10:50:36.000Z</Time>
            <Position>
              <LatitudeDegrees>41.35424436070024967193603515625</LatitudeDegrees>
              <LongitudeDegrees>-1.6571352817118167877197265625</LongitudeDegrees>
            </Position>
            <AltitudeMeters>598.79998779296875</AltitudeMeters>
            <DistanceMeters>8463.3732744844</DistanceMeters>
          </Trackpoint>
          <Trackpoint>
            <Time>2022-11-06T10:50:37.000Z</Time>
            <Position>
              <LatitudeDegrees>41.3542275130748748779296875</LatitudeDegrees>
              <LongitudeDegrees>-1.65706009604036808013916015625</LongitudeDegrees>
            </Position>
            <AltitudeMeters>598.5999755859375</AltitudeMeters>
            <DistanceMeters>8469.9287404325</DistanceMeters>
          </Trackpoint>
          <Trackpoint>
            <Time>2022-11-06T10:50:38.000Z</Time>
            <Position>
              <LatitudeDegrees>41.35421083308756351470947265625</LatitudeDegrees>
              <LongitudeDegrees>-1.6569817252457141876220703125</LongitudeDegrees>
            </Position>
            <AltitudeMeters>598.20001220703125</AltitudeMeters>
            <DistanceMeters>8476.7342721591</DistanceMeters>
          </Trackpoint>
          <Trackpoint>
            <Time>2022-11-06T10:50:39.000Z</Time>
            <Position>
              <LatitudeDegrees>41.35420513339340686798095703125</LatitudeDegrees>
              <LongitudeDegrees>-1.656902767717838287353515625</LongitudeDegrees>
            </Position>
            <AltitudeMeters>598</AltitudeMeters>
            <DistanceMeters>8483.3616616771</DistanceMeters>
          </Trackpoint>
          <Trackpoint>
            <Time>2022-11-06T10:50:40.000Z</Time>
            <Position>
              <LatitudeDegrees>41.35420270264148712158203125</LatitudeDegrees>
              <LongitudeDegrees>-1.65681735612452030181884765625</LongitudeDegrees>
            </Position>
            <AltitudeMeters>597.5999755859375</AltitudeMeters>
            <DistanceMeters>8490.5032211535</DistanceMeters>
          </Trackpoint>
          <Trackpoint>
            <Time>2022-11-06T10:50:41.000Z</Time>
            <Position>
              <LatitudeDegrees>41.35420211590826511383056640625</LatitudeDegrees>
              <LongitudeDegrees>-1.656729094684123992919921875</LongitudeDegrees>
            </Position>
            <AltitudeMeters>597</AltitudeMeters>
            <DistanceMeters>8497.8774411357</DistanceMeters>
          </Trackpoint>
          <Trackpoint>
            <Time>2022-11-06T10:50:42.000Z</Time>
            <Position>
              <LatitudeDegrees>41.35420580394566059112548828125</LatitudeDegrees>
              <LongitudeDegrees>-1.65663764812052249908447265625</LongitudeDegrees>
            </Position>
            <AltitudeMeters>596.4000244140625</AltitudeMeters>
            <DistanceMeters>8505.5281244718</DistanceMeters>
          </Trackpoint>
          <Trackpoint>
            <Time>2022-11-06T10:50:43.000Z</Time>
            <Position>
              <LatitudeDegrees>41.3542055524885654449462890625</LatitudeDegrees>
              <LongitudeDegrees>-1.65653564035892486572265625</LongitudeDegrees>
            </Position>
            <AltitudeMeters>596</AltitudeMeters>
            <DistanceMeters>8514.0503838459</DistanceMeters>
          </Trackpoint>
          <Trackpoint>
            <Time>2022-11-06T10:50:45.000Z</Time>
            <Position>
              <LatitudeDegrees>41.3541710190474987030029296875</LatitudeDegrees>
              <LongitudeDegrees>-1.6563255898654460906982421875</LongitudeDegrees>
            </Position>
            <AltitudeMeters>595</AltitudeMeters>
            <DistanceMeters>8532.0157113481</DistanceMeters>
          </Trackpoint>
          <Trackpoint>
            <Time>2022-11-06T10:50:47.000Z</Time>
            <Position>
              <LatitudeDegrees>41.35414243675768375396728515625</LatitudeDegrees>
              <LongitudeDegrees>-1.65613037534058094024658203125</LongitudeDegrees>
            </Position>
            <AltitudeMeters>594.4000244140625</AltitudeMeters>
            <DistanceMeters>8548.6328924441</DistanceMeters>
          </Trackpoint>
          <Trackpoint>
            <Time>2022-11-06T10:50:48.000Z</Time>
            <Position>
              <LatitudeDegrees>41.35414746589958667755126953125</LatitudeDegrees>
              <LongitudeDegrees>-1.65606491267681121826171875</LongitudeDegrees>
            </Position>
            <AltitudeMeters>594.20001220703125</AltitudeMeters>
            <DistanceMeters>8554.1313191222</DistanceMeters>
          </Trackpoint>
          <Trackpoint>
            <Time>2022-11-06T10:50:49.000Z</Time>
            <Position>
              <LatitudeDegrees>41.35415668599307537078857421875</LatitudeDegrees>
              <LongitudeDegrees>-1.6560181416571140289306640625</LongitudeDegrees>
            </Position>
            <AltitudeMeters>594</AltitudeMeters>
            <DistanceMeters>8558.1707928669</DistanceMeters>
          </Trackpoint>
          <Trackpoint>
            <Time>2022-11-06T10:50:50.000Z</Time>
            <Position>
              <LatitudeDegrees>41.3541706837713718414306640625</LatitudeDegrees>
              <LongitudeDegrees>-1.65598620660603046417236328125</LongitudeDegrees>
            </Position>
            <AltitudeMeters>593.79998779296875</AltitudeMeters>
            <DistanceMeters>8561.258795575</DistanceMeters>
          </Trackpoint>
          <Trackpoint>
            <Time>2022-11-06T10:50:51.000Z</Time>
            <Position>
              <LatitudeDegrees>41.35419599711894989013671875</LatitudeDegrees>
              <LongitudeDegrees>-1.6559703648090362548828125</LongitudeDegrees>
            </Position>
            <AltitudeMeters>593.4000244140625</AltitudeMeters>
            <DistanceMeters>8564.3701042945</DistanceMeters>
          </Trackpoint>
          <Trackpoint>
            <Time>2022-11-06T10:50:52.000Z</Time>
            <Position>
              <LatitudeDegrees>41.3542382419109344482421875</LatitudeDegrees>
              <LongitudeDegrees>-1.65596843697130680084228515625</LongitudeDegrees>
            </Position>
            <AltitudeMeters>593</AltitudeMeters>
            <DistanceMeters>8569.0736866832</DistanceMeters>
          </Trackpoint>
          <Trackpoint>
            <Time>2022-11-06T10:50:54.000Z</Time>
            <Position>
              <LatitudeDegrees>41.35437562130391597747802734375</LatitudeDegrees>
              <LongitudeDegrees>-1.655992157757282257080078125</LongitudeDegrees>
            </Position>
            <AltitudeMeters>592.20001220703125</AltitudeMeters>
            <DistanceMeters>8584.4923384576</DistanceMeters>
          </Trackpoint>
          <Trackpoint>
            <Time>2022-11-06T10:50:55.000Z</Time>
            <Position>
              <LatitudeDegrees>41.35445348918437957763671875</LatitudeDegrees>
              <LongitudeDegrees>-1.65596324019134044647216796875</LongitudeDegrees>
            </Position>
            <AltitudeMeters>591.4000244140625</AltitudeMeters>
            <DistanceMeters>8593.4898178446</DistanceMeters>
          </Trackpoint>
          <Trackpoint>
            <Time>2022-11-06T10:50:56.000Z</Time>
            <Position>
              <LatitudeDegrees>41.35451610200107097625732421875</LatitudeDegrees>
              <LongitudeDegrees>-1.65590087883174419403076171875</LongitudeDegrees>
            </Position>
            <AltitudeMeters>590.4000244140625</AltitudeMeters>
            <DistanceMeters>8602.1908615123</DistanceMeters>
          </Trackpoint>
          <Trackpoint>
            <Time>2022-11-06T10:50:57.000Z</Time>
            <Position>
              <LatitudeDegrees>41.35456069372594356536865234375</LatitudeDegrees>
              <LongitudeDegrees>-1.65583164431154727935791015625</LongitudeDegrees>
            </Position>
            <AltitudeMeters>589.20001220703125</AltitudeMeters>
            <DistanceMeters>8609.8119803073</DistanceMeters>
          </Trackpoint>
          <Trackpoint>
            <Time>2022-11-06T10:50:58.000Z</Time>
            <Position>
              <LatitudeDegrees>41.35459573008120059967041015625</LatitudeDegrees>
              <LongitudeDegrees>-1.65577515028417110443115234375</LongitudeDegrees>
            </Position>
            <AltitudeMeters>588.20001220703125</AltitudeMeters>
            <DistanceMeters>8615.9343856613</DistanceMeters>
          </Trackpoint>
          <Trackpoint>
            <Time>2022-11-06T10:50:59.000Z</Time>
            <Position>
              <LatitudeDegrees>41.3546216301620006561279296875</LatitudeDegrees>
              <LongitudeDegrees>-1.65573106147348880767822265625</LongitudeDegrees>
            </Position>
            <AltitudeMeters>587.20001220703125</AltitudeMeters>
            <DistanceMeters>8620.6129436977</DistanceMeters>
          </Trackpoint>
          <Trackpoint>
            <Time>2022-11-06T10:51:00.000Z</Time>
            <Position>
              <LatitudeDegrees>41.35464317165315151214599609375</LatitudeDegrees>
              <LongitudeDegrees>-1.6556969471275806427001953125</LongitudeDegrees>
            </Position>
            <AltitudeMeters>586.4000244140625</AltitudeMeters>
            <DistanceMeters>8624.3372150919</DistanceMeters>
          </Trackpoint>
          <Trackpoint>
            <Time>2022-11-06T10:51:01.000Z</Time>
            <Position>
              <LatitudeDegrees>41.3546581752598285675048828125</LatitudeDegrees>
              <LongitudeDegrees>-1.655677668750286102294921875</LongitudeDegrees>
            </Position>
            <AltitudeMeters>586</AltitudeMeters>
            <DistanceMeters>8626.6571128398</DistanceMeters>
          </Trackpoint>
          <Trackpoint>
            <Time>2022-11-06T10:51:02.000Z</Time>
            <Position>
              <LatitudeDegrees>41.35467435233294963836669921875</LatitudeDegrees>
              <LongitudeDegrees>-1.65566702373325824737548828125</LongitudeDegrees>
            </Position>
            <AltitudeMeters>585.5999755859375</AltitudeMeters>
            <DistanceMeters>8628.6639546607</DistanceMeters>
          </Trackpoint>
          <Trackpoint>
            <Time>2022-11-06T10:51:03.000Z</Time>
            <Position>
              <LatitudeDegrees>41.35468994267284870147705078125</LatitudeDegrees>
              <LongitudeDegrees>-1.65565981529653072357177734375</LongitudeDegrees>
            </Position>
            <AltitudeMeters>585.4000244140625</AltitudeMeters>
            <DistanceMeters>8630.5016838546</DistanceMeters>
          </Trackpoint>
          <Trackpoint>
            <Time>2022-11-06T10:51:04.000Z</Time>
            <Position>
              <LatitudeDegrees>41.35470737703144550323486328125</LatitudeDegrees>
              <LongitudeDegrees>-1.65565855801105499267578125</LongitudeDegrees>
            </Position>
            <AltitudeMeters>585.20001220703125</AltitudeMeters>
            <DistanceMeters>8632.4421842738</DistanceMeters>
          </Trackpoint>
          <Trackpoint>
            <Time>2022-11-06T10:51:05.000Z</Time>
            <Position>
              <LatitudeDegrees>41.3547210395336151123046875</LatitudeDegrees>
              <LongitudeDegrees>-1.6556630842387676239013671875</LongitudeDegrees>
            </Position>
            <AltitudeMeters>585.20001220703125</AltitudeMeters>
            <DistanceMeters>8634.0094049962</DistanceMeters>
          </Trackpoint>
          <Trackpoint>
            <Time>2022-11-06T10:51:06.000Z</Time>
            <Position>
              <LatitudeDegrees>41.354732103645801544189453125</LatitudeDegrees>
              <LongitudeDegrees>-1.6556761600077152252197265625</LongitudeDegrees>
            </Position>
            <AltitudeMeters>585.20001220703125</AltitudeMeters>
            <DistanceMeters>8635.6553159699</DistanceMeters>
          </Trackpoint>
          <Trackpoint>
            <Time>2022-11-06T10:51:09.000Z</Time>
            <Position>
              <LatitudeDegrees>41.3547108136117458343505859375</LatitudeDegrees>
              <LongitudeDegrees>-1.65575654245913028717041015625</LongitudeDegrees>
            </Position>
            <AltitudeMeters>585</AltitudeMeters>
            <DistanceMeters>8642.7772496529</DistanceMeters>
          </Trackpoint>
          <Trackpoint>
            <Time>2022-11-06T10:51:13.000Z</Time>
            <Position>
              <LatitudeDegrees>41.35468709282577037811279296875</LatitudeDegrees>
              <LongitudeDegrees>-1.655938513576984405517578125</LongitudeDegrees>
            </Position>
            <AltitudeMeters>585.4000244140625</AltitudeMeters>
            <DistanceMeters>8658.2081953709</DistanceMeters>
          </Trackpoint>
          <Trackpoint>
            <Time>2022-11-06T10:51:14.000Z</Time>
            <Position>
              <LatitudeDegrees>41.35468684136867523193359375</LatitudeDegrees>
              <LongitudeDegrees>-1.65597547776997089385986328125</LongitudeDegrees>
            </Position>
            <AltitudeMeters>585.5999755859375</AltitudeMeters>
            <DistanceMeters>8661.2961980789</DistanceMeters>
          </Trackpoint>
          <Trackpoint>
            <Time>2022-11-06T10:51:15.000Z</Time>
            <Position>
              <LatitudeDegrees>41.3546826504170894622802734375</LatitudeDegrees>
              <LongitudeDegrees>-1.6560131125152111053466796875</LongitudeDegrees>
            </Position>
            <AltitudeMeters>586</AltitudeMeters>
            <DistanceMeters>8664.4764002136</DistanceMeters>
          </Trackpoint>
          <Trackpoint>
            <Time>2022-11-06T10:51:16.000Z</Time>
            <Position>
              <LatitudeDegrees>41.35467820800840854644775390625</LatitudeDegrees>
              <LongitudeDegrees>-1.656055189669132232666015625</LongitudeDegrees>
            </Position>
            <AltitudeMeters>586.4000244140625</AltitudeMeters>
            <DistanceMeters>8668.0268912663</DistanceMeters>
          </Trackpoint>
          <Trackpoint>
            <Time>2022-11-06T10:51:17.000Z</Time>
            <Position>
              <LatitudeDegrees>41.3546735979616641998291015625</LatitudeDegrees>
              <LongitudeDegrees>-1.65609617717564105987548828125</LongitudeDegrees>
            </Position>
            <AltitudeMeters>586.5999755859375</AltitudeMeters>
            <DistanceMeters>8671.4898295444</DistanceMeters>
          </Trackpoint>
          <Trackpoint>
            <Time>2022-11-06T10:51:19.000Z</Time>
            <Position>
              <LatitudeDegrees>41.35466672480106353759765625</LatitudeDegrees>
              <LongitudeDegrees>-1.65617580525577068328857421875</LongitudeDegrees>
            </Position>
            <AltitudeMeters>587.20001220703125</AltitudeMeters>
            <DistanceMeters>8678.1863480145</DistanceMeters>
          </Trackpoint>
          <Trackpoint>
            <Time>2022-11-06T10:51:22.000Z</Time>
            <Position>
              <LatitudeDegrees>41.35464484803378582000732421875</LatitudeDegrees>
              <LongitudeDegrees>-1.656297929584980010986328125</LongitudeDegrees>
            </Position>
            <AltitudeMeters>587.79998779296875</AltitudeMeters>
            <DistanceMeters>8688.6763676306</DistanceMeters>
          </Trackpoint>
          <Trackpoint>
            <Time>2022-11-06T10:51:24.000Z</Time>
            <Position>
              <LatitudeDegrees>41.354636885225772857666015625</LatitudeDegrees>
              <LongitudeDegrees>-1.6563780605792999267578125</LongitudeDegrees>
            </Position>
            <AltitudeMeters>588.4000244140625</AltitudeMeters>
            <DistanceMeters>8695.429284485</DistanceMeters>
          </Trackpoint>
          <Trackpoint>
            <Time>2022-11-06T10:51:25.000Z</Time>
            <Position>
              <LatitudeDegrees>41.35463319718837738037109375</LatitudeDegrees>
              <LongitudeDegrees>-1.6564154438674449920654296875</LongitudeDegrees>
            </Position>
            <AltitudeMeters>588.5999755859375</AltitudeMeters>
            <DistanceMeters>8698.5809640512</DistanceMeters>
          </Trackpoint>
          <Trackpoint>
            <Time>2022-11-06T10:51:26.000Z</Time>
            <Position>
              <LatitudeDegrees>41.35462791658937931060791015625</LatitudeDegrees>
              <LongitudeDegrees>-1.65645173750817775726318359375</LongitudeDegrees>
            </Position>
            <AltitudeMeters>589</AltitudeMeters>
            <DistanceMeters>8701.6704285358</DistanceMeters>
          </Trackpoint>
          <Trackpoint>
            <Time>2022-11-06T10:51:27.000Z</Time>
            <Position>
              <LatitudeDegrees>41.3546259887516498565673828125</LatitudeDegrees>
              <LongitudeDegrees>-1.65648777969181537628173828125</LongitudeDegrees>
            </Position>
            <AltitudeMeters>589.4000244140625</AltitudeMeters>
            <DistanceMeters>8704.6904247623</DistanceMeters>
          </Trackpoint>
          <Trackpoint>
            <Time>2022-11-06T10:51:28.000Z</Time>
            <Position>
              <LatitudeDegrees>41.35462573729455471038818359375</LatitudeDegrees>
              <LongitudeDegrees>-1.656519882380962371826171875</LongitudeDegrees>
            </Position>
            <AltitudeMeters>589.4000244140625</AltitudeMeters>
            <DistanceMeters>8707.3748243232</DistanceMeters>
          </Trackpoint>
          <Trackpoint>
            <Time>2022-11-06T10:51:29.000Z</Time>
            <Position>
              <LatitudeDegrees>41.354626826941967010498046875</LatitudeDegrees>
              <LongitudeDegrees>-1.65654896758496761322021484375</LongitudeDegrees>
            </Position>
            <AltitudeMeters>589.5999755859375</AltitudeMeters>
            <DistanceMeters>8709.8086957551</DistanceMeters>
          </Trackpoint>
          <Trackpoint>
            <Time>2022-11-06T10:51:30.000Z</Time>
            <Position>
              <LatitudeDegrees>41.35462841950356960296630859375</LatitudeDegrees>
              <LongitudeDegrees>-1.656579561531543731689453125</LongitudeDegrees>
            </Position>
            <AltitudeMeters>589.79998779296875</AltitudeMeters>
            <DistanceMeters>8712.3691323386</DistanceMeters>
          </Trackpoint>
          <Trackpoint>
            <Time>2022-11-06T10:51:31.000Z</Time>
            <Position>
              <LatitudeDegrees>41.354628168046474456787109375</LatitudeDegrees>
              <LongitudeDegrees>-1.65661468170583248138427734375</LongitudeDegrees>
            </Position>
            <AltitudeMeters>590</AltitudeMeters>
            <DistanceMeters>8715.301133835</DistanceMeters>
          </Trackpoint>
          <Trackpoint>
            <Time>2022-11-06T10:51:32.000Z</Time>
            <Position>
              <LatitudeDegrees>41.3546293415129184722900390625</LatitudeDegrees>
              <LongitudeDegrees>-1.656652987003326416015625</LongitudeDegrees>
            </Position>
            <AltitudeMeters>590.20001220703125</AltitudeMeters>
            <DistanceMeters>8718.5039711459</DistanceMeters>
          </Trackpoint>
          <Trackpoint>
            <Time>2022-11-06T10:51:34.000Z</Time>
            <Position>
              <LatitudeDegrees>41.35463361628353595733642578125</LatitudeDegrees>
              <LongitudeDegrees>-1.65673219598829746246337890625</LongitudeDegrees>
            </Position>
            <AltitudeMeters>590.79998779296875</AltitudeMeters>
            <DistanceMeters>8725.1388503961</DistanceMeters>
          </Trackpoint>
          <Trackpoint>
            <Time>2022-11-06T10:51:35.000Z</Time>
            <Position>
              <LatitudeDegrees>41.35464199818670749664306640625</LatitudeDegrees>
              <LongitudeDegrees>-1.656772680580615997314453125</LongitudeDegrees>
            </Position>
            <AltitudeMeters>591</AltitudeMeters>
            <DistanceMeters>8728.6484122305</DistanceMeters>
          </Trackpoint>
          <Trackpoint>
            <Time>2022-11-06T10:51:36.000Z</Time>
            <Position>
              <LatitudeDegrees>41.35465574450790882110595703125</LatitudeDegrees>
              <LongitudeDegrees>-1.65681282989680767059326171875</LongitudeDegrees>
            </Position>
            <AltitudeMeters>591.20001220703125</AltitudeMeters>
            <DistanceMeters>8732.3349098974</DistanceMeters>
          </Trackpoint>
          <Trackpoint>
            <Time>2022-11-06T10:51:37.000Z</Time>
            <Position>
              <LatitudeDegrees>41.3546715863049030303955078125</LatitudeDegrees>
              <LongitudeDegrees>-1.6568506322801113128662109375</LongitudeDegrees>
            </Position>
            <AltitudeMeters>591.4000244140625</AltitudeMeters>
            <DistanceMeters>8735.9509229907</DistanceMeters>
          </Trackpoint>
          <Trackpoint>
            <Time>2022-11-06T10:51:38.000Z</Time>
            <Position>
              <LatitudeDegrees>41.354691870510578155517578125</LatitudeDegrees>
              <LongitudeDegrees>-1.65688742883503437042236328125</LongitudeDegrees>
            </Position>
            <AltitudeMeters>591.5999755859375</AltitudeMeters>
            <DistanceMeters>8739.7638514027</DistanceMeters>
          </Trackpoint>
          <Trackpoint>
            <Time>2022-11-06T10:51:39.000Z</Time>
            <Position>
              <LatitudeDegrees>41.3547111488878726959228515625</LatitudeDegrees>
              <LongitudeDegrees>-1.65692229755222797393798828125</LongitudeDegrees>
            </Position>
            <AltitudeMeters>591.79998779296875</AltitudeMeters>
            <DistanceMeters>8743.3811129038</DistanceMeters>
          </Trackpoint>
          <Trackpoint>
            <Time>2022-11-06T10:51:40.000Z</Time>
            <Position>
              <LatitudeDegrees>41.35472715832293033599853515625</LatitudeDegrees>
              <LongitudeDegrees>-1.656958423554897308349609375</LongitudeDegrees>
            </Position>
            <AltitudeMeters>592</AltitudeMeters>
            <DistanceMeters>8746.8855249748</DistanceMeters>
          </Trackpoint>
          <Trackpoint>
            <Time>2022-11-06T10:51:41.000Z</Time>
            <Position>
              <LatitudeDegrees>41.35474408976733684539794921875</LatitudeDegrees>
              <LongitudeDegrees>-1.65699538774788379669189453125</LongitudeDegrees>
            </Position>
            <AltitudeMeters>592.20001220703125</AltitudeMeters>
            <DistanceMeters>8750.504034453</DistanceMeters>
          </Trackpoint>
          <Trackpoint>
            <Time>2022-11-06T10:51:42.000Z</Time>
            <Position>
              <LatitudeDegrees>41.3547577522695064544677734375</LatitudeDegrees>
              <LongitudeDegrees>-1.6570333577692508697509765625</LongitudeDegrees>
            </Position>
            <AltitudeMeters>592.4000244140625</AltitudeMeters>
            <DistanceMeters>8754.022590237</DistanceMeters>
          </Trackpoint>
          <Trackpoint>
            <Time>2022-11-06T10:51:43.000Z</Time>
            <Position>
              <LatitudeDegrees>41.35477292351424694061279296875</LatitudeDegrees>
              <LongitudeDegrees>-1.657074429094791412353515625</LongitudeDegrees>
            </Position>
            <AltitudeMeters>592.4000244140625</AltitudeMeters>
            <DistanceMeters>8757.8461610501</DistanceMeters>
          </Trackpoint>
          <Trackpoint>
            <Time>2022-11-06T10:51:44.000Z</Time>
            <Position>
              <LatitudeDegrees>41.35479002259671688079833984375</LatitudeDegrees>
              <LongitudeDegrees>-1.65711524896323680877685546875</LongitudeDegrees>
            </Position>
            <AltitudeMeters>592.4000244140625</AltitudeMeters>
            <DistanceMeters>8761.7503599483</DistanceMeters>
          </Trackpoint>
          <Trackpoint>
            <Time>2022-11-06T10:51:45.000Z</Time>
            <Position>
              <LatitudeDegrees>41.35480821132659912109375</LatitudeDegrees>
              <LongitudeDegrees>-1.6571550630033016204833984375</LongitudeDegrees>
            </Position>
            <AltitudeMeters>592.4000244140625</AltitudeMeters>
            <DistanceMeters>8765.6452962027</DistanceMeters>
          </Trackpoint>
          <Trackpoint>
            <Time>2022-11-06T10:51:46.000Z</Time>
            <Position>
              <LatitudeDegrees>41.35482673533260822296142578125</LatitudeDegrees>
              <LongitudeDegrees>-1.65719722397625446319580078125</LongitudeDegrees>
            </Position>
            <AltitudeMeters>592.5999755859375</AltitudeMeters>
            <DistanceMeters>8769.7270226805</DistanceMeters>
          </Trackpoint>
          <Trackpoint>
            <Time>2022-11-06T10:51:47.000Z</Time>
            <Position>
              <LatitudeDegrees>41.35484551079571247100830078125</LatitudeDegrees>
              <LongitudeDegrees>-1.6572412289679050445556640625</LongitudeDegrees>
            </Position>
            <AltitudeMeters>592.5999755859375</AltitudeMeters>
            <DistanceMeters>8773.9554445326</DistanceMeters>
          </Trackpoint>
          <Trackpoint>
            <Time>2022-11-06T10:51:48.000Z</Time>
            <Position>
              <LatitudeDegrees>41.35486177168786525726318359375</LatitudeDegrees>
              <LongitudeDegrees>-1.65728456340730190277099609375</LongitudeDegrees>
            </Position>
            <AltitudeMeters>592.5999755859375</AltitudeMeters>
            <DistanceMeters>8778.0027348198</DistanceMeters>
          </Trackpoint>
          <Trackpoint>
            <Time>2022-11-06T10:51:49.000Z</Time>
            <Position>
              <LatitudeDegrees>41.354876942932605743408203125</LatitudeDegrees>
              <LongitudeDegrees>-1.6573290713131427764892578125</LongitudeDegrees>
            </Position>
            <AltitudeMeters>592.79998779296875</AltitudeMeters>
            <DistanceMeters>8782.0866730162</DistanceMeters>
          </Trackpoint>
          <Trackpoint>
            <Time>2022-11-06T10:51:50.000Z</Time>
            <Position>
              <LatitudeDegrees>41.3548864983022212982177734375</LatitudeDegrees>
              <LongitudeDegrees>-1.65737391449511051177978515625</LongitudeDegrees>
            </Position>
            <AltitudeMeters>592.79998779296875</AltitudeMeters>
            <DistanceMeters>8785.9816092706</DistanceMeters>
          </Trackpoint>
          <Trackpoint>
            <Time>2022-11-06T10:51:51.000Z</Time>
            <Position>
              <LatitudeDegrees>41.35489714331924915313720703125</LatitudeDegrees>
              <LongitudeDegrees>-1.65742211043834686279296875</LongitudeDegrees>
            </Position>
            <AltitudeMeters>592.79998779296875</AltitudeMeters>
            <DistanceMeters>8790.1789511845</DistanceMeters>
          </Trackpoint>
          <Trackpoint>
            <Time>2022-11-06T10:51:52.000Z</Time>
            <Position>
              <LatitudeDegrees>41.354905776679515838623046875</LatitudeDegrees>
              <LongitudeDegrees>-1.65747114457190036773681640625</LongitudeDegrees>
            </Position>
            <AltitudeMeters>593</AltitudeMeters>
            <DistanceMeters>8794.3859631681</DistanceMeters>
          </Trackpoint>
          <Trackpoint>
            <Time>2022-11-06T10:51:53.000Z</Time>
            <Position>
              <LatitudeDegrees>41.354915164411067962646484375</LatitudeDegrees>
              <LongitudeDegrees>-1.65752177126705646514892578125</LongitudeDegrees>
            </Position>
            <AltitudeMeters>593</AltitudeMeters>
            <DistanceMeters>8798.742707444</DistanceMeters>
          </Trackpoint>
          <Trackpoint>
            <Time>2022-11-06T10:51:54.000Z</Time>
            <Position>
              <LatitudeDegrees>41.35492363013327121734619140625</LatitudeDegrees>
              <LongitudeDegrees>-1.6575741581618785858154296875</LongitudeDegrees>
            </Position>
            <AltitudeMeters>593</AltitudeMeters>
            <DistanceMeters>8803.2190608292</DistanceMeters>
          </Trackpoint>
          <Trackpoint>
            <Time>2022-11-06T10:51:55.000Z</Time>
            <Position>
              <LatitudeDegrees>41.3549324311316013336181640625</LatitudeDegrees>
              <LongitudeDegrees>-1.65762604214251041412353515625</LongitudeDegrees>
            </Position>
            <AltitudeMeters>593</AltitudeMeters>
            <DistanceMeters>8807.6640363363</DistanceMeters>
          </Trackpoint>
          <Trackpoint>
            <Time>2022-11-06T10:51:56.000Z</Time>
            <Position>
              <LatitudeDegrees>41.35494324378669261932373046875</LatitudeDegrees>
              <LongitudeDegrees>-1.6576757468283176422119140625</LongitudeDegrees>
            </Position>
            <AltitudeMeters>593</AltitudeMeters>
            <DistanceMeters>8811.9874907699</DistanceMeters>
          </Trackpoint>
          <Trackpoint>
            <Time>2022-11-06T10:51:57.000Z</Time>
            <Position>
              <LatitudeDegrees>41.3549543917179107666015625</LatitudeDegrees>
              <LongitudeDegrees>-1.6577257029712200164794921875</LongitudeDegrees>
            </Position>
            <AltitudeMeters>593</AltitudeMeters>
            <DistanceMeters>8816.3421618863</DistanceMeters>
          </Trackpoint>
          <Trackpoint>
            <Time>2022-11-06T10:51:58.000Z</Time>
            <Position>
              <LatitudeDegrees>41.35496386326849460601806640625</LatitudeDegrees>
              <LongitudeDegrees>-1.6577716358006000518798828125</LongitudeDegrees>
            </Position>
            <AltitudeMeters>593</AltitudeMeters>
            <DistanceMeters>8820.3219551074</DistanceMeters>
          </Trackpoint>
          <Trackpoint>
            <Time>2022-11-06T10:51:59.000Z</Time>
            <Position>
              <LatitudeDegrees>41.3549686409533023834228515625</LatitudeDegrees>
              <LongitudeDegrees>-1.6578202508389949798583984375</LongitudeDegrees>
            </Position>
            <AltitudeMeters>593.20001220703125</AltitudeMeters>
            <DistanceMeters>8824.4191385435</DistanceMeters>
          </Trackpoint>
          <Trackpoint>
            <Time>2022-11-06T10:52:00.000Z</Time>
            <Position>
              <LatitudeDegrees>41.35497710667550563812255859375</LatitudeDegrees>
              <LongitudeDegrees>-1.65786601603031158447265625</LongitudeDegrees>
            </Position>
            <AltitudeMeters>593.4000244140625</AltitudeMeters>
            <DistanceMeters>8828.3578783586</DistanceMeters>
          </Trackpoint>
          <Trackpoint>
            <Time>2022-11-06T10:52:01.000Z</Time>
            <Position>
              <LatitudeDegrees>41.354987919330596923828125</LatitudeDegrees>
              <LongitudeDegrees>-1.657913289964199066162109375</LongitudeDegrees>
            </Position>
            <AltitudeMeters>593.4000244140625</AltitudeMeters>
            <DistanceMeters>8832.4879890596</DistanceMeters>
          </Trackpoint>
          <Trackpoint>
            <Time>2022-11-06T10:52:02.000Z</Time>
            <Position>
              <LatitudeDegrees>41.35500225238502025604248046875</LatitudeDegrees>
              <LongitudeDegrees>-1.657960899174213409423828125</LongitudeDegrees>
            </Position>
            <AltitudeMeters>593.5999755859375</AltitudeMeters>
            <DistanceMeters>8836.7736833426</DistanceMeters>
          </Trackpoint>
          <Trackpoint>
            <Time>2022-11-06T10:52:03.000Z</Time>
            <Position>
              <LatitudeDegrees>41.35501943528652191162109375</LatitudeDegrees>
              <LongitudeDegrees>-1.65801429189741611480712890625</LongitudeDegrees>
            </Position>
            <AltitudeMeters>593.5999755859375</AltitudeMeters>
            <DistanceMeters>8841.6274931289</DistanceMeters>
          </Trackpoint>
          <Trackpoint>
            <Time>2022-11-06T10:52:04.000Z</Time>
            <Position>
              <LatitudeDegrees>41.35503259487450122833251953125</LatitudeDegrees>
              <LongitudeDegrees>-1.6580747254192829132080078125</LongitudeDegrees>
            </Position>
            <AltitudeMeters>593.5999755859375</AltitudeMeters>
            <DistanceMeters>8846.8849700899</DistanceMeters>
          </Trackpoint>
          <Trackpoint>
            <Time>2022-11-06T10:52:06.000Z</Time>
            <Position>
              <LatitudeDegrees>41.355055309832096099853515625</LatitudeDegrees>
              <LongitudeDegrees>-1.658208668231964111328125</LongitudeDegrees>
            </Position>
            <AltitudeMeters>593.5999755859375</AltitudeMeters>
            <DistanceMeters>8858.3576504327</DistanceMeters>
          </Trackpoint>
          <Trackpoint>
            <Time>2022-11-06T10:52:10.000Z</Time>
            <Position>
              <LatitudeDegrees>41.355056650936603546142578125</LatitudeDegrees>
              <LongitudeDegrees>-1.65848434902727603912353515625</LongitudeDegrees>
            </Position>
            <AltitudeMeters>593.4000244140625</AltitudeMeters>
            <DistanceMeters>8881.3902128374</DistanceMeters>
          </Trackpoint>
          <Trackpoint>
            <Time>2022-11-06T10:52:11.000Z</Time>
            <Position>
              <LatitudeDegrees>41.3550491072237491607666015625</LatitudeDegrees>
              <LongitudeDegrees>-1.65854838676750659942626953125</LongitudeDegrees>
            </Position>
            <AltitudeMeters>593.5999755859375</AltitudeMeters>
            <DistanceMeters>8886.8059019247</DistanceMeters>
          </Trackpoint>
          <Trackpoint>
            <Time>2022-11-06T10:52:12.000Z</Time>
            <Position>
              <LatitudeDegrees>41.3550397194921970367431640625</LatitudeDegrees>
              <LongitudeDegrees>-1.65860940702259540557861328125</LongitudeDegrees>
            </Position>
            <AltitudeMeters>593.5999755859375</AltitudeMeters>
            <DistanceMeters>8892.0089941956</DistanceMeters>
          </Trackpoint>
          <Trackpoint>
            <Time>2022-11-06T10:52:15.000Z</Time>
            <Position>
              <LatitudeDegrees>41.35500174947082996368408203125</LatitudeDegrees>
              <LongitudeDegrees>-1.65878735482692718505859375</LongitudeDegrees>
            </Position>
            <AltitudeMeters>593.79998779296875</AltitudeMeters>
            <DistanceMeters>8907.464790592</DistanceMeters>
          </Trackpoint>
          <Trackpoint>
            <Time>2022-11-06T10:52:17.000Z</Time>
            <Position>
              <LatitudeDegrees>41.3549904339015483856201171875</LatitudeDegrees>
              <LongitudeDegrees>-1.6589223034679889678955078125</LongitudeDegrees>
            </Position>
            <AltitudeMeters>594.20001220703125</AltitudeMeters>
            <DistanceMeters>8918.8092451615</DistanceMeters>
          </Trackpoint>
          <Trackpoint>
            <Time>2022-11-06T10:52:18.000Z</Time>
            <Position>
              <LatitudeDegrees>41.3549904339015483856201171875</LatitudeDegrees>
              <LongitudeDegrees>-1.65898357518017292022705078125</LongitudeDegrees>
            </Position>
            <AltitudeMeters>594.20001220703125</AltitudeMeters>
            <DistanceMeters>8923.9283546388</DistanceMeters>
          </Trackpoint>
          <Trackpoint>
            <Time>2022-11-06T10:52:19.000Z</Time>
            <Position>
              <LatitudeDegrees>41.3549946248531341552734375</LatitudeDegrees>
              <LongitudeDegrees>-1.65903202258050441741943359375</LongitudeDegrees>
            </Position>
            <AltitudeMeters>594.4000244140625</AltitudeMeters>
            <DistanceMeters>8928.0034387582</DistanceMeters>
          </Trackpoint>
          <Trackpoint>
            <Time>2022-11-06T10:52:20.000Z</Time>
            <Position>
              <LatitudeDegrees>41.3550035096704959869384765625</LatitudeDegrees>
              <LongitudeDegrees>-1.659102179110050201416015625</LongitudeDegrees>
            </Position>
            <AltitudeMeters>594.4000244140625</AltitudeMeters>
            <DistanceMeters>8933.947737634</DistanceMeters>
          </Trackpoint>
          <Trackpoint>
            <Time>2022-11-06T10:52:21.000Z</Time>
            <Position>
              <LatitudeDegrees>41.35501918382942676544189453125</LatitudeDegrees>
              <LongitudeDegrees>-1.6591523028910160064697265625</LongitudeDegrees>
            </Position>
            <AltitudeMeters>594.4000244140625</AltitudeMeters>
            <DistanceMeters>8938.4842058876</DistanceMeters>
          </Trackpoint>
          <Trackpoint>
            <Time>2022-11-06T10:52:22.000Z</Time>
            <Position>
              <LatitudeDegrees>41.3550390489399433135986328125</LatitudeDegrees>
              <LongitudeDegrees>-1.6591989062726497650146484375</LongitudeDegrees>
            </Position>
            <AltitudeMeters>594.4000244140625</AltitudeMeters>
            <DistanceMeters>8942.9615678012</DistanceMeters>
          </Trackpoint>
          <Trackpoint>
            <Time>2022-11-06T10:52:23.000Z</Time>
            <Position>
              <LatitudeDegrees>41.35505924932658672332763671875</LatitudeDegrees>
              <LongitudeDegrees>-1.65923536755144596099853515625</LongitudeDegrees>
            </Position>
            <AltitudeMeters>594.79998779296875</AltitudeMeters>
            <DistanceMeters>8946.7483555419</DistanceMeters>
          </Trackpoint>
          <Trackpoint>
            <Time>2022-11-06T10:52:24.000Z</Time>
            <Position>
              <LatitudeDegrees>41.35508271865546703338623046875</LatitudeDegrees>
              <LongitudeDegrees>-1.6592783667147159576416015625</LongitudeDegrees>
            </Position>
            <AltitudeMeters>595.20001220703125</AltitudeMeters>
            <DistanceMeters>8951.1902827172</DistanceMeters>
          </Trackpoint>
          <Trackpoint>
            <Time>2022-11-06T10:52:25.000Z</Time>
            <Position>
              <LatitudeDegrees>41.3551040925085544586181640625</LatitudeDegrees>
              <LongitudeDegrees>-1.65932136587798595428466796875</LongitudeDegrees>
            </Position>
            <AltitudeMeters>595.4000244140625</AltitudeMeters>
            <DistanceMeters>8955.499091969</DistanceMeters>
          </Trackpoint>
          <Trackpoint>
            <Time>2022-11-06T10:52:26.000Z</Time>
            <Position>
              <LatitudeDegrees>41.35513016022741794586181640625</LatitudeDegrees>
              <LongitudeDegrees>-1.65937073528766632080078125</LongitudeDegrees>
            </Position>
            <AltitudeMeters>595.5999755859375</AltitudeMeters>
            <DistanceMeters>8960.541779275</DistanceMeters>
          </Trackpoint>
          <Trackpoint>
            <Time>2022-11-06T10:52:27.000Z</Time>
            <Position>
              <LatitudeDegrees>41.3551475107669830322265625</LatitudeDegrees>
              <LongitudeDegrees>-1.65940250270068645477294921875</LongitudeDegrees>
            </Position>
            <AltitudeMeters>595.79998779296875</AltitudeMeters>
            <DistanceMeters>8963.8239860323</DistanceMeters>
          </Trackpoint>
          <Trackpoint>
            <Time>2022-11-06T10:52:28.000Z</Time>
            <Position>
              <LatitudeDegrees>41.35517098009586334228515625</LatitudeDegrees>
              <LongitudeDegrees>-1.659441478550434112548828125</LongitudeDegrees>
            </Position>
            <AltitudeMeters>596</AltitudeMeters>
            <DistanceMeters>8967.9986773427</DistanceMeters>
          </Trackpoint>
          <Trackpoint>
            <Time>2022-11-06T10:52:29.000Z</Time>
            <Position>
              <LatitudeDegrees>41.355197131633758544921875</LatitudeDegrees>
              <LongitudeDegrees>-1.65949034504592418670654296875</LongitudeDegrees>
            </Position>
            <AltitudeMeters>596</AltitudeMeters>
            <DistanceMeters>8973.0126311538</DistanceMeters>
          </Trackpoint>
          <Trackpoint>
            <Time>2022-11-06T10:52:30.000Z</Time>
            <Position>
              <LatitudeDegrees>41.3552137278020381927490234375</LatitudeDegrees>
              <LongitudeDegrees>-1.65952571667730808258056640625</LongitudeDegrees>
            </Position>
            <AltitudeMeters>596.20001220703125</AltitudeMeters>
            <DistanceMeters>8976.4989591495</DistanceMeters>
          </Trackpoint>
          <Trackpoint>
            <Time>2022-11-06T10:52:31.000Z</Time>
            <Position>
              <LatitudeDegrees>41.35523510165512561798095703125</LatitudeDegrees>
              <LongitudeDegrees>-1.659580953419208526611328125</LongitudeDegrees>
            </Position>
            <AltitudeMeters>596.4000244140625</AltitudeMeters>
            <DistanceMeters>8981.6916278527</DistanceMeters>
          </Trackpoint>
          <Trackpoint>
            <Time>2022-11-06T10:52:32.000Z</Time>
            <Position>
              <LatitudeDegrees>41.35525052435696125030517578125</LatitudeDegrees>
              <LongitudeDegrees>-1.65961749851703643798828125</LongitudeDegrees>
            </Position>
            <AltitudeMeters>596.4000244140625</AltitudeMeters>
            <DistanceMeters>8985.1934622022</DistanceMeters>
          </Trackpoint>
          <Trackpoint>
            <Time>2022-11-06T10:52:33.000Z</Time>
            <Position>
              <LatitudeDegrees>41.355269886553287506103515625</LatitudeDegrees>
              <LongitudeDegrees>-1.659667789936065673828125</LongitudeDegrees>
            </Position>
            <AltitudeMeters>596.5999755859375</AltitudeMeters>
            <DistanceMeters>8989.9152477479</DistanceMeters>
          </Trackpoint>
          <Trackpoint>
            <Time>2022-11-06T10:52:34.000Z</Time>
            <Position>
              <LatitudeDegrees>41.35528723709285259246826171875</LatitudeDegrees>
              <LongitudeDegrees>-1.6597165726125240325927734375</LongitudeDegrees>
            </Position>
            <AltitudeMeters>596.5999755859375</AltitudeMeters>
            <DistanceMeters>8994.4247634815</DistanceMeters>
          </Trackpoint>
          <Trackpoint>
            <Time>2022-11-06T10:52:35.000Z</Time>
            <Position>
              <LatitudeDegrees>41.3553022406995296478271484375</LatitudeDegrees>
              <LongitudeDegrees>-1.65976527146995067596435546875</LongitudeDegrees>
            </Position>
            <AltitudeMeters>597</AltitudeMeters>
            <DistanceMeters>8998.8227657261</DistanceMeters>
          </Trackpoint>
          <Trackpoint>
            <Time>2022-11-06T10:52:36.000Z</Time>
            <Position>
              <LatitudeDegrees>41.355318836867809295654296875</LatitudeDegrees>
              <LongitudeDegrees>-1.65981338359415531158447265625</LongitudeDegrees>
            </Position>
            <AltitudeMeters>597</AltitudeMeters>
            <DistanceMeters>9003.2473793511</DistanceMeters>
          </Trackpoint>
          <Trackpoint>
            <Time>2022-11-06T10:52:37.000Z</Time>
            <Position>
              <LatitudeDegrees>41.35533501394093036651611328125</LatitudeDegrees>
              <LongitudeDegrees>-1.65985831059515476226806640625</LongitudeDegrees>
            </Position>
            <AltitudeMeters>597.20001220703125</AltitudeMeters>
            <DistanceMeters>9007.4112413531</DistanceMeters>
          </Trackpoint>
          <Trackpoint>
            <Time>2022-11-06T10:52:38.000Z</Time>
            <Position>
              <LatitudeDegrees>41.3553515262901782989501953125</LatitudeDegrees>
              <LongitudeDegrees>-1.6599039919674396514892578125</LongitudeDegrees>
            </Position>
            <AltitudeMeters>597.4000244140625</AltitudeMeters>
            <DistanceMeters>9011.6471310937</DistanceMeters>
          </Trackpoint>
          <Trackpoint>
            <Time>2022-11-06T10:52:39.000Z</Time>
            <Position>
              <LatitudeDegrees>41.35536770336329936981201171875</LatitudeDegrees>
              <LongitudeDegrees>-1.6599479131400585174560546875</LongitudeDegrees>
            </Position>
            <AltitudeMeters>597.5999755859375</AltitudeMeters>
            <DistanceMeters>9015.734384624</DistanceMeters>
          </Trackpoint>
          <Trackpoint>
            <Time>2022-11-06T10:52:40.000Z</Time>
            <Position>
              <LatitudeDegrees>41.3553850539028644561767578125</LatitudeDegrees>
              <LongitudeDegrees>-1.65999107994139194488525390625</LongitudeDegrees>
            </Position>
            <AltitudeMeters>597.5999755859375</AltitudeMeters>
            <DistanceMeters>9019.8238468838</DistanceMeters>
          </Trackpoint>
          <Trackpoint>
            <Time>2022-11-06T10:52:41.000Z</Time>
            <Position>
              <LatitudeDegrees>41.35540441609919071197509765625</LatitudeDegrees>
              <LongitudeDegrees>-1.6600347496569156646728515625</LongitudeDegrees>
            </Position>
            <AltitudeMeters>597.79998779296875</AltitudeMeters>
            <DistanceMeters>9024.0618678898</DistanceMeters>
          </Trackpoint>
          <Trackpoint>
            <Time>2022-11-06T10:52:42.000Z</Time>
            <Position>
              <LatitudeDegrees>41.35542042553424835205078125</LatitudeDegrees>
              <LongitudeDegrees>-1.66008210740983486175537109375</LongitudeDegrees>
            </Position>
            <AltitudeMeters>597.79998779296875</AltitudeMeters>
            <DistanceMeters>9028.4019991622</DistanceMeters>
          </Trackpoint>
          <Trackpoint>
            <Time>2022-11-06T10:52:43.000Z</Time>
            <Position>
              <LatitudeDegrees>41.35543140582740306854248046875</LatitudeDegrees>
              <LongitudeDegrees>-1.660132147371768951416015625</LongitudeDegrees>
            </Position>
            <AltitudeMeters>597.79998779296875</AltitudeMeters>
            <DistanceMeters>9032.7566702787</DistanceMeters>
          </Trackpoint>
          <Trackpoint>
            <Time>2022-11-06T10:52:44.000Z</Time>
            <Position>
              <LatitudeDegrees>41.3554373569786548614501953125</LatitudeDegrees>
              <LongitudeDegrees>-1.660182774066925048828125</LongitudeDegrees>
            </Position>
            <AltitudeMeters>598.20001220703125</AltitudeMeters>
            <DistanceMeters>9037.0381484325</DistanceMeters>
          </Trackpoint>
          <Trackpoint>
            <Time>2022-11-06T10:52:45.000Z</Time>
            <Position>
              <LatitudeDegrees>41.35544054210186004638671875</LatitudeDegrees>
              <LongitudeDegrees>-1.66023197583854198455810546875</LongitudeDegrees>
            </Position>
            <AltitudeMeters>598.4000244140625</AltitudeMeters>
            <DistanceMeters>9041.1649782294</DistanceMeters>
          </Trackpoint>
          <Trackpoint>
            <Time>2022-11-06T10:52:46.000Z</Time>
            <Position>
              <LatitudeDegrees>41.35544188320636749267578125</LatitudeDegrees>
              <LongitudeDegrees>-1.66028939187526702880859375</LongitudeDegrees>
            </Position>
            <AltitudeMeters>598.5999755859375</AltitudeMeters>
            <DistanceMeters>9045.9635920847</DistanceMeters>
          </Trackpoint>
          <Trackpoint>
            <Time>2022-11-06T10:52:47.000Z</Time>
            <Position>
              <LatitudeDegrees>41.35543911717832088470458984375</LatitudeDegrees>
              <LongitudeDegrees>-1.660327948629856109619140625</LongitudeDegrees>
            </Position>
            <AltitudeMeters>598.79998779296875</AltitudeMeters>
            <DistanceMeters>9049.1986900119</DistanceMeters>
          </Trackpoint>
          <Trackpoint>
            <Time>2022-11-06T10:52:48.000Z</Time>
            <Position>
              <LatitudeDegrees>41.355432160198688507080078125</LatitudeDegrees>
              <LongitudeDegrees>-1.66037647984921932220458984375</LongitudeDegrees>
            </Position>
            <AltitudeMeters>598.79998779296875</AltitudeMeters>
            <DistanceMeters>9053.3255198089</DistanceMeters>
          </Trackpoint>
          <Trackpoint>
            <Time>2022-11-06T10:52:49.000Z</Time>
            <Position>
              <LatitudeDegrees>41.35542176663875579833984375</LatitudeDegrees>
              <LongitudeDegrees>-1.6604246757924556732177734375</LongitudeDegrees>
            </Position>
            <AltitudeMeters>598.79998779296875</AltitudeMeters>
            <DistanceMeters>9057.5153251274</DistanceMeters>
          </Trackpoint>
          <Trackpoint>
            <Time>2022-11-06T10:52:50.000Z</Time>
            <Position>
              <LatitudeDegrees>41.35540994815528392791748046875</LatitudeDegrees>
              <LongitudeDegrees>-1.6604711115360260009765625</LongitudeDegrees>
            </Position>
            <AltitudeMeters>599</AltitudeMeters>
            <DistanceMeters>9061.6114064295</DistanceMeters>
          </Trackpoint>
          <Trackpoint>
            <Time>2022-11-06T10:52:51.000Z</Time>
            <Position>
              <LatitudeDegrees>41.35539494454860687255859375</LatitudeDegrees>
              <LongitudeDegrees>-1.66052542626857757568359375</LongitudeDegrees>
            </Position>
            <AltitudeMeters>599</AltitudeMeters>
            <DistanceMeters>9066.4456424432</DistanceMeters>
          </Trackpoint>
          <Trackpoint>
            <Time>2022-11-06T10:52:52.000Z</Time>
            <Position>
              <LatitudeDegrees>41.3553813658654689788818359375</LatitudeDegrees>
              <LongitudeDegrees>-1.66056163609027862548828125</LongitudeDegrees>
            </Position>
            <AltitudeMeters>599.20001220703125</AltitudeMeters>
            <DistanceMeters>9069.8267778706</DistanceMeters>
          </Trackpoint>
          <Trackpoint>
            <Time>2022-11-06T10:52:53.000Z</Time>
            <Position>
              <LatitudeDegrees>41.35536552406847476959228515625</LatitudeDegrees>
              <LongitudeDegrees>-1.6606070660054683685302734375</LongitudeDegrees>
            </Position>
            <AltitudeMeters>599.20001220703125</AltitudeMeters>
            <DistanceMeters>9074.0111915959</DistanceMeters>
          </Trackpoint>
          <Trackpoint>
            <Time>2022-11-06T10:52:54.000Z</Time>
            <Position>
              <LatitudeDegrees>41.35534959845244884490966796875</LatitudeDegrees>
              <LongitudeDegrees>-1.6606516577303409576416015625</LongitudeDegrees>
            </Position>
            <AltitudeMeters>599.20001220703125</AltitudeMeters>
            <DistanceMeters>9078.1369271784</DistanceMeters>
          </Trackpoint>
          <Trackpoint>
            <Time>2022-11-06T10:52:55.000Z</Time>
            <Position>
              <LatitudeDegrees>41.3553314097225666046142578125</LatitudeDegrees>
              <LongitudeDegrees>-1.66069951839745044708251953125</LongitudeDegrees>
            </Position>
            <AltitudeMeters>599.20001220703125</AltitudeMeters>
            <DistanceMeters>9082.6183209361</DistanceMeters>
          </Trackpoint>
          <Trackpoint>
            <Time>2022-11-06T10:52:56.000Z</Time>
            <Position>
              <LatitudeDegrees>41.35531540028750896453857421875</LatitudeDegrees>
              <LongitudeDegrees>-1.6607438586652278900146484375</LongitudeDegrees>
            </Position>
            <AltitudeMeters>599.4000244140625</AltitudeMeters>
            <DistanceMeters>9086.7298052305</DistanceMeters>
          </Trackpoint>
          <Trackpoint>
            <Time>2022-11-06T10:52:57.000Z</Time>
            <Position>
              <LatitudeDegrees>41.3552982173860073089599609375</LatitudeDegrees>
              <LongitudeDegrees>-1.660791300237178802490234375</LongitudeDegrees>
            </Position>
            <AltitudeMeters>599.5999755859375</AltitudeMeters>
            <DistanceMeters>9091.1308862309</DistanceMeters>
          </Trackpoint>
          <Trackpoint>
            <Time>2022-11-06T10:52:58.000Z</Time>
            <Position>
              <LatitudeDegrees>41.35527692735195159912109375</LatitudeDegrees>
              <LongitudeDegrees>-1.66084603406488895416259765625</LongitudeDegrees>
            </Position>
            <AltitudeMeters>599.5999755859375</AltitudeMeters>
            <DistanceMeters>9096.281649727</DistanceMeters>
          </Trackpoint>
          <Trackpoint>
            <Time>2022-11-06T10:52:59.000Z</Time>
            <Position>
              <LatitudeDegrees>41.3552636839449405670166015625</LatitudeDegrees>
              <LongitudeDegrees>-1.6608823277056217193603515625</LongitudeDegrees>
            </Position>
            <AltitudeMeters>599.79998779296875</AltitudeMeters>
            <DistanceMeters>9099.6520853319</DistanceMeters>
          </Trackpoint>
          <Trackpoint>
            <Time>2022-11-06T10:53:00.000Z</Time>
            <Position>
              <LatitudeDegrees>41.35524750687181949615478515625</LatitudeDegrees>
              <LongitudeDegrees>-1.6609252430498600006103515625</LongitudeDegrees>
            </Position>
            <AltitudeMeters>599.79998779296875</AltitudeMeters>
            <DistanceMeters>9103.66351852</DistanceMeters>
          </Trackpoint>
          <Trackpoint>
            <Time>2022-11-06T10:53:01.000Z</Time>
            <Position>
              <LatitudeDegrees>41.3552311621606349945068359375</LatitudeDegrees>
              <LongitudeDegrees>-1.660967655479907989501953125</LongitudeDegrees>
            </Position>
            <AltitudeMeters>599.79998779296875</AltitudeMeters>
            <DistanceMeters>9107.646713759</DistanceMeters>
          </Trackpoint>
          <Trackpoint>
            <Time>2022-11-06T10:53:02.000Z</Time>
            <Position>
              <LatitudeDegrees>41.35521481744945049285888671875</LatitudeDegrees>
              <LongitudeDegrees>-1.66101065464317798614501953125</LongitudeDegrees>
            </Position>
            <AltitudeMeters>600</AltitudeMeters>
            <DistanceMeters>9111.6738737128</DistanceMeters>
          </Trackpoint>
          <Trackpoint>
            <Time>2022-11-06T10:53:03.000Z</Time>
            <Position>
              <LatitudeDegrees>41.35519755072891712188720703125</LatitudeDegrees>
              <LongitudeDegrees>-1.66105893440544605255126953125</LongitudeDegrees>
            </Position>
            <AltitudeMeters>600</AltitudeMeters>
            <DistanceMeters>9116.1431610267</DistanceMeters>
          </Trackpoint>
          <Trackpoint>
            <Time>2022-11-06T10:53:04.000Z</Time>
            <Position>
              <LatitudeDegrees>41.3551848940551280975341796875</LatitudeDegrees>
              <LongitudeDegrees>-1.66109162382781505584716796875</LongitudeDegrees>
            </Position>
            <AltitudeMeters>600</AltitudeMeters>
            <DistanceMeters>9119.2165077303</DistanceMeters>
          </Trackpoint>
          <Trackpoint>
            <Time>2022-11-06T10:53:05.000Z</Time>
            <Position>
              <LatitudeDegrees>41.3551718182861804962158203125</LatitudeDegrees>
              <LongitudeDegrees>-1.6611324436962604522705078125</LongitudeDegrees>
            </Position>
            <AltitudeMeters>600.20001220703125</AltitudeMeters>
            <DistanceMeters>9122.9237676817</DistanceMeters>
          </Trackpoint>
          <Trackpoint>
            <Time>2022-11-06T10:53:06.000Z</Time>
            <Position>
              <LatitudeDegrees>41.35515228845179080963134765625</LatitudeDegrees>
              <LongitudeDegrees>-1.66118231602013111114501953125</LongitudeDegrees>
            </Position>
            <AltitudeMeters>600.20001220703125</AltitudeMeters>
            <DistanceMeters>9127.6215870513</DistanceMeters>
          </Trackpoint>
          <Trackpoint>
            <Time>2022-11-06T10:53:07.000Z</Time>
            <Position>
              <LatitudeDegrees>41.35513820685446262359619140625</LatitudeDegrees>
              <LongitudeDegrees>-1.66121550835669040679931640625</LongitudeDegrees>
            </Position>
            <AltitudeMeters>600.4000244140625</AltitudeMeters>
            <DistanceMeters>9130.8046273856</DistanceMeters>
          </Trackpoint>
          <Trackpoint>
            <Time>2022-11-06T10:53:08.000Z</Time>
            <Position>
              <LatitudeDegrees>41.35512144304811954498291015625</LatitudeDegrees>
              <LongitudeDegrees>-1.6612568311393260955810546875</LongitudeDegrees>
            </Position>
            <AltitudeMeters>600.4000244140625</AltitudeMeters>
            <DistanceMeters>9134.7272859561</DistanceMeters>
          </Trackpoint>
          <Trackpoint>
            <Time>2022-11-06T10:53:09.000Z</Time>
            <Position>
              <LatitudeDegrees>41.35510568507015705108642578125</LatitudeDegrees>
              <LongitudeDegrees>-1.66130385361611843109130859375</LongitudeDegrees>
            </Position>
            <AltitudeMeters>600.4000244140625</AltitudeMeters>
            <DistanceMeters>9139.0287539188</DistanceMeters>
          </Trackpoint>
          <Trackpoint>
            <Time>2022-11-06T10:53:10.000Z</Time>
            <Position>
              <LatitudeDegrees>41.3550977222621440887451171875</LatitudeDegrees>
              <LongitudeDegrees>-1.66133637540042400360107421875</LongitudeDegrees>
            </Position>
            <AltitudeMeters>600.5999755859375</AltitudeMeters>
            <DistanceMeters>9141.8874632747</DistanceMeters>
          </Trackpoint>
          <Trackpoint>
            <Time>2022-11-06T10:53:11.000Z</Time>
            <Position>
              <LatitudeDegrees>41.35508917272090911865234375</LatitudeDegrees>
              <LongitudeDegrees>-1.66137568652629852294921875</LongitudeDegrees>
            </Position>
            <AltitudeMeters>600.5999755859375</AltitudeMeters>
            <DistanceMeters>9145.308424992</DistanceMeters>
          </Trackpoint>
          <Trackpoint>
            <Time>2022-11-06T10:53:12.000Z</Time>
            <Position>
              <LatitudeDegrees>41.35508255101740360260009765625</LatitudeDegrees>
              <LongitudeDegrees>-1.6614139080047607421875</LongitudeDegrees>
            </Position>
            <AltitudeMeters>601</AltitudeMeters>
            <DistanceMeters>9148.5851246871</DistanceMeters>
          </Trackpoint>
          <Trackpoint>
            <Time>2022-11-06T10:53:13.000Z</Time>
            <Position>
              <LatitudeDegrees>41.3550765998661518096923828125</LatitudeDegrees>
              <LongitudeDegrees>-1.661449111998081207275390625</LongitudeDegrees>
            </Position>
            <AltitudeMeters>601.4000244140625</AltitudeMeters>
            <DistanceMeters>9151.6006324353</DistanceMeters>
          </Trackpoint>
          <Trackpoint>
            <Time>2022-11-06T10:53:14.000Z</Time>
            <Position>
              <LatitudeDegrees>41.35507198981940746307373046875</LatitudeDegrees>
              <LongitudeDegrees>-1.66147752664983272552490234375</LongitudeDegrees>
            </Position>
            <AltitudeMeters>601.79998779296875</AltitudeMeters>
            <DistanceMeters>9154.0307908651</DistanceMeters>
          </Trackpoint>
          <Trackpoint>
            <Time>2022-11-06T10:53:15.000Z</Time>
            <Position>
              <LatitudeDegrees>41.3550675474107265472412109375</LatitudeDegrees>
              <LongitudeDegrees>-1.66150166653096675872802734375</LongitudeDegrees>
            </Position>
            <AltitudeMeters>602</AltitudeMeters>
            <DistanceMeters>9156.1040290057</DistanceMeters>
          </Trackpoint>
          <Trackpoint>
            <Time>2022-11-06T10:53:16.000Z</Time>
            <Position>
              <LatitudeDegrees>41.35505891405045986175537109375</LatitudeDegrees>
              <LongitudeDegrees>-1.66152362711727619171142578125</LongitudeDegrees>
            </Position>
            <AltitudeMeters>602.20001220703125</AltitudeMeters>
            <DistanceMeters>9158.1729070191</DistanceMeters>
          </Trackpoint>
          <Trackpoint>
            <Time>2022-11-06T10:53:17.000Z</Time>
            <Position>
              <LatitudeDegrees>41.3550491072237491607666015625</LatitudeDegrees>
              <LongitudeDegrees>-1.66154927574098110198974609375</LongitudeDegrees>
            </Position>
            <AltitudeMeters>602.20001220703125</AltitudeMeters>
            <DistanceMeters>9160.5750350023</DistanceMeters>
          </Trackpoint>
          <Trackpoint>
            <Time>2022-11-06T10:53:18.000Z</Time>
            <Position>
              <LatitudeDegrees>41.355041228234767913818359375</LatitudeDegrees>
              <LongitudeDegrees>-1.66157341562211513519287109375</LongitudeDegrees>
            </Position>
            <AltitudeMeters>602.5999755859375</AltitudeMeters>
            <DistanceMeters>9162.7730092736</DistanceMeters>
          </Trackpoint>
          <Trackpoint>
            <Time>2022-11-06T10:53:19.000Z</Time>
            <Position>
              <LatitudeDegrees>41.35503427125513553619384765625</LatitudeDegrees>
              <LongitudeDegrees>-1.661599315702915191650390625</LongitudeDegrees>
            </Position>
            <AltitudeMeters>602.79998779296875</AltitudeMeters>
            <DistanceMeters>9165.0694335906</DistanceMeters>
          </Trackpoint>
          <Trackpoint>
            <Time>2022-11-06T10:53:20.000Z</Time>
            <Position>
              <LatitudeDegrees>41.3550293259322643280029296875</LatitudeDegrees>
              <LongitudeDegrees>-1.6616242937743663787841796875</LongitudeDegrees>
            </Position>
            <AltitudeMeters>603.20001220703125</AltitudeMeters>
            <DistanceMeters>9167.2280255958</DistanceMeters>
          </Trackpoint>
          <Trackpoint>
            <Time>2022-11-06T10:53:21.000Z</Time>
            <Position>
              <LatitudeDegrees>41.35502454824745655059814453125</LatitudeDegrees>
              <LongitudeDegrees>-1.66164549998939037322998046875</LongitudeDegrees>
            </Position>
            <AltitudeMeters>603.20001220703125</AltitudeMeters>
            <DistanceMeters>9169.0779982908</DistanceMeters>
          </Trackpoint>
          <Trackpoint>
            <Time>2022-11-06T10:53:22.000Z</Time>
            <Position>
              <LatitudeDegrees>41.3550212793052196502685546875</LatitudeDegrees>
              <LongitudeDegrees>-1.6616700589656829833984375</LongitudeDegrees>
            </Position>
            <AltitudeMeters>603.5999755859375</AltitudeMeters>
            <DistanceMeters>9171.1599292918</DistanceMeters>
          </Trackpoint>
          <Trackpoint>
            <Time>2022-11-06T10:53:23.000Z</Time>
            <Position>
              <LatitudeDegrees>41.35501675307750701904296875</LatitudeDegrees>
              <LongitudeDegrees>-1.66169352829456329345703125</LongitudeDegrees>
            </Position>
            <AltitudeMeters>603.79998779296875</AltitudeMeters>
            <DistanceMeters>9173.1846896988</DistanceMeters>
          </Trackpoint>
          <Trackpoint>
            <Time>2022-11-06T10:53:24.000Z</Time>
            <Position>
              <LatitudeDegrees>41.35501247830688953399658203125</LatitudeDegrees>
              <LongitudeDegrees>-1.66171900928020477294921875</LongitudeDegrees>
            </Position>
            <AltitudeMeters>604</AltitudeMeters>
            <DistanceMeters>9175.368237354</DistanceMeters>
          </Trackpoint>
          <Trackpoint>
            <Time>2022-11-06T10:53:25.000Z</Time>
            <Position>
              <LatitudeDegrees>41.3550132326781749725341796875</LatitudeDegrees>
              <LongitudeDegrees>-1.66174440644681453704833984375</LongitudeDegrees>
            </Position>
            <AltitudeMeters>604.5999755859375</AltitudeMeters>
            <DistanceMeters>9177.4930992841</DistanceMeters>
          </Trackpoint>
          <Trackpoint>
            <Time>2022-11-06T10:53:26.000Z</Time>
            <Position>
              <LatitudeDegrees>41.35501599870622158050537109375</LatitudeDegrees>
              <LongitudeDegrees>-1.6617671214044094085693359375</LongitudeDegrees>
            </Position>
            <AltitudeMeters>605</AltitudeMeters>
            <DistanceMeters>9179.4172435983</DistanceMeters>
          </Trackpoint>
          <Trackpoint>
            <Time>2022-11-06T10:53:27.000Z</Time>
            <Position>
              <LatitudeDegrees>41.35501951910555362701416015625</LatitudeDegrees>
              <LongitudeDegrees>-1.66178732179105281829833984375</LongitudeDegrees>
            </Position>
            <AltitudeMeters>605.20001220703125</AltitudeMeters>
            <DistanceMeters>9181.1487127373</DistanceMeters>
          </Trackpoint>
          <Trackpoint>
            <Time>2022-11-06T10:53:28.000Z</Time>
            <Position>
              <LatitudeDegrees>41.35502773337066173553466796875</LatitudeDegrees>
              <LongitudeDegrees>-1.6618050076067447662353515625</LongitudeDegrees>
            </Position>
            <AltitudeMeters>605.5999755859375</AltitudeMeters>
            <DistanceMeters>9182.8853893141</DistanceMeters>
          </Trackpoint>
          <Trackpoint>
            <Time>2022-11-06T10:53:29.000Z</Time>
            <Position>
              <LatitudeDegrees>41.3550360314548015594482421875</LatitudeDegrees>
              <LongitudeDegrees>-1.6618197597563266754150390625</LongitudeDegrees>
            </Position>
            <AltitudeMeters>606</AltitudeMeters>
            <DistanceMeters>9184.4235310593</DistanceMeters>
          </Trackpoint>
          <Trackpoint>
            <Time>2022-11-06T10:53:30.000Z</Time>
            <Position>
              <LatitudeDegrees>41.35505069978535175323486328125</LatitudeDegrees>
              <LongitudeDegrees>-1.66182789020240306854248046875</LongitudeDegrees>
            </Position>
            <AltitudeMeters>606.20001220703125</AltitudeMeters>
            <DistanceMeters>9186.1911301229</DistanceMeters>
          </Trackpoint>
          <Trackpoint>
            <Time>2022-11-06T10:53:31.000Z</Time>
            <Position>
              <LatitudeDegrees>41.355072744190692901611328125</LatitudeDegrees>
              <LongitudeDegrees>-1.661829315125942230224609375</LongitudeDegrees>
            </Position>
            <AltitudeMeters>606.4000244140625</AltitudeMeters>
            <DistanceMeters>9188.6471616912</DistanceMeters>
          </Trackpoint>
          <Trackpoint>
            <Time>2022-11-06T10:53:32.000Z</Time>
            <Position>
              <LatitudeDegrees>41.35509747080504894256591796875</LatitudeDegrees>
              <LongitudeDegrees>-1.6618180833756923675537109375</LongitudeDegrees>
            </Position>
            <AltitudeMeters>606.4000244140625</AltitudeMeters>
            <DistanceMeters>9191.5544201165</DistanceMeters>
          </Trackpoint>
          <Trackpoint>
            <Time>2022-11-06T10:53:33.000Z</Time>
            <Position>
              <LatitudeDegrees>41.35512580163776874542236328125</LatitudeDegrees>
              <LongitudeDegrees>-1.66180559433996677398681640625</LongitudeDegrees>
            </Position>
            <AltitudeMeters>606.4000244140625</AltitudeMeters>
            <DistanceMeters>9194.8776389614</DistanceMeters>
          </Trackpoint>
          <Trackpoint>
            <Time>2022-11-06T10:53:34.000Z</Time>
            <Position>
              <LatitudeDegrees>41.35515580885112285614013671875</LatitudeDegrees>
              <LongitudeDegrees>-1.6617962904274463653564453125</LongitudeDegrees>
            </Position>
            <AltitudeMeters>606.4000244140625</AltitudeMeters>
            <DistanceMeters>9198.3065104273</DistanceMeters>
          </Trackpoint>
          <Trackpoint>
            <Time>2022-11-06T10:53:35.000Z</Time>
            <Position>
              <LatitudeDegrees>41.35518296621739864349365234375</LatitudeDegrees>
              <LongitudeDegrees>-1.66178665123879909515380859375</LongitudeDegrees>
            </Position>
            <AltitudeMeters>606.20001220703125</AltitudeMeters>
            <DistanceMeters>9201.4351847257</DistanceMeters>
          </Trackpoint>
          <Trackpoint>
            <Time>2022-11-06T10:53:36.000Z</Time>
            <Position>
              <LatitudeDegrees>41.3552127219736576080322265625</LatitudeDegrees>
              <LongitudeDegrees>-1.66177692823112010955810546875</LongitudeDegrees>
            </Position>
            <AltitudeMeters>606.20001220703125</AltitudeMeters>
            <DistanceMeters>9204.8455715747</DistanceMeters>
          </Trackpoint>
          <Trackpoint>
            <Time>2022-11-06T10:53:37.000Z</Time>
            <Position>
              <LatitudeDegrees>41.3552439026534557342529296875</LatitudeDegrees>
              <LongitudeDegrees>-1.66176670230925083160400390625</LongitudeDegrees>
            </Position>
            <AltitudeMeters>606</AltitudeMeters>
            <DistanceMeters>9208.4188792989</DistanceMeters>
          </Trackpoint>
          <Trackpoint>
            <Time>2022-11-06T10:53:38.000Z</Time>
            <Position>
              <LatitudeDegrees>41.35527701117098331451416015625</LatitudeDegrees>
              <LongitudeDegrees>-1.66175865568220615386962890625</LongitudeDegrees>
            </Position>
            <AltitudeMeters>606</AltitudeMeters>
            <DistanceMeters>9212.1637035561</DistanceMeters>
          </Trackpoint>
          <Trackpoint>
            <Time>2022-11-06T10:53:39.000Z</Time>
            <Position>
              <LatitudeDegrees>41.35531137697398662567138671875</LatitudeDegrees>
              <LongitudeDegrees>-1.6617550514638423919677734375</LongitudeDegrees>
            </Position>
            <AltitudeMeters>605.79998779296875</AltitudeMeters>
            <DistanceMeters>9216.0002416575</DistanceMeters>
          </Trackpoint>
          <Trackpoint>
            <Time>2022-11-06T10:53:40.000Z</Time>
            <Position>
              <LatitudeDegrees>41.35534356348216533660888671875</LatitudeDegrees>
              <LongitudeDegrees>-1.661760918796062469482421875</LongitudeDegrees>
            </Position>
            <AltitudeMeters>605.79998779296875</AltitudeMeters>
            <DistanceMeters>9219.6162547508</DistanceMeters>
          </Trackpoint>
          <Trackpoint>
            <Time>2022-11-06T10:53:41.000Z</Time>
            <Position>
              <LatitudeDegrees>41.35537424124777317047119140625</LatitudeDegrees>
              <LongitudeDegrees>-1.66177474893629550933837890625</LongitudeDegrees>
            </Position>
            <AltitudeMeters>606</AltitudeMeters>
            <DistanceMeters>9223.2222650225</DistanceMeters>
          </Trackpoint>
          <Trackpoint>
            <Time>2022-11-06T10:53:42.000Z</Time>
            <Position>
              <LatitudeDegrees>41.35540240444242954254150390625</LatitudeDegrees>
              <LongitudeDegrees>-1.66179017163813114166259765625</LongitudeDegrees>
            </Position>
            <AltitudeMeters>606</AltitudeMeters>
            <DistanceMeters>9226.6114031484</DistanceMeters>
          </Trackpoint>
          <Trackpoint>
            <Time>2022-11-06T10:53:43.000Z</Time>
            <Position>
              <LatitudeDegrees>41.3554256223142147064208984375</LatitudeDegrees>
              <LongitudeDegrees>-1.6618063487112522125244140625</LongitudeDegrees>
            </Position>
            <AltitudeMeters>606.20001220703125</AltitudeMeters>
            <DistanceMeters>9229.5264163446</DistanceMeters>
          </Trackpoint>
          <Trackpoint>
            <Time>2022-11-06T10:53:44.000Z</Time>
            <Position>
              <LatitudeDegrees>41.3554425537586212158203125</LatitudeDegrees>
              <LongitudeDegrees>-1.6618288122117519378662109375</LongitudeDegrees>
            </Position>
            <AltitudeMeters>606.20001220703125</AltitudeMeters>
            <DistanceMeters>9232.1871643469</DistanceMeters>
          </Trackpoint>
          <Trackpoint>
            <Time>2022-11-06T10:53:45.000Z</Time>
            <Position>
              <LatitudeDegrees>41.35545940138399600982666015625</LatitudeDegrees>
              <LongitudeDegrees>-1.66185387410223484039306640625</LongitudeDegrees>
            </Position>
            <AltitudeMeters>606.4000244140625</AltitudeMeters>
            <DistanceMeters>9235.0013031213</DistanceMeters>
          </Trackpoint>
          <Trackpoint>
            <Time>2022-11-06T10:53:46.000Z</Time>
            <Position>
              <LatitudeDegrees>41.35547851212322711944580078125</LatitudeDegrees>
              <LongitudeDegrees>-1.66188061237335205078125</LongitudeDegrees>
            </Position>
            <AltitudeMeters>606.5999755859375</AltitudeMeters>
            <DistanceMeters>9238.0863801984</DistanceMeters>
          </Trackpoint>
          <Trackpoint>
            <Time>2022-11-06T10:53:47.000Z</Time>
            <Position>
              <LatitudeDegrees>41.35549779050052165985107421875</LatitudeDegrees>
              <LongitudeDegrees>-1.66190366260707378387451171875</LongitudeDegrees>
            </Position>
            <AltitudeMeters>607</AltitudeMeters>
            <DistanceMeters>9240.9718143913</DistanceMeters>
          </Trackpoint>
          <Trackpoint>
            <Time>2022-11-06T10:53:48.000Z</Time>
            <Position>
              <LatitudeDegrees>41.355521343648433685302734375</LatitudeDegrees>
              <LongitudeDegrees>-1.66192428208887577056884765625</LongitudeDegrees>
            </Position>
            <AltitudeMeters>607.20001220703125</AltitudeMeters>
            <DistanceMeters>9244.1076959655</DistanceMeters>
          </Trackpoint>
          <Trackpoint>
            <Time>2022-11-06T10:53:49.000Z</Time>
            <Position>
              <LatitudeDegrees>41.35554506443440914154052734375</LatitudeDegrees>
              <LongitudeDegrees>-1.66194305755198001861572265625</LongitudeDegrees>
            </Position>
            <AltitudeMeters>607.4000244140625</AltitudeMeters>
            <DistanceMeters>9247.1810426691</DistanceMeters>
          </Trackpoint>
          <Trackpoint>
            <Time>2022-11-06T10:53:50.000Z</Time>
            <Position>
              <LatitudeDegrees>41.3555647619068622589111328125</LatitudeDegrees>
              <LongitudeDegrees>-1.66196200065314769744873046875</LongitudeDegrees>
            </Position>
            <AltitudeMeters>607.79998779296875</AltitudeMeters>
            <DistanceMeters>9249.8855503728</DistanceMeters>
          </Trackpoint>
          <Trackpoint>
            <Time>2022-11-06T10:53:51.000Z</Time>
            <Position>
              <LatitudeDegrees>41.3555805198848247528076171875</LatitudeDegrees>
              <LongitudeDegrees>-1.6619816981256008148193359375</LongitudeDegrees>
            </Position>
            <AltitudeMeters>608</AltitudeMeters>
            <DistanceMeters>9252.2895572206</DistanceMeters>
          </Trackpoint>
          <Trackpoint>
            <Time>2022-11-06T10:53:52.000Z</Time>
            <Position>
              <LatitudeDegrees>41.35559317655861377716064453125</LatitudeDegrees>
              <LongitudeDegrees>-1.662005670368671417236328125</LongitudeDegrees>
            </Position>
            <AltitudeMeters>608.4000244140625</AltitudeMeters>
            <DistanceMeters>9254.7382243598</DistanceMeters>
          </Trackpoint>
          <Trackpoint>
            <Time>2022-11-06T10:53:53.000Z</Time>
            <Position>
              <LatitudeDegrees>41.35560683906078338623046875</LatitudeDegrees>
              <LongitudeDegrees>-1.66203282773494720458984375</LongitudeDegrees>
            </Position>
            <AltitudeMeters>608.5999755859375</AltitudeMeters>
            <DistanceMeters>9257.4693126306</DistanceMeters>
          </Trackpoint>
          <Trackpoint>
            <Time>2022-11-06T10:53:54.000Z</Time>
            <Position>
              <LatitudeDegrees>41.35562251321971416473388671875</LatitudeDegrees>
              <LongitudeDegrees>-1.66206157766282558441162109375</LongitudeDegrees>
            </Position>
            <AltitudeMeters>608.79998779296875</AltitudeMeters>
            <DistanceMeters>9260.438042091</DistanceMeters>
          </Trackpoint>
          <Trackpoint>
            <Time>2022-11-06T10:53:55.000Z</Time>
            <Position>
              <LatitudeDegrees>41.35563676245510578155517578125</LatitudeDegrees>
              <LongitudeDegrees>-1.66209141723811626434326171875</LongitudeDegrees>
            </Position>
            <AltitudeMeters>609</AltitudeMeters>
            <DistanceMeters>9263.3930520608</DistanceMeters>
          </Trackpoint>
          <Trackpoint>
            <Time>2022-11-06T10:53:56.000Z</Time>
            <Position>
              <LatitudeDegrees>41.35564832948148250579833984375</LatitudeDegrees>
              <LongitudeDegrees>-1.66212092153728008270263671875</LongitudeDegrees>
            </Position>
            <AltitudeMeters>609.4000244140625</AltitudeMeters>
            <DistanceMeters>9266.1732940351</DistanceMeters>
          </Trackpoint>
          <Trackpoint>
            <Time>2022-11-06T10:53:57.000Z</Time>
            <Position>
              <LatitudeDegrees>41.35566526092588901519775390625</LatitudeDegrees>
              <LongitudeDegrees>-1.66214908473193645477294921875</LongitudeDegrees>
            </Position>
            <AltitudeMeters>609.5999755859375</AltitudeMeters>
            <DistanceMeters>9269.1873041384</DistanceMeters>
          </Trackpoint>
          <Trackpoint>
            <Time>2022-11-06T10:53:58.000Z</Time>
            <Position>
              <LatitudeDegrees>41.35568101890385150909423828125</LatitudeDegrees>
              <LongitudeDegrees>-1.66217766702175140380859375</LongitudeDegrees>
            </Position>
            <AltitudeMeters>609.5999755859375</AltitudeMeters>
            <DistanceMeters>9272.149943891</DistanceMeters>
          </Trackpoint>
          <Trackpoint>
            <Time>2022-11-06T10:53:59.000Z</Time>
            <Position>
              <LatitudeDegrees>41.3556992076337337493896484375</LatitudeDegrees>
              <LongitudeDegrees>-1.6622076742351055145263671875</LongitudeDegrees>
            </Position>
            <AltitudeMeters>609.5999755859375</AltitudeMeters>
            <DistanceMeters>9275.3724565613</DistanceMeters>
          </Trackpoint>
          <Trackpoint>
            <Time>2022-11-06T10:54:00.000Z</Time>
            <Position>
              <LatitudeDegrees>41.35571605525910854339599609375</LatitudeDegrees>
              <LongitudeDegrees>-1.6622386872768402099609375</LongitudeDegrees>
            </Position>
            <AltitudeMeters>609.5999755859375</AltitudeMeters>
            <DistanceMeters>9278.5696501017</DistanceMeters>
          </Trackpoint>
          <Trackpoint>
            <Time>2022-11-06T10:54:01.000Z</Time>
            <Position>
              <LatitudeDegrees>41.3557334057986736297607421875</LatitudeDegrees>
              <LongitudeDegrees>-1.66227062232792377471923828125</LongitudeDegrees>
            </Position>
            <AltitudeMeters>609.5999755859375</AltitudeMeters>
            <DistanceMeters>9281.861472049</DistanceMeters>
          </Trackpoint>
          <Trackpoint>
            <Time>2022-11-06T10:54:02.000Z</Time>
            <Position>
              <LatitudeDegrees>41.3557521812617778778076171875</LatitudeDegrees>
              <LongitudeDegrees>-1.66230431757867336273193359375</LongitudeDegrees>
            </Position>
            <AltitudeMeters>609.5999755859375</AltitudeMeters>
            <DistanceMeters>9285.3671722701</DistanceMeters>
          </Trackpoint>
          <Trackpoint>
            <Time>2022-11-06T10:54:03.000Z</Time>
            <Position>
              <LatitudeDegrees>41.35577036999166011810302734375</LatitudeDegrees>
              <LongitudeDegrees>-1.6623391024768352508544921875</LongitudeDegrees>
            </Position>
            <AltitudeMeters>609.5999755859375</AltitudeMeters>
            <DistanceMeters>9288.9074753792</DistanceMeters>
          </Trackpoint>
          <Trackpoint>
            <Time>2022-11-06T10:54:04.000Z</Time>
            <Position>
              <LatitudeDegrees>41.35579031892120838165283203125</LatitudeDegrees>
              <LongitudeDegrees>-1.66237154044210910797119140625</LongitudeDegrees>
            </Position>
            <AltitudeMeters>609.5999755859375</AltitudeMeters>
            <DistanceMeters>9292.4118874502</DistanceMeters>
          </Trackpoint>
          <Trackpoint>
            <Time>2022-11-06T10:54:05.000Z</Time>
            <Position>
              <LatitudeDegrees>41.35580993257462978363037109375</LatitudeDegrees>
              <LongitudeDegrees>-1.6624049842357635498046875</LongitudeDegrees>
            </Position>
            <AltitudeMeters>609.79998779296875</AltitudeMeters>
            <DistanceMeters>9295.9560144702</DistanceMeters>
          </Trackpoint>
          <Trackpoint>
            <Time>2022-11-06T10:54:06.000Z</Time>
            <Position>
              <LatitudeDegrees>41.3558266125619411468505859375</LatitudeDegrees>
              <LongitudeDegrees>-1.662435494363307952880859375</LongitudeDegrees>
            </Position>
            <AltitudeMeters>609.79998779296875</AltitudeMeters>
            <DistanceMeters>9299.1091262926</DistanceMeters>
          </Trackpoint>
          <Trackpoint>
            <Time>2022-11-06T10:54:07.000Z</Time>
            <Position>
              <LatitudeDegrees>41.35584278963506221771240234375</LatitudeDegrees>
              <LongitudeDegrees>-1.6624681837856769561767578125</LongitudeDegrees>
            </Position>
            <AltitudeMeters>610</AltitudeMeters>
            <DistanceMeters>9302.3789291169</DistanceMeters>
          </Trackpoint>
          <Trackpoint>
            <Time>2022-11-06T10:54:08.000Z</Time>
            <Position>
              <LatitudeDegrees>41.35585628449916839599609375</LatitudeDegrees>
              <LongitudeDegrees>-1.6625037230551242828369140625</LongitudeDegrees>
            </Position>
            <AltitudeMeters>610</AltitudeMeters>
            <DistanceMeters>9305.7062213674</DistanceMeters>
          </Trackpoint>
          <Trackpoint>
            <Time>2022-11-06T10:54:09.000Z</Time>
            <Position>
              <LatitudeDegrees>41.35586567223072052001953125</LatitudeDegrees>
              <LongitudeDegrees>-1.66253917850553989410400390625</LongitudeDegrees>
            </Position>
            <AltitudeMeters>610.20001220703125</AltitudeMeters>
            <DistanceMeters>9308.8478568576</DistanceMeters>
          </Trackpoint>
          <Trackpoint>
            <Time>2022-11-06T10:54:10.000Z</Time>
            <Position>
              <LatitudeDegrees>41.35587313212454319000244140625</LatitudeDegrees>
              <LongitudeDegrees>-1.66257329285144805908203125</LongitudeDegrees>
            </Position>
            <AltitudeMeters>610.4000244140625</AltitudeMeters>
            <DistanceMeters>9311.816586318</DistanceMeters>
          </Trackpoint>
          <Trackpoint>
            <Time>2022-11-06T10:54:11.000Z</Time>
            <Position>
              <LatitudeDegrees>41.355877406895160675048828125</LatitudeDegrees>
              <LongitudeDegrees>-1.66260522790253162384033203125</LongitudeDegrees>
            </Position>
            <AltitudeMeters>610.5999755859375</AltitudeMeters>
            <DistanceMeters>9314.5244308617</DistanceMeters>
          </Trackpoint>
          <Trackpoint>
            <Time>2022-11-06T10:54:12.000Z</Time>
            <Position>
              <LatitudeDegrees>41.355884112417697906494140625</LatitudeDegrees>
              <LongitudeDegrees>-1.66263221763074398040771484375</LongitudeDegrees>
            </Position>
            <AltitudeMeters>611</AltitudeMeters>
            <DistanceMeters>9316.8981974258</DistanceMeters>
          </Trackpoint>
          <Trackpoint>
            <Time>2022-11-06T10:54:13.000Z</Time>
            <Position>
              <LatitudeDegrees>41.35589458979666233062744140625</LatitudeDegrees>
              <LongitudeDegrees>-1.66265266947448253631591796875</LongitudeDegrees>
            </Position>
            <AltitudeMeters>611.20001220703125</AltitudeMeters>
            <DistanceMeters>9318.9670754392</DistanceMeters>
          </Trackpoint>
          <Trackpoint>
            <Time>2022-11-06T10:54:14.000Z</Time>
            <Position>
              <LatitudeDegrees>41.35590364225208759307861328125</LatitudeDegrees>
              <LongitudeDegrees>-1.66266691870987415313720703125</LongitudeDegrees>
            </Position>
            <AltitudeMeters>611.5999755859375</AltitudeMeters>
            <DistanceMeters>9320.522729799</DistanceMeters>
          </Trackpoint>
          <Trackpoint>
            <Time>2022-11-06T10:54:15.000Z</Time>
            <Position>
              <LatitudeDegrees>41.35591286234557628631591796875</LatitudeDegrees>
              <LongitudeDegrees>-1.662673540413379669189453125</LongitudeDegrees>
            </Position>
            <AltitudeMeters>612</AltitudeMeters>
            <DistanceMeters>9321.6865646097</DistanceMeters>
          </Trackpoint>
          <Trackpoint>
            <Time>2022-11-06T10:54:16.000Z</Time>
            <Position>
              <LatitudeDegrees>41.3559204898774623870849609375</LatitudeDegrees>
              <LongitudeDegrees>-1.66268804110586643218994140625</LongitudeDegrees>
            </Position>
            <AltitudeMeters>612.20001220703125</AltitudeMeters>
            <DistanceMeters>9323.1648333604</DistanceMeters>
          </Trackpoint>
          <Trackpoint>
            <Time>2022-11-06T10:54:17.000Z</Time>
            <Position>
              <LatitudeDegrees>41.35592325590550899505615234375</LatitudeDegrees>
              <LongitudeDegrees>-1.66270782239735126495361328125</LongitudeDegrees>
            </Position>
            <AltitudeMeters>612.5999755859375</AltitudeMeters>
            <DistanceMeters>9324.8487110292</DistanceMeters>
          </Trackpoint>
          <Trackpoint>
            <Time>2022-11-06T10:54:18.000Z</Time>
            <Position>
              <LatitudeDegrees>41.35592208243906497955322265625</LatitudeDegrees>
              <LongitudeDegrees>-1.66273154318332672119140625</LongitudeDegrees>
            </Position>
            <AltitudeMeters>612.79998779296875</AltitudeMeters>
            <DistanceMeters>9326.8352012522</DistanceMeters>
          </Trackpoint>
          <Trackpoint>
            <Time>2022-11-06T10:54:19.000Z</Time>
            <Position>
              <LatitudeDegrees>41.355929709970951080322265625</LatitudeDegrees>
              <LongitudeDegrees>-1.662759371101856231689453125</LongitudeDegrees>
            </Position>
            <AltitudeMeters>612.79998779296875</AltitudeMeters>
            <DistanceMeters>9329.3095480001</DistanceMeters>
          </Trackpoint>
          <Trackpoint>
            <Time>2022-11-06T10:54:20.000Z</Time>
            <Position>
              <LatitudeDegrees>41.35594538412988185882568359375</LatitudeDegrees>
              <LongitudeDegrees>-1.66278979741036891937255859375</LongitudeDegrees>
            </Position>
            <AltitudeMeters>613</AltitudeMeters>
            <DistanceMeters>9332.3916966693</DistanceMeters>
          </Trackpoint>
          <Trackpoint>
            <Time>2022-11-06T10:54:21.000Z</Time>
            <Position>
              <LatitudeDegrees>41.3559613935649394989013671875</LatitudeDegrees>
              <LongitudeDegrees>-1.6628205589950084686279296875</LongitudeDegrees>
            </Position>
            <AltitudeMeters>613</AltitudeMeters>
            <DistanceMeters>9335.5174834043</DistanceMeters>
          </Trackpoint>
          <Trackpoint>
            <Time>2022-11-06T10:54:22.000Z</Time>
            <Position>
              <LatitudeDegrees>41.355977989733219146728515625</LatitudeDegrees>
              <LongitudeDegrees>-1.6628571040928363800048828125</LongitudeDegrees>
            </Position>
            <AltitudeMeters>613.20001220703125</AltitudeMeters>
            <DistanceMeters>9339.0857333655</DistanceMeters>
          </Trackpoint>
          <Trackpoint>
            <Time>2022-11-06T10:54:23.000Z</Time>
            <Position>
              <LatitudeDegrees>41.35599567554891109466552734375</LatitudeDegrees>
              <LongitudeDegrees>-1.662891805171966552734375</LongitudeDegrees>
            </Position>
            <AltitudeMeters>613.20001220703125</AltitudeMeters>
            <DistanceMeters>9342.5901454366</DistanceMeters>
          </Trackpoint>
          <Trackpoint>
            <Time>2022-11-06T10:54:24.000Z</Time>
            <Position>
              <LatitudeDegrees>41.3560136966407299041748046875</LatitudeDegrees>
              <LongitudeDegrees>-1.66292860172688961029052734375</LongitudeDegrees>
            </Position>
            <AltitudeMeters>613.4000244140625</AltitudeMeters>
            <DistanceMeters>9346.2606868209</DistanceMeters>
          </Trackpoint>
          <Trackpoint>
            <Time>2022-11-06T10:54:25.000Z</Time>
            <Position>
              <LatitudeDegrees>41.35603037662804126739501953125</LatitudeDegrees>
              <LongitudeDegrees>-1.6629667393863201141357421875</LongitudeDegrees>
            </Position>
            <AltitudeMeters>613.5999755859375</AltitudeMeters>
            <DistanceMeters>9349.9484090345</DistanceMeters>
          </Trackpoint>
          <Trackpoint>
            <Time>2022-11-06T10:54:26.000Z</Time>
            <Position>
              <LatitudeDegrees>41.35604781098663806915283203125</LatitudeDegrees>
              <LongitudeDegrees>-1.66300286538898944854736328125</LongitudeDegrees>
            </Position>
            <AltitudeMeters>613.79998779296875</AltitudeMeters>
            <DistanceMeters>9353.5368472755</DistanceMeters>
          </Trackpoint>
          <Trackpoint>
            <Time>2022-11-06T10:54:27.000Z</Time>
            <Position>
              <LatitudeDegrees>41.3560609705746173858642578125</LatitudeDegrees>
              <LongitudeDegrees>-1.663042008876800537109375</LongitudeDegrees>
            </Position>
            <AltitudeMeters>614</AltitudeMeters>
            <DistanceMeters>9357.1202491094</DistanceMeters>
          </Trackpoint>
          <Trackpoint>
            <Time>2022-11-06T10:54:28.000Z</Time>
            <Position>
              <LatitudeDegrees>41.356072537600994110107421875</LatitudeDegrees>
              <LongitudeDegrees>-1.66307729668915271759033203125</LongitudeDegrees>
            </Position>
            <AltitudeMeters>614.20001220703125</AltitudeMeters>
            <DistanceMeters>9360.337152528</DistanceMeters>
          </Trackpoint>
          <Trackpoint>
            <Time>2022-11-06T10:54:29.000Z</Time>
            <Position>
              <LatitudeDegrees>41.35609122924506664276123046875</LatitudeDegrees>
              <LongitudeDegrees>-1.6631099022924900054931640625</LongitudeDegrees>
            </Position>
            <AltitudeMeters>614.20001220703125</AltitudeMeters>
            <DistanceMeters>9363.76338944</DistanceMeters>
          </Trackpoint>
          <Trackpoint>
            <Time>2022-11-06T10:54:30.000Z</Time>
            <Position>
              <LatitudeDegrees>41.3561119325459003448486328125</LatitudeDegrees>
              <LongitudeDegrees>-1.66313714347779750823974609375</LongitudeDegrees>
            </Position>
            <AltitudeMeters>614.4000244140625</AltitudeMeters>
            <DistanceMeters>9367.0040651264</DistanceMeters>
          </Trackpoint>
          <Trackpoint>
            <Time>2022-11-06T10:54:31.000Z</Time>
            <Position>
              <LatitudeDegrees>41.35613313876092433929443359375</LatitudeDegrees>
              <LongitudeDegrees>-1.66317067109048366546630859375</LongitudeDegrees>
            </Position>
            <AltitudeMeters>614.4000244140625</AltitudeMeters>
            <DistanceMeters>9370.6672186307</DistanceMeters>
          </Trackpoint>
          <Trackpoint>
            <Time>2022-11-06T10:54:32.000Z</Time>
            <Position>
              <LatitudeDegrees>41.3561531715095043182373046875</LatitudeDegrees>
              <LongitudeDegrees>-1.6632084734737873077392578125</LongitudeDegrees>
            </Position>
            <AltitudeMeters>614.5999755859375</AltitudeMeters>
            <DistanceMeters>9374.5330660817</DistanceMeters>
          </Trackpoint>
          <Trackpoint>
            <Time>2022-11-06T10:54:33.000Z</Time>
            <Position>
              <LatitudeDegrees>41.3561709411442279815673828125</LatitudeDegrees>
              <LongitudeDegrees>-1.66324811987578868865966796875</LongitudeDegrees>
            </Position>
            <AltitudeMeters>614.5999755859375</AltitudeMeters>
            <DistanceMeters>9378.3907293614</DistanceMeters>
          </Trackpoint>
          <Trackpoint>
            <Time>2022-11-06T10:54:34.000Z</Time>
            <Position>
              <LatitudeDegrees>41.3561873696744441986083984375</LatitudeDegrees>
              <LongitudeDegrees>-1.66328868828713893890380859375</LongitudeDegrees>
            </Position>
            <AltitudeMeters>614.79998779296875</AltitudeMeters>
            <DistanceMeters>9382.2413637924</DistanceMeters>
          </Trackpoint>
          <Trackpoint>
            <Time>2022-11-06T10:54:35.000Z</Time>
            <Position>
              <LatitudeDegrees>41.3562044687569141387939453125</LatitudeDegrees>
              <LongitudeDegrees>-1.66332473047077655792236328125</LongitudeDegrees>
            </Position>
            <AltitudeMeters>615</AltitudeMeters>
            <DistanceMeters>9385.8032814506</DistanceMeters>
          </Trackpoint>
          <Trackpoint>
            <Time>2022-11-06T10:54:36.000Z</Time>
            <Position>
              <LatitudeDegrees>41.3562245853245258331298828125</LatitudeDegrees>
              <LongitudeDegrees>-1.66335322894155979156494140625</LongitudeDegrees>
            </Position>
            <AltitudeMeters>615</AltitudeMeters>
            <DistanceMeters>9389.0730842749</DistanceMeters>
          </Trackpoint>
          <Trackpoint>
            <Time>2022-11-06T10:54:37.000Z</Time>
            <Position>
              <LatitudeDegrees>41.35624763555824756622314453125</LatitudeDegrees>
              <LongitudeDegrees>-1.66337837465107440948486328125</LongitudeDegrees>
            </Position>
            <AltitudeMeters>615.20001220703125</AltitudeMeters>
            <DistanceMeters>9392.3895029922</DistanceMeters>
          </Trackpoint>
          <Trackpoint>
            <Time>2022-11-06T10:54:38.000Z</Time>
            <Position>
              <LatitudeDegrees>41.3562701828777790069580078125</LatitudeDegrees>
              <LongitudeDegrees>-1.66340209543704986572265625</LongitudeDegrees>
            </Position>
            <AltitudeMeters>615.4000244140625</AltitudeMeters>
            <DistanceMeters>9395.5866965326</DistanceMeters>
          </Trackpoint>
          <Trackpoint>
            <Time>2022-11-06T10:54:39.000Z</Time>
            <Position>
              <LatitudeDegrees>41.35629222728312015533447265625</LatitudeDegrees>
              <LongitudeDegrees>-1.66342883370816707611083984375</LongitudeDegrees>
            </Position>
            <AltitudeMeters>615.5999755859375</AltitudeMeters>
            <DistanceMeters>9398.9058369727</DistanceMeters>
          </Trackpoint>
          <Trackpoint>
            <Time>2022-11-06T10:54:40.000Z</Time>
            <Position>
              <LatitudeDegrees>41.3563137687742710113525390625</LatitudeDegrees>
              <LongitudeDegrees>-1.66345180012285709381103515625</LongitudeDegrees>
            </Position>
            <AltitudeMeters>615.79998779296875</AltitudeMeters>
            <DistanceMeters>9401.9791836763</DistanceMeters>
          </Trackpoint>
          <Trackpoint>
            <Time>2022-11-06T10:54:41.000Z</Time>
            <Position>
              <LatitudeDegrees>41.35633447207510471343994140625</LatitudeDegrees>
              <LongitudeDegrees>-1.6634723357856273651123046875</LongitudeDegrees>
            </Position>
            <AltitudeMeters>616.20001220703125</AltitudeMeters>
            <DistanceMeters>9404.8520724437</DistanceMeters>
          </Trackpoint>
          <Trackpoint>
            <Time>2022-11-06T10:54:42.000Z</Time>
            <Position>
              <LatitudeDegrees>41.35635576210916042327880859375</LatitudeDegrees>
              <LongitudeDegrees>-1.66349840350449085235595703125</LongitudeDegrees>
            </Position>
            <AltitudeMeters>616.4000244140625</AltitudeMeters>
            <DistanceMeters>9408.0703790918</DistanceMeters>
          </Trackpoint>
          <Trackpoint>
            <Time>2022-11-06T10:54:43.000Z</Time>
            <Position>
              <LatitudeDegrees>41.35637671686708927154541015625</LatitudeDegrees>
              <LongitudeDegrees>-1.6635234653949737548828125</LongitudeDegrees>
            </Position>
            <AltitudeMeters>616.4000244140625</AltitudeMeters>
            <DistanceMeters>9411.206260666</DistanceMeters>
          </Trackpoint>
          <Trackpoint>
            <Time>2022-11-06T10:54:44.000Z</Time>
            <Position>
              <LatitudeDegrees>41.35639482177793979644775390625</LatitudeDegrees>
              <LongitudeDegrees>-1.66355095803737640380859375</LongitudeDegrees>
            </Position>
            <AltitudeMeters>616.79998779296875</AltitudeMeters>
            <DistanceMeters>9414.2619273761</DistanceMeters>
          </Trackpoint>
          <Trackpoint>
            <Time>2022-11-06T10:54:45.000Z</Time>
            <Position>
              <LatitudeDegrees>41.35641275905072689056396484375</LatitudeDegrees>
              <LongitudeDegrees>-1.66357199661433696746826171875</LongitudeDegrees>
            </Position>
            <AltitudeMeters>617.20001220703125</AltitudeMeters>
            <DistanceMeters>9416.9226753784</DistanceMeters>
          </Trackpoint>
          <Trackpoint>
            <Time>2022-11-06T10:54:46.000Z</Time>
            <Position>
              <LatitudeDegrees>41.35643086396157741546630859375</LatitudeDegrees>
              <LongitudeDegrees>-1.6635947115719318389892578125</LongitudeDegrees>
            </Position>
            <AltitudeMeters>617.20001220703125</AltitudeMeters>
            <DistanceMeters>9419.6898950706</DistanceMeters>
          </Trackpoint>
          <Trackpoint>
            <Time>2022-11-06T10:54:47.000Z</Time>
            <Position>
              <LatitudeDegrees>41.35645064525306224822998046875</LatitudeDegrees>
              <LongitudeDegrees>-1.663622371852397918701171875</LongitudeDegrees>
            </Position>
            <AltitudeMeters>617.4000244140625</AltitudeMeters>
            <DistanceMeters>9422.8828492364</DistanceMeters>
          </Trackpoint>
          <Trackpoint>
            <Time>2022-11-06T10:54:48.000Z</Time>
            <Position>
              <LatitudeDegrees>41.35646707378327846527099609375</LatitudeDegrees>
              <LongitudeDegrees>-1.6636493615806102752685546875</LongitudeDegrees>
            </Position>
            <AltitudeMeters>617.4000244140625</AltitudeMeters>
            <DistanceMeters>9425.7869999554</DistanceMeters>
          </Trackpoint>
          <Trackpoint>
            <Time>2022-11-06T10:54:49.000Z</Time>
            <Position>
              <LatitudeDegrees>41.35648417286574840545654296875</LatitudeDegrees>
              <LongitudeDegrees>-1.66368045844137668609619140625</LongitudeDegrees>
            </Position>
            <AltitudeMeters>617.4000244140625</AltitudeMeters>
            <DistanceMeters>9429.0095126258</DistanceMeters>
          </Trackpoint>
          <Trackpoint>
            <Time>2022-11-06T10:54:50.000Z</Time>
            <Position>
              <LatitudeDegrees>41.3565045408904552459716796875</LatitudeDegrees>
              <LongitudeDegrees>-1.663712896406650543212890625</LongitudeDegrees>
            </Position>
            <AltitudeMeters>617.5999755859375</AltitudeMeters>
            <DistanceMeters>9432.5447107529</DistanceMeters>
          </Trackpoint>
          <Trackpoint>
            <Time>2022-11-06T10:54:51.000Z</Time>
            <Position>
              <LatitudeDegrees>41.35652289725840091705322265625</LatitudeDegrees>
              <LongitudeDegrees>-1.66374667547643184661865234375</LongitudeDegrees>
            </Position>
            <AltitudeMeters>617.5999755859375</AltitudeMeters>
            <DistanceMeters>9436.0297434382</DistanceMeters>
          </Trackpoint>
          <Trackpoint>
            <Time>2022-11-06T10:54:52.000Z</Time>
            <Position>
              <LatitudeDegrees>41.35654150508344173431396484375</LatitudeDegrees>
              <LongitudeDegrees>-1.663776598870754241943359375</LongitudeDegrees>
            </Position>
            <AltitudeMeters>617.79998779296875</AltitudeMeters>
            <DistanceMeters>9439.2773778521</DistanceMeters>
          </Trackpoint>
          <Trackpoint>
            <Time>2022-11-06T10:54:53.000Z</Time>
            <Position>
              <LatitudeDegrees>41.356558687984943389892578125</LatitudeDegrees>
              <LongitudeDegrees>-1.66380082257091999053955078125</LongitudeDegrees>
            </Position>
            <AltitudeMeters>617.79998779296875</AltitudeMeters>
            <DistanceMeters>9442.0608658777</DistanceMeters>
          </Trackpoint>
          <Trackpoint>
            <Time>2022-11-06T10:54:54.000Z</Time>
            <Position>
              <LatitudeDegrees>41.356576122343540191650390625</LatitudeDegrees>
              <LongitudeDegrees>-1.66383183561265468597412109375</LongitudeDegrees>
            </Position>
            <AltitudeMeters>617.79998779296875</AltitudeMeters>
            <DistanceMeters>9445.2973591459</DistanceMeters>
          </Trackpoint>
          <Trackpoint>
            <Time>2022-11-06T10:54:55.000Z</Time>
            <Position>
              <LatitudeDegrees>41.3565937243402004241943359375</LatitudeDegrees>
              <LongitudeDegrees>-1.66386268101632595062255859375</LongitudeDegrees>
            </Position>
            <AltitudeMeters>617.79998779296875</AltitudeMeters>
            <DistanceMeters>9448.5338524141</DistanceMeters>
          </Trackpoint>
          <Trackpoint>
            <Time>2022-11-06T10:54:56.000Z</Time>
            <Position>
              <LatitudeDegrees>41.35660998523235321044921875</LatitudeDegrees>
              <LongitudeDegrees>-1.66389620862901210784912109375</LongitudeDegrees>
            </Position>
            <AltitudeMeters>617.79998779296875</AltitudeMeters>
            <DistanceMeters>9451.8692765519</DistanceMeters>
          </Trackpoint>
          <Trackpoint>
            <Time>2022-11-06T10:54:57.000Z</Time>
            <Position>
              <LatitudeDegrees>41.3566245697438716888427734375</LatitudeDegrees>
              <LongitudeDegrees>-1.66393292136490345001220703125</LongitudeDegrees>
            </Position>
            <AltitudeMeters>618</AltitudeMeters>
            <DistanceMeters>9455.3400289165</DistanceMeters>
          </Trackpoint>
          <Trackpoint>
            <Time>2022-11-06T10:54:58.000Z</Time>
            <Position>
              <LatitudeDegrees>41.356635801494121551513671875</LatitudeDegrees>
              <LongitudeDegrees>-1.663969047367572784423828125</LongitudeDegrees>
            </Position>
            <AltitudeMeters>618</AltitudeMeters>
            <DistanceMeters>9458.6070689157</DistanceMeters>
          </Trackpoint>
          <Trackpoint>
            <Time>2022-11-06T10:54:59.000Z</Time>
            <Position>
              <LatitudeDegrees>41.356645189225673675537109375</LatitudeDegrees>
              <LongitudeDegrees>-1.6640020720660686492919921875</LongitudeDegrees>
            </Position>
            <AltitudeMeters>618</AltitudeMeters>
            <DistanceMeters>9461.5574915451</DistanceMeters>
          </Trackpoint>
          <Trackpoint>
            <Time>2022-11-06T10:55:00.000Z</Time>
            <Position>
              <LatitudeDegrees>41.3566604442894458770751953125</LatitudeDegrees>
              <LongitudeDegrees>-1.66402864269912242889404296875</LongitudeDegrees>
            </Position>
            <AltitudeMeters>618.20001220703125</AltitudeMeters>
            <DistanceMeters>9464.3523110606</DistanceMeters>
          </Trackpoint>
          <Trackpoint>
            <Time>2022-11-06T10:55:01.000Z</Time>
            <Position>
              <LatitudeDegrees>41.35668148286640644073486328125</LatitudeDegrees>
              <LongitudeDegrees>-1.66405127383768558502197265625</LongitudeDegrees>
            </Position>
            <AltitudeMeters>618.4000244140625</AltitudeMeters>
            <DistanceMeters>9467.3633236394</DistanceMeters>
          </Trackpoint>
          <Trackpoint>
            <Time>2022-11-06T10:55:02.000Z</Time>
            <Position>
              <LatitudeDegrees>41.35670520365238189697265625</LatitudeDegrees>
              <LongitudeDegrees>-1.66406753472983837127685546875</LongitudeDegrees>
            </Position>
            <AltitudeMeters>619</AltitudeMeters>
            <DistanceMeters>9470.3320530998</DistanceMeters>
          </Trackpoint>
          <Trackpoint>
            <Time>2022-11-06T10:55:03.000Z</Time>
            <Position>
              <LatitudeDegrees>41.356729678809642791748046875</LatitudeDegrees>
              <LongitudeDegrees>-1.66408144868910312652587890625</LongitudeDegrees>
            </Position>
            <AltitudeMeters>619.20001220703125</AltitudeMeters>
            <DistanceMeters>9473.2946928524</DistanceMeters>
          </Trackpoint>
          <Trackpoint>
            <Time>2022-11-06T10:55:04.000Z</Time>
            <Position>
              <LatitudeDegrees>41.3567549921572208404541015625</LatitudeDegrees>
              <LongitudeDegrees>-1.66410148143768310546875</LongitudeDegrees>
            </Position>
            <AltitudeMeters>619.5999755859375</AltitudeMeters>
            <DistanceMeters>9476.5713925475</DistanceMeters>
          </Trackpoint>
          <Trackpoint>
            <Time>2022-11-06T10:55:05.000Z</Time>
            <Position>
              <LatitudeDegrees>41.35678038932383060455322265625</LatitudeDegrees>
              <LongitudeDegrees>-1.664125621318817138671875</LongitudeDegrees>
            </Position>
            <AltitudeMeters>619.79998779296875</AltitudeMeters>
            <DistanceMeters>9480.0421449121</DistanceMeters>
          </Trackpoint>
          <Trackpoint>
            <Time>2022-11-06T10:55:06.000Z</Time>
            <Position>
              <LatitudeDegrees>41.35680553503334522247314453125</LatitudeDegrees>
              <LongitudeDegrees>-1.6641484200954437255859375</LongitudeDegrees>
            </Position>
            <AltitudeMeters>620</AltitudeMeters>
            <DistanceMeters>9483.4259500086</DistanceMeters>
          </Trackpoint>
          <Trackpoint>
            <Time>2022-11-06T10:55:07.000Z</Time>
            <Position>
              <LatitudeDegrees>41.3568327762186527252197265625</LatitudeDegrees>
              <LongitudeDegrees>-1.66417515836656093597412109375</LongitudeDegrees>
            </Position>
            <AltitudeMeters>620</AltitudeMeters>
            <DistanceMeters>9487.1912149417</DistanceMeters>
          </Trackpoint>
          <Trackpoint>
            <Time>2022-11-06T10:55:08.000Z</Time>
            <Position>
              <LatitudeDegrees>41.3568582572042942047119140625</LatitudeDegrees>
              <LongitudeDegrees>-1.66420198045670986175537109375</LongitudeDegrees>
            </Position>
            <AltitudeMeters>620</AltitudeMeters>
            <DistanceMeters>9490.8047299255</DistanceMeters>
          </Trackpoint>
          <Trackpoint>
            <Time>2022-11-06T10:55:09.000Z</Time>
            <Position>
              <LatitudeDegrees>41.35688315145671367645263671875</LatitudeDegrees>
              <LongitudeDegrees>-1.664225198328495025634765625</LongitudeDegrees>
            </Position>
            <AltitudeMeters>620.20001220703125</AltitudeMeters>
            <DistanceMeters>9494.1872004508</DistanceMeters>
          </Trackpoint>
          <Trackpoint>
            <Time>2022-11-06T10:55:10.000Z</Time>
            <Position>
              <LatitudeDegrees>41.356908716261386871337890625</LatitudeDegrees>
              <LongitudeDegrees>-1.66425193659961223602294921875</LongitudeDegrees>
            </Position>
            <AltitudeMeters>620.20001220703125</AltitudeMeters>
            <DistanceMeters>9497.805709929</DistanceMeters>
          </Trackpoint>
          <Trackpoint>
            <Time>2022-11-06T10:55:11.000Z</Time>
            <Position>
              <LatitudeDegrees>41.35693293996155261993408203125</LatitudeDegrees>
              <LongitudeDegrees>-1.664280183613300323486328125</LongitudeDegrees>
            </Position>
            <AltitudeMeters>620.4000244140625</AltitudeMeters>
            <DistanceMeters>9501.3891117629</DistanceMeters>
          </Trackpoint>
          <Trackpoint>
            <Time>2022-11-06T10:55:12.000Z</Time>
            <Position>
              <LatitudeDegrees>41.35695599019527435302734375</LatitudeDegrees>
              <LongitudeDegrees>-1.6643075086176395416259765625</LongitudeDegrees>
            </Position>
            <AltitudeMeters>620.4000244140625</AltitudeMeters>
            <DistanceMeters>9504.8232462734</DistanceMeters>
          </Trackpoint>
          <Trackpoint>
            <Time>2022-11-06T10:55:13.000Z</Time>
            <Position>
              <LatitudeDegrees>41.35698013007640838623046875</LatitudeDegrees>
              <LongitudeDegrees>-1.6643380187451839447021484375</LongitudeDegrees>
            </Position>
            <AltitudeMeters>620.5999755859375</AltitudeMeters>
            <DistanceMeters>9508.5256314562</DistanceMeters>
          </Trackpoint>
          <Trackpoint>
            <Time>2022-11-06T10:55:14.000Z</Time>
            <Position>
              <LatitudeDegrees>41.35700904764235019683837890625</LatitudeDegrees>
              <LongitudeDegrees>-1.664361990988254547119140625</LongitudeDegrees>
            </Position>
            <AltitudeMeters>620.5999755859375</AltitudeMeters>
            <DistanceMeters>9512.3148030735</DistanceMeters>
          </Trackpoint>
          <Trackpoint>
            <Time>2022-11-06T10:55:15.000Z</Time>
            <Position>
              <LatitudeDegrees>41.35704257525503635406494140625</LatitudeDegrees>
              <LongitudeDegrees>-1.6643722169101238250732421875</LongitudeDegrees>
            </Position>
            <AltitudeMeters>620.5999755859375</AltitudeMeters>
            <DistanceMeters>9516.1430943462</DistanceMeters>
          </Trackpoint>
          <Trackpoint>
            <Time>2022-11-06T10:55:16.000Z</Time>
            <Position>
              <LatitudeDegrees>41.35707409121096134185791015625</LatitudeDegrees>
              <LongitudeDegrees>-1.66436878032982349395751953125</LongitudeDegrees>
            </Position>
            <AltitudeMeters>620.79998779296875</AltitudeMeters>
            <DistanceMeters>9519.6629331041</DistanceMeters>
          </Trackpoint>
          <Trackpoint>
            <Time>2022-11-06T10:55:17.000Z</Time>
            <Position>
              <LatitudeDegrees>41.3570932857692241668701171875</LatitudeDegrees>
              <LongitudeDegrees>-1.66435587219893932342529296875</LongitudeDegrees>
            </Position>
            <AltitudeMeters>620.79998779296875</AltitudeMeters>
            <DistanceMeters>9522.055644634</DistanceMeters>
          </Trackpoint>
          <Trackpoint>
            <Time>2022-11-06T10:55:18.000Z</Time>
            <Position>
              <LatitudeDegrees>41.3571070320904254913330078125</LatitudeDegrees>
              <LongitudeDegrees>-1.66433189995586872100830078125</LongitudeDegrees>
            </Position>
            <AltitudeMeters>621.4000244140625</AltitudeMeters>
            <DistanceMeters>9524.5751969236</DistanceMeters>
          </Trackpoint>
          <Trackpoint>
            <Time>2022-11-06T10:55:19.000Z</Time>
            <Position>
              <LatitudeDegrees>41.35711935348808765411376953125</LatitudeDegrees>
              <LongitudeDegrees>-1.66430708952248096466064453125</LongitudeDegrees>
            </Position>
            <AltitudeMeters>621.79998779296875</AltitudeMeters>
            <DistanceMeters>9527.0604679929</DistanceMeters>
          </Trackpoint>
          <Trackpoint>
            <Time>2022-11-06T10:55:20.000Z</Time>
            <Position>
              <LatitudeDegrees>41.3571328483521938323974609375</LatitudeDegrees>
              <LongitudeDegrees>-1.6642833687365055084228515625</LongitudeDegrees>
            </Position>
            <AltitudeMeters>622.20001220703125</AltitudeMeters>
            <DistanceMeters>9529.5457390621</DistanceMeters>
          </Trackpoint>
          <Trackpoint>
            <Time>2022-11-06T10:55:21.000Z</Time>
            <Position>
              <LatitudeDegrees>41.35714785195887088775634765625</LatitudeDegrees>
              <LongitudeDegrees>-1.6642610728740692138671875</LongitudeDegrees>
            </Position>
            <AltitudeMeters>622.5999755859375</AltitudeMeters>
            <DistanceMeters>9532.0473071654</DistanceMeters>
          </Trackpoint>
          <Trackpoint>
            <Time>2022-11-06T10:55:22.000Z</Time>
            <Position>
              <LatitudeDegrees>41.3571657054126262664794921875</LatitudeDegrees>
              <LongitudeDegrees>-1.66424707509577274322509765625</LongitudeDegrees>
            </Position>
            <AltitudeMeters>622.79998779296875</AltitudeMeters>
            <DistanceMeters>9534.3554980375</DistanceMeters>
          </Trackpoint>
          <Trackpoint>
            <Time>2022-11-06T10:55:23.000Z</Time>
            <Position>
              <LatitudeDegrees>41.35719479061663150787353515625</LatitudeDegrees>
              <LongitudeDegrees>-1.6642354242503643035888671875</LongitudeDegrees>
            </Position>
            <AltitudeMeters>623.20001220703125</AltitudeMeters>
            <DistanceMeters>9537.7366334649</DistanceMeters>
          </Trackpoint>
          <Trackpoint>
            <Time>2022-11-06T10:55:24.000Z</Time>
            <Position>
              <LatitudeDegrees>41.35722261853516101837158203125</LatitudeDegrees>
              <LongitudeDegrees>-1.66422628797590732574462890625</LongitudeDegrees>
            </Position>
            <AltitudeMeters>623.5999755859375</AltitudeMeters>
            <DistanceMeters>9540.9281732545</DistanceMeters>
          </Trackpoint>
          <Trackpoint>
            <Time>2022-11-06T10:55:25.000Z</Time>
            <Position>
              <LatitudeDegrees>41.35724860243499279022216796875</LatitudeDegrees>
              <LongitudeDegrees>-1.66421337984502315521240234375</LongitudeDegrees>
            </Position>
            <AltitudeMeters>623.79998779296875</AltitudeMeters>
            <DistanceMeters>9544.0147134937</DistanceMeters>
          </Trackpoint>
          <Trackpoint>
            <Time>2022-11-06T10:55:26.000Z</Time>
            <Position>
              <LatitudeDegrees>41.35727207176387310028076171875</LatitudeDegrees>
              <LongitudeDegrees>-1.6642018966376781463623046875</LongitudeDegrees>
            </Position>
            <AltitudeMeters>624</AltitudeMeters>
            <DistanceMeters>9546.7982015194</DistanceMeters>
          </Trackpoint>
          <Trackpoint>
            <Time>2022-11-06T10:55:27.000Z</Time>
            <Position>
              <LatitudeDegrees>41.35729503817856311798095703125</LatitudeDegrees>
              <LongitudeDegrees>-1.66419778950512409210205078125</LongitudeDegrees>
            </Position>
            <AltitudeMeters>624.20001220703125</AltitudeMeters>
            <DistanceMeters>9549.3779624267</DistanceMeters>
          </Trackpoint>
          <Trackpoint>
            <Time>2022-11-06T10:55:28.000Z</Time>
            <Position>
              <LatitudeDegrees>41.357315741479396820068359375</LatitudeDegrees>
              <LongitudeDegrees>-1.66418739594519138336181640625</LongitudeDegrees>
            </Position>
            <AltitudeMeters>624.4000244140625</AltitudeMeters>
            <DistanceMeters>9551.8376679411</DistanceMeters>
          </Trackpoint>
          <Trackpoint>
            <Time>2022-11-06T10:55:29.000Z</Time>
            <Position>
              <LatitudeDegrees>41.3573350198566913604736328125</LatitudeDegrees>
              <LongitudeDegrees>-1.6641710512340068817138671875</LongitudeDegrees>
            </Position>
            <AltitudeMeters>624.5999755859375</AltitudeMeters>
            <DistanceMeters>9554.3804095194</DistanceMeters>
          </Trackpoint>
          <Trackpoint>
            <Time>2022-11-06T10:55:30.000Z</Time>
            <Position>
              <LatitudeDegrees>41.3573504425585269927978515625</LatitudeDegrees>
              <LongitudeDegrees>-1.66415085084736347198486328125</LongitudeDegrees>
            </Position>
            <AltitudeMeters>624.79998779296875</AltitudeMeters>
            <DistanceMeters>9556.7881696979</DistanceMeters>
          </Trackpoint>
          <Trackpoint>
            <Time>2022-11-06T10:55:31.000Z</Time>
            <Position>
              <LatitudeDegrees>41.357366032898426055908203125</LatitudeDegrees>
              <LongitudeDegrees>-1.66413425467908382415771484375</LongitudeDegrees>
            </Position>
            <AltitudeMeters>625</AltitudeMeters>
            <DistanceMeters>9559.0106574514</DistanceMeters>
          </Trackpoint>
          <Trackpoint>
            <Time>2022-11-06T10:55:32.000Z</Time>
            <Position>
              <LatitudeDegrees>41.35738648474216461181640625</LatitudeDegrees>
              <LongitudeDegrees>-1.6641157306730747222900390625</LongitudeDegrees>
            </Position>
            <AltitudeMeters>625.20001220703125</AltitudeMeters>
            <DistanceMeters>9561.7647932892</DistanceMeters>
          </Trackpoint>
          <Trackpoint>
            <Time>2022-11-06T10:55:33.000Z</Time>
            <Position>
              <LatitudeDegrees>41.357398889958858489990234375</LatitudeDegrees>
              <LongitudeDegrees>-1.6641055047512054443359375</LongitudeDegrees>
            </Position>
            <AltitudeMeters>625.5999755859375</AltitudeMeters>
            <DistanceMeters>9563.3886104962</DistanceMeters>
          </Trackpoint>
          <Trackpoint>
            <Time>2022-11-06T10:55:34.000Z</Time>
            <Position>
              <LatitudeDegrees>41.3574134744703769683837890625</LatitudeDegrees>
              <LongitudeDegrees>-1.664090417325496673583984375</LongitudeDegrees>
            </Position>
            <AltitudeMeters>626.20001220703125</AltitudeMeters>
            <DistanceMeters>9565.4443526434</DistanceMeters>
          </Trackpoint>
          <Trackpoint>
            <Time>2022-11-06T10:55:35.000Z</Time>
            <Position>
              <LatitudeDegrees>41.35742495767772197723388671875</LatitudeDegrees>
              <LongitudeDegrees>-1.6640734858810901641845703125</LongitudeDegrees>
            </Position>
            <AltitudeMeters>626.5999755859375</AltitudeMeters>
            <DistanceMeters>9567.3496323421</DistanceMeters>
          </Trackpoint>
          <Trackpoint>
            <Time>2022-11-06T10:55:36.000Z</Time>
            <Position>
              <LatitudeDegrees>41.35743744671344757080078125</LatitudeDegrees>
              <LongitudeDegrees>-1.6640580631792545318603515625</LongitudeDegrees>
            </Position>
            <AltitudeMeters>627</AltitudeMeters>
            <DistanceMeters>9569.247789475</DistanceMeters>
          </Trackpoint>
          <Trackpoint>
            <Time>2022-11-06T10:55:37.000Z</Time>
            <Position>
              <LatitudeDegrees>41.35745043866336345672607421875</LatitudeDegrees>
              <LongitudeDegrees>-1.66404138319194316864013671875</LongitudeDegrees>
            </Position>
            <AltitudeMeters>627.4000244140625</AltitudeMeters>
            <DistanceMeters>9571.2546312959</DistanceMeters>
          </Trackpoint>
          <Trackpoint>
            <Time>2022-11-06T10:55:38.000Z</Time>
            <Position>
              <LatitudeDegrees>41.35746401734650135040283203125</LatitudeDegrees>
              <LongitudeDegrees>-1.6640225239098072052001953125</LongitudeDegrees>
            </Position>
            <AltitudeMeters>627.5999755859375</AltitudeMeters>
            <DistanceMeters>9573.4381789511</DistanceMeters>
          </Trackpoint>
          <Trackpoint>
            <Time>2022-11-06T10:55:39.000Z</Time>
            <Position>
              <LatitudeDegrees>41.35747575201094150543212890625</LatitudeDegrees>
              <LongitudeDegrees>-1.6640007309615612030029296875</LongitudeDegrees>
            </Position>
            <AltitudeMeters>627.5999755859375</AltitudeMeters>
            <DistanceMeters>9575.6788758299</DistanceMeters>
          </Trackpoint>
          <Trackpoint>
            <Time>2022-11-06T10:55:40.000Z</Time>
            <Position>
              <LatitudeDegrees>41.35748949833214282989501953125</LatitudeDegrees>
              <LongitudeDegrees>-1.66398388333618640899658203125</LongitudeDegrees>
            </Position>
            <AltitudeMeters>627.79998779296875</AltitudeMeters>
            <DistanceMeters>9577.7564649472</DistanceMeters>
          </Trackpoint>
          <Trackpoint>
            <Time>2022-11-06T10:55:41.000Z</Time>
            <Position>
              <LatitudeDegrees>41.35750307701528072357177734375</LatitudeDegrees>
              <LongitudeDegrees>-1.66396804153919219970703125</LongitudeDegrees>
            </Position>
            <AltitudeMeters>627.79998779296875</AltitudeMeters>
            <DistanceMeters>9579.7678013802</DistanceMeters>
          </Trackpoint>
          <Trackpoint>
            <Time>2022-11-06T10:55:42.000Z</Time>
            <Position>
              <LatitudeDegrees>41.35751782916486263275146484375</LatitudeDegrees>
              <LongitudeDegrees>-1.663950271904468536376953125</LongitudeDegrees>
            </Position>
            <AltitudeMeters>628</AltitudeMeters>
            <DistanceMeters>9581.9801081927</DistanceMeters>
          </Trackpoint>
          <Trackpoint>
            <Time>2022-11-06T10:55:43.000Z</Time>
            <Position>
              <LatitudeDegrees>41.35753358714282512664794921875</LatitudeDegrees>
              <LongitudeDegrees>-1.663933508098125457763671875</LongitudeDegrees>
            </Position>
            <AltitudeMeters>628</AltitudeMeters>
            <DistanceMeters>9584.2228191815</DistanceMeters>
          </Trackpoint>
          <Trackpoint>
            <Time>2022-11-06T10:55:44.000Z</Time>
            <Position>
              <LatitudeDegrees>41.3575489260256290435791015625</LatitudeDegrees>
              <LongitudeDegrees>-1.6639152355492115020751953125</LongitudeDegrees>
            </Position>
            <AltitudeMeters>628.20001220703125</AltitudeMeters>
            <DistanceMeters>9586.5113655187</DistanceMeters>
          </Trackpoint>
          <Trackpoint>
            <Time>2022-11-06T10:55:45.000Z</Time>
            <Position>
              <LatitudeDegrees>41.3575640134513378143310546875</LatitudeDegrees>
              <LongitudeDegrees>-1.6638998128473758697509765625</LongitudeDegrees>
            </Position>
            <AltitudeMeters>628.4000244140625</AltitudeMeters>
            <DistanceMeters>9588.6277109339</DistanceMeters>
          </Trackpoint>
          <Trackpoint>
            <Time>2022-11-06T10:55:46.000Z</Time>
            <Position>
              <LatitudeDegrees>41.35757616721093654632568359375</LatitudeDegrees>
              <LongitudeDegrees>-1.6638815402984619140625</LongitudeDegrees>
            </Position>
            <AltitudeMeters>628.4000244140625</AltitudeMeters>
            <DistanceMeters>9590.6680210183</DistanceMeters>
          </Trackpoint>
          <Trackpoint>
            <Time>2022-11-06T10:55:47.000Z</Time>
            <Position>
              <LatitudeDegrees>41.35758656077086925506591796875</LatitudeDegrees>
              <LongitudeDegrees>-1.66386502794921398162841796875</LongitudeDegrees>
            </Position>
            <AltitudeMeters>628.79998779296875</AltitudeMeters>
            <DistanceMeters>9592.4660108311</DistanceMeters>
          </Trackpoint>
          <Trackpoint>
            <Time>2022-11-06T10:55:48.000Z</Time>
            <Position>
              <LatitudeDegrees>41.35759728960692882537841796875</LatitudeDegrees>
              <LongitudeDegrees>-1.66384658776223659515380859375</LongitudeDegrees>
            </Position>
            <AltitudeMeters>629.20001220703125</AltitudeMeters>
            <DistanceMeters>9594.4157959944</DistanceMeters>
          </Trackpoint>
          <Trackpoint>
            <Time>2022-11-06T10:55:49.000Z</Time>
            <Position>
              <LatitudeDegrees>41.35760583914816379547119140625</LatitudeDegrees>
              <LongitudeDegrees>-1.66382764466106891632080078125</LongitudeDegrees>
            </Position>
            <AltitudeMeters>629.4000244140625</AltitudeMeters>
            <DistanceMeters>9596.2633264801</DistanceMeters>
          </Trackpoint>
          <Trackpoint>
            <Time>2022-11-06T10:55:50.000Z</Time>
            <Position>
              <LatitudeDegrees>41.35761355049908161163330078125</LatitudeDegrees>
              <LongitudeDegrees>-1.66381071321666240692138671875</LongitudeDegrees>
            </Position>
            <AltitudeMeters>629.5999755859375</AltitudeMeters>
            <DistanceMeters>9597.917446537</DistanceMeters>
          </Trackpoint>
          <Trackpoint>
            <Time>2022-11-06T10:55:51.000Z</Time>
            <Position>
              <LatitudeDegrees>41.3576258718967437744140625</LatitudeDegrees>
              <LongitudeDegrees>-1.66379411704838275909423828125</LongitudeDegrees>
            </Position>
            <AltitudeMeters>630</AltitudeMeters>
            <DistanceMeters>9599.8695459861</DistanceMeters>
          </Trackpoint>
          <Trackpoint>
            <Time>2022-11-06T10:55:52.000Z</Time>
            <Position>
              <LatitudeDegrees>41.357640288770198822021484375</LatitudeDegrees>
              <LongitudeDegrees>-1.66377785615622997283935546875</LongitudeDegrees>
            </Position>
            <AltitudeMeters>630.20001220703125</AltitudeMeters>
            <DistanceMeters>9601.9751973186</DistanceMeters>
          </Trackpoint>
          <Trackpoint>
            <Time>2022-11-06T10:55:53.000Z</Time>
            <Position>
              <LatitudeDegrees>41.35765311308205127716064453125</LatitudeDegrees>
              <LongitudeDegrees>-1.66376561857759952545166015625</LongitudeDegrees>
            </Position>
            <AltitudeMeters>630.4000244140625</AltitudeMeters>
            <DistanceMeters>9603.7299782358</DistanceMeters>
          </Trackpoint>
          <Trackpoint>
            <Time>2022-11-06T10:55:54.000Z</Time>
            <Position>
              <LatitudeDegrees>41.357665769755840301513671875</LatitudeDegrees>
              <LongitudeDegrees>-1.66375120170414447784423828125</LongitudeDegrees>
            </Position>
            <AltitudeMeters>630.5999755859375</AltitudeMeters>
            <DistanceMeters>9605.5823899203</DistanceMeters>
          </Trackpoint>
          <Trackpoint>
            <Time>2022-11-06T10:55:55.000Z</Time>
            <Position>
              <LatitudeDegrees>41.3576793484389781951904296875</LatitudeDegrees>
              <LongitudeDegrees>-1.6637365333735942840576171875</LongitudeDegrees>
            </Position>
            <AltitudeMeters>630.5999755859375</AltitudeMeters>
            <DistanceMeters>9607.5252156854</DistanceMeters>
          </Trackpoint>
          <Trackpoint>
            <Time>2022-11-06T10:55:56.000Z</Time>
            <Position>
              <LatitudeDegrees>41.35769736953079700469970703125</LatitudeDegrees>
              <LongitudeDegrees>-1.66372253559529781341552734375</LongitudeDegrees>
            </Position>
            <AltitudeMeters>630.5999755859375</AltitudeMeters>
            <DistanceMeters>9609.8451134333</DistanceMeters>
          </Trackpoint>
          <Trackpoint>
            <Time>2022-11-06T10:55:57.000Z</Time>
            <Position>
              <LatitudeDegrees>41.35771329514682292938232421875</LatitudeDegrees>
              <LongitudeDegrees>-1.6637076996266841888427734375</LongitudeDegrees>
            </Position>
            <AltitudeMeters>630.79998779296875</AltitudeMeters>
            <DistanceMeters>9612.005796085</DistanceMeters>
          </Trackpoint>
          <Trackpoint>
            <Time>2022-11-06T10:55:58.000Z</Time>
            <Position>
              <LatitudeDegrees>41.357736177742481231689453125</LatitudeDegrees>
              <LongitudeDegrees>-1.66370250284671783447265625</LongitudeDegrees>
            </Position>
            <AltitudeMeters>630.79998779296875</AltitudeMeters>
            <DistanceMeters>9614.5908021911</DistanceMeters>
          </Trackpoint>
          <Trackpoint>
            <Time>2022-11-06T10:55:59.000Z</Time>
            <Position>
              <LatitudeDegrees>41.3577594794332981109619140625</LatitudeDegrees>
              <LongitudeDegrees>-1.66369789279997348785400390625</LongitudeDegrees>
            </Position>
            <AltitudeMeters>630.79998779296875</AltitudeMeters>
            <DistanceMeters>9617.2122308424</DistanceMeters>
          </Trackpoint>
          <Trackpoint>
            <Time>2022-11-06T10:56:00.000Z</Time>
            <Position>
              <LatitudeDegrees>41.357780434191226959228515625</LatitudeDegrees>
              <LongitudeDegrees>-1.66369101963937282562255859375</LongitudeDegrees>
            </Position>
            <AltitudeMeters>630.79998779296875</AltitudeMeters>
            <DistanceMeters>9619.6143588256</DistanceMeters>
          </Trackpoint>
          <Trackpoint>
            <Time>2022-11-06T10:56:01.000Z</Time>
            <Position>
              <LatitudeDegrees>41.357801221311092376708984375</LatitudeDegrees>
              <LongitudeDegrees>-1.6636852361261844635009765625</LongitudeDegrees>
            </Position>
            <AltitudeMeters>631</AltitudeMeters>
            <DistanceMeters>9621.9766854843</DistanceMeters>
          </Trackpoint>
          <Trackpoint>
            <Time>2022-11-06T10:56:02.000Z</Time>
            <Position>
              <LatitudeDegrees>41.3578221760690212249755859375</LatitudeDegrees>
              <LongitudeDegrees>-1.6636778600513935089111328125</LongitudeDegrees>
            </Position>
            <AltitudeMeters>631</AltitudeMeters>
            <DistanceMeters>9624.3881931517</DistanceMeters>
          </Trackpoint>
          <Trackpoint>
            <Time>2022-11-06T10:56:03.000Z</Time>
            <Position>
              <LatitudeDegrees>41.3578377664089202880859375</LatitudeDegrees>
              <LongitudeDegrees>-1.6636580787599086761474609375</LongitudeDegrees>
            </Position>
            <AltitudeMeters>631</AltitudeMeters>
            <DistanceMeters>9626.7846757029</DistanceMeters>
          </Trackpoint>
          <Trackpoint>
            <Time>2022-11-06T10:56:04.000Z</Time>
            <Position>
              <LatitudeDegrees>41.3578496687114238739013671875</LatitudeDegrees>
              <LongitudeDegrees>-1.6636339388787746429443359375</LongitudeDegrees>
            </Position>
            <AltitudeMeters>631.20001220703125</AltitudeMeters>
            <DistanceMeters>9629.1999250447</DistanceMeters>
          </Trackpoint>
          <Trackpoint>
            <Time>2022-11-06T10:56:05.000Z</Time>
            <Position>
              <LatitudeDegrees>41.35786098428070545196533203125</LatitudeDegrees>
              <LongitudeDegrees>-1.6636119782924652099609375</LongitudeDegrees>
            </Position>
            <AltitudeMeters>631.20001220703125</AltitudeMeters>
            <DistanceMeters>9631.42647214</DistanceMeters>
          </Trackpoint>
          <Trackpoint>
            <Time>2022-11-06T10:56:06.000Z</Time>
            <Position>
              <LatitudeDegrees>41.3578704558312892913818359375</LatitudeDegrees>
              <LongitudeDegrees>-1.66359395720064640045166015625</LongitudeDegrees>
            </Position>
            <AltitudeMeters>631.4000244140625</AltitudeMeters>
            <DistanceMeters>9633.2642013339</DistanceMeters>
          </Trackpoint>
          <Trackpoint>
            <Time>2022-11-06T10:56:07.000Z</Time>
            <Position>
              <LatitudeDegrees>41.35787439532577991485595703125</LatitudeDegrees>
              <LongitudeDegrees>-1.66356914676725864410400390625</LongitudeDegrees>
            </Position>
            <AltitudeMeters>631.5999755859375</AltitudeMeters>
            <DistanceMeters>9635.3848092819</DistanceMeters>
          </Trackpoint>
          <Trackpoint>
            <Time>2022-11-06T10:56:08.000Z</Time>
            <Position>
              <LatitudeDegrees>41.3578754849731922149658203125</LatitudeDegrees>
              <LongitudeDegrees>-1.6635383851826190948486328125</LongitudeDegrees>
            </Position>
            <AltitudeMeters>631.5999755859375</AltitudeMeters>
            <DistanceMeters>9637.9593143042</DistanceMeters>
          </Trackpoint>
          <Trackpoint>
            <Time>2022-11-06T10:56:09.000Z</Time>
            <Position>
              <LatitudeDegrees>41.3578801788389682769775390625</LatitudeDegrees>
              <LongitudeDegrees>-1.663514412939548492431640625</LongitudeDegrees>
            </Position>
            <AltitudeMeters>631.79998779296875</AltitudeMeters>
            <DistanceMeters>9640.0303735285</DistanceMeters>
          </Trackpoint>
          <Trackpoint>
            <Time>2022-11-06T10:56:10.000Z</Time>
            <Position>
              <LatitudeDegrees>41.35788445360958576202392578125</LatitudeDegrees>
              <LongitudeDegrees>-1.66349639184772968292236328125</LongitudeDegrees>
            </Position>
            <AltitudeMeters>632.20001220703125</AltitudeMeters>
            <DistanceMeters>9641.6090758749</DistanceMeters>
          </Trackpoint>
          <Trackpoint>
            <Time>2022-11-06T10:56:11.000Z</Time>
            <Position>
              <LatitudeDegrees>41.35788663290441036224365234375</LatitudeDegrees>
              <LongitudeDegrees>-1.663480885326862335205078125</LongitudeDegrees>
            </Position>
            <AltitudeMeters>633</AltitudeMeters>
            <DistanceMeters>9642.9258046539</DistanceMeters>
          </Trackpoint>
          <Trackpoint>
            <Time>2022-11-06T10:56:12.000Z</Time>
            <Position>
              <LatitudeDegrees>41.3578862138092517852783203125</LatitudeDegrees>
              <LongitudeDegrees>-1.6634572483599185943603515625</LongitudeDegrees>
            </Position>
            <AltitudeMeters>633.4000244140625</AltitudeMeters>
            <DistanceMeters>9644.9008978222</DistanceMeters>
          </Trackpoint>
          <Trackpoint>
            <Time>2022-11-06T10:56:13.000Z</Time>
            <Position>
              <LatitudeDegrees>41.3578835316002368927001953125</LatitudeDegrees>
              <LongitudeDegrees>-1.663429923355579376220703125</LongitudeDegrees>
            </Position>
            <AltitudeMeters>633.5999755859375</AltitudeMeters>
            <DistanceMeters>9647.2051731854</DistanceMeters>
          </Trackpoint>
          <Trackpoint>
            <Time>2022-11-06T10:56:14.000Z</Time>
            <Position>
              <LatitudeDegrees>41.35788311250507831573486328125</LatitudeDegrees>
              <LongitudeDegrees>-1.66340134106576442718505859375</LongitudeDegrees>
            </Position>
            <AltitudeMeters>633.5999755859375</AltitudeMeters>
            <DistanceMeters>9649.5941077413</DistanceMeters>
          </Trackpoint>
          <Trackpoint>
            <Time>2022-11-06T10:56:15.000Z</Time>
            <Position>
              <LatitudeDegrees>41.357883028686046600341796875</LatitudeDegrees>
              <LongitudeDegrees>-1.663375608623027801513671875</LongitudeDegrees>
            </Position>
            <AltitudeMeters>633.79998779296875</AltitudeMeters>
            <DistanceMeters>9651.7443168333</DistanceMeters>
          </Trackpoint>
          <Trackpoint>
            <Time>2022-11-06T10:56:16.000Z</Time>
            <Position>
              <LatitudeDegrees>41.35788663290441036224365234375</LatitudeDegrees>
              <LongitudeDegrees>-1.66334954090416431427001953125</LongitudeDegrees>
            </Position>
            <AltitudeMeters>634</AltitudeMeters>
            <DistanceMeters>9653.9566236458</DistanceMeters>
          </Trackpoint>
          <Trackpoint>
            <Time>2022-11-06T10:56:17.000Z</Time>
            <Position>
              <LatitudeDegrees>41.35789074003696441650390625</LatitudeDegrees>
              <LongitudeDegrees>-1.66332162916660308837890625</LongitudeDegrees>
            </Position>
            <AltitudeMeters>634.20001220703125</AltitudeMeters>
            <DistanceMeters>9656.3303902099</DistanceMeters>
          </Trackpoint>
          <Trackpoint>
            <Time>2022-11-06T10:56:18.000Z</Time>
            <Position>
              <LatitudeDegrees>41.35789535008370876312255859375</LatitudeDegrees>
              <LongitudeDegrees>-1.66329489089548587799072265625</LongitudeDegrees>
            </Position>
            <AltitudeMeters>634.4000244140625</AltitudeMeters>
            <DistanceMeters>9658.6209085823</DistanceMeters>
          </Trackpoint>
          <Trackpoint>
            <Time>2022-11-06T10:56:19.000Z</Time>
            <Position>
              <LatitudeDegrees>41.35789937339723110198974609375</LatitudeDegrees>
              <LongitudeDegrees>-1.6632708348333835601806640625</LongitudeDegrees>
            </Position>
            <AltitudeMeters>634.5999755859375</AltitudeMeters>
            <DistanceMeters>9660.6810386579</DistanceMeters>
          </Trackpoint>
          <Trackpoint>
            <Time>2022-11-06T10:56:20.000Z</Time>
            <Position>
              <LatitudeDegrees>41.35790457017719745635986328125</LatitudeDegrees>
              <LongitudeDegrees>-1.66324778459966182708740234375</LongitudeDegrees>
            </Position>
            <AltitudeMeters>635</AltitudeMeters>
            <DistanceMeters>9662.692375091</DistanceMeters>
          </Trackpoint>
          <Trackpoint>
            <Time>2022-11-06T10:56:21.000Z</Time>
            <Position>
              <LatitudeDegrees>41.3579043187201023101806640625</LatitudeDegrees>
              <LongitudeDegrees>-1.66321945376694202423095703125</LongitudeDegrees>
            </Position>
            <AltitudeMeters>635.20001220703125</AltitudeMeters>
            <DistanceMeters>9665.058521197</DistanceMeters>
          </Trackpoint>
          <Trackpoint>
            <Time>2022-11-06T10:56:22.000Z</Time>
            <Position>
              <LatitudeDegrees>41.35790306143462657928466796875</LatitudeDegrees>
              <LongitudeDegrees>-1.6631935536861419677734375</LongitudeDegrees>
            </Position>
            <AltitudeMeters>635.20001220703125</AltitudeMeters>
            <DistanceMeters>9667.2254636861</DistanceMeters>
          </Trackpoint>
          <Trackpoint>
            <Time>2022-11-06T10:56:23.000Z</Time>
            <Position>
              <LatitudeDegrees>41.3579009659588336944580078125</LatitudeDegrees>
              <LongitudeDegrees>-1.66316329501569271087646484375</LongitudeDegrees>
            </Position>
            <AltitudeMeters>635.5999755859375</AltitudeMeters>
            <DistanceMeters>9669.7646514659</DistanceMeters>
          </Trackpoint>
          <Trackpoint>
            <Time>2022-11-06T10:56:24.000Z</Time>
            <Position>
              <LatitudeDegrees>41.35790104977786540985107421875</LatitudeDegrees>
              <LongitudeDegrees>-1.66313362307846546173095703125</LongitudeDegrees>
            </Position>
            <AltitudeMeters>636</AltitudeMeters>
            <DistanceMeters>9672.246286438</DistanceMeters>
          </Trackpoint>
          <Trackpoint>
            <Time>2022-11-06T10:56:25.000Z</Time>
            <Position>
              <LatitudeDegrees>41.357902474701404571533203125</LatitudeDegrees>
              <LongitudeDegrees>-1.663104034960269927978515625</LongitudeDegrees>
            </Position>
            <AltitudeMeters>636</AltitudeMeters>
            <DistanceMeters>9674.7242799775</DistanceMeters>
          </Trackpoint>
          <Trackpoint>
            <Time>2022-11-06T10:56:26.000Z</Time>
            <Position>
              <LatitudeDegrees>41.35790222324430942535400390625</LatitudeDegrees>
              <LongitudeDegrees>-1.6630740277469158172607421875</LongitudeDegrees>
            </Position>
            <AltitudeMeters>636.20001220703125</AltitudeMeters>
            <DistanceMeters>9677.231256883</DistanceMeters>
          </Trackpoint>
          <Trackpoint>
            <Time>2022-11-06T10:56:27.000Z</Time>
            <Position>
              <LatitudeDegrees>41.35790205560624599456787109375</LatitudeDegrees>
              <LongitudeDegrees>-1.6630428470671176910400390625</LongitudeDegrees>
            </Position>
            <AltitudeMeters>636.4000244140625</AltitudeMeters>
            <DistanceMeters>9679.8371382092</DistanceMeters>
          </Trackpoint>
          <Trackpoint>
            <Time>2022-11-06T10:56:28.000Z</Time>
            <Position>
              <LatitudeDegrees>41.35789786465466022491455078125</LatitudeDegrees>
              <LongitudeDegrees>-1.6630099900066852569580078125</LongitudeDegrees>
            </Position>
            <AltitudeMeters>636.5999755859375</AltitudeMeters>
            <DistanceMeters>9682.6206262348</DistanceMeters>
          </Trackpoint>
          <Trackpoint>
            <Time>2022-11-06T10:56:29.000Z</Time>
            <Position>
              <LatitudeDegrees>41.35789182968437671661376953125</LatitudeDegrees>
              <LongitudeDegrees>-1.6629771329462528228759765625</LongitudeDegrees>
            </Position>
            <AltitudeMeters>636.79998779296875</AltitudeMeters>
            <DistanceMeters>9685.4459735721</DistanceMeters>
          </Trackpoint>
          <Trackpoint>
            <Time>2022-11-06T10:56:30.000Z</Time>
            <Position>
              <LatitudeDegrees>41.3578878901898860931396484375</LatitudeDegrees>
              <LongitudeDegrees>-1.66294804774224758148193359375</LongitudeDegrees>
            </Position>
            <AltitudeMeters>636.79998779296875</AltitudeMeters>
            <DistanceMeters>9687.9166681457</DistanceMeters>
          </Trackpoint>
          <Trackpoint>
            <Time>2022-11-06T10:56:31.000Z</Time>
            <Position>
              <LatitudeDegrees>41.35788193903863430023193359375</LatitudeDegrees>
              <LongitudeDegrees>-1.66292005218565464019775390625</LongitudeDegrees>
            </Position>
            <AltitudeMeters>637</AltitudeMeters>
            <DistanceMeters>9690.3468265756</DistanceMeters>
          </Trackpoint>
          <Trackpoint>
            <Time>2022-11-06T10:56:32.000Z</Time>
            <Position>
              <LatitudeDegrees>41.35787464678287506103515625</LatitudeDegrees>
              <LongitudeDegrees>-1.6628909669816493988037109375</LongitudeDegrees>
            </Position>
            <AltitudeMeters>637.5999755859375</AltitudeMeters>
            <DistanceMeters>9692.9090259384</DistanceMeters>
          </Trackpoint>
          <Trackpoint>
            <Time>2022-11-06T10:56:33.000Z</Time>
            <Position>
              <LatitudeDegrees>41.35787196457386016845703125</LatitudeDegrees>
              <LongitudeDegrees>-1.66286556981503963470458984375</LongitudeDegrees>
            </Position>
            <AltitudeMeters>637.79998779296875</AltitudeMeters>
            <DistanceMeters>9695.0529263349</DistanceMeters>
          </Trackpoint>
          <Trackpoint>
            <Time>2022-11-06T10:56:34.000Z</Time>
            <Position>
              <LatitudeDegrees>41.35786601342260837554931640625</LatitudeDegrees>
              <LongitudeDegrees>-1.66284008882939815521240234375</LongitudeDegrees>
            </Position>
            <AltitudeMeters>638</AltitudeMeters>
            <DistanceMeters>9697.2855486041</DistanceMeters>
          </Trackpoint>
          <Trackpoint>
            <Time>2022-11-06T10:56:35.000Z</Time>
            <Position>
              <LatitudeDegrees>41.3578617386519908905029296875</LatitudeDegrees>
              <LongitudeDegrees>-1.6628141887485980987548828125</LongitudeDegrees>
            </Position>
            <AltitudeMeters>638.4000244140625</AltitudeMeters>
            <DistanceMeters>9699.4998953496</DistanceMeters>
          </Trackpoint>
          <Trackpoint>
            <Time>2022-11-06T10:56:36.000Z</Time>
            <Position>
              <LatitudeDegrees>41.357857882976531982421875</LatitudeDegrees>
              <LongitudeDegrees>-1.6627858579158782958984375</LongitudeDegrees>
            </Position>
            <AltitudeMeters>639</AltitudeMeters>
            <DistanceMeters>9701.9039021973</DistanceMeters>
          </Trackpoint>
          <Trackpoint>
            <Time>2022-11-06T10:56:37.000Z</Time>
            <Position>
              <LatitudeDegrees>41.3578496687114238739013671875</LatitudeDegrees>
              <LongitudeDegrees>-1.6627508215606212615966796875</LongitudeDegrees>
            </Position>
            <AltitudeMeters>639.20001220703125</AltitudeMeters>
            <DistanceMeters>9704.9698946269</DistanceMeters>
          </Trackpoint>
          <Trackpoint>
            <Time>2022-11-06T10:56:38.000Z</Time>
            <Position>
              <LatitudeDegrees>41.357839442789554595947265625</LatitudeDegrees>
              <LongitudeDegrees>-1.66272039525210857391357421875</LongitudeDegrees>
            </Position>
            <AltitudeMeters>639.4000244140625</AltitudeMeters>
            <DistanceMeters>9707.7566249228</DistanceMeters>
          </Trackpoint>
          <Trackpoint>
            <Time>2022-11-06T10:56:39.000Z</Time>
            <Position>
              <LatitudeDegrees>41.3578315638005733489990234375</LatitudeDegrees>
              <LongitudeDegrees>-1.6627013683319091796875</LongitudeDegrees>
            </Position>
            <AltitudeMeters>639.5999755859375</AltitudeMeters>
            <DistanceMeters>9709.5721077517</DistanceMeters>
          </Trackpoint>
          <Trackpoint>
            <Time>2022-11-06T10:56:40.000Z</Time>
            <Position>
              <LatitudeDegrees>41.3578251935541629791259765625</LatitudeDegrees>
              <LongitudeDegrees>-1.66266976855695247650146484375</LongitudeDegrees>
            </Position>
            <AltitudeMeters>639.5999755859375</AltitudeMeters>
            <DistanceMeters>9712.3048487235</DistanceMeters>
          </Trackpoint>
          <Trackpoint>
            <Time>2022-11-06T10:56:41.000Z</Time>
            <Position>
              <LatitudeDegrees>41.357822008430957794189453125</LatitudeDegrees>
              <LongitudeDegrees>-1.66264437139034271240234375</LongitudeDegrees>
            </Position>
            <AltitudeMeters>639.79998779296875</AltitudeMeters>
            <DistanceMeters>9714.4550578155</DistanceMeters>
          </Trackpoint>
          <Trackpoint>
            <Time>2022-11-06T10:56:42.000Z</Time>
            <Position>
              <LatitudeDegrees>41.35781840421259403228759765625</LatitudeDegrees>
              <LongitudeDegrees>-1.662613861262798309326171875</LongitudeDegrees>
            </Position>
            <AltitudeMeters>640</AltitudeMeters>
            <DistanceMeters>9717.0330679518</DistanceMeters>
          </Trackpoint>
          <Trackpoint>
            <Time>2022-11-06T10:56:43.000Z</Time>
            <Position>
              <LatitudeDegrees>41.35781639255583286285400390625</LatitudeDegrees>
              <LongitudeDegrees>-1.66258377023041248321533203125</LongitudeDegrees>
            </Position>
            <AltitudeMeters>640.20001220703125</AltitudeMeters>
            <DistanceMeters>9719.5579905188</DistanceMeters>
          </Trackpoint>
          <Trackpoint>
            <Time>2022-11-06T10:56:44.000Z</Time>
            <Position>
              <LatitudeDegrees>41.3578124530613422393798828125</LatitudeDegrees>
              <LongitudeDegrees>-1.6625597141683101654052734375</LongitudeDegrees>
            </Position>
            <AltitudeMeters>640.20001220703125</AltitudeMeters>
            <DistanceMeters>9721.613732666</DistanceMeters>
          </Trackpoint>
          <Trackpoint>
            <Time>2022-11-06T10:56:45.000Z</Time>
            <Position>
              <LatitudeDegrees>41.35780918411910533905029296875</LatitudeDegrees>
              <LongitudeDegrees>-1.6625379212200641632080078125</LongitudeDegrees>
            </Position>
            <AltitudeMeters>640.4000244140625</AltitudeMeters>
            <DistanceMeters>9723.4710127207</DistanceMeters>
          </Trackpoint>
          <Trackpoint>
            <Time>2022-11-06T10:56:46.000Z</Time>
            <Position>
              <LatitudeDegrees>41.357805244624614715576171875</LatitudeDegrees>
              <LongitudeDegrees>-1.66250581853091716766357421875</LongitudeDegrees>
            </Position>
            <AltitudeMeters>640.5999755859375</AltitudeMeters>
            <DistanceMeters>9726.1888432031</DistanceMeters>
          </Trackpoint>
          <Trackpoint>
            <Time>2022-11-06T10:56:47.000Z</Time>
            <Position>
              <LatitudeDegrees>41.35780264623463153839111328125</LatitudeDegrees>
              <LongitudeDegrees>-1.66247514076530933380126953125</LongitudeDegrees>
            </Position>
            <AltitudeMeters>640.5999755859375</AltitudeMeters>
            <DistanceMeters>9728.7668533394</DistanceMeters>
          </Trackpoint>
          <Trackpoint>
            <Time>2022-11-06T10:56:48.000Z</Time>
            <Position>
              <LatitudeDegrees>41.357797197997570037841796875</LatitudeDegrees>
              <LongitudeDegrees>-1.66244680993258953094482421875</LongitudeDegrees>
            </Position>
            <AltitudeMeters>640.79998779296875</AltitudeMeters>
            <DistanceMeters>9731.2099825888</DistanceMeters>
          </Trackpoint>
          <Trackpoint>
            <Time>2022-11-06T10:56:49.000Z</Time>
            <Position>
              <LatitudeDegrees>41.35778906755149364471435546875</LatitudeDegrees>
              <LongitudeDegrees>-1.66241948492825031280517578125</LongitudeDegrees>
            </Position>
            <AltitudeMeters>640.79998779296875</AltitudeMeters>
            <DistanceMeters>9733.6660141571</DistanceMeters>
          </Trackpoint>
          <Trackpoint>
            <Time>2022-11-06T10:56:50.000Z</Time>
            <Position>
              <LatitudeDegrees>41.35777750052511692047119140625</LatitudeDegrees>
              <LongitudeDegrees>-1.6623900644481182098388671875</LongitudeDegrees>
            </Position>
            <AltitudeMeters>640.79998779296875</AltitudeMeters>
            <DistanceMeters>9736.441379936</DistanceMeters>
          </Trackpoint>
          <Trackpoint>
            <Time>2022-11-06T10:56:51.000Z</Time>
            <Position>
              <LatitudeDegrees>41.35776476003229618072509765625</LatitudeDegrees>
              <LongitudeDegrees>-1.66236248798668384552001953125</LongitudeDegrees>
            </Position>
            <AltitudeMeters>641</AltitudeMeters>
            <DistanceMeters>9739.1458876398</DistanceMeters>
          </Trackpoint>
          <Trackpoint>
            <Time>2022-11-06T10:56:52.000Z</Time>
            <Position>
              <LatitudeDegrees>41.35775151662528514862060546875</LatitudeDegrees>
              <LongitudeDegrees>-1.66233046911656856536865234375</LongitudeDegrees>
            </Position>
            <AltitudeMeters>641</AltitudeMeters>
            <DistanceMeters>9742.2000763973</DistanceMeters>
          </Trackpoint>
          <Trackpoint>
            <Time>2022-11-06T10:56:53.000Z</Time>
            <Position>
              <LatitudeDegrees>41.35774263180792331695556640625</LatitudeDegrees>
              <LongitudeDegrees>-1.662308759987354278564453125</LongitudeDegrees>
            </Position>
            <AltitudeMeters>641</AltitudeMeters>
            <DistanceMeters>9744.2667708977</DistanceMeters>
          </Trackpoint>
          <Trackpoint>
            <Time>2022-11-06T10:56:54.000Z</Time>
            <Position>
              <LatitudeDegrees>41.3577360101044178009033203125</LatitudeDegrees>
              <LongitudeDegrees>-1.6622814349830150604248046875</LongitudeDegrees>
            </Position>
            <AltitudeMeters>641</AltitudeMeters>
            <DistanceMeters>9746.6651367361</DistanceMeters>
          </Trackpoint>
          <Trackpoint>
            <Time>2022-11-06T10:56:55.000Z</Time>
            <Position>
              <LatitudeDegrees>41.35772603563964366912841796875</LatitudeDegrees>
              <LongitudeDegrees>-1.662254445254802703857421875</LongitudeDegrees>
            </Position>
            <AltitudeMeters>640.79998779296875</AltitudeMeters>
            <DistanceMeters>9749.1793072774</DistanceMeters>
          </Trackpoint>
          <Trackpoint>
            <Time>2022-11-06T10:56:56.000Z</Time>
            <Position>
              <LatitudeDegrees>41.35771748609840869903564453125</LatitudeDegrees>
              <LongitudeDegrees>-1.66223776526749134063720703125</LongitudeDegrees>
            </Position>
            <AltitudeMeters>640.79998779296875</AltitudeMeters>
            <DistanceMeters>9750.8685391017</DistanceMeters>
          </Trackpoint>
          <Trackpoint>
            <Time>2022-11-06T10:56:57.000Z</Time>
            <Position>
              <LatitudeDegrees>41.35770793072879314422607421875</LatitudeDegrees>
              <LongitudeDegrees>-1.6622145473957061767578125</LongitudeDegrees>
            </Position>
            <AltitudeMeters>640.79998779296875</AltitudeMeters>
            <DistanceMeters>9753.0808459142</DistanceMeters>
          </Trackpoint>
          <Trackpoint>
            <Time>2022-11-06T10:56:58.000Z</Time>
            <Position>
              <LatitudeDegrees>41.3576977886259555816650390625</LatitudeDegrees>
              <LongitudeDegrees>-1.66219585575163364410400390625</LongitudeDegrees>
            </Position>
            <AltitudeMeters>640.79998779296875</AltitudeMeters>
            <DistanceMeters>9755.0096775541</DistanceMeters>
          </Trackpoint>
          <Trackpoint>
            <Time>2022-11-06T10:56:59.000Z</Time>
            <Position>
              <LatitudeDegrees>41.357686221599578857421875</LatitudeDegrees>
              <LongitudeDegrees>-1.66218043304979801177978515625</LongitudeDegrees>
            </Position>
            <AltitudeMeters>640.79998779296875</AltitudeMeters>
            <DistanceMeters>9756.8326060034</DistanceMeters>
          </Trackpoint>
          <Trackpoint>
            <Time>2022-11-06T10:57:00.000Z</Time>
            <Position>
              <LatitudeDegrees>41.357671804726123809814453125</LatitudeDegrees>
              <LongitudeDegrees>-1.66215696372091770172119140625</LongitudeDegrees>
            </Position>
            <AltitudeMeters>640.79998779296875</AltitudeMeters>
            <DistanceMeters>9759.3682350039</DistanceMeters>
          </Trackpoint>
          <Trackpoint>
            <Time>2022-11-06T10:57:01.000Z</Time>
            <Position>
              <LatitudeDegrees>41.357657723128795623779296875</LatitudeDegrees>
              <LongitudeDegrees>-1.66213282383978366851806640625</LongitudeDegrees>
            </Position>
            <AltitudeMeters>640.79998779296875</AltitudeMeters>
            <DistanceMeters>9761.9216083006</DistanceMeters>
          </Trackpoint>
          <Trackpoint>
            <Time>2022-11-06T10:57:02.000Z</Time>
            <Position>
              <LatitudeDegrees>41.357640959322452545166015625</LatitudeDegrees>
              <LongitudeDegrees>-1.66211170144379138946533203125</LongitudeDegrees>
            </Position>
            <AltitudeMeters>640.79998779296875</AltitudeMeters>
            <DistanceMeters>9764.4908466859</DistanceMeters>
          </Trackpoint>
          <Trackpoint>
            <Time>2022-11-06T10:57:03.000Z</Time>
            <Position>
              <LatitudeDegrees>41.35761723853647708892822265625</LatitudeDegrees>
              <LongitudeDegrees>-1.662075407803058624267578125</LongitudeDegrees>
            </Position>
            <AltitudeMeters>640.79998779296875</AltitudeMeters>
            <DistanceMeters>9768.5101509489</DistanceMeters>
          </Trackpoint>
          <Trackpoint>
            <Time>2022-11-06T10:57:04.000Z</Time>
            <Position>
              <LatitudeDegrees>41.35760282166302204132080078125</LatitudeDegrees>
              <LongitudeDegrees>-1.66204649023711681365966796875</LongitudeDegrees>
            </Position>
            <AltitudeMeters>640.79998779296875</AltitudeMeters>
            <DistanceMeters>9771.4111906325</DistanceMeters>
          </Trackpoint>
          <Trackpoint>
            <Time>2022-11-06T10:57:07.000Z</Time>
            <Position>
              <LatitudeDegrees>41.357595361769199371337890625</LatitudeDegrees>
              <LongitudeDegrees>-1.6618837974965572357177734375</LongitudeDegrees>
            </Position>
            <AltitudeMeters>640.20001220703125</AltitudeMeters>
            <DistanceMeters>9785.0285552739</DistanceMeters>
          </Trackpoint>
          <Trackpoint>
            <Time>2022-11-06T10:57:08.000Z</Time>
            <Position>
              <LatitudeDegrees>41.35761271230876445770263671875</LatitudeDegrees>
              <LongitudeDegrees>-1.66181422770023345947265625</LongitudeDegrees>
            </Position>
            <AltitudeMeters>639.79998779296875</AltitudeMeters>
            <DistanceMeters>9791.1531726128</DistanceMeters>
          </Trackpoint>
          <Trackpoint>
            <Time>2022-11-06T10:57:09.000Z</Time>
            <Position>
              <LatitudeDegrees>41.35763416998088359832763671875</LatitudeDegrees>
              <LongitudeDegrees>-1.66173920966684818267822265625</LongitudeDegrees>
            </Position>
            <AltitudeMeters>639.4000244140625</AltitudeMeters>
            <DistanceMeters>9797.8604701941</DistanceMeters>
          </Trackpoint>
          <Trackpoint>
            <Time>2022-11-06T10:57:10.000Z</Time>
            <Position>
              <LatitudeDegrees>41.357662416994571685791015625</LatitudeDegrees>
              <LongitudeDegrees>-1.661661006510257720947265625</LongitudeDegrees>
            </Position>
            <AltitudeMeters>639</AltitudeMeters>
            <DistanceMeters>9805.1118242148</DistanceMeters>
          </Trackpoint>
          <Trackpoint>
            <Time>2022-11-06T10:57:11.000Z</Time>
            <Position>
              <LatitudeDegrees>41.3576994650065898895263671875</LatitudeDegrees>
              <LongitudeDegrees>-1.66157995350658893585205078125</LongitudeDegrees>
            </Position>
            <AltitudeMeters>638.20001220703125</AltitudeMeters>
            <DistanceMeters>9813.0407202415</DistanceMeters>
          </Trackpoint>
          <Trackpoint>
            <Time>2022-11-06T10:57:13.000Z</Time>
            <Position>
              <LatitudeDegrees>41.35778571479022502899169921875</LatitudeDegrees>
              <LongitudeDegrees>-1.6614224575459957122802734375</LongitudeDegrees>
            </Position>
            <AltitudeMeters>637.20001220703125</AltitudeMeters>
            <DistanceMeters>9829.3283101728</DistanceMeters>
          </Trackpoint>
          <Trackpoint>
            <Time>2022-11-06T10:57:15.000Z</Time>
            <Position>
              <LatitudeDegrees>41.35787154547870159149169921875</LatitudeDegrees>
              <LongitudeDegrees>-1.66126898489892482757568359375</LongitudeDegrees>
            </Position>
            <AltitudeMeters>636.5999755859375</AltitudeMeters>
            <DistanceMeters>9845.3173843863</DistanceMeters>
          </Trackpoint>
          <Trackpoint>
            <Time>2022-11-06T10:57:16.000Z</Time>
            <Position>
              <LatitudeDegrees>41.35790138505399227142333984375</LatitudeDegrees>
              <LongitudeDegrees>-1.661172844469547271728515625</LongitudeDegrees>
            </Position>
            <AltitudeMeters>636.4000244140625</AltitudeMeters>
            <DistanceMeters>9854.0090826974</DistanceMeters>
          </Trackpoint>
          <Trackpoint>
            <Time>2022-11-06T10:57:17.000Z</Time>
            <Position>
              <LatitudeDegrees>41.35789744555950164794921875</LatitudeDegrees>
              <LongitudeDegrees>-1.66111961938440799713134765625</LongitudeDegrees>
            </Position>
            <AltitudeMeters>636</AltitudeMeters>
            <DistanceMeters>9858.4763490809</DistanceMeters>
          </Trackpoint>
          <Trackpoint>
            <Time>2022-11-06T10:57:18.000Z</Time>
            <Position>
              <LatitudeDegrees>41.3578677736222743988037109375</LatitudeDegrees>
              <LongitudeDegrees>-1.6610486246645450592041015625</LongitudeDegrees>
            </Position>
            <AltitudeMeters>635.5999755859375</AltitudeMeters>
            <DistanceMeters>9865.2646095424</DistanceMeters>
          </Trackpoint>
          <Trackpoint>
            <Time>2022-11-06T10:57:19.000Z</Time>
            <Position>
              <LatitudeDegrees>41.3578416220843791961669921875</LatitudeDegrees>
              <LongitudeDegrees>-1.661008559167385101318359375</LongitudeDegrees>
            </Position>
            <AltitudeMeters>635.20001220703125</AltitudeMeters>
            <DistanceMeters>9869.7004337692</DistanceMeters>
          </Trackpoint>
          <Trackpoint>
            <Time>2022-11-06T10:57:20.000Z</Time>
            <Position>
              <LatitudeDegrees>41.3578137941658496856689453125</LatitudeDegrees>
              <LongitudeDegrees>-1.66095281951129436492919921875</LongitudeDegrees>
            </Position>
            <AltitudeMeters>634.5999755859375</AltitudeMeters>
            <DistanceMeters>9875.2933028721</DistanceMeters>
          </Trackpoint>
          <Trackpoint>
            <Time>2022-11-06T10:57:21.000Z</Time>
            <Position>
              <LatitudeDegrees>41.3577987067401409149169921875</LatitudeDegrees>
              <LongitudeDegrees>-1.6609037853777408599853515625</LongitudeDegrees>
            </Position>
            <AltitudeMeters>634</AltitudeMeters>
            <DistanceMeters>9879.7209767489</DistanceMeters>
          </Trackpoint>
          <Trackpoint>
            <Time>2022-11-06T10:57:22.000Z</Time>
            <Position>
              <LatitudeDegrees>41.3577866367995738983154296875</LatitudeDegrees>
              <LongitudeDegrees>-1.66085022501647472381591796875</LongitudeDegrees>
            </Position>
            <AltitudeMeters>633.4000244140625</AltitudeMeters>
            <DistanceMeters>9884.3937409032</DistanceMeters>
          </Trackpoint>
          <Trackpoint>
            <Time>2022-11-06T10:57:23.000Z</Time>
            <Position>
              <LatitudeDegrees>41.35776760987937450408935546875</LatitudeDegrees>
              <LongitudeDegrees>-1.66075852699577808380126953125</LongitudeDegrees>
            </Position>
            <AltitudeMeters>632.5999755859375</AltitudeMeters>
            <DistanceMeters>9892.3419743423</DistanceMeters>
          </Trackpoint>
          <Trackpoint>
            <Time>2022-11-06T10:57:24.000Z</Time>
            <Position>
              <LatitudeDegrees>41.35774330236017704010009765625</LatitudeDegrees>
              <LongitudeDegrees>-1.6606540046632289886474609375</LongitudeDegrees>
            </Position>
            <AltitudeMeters>631</AltitudeMeters>
            <DistanceMeters>9901.4833269453</DistanceMeters>
          </Trackpoint>
          <Trackpoint>
            <Time>2022-11-06T10:57:25.000Z</Time>
            <Position>
              <LatitudeDegrees>41.35772184468805789947509765625</LatitudeDegrees>
              <LongitudeDegrees>-1.660549230873584747314453125</LongitudeDegrees>
            </Position>
            <AltitudeMeters>629.5999755859375</AltitudeMeters>
            <DistanceMeters>9910.5562634525</DistanceMeters>
          </Trackpoint>
          <Trackpoint>
            <Time>2022-11-06T10:57:27.000Z</Time>
            <Position>
              <LatitudeDegrees>41.35769116692245006561279296875</LatitudeDegrees>
              <LongitudeDegrees>-1.66035938076674938201904296875</LongitudeDegrees>
            </Position>
            <AltitudeMeters>628.20001220703125</AltitudeMeters>
            <DistanceMeters>9926.7799704329</DistanceMeters>
          </Trackpoint>
          <Trackpoint>
            <Time>2022-11-06T10:57:28.000Z</Time>
            <Position>
              <LatitudeDegrees>41.35769636370241641998291015625</LatitudeDegrees>
              <LongitudeDegrees>-1.6602939181029796600341796875</LongitudeDegrees>
            </Position>
            <AltitudeMeters>628</AltitudeMeters>
            <DistanceMeters>9932.278397111</DistanceMeters>
          </Trackpoint>
          <Trackpoint>
            <Time>2022-11-06T10:57:29.000Z</Time>
            <Position>
              <LatitudeDegrees>41.357718408107757568359375</LatitudeDegrees>
              <LongitudeDegrees>-1.66024773381650447845458984375</LongitudeDegrees>
            </Position>
            <AltitudeMeters>627.79998779296875</AltitudeMeters>
            <DistanceMeters>9936.8515423136</DistanceMeters>
          </Trackpoint>
          <Trackpoint>
            <Time>2022-11-06T10:57:30.000Z</Time>
            <Position>
              <LatitudeDegrees>41.3577410392463207244873046875</LatitudeDegrees>
              <LongitudeDegrees>-1.66022501885890960693359375</LongitudeDegrees>
            </Position>
            <AltitudeMeters>627.5999755859375</AltitudeMeters>
            <DistanceMeters>9940.006085742</DistanceMeters>
          </Trackpoint>
          <Trackpoint>
            <Time>2022-11-06T10:57:31.000Z</Time>
            <Position>
              <LatitudeDegrees>41.35778613388538360595703125</LatitudeDegrees>
              <LongitudeDegrees>-1.66020180098712444305419921875</LongitudeDegrees>
            </Position>
            <AltitudeMeters>627.5999755859375</AltitudeMeters>
            <DistanceMeters>9945.388323681</DistanceMeters>
          </Trackpoint>
          <Trackpoint>
            <Time>2022-11-06T10:57:32.000Z</Time>
            <Position>
              <LatitudeDegrees>41.35783634148538112640380859375</LatitudeDegrees>
              <LongitudeDegrees>-1.66020347736775875091552734375</LongitudeDegrees>
            </Position>
            <AltitudeMeters>627</AltitudeMeters>
            <DistanceMeters>9950.9787704049</DistanceMeters>
          </Trackpoint>
          <Trackpoint>
            <Time>2022-11-06T10:57:33.000Z</Time>
            <Position>
              <LatitudeDegrees>41.357890069484710693359375</LatitudeDegrees>
              <LongitudeDegrees>-1.6602302156388759613037109375</LongitudeDegrees>
            </Position>
            <AltitudeMeters>626.20001220703125</AltitudeMeters>
            <DistanceMeters>9957.363264517</DistanceMeters>
          </Trackpoint>
          <Trackpoint>
            <Time>2022-11-06T10:57:34.000Z</Time>
            <Position>
              <LatitudeDegrees>41.3579504191875457763671875</LatitudeDegrees>
              <LongitudeDegrees>-1.660264246165752410888671875</LongitudeDegrees>
            </Position>
            <AltitudeMeters>625.5999755859375</AltitudeMeters>
            <DistanceMeters>9964.6574546988</DistanceMeters>
          </Trackpoint>
          <Trackpoint>
            <Time>2022-11-06T10:57:35.000Z</Time>
            <Position>
              <LatitudeDegrees>41.3580132834613323211669921875</LatitudeDegrees>
              <LongitudeDegrees>-1.66028562001883983612060546875</LongitudeDegrees>
            </Position>
            <AltitudeMeters>625.4000244140625</AltitudeMeters>
            <DistanceMeters>9971.8788597881</DistanceMeters>
          </Trackpoint>
          <Trackpoint>
            <Time>2022-11-06T10:57:37.000Z</Time>
            <Position>
              <LatitudeDegrees>41.35812342166900634765625</LatitudeDegrees>
              <LongitudeDegrees>-1.66023038327693939208984375</LongitudeDegrees>
            </Position>
            <AltitudeMeters>624.79998779296875</AltitudeMeters>
            <DistanceMeters>9984.9773884244</DistanceMeters>
          </Trackpoint>
          <Trackpoint>
            <Time>2022-11-06T10:57:38.000Z</Time>
            <Position>
              <LatitudeDegrees>41.358147226274013519287109375</LatitudeDegrees>
              <LongitudeDegrees>-1.66015989147126674652099609375</LongitudeDegrees>
            </Position>
            <AltitudeMeters>624.5999755859375</AltitudeMeters>
            <DistanceMeters>9991.4350112856</DistanceMeters>
          </Trackpoint>
          <Trackpoint>
            <Time>2022-11-06T10:57:39.000Z</Time>
            <Position>
              <LatitudeDegrees>41.35816591791808605194091796875</LatitudeDegrees>
              <LongitudeDegrees>-1.6600929200649261474609375</LongitudeDegrees>
            </Position>
            <AltitudeMeters>623.79998779296875</AltitudeMeters>
            <DistanceMeters>9997.4050792688</DistanceMeters>
          </Trackpoint>
          <Trackpoint>
            <Time>2022-11-06T10:57:40.000Z</Time>
            <Position>
              <LatitudeDegrees>41.35820564813911914825439453125</LatitudeDegrees>
              <LongitudeDegrees>-1.66001069359481334686279296875</LongitudeDegrees>
            </Position>
            <AltitudeMeters>623.20001220703125</AltitudeMeters>
            <DistanceMeters>10005.575166482</DistanceMeters>
          </Trackpoint>
          <Trackpoint>
            <Time>2022-11-06T10:57:41.000Z</Time>
            <Position>
              <LatitudeDegrees>41.358259879052639007568359375</LatitudeDegrees>
              <LongitudeDegrees>-1.65992218069732189178466796875</LongitudeDegrees>
            </Position>
            <AltitudeMeters>622.5999755859375</AltitudeMeters>
            <DistanceMeters>10015.120504157</DistanceMeters>
          </Trackpoint>
          <Trackpoint>
            <Time>2022-11-06T10:57:42.000Z</Time>
            <Position>
              <LatitudeDegrees>41.35829416103661060333251953125</LatitudeDegrees>
              <LongitudeDegrees>-1.65987004525959491729736328125</LongitudeDegrees>
            </Position>
            <AltitudeMeters>621</AltitudeMeters>
            <DistanceMeters>10020.911678814</DistanceMeters>
          </Trackpoint>
          <Trackpoint>
            <Time>2022-11-06T10:57:43.000Z</Time>
            <Position>
              <LatitudeDegrees>41.35832768864929676055908203125</LatitudeDegrees>
              <LongitudeDegrees>-1.659806929528713226318359375</LongitudeDegrees>
            </Position>
            <AltitudeMeters>620</AltitudeMeters>
            <DistanceMeters>10027.371398874</DistanceMeters>
          </Trackpoint>
          <Trackpoint>
            <Time>2022-11-06T10:57:45.000Z</Time>
            <Position>
              <LatitudeDegrees>41.358395330607891082763671875</LatitudeDegrees>
              <LongitudeDegrees>-1.65966016240417957305908203125</LongitudeDegrees>
            </Position>
            <AltitudeMeters>618.79998779296875</AltitudeMeters>
            <DistanceMeters>10041.759711233</DistanceMeters>
          </Trackpoint>
          <Trackpoint>
            <Time>2022-11-06T10:57:46.000Z</Time>
            <Position>
              <LatitudeDegrees>41.35842391289770603179931640625</LatitudeDegrees>
              <LongitudeDegrees>-1.659626550972461700439453125</LongitudeDegrees>
            </Position>
            <AltitudeMeters>618</AltitudeMeters>
            <DistanceMeters>10046.003055719</DistanceMeters>
          </Trackpoint>
          <Trackpoint>
            <Time>2022-11-06T10:57:47.000Z</Time>
            <Position>
              <LatitudeDegrees>41.3584575243294239044189453125</LatitudeDegrees>
              <LongitudeDegrees>-1.6595697216689586639404296875</LongitudeDegrees>
            </Position>
            <AltitudeMeters>617.5999755859375</AltitudeMeters>
            <DistanceMeters>10052.047531651</DistanceMeters>
          </Trackpoint>
          <Trackpoint>
            <Time>2022-11-06T10:57:49.000Z</Time>
            <Position>
              <LatitudeDegrees>41.35850404389202594757080078125</LatitudeDegrees>
              <LongitudeDegrees>-1.65940116159617900848388671875</LongitudeDegrees>
            </Position>
            <AltitudeMeters>616.20001220703125</AltitudeMeters>
            <DistanceMeters>10067.051524645</DistanceMeters>
          </Trackpoint>
          <Trackpoint>
            <Time>2022-11-06T10:57:50.000Z</Time>
            <Position>
              <LatitudeDegrees>41.35852642357349395751953125</LatitudeDegrees>
              <LongitudeDegrees>-1.6593460924923419952392578125</LongitudeDegrees>
            </Position>
            <AltitudeMeters>615.20001220703125</AltitudeMeters>
            <DistanceMeters>10072.283174643</DistanceMeters>
          </Trackpoint>
          <Trackpoint>
            <Time>2022-11-06T10:57:51.000Z</Time>
            <Position>
              <LatitudeDegrees>41.358552910387516021728515625</LatitudeDegrees>
              <LongitudeDegrees>-1.6592776961624622344970703125</LongitudeDegrees>
            </Position>
            <AltitudeMeters>614.5999755859375</AltitudeMeters>
            <DistanceMeters>10078.713471684</DistanceMeters>
          </Trackpoint>
          <Trackpoint>
            <Time>2022-11-06T10:57:53.000Z</Time>
            <Position>
              <LatitudeDegrees>41.3586110807955265045166015625</LatitudeDegrees>
              <LongitudeDegrees>-1.6591541469097137451171875</LongitudeDegrees>
            </Position>
            <AltitudeMeters>613</AltitudeMeters>
            <DistanceMeters>10090.897660485</DistanceMeters>
          </Trackpoint>
          <Trackpoint>
            <Time>2022-11-06T10:57:54.000Z</Time>
            <Position>
              <LatitudeDegrees>41.35866195894777774810791015625</LatitudeDegrees>
              <LongitudeDegrees>-1.65909203700721263885498046875</LongitudeDegrees>
            </Position>
            <AltitudeMeters>612.20001220703125</AltitudeMeters>
            <DistanceMeters>10098.577794555</DistanceMeters>
          </Trackpoint>
          <Trackpoint>
            <Time>2022-11-06T10:57:55.000Z</Time>
            <Position>
              <LatitudeDegrees>41.35871493257582187652587890625</LatitudeDegrees>
              <LongitudeDegrees>-1.65902028791606426239013671875</LongitudeDegrees>
            </Position>
            <AltitudeMeters>611.20001220703125</AltitudeMeters>
            <DistanceMeters>10106.985913755</DistanceMeters>
          </Trackpoint>
          <Trackpoint>
            <Time>2022-11-06T10:57:57.000Z</Time>
            <Position>
              <LatitudeDegrees>41.35882540605962276458740234375</LatitudeDegrees>
              <LongitudeDegrees>-1.65885306894779205322265625</LongitudeDegrees>
            </Position>
            <AltitudeMeters>609.20001220703125</AltitudeMeters>
            <DistanceMeters>10125.596113967</DistanceMeters>
          </Trackpoint>
          <Trackpoint>
            <Time>2022-11-06T10:57:58.000Z</Time>
            <Position>
              <LatitudeDegrees>41.35887184180319309234619140625</LatitudeDegrees>
              <LongitudeDegrees>-1.65877218358218669891357421875</LongitudeDegrees>
            </Position>
            <AltitudeMeters>607.79998779296875</AltitudeMeters>
            <DistanceMeters>10134.103526188</DistanceMeters>
          </Trackpoint>
          <Trackpoint>
            <Time>2022-11-06T10:58:00.000Z</Time>
            <Position>
              <LatitudeDegrees>41.35892565362155437469482421875</LatitudeDegrees>
              <LongitudeDegrees>-1.65859281085431575775146484375</LongitudeDegrees>
            </Position>
            <AltitudeMeters>606.4000244140625</AltitudeMeters>
            <DistanceMeters>10150.241289498</DistanceMeters>
          </Trackpoint>
          <Trackpoint>
            <Time>2022-11-06T10:58:01.000Z</Time>
            <Position>
              <LatitudeDegrees>41.35893680155277252197265625</LatitudeDegrees>
              <LongitudeDegrees>-1.6584817506372928619384765625</LongitudeDegrees>
            </Position>
            <AltitudeMeters>605.79998779296875</AltitudeMeters>
            <DistanceMeters>10159.602264971</DistanceMeters>
          </Trackpoint>
          <Trackpoint>
            <Time>2022-11-06T10:58:02.000Z</Time>
            <Position>
              <LatitudeDegrees>41.35893403552472591400146484375</LatitudeDegrees>
              <LongitudeDegrees>-1.65836314670741558074951171875</LongitudeDegrees>
            </Position>
            <AltitudeMeters>605</AltitudeMeters>
            <DistanceMeters>10169.515605575</DistanceMeters>
          </Trackpoint>
          <Trackpoint>
            <Time>2022-11-06T10:58:03.000Z</Time>
            <Position>
              <LatitudeDegrees>41.35892339050769805908203125</LatitudeDegrees>
              <LongitudeDegrees>-1.65824152529239654541015625</LongitudeDegrees>
            </Position>
            <AltitudeMeters>604.4000244140625</AltitudeMeters>
            <DistanceMeters>10179.745000759</DistanceMeters>
          </Trackpoint>
          <Trackpoint>
            <Time>2022-11-06T10:58:04.000Z</Time>
            <Position>
              <LatitudeDegrees>41.358925066888332366943359375</LatitudeDegrees>
              <LongitudeDegrees>-1.65812979452311992645263671875</LongitudeDegrees>
            </Position>
            <AltitudeMeters>603.5999755859375</AltitudeMeters>
            <DistanceMeters>10189.080861611</DistanceMeters>
          </Trackpoint>
          <Trackpoint>
            <Time>2022-11-06T10:58:06.000Z</Time>
            <Position>
              <LatitudeDegrees>41.3589825667440891265869140625</LatitudeDegrees>
              <LongitudeDegrees>-1.65794237516820430755615234375</LongitudeDegrees>
            </Position>
            <AltitudeMeters>602.79998779296875</AltitudeMeters>
            <DistanceMeters>10205.995616769</DistanceMeters>
          </Trackpoint>
          <Trackpoint>
            <Time>2022-11-06T10:58:07.000Z</Time>
            <Position>
              <LatitudeDegrees>41.35900645516812801361083984375</LatitudeDegrees>
              <LongitudeDegrees>-1.65787540376186370849609375</LongitudeDegrees>
            </Position>
            <AltitudeMeters>602.4000244140625</AltitudeMeters>
            <DistanceMeters>10212.189871753</DistanceMeters>
          </Trackpoint>
          <Trackpoint>
            <Time>2022-11-06T10:58:08.000Z</Time>
            <Position>
              <LatitudeDegrees>41.3590271584689617156982421875</LatitudeDegrees>
              <LongitudeDegrees>-1.65778152644634246826171875</LongitudeDegrees>
            </Position>
            <AltitudeMeters>602.20001220703125</AltitudeMeters>
            <DistanceMeters>10220.364378814</DistanceMeters>
          </Trackpoint>
          <Trackpoint>
            <Time>2022-11-06T10:58:09.000Z</Time>
            <Position>
              <LatitudeDegrees>41.35903947986662387847900390625</LatitudeDegrees>
              <LongitudeDegrees>-1.6576965339481830596923828125</LongitudeDegrees>
            </Position>
            <AltitudeMeters>601.79998779296875</AltitudeMeters>
            <DistanceMeters>10227.596405</DistanceMeters>
          </Trackpoint>
          <Trackpoint>
            <Time>2022-11-06T10:58:10.000Z</Time>
            <Position>
              <LatitudeDegrees>41.35904811322689056396484375</LatitudeDegrees>
              <LongitudeDegrees>-1.657597459852695465087890625</LongitudeDegrees>
            </Position>
            <AltitudeMeters>601.5999755859375</AltitudeMeters>
            <DistanceMeters>10235.928465232</DistanceMeters>
          </Trackpoint>
          <Trackpoint>
            <Time>2022-11-06T10:58:11.000Z</Time>
            <Position>
              <LatitudeDegrees>41.35904232971370220184326171875</LatitudeDegrees>
              <LongitudeDegrees>-1.6574992239475250244140625</LongitudeDegrees>
            </Position>
            <AltitudeMeters>600.20001220703125</AltitudeMeters>
            <DistanceMeters>10244.160214355</DistanceMeters>
          </Trackpoint>
          <Trackpoint>
            <Time>2022-11-06T10:58:12.000Z</Time>
            <Position>
              <LatitudeDegrees>41.35903528891503810882568359375</LatitudeDegrees>
              <LongitudeDegrees>-1.6574232839047908782958984375</LongitudeDegrees>
            </Position>
            <AltitudeMeters>598.5999755859375</AltitudeMeters>
            <DistanceMeters>10250.553189092</DistanceMeters>
          </Trackpoint>
          <Trackpoint>
            <Time>2022-11-06T10:58:14.000Z</Time>
            <Position>
              <LatitudeDegrees>41.35901953093707561492919921875</LatitudeDegrees>
              <LongitudeDegrees>-1.65721080265939235687255859375</LongitudeDegrees>
            </Position>
            <AltitudeMeters>596.79998779296875</AltitudeMeters>
            <DistanceMeters>10268.390895603</DistanceMeters>
          </Trackpoint>
          <Trackpoint>
            <Time>2022-11-06T10:58:15.000Z</Time>
            <Position>
              <LatitudeDegrees>41.3590137474238872528076171875</LatitudeDegrees>
              <LongitudeDegrees>-1.65711927227675914764404296875</LongitudeDegrees>
            </Position>
            <AltitudeMeters>596.4000244140625</AltitudeMeters>
            <DistanceMeters>10276.065148568</DistanceMeters>
          </Trackpoint>
          <Trackpoint>
            <Time>2022-11-06T10:58:16.000Z</Time>
            <Position>
              <LatitudeDegrees>41.35901316069066524505615234375</LatitudeDegrees>
              <LongitudeDegrees>-1.65703679434955120086669921875</LongitudeDegrees>
            </Position>
            <AltitudeMeters>596</AltitudeMeters>
            <DistanceMeters>10282.95507686</DistanceMeters>
          </Trackpoint>
          <Trackpoint>
            <Time>2022-11-06T10:58:17.000Z</Time>
            <Position>
              <LatitudeDegrees>41.359011232852935791015625</LatitudeDegrees>
              <LongitudeDegrees>-1.65695582516491413116455078125</LongitudeDegrees>
            </Position>
            <AltitudeMeters>596</AltitudeMeters>
            <DistanceMeters>10289.722687053</DistanceMeters>
          </Trackpoint>
          <Trackpoint>
            <Time>2022-11-06T10:58:18.000Z</Time>
            <Position>
              <LatitudeDegrees>41.35901232250034809112548828125</LatitudeDegrees>
              <LongitudeDegrees>-1.65687468834221363067626953125</LongitudeDegrees>
            </Position>
            <AltitudeMeters>595.79998779296875</AltitudeMeters>
            <DistanceMeters>10296.500963305</DistanceMeters>
          </Trackpoint>
          <Trackpoint>
            <Time>2022-11-06T10:58:19.000Z</Time>
            <Position>
              <LatitudeDegrees>41.3590097241103649139404296875</LatitudeDegrees>
              <LongitudeDegrees>-1.6567949764430522918701171875</LongitudeDegrees>
            </Position>
            <AltitudeMeters>595.79998779296875</AltitudeMeters>
            <DistanceMeters>10303.166394732</DistanceMeters>
          </Trackpoint>
          <Trackpoint>
            <Time>2022-11-06T10:58:20.000Z</Time>
            <Position>
              <LatitudeDegrees>41.35900519788265228271484375</LatitudeDegrees>
              <LongitudeDegrees>-1.65671794675290584564208984375</LongitudeDegrees>
            </Position>
            <AltitudeMeters>595.79998779296875</AltitudeMeters>
            <DistanceMeters>10309.620520748</DistanceMeters>
          </Trackpoint>
          <Trackpoint>
            <Time>2022-11-06T10:58:22.000Z</Time>
            <Position>
              <LatitudeDegrees>41.3589929603040218353271484375</LatitudeDegrees>
              <LongitudeDegrees>-1.65658417157828807830810546875</LongitudeDegrees>
            </Position>
            <AltitudeMeters>596</AltitudeMeters>
            <DistanceMeters>10320.878680143</DistanceMeters>
          </Trackpoint>
          <Trackpoint>
            <Time>2022-11-06T10:58:23.000Z</Time>
            <Position>
              <LatitudeDegrees>41.3589870929718017578125</LatitudeDegrees>
              <LongitudeDegrees>-1.65652566589415073394775390625</LongitudeDegrees>
            </Position>
            <AltitudeMeters>596</AltitudeMeters>
            <DistanceMeters>10325.810923643</DistanceMeters>
          </Trackpoint>
          <Trackpoint>
            <Time>2022-11-06T10:58:24.000Z</Time>
            <Position>
              <LatitudeDegrees>41.35897996835410594940185546875</LatitudeDegrees>
              <LongitudeDegrees>-1.65646598674356937408447265625</LongitudeDegrees>
            </Position>
            <AltitudeMeters>596</AltitudeMeters>
            <DistanceMeters>10330.858980271</DistanceMeters>
          </Trackpoint>
          <Trackpoint>
            <Time>2022-11-06T10:58:25.000Z</Time>
            <Position>
              <LatitudeDegrees>41.35897032916545867919921875</LatitudeDegrees>
              <LongitudeDegrees>-1.65639926679432392120361328125</LongitudeDegrees>
            </Position>
            <AltitudeMeters>595.79998779296875</AltitudeMeters>
            <DistanceMeters>10336.535186113</DistanceMeters>
          </Trackpoint>
          <Trackpoint>
            <Time>2022-11-06T10:58:26.000Z</Time>
            <Position>
              <LatitudeDegrees>41.35896027088165283203125</LatitudeDegrees>
              <LongitudeDegrees>-1.656326092779636383056640625</LongitudeDegrees>
            </Position>
            <AltitudeMeters>595.79998779296875</AltitudeMeters>
            <DistanceMeters>10342.749816991</DistanceMeters>
          </Trackpoint>
          <Trackpoint>
            <Time>2022-11-06T10:58:28.000Z</Time>
            <Position>
              <LatitudeDegrees>41.35894794948399066925048828125</LatitudeDegrees>
              <LongitudeDegrees>-1.65616004727780818939208984375</LongitudeDegrees>
            </Position>
            <AltitudeMeters>595.4000244140625</AltitudeMeters>
            <DistanceMeters>10356.688976034</DistanceMeters>
          </Trackpoint>
          <Trackpoint>
            <Time>2022-11-06T10:58:30.000Z</Time>
            <Position>
              <LatitudeDegrees>41.3589681498706340789794921875</LatitudeDegrees>
              <LongitudeDegrees>-1.655992157757282257080078125</LongitudeDegrees>
            </Position>
            <AltitudeMeters>594.4000244140625</AltitudeMeters>
            <DistanceMeters>10370.893483349</DistanceMeters>
          </Trackpoint>
          <Trackpoint>
            <Time>2022-11-06T10:58:31.000Z</Time>
            <Position>
              <LatitudeDegrees>41.35897812433540821075439453125</LatitudeDegrees>
              <LongitudeDegrees>-1.6559098474681377410888671875</LongitudeDegrees>
            </Position>
            <AltitudeMeters>594.20001220703125</AltitudeMeters>
            <DistanceMeters>10377.858364587</DistanceMeters>
          </Trackpoint>
          <Trackpoint>
            <Time>2022-11-06T10:58:32.000Z</Time>
            <Position>
              <LatitudeDegrees>41.3589723408222198486328125</LatitudeDegrees>
              <LongitudeDegrees>-1.65582695044577121734619140625</LongitudeDegrees>
            </Position>
            <AltitudeMeters>593.79998779296875</AltitudeMeters>
            <DistanceMeters>10384.813515162</DistanceMeters>
          </Trackpoint>
          <Trackpoint>
            <Time>2022-11-06T10:58:33.000Z</Time>
            <Position>
              <LatitudeDegrees>41.35895482264459133148193359375</LatitudeDegrees>
              <LongitudeDegrees>-1.6557412035763263702392578125</LongitudeDegrees>
            </Position>
            <AltitudeMeters>593.4000244140625</AltitudeMeters>
            <DistanceMeters>10392.237771799</DistanceMeters>
          </Trackpoint>
          <Trackpoint>
            <Time>2022-11-06T10:58:34.000Z</Time>
            <Position>
              <LatitudeDegrees>41.35892230086028575897216796875</LatitudeDegrees>
              <LongitudeDegrees>-1.65565545670688152313232421875</LongitudeDegrees>
            </Position>
            <AltitudeMeters>593</AltitudeMeters>
            <DistanceMeters>10400.264014092</DistanceMeters>
          </Trackpoint>
          <Trackpoint>
            <Time>2022-11-06T10:58:35.000Z</Time>
            <Position>
              <LatitudeDegrees>41.3588772900402545928955078125</LatitudeDegrees>
              <LongitudeDegrees>-1.65556845255196094512939453125</LongitudeDegrees>
            </Position>
            <AltitudeMeters>592.4000244140625</AltitudeMeters>
            <DistanceMeters>10409.091786161</DistanceMeters>
          </Trackpoint>
          <Trackpoint>
            <Time>2022-11-06T10:58:36.000Z</Time>
            <Position>
              <LatitudeDegrees>41.3588212989270687103271484375</LatitudeDegrees>
              <LongitudeDegrees>-1.65548999793827533721923828125</LongitudeDegrees>
            </Position>
            <AltitudeMeters>592.20001220703125</AltitudeMeters>
            <DistanceMeters>10418.135314364</DistanceMeters>
          </Trackpoint>
          <Trackpoint>
            <Time>2022-11-06T10:58:37.000Z</Time>
            <Position>
              <LatitudeDegrees>41.3587629608809947967529296875</LatitudeDegrees>
              <LongitudeDegrees>-1.6554213501513004302978515625</LongitudeDegrees>
            </Position>
            <AltitudeMeters>591.79998779296875</AltitudeMeters>
            <DistanceMeters>10426.798394955</DistanceMeters>
          </Trackpoint>
          <Trackpoint>
            <Time>2022-11-06T10:58:38.000Z</Time>
            <Position>
              <LatitudeDegrees>41.35871090926229953765869140625</LatitudeDegrees>
              <LongitudeDegrees>-1.65535320527851581573486328125</LongitudeDegrees>
            </Position>
            <AltitudeMeters>591</AltitudeMeters>
            <DistanceMeters>10434.920816915</DistanceMeters>
          </Trackpoint>
          <Trackpoint>
            <Time>2022-11-06T10:58:39.000Z</Time>
            <Position>
              <LatitudeDegrees>41.35867017321288585662841796875</LatitudeDegrees>
              <LongitudeDegrees>-1.65528849698603153228759765625</LongitudeDegrees>
            </Position>
            <AltitudeMeters>590.20001220703125</AltitudeMeters>
            <DistanceMeters>10441.976510463</DistanceMeters>
          </Trackpoint>
          <Trackpoint>
            <Time>2022-11-06T10:58:40.000Z</Time>
            <Position>
              <LatitudeDegrees>41.3586466200649738311767578125</LatitudeDegrees>
              <LongitudeDegrees>-1.65522865019738674163818359375</LongitudeDegrees>
            </Position>
            <AltitudeMeters>589.5999755859375</AltitudeMeters>
            <DistanceMeters>10447.621609202</DistanceMeters>
          </Trackpoint>
          <Trackpoint>
            <Time>2022-11-06T10:58:41.000Z</Time>
            <Position>
              <LatitudeDegrees>41.3586271740496158599853515625</LatitudeDegrees>
              <LongitudeDegrees>-1.65516377426683902740478515625</LongitudeDegrees>
            </Position>
            <AltitudeMeters>589.20001220703125</AltitudeMeters>
            <DistanceMeters>10453.457054195</DistanceMeters>
          </Trackpoint>
          <Trackpoint>
            <Time>2022-11-06T10:58:42.000Z</Time>
            <Position>
              <LatitudeDegrees>41.35861250571906566619873046875</LatitudeDegrees>
              <LongitudeDegrees>-1.65508816950023174285888671875</LongitudeDegrees>
            </Position>
            <AltitudeMeters>589</AltitudeMeters>
            <DistanceMeters>10459.980068851</DistanceMeters>
          </Trackpoint>
          <Trackpoint>
            <Time>2022-11-06T10:58:43.000Z</Time>
            <Position>
              <LatitudeDegrees>41.3585939817130565643310546875</LatitudeDegrees>
              <LongitudeDegrees>-1.6550116427242755889892578125</LongitudeDegrees>
            </Position>
            <AltitudeMeters>588.79998779296875</AltitudeMeters>
            <DistanceMeters>10466.69745614</DistanceMeters>
          </Trackpoint>
          <Trackpoint>
            <Time>2022-11-06T10:58:45.000Z</Time>
            <Position>
              <LatitudeDegrees>41.35855802334845066070556640625</LatitudeDegrees>
              <LongitudeDegrees>-1.65485800243914127349853515625</LongitudeDegrees>
            </Position>
            <AltitudeMeters>588.20001220703125</AltitudeMeters>
            <DistanceMeters>10480.142980689</DistanceMeters>
          </Trackpoint>
          <Trackpoint>
            <Time>2022-11-06T10:58:46.000Z</Time>
            <Position>
              <LatitudeDegrees>41.35855450294911861419677734375</LatitudeDegrees>
              <LongitudeDegrees>-1.65479480288922786712646484375</LongitudeDegrees>
            </Position>
            <AltitudeMeters>588</AltitudeMeters>
            <DistanceMeters>10485.437256587</DistanceMeters>
          </Trackpoint>
          <Trackpoint>
            <Time>2022-11-06T10:58:47.000Z</Time>
            <Position>
              <LatitudeDegrees>41.358562298119068145751953125</LatitudeDegrees>
              <LongitudeDegrees>-1.65475063025951385498046875</LongitudeDegrees>
            </Position>
            <AltitudeMeters>587.4000244140625</AltitudeMeters>
            <DistanceMeters>10489.227619581</DistanceMeters>
          </Trackpoint>
          <Trackpoint>
            <Time>2022-11-06T10:58:48.000Z</Time>
            <Position>
              <LatitudeDegrees>41.35857864283025264739990234375</LatitudeDegrees>
              <LongitudeDegrees>-1.65471442043781280517578125</LongitudeDegrees>
            </Position>
            <AltitudeMeters>587.20001220703125</AltitudeMeters>
            <DistanceMeters>10492.758984128</DistanceMeters>
          </Trackpoint>
          <Trackpoint>
            <Time>2022-11-06T10:58:49.000Z</Time>
            <Position>
              <LatitudeDegrees>41.35860077105462551116943359375</LatitudeDegrees>
              <LongitudeDegrees>-1.6546830721199512481689453125</LongitudeDegrees>
            </Position>
            <AltitudeMeters>587</AltitudeMeters>
            <DistanceMeters>10496.353707955</DistanceMeters>
          </Trackpoint>
          <Trackpoint>
            <Time>2022-11-06T10:58:50.000Z</Time>
            <Position>
              <LatitudeDegrees>41.35862994007766246795654296875</LatitudeDegrees>
              <LongitudeDegrees>-1.6546632908284664154052734375</LongitudeDegrees>
            </Position>
            <AltitudeMeters>586.79998779296875</AltitudeMeters>
            <DistanceMeters>10499.997087207</DistanceMeters>
          </Trackpoint>
          <Trackpoint>
            <Time>2022-11-06T10:58:51.000Z</Time>
            <Position>
              <LatitudeDegrees>41.35866195894777774810791015625</LatitudeDegrees>
              <LongitudeDegrees>-1.6546559147536754608154296875</LongitudeDegrees>
            </Position>
            <AltitudeMeters>587</AltitudeMeters>
            <DistanceMeters>10503.614348708</DistanceMeters>
          </Trackpoint>
          <Trackpoint>
            <Time>2022-11-06T10:58:52.000Z</Time>
            <Position>
              <LatitudeDegrees>41.35869313962757587432861328125</LatitudeDegrees>
              <LongitudeDegrees>-1.6546706669032573699951171875</LongitudeDegrees>
            </Position>
            <AltitudeMeters>587</AltitudeMeters>
            <DistanceMeters>10507.297170292</DistanceMeters>
          </Trackpoint>
          <Trackpoint>
            <Time>2022-11-06T10:58:56.000Z</Time>
            <Position>
              <LatitudeDegrees>41.358823142945766448974609375</LatitudeDegrees>
              <LongitudeDegrees>-1.65482564829289913177490234375</LongitudeDegrees>
            </Position>
            <AltitudeMeters>587.20001220703125</AltitudeMeters>
            <DistanceMeters>10526.713804695</DistanceMeters>
          </Trackpoint>
          <Trackpoint>
            <Time>2022-11-06T10:58:57.000Z</Time>
            <Position>
              <LatitudeDegrees>41.3588558323681354522705078125</LatitudeDegrees>
              <LongitudeDegrees>-1.65486638434231281280517578125</LongitudeDegrees>
            </Position>
            <AltitudeMeters>587.4000244140625</AltitudeMeters>
            <DistanceMeters>10531.697047637</DistanceMeters>
          </Trackpoint>
          <Trackpoint>
            <Time>2022-11-06T10:59:00.000Z</Time>
            <Position>
              <LatitudeDegrees>41.3589664734899997711181640625</LatitudeDegrees>
              <LongitudeDegrees>-1.6549660451710224151611328125</LongitudeDegrees>
            </Position>
            <AltitudeMeters>587.79998779296875</AltitudeMeters>
            <DistanceMeters>10546.561971807</DistanceMeters>
          </Trackpoint>
          <Trackpoint>
            <Time>2022-11-06T10:59:04.000Z</Time>
            <Position>
              <LatitudeDegrees>41.3591133244335651397705078125</LatitudeDegrees>
              <LongitudeDegrees>-1.65510275401175022125244140625</LongitudeDegrees>
            </Position>
            <AltitudeMeters>588.20001220703125</AltitudeMeters>
            <DistanceMeters>10566.501737749</DistanceMeters>
          </Trackpoint>
          <Trackpoint>
            <Time>2022-11-06T10:59:06.000Z</Time>
            <Position>
              <LatitudeDegrees>41.35918088257312774658203125</LatitudeDegrees>
              <LongitudeDegrees>-1.655184142291545867919921875</LongitudeDegrees>
            </Position>
            <AltitudeMeters>588.5999755859375</AltitudeMeters>
            <DistanceMeters>10576.639355813</DistanceMeters>
          </Trackpoint>
          <Trackpoint>
            <Time>2022-11-06T10:59:11.000Z</Time>
            <Position>
              <LatitudeDegrees>41.359333433210849761962890625</LatitudeDegrees>
              <LongitudeDegrees>-1.6553831286728382110595703125</LongitudeDegrees>
            </Position>
            <AltitudeMeters>589.4000244140625</AltitudeMeters>
            <DistanceMeters>10600.401355306</DistanceMeters>
          </Trackpoint>
          <Trackpoint>
            <Time>2022-11-06T10:59:12.000Z</Time>
            <Position>
              <LatitudeDegrees>41.35936117731034755706787109375</LatitudeDegrees>
              <LongitudeDegrees>-1.6554243676364421844482421875</LongitudeDegrees>
            </Position>
            <AltitudeMeters>589.5999755859375</AltitudeMeters>
            <DistanceMeters>10605.027507181</DistanceMeters>
          </Trackpoint>
          <Trackpoint>
            <Time>2022-11-06T10:59:13.000Z</Time>
            <Position>
              <LatitudeDegrees>41.35938942432403564453125</LatitudeDegrees>
              <LongitudeDegrees>-1.65546434931457042694091796875</LongitudeDegrees>
            </Position>
            <AltitudeMeters>590</AltitudeMeters>
            <DistanceMeters>10609.614453672</DistanceMeters>
          </Trackpoint>
          <Trackpoint>
            <Time>2022-11-06T10:59:14.000Z</Time>
            <Position>
              <LatitudeDegrees>41.35941549204289913177490234375</LatitudeDegrees>
              <LongitudeDegrees>-1.65550575591623783111572265625</LongitudeDegrees>
            </Position>
            <AltitudeMeters>590.20001220703125</AltitudeMeters>
            <DistanceMeters>10614.128972754</DistanceMeters>
          </Trackpoint>
          <Trackpoint>
            <Time>2022-11-06T10:59:15.000Z</Time>
            <Position>
              <LatitudeDegrees>41.35944063775241374969482421875</LatitudeDegrees>
              <LongitudeDegrees>-1.65554992854595184326171875</LongitudeDegrees>
            </Position>
            <AltitudeMeters>590.4000244140625</AltitudeMeters>
            <DistanceMeters>10618.759026909</DistanceMeters>
          </Trackpoint>
          <Trackpoint>
            <Time>2022-11-06T10:59:16.000Z</Time>
            <Position>
              <LatitudeDegrees>41.35946595109999179840087890625</LatitudeDegrees>
              <LongitudeDegrees>-1.65559276007115840911865234375</LongitudeDegrees>
            </Position>
            <AltitudeMeters>590.4000244140625</AltitudeMeters>
            <DistanceMeters>10623.312383419</DistanceMeters>
          </Trackpoint>
          <Trackpoint>
            <Time>2022-11-06T10:59:17.000Z</Time>
            <Position>
              <LatitudeDegrees>41.359490342438220977783203125</LatitudeDegrees>
              <LongitudeDegrees>-1.65563601069152355194091796875</LongitudeDegrees>
            </Position>
            <AltitudeMeters>590.79998779296875</AltitudeMeters>
            <DistanceMeters>10627.832899208</DistanceMeters>
          </Trackpoint>
          <Trackpoint>
            <Time>2022-11-06T10:59:18.000Z</Time>
            <Position>
              <LatitudeDegrees>41.3595136441290378570556640625</LatitudeDegrees>
              <LongitudeDegrees>-1.6556806862354278564453125</LongitudeDegrees>
            </Position>
            <AltitudeMeters>591</AltitudeMeters>
            <DistanceMeters>10632.37831612</DistanceMeters>
          </Trackpoint>
          <Trackpoint>
            <Time>2022-11-06T10:59:20.000Z</Time>
            <Position>
              <LatitudeDegrees>41.3595632649958133697509765625</LatitudeDegrees>
              <LongitudeDegrees>-1.6557663492858409881591796875</LongitudeDegrees>
            </Position>
            <AltitudeMeters>591.4000244140625</AltitudeMeters>
            <DistanceMeters>10641.41784939</DistanceMeters>
          </Trackpoint>
          <Trackpoint>
            <Time>2022-11-06T10:59:22.000Z</Time>
            <Position>
              <LatitudeDegrees>41.3596160709857940673828125</LatitudeDegrees>
              <LongitudeDegrees>-1.6558496654033660888671875</LongitudeDegrees>
            </Position>
            <AltitudeMeters>591.5999755859375</AltitudeMeters>
            <DistanceMeters>10650.528032297</DistanceMeters>
          </Trackpoint>
          <Trackpoint>
            <Time>2022-11-06T10:59:23.000Z</Time>
            <Position>
              <LatitudeDegrees>41.3596444018185138702392578125</LatitudeDegrees>
              <LongitudeDegrees>-1.65588998235762119293212890625</LongitudeDegrees>
            </Position>
            <AltitudeMeters>592</AltitudeMeters>
            <DistanceMeters>10655.142457532</DistanceMeters>
          </Trackpoint>
          <Trackpoint>
            <Time>2022-11-06T10:59:24.000Z</Time>
            <Position>
              <LatitudeDegrees>41.35967600159347057342529296875</LatitudeDegrees>
              <LongitudeDegrees>-1.65592703036963939666748046875</LongitudeDegrees>
            </Position>
            <AltitudeMeters>592.20001220703125</AltitudeMeters>
            <DistanceMeters>10659.827766043</DistanceMeters>
          </Trackpoint>
          <Trackpoint>
            <Time>2022-11-06T10:59:25.000Z</Time>
            <Position>
              <LatitudeDegrees>41.35971053503453731536865234375</LatitudeDegrees>
              <LongitudeDegrees>-1.655957289040088653564453125</LongitudeDegrees>
            </Position>
            <AltitudeMeters>592.4000244140625</AltitudeMeters>
            <DistanceMeters>10664.428472421</DistanceMeters>
          </Trackpoint>
          <Trackpoint>
            <Time>2022-11-06T10:59:26.000Z</Time>
            <Position>
              <LatitudeDegrees>41.3597503490746021270751953125</LatitudeDegrees>
              <LongitudeDegrees>-1.6559792496263980865478515625</LongitudeDegrees>
            </Position>
            <AltitudeMeters>592.5999755859375</AltitudeMeters>
            <DistanceMeters>10669.225204098</DistanceMeters>
          </Trackpoint>
          <Trackpoint>
            <Time>2022-11-06T10:59:27.000Z</Time>
            <Position>
              <LatitudeDegrees>41.3597929291427135467529296875</LatitudeDegrees>
              <LongitudeDegrees>-1.65600313805043697357177734375</LongitudeDegrees>
            </Position>
            <AltitudeMeters>592.5999755859375</AltitudeMeters>
            <DistanceMeters>10674.367194358</DistanceMeters>
          </Trackpoint>
          <Trackpoint>
            <Time>2022-11-06T10:59:28.000Z</Time>
            <Position>
              <LatitudeDegrees>41.3598348386585712432861328125</LatitudeDegrees>
              <LongitudeDegrees>-1.65602794848382472991943359375</LongitudeDegrees>
            </Position>
            <AltitudeMeters>592.79998779296875</AltitudeMeters>
            <DistanceMeters>10679.470403198</DistanceMeters>
          </Trackpoint>
          <Trackpoint>
            <Time>2022-11-06T10:59:29.000Z</Time>
            <Position>
              <LatitudeDegrees>41.359875909984111785888671875</LatitudeDegrees>
              <LongitudeDegrees>-1.65605460293591022491455078125</LongitudeDegrees>
            </Position>
            <AltitudeMeters>592.79998779296875</AltitudeMeters>
            <DistanceMeters>10684.554998448</DistanceMeters>
          </Trackpoint>
          <Trackpoint>
            <Time>2022-11-06T10:59:30.000Z</Time>
            <Position>
              <LatitudeDegrees>41.3599179871380329132080078125</LatitudeDegrees>
              <LongitudeDegrees>-1.65608100593090057373046875</LongitudeDegrees>
            </Position>
            <AltitudeMeters>592.79998779296875</AltitudeMeters>
            <DistanceMeters>10689.731992449</DistanceMeters>
          </Trackpoint>
          <Trackpoint>
            <Time>2022-11-06T10:59:31.000Z</Time>
            <Position>
              <LatitudeDegrees>41.3599615730345249176025390625</LatitudeDegrees>
              <LongitudeDegrees>-1.65610782802104949951171875</LongitudeDegrees>
            </Position>
            <AltitudeMeters>592.79998779296875</AltitudeMeters>
            <DistanceMeters>10695.075502692</DistanceMeters>
          </Trackpoint>
          <Trackpoint>
            <Time>2022-11-06T10:59:32.000Z</Time>
            <Position>
              <LatitudeDegrees>41.36000700294971466064453125</LatitudeDegrees>
              <LongitudeDegrees>-1.6561378352344036102294921875</LongitudeDegrees>
            </Position>
            <AltitudeMeters>592.79998779296875</AltitudeMeters>
            <DistanceMeters>10700.719801558</DistanceMeters>
          </Trackpoint>
          <Trackpoint>
            <Time>2022-11-06T10:59:33.000Z</Time>
            <Position>
              <LatitudeDegrees>41.36005167849361896514892578125</LatitudeDegrees>
              <LongitudeDegrees>-1.6561688482761383056640625</LongitudeDegrees>
            </Position>
            <AltitudeMeters>593.20001220703125</AltitudeMeters>
            <DistanceMeters>10706.327182959</DistanceMeters>
          </Trackpoint>
          <Trackpoint>
            <Time>2022-11-06T10:59:34.000Z</Time>
            <Position>
              <LatitudeDegrees>41.36009459383785724639892578125</LatitudeDegrees>
              <LongitudeDegrees>-1.65620547719299793243408203125</LongitudeDegrees>
            </Position>
            <AltitudeMeters>593.20001220703125</AltitudeMeters>
            <DistanceMeters>10711.999410244</DistanceMeters>
          </Trackpoint>
          <Trackpoint>
            <Time>2022-11-06T10:59:35.000Z</Time>
            <Position>
              <LatitudeDegrees>41.36013507843017578125</LatitudeDegrees>
              <LongitudeDegrees>-1.65624604560434818267822265625</LongitudeDegrees>
            </Position>
            <AltitudeMeters>593.4000244140625</AltitudeMeters>
            <DistanceMeters>10717.637306047</DistanceMeters>
          </Trackpoint>
          <Trackpoint>
            <Time>2022-11-06T10:59:36.000Z</Time>
            <Position>
              <LatitudeDegrees>41.3601739704608917236328125</LatitudeDegrees>
              <LongitudeDegrees>-1.6562868654727935791015625</LongitudeDegrees>
            </Position>
            <AltitudeMeters>593.4000244140625</AltitudeMeters>
            <DistanceMeters>10723.14885548</DistanceMeters>
          </Trackpoint>
          <Trackpoint>
            <Time>2022-11-06T10:59:37.000Z</Time>
            <Position>
              <LatitudeDegrees>41.360209174454212188720703125</LatitudeDegrees>
              <LongitudeDegrees>-1.65632969699800014495849609375</LongitudeDegrees>
            </Position>
            <AltitudeMeters>593.5999755859375</AltitudeMeters>
            <DistanceMeters>10728.455908187</DistanceMeters>
          </Trackpoint>
          <Trackpoint>
            <Time>2022-11-06T10:59:38.000Z</Time>
            <Position>
              <LatitudeDegrees>41.36024379171431064605712890625</LatitudeDegrees>
              <LongitudeDegrees>-1.65637479163706302642822265625</LongitudeDegrees>
            </Position>
            <AltitudeMeters>593.5999755859375</AltitudeMeters>
            <DistanceMeters>10733.844852967</DistanceMeters>
          </Trackpoint>
          <Trackpoint>
            <Time>2022-11-06T10:59:39.000Z</Time>
            <Position>
              <LatitudeDegrees>41.36027597822248935699462890625</LatitudeDegrees>
              <LongitudeDegrees>-1.6564231552183628082275390625</LongitudeDegrees>
            </Position>
            <AltitudeMeters>593.5999755859375</AltitudeMeters>
            <DistanceMeters>10739.245514678</DistanceMeters>
          </Trackpoint>
          <Trackpoint>
            <Time>2022-11-06T10:59:40.000Z</Time>
            <Position>
              <LatitudeDegrees>41.36030875146389007568359375</LatitudeDegrees>
              <LongitudeDegrees>-1.65647369809448719024658203125</LongitudeDegrees>
            </Position>
            <AltitudeMeters>593.5999755859375</AltitudeMeters>
            <DistanceMeters>10744.826261371</DistanceMeters>
          </Trackpoint>
          <Trackpoint>
            <Time>2022-11-06T10:59:41.000Z</Time>
            <Position>
              <LatitudeDegrees>41.36034035123884677886962890625</LatitudeDegrees>
              <LongitudeDegrees>-1.65652398951351642608642578125</LongitudeDegrees>
            </Position>
            <AltitudeMeters>593.5999755859375</AltitudeMeters>
            <DistanceMeters>10750.304944981</DistanceMeters>
          </Trackpoint>
          <Trackpoint>
            <Time>2022-11-06T10:59:42.000Z</Time>
            <Position>
              <LatitudeDegrees>41.36037253774702548980712890625</LatitudeDegrees>
              <LongitudeDegrees>-1.65657319128513336181640625</LongitudeDegrees>
            </Position>
            <AltitudeMeters>593.79998779296875</AltitudeMeters>
            <DistanceMeters>10755.757193293</DistanceMeters>
          </Trackpoint>
          <Trackpoint>
            <Time>2022-11-06T10:59:43.000Z</Time>
            <Position>
              <LatitudeDegrees>41.36040573008358478546142578125</LatitudeDegrees>
              <LongitudeDegrees>-1.65662507526576519012451171875</LongitudeDegrees>
            </Position>
            <AltitudeMeters>593.79998779296875</AltitudeMeters>
            <DistanceMeters>10761.452457517</DistanceMeters>
          </Trackpoint>
          <Trackpoint>
            <Time>2022-11-06T10:59:44.000Z</Time>
            <Position>
              <LatitudeDegrees>41.3604400120675563812255859375</LatitudeDegrees>
              <LongitudeDegrees>-1.65667335502803325653076171875</LongitudeDegrees>
            </Position>
            <AltitudeMeters>593.79998779296875</AltitudeMeters>
            <DistanceMeters>10767.004815663</DistanceMeters>
          </Trackpoint>
          <Trackpoint>
            <Time>2022-11-06T10:59:45.000Z</Time>
            <Position>
              <LatitudeDegrees>41.36047529987990856170654296875</LatitudeDegrees>
              <LongitudeDegrees>-1.65672213770449161529541015625</LongitudeDegrees>
            </Position>
            <AltitudeMeters>594</AltitudeMeters>
            <DistanceMeters>10772.6650905</DistanceMeters>
          </Trackpoint>
          <Trackpoint>
            <Time>2022-11-06T10:59:46.000Z</Time>
            <Position>
              <LatitudeDegrees>41.36051301844418048858642578125</LatitudeDegrees>
              <LongitudeDegrees>-1.65676807053387165069580078125</LongitudeDegrees>
            </Position>
            <AltitudeMeters>594.20001220703125</AltitudeMeters>
            <DistanceMeters>10778.352421492</DistanceMeters>
          </Trackpoint>
          <Trackpoint>
            <Time>2022-11-06T10:59:47.000Z</Time>
            <Position>
              <LatitudeDegrees>41.3605509884655475616455078125</LatitudeDegrees>
              <LongitudeDegrees>-1.65681249462068080902099609375</LongitudeDegrees>
            </Position>
            <AltitudeMeters>594.4000244140625</AltitudeMeters>
            <DistanceMeters>10783.975883745</DistanceMeters>
          </Trackpoint>
          <Trackpoint>
            <Time>2022-11-06T10:59:48.000Z</Time>
            <Position>
              <LatitudeDegrees>41.3605908863246440887451171875</LatitudeDegrees>
              <LongitudeDegrees>-1.6568533144891262054443359375</LongitudeDegrees>
            </Position>
            <AltitudeMeters>594.4000244140625</AltitudeMeters>
            <DistanceMeters>10789.575207402</DistanceMeters>
          </Trackpoint>
          <Trackpoint>
            <Time>2022-11-06T10:59:49.000Z</Time>
            <Position>
              <LatitudeDegrees>41.36062793433666229248046875</LatitudeDegrees>
              <LongitudeDegrees>-1.6568938829004764556884765625</LongitudeDegrees>
            </Position>
            <AltitudeMeters>594.5999755859375</AltitudeMeters>
            <DistanceMeters>10794.913645493</DistanceMeters>
          </Trackpoint>
          <Trackpoint>
            <Time>2022-11-06T10:59:50.000Z</Time>
            <Position>
              <LatitudeDegrees>41.3606666587293148040771484375</LatitudeDegrees>
              <LongitudeDegrees>-1.6569307632744312286376953125</LongitudeDegrees>
            </Position>
            <AltitudeMeters>594.79998779296875</AltitudeMeters>
            <DistanceMeters>10800.212183751</DistanceMeters>
          </Trackpoint>
          <Trackpoint>
            <Time>2022-11-06T10:59:51.000Z</Time>
            <Position>
              <LatitudeDegrees>41.360706053674221038818359375</LatitudeDegrees>
              <LongitudeDegrees>-1.65696906857192516326904296875</LongitudeDegrees>
            </Position>
            <AltitudeMeters>595</AltitudeMeters>
            <DistanceMeters>10805.639532031</DistanceMeters>
          </Trackpoint>
          <Trackpoint>
            <Time>2022-11-06T10:59:52.000Z</Time>
            <Position>
              <LatitudeDegrees>41.36074653826653957366943359375</LatitudeDegrees>
              <LongitudeDegrees>-1.65700578130781650543212890625</LongitudeDegrees>
            </Position>
            <AltitudeMeters>595.20001220703125</AltitudeMeters>
            <DistanceMeters>10811.09012388</DistanceMeters>
          </Trackpoint>
          <Trackpoint>
            <Time>2022-11-06T10:59:53.000Z</Time>
            <Position>
              <LatitudeDegrees>41.3607907108962535858154296875</LatitudeDegrees>
              <LongitudeDegrees>-1.65703763253986835479736328125</LongitudeDegrees>
            </Position>
            <AltitudeMeters>595.4000244140625</AltitudeMeters>
            <DistanceMeters>10816.679762911</DistanceMeters>
          </Trackpoint>
          <Trackpoint>
            <Time>2022-11-06T10:59:54.000Z</Time>
            <Position>
              <LatitudeDegrees>41.36083689518272876739501953125</LatitudeDegrees>
              <LongitudeDegrees>-1.65706931613385677337646484375</LongitudeDegrees>
            </Position>
            <AltitudeMeters>595.4000244140625</AltitudeMeters>
            <DistanceMeters>10822.461574305</DistanceMeters>
          </Trackpoint>
          <Trackpoint>
            <Time>2022-11-06T10:59:55.000Z</Time>
            <Position>
              <LatitudeDegrees>41.36088249273598194122314453125</LatitudeDegrees>
              <LongitudeDegrees>-1.65709680877625942230224609375</LongitudeDegrees>
            </Position>
            <AltitudeMeters>595.5999755859375</AltitudeMeters>
            <DistanceMeters>10828.032604078</DistanceMeters>
          </Trackpoint>
          <Trackpoint>
            <Time>2022-11-06T10:59:56.000Z</Time>
            <Position>
              <LatitudeDegrees>41.3609305210411548614501953125</LatitudeDegrees>
              <LongitudeDegrees>-1.65711457841098308563232421875</LongitudeDegrees>
            </Position>
            <AltitudeMeters>595.79998779296875</AltitudeMeters>
            <DistanceMeters>10833.581708571</DistanceMeters>
          </Trackpoint>
          <Trackpoint>
            <Time>2022-11-06T10:59:57.000Z</Time>
            <Position>
              <LatitudeDegrees>41.3609798066318035125732421875</LatitudeDegrees>
              <LongitudeDegrees>-1.657125391066074371337890625</LongitudeDegrees>
            </Position>
            <AltitudeMeters>595.79998779296875</AltitudeMeters>
            <DistanceMeters>10839.14056831</DistanceMeters>
          </Trackpoint>
          <Trackpoint>
            <Time>2022-11-06T10:59:58.000Z</Time>
            <Position>
              <LatitudeDegrees>41.36102984659373760223388671875</LatitudeDegrees>
              <LongitudeDegrees>-1.65712597779929637908935546875</LongitudeDegrees>
            </Position>
            <AltitudeMeters>596</AltitudeMeters>
            <DistanceMeters>10844.709166204</DistanceMeters>
          </Trackpoint>
          <Trackpoint>
            <Time>2022-11-06T10:59:59.000Z</Time>
            <Position>
              <LatitudeDegrees>41.36107913218438625335693359375</LatitudeDegrees>
              <LongitudeDegrees>-1.65712078101933002471923828125</LongitudeDegrees>
            </Position>
            <AltitudeMeters>596.20001220703125</AltitudeMeters>
            <DistanceMeters>10850.211697105</DistanceMeters>
          </Trackpoint>
          <Trackpoint>
            <Time>2022-11-06T11:00:00.000Z</Time>
            <Position>
              <LatitudeDegrees>41.36112456209957599639892578125</LatitudeDegrees>
              <LongitudeDegrees>-1.6571074537932872772216796875</LongitudeDegrees>
            </Position>
            <AltitudeMeters>596.4000244140625</AltitudeMeters>
            <DistanceMeters>10855.388691106</DistanceMeters>
          </Trackpoint>
          <Trackpoint>
            <Time>2022-11-06T11:00:01.000Z</Time>
            <Position>
              <LatitudeDegrees>41.36116747744381427764892578125</LatitudeDegrees>
              <LongitudeDegrees>-1.657091192901134490966796875</LongitudeDegrees>
            </Position>
            <AltitudeMeters>596.5999755859375</AltitudeMeters>
            <DistanceMeters>10860.353780097</DistanceMeters>
          </Trackpoint>
          <Trackpoint>
            <Time>2022-11-06T11:00:02.000Z</Time>
            <Position>
              <LatitudeDegrees>41.36121324263513088226318359375</LatitudeDegrees>
              <LongitudeDegrees>-1.65707535110414028167724609375</LongitudeDegrees>
            </Position>
            <AltitudeMeters>596.79998779296875</AltitudeMeters>
            <DistanceMeters>10865.616407241</DistanceMeters>
          </Trackpoint>
          <Trackpoint>
            <Time>2022-11-06T11:00:03.000Z</Time>
            <Position>
              <LatitudeDegrees>41.3612570799887180328369140625</LatitudeDegrees>
              <LongitudeDegrees>-1.6570608504116535186767578125</LongitudeDegrees>
            </Position>
            <AltitudeMeters>597</AltitudeMeters>
            <DistanceMeters>10870.642952167</DistanceMeters>
          </Trackpoint>
          <Trackpoint>
            <Time>2022-11-06T11:00:04.000Z</Time>
            <Position>
              <LatitudeDegrees>41.3612993247807025909423828125</LatitudeDegrees>
              <LongitudeDegrees>-1.65704718790948390960693359375</LongitudeDegrees>
            </Position>
            <AltitudeMeters>597</AltitudeMeters>
            <DistanceMeters>10875.480922624</DistanceMeters>
          </Trackpoint>
          <Trackpoint>
            <Time>2022-11-06T11:00:05.000Z</Time>
            <Position>
              <LatitudeDegrees>41.36133712716400623321533203125</LatitudeDegrees>
              <LongitudeDegrees>-1.65703159756958484649658203125</LongitudeDegrees>
            </Position>
            <AltitudeMeters>597.4000244140625</AltitudeMeters>
            <DistanceMeters>10879.885080228</DistanceMeters>
          </Trackpoint>
          <Trackpoint>
            <Time>2022-11-06T11:00:06.000Z</Time>
            <Position>
              <LatitudeDegrees>41.36137627065181732177734375</LatitudeDegrees>
              <LongitudeDegrees>-1.6570145823061466217041015625</LongitudeDegrees>
            </Position>
            <AltitudeMeters>597.79998779296875</AltitudeMeters>
            <DistanceMeters>10884.468087735</DistanceMeters>
          </Trackpoint>
          <Trackpoint>
            <Time>2022-11-06T11:00:07.000Z</Time>
            <Position>
              <LatitudeDegrees>41.3614149950444698333740234375</LatitudeDegrees>
              <LongitudeDegrees>-1.656999327242374420166015625</LongitudeDegrees>
            </Position>
            <AltitudeMeters>598</AltitudeMeters>
            <DistanceMeters>10888.962560007</DistanceMeters>
          </Trackpoint>
          <Trackpoint>
            <Time>2022-11-06T11:00:08.000Z</Time>
            <Position>
              <LatitudeDegrees>41.3614525459706783294677734375</LatitudeDegrees>
              <LongitudeDegrees>-1.6569874249398708343505859375</LongitudeDegrees>
            </Position>
            <AltitudeMeters>598.20001220703125</AltitudeMeters>
            <DistanceMeters>10893.257725449</DistanceMeters>
          </Trackpoint>
          <Trackpoint>
            <Time>2022-11-06T11:00:09.000Z</Time>
            <Position>
              <LatitudeDegrees>41.361491270363330841064453125</LatitudeDegrees>
              <LongitudeDegrees>-1.6569763608276844024658203125</LongitudeDegrees>
            </Position>
            <AltitudeMeters>598.4000244140625</AltitudeMeters>
            <DistanceMeters>10897.665981851</DistanceMeters>
          </Trackpoint>
          <Trackpoint>
            <Time>2022-11-06T11:00:10.000Z</Time>
            <Position>
              <LatitudeDegrees>41.36152991093695163726806640625</LatitudeDegrees>
              <LongitudeDegrees>-1.6569669730961322784423828125</LongitudeDegrees>
            </Position>
            <AltitudeMeters>598.5999755859375</AltitudeMeters>
            <DistanceMeters>10902.037210712</DistanceMeters>
          </Trackpoint>
          <Trackpoint>
            <Time>2022-11-06T11:00:11.000Z</Time>
            <Position>
              <LatitudeDegrees>41.36156779713928699493408203125</LatitudeDegrees>
              <LongitudeDegrees>-1.656958423554897308349609375</LongitudeDegrees>
            </Position>
            <AltitudeMeters>598.79998779296875</AltitudeMeters>
            <DistanceMeters>10906.313412859</DistanceMeters>
          </Trackpoint>
          <Trackpoint>
            <Time>2022-11-06T11:00:12.000Z</Time>
            <Position>
              <LatitudeDegrees>41.36160467751324176788330078125</LatitudeDegrees>
              <LongitudeDegrees>-1.65695129893720149993896484375</LongitudeDegrees>
            </Position>
            <AltitudeMeters>599</AltitudeMeters>
            <DistanceMeters>10910.460977883</DistanceMeters>
          </Trackpoint>
          <Trackpoint>
            <Time>2022-11-06T11:00:13.000Z</Time>
            <Position>
              <LatitudeDegrees>41.36164289899170398712158203125</LatitudeDegrees>
              <LongitudeDegrees>-1.65694777853786945343017578125</LongitudeDegrees>
            </Position>
            <AltitudeMeters>599.4000244140625</AltitudeMeters>
            <DistanceMeters>10914.725549837</DistanceMeters>
          </Trackpoint>
          <Trackpoint>
            <Time>2022-11-06T11:00:14.000Z</Time>
            <Position>
              <LatitudeDegrees>41.36167760007083415985107421875</LatitudeDegrees>
              <LongitudeDegrees>-1.656940318644046783447265625</LongitudeDegrees>
            </Position>
            <AltitudeMeters>599.5999755859375</AltitudeMeters>
            <DistanceMeters>10918.63783556</DistanceMeters>
          </Trackpoint>
          <Trackpoint>
            <Time>2022-11-06T11:00:15.000Z</Time>
            <Position>
              <LatitudeDegrees>41.36171397753059864044189453125</LatitudeDegrees>
              <LongitudeDegrees>-1.6569357924163341522216796875</LongitudeDegrees>
            </Position>
            <AltitudeMeters>600</AltitudeMeters>
            <DistanceMeters>10922.704046323</DistanceMeters>
          </Trackpoint>
          <Trackpoint>
            <Time>2022-11-06T11:00:16.000Z</Time>
            <Position>
              <LatitudeDegrees>41.361748762428760528564453125</LatitudeDegrees>
              <LongitudeDegrees>-1.6569310985505580902099609375</LongitudeDegrees>
            </Position>
            <AltitudeMeters>600.20001220703125</AltitudeMeters>
            <DistanceMeters>10926.594342985</DistanceMeters>
          </Trackpoint>
          <Trackpoint>
            <Time>2022-11-06T11:00:17.000Z</Time>
            <Position>
              <LatitudeDegrees>41.36178539134562015533447265625</LatitudeDegrees>
              <LongitudeDegrees>-1.6569277457892894744873046875</LongitudeDegrees>
            </Position>
            <AltitudeMeters>600.20001220703125</AltitudeMeters>
            <DistanceMeters>10930.679386592</DistanceMeters>
          </Trackpoint>
          <Trackpoint>
            <Time>2022-11-06T11:00:18.000Z</Time>
            <Position>
              <LatitudeDegrees>41.3618196733295917510986328125</LatitudeDegrees>
              <LongitudeDegrees>-1.65693051181733608245849609375</LongitudeDegrees>
            </Position>
            <AltitudeMeters>600.4000244140625</AltitudeMeters>
            <DistanceMeters>10934.501776379</DistanceMeters>
          </Trackpoint>
          <Trackpoint>
            <Time>2022-11-06T11:00:19.000Z</Time>
            <Position>
              <LatitudeDegrees>41.3618538714945316314697265625</LatitudeDegrees>
              <LongitudeDegrees>-1.65693487040698528289794921875</LongitudeDegrees>
            </Position>
            <AltitudeMeters>600.5999755859375</AltitudeMeters>
            <DistanceMeters>10938.325347192</DistanceMeters>
          </Trackpoint>
          <Trackpoint>
            <Time>2022-11-06T11:00:20.000Z</Time>
            <Position>
              <LatitudeDegrees>41.36188848875463008880615234375</LatitudeDegrees>
              <LongitudeDegrees>-1.65694258175790309906005859375</LongitudeDegrees>
            </Position>
            <AltitudeMeters>600.79998779296875</AltitudeMeters>
            <DistanceMeters>10942.230702376</DistanceMeters>
          </Trackpoint>
          <Trackpoint>
            <Time>2022-11-06T11:00:21.000Z</Time>
            <Position>
              <LatitudeDegrees>41.36192587204277515411376953125</LatitudeDegrees>
              <LongitudeDegrees>-1.65694878436625003814697265625</LongitudeDegrees>
            </Position>
            <AltitudeMeters>601</AltitudeMeters>
            <DistanceMeters>10946.423739323</DistanceMeters>
          </Trackpoint>
          <Trackpoint>
            <Time>2022-11-06T11:00:22.000Z</Time>
            <Position>
              <LatitudeDegrees>41.36196292005479335784912109375</LatitudeDegrees>
              <LongitudeDegrees>-1.65695649571716785430908203125</LongitudeDegrees>
            </Position>
            <AltitudeMeters>601</AltitudeMeters>
            <DistanceMeters>10950.597348967</DistanceMeters>
          </Trackpoint>
          <Trackpoint>
            <Time>2022-11-06T11:00:23.000Z</Time>
            <Position>
              <LatitudeDegrees>41.36199720203876495361328125</LatitudeDegrees>
              <LongitudeDegrees>-1.65696705691516399383544921875</LongitudeDegrees>
            </Position>
            <AltitudeMeters>601.20001220703125</AltitudeMeters>
            <DistanceMeters>10954.513095358</DistanceMeters>
          </Trackpoint>
          <Trackpoint>
            <Time>2022-11-06T11:00:24.000Z</Time>
            <Position>
              <LatitudeDegrees>41.3620305620133876800537109375</LatitudeDegrees>
              <LongitudeDegrees>-1.65697686374187469482421875</LongitudeDegrees>
            </Position>
            <AltitudeMeters>601.4000244140625</AltitudeMeters>
            <DistanceMeters>10958.314163933</DistanceMeters>
          </Trackpoint>
          <Trackpoint>
            <Time>2022-11-06T11:00:25.000Z</Time>
            <Position>
              <LatitudeDegrees>41.36206316761672496795654296875</LatitudeDegrees>
              <LongitudeDegrees>-1.6569854132831096649169921875</LongitudeDegrees>
            </Position>
            <AltitudeMeters>601.4000244140625</AltitudeMeters>
            <DistanceMeters>10962.01166792</DistanceMeters>
          </Trackpoint>
          <Trackpoint>
            <Time>2022-11-06T11:00:26.000Z</Time>
            <Position>
              <LatitudeDegrees>41.36209418065845966339111328125</LatitudeDegrees>
              <LongitudeDegrees>-1.656992621719837188720703125</LongitudeDegrees>
            </Position>
            <AltitudeMeters>601.79998779296875</AltitudeMeters>
            <DistanceMeters>10965.514791368</DistanceMeters>
          </Trackpoint>
          <Trackpoint>
            <Time>2022-11-06T11:00:27.000Z</Time>
            <Position>
              <LatitudeDegrees>41.36212460696697235107421875</LatitudeDegrees>
              <LongitudeDegrees>-1.65700024925172328948974609375</LongitudeDegrees>
            </Position>
            <AltitudeMeters>602</AltitudeMeters>
            <DistanceMeters>10968.960738338</DistanceMeters>
          </Trackpoint>
          <Trackpoint>
            <Time>2022-11-06T11:00:28.000Z</Time>
            <Position>
              <LatitudeDegrees>41.362150423228740692138671875</LatitudeDegrees>
              <LongitudeDegrees>-1.6570085473358631134033203125</LongitudeDegrees>
            </Position>
            <AltitudeMeters>602.4000244140625</AltitudeMeters>
            <DistanceMeters>10971.91727584</DistanceMeters>
          </Trackpoint>
          <Trackpoint>
            <Time>2022-11-06T11:00:29.000Z</Time>
            <Position>
              <LatitudeDegrees>41.36217649094760417938232421875</LatitudeDegrees>
              <LongitudeDegrees>-1.65701835416257381439208984375</LongitudeDegrees>
            </Position>
            <AltitudeMeters>602.79998779296875</AltitudeMeters>
            <DistanceMeters>10974.931285943</DistanceMeters>
          </Trackpoint>
          <Trackpoint>
            <Time>2022-11-06T11:00:30.000Z</Time>
            <Position>
              <LatitudeDegrees>41.3622042350471019744873046875</LatitudeDegrees>
              <LongitudeDegrees>-1.65702874772250652313232421875</LongitudeDegrees>
            </Position>
            <AltitudeMeters>603</AltitudeMeters>
            <DistanceMeters>10978.138349564</DistanceMeters>
          </Trackpoint>
          <Trackpoint>
            <Time>2022-11-06T11:00:31.000Z</Time>
            <Position>
              <LatitudeDegrees>41.36223264969885349273681640625</LatitudeDegrees>
              <LongitudeDegrees>-1.65703310631215572357177734375</LongitudeDegrees>
            </Position>
            <AltitudeMeters>603.4000244140625</AltitudeMeters>
            <DistanceMeters>10981.321389898</DistanceMeters>
          </Trackpoint>
          <Trackpoint>
            <Time>2022-11-06T11:00:32.000Z</Time>
            <Position>
              <LatitudeDegrees>41.36226030997931957244873046875</LatitudeDegrees>
              <LongitudeDegrees>-1.657032184302806854248046875</LongitudeDegrees>
            </Position>
            <AltitudeMeters>603.79998779296875</AltitudeMeters>
            <DistanceMeters>10984.40207332</DistanceMeters>
          </Trackpoint>
          <Trackpoint>
            <Time>2022-11-06T11:00:33.000Z</Time>
            <Position>
              <LatitudeDegrees>41.36229065246880054473876953125</LatitudeDegrees>
              <LongitudeDegrees>-1.657029502093791961669921875</LongitudeDegrees>
            </Position>
            <AltitudeMeters>604.20001220703125</AltitudeMeters>
            <DistanceMeters>10987.785878416</DistanceMeters>
          </Trackpoint>
          <Trackpoint>
            <Time>2022-11-06T11:00:34.000Z</Time>
            <Position>
              <LatitudeDegrees>41.36232133023440837860107421875</LatitudeDegrees>
              <LongitudeDegrees>-1.657028160989284515380859375</LongitudeDegrees>
            </Position>
            <AltitudeMeters>604.4000244140625</AltitudeMeters>
            <DistanceMeters>10991.201556792</DistanceMeters>
          </Trackpoint>
          <Trackpoint>
            <Time>2022-11-06T11:00:35.000Z</Time>
            <Position>
              <LatitudeDegrees>41.36235234327614307403564453125</LatitudeDegrees>
              <LongitudeDegrees>-1.65702606551349163055419921875</LongitudeDegrees>
            </Position>
            <AltitudeMeters>604.5999755859375</AltitudeMeters>
            <DistanceMeters>10994.656663311</DistanceMeters>
          </Trackpoint>
          <Trackpoint>
            <Time>2022-11-06T11:00:36.000Z</Time>
            <Position>
              <LatitudeDegrees>41.36238218285143375396728515625</LatitudeDegrees>
              <LongitudeDegrees>-1.65702036581933498382568359375</LongitudeDegrees>
            </Position>
            <AltitudeMeters>604.79998779296875</AltitudeMeters>
            <DistanceMeters>10998.010985187</DistanceMeters>
          </Trackpoint>
          <Trackpoint>
            <Time>2022-11-06T11:00:37.000Z</Time>
            <Position>
              <LatitudeDegrees>41.3624109327793121337890625</LatitudeDegrees>
              <LongitudeDegrees>-1.65701550431549549102783203125</LongitudeDegrees>
            </Position>
            <AltitudeMeters>605.20001220703125</AltitudeMeters>
            <DistanceMeters>11001.236298825</DistanceMeters>
          </Trackpoint>
          <Trackpoint>
            <Time>2022-11-06T11:00:38.000Z</Time>
            <Position>
              <LatitudeDegrees>41.36243750341236591339111328125</LatitudeDegrees>
              <LongitudeDegrees>-1.65700863115489482879638671875</LongitudeDegrees>
            </Position>
            <AltitudeMeters>605.4000244140625</AltitudeMeters>
            <DistanceMeters>11004.250308928</DistanceMeters>
          </Trackpoint>
          <Trackpoint>
            <Time>2022-11-06T11:00:39.000Z</Time>
            <Position>
              <LatitudeDegrees>41.36246365495026111602783203125</LatitudeDegrees>
              <LongitudeDegrees>-1.657002009451389312744140625</LongitudeDegrees>
            </Position>
            <AltitudeMeters>605.5999755859375</AltitudeMeters>
            <DistanceMeters>11007.212948681</DistanceMeters>
          </Trackpoint>
          <Trackpoint>
            <Time>2022-11-06T11:00:40.000Z</Time>
            <Position>
              <LatitudeDegrees>41.362492404878139495849609375</LatitudeDegrees>
              <LongitudeDegrees>-1.65699589066207408905029296875</LongitudeDegrees>
            </Position>
            <AltitudeMeters>605.79998779296875</AltitudeMeters>
            <DistanceMeters>11010.453624367</DistanceMeters>
          </Trackpoint>
          <Trackpoint>
            <Time>2022-11-06T11:00:41.000Z</Time>
            <Position>
              <LatitudeDegrees>41.3625234179198741912841796875</LatitudeDegrees>
              <LongitudeDegrees>-1.656991951167583465576171875</LongitudeDegrees>
            </Position>
            <AltitudeMeters>606</AltitudeMeters>
            <DistanceMeters>11013.921773993</DistanceMeters>
          </Trackpoint>
          <Trackpoint>
            <Time>2022-11-06T11:00:42.000Z</Time>
            <Position>
              <LatitudeDegrees>41.36255501769483089447021484375</LatitudeDegrees>
              <LongitudeDegrees>-1.6569880954921245574951171875</LongitudeDegrees>
            </Position>
            <AltitudeMeters>606.4000244140625</AltitudeMeters>
            <DistanceMeters>11017.451859756</DistanceMeters>
          </Trackpoint>
          <Trackpoint>
            <Time>2022-11-06T11:00:43.000Z</Time>
            <Position>
              <LatitudeDegrees>41.3625841028988361358642578125</LatitudeDegrees>
              <LongitudeDegrees>-1.65698298253118991851806640625</LongitudeDegrees>
            </Position>
            <AltitudeMeters>606.79998779296875</AltitudeMeters>
            <DistanceMeters>11020.716134591</DistanceMeters>
          </Trackpoint>
          <Trackpoint>
            <Time>2022-11-06T11:00:44.000Z</Time>
            <Position>
              <LatitudeDegrees>41.36261084116995334625244140625</LatitudeDegrees>
              <LongitudeDegrees>-1.6569807194173336029052734375</LongitudeDegrees>
            </Position>
            <AltitudeMeters>607.20001220703125</AltitudeMeters>
            <DistanceMeters>11023.698520431</DistanceMeters>
          </Trackpoint>
          <Trackpoint>
            <Time>2022-11-06T11:00:45.000Z</Time>
            <Position>
              <LatitudeDegrees>41.36263632215559482574462890625</LatitudeDegrees>
              <LongitudeDegrees>-1.65698214434087276458740234375</LongitudeDegrees>
            </Position>
            <AltitudeMeters>607.20001220703125</AltitudeMeters>
            <DistanceMeters>11026.5398033</DistanceMeters>
          </Trackpoint>
          <Trackpoint>
            <Time>2022-11-06T11:00:46.000Z</Time>
            <Position>
              <LatitudeDegrees>41.3626608811318874359130859375</LatitudeDegrees>
              <LongitudeDegrees>-1.656985916197299957275390625</LongitudeDegrees>
            </Position>
            <AltitudeMeters>607.4000244140625</AltitudeMeters>
            <DistanceMeters>11029.290658451</DistanceMeters>
          </Trackpoint>
          <Trackpoint>
            <Time>2022-11-06T11:00:47.000Z</Time>
            <Position>
              <LatitudeDegrees>41.36268518865108489990234375</LatitudeDegrees>
              <LongitudeDegrees>-1.6569917835295200347900390625</LongitudeDegrees>
            </Position>
            <AltitudeMeters>607.79998779296875</AltitudeMeters>
            <DistanceMeters>11032.038228997</DistanceMeters>
          </Trackpoint>
          <Trackpoint>
            <Time>2022-11-06T11:00:48.000Z</Time>
            <Position>
              <LatitudeDegrees>41.3627094961702823638916015625</LatitudeDegrees>
              <LongitudeDegrees>-1.65700108744204044342041015625</LongitudeDegrees>
            </Position>
            <AltitudeMeters>608.20001220703125</AltitudeMeters>
            <DistanceMeters>11034.852367771</DistanceMeters>
          </Trackpoint>
          <Trackpoint>
            <Time>2022-11-06T11:00:49.000Z</Time>
            <Position>
              <LatitudeDegrees>41.3627302832901477813720703125</LatitudeDegrees>
              <LongitudeDegrees>-1.6570125706493854522705078125</LongitudeDegrees>
            </Position>
            <AltitudeMeters>608.4000244140625</AltitudeMeters>
            <DistanceMeters>11037.35754304</DistanceMeters>
          </Trackpoint>
          <Trackpoint>
            <Time>2022-11-06T11:00:50.000Z</Time>
            <Position>
              <LatitudeDegrees>41.3627510704100131988525390625</LatitudeDegrees>
              <LongitudeDegrees>-1.6570246405899524688720703125</LongitudeDegrees>
            </Position>
            <AltitudeMeters>608.5999755859375</AltitudeMeters>
            <DistanceMeters>11039.882465607</DistanceMeters>
          </Trackpoint>
          <Trackpoint>
            <Time>2022-11-06T11:00:51.000Z</Time>
            <Position>
              <LatitudeDegrees>41.3627715222537517547607421875</LatitudeDegrees>
              <LongitudeDegrees>-1.6570367105305194854736328125</LongitudeDegrees>
            </Position>
            <AltitudeMeters>609</AltitudeMeters>
            <DistanceMeters>11042.371367462</DistanceMeters>
          </Trackpoint>
          <Trackpoint>
            <Time>2022-11-06T11:00:52.000Z</Time>
            <Position>
              <LatitudeDegrees>41.36279323138296604156494140625</LatitudeDegrees>
              <LongitudeDegrees>-1.65704634971916675567626953125</LongitudeDegrees>
            </Position>
            <AltitudeMeters>609.20001220703125</AltitudeMeters>
            <DistanceMeters>11044.919430444</DistanceMeters>
          </Trackpoint>
          <Trackpoint>
            <Time>2022-11-06T11:00:53.000Z</Time>
            <Position>
              <LatitudeDegrees>41.36281150393187999725341796875</LatitudeDegrees>
              <LongitudeDegrees>-1.6570544801652431488037109375</LongitudeDegrees>
            </Position>
            <AltitudeMeters>609.4000244140625</AltitudeMeters>
            <DistanceMeters>11047.061223813</DistanceMeters>
          </Trackpoint>
          <Trackpoint>
            <Time>2022-11-06T11:00:54.000Z</Time>
            <Position>
              <LatitudeDegrees>41.36282810010015964508056640625</LatitudeDegrees>
              <LongitudeDegrees>-1.65706680156290531158447265625</LongitudeDegrees>
            </Position>
            <AltitudeMeters>609.79998779296875</AltitudeMeters>
            <DistanceMeters>11049.173298093</DistanceMeters>
          </Trackpoint>
          <Trackpoint>
            <Time>2022-11-06T11:00:55.000Z</Time>
            <Position>
              <LatitudeDegrees>41.3628472946584224700927734375</LatitudeDegrees>
              <LongitudeDegrees>-1.65708038024604320526123046875</LongitudeDegrees>
            </Position>
            <AltitudeMeters>610</AltitudeMeters>
            <DistanceMeters>11051.592283321</DistanceMeters>
          </Trackpoint>
          <Trackpoint>
            <Time>2022-11-06T11:00:56.000Z</Time>
            <Position>
              <LatitudeDegrees>41.3628620468080043792724609375</LatitudeDegrees>
              <LongitudeDegrees>-1.657087840139865875244140625</LongitudeDegrees>
            </Position>
            <AltitudeMeters>610.20001220703125</AltitudeMeters>
            <DistanceMeters>11053.349635347</DistanceMeters>
          </Trackpoint>
          <Trackpoint>
            <Time>2022-11-06T11:00:57.000Z</Time>
            <Position>
              <LatitudeDegrees>41.3628824986517429351806640625</LatitudeDegrees>
              <LongitudeDegrees>-1.65709915570914745330810546875</LongitudeDegrees>
            </Position>
            <AltitudeMeters>610.5999755859375</AltitudeMeters>
            <DistanceMeters>11055.814841515</DistanceMeters>
          </Trackpoint>
          <Trackpoint>
            <Time>2022-11-06T11:00:58.000Z</Time>
            <Position>
              <LatitudeDegrees>41.36289842426776885986328125</LatitudeDegrees>
              <LongitudeDegrees>-1.65710820816457271575927734375</LongitudeDegrees>
            </Position>
            <AltitudeMeters>611</AltitudeMeters>
            <DistanceMeters>11057.741330917</DistanceMeters>
          </Trackpoint>
          <Trackpoint>
            <Time>2022-11-06T11:00:59.000Z</Time>
            <Position>
              <LatitudeDegrees>41.36291476897895336151123046875</LatitudeDegrees>
              <LongitudeDegrees>-1.6571210324764251708984375</LongitudeDegrees>
            </Position>
            <AltitudeMeters>611.20001220703125</AltitudeMeters>
            <DistanceMeters>11059.851266387</DistanceMeters>
          </Trackpoint>
          <Trackpoint>
            <Time>2022-11-06T11:01:00.000Z</Time>
            <Position>
              <LatitudeDegrees>41.36293170042335987091064453125</LatitudeDegrees>
              <LongitudeDegrees>-1.65712866000831127166748046875</LongitudeDegrees>
            </Position>
            <AltitudeMeters>611.5999755859375</AltitudeMeters>
            <DistanceMeters>11061.840028183</DistanceMeters>
          </Trackpoint>
          <Trackpoint>
            <Time>2022-11-06T11:01:01.000Z</Time>
            <Position>
              <LatitudeDegrees>41.36295047588646411895751953125</LatitudeDegrees>
              <LongitudeDegrees>-1.65713821537792682647705078125</LongitudeDegrees>
            </Position>
            <AltitudeMeters>611.79998779296875</AltitudeMeters>
            <DistanceMeters>11064.072650453</DistanceMeters>
          </Trackpoint>
          <Trackpoint>
            <Time>2022-11-06T11:01:02.000Z</Time>
            <Position>
              <LatitudeDegrees>41.36297327466309070587158203125</LatitudeDegrees>
              <LongitudeDegrees>-1.6571473516523838043212890625</LongitudeDegrees>
            </Position>
            <AltitudeMeters>612</AltitudeMeters>
            <DistanceMeters>11066.721493482</DistanceMeters>
          </Trackpoint>
          <Trackpoint>
            <Time>2022-11-06T11:01:03.000Z</Time>
            <Position>
              <LatitudeDegrees>41.362993307411670684814453125</LatitudeDegrees>
              <LongitudeDegrees>-1.65715917013585567474365234375</LongitudeDegrees>
            </Position>
            <AltitudeMeters>612.20001220703125</AltitudeMeters>
            <DistanceMeters>11069.159072261</DistanceMeters>
          </Trackpoint>
          <Trackpoint>
            <Time>2022-11-06T11:01:04.000Z</Time>
            <Position>
              <LatitudeDegrees>41.3630122505128383636474609375</LatitudeDegrees>
              <LongitudeDegrees>-1.65717056952416896820068359375</LongitudeDegrees>
            </Position>
            <AltitudeMeters>612.5999755859375</AltitudeMeters>
            <DistanceMeters>11071.471172011</DistanceMeters>
          </Trackpoint>
          <Trackpoint>
            <Time>2022-11-06T11:01:05.000Z</Time>
            <Position>
              <LatitudeDegrees>41.3630305230617523193359375</LatitudeDegrees>
              <LongitudeDegrees>-1.65718213655054569244384765625</LongitudeDegrees>
            </Position>
            <AltitudeMeters>612.79998779296875</AltitudeMeters>
            <DistanceMeters>11073.723926538</DistanceMeters>
          </Trackpoint>
          <Trackpoint>
            <Time>2022-11-06T11:01:06.000Z</Time>
            <Position>
              <LatitudeDegrees>41.36304887942969799041748046875</LatitudeDegrees>
              <LongitudeDegrees>-1.65719068609178066253662109375</LongitudeDegrees>
            </Position>
            <AltitudeMeters>613.20001220703125</AltitudeMeters>
            <DistanceMeters>11075.888784426</DistanceMeters>
          </Trackpoint>
          <Trackpoint>
            <Time>2022-11-06T11:01:07.000Z</Time>
            <Position>
              <LatitudeDegrees>41.3630695827305316925048828125</LatitudeDegrees>
              <LongitudeDegrees>-1.6572030074894428253173828125</LongitudeDegrees>
            </Position>
            <AltitudeMeters>613.4000244140625</AltitudeMeters>
            <DistanceMeters>11078.410128079</DistanceMeters>
          </Trackpoint>
          <Trackpoint>
            <Time>2022-11-06T11:01:08.000Z</Time>
            <Position>
              <LatitudeDegrees>41.363093219697475433349609375</LatitudeDegrees>
              <LongitudeDegrees>-1.6572175920009613037109375</LongitudeDegrees>
            </Position>
            <AltitudeMeters>613.5999755859375</AltitudeMeters>
            <DistanceMeters>11081.309610993</DistanceMeters>
          </Trackpoint>
          <Trackpoint>
            <Time>2022-11-06T11:01:09.000Z</Time>
            <Position>
              <LatitudeDegrees>41.36311375536024570465087890625</LatitudeDegrees>
              <LongitudeDegrees>-1.65723645128309726715087890625</LongitudeDegrees>
            </Position>
            <AltitudeMeters>614</AltitudeMeters>
            <DistanceMeters>11084.086603122</DistanceMeters>
          </Trackpoint>
          <Trackpoint>
            <Time>2022-11-06T11:01:10.000Z</Time>
            <Position>
              <LatitudeDegrees>41.363132782280445098876953125</LatitudeDegrees>
              <LongitudeDegrees>-1.65725648403167724609375</LongitudeDegrees>
            </Position>
            <AltitudeMeters>614.20001220703125</AltitudeMeters>
            <DistanceMeters>11086.784424764</DistanceMeters>
          </Trackpoint>
          <Trackpoint>
            <Time>2022-11-06T11:01:11.000Z</Time>
            <Position>
              <LatitudeDegrees>41.3631544075906276702880859375</LatitudeDegrees>
              <LongitudeDegrees>-1.6572760976850986480712890625</LongitudeDegrees>
            </Position>
            <AltitudeMeters>614.5999755859375</AltitudeMeters>
            <DistanceMeters>11089.694787578</DistanceMeters>
          </Trackpoint>
          <Trackpoint>
            <Time>2022-11-06T11:01:12.000Z</Time>
            <Position>
              <LatitudeDegrees>41.363175697624683380126953125</LatitudeDegrees>
              <LongitudeDegrees>-1.65729696862399578094482421875</LongitudeDegrees>
            </Position>
            <AltitudeMeters>614.79998779296875</AltitudeMeters>
            <DistanceMeters>11092.636014062</DistanceMeters>
          </Trackpoint>
          <Trackpoint>
            <Time>2022-11-06T11:01:13.000Z</Time>
            <Position>
              <LatitudeDegrees>41.3631953112781047821044921875</LatitudeDegrees>
              <LongitudeDegrees>-1.65732312016189098358154296875</LongitudeDegrees>
            </Position>
            <AltitudeMeters>615</AltitudeMeters>
            <DistanceMeters>11095.722554301</DistanceMeters>
          </Trackpoint>
          <Trackpoint>
            <Time>2022-11-06T11:01:14.000Z</Time>
            <Position>
              <LatitudeDegrees>41.36321383528411388397216796875</LatitudeDegrees>
              <LongitudeDegrees>-1.65735237300395965576171875</LongitudeDegrees>
            </Position>
            <AltitudeMeters>615</AltitudeMeters>
            <DistanceMeters>11098.919747842</DistanceMeters>
          </Trackpoint>
          <Trackpoint>
            <Time>2022-11-06T11:01:15.000Z</Time>
            <Position>
              <LatitudeDegrees>41.36323227547109127044677734375</LatitudeDegrees>
              <LongitudeDegrees>-1.65738296695053577423095703125</LongitudeDegrees>
            </Position>
            <AltitudeMeters>615</AltitudeMeters>
            <DistanceMeters>11102.19782517</DistanceMeters>
          </Trackpoint>
          <Trackpoint>
            <Time>2022-11-06T11:01:16.000Z</Time>
            <Position>
              <LatitudeDegrees>41.36324920691549777984619140625</LatitudeDegrees>
              <LongitudeDegrees>-1.65741431526839733123779296875</LongitudeDegrees>
            </Position>
            <AltitudeMeters>615.20001220703125</AltitudeMeters>
            <DistanceMeters>11105.423138808</DistanceMeters>
          </Trackpoint>
          <Trackpoint>
            <Time>2022-11-06T11:01:17.000Z</Time>
            <Position>
              <LatitudeDegrees>41.3632665574550628662109375</LatitudeDegrees>
              <LongitudeDegrees>-1.65744566358625888824462890625</LongitudeDegrees>
            </Position>
            <AltitudeMeters>615.4000244140625</AltitudeMeters>
            <DistanceMeters>11108.676329486</DistanceMeters>
          </Trackpoint>
          <Trackpoint>
            <Time>2022-11-06T11:01:18.000Z</Time>
            <Position>
              <LatitudeDegrees>41.3632811419665813446044921875</LatitudeDegrees>
              <LongitudeDegrees>-1.65747768245637416839599609375</LongitudeDegrees>
            </Position>
            <AltitudeMeters>615.4000244140625</AltitudeMeters>
            <DistanceMeters>11111.803560336</DistanceMeters>
          </Trackpoint>
          <Trackpoint>
            <Time>2022-11-06T11:01:19.000Z</Time>
            <Position>
              <LatitudeDegrees>41.36329715140163898468017578125</LatitudeDegrees>
              <LongitudeDegrees>-1.657511629164218902587890625</LongitudeDegrees>
            </Position>
            <AltitudeMeters>615.4000244140625</AltitudeMeters>
            <DistanceMeters>11115.15249374</DistanceMeters>
          </Trackpoint>
          <Trackpoint>
            <Time>2022-11-06T11:01:20.000Z</Time>
            <Position>
              <LatitudeDegrees>41.3633163459599018096923828125</LatitudeDegrees>
              <LongitudeDegrees>-1.65755043737590312957763671875</LongitudeDegrees>
            </Position>
            <AltitudeMeters>615.5999755859375</AltitudeMeters>
            <DistanceMeters>11119.035820621</DistanceMeters>
          </Trackpoint>
          <Trackpoint>
            <Time>2022-11-06T11:01:21.000Z</Time>
            <Position>
              <LatitudeDegrees>41.36333520524203777313232421875</LatitudeDegrees>
              <LongitudeDegrees>-1.6575919277966022491455078125</LongitudeDegrees>
            </Position>
            <AltitudeMeters>615.5999755859375</AltitudeMeters>
            <DistanceMeters>11123.089798806</DistanceMeters>
          </Trackpoint>
          <Trackpoint>
            <Time>2022-11-06T11:01:22.000Z</Time>
            <Position>
              <LatitudeDegrees>41.3633565790951251983642578125</LatitudeDegrees>
              <LongitudeDegrees>-1.65763132274150848388671875</LongitudeDegrees>
            </Position>
            <AltitudeMeters>615.79998779296875</AltitudeMeters>
            <DistanceMeters>11127.151565622</DistanceMeters>
          </Trackpoint>
          <Trackpoint>
            <Time>2022-11-06T11:01:23.000Z</Time>
            <Position>
              <LatitudeDegrees>41.363380886614322662353515625</LatitudeDegrees>
              <LongitudeDegrees>-1.6576690413057804107666015625</LongitudeDegrees>
            </Position>
            <AltitudeMeters>615.79998779296875</AltitudeMeters>
            <DistanceMeters>11131.305657109</DistanceMeters>
          </Trackpoint>
          <Trackpoint>
            <Time>2022-11-06T11:01:24.000Z</Time>
            <Position>
              <LatitudeDegrees>41.36340276338160037994384765625</LatitudeDegrees>
              <LongitudeDegrees>-1.6577084362506866455078125</LongitudeDegrees>
            </Position>
            <AltitudeMeters>616</AltitudeMeters>
            <DistanceMeters>11135.398430228</DistanceMeters>
          </Trackpoint>
          <Trackpoint>
            <Time>2022-11-06T11:01:25.000Z</Time>
            <Position>
              <LatitudeDegrees>41.3634253107011318206787109375</LatitudeDegrees>
              <LongitudeDegrees>-1.65774808265268802642822265625</LongitudeDegrees>
            </Position>
            <AltitudeMeters>616</AltitudeMeters>
            <DistanceMeters>11139.553608463</DistanceMeters>
          </Trackpoint>
          <Trackpoint>
            <Time>2022-11-06T11:01:26.000Z</Time>
            <Position>
              <LatitudeDegrees>41.3634487800300121307373046875</LatitudeDegrees>
              <LongitudeDegrees>-1.65778781287372112274169921875</LongitudeDegrees>
            </Position>
            <AltitudeMeters>616</AltitudeMeters>
            <DistanceMeters>11143.777757022</DistanceMeters>
          </Trackpoint>
          <Trackpoint>
            <Time>2022-11-06T11:01:27.000Z</Time>
            <Position>
              <LatitudeDegrees>41.3634715788066387176513671875</LatitudeDegrees>
              <LongitudeDegrees>-1.657826788723468780517578125</LongitudeDegrees>
            </Position>
            <AltitudeMeters>616</AltitudeMeters>
            <DistanceMeters>11147.904586819</DistanceMeters>
          </Trackpoint>
          <Trackpoint>
            <Time>2022-11-06T11:01:28.000Z</Time>
            <Position>
              <LatitudeDegrees>41.3634943775832653045654296875</LatitudeDegrees>
              <LongitudeDegrees>-1.6578611545264720916748046875</LongitudeDegrees>
            </Position>
            <AltitudeMeters>616.20001220703125</AltitudeMeters>
            <DistanceMeters>11151.73641462</DistanceMeters>
          </Trackpoint>
          <Trackpoint>
            <Time>2022-11-06T11:01:29.000Z</Time>
            <Position>
              <LatitudeDegrees>41.36351524852216243743896484375</LatitudeDegrees>
              <LongitudeDegrees>-1.65789778344333171844482421875</LongitudeDegrees>
            </Position>
            <AltitudeMeters>616.4000244140625</AltitudeMeters>
            <DistanceMeters>11155.578832477</DistanceMeters>
          </Trackpoint>
          <Trackpoint>
            <Time>2022-11-06T11:01:30.000Z</Time>
            <Position>
              <LatitudeDegrees>41.36353653855621814727783203125</LatitudeDegrees>
              <LongitudeDegrees>-1.65793114341795444488525390625</LongitudeDegrees>
            </Position>
            <AltitudeMeters>616.4000244140625</AltitudeMeters>
            <DistanceMeters>11159.237052439</DistanceMeters>
          </Trackpoint>
          <Trackpoint>
            <Time>2022-11-06T11:01:31.000Z</Time>
            <Position>
              <LatitudeDegrees>41.36356227099895477294921875</LatitudeDegrees>
              <LongitudeDegrees>-1.6579592227935791015625</LongitudeDegrees>
            </Position>
            <AltitudeMeters>616.5999755859375</AltitudeMeters>
            <DistanceMeters>11162.939437622</DistanceMeters>
          </Trackpoint>
          <Trackpoint>
            <Time>2022-11-06T11:01:32.000Z</Time>
            <Position>
              <LatitudeDegrees>41.36358934454619884490966796875</LatitudeDegrees>
              <LongitudeDegrees>-1.6579888947308063507080078125</LongitudeDegrees>
            </Position>
            <AltitudeMeters>616.79998779296875</AltitudeMeters>
            <DistanceMeters>11166.840165606</DistanceMeters>
          </Trackpoint>
          <Trackpoint>
            <Time>2022-11-06T11:01:33.000Z</Time>
            <Position>
              <LatitudeDegrees>41.363618262112140655517578125</LatitudeDegrees>
              <LongitudeDegrees>-1.6580147109925746917724609375</LongitudeDegrees>
            </Position>
            <AltitudeMeters>617</AltitudeMeters>
            <DistanceMeters>11170.714179939</DistanceMeters>
          </Trackpoint>
          <Trackpoint>
            <Time>2022-11-06T11:01:34.000Z</Time>
            <Position>
              <LatitudeDegrees>41.36364885605871677398681640625</LatitudeDegrees>
              <LongitudeDegrees>-1.6580398567020893096923828125</LongitudeDegrees>
            </Position>
            <AltitudeMeters>617.20001220703125</AltitudeMeters>
            <DistanceMeters>11174.714341868</DistanceMeters>
          </Trackpoint>
          <Trackpoint>
            <Time>2022-11-06T11:01:35.000Z</Time>
            <Position>
              <LatitudeDegrees>41.36367492377758026123046875</LatitudeDegrees>
              <LongitudeDegrees>-1.6580616496503353118896484375</LongitudeDegrees>
            </Position>
            <AltitudeMeters>617.4000244140625</AltitudeMeters>
            <DistanceMeters>11178.14057878</DistanceMeters>
          </Trackpoint>
          <Trackpoint>
            <Time>2022-11-06T11:01:36.000Z</Time>
            <Position>
              <LatitudeDegrees>41.3637025840580463409423828125</LatitudeDegrees>
              <LongitudeDegrees>-1.65808101184666156768798828125</LongitudeDegrees>
            </Position>
            <AltitudeMeters>617.5999755859375</AltitudeMeters>
            <DistanceMeters>11181.619127678</DistanceMeters>
          </Trackpoint>
          <Trackpoint>
            <Time>2022-11-06T11:01:37.000Z</Time>
            <Position>
              <LatitudeDegrees>41.36372990906238555908203125</LatitudeDegrees>
              <LongitudeDegrees>-1.65809609927237033843994140625</LongitudeDegrees>
            </Position>
            <AltitudeMeters>617.5999755859375</AltitudeMeters>
            <DistanceMeters>11184.910949625</DistanceMeters>
          </Trackpoint>
          <Trackpoint>
            <Time>2022-11-06T11:01:38.000Z</Time>
            <Position>
              <LatitudeDegrees>41.36375731788575649261474609375</LatitudeDegrees>
              <LongitudeDegrees>-1.65811009705066680908203125</LongitudeDegrees>
            </Position>
            <AltitudeMeters>617.79998779296875</AltitudeMeters>
            <DistanceMeters>11188.177989624</DistanceMeters>
          </Trackpoint>
          <Trackpoint>
            <Time>2022-11-06T11:01:39.000Z</Time>
            <Position>
              <LatitudeDegrees>41.36378397233784198760986328125</LatitudeDegrees>
              <LongitudeDegrees>-1.6581250168383121490478515625</LongitudeDegrees>
            </Position>
            <AltitudeMeters>618</AltitudeMeters>
            <DistanceMeters>11191.396296272</DistanceMeters>
          </Trackpoint>
          <Trackpoint>
            <Time>2022-11-06T11:01:40.000Z</Time>
            <Position>
              <LatitudeDegrees>41.36381263844668865203857421875</LatitudeDegrees>
              <LongitudeDegrees>-1.65814018808305263519287109375</LongitudeDegrees>
            </Position>
            <AltitudeMeters>618.20001220703125</AltitudeMeters>
            <DistanceMeters>11194.830430783</DistanceMeters>
          </Trackpoint>
          <Trackpoint>
            <Time>2022-11-06T11:01:41.000Z</Time>
            <Position>
              <LatitudeDegrees>41.3638484291732311248779296875</LatitudeDegrees>
              <LongitudeDegrees>-1.6581563651561737060546875</LongitudeDegrees>
            </Position>
            <AltitudeMeters>618.5999755859375</AltitudeMeters>
            <DistanceMeters>11199.036369412</DistanceMeters>
          </Trackpoint>
          <Trackpoint>
            <Time>2022-11-06T11:01:42.000Z</Time>
            <Position>
              <LatitudeDegrees>41.36387114413082599639892578125</LatitudeDegrees>
              <LongitudeDegrees>-1.6581699438393115997314453125</LongitudeDegrees>
            </Position>
            <AltitudeMeters>618.79998779296875</AltitudeMeters>
            <DistanceMeters>11201.810107888</DistanceMeters>
          </Trackpoint>
          <Trackpoint>
            <Time>2022-11-06T11:01:43.000Z</Time>
            <Position>
              <LatitudeDegrees>41.36390148662030696868896484375</LatitudeDegrees>
              <LongitudeDegrees>-1.6581880487501621246337890625</LongitudeDegrees>
            </Position>
            <AltitudeMeters>618.79998779296875</AltitudeMeters>
            <DistanceMeters>11205.511273375</DistanceMeters>
          </Trackpoint>
          <Trackpoint>
            <Time>2022-11-06T11:01:44.000Z</Time>
            <Position>
              <LatitudeDegrees>41.36393182910978794097900390625</LatitudeDegrees>
              <LongitudeDegrees>-1.6582054831087589263916015625</LongitudeDegrees>
            </Position>
            <AltitudeMeters>619.20001220703125</AltitudeMeters>
            <DistanceMeters>11209.190415203</DistanceMeters>
          </Trackpoint>
          <Trackpoint>
            <Time>2022-11-06T11:01:45.000Z</Time>
            <Position>
              <LatitudeDegrees>41.36396066285669803619384765625</LatitudeDegrees>
              <LongitudeDegrees>-1.6582212410867214202880859375</LongitudeDegrees>
            </Position>
            <AltitudeMeters>619.4000244140625</AltitudeMeters>
            <DistanceMeters>11212.658564828</DistanceMeters>
          </Trackpoint>
          <Trackpoint>
            <Time>2022-11-06T11:01:46.000Z</Time>
            <Position>
              <LatitudeDegrees>41.36398144997656345367431640625</LatitudeDegrees>
              <LongitudeDegrees>-1.658236496150493621826171875</LongitudeDegrees>
            </Position>
            <AltitudeMeters>619.5999755859375</AltitudeMeters>
            <DistanceMeters>11215.298871442</DistanceMeters>
          </Trackpoint>
          <Trackpoint>
            <Time>2022-11-06T11:01:47.000Z</Time>
            <Position>
              <LatitudeDegrees>41.36401346884667873382568359375</LatitudeDegrees>
              <LongitudeDegrees>-1.65825300849974155426025390625</LongitudeDegrees>
            </Position>
            <AltitudeMeters>620</AltitudeMeters>
            <DistanceMeters>11219.120079839</DistanceMeters>
          </Trackpoint>
          <Trackpoint>
            <Time>2022-11-06T11:01:48.000Z</Time>
            <Position>
              <LatitudeDegrees>41.3640412129461765289306640625</LatitudeDegrees>
              <LongitudeDegrees>-1.65826457552611827850341796875</LongitudeDegrees>
            </Position>
            <AltitudeMeters>620.20001220703125</AltitudeMeters>
            <DistanceMeters>11222.356573107</DistanceMeters>
          </Trackpoint>
          <Trackpoint>
            <Time>2022-11-06T11:01:49.000Z</Time>
            <Position>
              <LatitudeDegrees>41.364070884883403778076171875</LatitudeDegrees>
              <LongitudeDegrees>-1.65827480144798755645751953125</LongitudeDegrees>
            </Position>
            <AltitudeMeters>620.5999755859375</AltitudeMeters>
            <DistanceMeters>11225.766959956</DistanceMeters>
          </Trackpoint>
          <Trackpoint>
            <Time>2022-11-06T11:01:50.000Z</Time>
            <Position>
              <LatitudeDegrees>41.364101059734821319580078125</LatitudeDegrees>
              <LongitudeDegrees>-1.65828150697052478790283203125</LongitudeDegrees>
            </Position>
            <AltitudeMeters>620.79998779296875</AltitudeMeters>
            <DistanceMeters>11229.172047055</DistanceMeters>
          </Trackpoint>
          <Trackpoint>
            <Time>2022-11-06T11:01:51.000Z</Time>
            <Position>
              <LatitudeDegrees>41.3641303963959217071533203125</LatitudeDegrees>
              <LongitudeDegrees>-1.65828988887369632720947265625</LongitudeDegrees>
            </Position>
            <AltitudeMeters>621</AltitudeMeters>
            <DistanceMeters>11232.511529711</DistanceMeters>
          </Trackpoint>
          <Trackpoint>
            <Time>2022-11-06T11:01:52.000Z</Time>
            <Position>
              <LatitudeDegrees>41.36416333727538585662841796875</LatitudeDegrees>
              <LongitudeDegrees>-1.6582990251481533050537109375</LongitudeDegrees>
            </Position>
            <AltitudeMeters>621</AltitudeMeters>
            <DistanceMeters>11236.257559448</DistanceMeters>
          </Trackpoint>
          <Trackpoint>
            <Time>2022-11-06T11:01:53.000Z</Time>
            <Position>
              <LatitudeDegrees>41.36420063674449920654296875</LatitudeDegrees>
              <LongitudeDegrees>-1.65831151418387889862060546875</LongitudeDegrees>
            </Position>
            <AltitudeMeters>621</AltitudeMeters>
            <DistanceMeters>11240.537982921</DistanceMeters>
          </Trackpoint>
          <Trackpoint>
            <Time>2022-11-06T11:01:54.000Z</Time>
            <Position>
              <LatitudeDegrees>41.36424145661294460296630859375</LatitudeDegrees>
              <LongitudeDegrees>-1.65831872262060642242431640625</LongitudeDegrees>
            </Position>
            <AltitudeMeters>621</AltitudeMeters>
            <DistanceMeters>11245.120005153</DistanceMeters>
          </Trackpoint>
          <Trackpoint>
            <Time>2022-11-06T11:01:55.000Z</Time>
            <Position>
              <LatitudeDegrees>41.3642826117575168609619140625</LatitudeDegrees>
              <LongitudeDegrees>-1.6583285294473171234130859375</LongitudeDegrees>
            </Position>
            <AltitudeMeters>621</AltitudeMeters>
            <DistanceMeters>11249.773404266</DistanceMeters>
          </Trackpoint>
          <Trackpoint>
            <Time>2022-11-06T11:01:56.000Z</Time>
            <Position>
              <LatitudeDegrees>41.36432443745434284210205078125</LatitudeDegrees>
              <LongitudeDegrees>-1.65833984501659870147705078125</LongitudeDegrees>
            </Position>
            <AltitudeMeters>621</AltitudeMeters>
            <DistanceMeters>11254.524739985</DistanceMeters>
          </Trackpoint>
          <Trackpoint>
            <Time>2022-11-06T11:01:57.000Z</Time>
            <Position>
              <LatitudeDegrees>41.3643689453601837158203125</LatitudeDegrees>
              <LongitudeDegrees>-1.65835551917552947998046875</LongitudeDegrees>
            </Position>
            <AltitudeMeters>620.79998779296875</AltitudeMeters>
            <DistanceMeters>11259.649138711</DistanceMeters>
          </Trackpoint>
          <Trackpoint>
            <Time>2022-11-06T11:01:58.000Z</Time>
            <Position>
              <LatitudeDegrees>41.3644118607044219970703125</LatitudeDegrees>
              <LongitudeDegrees>-1.65836314670741558074951171875</LongitudeDegrees>
            </Position>
            <AltitudeMeters>620.5999755859375</AltitudeMeters>
            <DistanceMeters>11264.468408013</DistanceMeters>
          </Trackpoint>
          <Trackpoint>
            <Time>2022-11-06T11:01:59.000Z</Time>
            <Position>
              <LatitudeDegrees>41.36445276439189910888671875</LatitudeDegrees>
              <LongitudeDegrees>-1.65836096741259098052978515625</LongitudeDegrees>
            </Position>
            <AltitudeMeters>620.4000244140625</AltitudeMeters>
            <DistanceMeters>11269.025729137</DistanceMeters>
          </Trackpoint>
          <Trackpoint>
            <Time>2022-11-06T11:02:00.000Z</Time>
            <Position>
              <LatitudeDegrees>41.3644914887845516204833984375</LatitudeDegrees>
              <LongitudeDegrees>-1.65835686028003692626953125</LongitudeDegrees>
            </Position>
            <AltitudeMeters>620</AltitudeMeters>
            <DistanceMeters>11273.34918357</DistanceMeters>
          </Trackpoint>
          <Trackpoint>
            <Time>2022-11-06T11:02:01.000Z</Time>
            <Position>
              <LatitudeDegrees>41.3645256869494915008544921875</LatitudeDegrees>
              <LongitudeDegrees>-1.6583456285297870635986328125</LongitudeDegrees>
            </Position>
            <AltitudeMeters>619.79998779296875</AltitudeMeters>
            <DistanceMeters>11277.267235376</DistanceMeters>
          </Trackpoint>
          <Trackpoint>
            <Time>2022-11-06T11:02:02.000Z</Time>
            <Position>
              <LatitudeDegrees>41.36454773135483264923095703125</LatitudeDegrees>
              <LongitudeDegrees>-1.65832995437085628509521484375</LongitudeDegrees>
            </Position>
            <AltitudeMeters>619.5999755859375</AltitudeMeters>
            <DistanceMeters>11280.047477351</DistanceMeters>
          </Trackpoint>
          <Trackpoint>
            <Time>2022-11-06T11:02:03.000Z</Time>
            <Position>
              <LatitudeDegrees>41.36456550098955631256103515625</LatitudeDegrees>
              <LongitudeDegrees>-1.658296175301074981689453125</LongitudeDegrees>
            </Position>
            <AltitudeMeters>619.5999755859375</AltitudeMeters>
            <DistanceMeters>11283.494734318</DistanceMeters>
          </Trackpoint>
          <Trackpoint>
            <Time>2022-11-06T11:02:04.000Z</Time>
            <Position>
              <LatitudeDegrees>41.36456415988504886627197265625</LatitudeDegrees>
              <LongitudeDegrees>-1.65826457552611827850341796875</LongitudeDegrees>
            </Position>
            <AltitudeMeters>619.5999755859375</AltitudeMeters>
            <DistanceMeters>11286.140166087</DistanceMeters>
          </Trackpoint>
          <Trackpoint>
            <Time>2022-11-06T11:02:05.000Z</Time>
            <Position>
              <LatitudeDegrees>41.364555023610591888427734375</LatitudeDegrees>
              <LongitudeDegrees>-1.65823456831276416778564453125</LongitudeDegrees>
            </Position>
            <AltitudeMeters>619.5999755859375</AltitudeMeters>
            <DistanceMeters>11288.846342725</DistanceMeters>
          </Trackpoint>
          <Trackpoint>
            <Time>2022-11-06T11:02:06.000Z</Time>
            <Position>
              <LatitudeDegrees>41.3645434565842151641845703125</LatitudeDegrees>
              <LongitudeDegrees>-1.65820598602294921875</LongitudeDegrees>
            </Position>
            <AltitudeMeters>619.5999755859375</AltitudeMeters>
            <DistanceMeters>11291.557520002</DistanceMeters>
          </Trackpoint>
          <Trackpoint>
            <Time>2022-11-06T11:02:07.000Z</Time>
            <Position>
              <LatitudeDegrees>41.36453214101493358612060546875</LatitudeDegrees>
              <LongitudeDegrees>-1.65817673318088054656982421875</LongitudeDegrees>
            </Position>
            <AltitudeMeters>619.5999755859375</AltitudeMeters>
            <DistanceMeters>11294.306733341</DistanceMeters>
          </Trackpoint>
          <Trackpoint>
            <Time>2022-11-06T11:02:08.000Z</Time>
            <Position>
              <LatitudeDegrees>41.36451688595116138458251953125</LatitudeDegrees>
              <LongitudeDegrees>-1.65814756415784358978271484375</LongitudeDegrees>
            </Position>
            <AltitudeMeters>619.79998779296875</AltitudeMeters>
            <DistanceMeters>11297.275462801</DistanceMeters>
          </Trackpoint>
          <Trackpoint>
            <Time>2022-11-06T11:02:09.000Z</Time>
            <Position>
              <LatitudeDegrees>41.36450531892478466033935546875</LatitudeDegrees>
              <LongitudeDegrees>-1.6581189818680286407470703125</LongitudeDegrees>
            </Position>
            <AltitudeMeters>619.79998779296875</AltitudeMeters>
            <DistanceMeters>11299.986640078</DistanceMeters>
          </Trackpoint>
          <Trackpoint>
            <Time>2022-11-06T11:02:10.000Z</Time>
            <Position>
              <LatitudeDegrees>41.36449861340224742889404296875</LatitudeDegrees>
              <LongitudeDegrees>-1.6580918245017528533935546875</LongitudeDegrees>
            </Position>
            <AltitudeMeters>619.79998779296875</AltitudeMeters>
            <DistanceMeters>11302.375574634</DistanceMeters>
          </Trackpoint>
          <Trackpoint>
            <Time>2022-11-06T11:02:11.000Z</Time>
            <Position>
              <LatitudeDegrees>41.3644931651651859283447265625</LatitudeDegrees>
              <LongitudeDegrees>-1.65806290693581104278564453125</LongitudeDegrees>
            </Position>
            <AltitudeMeters>620</AltitudeMeters>
            <DistanceMeters>11304.866289896</DistanceMeters>
          </Trackpoint>
          <Trackpoint>
            <Time>2022-11-06T11:02:13.000Z</Time>
            <Position>
              <LatitudeDegrees>41.36447883211076259613037109375</LatitudeDegrees>
              <LongitudeDegrees>-1.6580069996416568756103515625</LongitudeDegrees>
            </Position>
            <AltitudeMeters>620.20001220703125</AltitudeMeters>
            <DistanceMeters>11309.80127887</DistanceMeters>
          </Trackpoint>
          <Trackpoint>
            <Time>2022-11-06T11:02:14.000Z</Time>
            <Position>
              <LatitudeDegrees>41.36447028256952762603759765625</LatitudeDegrees>
              <LongitudeDegrees>-1.65798964910209178924560546875</LongitudeDegrees>
            </Position>
            <AltitudeMeters>620.79998779296875</AltitudeMeters>
            <DistanceMeters>11311.535353682</DistanceMeters>
          </Trackpoint>
          <Trackpoint>
            <Time>2022-11-06T11:02:15.000Z</Time>
            <Position>
              <LatitudeDegrees>41.364460475742816925048828125</LatitudeDegrees>
              <LongitudeDegrees>-1.65797372348606586456298828125</LongitudeDegrees>
            </Position>
            <AltitudeMeters>621.4000244140625</AltitudeMeters>
            <DistanceMeters>11313.256360676</DistanceMeters>
          </Trackpoint>
          <Trackpoint>
            <Time>2022-11-06T11:02:16.000Z</Time>
            <Position>
              <LatitudeDegrees>41.36445083655416965484619140625</LatitudeDegrees>
              <LongitudeDegrees>-1.657956875860691070556640625</LongitudeDegrees>
            </Position>
            <AltitudeMeters>621.79998779296875</AltitudeMeters>
            <DistanceMeters>11315.02395974</DistanceMeters>
          </Trackpoint>
          <Trackpoint>
            <Time>2022-11-06T11:02:17.000Z</Time>
            <Position>
              <LatitudeDegrees>41.364439018070697784423828125</LatitudeDegrees>
              <LongitudeDegrees>-1.6579391062259674072265625</LongitudeDegrees>
            </Position>
            <AltitudeMeters>622.20001220703125</AltitudeMeters>
            <DistanceMeters>11317.008175789</DistanceMeters>
          </Trackpoint>
          <Trackpoint>
            <Time>2022-11-06T11:02:18.000Z</Time>
            <Position>
              <LatitudeDegrees>41.36442451737821102142333984375</LatitudeDegrees>
              <LongitudeDegrees>-1.657922007143497467041015625</LongitudeDegrees>
            </Position>
            <AltitudeMeters>622.5999755859375</AltitudeMeters>
            <DistanceMeters>11319.162580415</DistanceMeters>
          </Trackpoint>
          <Trackpoint>
            <Time>2022-11-06T11:02:21.000Z</Time>
            <Position>
              <LatitudeDegrees>41.36437791399657726287841796875</LatitudeDegrees>
              <LongitudeDegrees>-1.65788269601762294769287109375</LongitudeDegrees>
            </Position>
            <AltitudeMeters>623.4000244140625</AltitudeMeters>
            <DistanceMeters>11325.301923953</DistanceMeters>
          </Trackpoint>
          <Trackpoint>
            <Time>2022-11-06T11:02:22.000Z</Time>
            <Position>
              <LatitudeDegrees>41.364362575113773345947265625</LatitudeDegrees>
              <LongitudeDegrees>-1.65787716396152973175048828125</LongitudeDegrees>
            </Position>
            <AltitudeMeters>623.5999755859375</AltitudeMeters>
            <DistanceMeters>11327.069523017</DistanceMeters>
          </Trackpoint>
          <Trackpoint>
            <Time>2022-11-06T11:02:23.000Z</Time>
            <Position>
              <LatitudeDegrees>41.36434547603130340576171875</LatitudeDegrees>
              <LongitudeDegrees>-1.65787138044834136962890625</LongitudeDegrees>
            </Position>
            <AltitudeMeters>623.79998779296875</AltitudeMeters>
            <DistanceMeters>11329.03545097</DistanceMeters>
          </Trackpoint>
          <Trackpoint>
            <Time>2022-11-06T11:02:24.000Z</Time>
            <Position>
              <LatitudeDegrees>41.364327371120452880859375</LatitudeDegrees>
              <LongitudeDegrees>-1.657866351306438446044921875</LongitudeDegrees>
            </Position>
            <AltitudeMeters>624</AltitudeMeters>
            <DistanceMeters>11331.095581046</DistanceMeters>
          </Trackpoint>
          <Trackpoint>
            <Time>2022-11-06T11:02:25.000Z</Time>
            <Position>
              <LatitudeDegrees>41.3643127866089344024658203125</LatitudeDegrees>
              <LongitudeDegrees>-1.65786199271678924560546875</LongitudeDegrees>
            </Position>
            <AltitudeMeters>624.20001220703125</AltitudeMeters>
            <DistanceMeters>11332.757869646</DistanceMeters>
          </Trackpoint>
          <Trackpoint>
            <Time>2022-11-06T11:02:26.000Z</Time>
            <Position>
              <LatitudeDegrees>41.3642965257167816162109375</LatitudeDegrees>
              <LongitudeDegrees>-1.6578624956309795379638671875</LongitudeDegrees>
            </Position>
            <AltitudeMeters>624.5999755859375</AltitudeMeters>
            <DistanceMeters>11334.568371717</DistanceMeters>
          </Trackpoint>
          <Trackpoint>
            <Time>2022-11-06T11:02:27.000Z</Time>
            <Position>
              <LatitudeDegrees>41.3642804324626922607421875</LatitudeDegrees>
              <LongitudeDegrees>-1.65786199271678924560546875</LongitudeDegrees>
            </Position>
            <AltitudeMeters>625</AltitudeMeters>
            <DistanceMeters>11336.361332178</DistanceMeters>
          </Trackpoint>
          <Trackpoint>
            <Time>2022-11-06T11:02:28.000Z</Time>
            <Position>
              <LatitudeDegrees>41.3642658479511737823486328125</LatitudeDegrees>
              <LongitudeDegrees>-1.6578588075935840606689453125</LongitudeDegrees>
            </Position>
            <AltitudeMeters>625.20001220703125</AltitudeMeters>
            <DistanceMeters>11338.007243152</DistanceMeters>
          </Trackpoint>
          <Trackpoint>
            <Time>2022-11-06T11:02:29.000Z</Time>
            <Position>
              <LatitudeDegrees>41.36425218544900417327880859375</LatitudeDegrees>
              <LongitudeDegrees>-1.65785235352814197540283203125</LongitudeDegrees>
            </Position>
            <AltitudeMeters>625.5999755859375</AltitudeMeters>
            <DistanceMeters>11339.619899971</DistanceMeters>
          </Trackpoint>
          <Trackpoint>
            <Time>2022-11-06T11:02:30.000Z</Time>
            <Position>
              <LatitudeDegrees>41.36423676274716854095458984375</LatitudeDegrees>
              <LongitudeDegrees>-1.65784983895719051361083984375</LongitudeDegrees>
            </Position>
            <AltitudeMeters>626</AltitudeMeters>
            <DistanceMeters>11341.35136911</DistanceMeters>
          </Trackpoint>
          <Trackpoint>
            <Time>2022-11-06T11:02:31.000Z</Time>
            <Position>
              <LatitudeDegrees>41.36422184295952320098876953125</LatitudeDegrees>
              <LongitudeDegrees>-1.65784564800560474395751953125</LongitudeDegrees>
            </Position>
            <AltitudeMeters>626.4000244140625</AltitudeMeters>
            <DistanceMeters>11343.048600498</DistanceMeters>
          </Trackpoint>
          <Trackpoint>
            <Time>2022-11-06T11:02:32.000Z</Time>
            <Position>
              <LatitudeDegrees>41.3642078451812267303466796875</LatitudeDegrees>
              <LongitudeDegrees>-1.6578407026827335357666015625</LongitudeDegrees>
            </Position>
            <AltitudeMeters>626.79998779296875</AltitudeMeters>
            <DistanceMeters>11344.658455131</DistanceMeters>
          </Trackpoint>
          <Trackpoint>
            <Time>2022-11-06T11:02:33.000Z</Time>
            <Position>
              <LatitudeDegrees>41.364196278154850006103515625</LatitudeDegrees>
              <LongitudeDegrees>-1.65783651173114776611328125</LongitudeDegrees>
            </Position>
            <AltitudeMeters>627</AltitudeMeters>
            <DistanceMeters>11345.988829132</DistanceMeters>
          </Trackpoint>
          <Trackpoint>
            <Time>2022-11-06T11:02:34.000Z</Time>
            <Position>
              <LatitudeDegrees>41.36418026871979236602783203125</LatitudeDegrees>
              <LongitudeDegrees>-1.65782921947538852691650390625</LongitudeDegrees>
            </Position>
            <AltitudeMeters>627.4000244140625</AltitudeMeters>
            <DistanceMeters>11347.870262088</DistanceMeters>
          </Trackpoint>
          <Trackpoint>
            <Time>2022-11-06T11:02:35.000Z</Time>
            <Position>
              <LatitudeDegrees>41.3641635887324810028076171875</LatitudeDegrees>
              <LongitudeDegrees>-1.65782268159091472625732421875</LongitudeDegrees>
            </Position>
            <AltitudeMeters>627.5999755859375</AltitudeMeters>
            <DistanceMeters>11349.808434371</DistanceMeters>
          </Trackpoint>
          <Trackpoint>
            <Time>2022-11-06T11:02:36.000Z</Time>
            <Position>
              <LatitudeDegrees>41.36415193788707256317138671875</LatitudeDegrees>
              <LongitudeDegrees>-1.6578197479248046875</LongitudeDegrees>
            </Position>
            <AltitudeMeters>627.5999755859375</AltitudeMeters>
            <DistanceMeters>11351.132003346</DistanceMeters>
          </Trackpoint>
          <Trackpoint>
            <Time>2022-11-06T11:02:37.000Z</Time>
            <Position>
              <LatitudeDegrees>41.364135257899761199951171875</LatitudeDegrees>
              <LongitudeDegrees>-1.6578158922493457794189453125</LongitudeDegrees>
            </Position>
            <AltitudeMeters>627.79998779296875</AltitudeMeters>
            <DistanceMeters>11353.01583456</DistanceMeters>
          </Trackpoint>
          <Trackpoint>
            <Time>2022-11-06T11:02:38.000Z</Time>
            <Position>
              <LatitudeDegrees>41.3641169853508472442626953125</LatitudeDegrees>
              <LongitudeDegrees>-1.657811701297760009765625</LongitudeDegrees>
            </Position>
            <AltitudeMeters>628.4000244140625</AltitudeMeters>
            <DistanceMeters>11355.080343238</DistanceMeters>
          </Trackpoint>
          <Trackpoint>
            <Time>2022-11-06T11:02:39.000Z</Time>
            <Position>
              <LatitudeDegrees>41.364107094705104827880859375</LatitudeDegrees>
              <LongitudeDegrees>-1.65780290029942989349365234375</LongitudeDegrees>
            </Position>
            <AltitudeMeters>628.5999755859375</AltitudeMeters>
            <DistanceMeters>11356.403912212</DistanceMeters>
          </Trackpoint>
          <Trackpoint>
            <Time>2022-11-06T11:02:40.000Z</Time>
            <Position>
              <LatitudeDegrees>41.36409175582230091094970703125</LatitudeDegrees>
              <LongitudeDegrees>-1.65778814814984798431396484375</LongitudeDegrees>
            </Position>
            <AltitudeMeters>628.79998779296875</AltitudeMeters>
            <DistanceMeters>11358.511706702</DistanceMeters>
          </Trackpoint>
          <Trackpoint>
            <Time>2022-11-06T11:02:41.000Z</Time>
            <Position>
              <LatitudeDegrees>41.36408085934817790985107421875</LatitudeDegrees>
              <LongitudeDegrees>-1.65777524001896381378173828125</LongitudeDegrees>
            </Position>
            <AltitudeMeters>628.79998779296875</AltitudeMeters>
            <DistanceMeters>11360.135523909</DistanceMeters>
          </Trackpoint>
          <Trackpoint>
            <Time>2022-11-06T11:02:42.000Z</Time>
            <Position>
              <LatitudeDegrees>41.3640723936259746551513671875</LatitudeDegrees>
              <LongitudeDegrees>-1.657764427363872528076171875</LongitudeDegrees>
            </Position>
            <AltitudeMeters>629</AltitudeMeters>
            <DistanceMeters>11361.438464572</DistanceMeters>
          </Trackpoint>
          <Trackpoint>
            <Time>2022-11-06T11:02:43.000Z</Time>
            <Position>
              <LatitudeDegrees>41.36406459845602512359619140625</LatitudeDegrees>
              <LongitudeDegrees>-1.6577540338039398193359375</LongitudeDegrees>
            </Position>
            <AltitudeMeters>629.20001220703125</AltitudeMeters>
            <DistanceMeters>11362.662798141</DistanceMeters>
          </Trackpoint>
          <Trackpoint>
            <Time>2022-11-06T11:02:44.000Z</Time>
            <Position>
              <LatitudeDegrees>41.36405386961996555328369140625</LatitudeDegrees>
              <LongitudeDegrees>-1.65773936547338962554931640625</LongitudeDegrees>
            </Position>
            <AltitudeMeters>629.20001220703125</AltitudeMeters>
            <DistanceMeters>11364.373279</DistanceMeters>
          </Trackpoint>
          <Trackpoint>
            <Time>2022-11-06T11:02:45.000Z</Time>
            <Position>
              <LatitudeDegrees>41.3640425540506839752197265625</LatitudeDegrees>
              <LongitudeDegrees>-1.6577267087996006011962890625</LongitudeDegrees>
            </Position>
            <AltitudeMeters>629.5999755859375</AltitudeMeters>
            <DistanceMeters>11366.016444499</DistanceMeters>
          </Trackpoint>
          <Trackpoint>
            <Time>2022-11-06T11:02:46.000Z</Time>
            <Position>
              <LatitudeDegrees>41.36403165757656097412109375</LatitudeDegrees>
              <LongitudeDegrees>-1.65771044790744781494140625</LongitudeDegrees>
            </Position>
            <AltitudeMeters>630</AltitudeMeters>
            <DistanceMeters>11367.836894458</DistanceMeters>
          </Trackpoint>
          <Trackpoint>
            <Time>2022-11-06T11:02:47.000Z</Time>
            <Position>
              <LatitudeDegrees>41.3640197552740573883056640625</LatitudeDegrees>
              <LongitudeDegrees>-1.65769460611045360565185546875</LongitudeDegrees>
            </Position>
            <AltitudeMeters>630.4000244140625</AltitudeMeters>
            <DistanceMeters>11369.708703653</DistanceMeters>
          </Trackpoint>
          <Trackpoint>
            <Time>2022-11-06T11:02:48.000Z</Time>
            <Position>
              <LatitudeDegrees>41.36401212774217128753662109375</LatitudeDegrees>
              <LongitudeDegrees>-1.6576854698359966278076171875</LongitudeDegrees>
            </Position>
            <AltitudeMeters>631.20001220703125</AltitudeMeters>
            <DistanceMeters>11370.852976821</DistanceMeters>
          </Trackpoint>
          <Trackpoint>
            <Time>2022-11-06T11:02:49.000Z</Time>
            <Position>
              <LatitudeDegrees>41.36400274001061916351318359375</LatitudeDegrees>
              <LongitudeDegrees>-1.65767180733382701873779296875</LongitudeDegrees>
            </Position>
            <AltitudeMeters>631.5999755859375</AltitudeMeters>
            <DistanceMeters>11372.399899656</DistanceMeters>
          </Trackpoint>
          <Trackpoint>
            <Time>2022-11-06T11:02:50.000Z</Time>
            <Position>
              <LatitudeDegrees>41.36399502865970134735107421875</LatitudeDegrees>
              <LongitudeDegrees>-1.65765655227005481719970703125</LongitudeDegrees>
            </Position>
            <AltitudeMeters>632</AltitudeMeters>
            <DistanceMeters>11373.938041402</DistanceMeters>
          </Trackpoint>
          <Trackpoint>
            <Time>2022-11-06T11:02:51.000Z</Time>
            <Position>
              <LatitudeDegrees>41.36398832313716411590576171875</LatitudeDegrees>
              <LongitudeDegrees>-1.6576360166072845458984375</LongitudeDegrees>
            </Position>
            <AltitudeMeters>632.4000244140625</AltitudeMeters>
            <DistanceMeters>11375.809850596</DistanceMeters>
          </Trackpoint>
          <Trackpoint>
            <Time>2022-11-06T11:02:52.000Z</Time>
            <Position>
              <LatitudeDegrees>41.3639798574149608612060546875</LatitudeDegrees>
              <LongitudeDegrees>-1.65761766023933887481689453125</LongitudeDegrees>
            </Position>
            <AltitudeMeters>632.79998779296875</AltitudeMeters>
            <DistanceMeters>11377.607840409</DistanceMeters>
          </Trackpoint>
          <Trackpoint>
            <Time>2022-11-06T11:02:53.000Z</Time>
            <Position>
              <LatitudeDegrees>41.3639718107879161834716796875</LatitudeDegrees>
              <LongitudeDegrees>-1.65760173462331295013427734375</LongitudeDegrees>
            </Position>
            <AltitudeMeters>633</AltitudeMeters>
            <DistanceMeters>11379.212075986</DistanceMeters>
          </Trackpoint>
          <Trackpoint>
            <Time>2022-11-06T11:02:54.000Z</Time>
            <Position>
              <LatitudeDegrees>41.36396233923733234405517578125</LatitudeDegrees>
              <LongitudeDegrees>-1.6575848869979381561279296875</LongitudeDegrees>
            </Position>
            <AltitudeMeters>633.20001220703125</AltitudeMeters>
            <DistanceMeters>11380.969428012</DistanceMeters>
          </Trackpoint>
          <Trackpoint>
            <Time>2022-11-06T11:02:55.000Z</Time>
            <Position>
              <LatitudeDegrees>41.3639510236680507659912109375</LatitudeDegrees>
              <LongitudeDegrees>-1.6575654409825801849365234375</LongitudeDegrees>
            </Position>
            <AltitudeMeters>633.4000244140625</AltitudeMeters>
            <DistanceMeters>11383.022972679</DistanceMeters>
          </Trackpoint>
          <Trackpoint>
            <Time>2022-11-06T11:02:56.000Z</Time>
            <Position>
              <LatitudeDegrees>41.3639436475932598114013671875</LatitudeDegrees>
              <LongitudeDegrees>-1.65755077265202999114990234375</LongitudeDegrees>
            </Position>
            <AltitudeMeters>633.5999755859375</AltitudeMeters>
            <DistanceMeters>11384.495120208</DistanceMeters>
          </Trackpoint>
          <Trackpoint>
            <Time>2022-11-06T11:02:57.000Z</Time>
            <Position>
              <LatitudeDegrees>41.363932080566883087158203125</LatitudeDegrees>
              <LongitudeDegrees>-1.6575288958847522735595703125</LongitudeDegrees>
            </Position>
            <AltitudeMeters>633.5999755859375</AltitudeMeters>
            <DistanceMeters>11386.729763865</DistanceMeters>
          </Trackpoint>
          <Trackpoint>
            <Time>2022-11-06T11:02:58.000Z</Time>
            <Position>
              <LatitudeDegrees>41.36391707696020603179931640625</LatitudeDegrees>
              <LongitudeDegrees>-1.6574940271675586700439453125</LongitudeDegrees>
            </Position>
            <AltitudeMeters>633.4000244140625</AltitudeMeters>
            <DistanceMeters>11390.089465571</DistanceMeters>
          </Trackpoint>
          <Trackpoint>
            <Time>2022-11-06T11:02:59.000Z</Time>
            <Position>
              <LatitudeDegrees>41.36390685103833675384521484375</LatitudeDegrees>
              <LongitudeDegrees>-1.65746980346739292144775390625</LongitudeDegrees>
            </Position>
            <AltitudeMeters>633.20001220703125</AltitudeMeters>
            <DistanceMeters>11392.409363319</DistanceMeters>
          </Trackpoint>
          <Trackpoint>
            <Time>2022-11-06T11:03:00.000Z</Time>
            <Position>
              <LatitudeDegrees>41.36389243416488170623779296875</LatitudeDegrees>
              <LongitudeDegrees>-1.6574309952557086944580078125</LongitudeDegrees>
            </Position>
            <AltitudeMeters>633</AltitudeMeters>
            <DistanceMeters>11396.02662482</DistanceMeters>
          </Trackpoint>
          <Trackpoint>
            <Time>2022-11-06T11:03:01.000Z</Time>
            <Position>
              <LatitudeDegrees>41.3638775981962680816650390625</LatitudeDegrees>
              <LongitudeDegrees>-1.6573840565979480743408203125</LongitudeDegrees>
            </Position>
            <AltitudeMeters>633</AltitudeMeters>
            <DistanceMeters>11400.281657519</DistanceMeters>
          </Trackpoint>
          <Trackpoint>
            <Time>2022-11-06T11:03:02.000Z</Time>
            <Position>
              <LatitudeDegrees>41.36385907419025897979736328125</LatitudeDegrees>
              <LongitudeDegrees>-1.65732831694185733795166015625</LongitudeDegrees>
            </Position>
            <AltitudeMeters>632.4000244140625</AltitudeMeters>
            <DistanceMeters>11405.374238353</DistanceMeters>
          </Trackpoint>
          <Trackpoint>
            <Time>2022-11-06T11:03:03.000Z</Time>
            <Position>
              <LatitudeDegrees>41.36383158154785633087158203125</LatitudeDegrees>
              <LongitudeDegrees>-1.657258830964565277099609375</LongitudeDegrees>
            </Position>
            <AltitudeMeters>632</AltitudeMeters>
            <DistanceMeters>11411.935900069</DistanceMeters>
          </Trackpoint>
          <Trackpoint>
            <Time>2022-11-06T11:03:04.000Z</Time>
            <Position>
              <LatitudeDegrees>41.36381062678992748260498046875</LatitudeDegrees>
              <LongitudeDegrees>-1.6572103835642337799072265625</LongitudeDegrees>
            </Position>
            <AltitudeMeters>631.79998779296875</AltitudeMeters>
            <DistanceMeters>11416.606731333</DistanceMeters>
          </Trackpoint>
          <Trackpoint>
            <Time>2022-11-06T11:03:05.000Z</Time>
            <Position>
              <LatitudeDegrees>41.3637820445001125335693359375</LatitudeDegrees>
              <LongitudeDegrees>-1.65714156813919544219970703125</LongitudeDegrees>
            </Position>
            <AltitudeMeters>631.4000244140625</AltitudeMeters>
            <DistanceMeters>11423.176644985</DistanceMeters>
          </Trackpoint>
          <Trackpoint>
            <Time>2022-11-06T11:03:06.000Z</Time>
            <Position>
              <LatitudeDegrees>41.36373653076589107513427734375</LatitudeDegrees>
              <LongitudeDegrees>-1.65704433806240558624267578125</LongitudeDegrees>
            </Position>
            <AltitudeMeters>630.79998779296875</AltitudeMeters>
            <DistanceMeters>11432.749377915</DistanceMeters>
          </Trackpoint>
          <Trackpoint>
            <Time>2022-11-06T11:03:07.000Z</Time>
            <Position>
              <LatitudeDegrees>41.3637029193341732025146484375</LatitudeDegrees>
              <LongitudeDegrees>-1.65696789510548114776611328125</LongitudeDegrees>
            </Position>
            <AltitudeMeters>630.4000244140625</AltitudeMeters>
            <DistanceMeters>11440.150488893</DistanceMeters>
          </Trackpoint>
          <Trackpoint>
            <Time>2022-11-06T11:03:08.000Z</Time>
            <Position>
              <LatitudeDegrees>41.36366444639861583709716796875</LatitudeDegrees>
              <LongitudeDegrees>-1.6568680666387081146240234375</LongitudeDegrees>
            </Position>
            <AltitudeMeters>629.79998779296875</AltitudeMeters>
            <DistanceMeters>11449.524478112</DistanceMeters>
          </Trackpoint>
          <Trackpoint>
            <Time>2022-11-06T11:03:09.000Z</Time>
            <Position>
              <LatitudeDegrees>41.363631002604961395263671875</LatitudeDegrees>
              <LongitudeDegrees>-1.6567696630954742431640625</LongitudeDegrees>
            </Position>
            <AltitudeMeters>627.4000244140625</AltitudeMeters>
            <DistanceMeters>11458.547513589</DistanceMeters>
          </Trackpoint>
          <Trackpoint>
            <Time>2022-11-06T11:03:10.000Z</Time>
            <Position>
              <LatitudeDegrees>41.3635996542870998382568359375</LatitudeDegrees>
              <LongitudeDegrees>-1.65668123401701450347900390625</LongitudeDegrees>
            </Position>
            <AltitudeMeters>626</AltitudeMeters>
            <DistanceMeters>11466.717048154</DistanceMeters>
          </Trackpoint>
          <Trackpoint>
            <Time>2022-11-06T11:03:11.000Z</Time>
            <Position>
              <LatitudeDegrees>41.36357056908309459686279296875</LatitudeDegrees>
              <LongitudeDegrees>-1.65659942664206027984619140625</LongitudeDegrees>
            </Position>
            <AltitudeMeters>625.4000244140625</AltitudeMeters>
            <DistanceMeters>11474.279288173</DistanceMeters>
          </Trackpoint>
          <Trackpoint>
            <Time>2022-11-06T11:03:12.000Z</Time>
            <Position>
              <LatitudeDegrees>41.36353754438459873199462890625</LatitudeDegrees>
              <LongitudeDegrees>-1.65651778690516948699951171875</LongitudeDegrees>
            </Position>
            <AltitudeMeters>625</AltitudeMeters>
            <DistanceMeters>11482.027316839</DistanceMeters>
          </Trackpoint>
          <Trackpoint>
            <Time>2022-11-06T11:03:13.000Z</Time>
            <Position>
              <LatitudeDegrees>41.3635161705315113067626953125</LatitudeDegrees>
              <LongitudeDegrees>-1.6564814932644367218017578125</LongitudeDegrees>
            </Position>
            <AltitudeMeters>625.79998779296875</AltitudeMeters>
            <DistanceMeters>11485.881467297</DistanceMeters>
          </Trackpoint>
          <Trackpoint>
            <Time>2022-11-06T11:03:14.000Z</Time>
            <Position>
              <LatitudeDegrees>41.363495886325836181640625</LatitudeDegrees>
              <LongitudeDegrees>-1.656448133289813995361328125</LongitudeDegrees>
            </Position>
            <AltitudeMeters>626.20001220703125</AltitudeMeters>
            <DistanceMeters>11489.467388218</DistanceMeters>
          </Trackpoint>
          <Trackpoint>
            <Time>2022-11-06T11:03:15.000Z</Time>
            <Position>
              <LatitudeDegrees>41.36348046362400054931640625</LatitudeDegrees>
              <LongitudeDegrees>-1.656421981751918792724609375</LongitudeDegrees>
            </Position>
            <AltitudeMeters>626.5999755859375</AltitudeMeters>
            <DistanceMeters>11492.244380347</DistanceMeters>
          </Trackpoint>
          <Trackpoint>
            <Time>2022-11-06T11:03:16.000Z</Time>
            <Position>
              <LatitudeDegrees>41.363464035093784332275390625</LatitudeDegrees>
              <LongitudeDegrees>-1.65640194900333881378173828125</LongitudeDegrees>
            </Position>
            <AltitudeMeters>628</AltitudeMeters>
            <DistanceMeters>11494.722373886</DistanceMeters>
          </Trackpoint>
          <Trackpoint>
            <Time>2022-11-06T11:03:17.000Z</Time>
            <Position>
              <LatitudeDegrees>41.363447271287441253662109375</LatitudeDegrees>
              <LongitudeDegrees>-1.65638032369315624237060546875</LongitudeDegrees>
            </Position>
            <AltitudeMeters>629</AltitudeMeters>
            <DistanceMeters>11497.319577595</DistanceMeters>
          </Trackpoint>
          <Trackpoint>
            <Time>2022-11-06T11:03:18.000Z</Time>
            <Position>
              <LatitudeDegrees>41.36342572979629039764404296875</LatitudeDegrees>
              <LongitudeDegrees>-1.65635517798364162445068359375</LongitudeDegrees>
            </Position>
            <AltitudeMeters>629.5999755859375</AltitudeMeters>
            <DistanceMeters>11500.505453601</DistanceMeters>
          </Trackpoint>
          <Trackpoint>
            <Time>2022-11-06T11:03:19.000Z</Time>
            <Position>
              <LatitudeDegrees>41.36341265402734279632568359375</LatitudeDegrees>
              <LongitudeDegrees>-1.6563393361866474151611328125</LongitudeDegrees>
            </Position>
            <AltitudeMeters>630.4000244140625</AltitudeMeters>
            <DistanceMeters>11502.471381554</DistanceMeters>
          </Trackpoint>
          <Trackpoint>
            <Time>2022-11-06T11:03:20.000Z</Time>
            <Position>
              <LatitudeDegrees>41.36339991353452205657958984375</LatitudeDegrees>
              <LongitudeDegrees>-1.65632584132254123687744140625</LongitudeDegrees>
            </Position>
            <AltitudeMeters>631</AltitudeMeters>
            <DistanceMeters>11504.284375714</DistanceMeters>
          </Trackpoint>
          <Trackpoint>
            <Time>2022-11-06T11:03:23.000Z</Time>
            <Position>
              <LatitudeDegrees>41.36335565708577632904052734375</LatitudeDegrees>
              <LongitudeDegrees>-1.65627672336995601654052734375</LongitudeDegrees>
            </Position>
            <AltitudeMeters>631.4000244140625</AltitudeMeters>
            <DistanceMeters>11510.695686655</DistanceMeters>
          </Trackpoint>
          <Trackpoint>
            <Time>2022-11-06T11:03:24.000Z</Time>
            <Position>
              <LatitudeDegrees>41.36333855800330638885498046875</LatitudeDegrees>
              <LongitudeDegrees>-1.6562535054981708526611328125</LongitudeDegrees>
            </Position>
            <AltitudeMeters>631.4000244140625</AltitudeMeters>
            <DistanceMeters>11513.413517137</DistanceMeters>
          </Trackpoint>
          <Trackpoint>
            <Time>2022-11-06T11:03:25.000Z</Time>
            <Position>
              <LatitudeDegrees>41.363320536911487579345703125</LatitudeDegrees>
              <LongitudeDegrees>-1.6562253423035144805908203125</LongitudeDegrees>
            </Position>
            <AltitudeMeters>631.4000244140625</AltitudeMeters>
            <DistanceMeters>11516.505903102</DistanceMeters>
          </Trackpoint>
          <Trackpoint>
            <Time>2022-11-06T11:03:27.000Z</Time>
            <Position>
              <LatitudeDegrees>41.36323780752718448638916015625</LatitudeDegrees>
              <LongitudeDegrees>-1.65611344389617443084716796875</LongitudeDegrees>
            </Position>
            <AltitudeMeters>630.4000244140625</AltitudeMeters>
            <DistanceMeters>11529.627162092</DistanceMeters>
          </Trackpoint>
          <Trackpoint>
            <Time>2022-11-06T11:03:28.000Z</Time>
            <Position>
              <LatitudeDegrees>41.3631699979305267333984375</LatitudeDegrees>
              <LongitudeDegrees>-1.656052507460117340087890625</LongitudeDegrees>
            </Position>
            <AltitudeMeters>629</AltitudeMeters>
            <DistanceMeters>11538.729907911</DistanceMeters>
          </Trackpoint>
          <Trackpoint>
            <Time>2022-11-06T11:03:29.000Z</Time>
            <Position>
              <LatitudeDegrees>41.36311526410281658172607421875</LatitudeDegrees>
              <LongitudeDegrees>-1.6560186445713043212890625</LongitudeDegrees>
            </Position>
            <AltitudeMeters>627.79998779296875</AltitudeMeters>
            <DistanceMeters>11545.445950781</DistanceMeters>
          </Trackpoint>
          <Trackpoint>
            <Time>2022-11-06T11:03:30.000Z</Time>
            <Position>
              <LatitudeDegrees>41.36304820887744426727294921875</LatitudeDegrees>
              <LongitudeDegrees>-1.655979417264461517333984375</LongitudeDegrees>
            </Position>
            <AltitudeMeters>627.20001220703125</AltitudeMeters>
            <DistanceMeters>11553.59611902</DistanceMeters>
          </Trackpoint>
          <Trackpoint>
            <Time>2022-11-06T11:03:31.000Z</Time>
            <Position>
              <LatitudeDegrees>41.36297696270048618316650390625</LatitudeDegrees>
              <LongitudeDegrees>-1.65592920966446399688720703125</LongitudeDegrees>
            </Position>
            <AltitudeMeters>627</AltitudeMeters>
            <DistanceMeters>11562.566962975</DistanceMeters>
          </Trackpoint>
          <Trackpoint>
            <Time>2022-11-06T11:03:32.000Z</Time>
            <Position>
              <LatitudeDegrees>41.36293522082269191741943359375</LatitudeDegrees>
              <LongitudeDegrees>-1.655891574919223785400390625</LongitudeDegrees>
            </Position>
            <AltitudeMeters>626.79998779296875</AltitudeMeters>
            <DistanceMeters>11568.177564234</DistanceMeters>
          </Trackpoint>
          <Trackpoint>
            <Time>2022-11-06T11:03:33.000Z</Time>
            <Position>
              <LatitudeDegrees>41.36289029382169246673583984375</LatitudeDegrees>
              <LongitudeDegrees>-1.655845977365970611572265625</LongitudeDegrees>
            </Position>
            <AltitudeMeters>627</AltitudeMeters>
            <DistanceMeters>11574.463708881</DistanceMeters>
          </Trackpoint>
          <Trackpoint>
            <Time>2022-11-06T11:03:34.000Z</Time>
            <Position>
              <LatitudeDegrees>41.36284151114523410797119140625</LatitudeDegrees>
              <LongitudeDegrees>-1.65580046363174915313720703125</LongitudeDegrees>
            </Position>
            <AltitudeMeters>627.20001220703125</AltitudeMeters>
            <DistanceMeters>11581.092460798</DistanceMeters>
          </Trackpoint>
          <Trackpoint>
            <Time>2022-11-06T11:03:35.000Z</Time>
            <Position>
              <LatitudeDegrees>41.36281502433121204376220703125</LatitudeDegrees>
              <LongitudeDegrees>-1.65577330626547336578369140625</LongitudeDegrees>
            </Position>
            <AltitudeMeters>627.4000244140625</AltitudeMeters>
            <DistanceMeters>11584.811879719</DistanceMeters>
          </Trackpoint>
          <Trackpoint>
            <Time>2022-11-06T11:03:36.000Z</Time>
            <Position>
              <LatitudeDegrees>41.3627862744033336639404296875</LatitudeDegrees>
              <LongitudeDegrees>-1.655738353729248046875</LongitudeDegrees>
            </Position>
            <AltitudeMeters>627.79998779296875</AltitudeMeters>
            <DistanceMeters>11589.143680597</DistanceMeters>
          </Trackpoint>
          <Trackpoint>
            <Time>2022-11-06T11:03:37.000Z</Time>
            <Position>
              <LatitudeDegrees>41.3627587817609310150146484375</LatitudeDegrees>
              <LongitudeDegrees>-1.6557029820978641510009765625</LongitudeDegrees>
            </Position>
            <AltitudeMeters>628.4000244140625</AltitudeMeters>
            <DistanceMeters>11593.396590556</DistanceMeters>
          </Trackpoint>
          <Trackpoint>
            <Time>2022-11-06T11:03:38.000Z</Time>
            <Position>
              <LatitudeDegrees>41.3627336360514163970947265625</LatitudeDegrees>
              <LongitudeDegrees>-1.6556632518768310546875</LongitudeDegrees>
            </Position>
            <AltitudeMeters>628.79998779296875</AltitudeMeters>
            <DistanceMeters>11597.736721829</DistanceMeters>
          </Trackpoint>
          <Trackpoint>
            <Time>2022-11-06T11:03:39.000Z</Time>
            <Position>
              <LatitudeDegrees>41.362712346017360687255859375</LatitudeDegrees>
              <LongitudeDegrees>-1.65562796406447887420654296875</LongitudeDegrees>
            </Position>
            <AltitudeMeters>629.4000244140625</AltitudeMeters>
            <DistanceMeters>11601.517543302</DistanceMeters>
          </Trackpoint>
          <Trackpoint>
            <Time>2022-11-06T11:03:40.000Z</Time>
            <Position>
              <LatitudeDegrees>41.36269365437328815460205078125</LatitudeDegrees>
              <LongitudeDegrees>-1.65558588691055774688720703125</LongitudeDegrees>
            </Position>
            <AltitudeMeters>629.79998779296875</AltitudeMeters>
            <DistanceMeters>11605.600375788</DistanceMeters>
          </Trackpoint>
          <Trackpoint>
            <Time>2022-11-06T11:03:41.000Z</Time>
            <Position>
              <LatitudeDegrees>41.36267839930951595306396484375</LatitudeDegrees>
              <LongitudeDegrees>-1.65554456412792205810546875</LongitudeDegrees>
            </Position>
            <AltitudeMeters>629.79998779296875</AltitudeMeters>
            <DistanceMeters>11609.447490979</DistanceMeters>
          </Trackpoint>
          <Trackpoint>
            <Time>2022-11-06T11:03:42.000Z</Time>
            <Position>
              <LatitudeDegrees>41.362670101225376129150390625</LatitudeDegrees>
              <LongitudeDegrees>-1.65551899932324886322021484375</LongitudeDegrees>
            </Position>
            <AltitudeMeters>630.20001220703125</AltitudeMeters>
            <DistanceMeters>11611.775160601</DistanceMeters>
          </Trackpoint>
          <Trackpoint>
            <Time>2022-11-06T11:03:45.000Z</Time>
            <Position>
              <LatitudeDegrees>41.36262324638664722442626953125</LatitudeDegrees>
              <LongitudeDegrees>-1.65537902154028415679931640625</LongitudeDegrees>
            </Position>
            <AltitudeMeters>630</AltitudeMeters>
            <DistanceMeters>11624.578754149</DistanceMeters>
          </Trackpoint>
          <Trackpoint>
            <Time>2022-11-06T11:03:49.000Z</Time>
            <Position>
              <LatitudeDegrees>41.36254445649683475494384765625</LatitudeDegrees>
              <LongitudeDegrees>-1.65516025386750698089599609375</LongitudeDegrees>
            </Position>
            <AltitudeMeters>629.5999755859375</AltitudeMeters>
            <DistanceMeters>11644.849090564</DistanceMeters>
          </Trackpoint>
          <Trackpoint>
            <Time>2022-11-06T11:03:51.000Z</Time>
            <Position>
              <LatitudeDegrees>41.362483017146587371826171875</LatitudeDegrees>
              <LongitudeDegrees>-1.65505933575332164764404296875</LongitudeDegrees>
            </Position>
            <AltitudeMeters>629.4000244140625</AltitudeMeters>
            <DistanceMeters>11655.704618998</DistanceMeters>
          </Trackpoint>
          <Trackpoint>
            <Time>2022-11-06T11:03:53.000Z</Time>
            <Position>
              <LatitudeDegrees>41.36237748898565769195556640625</LatitudeDegrees>
              <LongitudeDegrees>-1.6549566574394702911376953125</LongitudeDegrees>
            </Position>
            <AltitudeMeters>628.4000244140625</AltitudeMeters>
            <DistanceMeters>11670.248984601</DistanceMeters>
          </Trackpoint>
          <Trackpoint>
            <Time>2022-11-06T11:03:54.000Z</Time>
            <Position>
              <LatitudeDegrees>41.3622857071459293365478515625</LatitudeDegrees>
              <LongitudeDegrees>-1.654914915561676025390625</LongitudeDegrees>
            </Position>
            <AltitudeMeters>627.79998779296875</AltitudeMeters>
            <DistanceMeters>11681.043617824</DistanceMeters>
          </Trackpoint>
          <Trackpoint>
            <Time>2022-11-06T11:03:55.000Z</Time>
            <Position>
              <LatitudeDegrees>41.3622146286070346832275390625</LatitudeDegrees>
              <LongitudeDegrees>-1.65490485727787017822265625</LongitudeDegrees>
            </Position>
            <AltitudeMeters>627.4000244140625</AltitudeMeters>
            <DistanceMeters>11688.999232558</DistanceMeters>
          </Trackpoint>
          <Trackpoint>
            <Time>2022-11-06T11:03:56.000Z</Time>
            <Position>
              <LatitudeDegrees>41.3621237687766551971435546875</LatitudeDegrees>
              <LongitudeDegrees>-1.65491114370524883270263671875</LongitudeDegrees>
            </Position>
            <AltitudeMeters>626.5999755859375</AltitudeMeters>
            <DistanceMeters>11699.125710134</DistanceMeters>
          </Trackpoint>
          <Trackpoint>
            <Time>2022-11-06T11:03:57.000Z</Time>
            <Position>
              <LatitudeDegrees>41.36203768663108348846435546875</LatitudeDegrees>
              <LongitudeDegrees>-1.6549422405660152435302734375</LongitudeDegrees>
            </Position>
            <AltitudeMeters>626.4000244140625</AltitudeMeters>
            <DistanceMeters>11709.053159671</DistanceMeters>
          </Trackpoint>
          <Trackpoint>
            <Time>2022-11-06T11:03:58.000Z</Time>
            <Position>
              <LatitudeDegrees>41.3619549572467803955078125</LatitudeDegrees>
              <LongitudeDegrees>-1.65498741902410984039306640625</LongitudeDegrees>
            </Position>
            <AltitudeMeters>625.79998779296875</AltitudeMeters>
            <DistanceMeters>11719.004230884</DistanceMeters>
          </Trackpoint>
          <Trackpoint>
            <Time>2022-11-06T11:03:59.000Z</Time>
            <Position>
              <LatitudeDegrees>41.36188077740371227264404296875</LatitudeDegrees>
              <LongitudeDegrees>-1.6550294123589992523193359375</LongitudeDegrees>
            </Position>
            <AltitudeMeters>625.5999755859375</AltitudeMeters>
            <DistanceMeters>11727.97507484</DistanceMeters>
          </Trackpoint>
          <Trackpoint>
            <Time>2022-11-06T11:04:00.000Z</Time>
            <Position>
              <LatitudeDegrees>41.36181338690221309661865234375</LatitudeDegrees>
              <LongitudeDegrees>-1.6550441645085811614990234375</LongitudeDegrees>
            </Position>
            <AltitudeMeters>625.20001220703125</AltitudeMeters>
            <DistanceMeters>11735.576024062</DistanceMeters>
          </Trackpoint>
          <Trackpoint>
            <Time>2022-11-06T11:04:01.000Z</Time>
            <Position>
              <LatitudeDegrees>41.36174147017300128936767578125</LatitudeDegrees>
              <LongitudeDegrees>-1.6550314240157604217529296875</LongitudeDegrees>
            </Position>
            <AltitudeMeters>624.79998779296875</AltitudeMeters>
            <DistanceMeters>11743.651058552</DistanceMeters>
          </Trackpoint>
          <Trackpoint>
            <Time>2022-11-06T11:04:02.000Z</Time>
            <Position>
              <LatitudeDegrees>41.3616989739239215850830078125</LatitudeDegrees>
              <LongitudeDegrees>-1.65500971488654613494873046875</LongitudeDegrees>
            </Position>
            <AltitudeMeters>624.5999755859375</AltitudeMeters>
            <DistanceMeters>11748.716971821</DistanceMeters>
          </Trackpoint>
          <Trackpoint>
            <Time>2022-11-06T11:04:03.000Z</Time>
            <Position>
              <LatitudeDegrees>41.361650526523590087890625</LatitudeDegrees>
              <LongitudeDegrees>-1.65497484616935253143310546875</LongitudeDegrees>
            </Position>
            <AltitudeMeters>624.4000244140625</AltitudeMeters>
            <DistanceMeters>11754.846010735</DistanceMeters>
          </Trackpoint>
          <Trackpoint>
            <Time>2022-11-06T11:04:04.000Z</Time>
            <Position>
              <LatitudeDegrees>41.36160082183778285980224609375</LatitudeDegrees>
              <LongitudeDegrees>-1.6549388878047466278076171875</LongitudeDegrees>
            </Position>
            <AltitudeMeters>624.4000244140625</AltitudeMeters>
            <DistanceMeters>11761.141485738</DistanceMeters>
          </Trackpoint>
          <Trackpoint>
            <Time>2022-11-06T11:04:05.000Z</Time>
            <Position>
              <LatitudeDegrees>41.36155304498970508575439453125</LatitudeDegrees>
              <LongitudeDegrees>-1.6549033485352993011474609375</LongitudeDegrees>
            </Position>
            <AltitudeMeters>624.4000244140625</AltitudeMeters>
            <DistanceMeters>11767.232097697</DistanceMeters>
          </Trackpoint>
          <Trackpoint>
            <Time>2022-11-06T11:04:06.000Z</Time>
            <Position>
              <LatitudeDegrees>41.36149588041007518768310546875</LatitudeDegrees>
              <LongitudeDegrees>-1.65486269630491733551025390625</LongitudeDegrees>
            </Position>
            <AltitudeMeters>624.4000244140625</AltitudeMeters>
            <DistanceMeters>11774.44411824</DistanceMeters>
          </Trackpoint>
          <Trackpoint>
            <Time>2022-11-06T11:04:08.000Z</Time>
            <Position>
              <LatitudeDegrees>41.36140485294163227081298828125</LatitudeDegrees>
              <LongitudeDegrees>-1.654815338551998138427734375</LongitudeDegrees>
            </Position>
            <AltitudeMeters>624.79998779296875</AltitudeMeters>
            <DistanceMeters>11785.320837943</DistanceMeters>
          </Trackpoint>
          <Trackpoint>
            <Time>2022-11-06T11:04:09.000Z</Time>
            <Position>
              <LatitudeDegrees>41.36133997701108455657958984375</LatitudeDegrees>
              <LongitudeDegrees>-1.6547980718314647674560546875</LongitudeDegrees>
            </Position>
            <AltitudeMeters>624.79998779296875</AltitudeMeters>
            <DistanceMeters>11792.684028757</DistanceMeters>
          </Trackpoint>
          <Trackpoint>
            <Time>2022-11-06T11:04:10.000Z</Time>
            <Position>
              <LatitudeDegrees>41.36129605583846569061279296875</LatitudeDegrees>
              <LongitudeDegrees>-1.654794216156005859375</LongitudeDegrees>
            </Position>
            <AltitudeMeters>625</AltitudeMeters>
            <DistanceMeters>11797.583206564</DistanceMeters>
          </Trackpoint>
          <Trackpoint>
            <Time>2022-11-06T11:04:12.000Z</Time>
            <Position>
              <LatitudeDegrees>41.3611789606511592864990234375</LatitudeDegrees>
              <LongitudeDegrees>-1.65479547344148159027099609375</LongitudeDegrees>
            </Position>
            <AltitudeMeters>625.79998779296875</AltitudeMeters>
            <DistanceMeters>11810.616770853</DistanceMeters>
          </Trackpoint>
          <Trackpoint>
            <Time>2022-11-06T11:04:13.000Z</Time>
            <Position>
              <LatitudeDegrees>41.361140571534633636474609375</LatitudeDegrees>
              <LongitudeDegrees>-1.65480335243046283721923828125</LongitudeDegrees>
            </Position>
            <AltitudeMeters>626</AltitudeMeters>
            <DistanceMeters>11814.940225286</DistanceMeters>
          </Trackpoint>
          <Trackpoint>
            <Time>2022-11-06T11:04:14.000Z</Time>
            <Position>
              <LatitudeDegrees>41.3610924594104290008544921875</LatitudeDegrees>
              <LongitudeDegrees>-1.6548171825706958770751953125</LongitudeDegrees>
            </Position>
            <AltitudeMeters>626.20001220703125</AltitudeMeters>
            <DistanceMeters>11820.418908897</DistanceMeters>
          </Trackpoint>
          <Trackpoint>
            <Time>2022-11-06T11:04:15.000Z</Time>
            <Position>
              <LatitudeDegrees>41.36103303171694278717041015625</LatitudeDegrees>
              <LongitudeDegrees>-1.65482816286385059356689453125</LongitudeDegrees>
            </Position>
            <AltitudeMeters>626.4000244140625</AltitudeMeters>
            <DistanceMeters>11827.096522054</DistanceMeters>
          </Trackpoint>
          <Trackpoint>
            <Time>2022-11-06T11:04:17.000Z</Time>
            <Position>
              <LatitudeDegrees>41.36093663983047008514404296875</LatitudeDegrees>
              <LongitudeDegrees>-1.65482950396835803985595703125</LongitudeDegrees>
            </Position>
            <AltitudeMeters>626.20001220703125</AltitudeMeters>
            <DistanceMeters>11837.825707228</DistanceMeters>
          </Trackpoint>
          <Trackpoint>
            <Time>2022-11-06T11:04:19.000Z</Time>
            <Position>
              <LatitudeDegrees>41.360852904617786407470703125</LatitudeDegrees>
              <LongitudeDegrees>-1.654802598059177398681640625</LongitudeDegrees>
            </Position>
            <AltitudeMeters>626</AltitudeMeters>
            <DistanceMeters>11847.412579401</DistanceMeters>
          </Trackpoint>
          <Trackpoint>
            <Time>2022-11-06T11:04:20.000Z</Time>
            <Position>
              <LatitudeDegrees>41.36081091128289699554443359375</LatitudeDegrees>
              <LongitudeDegrees>-1.654774434864521026611328125</LongitudeDegrees>
            </Position>
            <AltitudeMeters>626</AltitudeMeters>
            <DistanceMeters>11852.645955162</DistanceMeters>
          </Trackpoint>
          <Trackpoint>
            <Time>2022-11-06T11:04:21.000Z</Time>
            <Position>
              <LatitudeDegrees>41.36076866649091243743896484375</LatitudeDegrees>
              <LongitudeDegrees>-1.65474182926118373870849609375</LongitudeDegrees>
            </Position>
            <AltitudeMeters>626</AltitudeMeters>
            <DistanceMeters>11858.079954607</DistanceMeters>
          </Trackpoint>
          <Trackpoint>
            <Time>2022-11-06T11:04:22.000Z</Time>
            <Position>
              <LatitudeDegrees>41.3607206381857395172119140625</LatitudeDegrees>
              <LongitudeDegrees>-1.65469069965183734893798828125</LongitudeDegrees>
            </Position>
            <AltitudeMeters>626</AltitudeMeters>
            <DistanceMeters>11864.921878041</DistanceMeters>
          </Trackpoint>
          <Trackpoint>
            <Time>2022-11-06T11:04:24.000Z</Time>
            <Position>
              <LatitudeDegrees>41.3606542535126209259033203125</LatitudeDegrees>
              <LongitudeDegrees>-1.65461576543748378753662109375</LongitudeDegrees>
            </Position>
            <AltitudeMeters>625.5999755859375</AltitudeMeters>
            <DistanceMeters>11874.605748335</DistanceMeters>
          </Trackpoint>
          <Trackpoint>
            <Time>2022-11-06T11:04:29.000Z</Time>
            <Position>
              <LatitudeDegrees>41.36039969511330127716064453125</LatitudeDegrees>
              <LongitudeDegrees>-1.65433488786220550537109375</LongitudeDegrees>
            </Position>
            <AltitudeMeters>625.20001220703125</AltitudeMeters>
            <DistanceMeters>11911.393362101</DistanceMeters>
          </Trackpoint>
          <Trackpoint>
            <Time>2022-11-06T11:04:33.000Z</Time>
            <Position>
              <LatitudeDegrees>41.3601905666291713714599609375</LatitudeDegrees>
              <LongitudeDegrees>-1.65413129143416881561279296875</LongitudeDegrees>
            </Position>
            <AltitudeMeters>624.20001220703125</AltitudeMeters>
            <DistanceMeters>11940.221717161</DistanceMeters>
          </Trackpoint>
          <Trackpoint>
            <Time>2022-11-06T11:04:34.000Z</Time>
            <Position>
              <LatitudeDegrees>41.36014069430530071258544921875</LatitudeDegrees>
              <LongitudeDegrees>-1.65404898114502429962158203125</LongitudeDegrees>
            </Position>
            <AltitudeMeters>624</AltitudeMeters>
            <DistanceMeters>11949.058690686</DistanceMeters>
          </Trackpoint>
          <Trackpoint>
            <Time>2022-11-06T11:04:35.000Z</Time>
            <Position>
              <LatitudeDegrees>41.360117308795452117919921875</LatitudeDegrees>
              <LongitudeDegrees>-1.65398678742349147796630859375</LongitudeDegrees>
            </Position>
            <AltitudeMeters>624</AltitudeMeters>
            <DistanceMeters>11954.868546601</DistanceMeters>
          </Trackpoint>
          <Trackpoint>
            <Time>2022-11-06T11:04:36.000Z</Time>
            <Position>
              <LatitudeDegrees>41.3600940071046352386474609375</LatitudeDegrees>
              <LongitudeDegrees>-1.6539025492966175079345703125</LongitudeDegrees>
            </Position>
            <AltitudeMeters>624</AltitudeMeters>
            <DistanceMeters>11962.367834306</DistanceMeters>
          </Trackpoint>
          <Trackpoint>
            <Time>2022-11-06T11:04:37.000Z</Time>
            <Position>
              <LatitudeDegrees>41.36006559245288372039794921875</LatitudeDegrees>
              <LongitudeDegrees>-1.65380339138209819793701171875</LongitudeDegrees>
            </Position>
            <AltitudeMeters>624</AltitudeMeters>
            <DistanceMeters>11971.234901217</DistanceMeters>
          </Trackpoint>
          <Trackpoint>
            <Time>2022-11-06T11:04:38.000Z</Time>
            <Position>
              <LatitudeDegrees>41.36004187166690826416015625</LatitudeDegrees>
              <LongitudeDegrees>-1.65373750962316989898681640625</LongitudeDegrees>
            </Position>
            <AltitudeMeters>623.79998779296875</AltitudeMeters>
            <DistanceMeters>11977.338842191</DistanceMeters>
          </Trackpoint>
          <Trackpoint>
            <Time>2022-11-06T11:04:40.000Z</Time>
            <Position>
              <LatitudeDegrees>41.3599726371467113494873046875</LatitudeDegrees>
              <LongitudeDegrees>-1.65357221849262714385986328125</LongitudeDegrees>
            </Position>
            <AltitudeMeters>622.79998779296875</AltitudeMeters>
            <DistanceMeters>11993.15215547</DistanceMeters>
          </Trackpoint>
          <Trackpoint>
            <Time>2022-11-06T11:04:42.000Z</Time>
            <Position>
              <LatitudeDegrees>41.35987046174705028533935546875</LatitudeDegrees>
              <LongitudeDegrees>-1.6534083522856235504150390625</LongitudeDegrees>
            </Position>
            <AltitudeMeters>621.79998779296875</AltitudeMeters>
            <DistanceMeters>12010.94931708</DistanceMeters>
          </Trackpoint>
          <Trackpoint>
            <Time>2022-11-06T11:04:43.000Z</Time>
            <Position>
              <LatitudeDegrees>41.3598133809864521026611328125</LatitudeDegrees>
              <LongitudeDegrees>-1.653324700891971588134765625</LongitudeDegrees>
            </Position>
            <AltitudeMeters>621.5999755859375</AltitudeMeters>
            <DistanceMeters>12020.393844337</DistanceMeters>
          </Trackpoint>
          <Trackpoint>
            <Time>2022-11-06T11:04:44.000Z</Time>
            <Position>
              <LatitudeDegrees>41.35975085198879241943359375</LatitudeDegrees>
              <LongitudeDegrees>-1.65324549190700054168701171875</LongitudeDegrees>
            </Position>
            <AltitudeMeters>621.4000244140625</AltitudeMeters>
            <DistanceMeters>12029.997185981</DistanceMeters>
          </Trackpoint>
          <Trackpoint>
            <Time>2022-11-06T11:04:47.000Z</Time>
            <Position>
              <LatitudeDegrees>41.3595646061003208160400390625</LatitudeDegrees>
              <LongitudeDegrees>-1.6530372016131877899169921875</LongitudeDegrees>
            </Position>
            <AltitudeMeters>621.4000244140625</AltitudeMeters>
            <DistanceMeters>12057.061955349</DistanceMeters>
          </Trackpoint>
          <Trackpoint>
            <Time>2022-11-06T11:04:48.000Z</Time>
            <Position>
              <LatitudeDegrees>41.35951523669064044952392578125</LatitudeDegrees>
              <LongitudeDegrees>-1.652983725070953369140625</LongitudeDegrees>
            </Position>
            <AltitudeMeters>621.5999755859375</AltitudeMeters>
            <DistanceMeters>12064.143199201</DistanceMeters>
          </Trackpoint>
          <Trackpoint>
            <Time>2022-11-06T11:04:49.000Z</Time>
            <Position>
              <LatitudeDegrees>41.35947282426059246063232421875</LatitudeDegrees>
              <LongitudeDegrees>-1.6529287397861480712890625</LongitudeDegrees>
            </Position>
            <AltitudeMeters>621.79998779296875</AltitudeMeters>
            <DistanceMeters>12070.72958571</DistanceMeters>
          </Trackpoint>
          <Trackpoint>
            <Time>2022-11-06T11:04:50.000Z</Time>
            <Position>
              <LatitudeDegrees>41.3594355247914791107177734375</LatitudeDegrees>
              <LongitudeDegrees>-1.65287333540618419647216796875</LongitudeDegrees>
            </Position>
            <AltitudeMeters>621.79998779296875</AltitudeMeters>
            <DistanceMeters>12076.946395758</DistanceMeters>
          </Trackpoint>
          <Trackpoint>
            <Time>2022-11-06T11:04:51.000Z</Time>
            <Position>
              <LatitudeDegrees>41.35940308682620525360107421875</LatitudeDegrees>
              <LongitudeDegrees>-1.65281281806528568267822265625</LongitudeDegrees>
            </Position>
            <AltitudeMeters>622</AltitudeMeters>
            <DistanceMeters>12083.158846701</DistanceMeters>
          </Trackpoint>
          <Trackpoint>
            <Time>2022-11-06T11:04:52.000Z</Time>
            <Position>
              <LatitudeDegrees>41.35937978513538837432861328125</LatitudeDegrees>
              <LongitudeDegrees>-1.65276487357914447784423828125</LongitudeDegrees>
            </Position>
            <AltitudeMeters>622</AltitudeMeters>
            <DistanceMeters>12087.929149903</DistanceMeters>
          </Trackpoint>
          <Trackpoint>
            <Time>2022-11-06T11:04:53.000Z</Time>
            <Position>
              <LatitudeDegrees>41.3593493588268756866455078125</LatitudeDegrees>
              <LongitudeDegrees>-1.6526888497173786163330078125</LongitudeDegrees>
            </Position>
            <AltitudeMeters>622</AltitudeMeters>
            <DistanceMeters>12095.126757045</DistanceMeters>
          </Trackpoint>
          <Trackpoint>
            <Time>2022-11-06T11:04:54.000Z</Time>
            <Position>
              <LatitudeDegrees>41.35933385230600833892822265625</LatitudeDegrees>
              <LongitudeDegrees>-1.65263696573674678802490234375</LongitudeDegrees>
            </Position>
            <AltitudeMeters>622</AltitudeMeters>
            <DistanceMeters>12099.793720124</DistanceMeters>
          </Trackpoint>
          <Trackpoint>
            <Time>2022-11-06T11:04:56.000Z</Time>
            <Position>
              <LatitudeDegrees>41.3592890091240406036376953125</LatitudeDegrees>
              <LongitudeDegrees>-1.65248407982289791107177734375</LongitudeDegrees>
            </Position>
            <AltitudeMeters>622.20001220703125</AltitudeMeters>
            <DistanceMeters>12113.506242933</DistanceMeters>
          </Trackpoint>
          <Trackpoint>
            <Time>2022-11-06T11:04:57.000Z</Time>
            <Position>
              <LatitudeDegrees>41.35927501134574413299560546875</LatitudeDegrees>
              <LongitudeDegrees>-1.652426160871982574462890625</LongitudeDegrees>
            </Position>
            <AltitudeMeters>622.20001220703125</AltitudeMeters>
            <DistanceMeters>12118.589950122</DistanceMeters>
          </Trackpoint>
          <Trackpoint>
            <Time>2022-11-06T11:05:02.000Z</Time>
            <Position>
              <LatitudeDegrees>41.35915414430201053619384765625</LatitudeDegrees>
              <LongitudeDegrees>-1.65204788558185100555419921875</LongitudeDegrees>
            </Position>
            <AltitudeMeters>621.4000244140625</AltitudeMeters>
            <DistanceMeters>12152.935765095</DistanceMeters>
          </Trackpoint>
          <Trackpoint>
            <Time>2022-11-06T11:05:03.000Z</Time>
            <Position>
              <LatitudeDegrees>41.35911508463323116302490234375</LatitudeDegrees>
              <LongitudeDegrees>-1.65197831578552722930908203125</LongitudeDegrees>
            </Position>
            <AltitudeMeters>621</AltitudeMeters>
            <DistanceMeters>12160.193965008</DistanceMeters>
          </Trackpoint>
          <Trackpoint>
            <Time>2022-11-06T11:05:04.000Z</Time>
            <Position>
              <LatitudeDegrees>41.3590662181377410888671875</LatitudeDegrees>
              <LongitudeDegrees>-1.65190807543694972991943359375</LongitudeDegrees>
            </Position>
            <AltitudeMeters>620.79998779296875</AltitudeMeters>
            <DistanceMeters>12168.1954175</DistanceMeters>
          </Trackpoint>
          <Trackpoint>
            <Time>2022-11-06T11:05:05.000Z</Time>
            <Position>
              <LatitudeDegrees>41.3590050302445888519287109375</LatitudeDegrees>
              <LongitudeDegrees>-1.651828028261661529541015625</LongitudeDegrees>
            </Position>
            <AltitudeMeters>620.5999755859375</AltitudeMeters>
            <DistanceMeters>12177.739809108</DistanceMeters>
          </Trackpoint>
          <Trackpoint>
            <Time>2022-11-06T11:05:08.000Z</Time>
            <Position>
              <LatitudeDegrees>41.3588796369731426239013671875</LatitudeDegrees>
              <LongitudeDegrees>-1.6516471467912197113037109375</LongitudeDegrees>
            </Position>
            <AltitudeMeters>620.4000244140625</AltitudeMeters>
            <DistanceMeters>12198.309965209</DistanceMeters>
          </Trackpoint>
          <Trackpoint>
            <Time>2022-11-06T11:05:09.000Z</Time>
            <Position>
              <LatitudeDegrees>41.3588330335915088653564453125</LatitudeDegrees>
              <LongitudeDegrees>-1.6515633277595043182373046875</LongitudeDegrees>
            </Position>
            <AltitudeMeters>620.4000244140625</AltitudeMeters>
            <DistanceMeters>12207.023971912</DistanceMeters>
          </Trackpoint>
          <Trackpoint>
            <Time>2022-11-06T11:05:11.000Z</Time>
            <Position>
              <LatitudeDegrees>41.3587609492242336273193359375</LatitudeDegrees>
              <LongitudeDegrees>-1.6514374315738677978515625</LongitudeDegrees>
            </Position>
            <AltitudeMeters>620.4000244140625</AltitudeMeters>
            <DistanceMeters>12220.252154755</DistanceMeters>
          </Trackpoint>
          <Trackpoint>
            <Time>2022-11-06T11:05:13.000Z</Time>
            <Position>
              <LatitudeDegrees>41.35866346769034862518310546875</LatitudeDegrees>
              <LongitudeDegrees>-1.651309691369533538818359375</LongitudeDegrees>
            </Position>
            <AltitudeMeters>619.79998779296875</AltitudeMeters>
            <DistanceMeters>12235.470676386</DistanceMeters>
          </Trackpoint>
          <Trackpoint>
            <Time>2022-11-06T11:05:14.000Z</Time>
            <Position>
              <LatitudeDegrees>41.35862306691706180572509765625</LatitudeDegrees>
              <LongitudeDegrees>-1.65123282931745052337646484375</LongitudeDegrees>
            </Position>
            <AltitudeMeters>619.4000244140625</AltitudeMeters>
            <DistanceMeters>12243.310236341</DistanceMeters>
          </Trackpoint>
          <Trackpoint>
            <Time>2022-11-06T11:05:15.000Z</Time>
            <Position>
              <LatitudeDegrees>41.35859590955078601837158203125</LatitudeDegrees>
              <LongitudeDegrees>-1.65113124065101146697998046875</LongitudeDegrees>
            </Position>
            <AltitudeMeters>619</AltitudeMeters>
            <DistanceMeters>12252.319249998</DistanceMeters>
          </Trackpoint>
          <Trackpoint>
            <Time>2022-11-06T11:05:16.000Z</Time>
            <Position>
              <LatitudeDegrees>41.3585919700562953948974609375</LatitudeDegrees>
              <LongitudeDegrees>-1.65105764754116535186767578125</LongitudeDegrees>
            </Position>
            <AltitudeMeters>618.4000244140625</AltitudeMeters>
            <DistanceMeters>12258.482814843</DistanceMeters>
          </Trackpoint>
          <Trackpoint>
            <Time>2022-11-06T11:05:17.000Z</Time>
            <Position>
              <LatitudeDegrees>41.35859641246497631072998046875</LatitudeDegrees>
              <LongitudeDegrees>-1.65096309967339038848876953125</LongitudeDegrees>
            </Position>
            <AltitudeMeters>618</AltitudeMeters>
            <DistanceMeters>12266.396891556</DistanceMeters>
          </Trackpoint>
          <Trackpoint>
            <Time>2022-11-06T11:05:18.000Z</Time>
            <Position>
              <LatitudeDegrees>41.35860445909202098846435546875</LatitudeDegrees>
              <LongitudeDegrees>-1.65087291039526462554931640625</LongitudeDegrees>
            </Position>
            <AltitudeMeters>617.5999755859375</AltitudeMeters>
            <DistanceMeters>12273.98476131</DistanceMeters>
          </Trackpoint>
          <Trackpoint>
            <Time>2022-11-06T11:05:19.000Z</Time>
            <Position>
              <LatitudeDegrees>41.35860781185328960418701171875</LatitudeDegrees>
              <LongitudeDegrees>-1.65078498423099517822265625</LongitudeDegrees>
            </Position>
            <AltitudeMeters>617</AltitudeMeters>
            <DistanceMeters>12281.340590159</DistanceMeters>
          </Trackpoint>
          <Trackpoint>
            <Time>2022-11-06T11:05:20.000Z</Time>
            <Position>
              <LatitudeDegrees>41.35860345326364040374755859375</LatitudeDegrees>
              <LongitudeDegrees>-1.65070208720862865447998046875</LongitudeDegrees>
            </Position>
            <AltitudeMeters>616.5999755859375</AltitudeMeters>
            <DistanceMeters>12288.283395648</DistanceMeters>
          </Trackpoint>
          <Trackpoint>
            <Time>2022-11-06T11:05:22.000Z</Time>
            <Position>
              <LatitudeDegrees>41.358570344746112823486328125</LatitudeDegrees>
              <LongitudeDegrees>-1.65053428150713443756103515625</LongitudeDegrees>
            </Position>
            <AltitudeMeters>616.20001220703125</AltitudeMeters>
            <DistanceMeters>12302.778629992</DistanceMeters>
          </Trackpoint>
          <Trackpoint>
            <Time>2022-11-06T11:05:23.000Z</Time>
            <Position>
              <LatitudeDegrees>41.3585351407527923583984375</LatitudeDegrees>
              <LongitudeDegrees>-1.6504611074924468994140625</LongitudeDegrees>
            </Position>
            <AltitudeMeters>616</AltitudeMeters>
            <DistanceMeters>12310.040561308</DistanceMeters>
          </Trackpoint>
          <Trackpoint>
            <Time>2022-11-06T11:05:24.000Z</Time>
            <Position>
              <LatitudeDegrees>41.3584964163601398468017578125</LatitudeDegrees>
              <LongitudeDegrees>-1.6504099778831005096435546875</LongitudeDegrees>
            </Position>
            <AltitudeMeters>616</AltitudeMeters>
            <DistanceMeters>12316.108893182</DistanceMeters>
          </Trackpoint>
          <Trackpoint>
            <Time>2022-11-06T11:05:25.000Z</Time>
            <Position>
              <LatitudeDegrees>41.35843128897249698638916015625</LatitudeDegrees>
              <LongitudeDegrees>-1.6503281705081462860107421875</LongitudeDegrees>
            </Position>
            <AltitudeMeters>616</AltitudeMeters>
            <DistanceMeters>12326.070847816</DistanceMeters>
          </Trackpoint>
          <Trackpoint>
            <Time>2022-11-06T11:05:26.000Z</Time>
            <Position>
              <LatitudeDegrees>41.35838233865797519683837890625</LatitudeDegrees>
              <LongitudeDegrees>-1.650256924331188201904296875</LongitudeDegrees>
            </Position>
            <AltitudeMeters>614.5999755859375</AltitudeMeters>
            <DistanceMeters>12334.13972947</DistanceMeters>
          </Trackpoint>
          <Trackpoint>
            <Time>2022-11-06T11:05:27.000Z</Time>
            <Position>
              <LatitudeDegrees>41.35834797285497188568115234375</LatitudeDegrees>
              <LongitudeDegrees>-1.65017151273787021636962890625</LongitudeDegrees>
            </Position>
            <AltitudeMeters>613</AltitudeMeters>
            <DistanceMeters>12342.235425539</DistanceMeters>
          </Trackpoint>
          <Trackpoint>
            <Time>2022-11-06T11:05:28.000Z</Time>
            <Position>
              <LatitudeDegrees>41.358327604830265045166015625</LatitudeDegrees>
              <LongitudeDegrees>-1.65007956326007843017578125</LongitudeDegrees>
            </Position>
            <AltitudeMeters>612.20001220703125</AltitudeMeters>
            <DistanceMeters>12350.244774018</DistanceMeters>
          </Trackpoint>
          <Trackpoint>
            <Time>2022-11-06T11:05:29.000Z</Time>
            <Position>
              <LatitudeDegrees>41.3583126850426197052001953125</LatitudeDegrees>
              <LongitudeDegrees>-1.64998543448746204376220703125</LongitudeDegrees>
            </Position>
            <AltitudeMeters>611.79998779296875</AltitudeMeters>
            <DistanceMeters>12358.282259127</DistanceMeters>
          </Trackpoint>
          <Trackpoint>
            <Time>2022-11-06T11:05:30.000Z</Time>
            <Position>
              <LatitudeDegrees>41.35829508304595947265625</LatitudeDegrees>
              <LongitudeDegrees>-1.64988904260098934173583984375</LongitudeDegrees>
            </Position>
            <AltitudeMeters>611.4000244140625</AltitudeMeters>
            <DistanceMeters>12366.570855002</DistanceMeters>
          </Trackpoint>
          <Trackpoint>
            <Time>2022-11-06T11:05:31.000Z</Time>
            <Position>
              <LatitudeDegrees>41.35827085934579372406005859375</LatitudeDegrees>
              <LongitudeDegrees>-1.6497706063091754913330078125</LongitudeDegrees>
            </Position>
            <AltitudeMeters>611.4000244140625</AltitudeMeters>
            <DistanceMeters>12376.825818204</DistanceMeters>
          </Trackpoint>
          <Trackpoint>
            <Time>2022-11-06T11:05:32.000Z</Time>
            <Position>
              <LatitudeDegrees>41.35825677774846553802490234375</LatitudeDegrees>
              <LongitudeDegrees>-1.64967128075659275054931640625</LongitudeDegrees>
            </Position>
            <AltitudeMeters>611.20001220703125</AltitudeMeters>
            <DistanceMeters>12385.270908124</DistanceMeters>
          </Trackpoint>
          <Trackpoint>
            <Time>2022-11-06T11:05:34.000Z</Time>
            <Position>
              <LatitudeDegrees>41.35823800228536128997802734375</LatitudeDegrees>
              <LongitudeDegrees>-1.649499870836734771728515625</LongitudeDegrees>
            </Position>
            <AltitudeMeters>610.5999755859375</AltitudeMeters>
            <DistanceMeters>12399.742450298</DistanceMeters>
          </Trackpoint>
          <Trackpoint>
            <Time>2022-11-06T11:05:35.000Z</Time>
            <Position>
              <LatitudeDegrees>41.35822073556482791900634765625</LatitudeDegrees>
              <LongitudeDegrees>-1.64945167489349842071533203125</LongitudeDegrees>
            </Position>
            <AltitudeMeters>610.20001220703125</AltitudeMeters>
            <DistanceMeters>12404.205672075</DistanceMeters>
          </Trackpoint>
          <Trackpoint>
            <Time>2022-11-06T11:05:36.000Z</Time>
            <Position>
              <LatitudeDegrees>41.3581918179988861083984375</LatitudeDegrees>
              <LongitudeDegrees>-1.6494014672935009002685546875</LongitudeDegrees>
            </Position>
            <AltitudeMeters>609.79998779296875</AltitudeMeters>
            <DistanceMeters>12409.493121051</DistanceMeters>
          </Trackpoint>
          <Trackpoint>
            <Time>2022-11-06T11:05:37.000Z</Time>
            <Position>
              <LatitudeDegrees>41.35814689099788665771484375</LatitudeDegrees>
              <LongitudeDegrees>-1.64934195578098297119140625</LongitudeDegrees>
            </Position>
            <AltitudeMeters>609.4000244140625</AltitudeMeters>
            <DistanceMeters>12416.544974068</DistanceMeters>
          </Trackpoint>
          <Trackpoint>
            <Time>2022-11-06T11:05:38.000Z</Time>
            <Position>
              <LatitudeDegrees>41.3581017963588237762451171875</LatitudeDegrees>
              <LongitudeDegrees>-1.64929426275193691253662109375</LongitudeDegrees>
            </Position>
            <AltitudeMeters>609</AltitudeMeters>
            <DistanceMeters>12422.953467469</DistanceMeters>
          </Trackpoint>
          <Trackpoint>
            <Time>2022-11-06T11:05:39.000Z</Time>
            <Position>
              <LatitudeDegrees>41.35806868784129619598388671875</LatitudeDegrees>
              <LongitudeDegrees>-1.6492643393576145172119140625</LongitudeDegrees>
            </Position>
            <AltitudeMeters>608</AltitudeMeters>
            <DistanceMeters>12427.406561659</DistanceMeters>
          </Trackpoint>
          <Trackpoint>
            <Time>2022-11-06T11:05:40.000Z</Time>
            <Position>
              <LatitudeDegrees>41.35803163982927799224853515625</LatitudeDegrees>
              <LongitudeDegrees>-1.64922083728015422821044921875</LongitudeDegrees>
            </Position>
            <AltitudeMeters>607.4000244140625</AltitudeMeters>
            <DistanceMeters>12432.90334579</DistanceMeters>
          </Trackpoint>
          <Trackpoint>
            <Time>2022-11-06T11:05:41.000Z</Time>
            <Position>
              <LatitudeDegrees>41.358001716434955596923828125</LatitudeDegrees>
              <LongitudeDegrees>-1.64916585199534893035888671875</LongitudeDegrees>
            </Position>
            <AltitudeMeters>606.79998779296875</AltitudeMeters>
            <DistanceMeters>12438.577960544</DistanceMeters>
          </Trackpoint>
          <Trackpoint>
            <Time>2022-11-06T11:05:42.000Z</Time>
            <Position>
              <LatitudeDegrees>41.3579799234867095947265625</LatitudeDegrees>
              <LongitudeDegrees>-1.64910055696964263916015625</LongitudeDegrees>
            </Position>
            <AltitudeMeters>605.79998779296875</AltitudeMeters>
            <DistanceMeters>12444.5472722</DistanceMeters>
          </Trackpoint>
          <Trackpoint>
            <Time>2022-11-06T11:05:43.000Z</Time>
            <Position>
              <LatitudeDegrees>41.357967853546142578125</LatitudeDegrees>
              <LongitudeDegrees>-1.64902553893625736236572265625</LongitudeDegrees>
            </Position>
            <AltitudeMeters>604.4000244140625</AltitudeMeters>
            <DistanceMeters>12450.957174525</DistanceMeters>
          </Trackpoint>
          <Trackpoint>
            <Time>2022-11-06T11:05:44.000Z</Time>
            <Position>
              <LatitudeDegrees>41.357967853546142578125</LatitudeDegrees>
              <LongitudeDegrees>-1.64894591085612773895263671875</LongitudeDegrees>
            </Position>
            <AltitudeMeters>603.5999755859375</AltitudeMeters>
            <DistanceMeters>12457.610401917</DistanceMeters>
          </Trackpoint>
          <Trackpoint>
            <Time>2022-11-06T11:05:45.000Z</Time>
            <Position>
              <LatitudeDegrees>41.35797313414514064788818359375</LatitudeDegrees>
              <LongitudeDegrees>-1.64885991252958774566650390625</LongitudeDegrees>
            </Position>
            <AltitudeMeters>602.5999755859375</AltitudeMeters>
            <DistanceMeters>12464.818665221</DistanceMeters>
          </Trackpoint>
          <Trackpoint>
            <Time>2022-11-06T11:05:46.000Z</Time>
            <Position>
              <LatitudeDegrees>41.35797313414514064788818359375</LatitudeDegrees>
              <LongitudeDegrees>-1.64879788644611835479736328125</LongitudeDegrees>
            </Position>
            <AltitudeMeters>600.79998779296875</AltitudeMeters>
            <DistanceMeters>12470.000018062</DistanceMeters>
          </Trackpoint>
          <Trackpoint>
            <Time>2022-11-06T11:05:47.000Z</Time>
            <Position>
              <LatitudeDegrees>41.357958130538463592529296875</LatitudeDegrees>
              <LongitudeDegrees>-1.64872479625046253204345703125</LongitudeDegrees>
            </Position>
            <AltitudeMeters>599.20001220703125</AltitudeMeters>
            <DistanceMeters>12476.33053773</DistanceMeters>
          </Trackpoint>
          <Trackpoint>
            <Time>2022-11-06T11:05:48.000Z</Time>
            <Position>
              <LatitudeDegrees>41.3579356670379638671875</LatitudeDegrees>
              <LongitudeDegrees>-1.6486853174865245819091796875</LongitudeDegrees>
            </Position>
            <AltitudeMeters>598.4000244140625</AltitudeMeters>
            <DistanceMeters>12480.470475542</DistanceMeters>
          </Trackpoint>
          <Trackpoint>
            <Time>2022-11-06T11:05:49.000Z</Time>
            <Position>
              <LatitudeDegrees>41.35790943168103694915771484375</LatitudeDegrees>
              <LongitudeDegrees>-1.6486487723886966705322265625</LongitudeDegrees>
            </Position>
            <AltitudeMeters>597.79998779296875</AltitudeMeters>
            <DistanceMeters>12484.694624102</DistanceMeters>
          </Trackpoint>
          <Trackpoint>
            <Time>2022-11-06T11:05:50.000Z</Time>
            <Position>
              <LatitudeDegrees>41.35787322185933589935302734375</LatitudeDegrees>
              <LongitudeDegrees>-1.648610047996044158935546875</LongitudeDegrees>
            </Position>
            <AltitudeMeters>597.4000244140625</AltitudeMeters>
            <DistanceMeters>12489.862015711</DistanceMeters>
          </Trackpoint>
          <Trackpoint>
            <Time>2022-11-06T11:05:51.000Z</Time>
            <Position>
              <LatitudeDegrees>41.35783030651509761810302734375</LatitudeDegrees>
              <LongitudeDegrees>-1.64858833886682987213134765625</LongitudeDegrees>
            </Position>
            <AltitudeMeters>596.4000244140625</AltitudeMeters>
            <DistanceMeters>12494.972297609</DistanceMeters>
          </Trackpoint>
          <Trackpoint>
            <Time>2022-11-06T11:05:52.000Z</Time>
            <Position>
              <LatitudeDegrees>41.3577859662473201751708984375</LatitudeDegrees>
              <LongitudeDegrees>-1.6485890932381153106689453125</LongitudeDegrees>
            </Position>
            <AltitudeMeters>595.79998779296875</AltitudeMeters>
            <DistanceMeters>12499.908201401</DistanceMeters>
          </Trackpoint>
          <Trackpoint>
            <Time>2022-11-06T11:05:53.000Z</Time>
            <Position>
              <LatitudeDegrees>41.3577326573431491851806640625</LatitudeDegrees>
              <LongitudeDegrees>-1.64859504438936710357666015625</LongitudeDegrees>
            </Position>
            <AltitudeMeters>595</AltitudeMeters>
            <DistanceMeters>12505.86236634</DistanceMeters>
          </Trackpoint>
          <Trackpoint>
            <Time>2022-11-06T11:05:55.000Z</Time>
            <Position>
              <LatitudeDegrees>41.357646994292736053466796875</LatitudeDegrees>
              <LongitudeDegrees>-1.6486025042831897735595703125</LongitudeDegrees>
            </Position>
            <AltitudeMeters>594.20001220703125</AltitudeMeters>
            <DistanceMeters>12515.417159527</DistanceMeters>
          </Trackpoint>
          <Trackpoint>
            <Time>2022-11-06T11:05:56.000Z</Time>
            <Position>
              <LatitudeDegrees>41.3576236926019191741943359375</LatitudeDegrees>
              <LongitudeDegrees>-1.64859219454228878021240234375</LongitudeDegrees>
            </Position>
            <AltitudeMeters>593.20001220703125</AltitudeMeters>
            <DistanceMeters>12518.148247798</DistanceMeters>
          </Trackpoint>
          <Trackpoint>
            <Time>2022-11-06T11:05:57.000Z</Time>
            <Position>
              <LatitudeDegrees>41.357605420053005218505859375</LatitudeDegrees>
              <LongitudeDegrees>-1.64856403134763240814208984375</LongitudeDegrees>
            </Position>
            <AltitudeMeters>592.4000244140625</AltitudeMeters>
            <DistanceMeters>12521.258105009</DistanceMeters>
          </Trackpoint>
          <Trackpoint>
            <Time>2022-11-06T11:05:58.000Z</Time>
            <Position>
              <LatitudeDegrees>41.35759326629340648651123046875</LatitudeDegrees>
              <LongitudeDegrees>-1.64852161891758441925048828125</LongitudeDegrees>
            </Position>
            <AltitudeMeters>591.4000244140625</AltitudeMeters>
            <DistanceMeters>12525.050849632</DistanceMeters>
          </Trackpoint>
          <Trackpoint>
            <Time>2022-11-06T11:06:00.000Z</Time>
            <Position>
              <LatitudeDegrees>41.35758320800960063934326171875</LatitudeDegrees>
              <LongitudeDegrees>-1.648456156253814697265625</LongitudeDegrees>
            </Position>
            <AltitudeMeters>589.5999755859375</AltitudeMeters>
            <DistanceMeters>12530.633214167</DistanceMeters>
          </Trackpoint>
          <Trackpoint>
            <Time>2022-11-06T11:06:01.000Z</Time>
            <Position>
              <LatitudeDegrees>41.35758840478956699371337890625</LatitudeDegrees>
              <LongitudeDegrees>-1.64843059144914150238037109375</LongitudeDegrees>
            </Position>
            <AltitudeMeters>588.4000244140625</AltitudeMeters>
            <DistanceMeters>12532.84552098</DistanceMeters>
          </Trackpoint>
          <Trackpoint>
            <Time>2022-11-06T11:06:02.000Z</Time>
            <Position>
              <LatitudeDegrees>41.3575963675975799560546875</LatitudeDegrees>
              <LongitudeDegrees>-1.64839387871325016021728515625</LongitudeDegrees>
            </Position>
            <AltitudeMeters>587.79998779296875</AltitudeMeters>
            <DistanceMeters>12536.039888896</DistanceMeters>
          </Trackpoint>
          <Trackpoint>
            <Time>2022-11-06T11:06:03.000Z</Time>
            <Position>
              <LatitudeDegrees>41.357605755329132080078125</LatitudeDegrees>
              <LongitudeDegrees>-1.6483497060835361480712890625</LongitudeDegrees>
            </Position>
            <AltitudeMeters>586.79998779296875</AltitudeMeters>
            <DistanceMeters>12539.876426997</DistanceMeters>
          </Trackpoint>
          <Trackpoint>
            <Time>2022-11-06T11:06:04.000Z</Time>
            <Position>
              <LatitudeDegrees>41.3576146401464939117431640625</LatitudeDegrees>
              <LongitudeDegrees>-1.64830553345382213592529296875</LongitudeDegrees>
            </Position>
            <AltitudeMeters>585.79998779296875</AltitudeMeters>
            <DistanceMeters>12543.696453637</DistanceMeters>
          </Trackpoint>
          <Trackpoint>
            <Time>2022-11-06T11:06:05.000Z</Time>
            <Position>
              <LatitudeDegrees>41.3576189987361431121826171875</LatitudeDegrees>
              <LongitudeDegrees>-1.648264713585376739501953125</LongitudeDegrees>
            </Position>
            <AltitudeMeters>585</AltitudeMeters>
            <DistanceMeters>12547.141090113</DistanceMeters>
          </Trackpoint>
          <Trackpoint>
            <Time>2022-11-06T11:06:06.000Z</Time>
            <Position>
              <LatitudeDegrees>41.35762377642095088958740234375</LatitudeDegrees>
              <LongitudeDegrees>-1.64822657592594623565673828125</LongitudeDegrees>
            </Position>
            <AltitudeMeters>583.5999755859375</AltitudeMeters>
            <DistanceMeters>12550.371998401</DistanceMeters>
          </Trackpoint>
          <Trackpoint>
            <Time>2022-11-06T11:06:07.000Z</Time>
            <Position>
              <LatitudeDegrees>41.35762922465801239013671875</LatitudeDegrees>
              <LongitudeDegrees>-1.6481864266097545623779296875</LongitudeDegrees>
            </Position>
            <AltitudeMeters>582.4000244140625</AltitudeMeters>
            <DistanceMeters>12553.779736406</DistanceMeters>
          </Trackpoint>
          <Trackpoint>
            <Time>2022-11-06T11:06:08.000Z</Time>
            <Position>
              <LatitudeDegrees>41.35763903148472309112548828125</LatitudeDegrees>
              <LongitudeDegrees>-1.64814040996134281158447265625</LongitudeDegrees>
            </Position>
            <AltitudeMeters>581.20001220703125</AltitudeMeters>
            <DistanceMeters>12557.775380929</DistanceMeters>
          </Trackpoint>
          <Trackpoint>
            <Time>2022-11-06T11:06:09.000Z</Time>
            <Position>
              <LatitudeDegrees>41.35765981860458850860595703125</LatitudeDegrees>
              <LongitudeDegrees>-1.64809213019907474517822265625</LongitudeDegrees>
            </Position>
            <AltitudeMeters>579.5999755859375</AltitudeMeters>
            <DistanceMeters>12562.424897356</DistanceMeters>
          </Trackpoint>
          <Trackpoint>
            <Time>2022-11-06T11:06:10.000Z</Time>
            <Position>
              <LatitudeDegrees>41.35768982581794261932373046875</LatitudeDegrees>
              <LongitudeDegrees>-1.64804401807487010955810546875</LongitudeDegrees>
            </Position>
            <AltitudeMeters>578.5999755859375</AltitudeMeters>
            <DistanceMeters>12567.651366646</DistanceMeters>
          </Trackpoint>
          <Trackpoint>
            <Time>2022-11-06T11:06:11.000Z</Time>
            <Position>
              <LatitudeDegrees>41.35771639645099639892578125</LatitudeDegrees>
              <LongitudeDegrees>-1.64800931699573993682861328125</LongitudeDegrees>
            </Position>
            <AltitudeMeters>577.79998779296875</AltitudeMeters>
            <DistanceMeters>12571.79239492</DistanceMeters>
          </Trackpoint>
          <Trackpoint>
            <Time>2022-11-06T11:06:12.000Z</Time>
            <Position>
              <LatitudeDegrees>41.35773517191410064697265625</LatitudeDegrees>
              <LongitudeDegrees>-1.6479778848588466644287109375</LongitudeDegrees>
            </Position>
            <AltitudeMeters>576.5999755859375</AltitudeMeters>
            <DistanceMeters>12575.146716796</DistanceMeters>
          </Trackpoint>
          <Trackpoint>
            <Time>2022-11-06T11:06:13.000Z</Time>
            <Position>
              <LatitudeDegrees>41.357746906578540802001953125</LatitudeDegrees>
              <LongitudeDegrees>-1.64794159121811389923095703125</LongitudeDegrees>
            </Position>
            <AltitudeMeters>575.5999755859375</AltitudeMeters>
            <DistanceMeters>12578.44812593</DistanceMeters>
          </Trackpoint>
          <Trackpoint>
            <Time>2022-11-06T11:06:14.000Z</Time>
            <Position>
              <LatitudeDegrees>41.35774967260658740997314453125</LatitudeDegrees>
              <LongitudeDegrees>-1.64789280854165554046630859375</LongitudeDegrees>
            </Position>
            <AltitudeMeters>574.20001220703125</AltitudeMeters>
            <DistanceMeters>12582.53537946</DistanceMeters>
          </Trackpoint>
          <Trackpoint>
            <Time>2022-11-06T11:06:15.000Z</Time>
            <Position>
              <LatitudeDegrees>41.3577490858733654022216796875</LatitudeDegrees>
              <LongitudeDegrees>-1.64783430285751819610595703125</LongitudeDegrees>
            </Position>
            <AltitudeMeters>573.4000244140625</AltitudeMeters>
            <DistanceMeters>12587.423485665</DistanceMeters>
          </Trackpoint>
          <Trackpoint>
            <Time>2022-11-06T11:06:16.000Z</Time>
            <Position>
              <LatitudeDegrees>41.357755623757839202880859375</LatitudeDegrees>
              <LongitudeDegrees>-1.647765152156352996826171875</LongitudeDegrees>
            </Position>
            <AltitudeMeters>573</AltitudeMeters>
            <DistanceMeters>12593.246537876</DistanceMeters>
          </Trackpoint>
          <Trackpoint>
            <Time>2022-11-06T11:06:17.000Z</Time>
            <Position>
              <LatitudeDegrees>41.35777272284030914306640625</LatitudeDegrees>
              <LongitudeDegrees>-1.64768912829458713531494140625</LongitudeDegrees>
            </Position>
            <AltitudeMeters>572.5999755859375</AltitudeMeters>
            <DistanceMeters>12599.877332866</DistanceMeters>
          </Trackpoint>
          <Trackpoint>
            <Time>2022-11-06T11:06:18.000Z</Time>
            <Position>
              <LatitudeDegrees>41.35780432261526584625244140625</LatitudeDegrees>
              <LongitudeDegrees>-1.64760832674801349639892578125</LongitudeDegrees>
            </Position>
            <AltitudeMeters>572.20001220703125</AltitudeMeters>
            <DistanceMeters>12607.488966756</DistanceMeters>
          </Trackpoint>
          <Trackpoint>
            <Time>2022-11-06T11:06:19.000Z</Time>
            <Position>
              <LatitudeDegrees>41.3578436337411403656005859375</LatitudeDegrees>
              <LongitudeDegrees>-1.64752417244017124176025390625</LongitudeDegrees>
            </Position>
            <AltitudeMeters>571.79998779296875</AltitudeMeters>
            <DistanceMeters>12615.769932914</DistanceMeters>
          </Trackpoint>
          <Trackpoint>
            <Time>2022-11-06T11:06:20.000Z</Time>
            <Position>
              <LatitudeDegrees>41.3578882254660129547119140625</LatitudeDegrees>
              <LongitudeDegrees>-1.647442281246185302734375</LongitudeDegrees>
            </Position>
            <AltitudeMeters>571.20001220703125</AltitudeMeters>
            <DistanceMeters>12624.222504406</DistanceMeters>
          </Trackpoint>
          <Trackpoint>
            <Time>2022-11-06T11:06:21.000Z</Time>
            <Position>
              <LatitudeDegrees>41.35794379748404026031494140625</LatitudeDegrees>
              <LongitudeDegrees>-1.6473921574652194976806640625</LongitudeDegrees>
            </Position>
            <AltitudeMeters>570.79998779296875</AltitudeMeters>
            <DistanceMeters>12631.691628335</DistanceMeters>
          </Trackpoint>
          <Trackpoint>
            <Time>2022-11-06T11:06:22.000Z</Time>
            <Position>
              <LatitudeDegrees>41.35800414718687534332275390625</LatitudeDegrees>
              <LongitudeDegrees>-1.64737346582114696502685546875</LongitudeDegrees>
            </Position>
            <AltitudeMeters>570.5999755859375</AltitudeMeters>
            <DistanceMeters>12638.587451894</DistanceMeters>
          </Trackpoint>
          <Trackpoint>
            <Time>2022-11-06T11:06:23.000Z</Time>
            <Position>
              <LatitudeDegrees>41.3580853678286075592041015625</LatitudeDegrees>
              <LongitudeDegrees>-1.64738788269460201263427734375</LongitudeDegrees>
            </Position>
            <AltitudeMeters>570.5999755859375</AltitudeMeters>
            <DistanceMeters>12647.707046405</DistanceMeters>
          </Trackpoint>
          <Trackpoint>
            <Time>2022-11-06T11:06:24.000Z</Time>
            <Position>
              <LatitudeDegrees>41.358151920139789581298828125</LatitudeDegrees>
              <LongitudeDegrees>-1.647422499954700469970703125</LongitudeDegrees>
            </Position>
            <AltitudeMeters>570.5999755859375</AltitudeMeters>
            <DistanceMeters>12655.658687447</DistanceMeters>
          </Trackpoint>
          <Trackpoint>
            <Time>2022-11-06T11:06:25.000Z</Time>
            <Position>
              <LatitudeDegrees>41.35820053517818450927734375</LatitudeDegrees>
              <LongitudeDegrees>-1.6474491544067859649658203125</LongitudeDegrees>
            </Position>
            <AltitudeMeters>570.79998779296875</AltitudeMeters>
            <DistanceMeters>12661.510358138</DistanceMeters>
          </Trackpoint>
          <Trackpoint>
            <Time>2022-11-06T11:06:26.000Z</Time>
            <Position>
              <LatitudeDegrees>41.35825258679687976837158203125</LatitudeDegrees>
              <LongitudeDegrees>-1.64747572503983974456787109375</LongitudeDegrees>
            </Position>
            <AltitudeMeters>571</AltitudeMeters>
            <DistanceMeters>12667.714081682</DistanceMeters>
          </Trackpoint>
          <Trackpoint>
            <Time>2022-11-06T11:06:27.000Z</Time>
            <Position>
              <LatitudeDegrees>41.35830773971974849700927734375</LatitudeDegrees>
              <LongitudeDegrees>-1.64749634452164173126220703125</LongitudeDegrees>
            </Position>
            <AltitudeMeters>571.4000244140625</AltitudeMeters>
            <DistanceMeters>12674.088667472</DistanceMeters>
          </Trackpoint>
          <Trackpoint>
            <Time>2022-11-06T11:06:29.000Z</Time>
            <Position>
              <LatitudeDegrees>41.3584219850599765777587890625</LatitudeDegrees>
              <LongitudeDegrees>-1.64754177443683147430419921875</LongitudeDegrees>
            </Position>
            <AltitudeMeters>572</AltitudeMeters>
            <DistanceMeters>12687.358425972</DistanceMeters>
          </Trackpoint>
          <Trackpoint>
            <Time>2022-11-06T11:06:30.000Z</Time>
            <Position>
              <LatitudeDegrees>41.358483843505382537841796875</LatitudeDegrees>
              <LongitudeDegrees>-1.64757697843015193939208984375</LongitudeDegrees>
            </Position>
            <AltitudeMeters>572.20001220703125</AltitudeMeters>
            <DistanceMeters>12694.84566275</DistanceMeters>
          </Trackpoint>
          <Trackpoint>
            <Time>2022-11-06T11:06:31.000Z</Time>
            <Position>
              <LatitudeDegrees>41.35854042135179042816162109375</LatitudeDegrees>
              <LongitudeDegrees>-1.64759206585586071014404296875</LongitudeDegrees>
            </Position>
            <AltitudeMeters>572.5999755859375</AltitudeMeters>
            <DistanceMeters>12701.268231488</DistanceMeters>
          </Trackpoint>
          <Trackpoint>
            <Time>2022-11-06T11:06:32.000Z</Time>
            <Position>
              <LatitudeDegrees>41.35859356261789798736572265625</LatitudeDegrees>
              <LongitudeDegrees>-1.6476117633283138275146484375</LongitudeDegrees>
            </Position>
            <AltitudeMeters>572.79998779296875</AltitudeMeters>
            <DistanceMeters>12707.407575026</DistanceMeters>
          </Trackpoint>
          <Trackpoint>
            <Time>2022-11-06T11:06:33.000Z</Time>
            <Position>
              <LatitudeDegrees>41.3586449436843395233154296875</LatitudeDegrees>
              <LongitudeDegrees>-1.647631712257862091064453125</LongitudeDegrees>
            </Position>
            <AltitudeMeters>573</AltitudeMeters>
            <DistanceMeters>12713.364772389</DistanceMeters>
          </Trackpoint>
          <Trackpoint>
            <Time>2022-11-06T11:06:34.000Z</Time>
            <Position>
              <LatitudeDegrees>41.358698420226573944091796875</LatitudeDegrees>
              <LongitudeDegrees>-1.6476474702358245849609375</LongitudeDegrees>
            </Position>
            <AltitudeMeters>573.4000244140625</AltitudeMeters>
            <DistanceMeters>12719.461311952</DistanceMeters>
          </Trackpoint>
          <Trackpoint>
            <Time>2022-11-06T11:06:35.000Z</Time>
            <Position>
              <LatitudeDegrees>41.3587508909404277801513671875</LatitudeDegrees>
              <LongitudeDegrees>-1.6476637311279773712158203125</LongitudeDegrees>
            </Position>
            <AltitudeMeters>573.79998779296875</AltitudeMeters>
            <DistanceMeters>12725.457791286</DistanceMeters>
          </Trackpoint>
          <Trackpoint>
            <Time>2022-11-06T11:06:36.000Z</Time>
            <Position>
              <LatitudeDegrees>41.35880311019718647003173828125</LatitudeDegrees>
              <LongitudeDegrees>-1.6476872004568576812744140625</LongitudeDegrees>
            </Position>
            <AltitudeMeters>574</AltitudeMeters>
            <DistanceMeters>12731.591248587</DistanceMeters>
          </Trackpoint>
          <Trackpoint>
            <Time>2022-11-06T11:06:38.000Z</Time>
            <Position>
              <LatitudeDegrees>41.358915679156780242919921875</LatitudeDegrees>
              <LongitudeDegrees>-1.64774176664650440216064453125</LongitudeDegrees>
            </Position>
            <AltitudeMeters>574.20001220703125</AltitudeMeters>
            <DistanceMeters>12744.923466134</DistanceMeters>
          </Trackpoint>
          <Trackpoint>
            <Time>2022-11-06T11:06:39.000Z</Time>
            <Position>
              <LatitudeDegrees>41.3589656352996826171875</LatitudeDegrees>
              <LongitudeDegrees>-1.6477683372795581817626953125</LongitudeDegrees>
            </Position>
            <AltitudeMeters>574.4000244140625</AltitudeMeters>
            <DistanceMeters>12750.910903272</DistanceMeters>
          </Trackpoint>
          <Trackpoint>
            <Time>2022-11-06T11:06:44.000Z</Time>
            <Position>
              <LatitudeDegrees>41.3592145778238773345947265625</LatitudeDegrees>
              <LongitudeDegrees>-1.6478742845356464385986328125</LongitudeDegrees>
            </Position>
            <AltitudeMeters>575.20001220703125</AltitudeMeters>
            <DistanceMeters>12779.998082275</DistanceMeters>
          </Trackpoint>
          <Trackpoint>
            <Time>2022-11-06T11:06:45.000Z</Time>
            <Position>
              <LatitudeDegrees>41.35926445014774799346923828125</LatitudeDegrees>
              <LongitudeDegrees>-1.647887527942657470703125</LongitudeDegrees>
            </Position>
            <AltitudeMeters>575.4000244140625</AltitudeMeters>
            <DistanceMeters>12785.658357111</DistanceMeters>
          </Trackpoint>
          <Trackpoint>
            <Time>2022-11-06T11:06:46.000Z</Time>
            <Position>
              <LatitudeDegrees>41.35931356810033321380615234375</LatitudeDegrees>
              <LongitudeDegrees>-1.647900603711605072021484375</LongitudeDegrees>
            </Position>
            <AltitudeMeters>575.5999755859375</AltitudeMeters>
            <DistanceMeters>12791.23343766</DistanceMeters>
          </Trackpoint>
          <Trackpoint>
            <Time>2022-11-06T11:06:48.000Z</Time>
            <Position>
              <LatitudeDegrees>41.35940752923488616943359375</LatitudeDegrees>
              <LongitudeDegrees>-1.6479342989623546600341796875</LongitudeDegrees>
            </Position>
            <AltitudeMeters>576</AltitudeMeters>
            <DistanceMeters>12802.063982106</DistanceMeters>
          </Trackpoint>
          <Trackpoint>
            <Time>2022-11-06T11:06:49.000Z</Time>
            <Position>
              <LatitudeDegrees>41.35945379734039306640625</LatitudeDegrees>
              <LongitudeDegrees>-1.6479559242725372314453125</LongitudeDegrees>
            </Position>
            <AltitudeMeters>576.20001220703125</AltitudeMeters>
            <DistanceMeters>12807.52202408</DistanceMeters>
          </Trackpoint>
          <Trackpoint>
            <Time>2022-11-06T11:06:50.000Z</Time>
            <Position>
              <LatitudeDegrees>41.35949880816042423248291015625</LatitudeDegrees>
              <LongitudeDegrees>-1.6479805670678615570068359375</LongitudeDegrees>
            </Position>
            <AltitudeMeters>576.4000244140625</AltitudeMeters>
            <DistanceMeters>12812.937713167</DistanceMeters>
          </Trackpoint>
          <Trackpoint>
            <Time>2022-11-06T11:06:51.000Z</Time>
            <Position>
              <LatitudeDegrees>41.3595434837043285369873046875</LatitudeDegrees>
              <LongitudeDegrees>-1.648007892072200775146484375</LongitudeDegrees>
            </Position>
            <AltitudeMeters>576.4000244140625</AltitudeMeters>
            <DistanceMeters>12818.409799925</DistanceMeters>
          </Trackpoint>
          <Trackpoint>
            <Time>2022-11-06T11:06:52.000Z</Time>
            <Position>
              <LatitudeDegrees>41.35958581231534481048583984375</LatitudeDegrees>
              <LongitudeDegrees>-1.6480308584868907928466796875</LongitudeDegrees>
            </Position>
            <AltitudeMeters>576.5999755859375</AltitudeMeters>
            <DistanceMeters>12823.49705843</DistanceMeters>
          </Trackpoint>
          <Trackpoint>
            <Time>2022-11-06T11:06:54.000Z</Time>
            <Position>
              <LatitudeDegrees>41.3596712239086627960205078125</LatitudeDegrees>
              <LongitudeDegrees>-1.648071594536304473876953125</LongitudeDegrees>
            </Position>
            <AltitudeMeters>576.79998779296875</AltitudeMeters>
            <DistanceMeters>12833.594066058</DistanceMeters>
          </Trackpoint>
          <Trackpoint>
            <Time>2022-11-06T11:06:55.000Z</Time>
            <Position>
              <LatitudeDegrees>41.35971439070999622344970703125</LatitudeDegrees>
              <LongitudeDegrees>-1.64808676578104496002197265625</LongitudeDegrees>
            </Position>
            <AltitudeMeters>577</AltitudeMeters>
            <DistanceMeters>12838.562791146</DistanceMeters>
          </Trackpoint>
          <Trackpoint>
            <Time>2022-11-06T11:06:56.000Z</Time>
            <Position>
              <LatitudeDegrees>41.3597595691680908203125</LatitudeDegrees>
              <LongitudeDegrees>-1.64810411632061004638671875</LongitudeDegrees>
            </Position>
            <AltitudeMeters>577.20001220703125</AltitudeMeters>
            <DistanceMeters>12843.796166907</DistanceMeters>
          </Trackpoint>
          <Trackpoint>
            <Time>2022-11-06T11:06:57.000Z</Time>
            <Position>
              <LatitudeDegrees>41.359805166721343994140625</LatitudeDegrees>
              <LongitudeDegrees>-1.6481136716902256011962890625</LongitudeDegrees>
            </Position>
            <AltitudeMeters>577.4000244140625</AltitudeMeters>
            <DistanceMeters>12848.932886032</DistanceMeters>
          </Trackpoint>
          <Trackpoint>
            <Time>2022-11-06T11:06:58.000Z</Time>
            <Position>
              <LatitudeDegrees>41.35984749533236026763916015625</LatitudeDegrees>
              <LongitudeDegrees>-1.64812264032661914825439453125</LongitudeDegrees>
            </Position>
            <AltitudeMeters>577.5999755859375</AltitudeMeters>
            <DistanceMeters>12853.703189234</DistanceMeters>
          </Trackpoint>
          <Trackpoint>
            <Time>2022-11-06T11:06:59.000Z</Time>
            <Position>
              <LatitudeDegrees>41.359898038208484649658203125</LatitudeDegrees>
              <LongitudeDegrees>-1.64813068695366382598876953125</LongitudeDegrees>
            </Position>
            <AltitudeMeters>577.79998779296875</AltitudeMeters>
            <DistanceMeters>12859.368248076</DistanceMeters>
          </Trackpoint>
          <Trackpoint>
            <Time>2022-11-06T11:07:00.000Z</Time>
            <Position>
              <LatitudeDegrees>41.35993114672601222991943359375</LatitudeDegrees>
              <LongitudeDegrees>-1.648136638104915618896484375</LongitudeDegrees>
            </Position>
            <AltitudeMeters>578</AltitudeMeters>
            <DistanceMeters>12863.087666997</DistanceMeters>
          </Trackpoint>
          <Trackpoint>
            <Time>2022-11-06T11:07:01.000Z</Time>
            <Position>
              <LatitudeDegrees>41.359976492822170257568359375</LatitudeDegrees>
              <LongitudeDegrees>-1.64814569056034088134765625</LongitudeDegrees>
            </Position>
            <AltitudeMeters>578</AltitudeMeters>
            <DistanceMeters>12868.189991015</DistanceMeters>
          </Trackpoint>
          <Trackpoint>
            <Time>2022-11-06T11:07:02.000Z</Time>
            <Position>
              <LatitudeDegrees>41.3600205816328525543212890625</LatitudeDegrees>
              <LongitudeDegrees>-1.64815415628254413604736328125</LongitudeDegrees>
            </Position>
            <AltitudeMeters>578.4000244140625</AltitudeMeters>
            <DistanceMeters>12873.147799814</DistanceMeters>
          </Trackpoint>
          <Trackpoint>
            <Time>2022-11-06T11:07:03.000Z</Time>
            <Position>
              <LatitudeDegrees>41.360062994062900543212890625</LatitudeDegrees>
              <LongitudeDegrees>-1.6481629572808742523193359375</LongitudeDegrees>
            </Position>
            <AltitudeMeters>578.5999755859375</AltitudeMeters>
            <DistanceMeters>12877.925668926</DistanceMeters>
          </Trackpoint>
          <Trackpoint>
            <Time>2022-11-06T11:07:04.000Z</Time>
            <Position>
              <LatitudeDegrees>41.36010398156940937042236328125</LatitudeDegrees>
              <LongitudeDegrees>-1.64816387929022312164306640625</LongitudeDegrees>
            </Position>
            <AltitudeMeters>578.5999755859375</AltitudeMeters>
            <DistanceMeters>12882.488930509</DistanceMeters>
          </Trackpoint>
          <Trackpoint>
            <Time>2022-11-06T11:07:05.000Z</Time>
            <Position>
              <LatitudeDegrees>41.36014421470463275909423828125</LatitudeDegrees>
              <LongitudeDegrees>-1.64815247990190982818603515625</LongitudeDegrees>
            </Position>
            <AltitudeMeters>578.79998779296875</AltitudeMeters>
            <DistanceMeters>12887.06700952</DistanceMeters>
          </Trackpoint>
          <Trackpoint>
            <Time>2022-11-06T11:07:06.000Z</Time>
            <Position>
              <LatitudeDegrees>41.3601872138679027557373046875</LatitudeDegrees>
              <LongitudeDegrees>-1.6481311060488224029541015625</LongitudeDegrees>
            </Position>
            <AltitudeMeters>579</AltitudeMeters>
            <DistanceMeters>12892.175524071</DistanceMeters>
          </Trackpoint>
          <Trackpoint>
            <Time>2022-11-06T11:07:07.000Z</Time>
            <Position>
              <LatitudeDegrees>41.36022468097507953643798828125</LatitudeDegrees>
              <LongitudeDegrees>-1.64810470305383205413818359375</LongitudeDegrees>
            </Position>
            <AltitudeMeters>579.20001220703125</AltitudeMeters>
            <DistanceMeters>12896.89348321</DistanceMeters>
          </Trackpoint>
          <Trackpoint>
            <Time>2022-11-06T11:07:08.000Z</Time>
            <Position>
              <LatitudeDegrees>41.360258795320987701416015625</LatitudeDegrees>
              <LongitudeDegrees>-1.6480791382491588592529296875</LongitudeDegrees>
            </Position>
            <AltitudeMeters>579.20001220703125</AltitudeMeters>
            <DistanceMeters>12901.250227486</DistanceMeters>
          </Trackpoint>
          <Trackpoint>
            <Time>2022-11-06T11:07:09.000Z</Time>
            <Position>
              <LatitudeDegrees>41.360291652381420135498046875</LatitudeDegrees>
              <LongitudeDegrees>-1.64805139414966106414794921875</LongitudeDegrees>
            </Position>
            <AltitudeMeters>579.5999755859375</AltitudeMeters>
            <DistanceMeters>12905.579943261</DistanceMeters>
          </Trackpoint>
          <Trackpoint>
            <Time>2022-11-06T11:07:10.000Z</Time>
            <Position>
              <LatitudeDegrees>41.360321156680583953857421875</LatitudeDegrees>
              <LongitudeDegrees>-1.64802289567887783050537109375</LongitudeDegrees>
            </Position>
            <AltitudeMeters>579.79998779296875</AltitudeMeters>
            <DistanceMeters>12909.636148296</DistanceMeters>
          </Trackpoint>
          <Trackpoint>
            <Time>2022-11-06T11:07:11.000Z</Time>
            <Position>
              <LatitudeDegrees>41.3603501580655574798583984375</LatitudeDegrees>
              <LongitudeDegrees>-1.6479923017323017120361328125</LongitudeDegrees>
            </Position>
            <AltitudeMeters>580</AltitudeMeters>
            <DistanceMeters>12913.752022857</DistanceMeters>
          </Trackpoint>
          <Trackpoint>
            <Time>2022-11-06T11:07:12.000Z</Time>
            <Position>
              <LatitudeDegrees>41.36038091965019702911376953125</LatitudeDegrees>
              <LongitudeDegrees>-1.64796254597604274749755859375</LongitudeDegrees>
            </Position>
            <AltitudeMeters>580.20001220703125</AltitudeMeters>
            <DistanceMeters>12917.981512358</DistanceMeters>
          </Trackpoint>
          <Trackpoint>
            <Time>2022-11-06T11:07:13.000Z</Time>
            <Position>
              <LatitudeDegrees>41.3604100048542022705078125</LatitudeDegrees>
              <LongitudeDegrees>-1.647930443286895751953125</LongitudeDegrees>
            </Position>
            <AltitudeMeters>580.4000244140625</AltitudeMeters>
            <DistanceMeters>12922.185303457</DistanceMeters>
          </Trackpoint>
          <Trackpoint>
            <Time>2022-11-06T11:07:14.000Z</Time>
            <Position>
              <LatitudeDegrees>41.3604373298585414886474609375</LatitudeDegrees>
              <LongitudeDegrees>-1.64789867587387561798095703125</LongitudeDegrees>
            </Position>
            <AltitudeMeters>580.5999755859375</AltitudeMeters>
            <DistanceMeters>12926.221422621</DistanceMeters>
          </Trackpoint>
          <Trackpoint>
            <Time>2022-11-06T11:07:15.000Z</Time>
            <Position>
              <LatitudeDegrees>41.36046188883483409881591796875</LatitudeDegrees>
              <LongitudeDegrees>-1.6478672437369823455810546875</LongitudeDegrees>
            </Position>
            <AltitudeMeters>580.79998779296875</AltitudeMeters>
            <DistanceMeters>12930.010594238</DistanceMeters>
          </Trackpoint>
          <Trackpoint>
            <Time>2022-11-06T11:07:16.000Z</Time>
            <Position>
              <LatitudeDegrees>41.36048686690628528594970703125</LatitudeDegrees>
              <LongitudeDegrees>-1.64783849380910396575927734375</LongitudeDegrees>
            </Position>
            <AltitudeMeters>580.79998779296875</AltitudeMeters>
            <DistanceMeters>12933.686052626</DistanceMeters>
          </Trackpoint>
          <Trackpoint>
            <Time>2022-11-06T11:07:17.000Z</Time>
            <Position>
              <LatitudeDegrees>41.36050715111196041107177734375</LatitudeDegrees>
              <LongitudeDegrees>-1.647806726396083831787109375</LongitudeDegrees>
            </Position>
            <AltitudeMeters>581</AltitudeMeters>
            <DistanceMeters>12937.171085311</DistanceMeters>
          </Trackpoint>
          <Trackpoint>
            <Time>2022-11-06T11:07:18.000Z</Time>
            <Position>
              <LatitudeDegrees>41.3605295307934284210205078125</LatitudeDegrees>
              <LongitudeDegrees>-1.6477824188768863677978515625</LongitudeDegrees>
            </Position>
            <AltitudeMeters>581.4000244140625</AltitudeMeters>
            <DistanceMeters>12940.385180433</DistanceMeters>
          </Trackpoint>
          <Trackpoint>
            <Time>2022-11-06T11:07:19.000Z</Time>
            <Position>
              <LatitudeDegrees>41.36054906062781810760498046875</LatitudeDegrees>
              <LongitudeDegrees>-1.6477576084434986114501953125</LongitudeDegrees>
            </Position>
            <AltitudeMeters>581.5999755859375</AltitudeMeters>
            <DistanceMeters>12943.38718248</DistanceMeters>
          </Trackpoint>
          <Trackpoint>
            <Time>2022-11-06T11:07:20.000Z</Time>
            <Position>
              <LatitudeDegrees>41.36056490242481231689453125</LatitudeDegrees>
              <LongitudeDegrees>-1.64772885851562023162841796875</LongitudeDegrees>
            </Position>
            <AltitudeMeters>582</AltitudeMeters>
            <DistanceMeters>12946.366538978</DistanceMeters>
          </Trackpoint>
          <Trackpoint>
            <Time>2022-11-06T11:07:21.000Z</Time>
            <Position>
              <LatitudeDegrees>41.36058175005018711090087890625</LatitudeDegrees>
              <LongitudeDegrees>-1.64770237170159816741943359375</LongitudeDegrees>
            </Position>
            <AltitudeMeters>582.20001220703125</AltitudeMeters>
            <DistanceMeters>12949.267578662</DistanceMeters>
          </Trackpoint>
          <Trackpoint>
            <Time>2022-11-06T11:07:22.000Z</Time>
            <Position>
              <LatitudeDegrees>41.36059851385653018951416015625</LatitudeDegrees>
              <LongitudeDegrees>-1.64767789654433727264404296875</LongitudeDegrees>
            </Position>
            <AltitudeMeters>582.5999755859375</AltitudeMeters>
            <DistanceMeters>12952.036429489</DistanceMeters>
          </Trackpoint>
          <Trackpoint>
            <Time>2022-11-06T11:07:23.000Z</Time>
            <Position>
              <LatitudeDegrees>41.36061678640544414520263671875</LatitudeDegrees>
              <LongitudeDegrees>-1.64765040390193462371826171875</LongitudeDegrees>
            </Position>
            <AltitudeMeters>582.79998779296875</AltitudeMeters>
            <DistanceMeters>12955.105365743</DistanceMeters>
          </Trackpoint>
          <Trackpoint>
            <Time>2022-11-06T11:07:24.000Z</Time>
            <Position>
              <LatitudeDegrees>41.36063522659242153167724609375</LatitudeDegrees>
              <LongitudeDegrees>-1.64763070642948150634765625</LongitudeDegrees>
            </Position>
            <AltitudeMeters>583</AltitudeMeters>
            <DistanceMeters>12957.735392084</DistanceMeters>
          </Trackpoint>
          <Trackpoint>
            <Time>2022-11-06T11:07:25.000Z</Time>
            <Position>
              <LatitudeDegrees>41.36064897291362285614013671875</LatitudeDegrees>
              <LongitudeDegrees>-1.6476127691566944122314453125</LongitudeDegrees>
            </Position>
            <AltitudeMeters>583.20001220703125</AltitudeMeters>
            <DistanceMeters>12959.877185452</DistanceMeters>
          </Trackpoint>
          <Trackpoint>
            <Time>2022-11-06T11:07:26.000Z</Time>
            <Position>
              <LatitudeDegrees>41.36066540144383907318115234375</LatitudeDegrees>
              <LongitudeDegrees>-1.64758167229592800140380859375</LongitudeDegrees>
            </Position>
            <AltitudeMeters>583.5999755859375</AltitudeMeters>
            <DistanceMeters>12963.055967537</DistanceMeters>
          </Trackpoint>
          <Trackpoint>
            <Time>2022-11-06T11:07:27.000Z</Time>
            <Position>
              <LatitudeDegrees>41.3606740348041057586669921875</LatitudeDegrees>
              <LongitudeDegrees>-1.64756105281412601470947265625</LongitudeDegrees>
            </Position>
            <AltitudeMeters>583.79998779296875</AltitudeMeters>
            <DistanceMeters>12965.028773393</DistanceMeters>
          </Trackpoint>
          <Trackpoint>
            <Time>2022-11-06T11:07:28.000Z</Time>
            <Position>
              <LatitudeDegrees>41.3606904633343219757080078125</LatitudeDegrees>
              <LongitudeDegrees>-1.6475406847894191741943359375</LongitudeDegrees>
            </Position>
            <AltitudeMeters>584.20001220703125</AltitudeMeters>
            <DistanceMeters>12967.526729122</DistanceMeters>
          </Trackpoint>
          <Trackpoint>
            <Time>2022-11-06T11:07:29.000Z</Time>
            <Position>
              <LatitudeDegrees>41.36070898734033107757568359375</LatitudeDegrees>
              <LongitudeDegrees>-1.6475135274231433868408203125</LongitudeDegrees>
            </Position>
            <AltitudeMeters>584.4000244140625</AltitudeMeters>
            <DistanceMeters>12970.591248579</DistanceMeters>
          </Trackpoint>
          <Trackpoint>
            <Time>2022-11-06T11:07:30.000Z</Time>
            <Position>
              <LatitudeDegrees>41.36072139255702495574951171875</LatitudeDegrees>
              <LongitudeDegrees>-1.64749584160745143890380859375</LongitudeDegrees>
            </Position>
            <AltitudeMeters>584.5999755859375</AltitudeMeters>
            <DistanceMeters>12972.613777844</DistanceMeters>
          </Trackpoint>
          <Trackpoint>
            <Time>2022-11-06T11:07:31.000Z</Time>
            <Position>
              <LatitudeDegrees>41.36073446832597255706787109375</LatitudeDegrees>
              <LongitudeDegrees>-1.6474726237356662750244140625</LongitudeDegrees>
            </Position>
            <AltitudeMeters>584.79998779296875</AltitudeMeters>
            <DistanceMeters>12975.03835611</DistanceMeters>
          </Trackpoint>
          <Trackpoint>
            <Time>2022-11-06T11:07:32.000Z</Time>
            <Position>
              <LatitudeDegrees>41.3607477955520153045654296875</LatitudeDegrees>
              <LongitudeDegrees>-1.6474491544067859649658203125</LongitudeDegrees>
            </Position>
            <AltitudeMeters>585</AltitudeMeters>
            <DistanceMeters>12977.498061624</DistanceMeters>
          </Trackpoint>
          <Trackpoint>
            <Time>2022-11-06T11:07:33.000Z</Time>
            <Position>
              <LatitudeDegrees>41.36076481081545352935791015625</LatitudeDegrees>
              <LongitudeDegrees>-1.64742174558341503143310546875</LongitudeDegrees>
            </Position>
            <AltitudeMeters>585.20001220703125</AltitudeMeters>
            <DistanceMeters>12980.469831259</DistanceMeters>
          </Trackpoint>
          <Trackpoint>
            <Time>2022-11-06T11:07:34.000Z</Time>
            <Position>
              <LatitudeDegrees>41.36077520437538623809814453125</LatitudeDegrees>
              <LongitudeDegrees>-1.6474007070064544677734375</LongitudeDegrees>
            </Position>
            <AltitudeMeters>585.4000244140625</AltitudeMeters>
            <DistanceMeters>12982.573337251</DistanceMeters>
          </Trackpoint>
          <Trackpoint>
            <Time>2022-11-06T11:07:35.000Z</Time>
            <Position>
              <LatitudeDegrees>41.36078945361077785491943359375</LatitudeDegrees>
              <LongitudeDegrees>-1.647376902401447296142578125</LongitudeDegrees>
            </Position>
            <AltitudeMeters>585.79998779296875</AltitudeMeters>
            <DistanceMeters>12985.116078829</DistanceMeters>
          </Trackpoint>
          <Trackpoint>
            <Time>2022-11-06T11:07:36.000Z</Time>
            <Position>
              <LatitudeDegrees>41.36080252937972545623779296875</LatitudeDegrees>
              <LongitudeDegrees>-1.64735536091029644012451171875</LongitudeDegrees>
            </Position>
            <AltitudeMeters>586</AltitudeMeters>
            <DistanceMeters>12987.43208086</DistanceMeters>
          </Trackpoint>
          <Trackpoint>
            <Time>2022-11-06T11:07:37.000Z</Time>
            <Position>
              <LatitudeDegrees>41.36081560514867305755615234375</LatitudeDegrees>
              <LongitudeDegrees>-1.64733390323817729949951171875</LongitudeDegrees>
            </Position>
            <AltitudeMeters>586.20001220703125</AltitudeMeters>
            <DistanceMeters>12989.740271732</DistanceMeters>
          </Trackpoint>
          <Trackpoint>
            <Time>2022-11-06T11:07:38.000Z</Time>
            <Position>
              <LatitudeDegrees>41.360827423632144927978515625</LatitudeDegrees>
              <LongitudeDegrees>-1.64731361903250217437744140625</LongitudeDegrees>
            </Position>
            <AltitudeMeters>586.4000244140625</AltitudeMeters>
            <DistanceMeters>12991.886277088</DistanceMeters>
          </Trackpoint>
          <Trackpoint>
            <Time>2022-11-06T11:07:39.000Z</Time>
            <Position>
              <LatitudeDegrees>41.36083974502980709075927734375</LatitudeDegrees>
              <LongitudeDegrees>-1.647294424474239349365234375</LongitudeDegrees>
            </Position>
            <AltitudeMeters>586.5999755859375</AltitudeMeters>
            <DistanceMeters>12993.994071577</DistanceMeters>
          </Trackpoint>
          <Trackpoint>
            <Time>2022-11-06T11:07:40.000Z</Time>
            <Position>
              <LatitudeDegrees>41.36085298843681812286376953125</LatitudeDegrees>
              <LongitudeDegrees>-1.64727355353534221649169921875</LongitudeDegrees>
            </Position>
            <AltitudeMeters>586.79998779296875</AltitudeMeters>
            <DistanceMeters>12996.278668738</DistanceMeters>
          </Trackpoint>
          <Trackpoint>
            <Time>2022-11-06T11:07:41.000Z</Time>
            <Position>
              <LatitudeDegrees>41.36086690239608287811279296875</LatitudeDegrees>
              <LongitudeDegrees>-1.64725326932966709136962890625</LongitudeDegrees>
            </Position>
            <AltitudeMeters>587.20001220703125</AltitudeMeters>
            <DistanceMeters>12998.575093054</DistanceMeters>
          </Trackpoint>
          <Trackpoint>
            <Time>2022-11-06T11:07:42.000Z</Time>
            <Position>
              <LatitudeDegrees>41.36088366620242595672607421875</LatitudeDegrees>
              <LongitudeDegrees>-1.64723365567624568939208984375</LongitudeDegrees>
            </Position>
            <AltitudeMeters>587.20001220703125</AltitudeMeters>
            <DistanceMeters>13001.056728027</DistanceMeters>
          </Trackpoint>
          <Trackpoint>
            <Time>2022-11-06T11:07:43.000Z</Time>
            <Position>
              <LatitudeDegrees>41.36089607141911983489990234375</LatitudeDegrees>
              <LongitudeDegrees>-1.6472151316702365875244140625</LongitudeDegrees>
            </Position>
            <AltitudeMeters>587.4000244140625</AltitudeMeters>
            <DistanceMeters>13003.129966167</DistanceMeters>
          </Trackpoint>
          <Trackpoint>
            <Time>2022-11-06T11:07:44.000Z</Time>
            <Position>
              <LatitudeDegrees>41.36090822517871856689453125</LatitudeDegrees>
              <LongitudeDegrees>-1.64719752967357635498046875</LongitudeDegrees>
            </Position>
            <AltitudeMeters>587.79998779296875</AltitudeMeters>
            <DistanceMeters>13005.127788429</DistanceMeters>
          </Trackpoint>
          <Trackpoint>
            <Time>2022-11-06T11:07:45.000Z</Time>
            <Position>
              <LatitudeDegrees>41.36092138476669788360595703125</LatitudeDegrees>
              <LongitudeDegrees>-1.64718101732432842254638671875</LongitudeDegrees>
            </Position>
            <AltitudeMeters>588</AltitudeMeters>
            <DistanceMeters>13007.141368405</DistanceMeters>
          </Trackpoint>
          <Trackpoint>
            <Time>2022-11-06T11:07:46.000Z</Time>
            <Position>
              <LatitudeDegrees>41.360936053097248077392578125</LatitudeDegrees>
              <LongitudeDegrees>-1.64716375060379505157470703125</LongitudeDegrees>
            </Position>
            <AltitudeMeters>588.4000244140625</AltitudeMeters>
            <DistanceMeters>13009.318703964</DistanceMeters>
          </Trackpoint>
          <Trackpoint>
            <Time>2022-11-06T11:07:47.000Z</Time>
            <Position>
              <LatitudeDegrees>41.3609516434371471405029296875</LatitudeDegrees>
              <LongitudeDegrees>-1.6471450589597225189208984375</LongitudeDegrees>
            </Position>
            <AltitudeMeters>588.79998779296875</AltitudeMeters>
            <DistanceMeters>13011.654119595</DistanceMeters>
          </Trackpoint>
          <Trackpoint>
            <Time>2022-11-06T11:07:48.000Z</Time>
            <Position>
              <LatitudeDegrees>41.36096379719674587249755859375</LatitudeDegrees>
              <LongitudeDegrees>-1.64712955243885517120361328125</LongitudeDegrees>
            </Position>
            <AltitudeMeters>589.20001220703125</AltitudeMeters>
            <DistanceMeters>13013.52592879</DistanceMeters>
          </Trackpoint>
          <Trackpoint>
            <Time>2022-11-06T11:07:49.000Z</Time>
            <Position>
              <LatitudeDegrees>41.3609774596989154815673828125</LatitudeDegrees>
              <LongitudeDegrees>-1.64711714722216129302978515625</LongitudeDegrees>
            </Position>
            <AltitudeMeters>589.5999755859375</AltitudeMeters>
            <DistanceMeters>13015.363657983</DistanceMeters>
          </Trackpoint>
          <Trackpoint>
            <Time>2022-11-06T11:07:50.000Z</Time>
            <Position>
              <LatitudeDegrees>41.3609925471246242523193359375</LatitudeDegrees>
              <LongitudeDegrees>-1.64710490964353084564208984375</LongitudeDegrees>
            </Position>
            <AltitudeMeters>589.79998779296875</AltitudeMeters>
            <DistanceMeters>13017.327287949</DistanceMeters>
          </Trackpoint>
          <Trackpoint>
            <Time>2022-11-06T11:07:51.000Z</Time>
            <Position>
              <LatitudeDegrees>41.3610089756548404693603515625</LatitudeDegrees>
              <LongitudeDegrees>-1.647090576589107513427734375</LongitudeDegrees>
            </Position>
            <AltitudeMeters>590.20001220703125</AltitudeMeters>
            <DistanceMeters>13019.514967202</DistanceMeters>
          </Trackpoint>
          <Trackpoint>
            <Time>2022-11-06T11:07:52.000Z</Time>
            <Position>
              <LatitudeDegrees>41.36102582328021526336669921875</LatitudeDegrees>
              <LongitudeDegrees>-1.6470726393163204193115234375</LongitudeDegrees>
            </Position>
            <AltitudeMeters>590.5999755859375</AltitudeMeters>
            <DistanceMeters>13021.91521485</DistanceMeters>
          </Trackpoint>
          <Trackpoint>
            <Time>2022-11-06T11:07:53.000Z</Time>
            <Position>
              <LatitudeDegrees>41.36103889904916286468505859375</LatitudeDegrees>
              <LongitudeDegrees>-1.64705243892967700958251953125</LongitudeDegrees>
            </Position>
            <AltitudeMeters>590.79998779296875</AltitudeMeters>
            <DistanceMeters>13024.141761946</DistanceMeters>
          </Trackpoint>
          <Trackpoint>
            <Time>2022-11-06T11:07:54.000Z</Time>
            <Position>
              <LatitudeDegrees>41.36105231009423732757568359375</LatitudeDegrees>
              <LongitudeDegrees>-1.6470324061810970306396484375</LongitudeDegrees>
            </Position>
            <AltitudeMeters>591.20001220703125</AltitudeMeters>
            <DistanceMeters>13026.382458824</DistanceMeters>
          </Trackpoint>
          <Trackpoint>
            <Time>2022-11-06T11:07:55.000Z</Time>
            <Position>
              <LatitudeDegrees>41.3610671460628509521484375</LatitudeDegrees>
              <LongitudeDegrees>-1.6470153070986270904541015625</LongitudeDegrees>
            </Position>
            <AltitudeMeters>591.5999755859375</AltitudeMeters>
            <DistanceMeters>13028.56600648</DistanceMeters>
          </Trackpoint>
          <Trackpoint>
            <Time>2022-11-06T11:07:56.000Z</Time>
            <Position>
              <LatitudeDegrees>41.36108122766017913818359375</LatitudeDegrees>
              <LongitudeDegrees>-1.6470025666058063507080078125</LongitudeDegrees>
            </Position>
            <AltitudeMeters>592</AltitudeMeters>
            <DistanceMeters>13030.461783477</DistanceMeters>
          </Trackpoint>
          <Trackpoint>
            <Time>2022-11-06T11:07:57.000Z</Time>
            <Position>
              <LatitudeDegrees>41.36109455488622188568115234375</LatitudeDegrees>
              <LongitudeDegrees>-1.6469908319413661956787109375</LongitudeDegrees>
            </Position>
            <AltitudeMeters>592.20001220703125</AltitudeMeters>
            <DistanceMeters>13032.239570516</DistanceMeters>
          </Trackpoint>
          <Trackpoint>
            <Time>2022-11-06T11:07:58.000Z</Time>
            <Position>
              <LatitudeDegrees>41.361108720302581787109375</LatitudeDegrees>
              <LongitudeDegrees>-1.64698001928627490997314453125</LongitudeDegrees>
            </Position>
            <AltitudeMeters>592.4000244140625</AltitudeMeters>
            <DistanceMeters>13034.057538607</DistanceMeters>
          </Trackpoint>
          <Trackpoint>
            <Time>2022-11-06T11:07:59.000Z</Time>
            <Position>
              <LatitudeDegrees>41.361122466623783111572265625</LatitudeDegrees>
              <LongitudeDegrees>-1.6469653509557247161865234375</LongitudeDegrees>
            </Position>
            <AltitudeMeters>592.79998779296875</AltitudeMeters>
            <DistanceMeters>13036.018867892</DistanceMeters>
          </Trackpoint>
          <Trackpoint>
            <Time>2022-11-06T11:08:00.000Z</Time>
            <Position>
              <LatitudeDegrees>41.36113763786852359771728515625</LatitudeDegrees>
              <LongitudeDegrees>-1.64694900624454021453857421875</LongitudeDegrees>
            </Position>
            <AltitudeMeters>593</AltitudeMeters>
            <DistanceMeters>13038.189973579</DistanceMeters>
          </Trackpoint>
          <Trackpoint>
            <Time>2022-11-06T11:08:01.000Z</Time>
            <Position>
              <LatitudeDegrees>41.3611518032848834991455078125</LatitudeDegrees>
              <LongitudeDegrees>-1.646932661533355712890625</LongitudeDegrees>
            </Position>
            <AltitudeMeters>593.4000244140625</AltitudeMeters>
            <DistanceMeters>13040.276237427</DistanceMeters>
          </Trackpoint>
          <Trackpoint>
            <Time>2022-11-06T11:08:02.000Z</Time>
            <Position>
              <LatitudeDegrees>41.36116479523479938507080078125</LatitudeDegrees>
              <LongitudeDegrees>-1.6469160653650760650634765625</LongitudeDegrees>
            </Position>
            <AltitudeMeters>593.5999755859375</AltitudeMeters>
            <DistanceMeters>13042.280828163</DistanceMeters>
          </Trackpoint>
          <Trackpoint>
            <Time>2022-11-06T11:08:03.000Z</Time>
            <Position>
              <LatitudeDegrees>41.36117770336568355560302734375</LatitudeDegrees>
              <LongitudeDegrees>-1.646898798644542694091796875</LongitudeDegrees>
            </Position>
            <AltitudeMeters>593.79998779296875</AltitudeMeters>
            <DistanceMeters>13044.314488659</DistanceMeters>
          </Trackpoint>
          <Trackpoint>
            <Time>2022-11-06T11:08:04.000Z</Time>
            <Position>
              <LatitudeDegrees>41.36119212023913860321044921875</LatitudeDegrees>
              <LongitudeDegrees>-1.646884381771087646484375</LongitudeDegrees>
            </Position>
            <AltitudeMeters>594</AltitudeMeters>
            <DistanceMeters>13046.321330479</DistanceMeters>
          </Trackpoint>
          <Trackpoint>
            <Time>2022-11-06T11:08:05.000Z</Time>
            <Position>
              <LatitudeDegrees>41.36120536364614963531494140625</LatitudeDegrees>
              <LongitudeDegrees>-1.64687097072601318359375</LongitudeDegrees>
            </Position>
            <AltitudeMeters>594.4000244140625</AltitudeMeters>
            <DistanceMeters>13048.173742164</DistanceMeters>
          </Trackpoint>
          <Trackpoint>
            <Time>2022-11-06T11:08:06.000Z</Time>
            <Position>
              <LatitudeDegrees>41.3612208701670169830322265625</LatitudeDegrees>
              <LongitudeDegrees>-1.64686032570898532867431640625</LongitudeDegrees>
            </Position>
            <AltitudeMeters>594.79998779296875</AltitudeMeters>
            <DistanceMeters>13050.116567929</DistanceMeters>
          </Trackpoint>
          <Trackpoint>
            <Time>2022-11-06T11:08:07.000Z</Time>
            <Position>
              <LatitudeDegrees>41.361235119402408599853515625</LatitudeDegrees>
              <LongitudeDegrees>-1.6468490101397037506103515625</LongitudeDegrees>
            </Position>
            <AltitudeMeters>595</AltitudeMeters>
            <DistanceMeters>13051.964098415</DistanceMeters>
          </Trackpoint>
          <Trackpoint>
            <Time>2022-11-06T11:08:08.000Z</Time>
            <Position>
              <LatitudeDegrees>41.36124962009489536285400390625</LatitudeDegrees>
              <LongitudeDegrees>-1.6468349285423755645751953125</LongitudeDegrees>
            </Position>
            <AltitudeMeters>595.20001220703125</AltitudeMeters>
            <DistanceMeters>13053.961920676</DistanceMeters>
          </Trackpoint>
          <Trackpoint>
            <Time>2022-11-06T11:08:09.000Z</Time>
            <Position>
              <LatitudeDegrees>41.36126437224447727203369140625</LatitudeDegrees>
              <LongitudeDegrees>-1.6468228586018085479736328125</LongitudeDegrees>
            </Position>
            <AltitudeMeters>595.4000244140625</AltitudeMeters>
            <DistanceMeters>13055.890752316</DistanceMeters>
          </Trackpoint>
          <Trackpoint>
            <Time>2022-11-06T11:08:10.000Z</Time>
            <Position>
              <LatitudeDegrees>41.36128080077469348907470703125</LatitudeDegrees>
              <LongitudeDegrees>-1.6468101181089878082275390625</LongitudeDegrees>
            </Position>
            <AltitudeMeters>595.5999755859375</AltitudeMeters>
            <DistanceMeters>13058.007097731</DistanceMeters>
          </Trackpoint>
          <Trackpoint>
            <Time>2022-11-06T11:08:11.000Z</Time>
            <Position>
              <LatitudeDegrees>41.36129488237202167510986328125</LatitudeDegrees>
              <LongitudeDegrees>-1.6468017362058162689208984375</LongitudeDegrees>
            </Position>
            <AltitudeMeters>596</AltitudeMeters>
            <DistanceMeters>13059.72284973</DistanceMeters>
          </Trackpoint>
          <Trackpoint>
            <Time>2022-11-06T11:08:12.000Z</Time>
            <Position>
              <LatitudeDegrees>41.36130762286484241485595703125</LatitudeDegrees>
              <LongitudeDegrees>-1.6467980481684207916259765625</LongitudeDegrees>
            </Position>
            <AltitudeMeters>596.20001220703125</AltitudeMeters>
            <DistanceMeters>13061.176478943</DistanceMeters>
          </Trackpoint>
          <Trackpoint>
            <Time>2022-11-06T11:08:13.000Z</Time>
            <Position>
              <LatitudeDegrees>41.3613207824528217315673828125</LatitudeDegrees>
              <LongitudeDegrees>-1.6467933543026447296142578125</LongitudeDegrees>
            </Position>
            <AltitudeMeters>596.5999755859375</AltitudeMeters>
            <DistanceMeters>13062.693933882</DistanceMeters>
          </Trackpoint>
          <Trackpoint>
            <Time>2022-11-06T11:08:14.000Z</Time>
            <Position>
              <LatitudeDegrees>41.3613365404307842254638671875</LatitudeDegrees>
              <LongitudeDegrees>-1.64678622968494892120361328125</LongitudeDegrees>
            </Position>
            <AltitudeMeters>596.79998779296875</AltitudeMeters>
            <DistanceMeters>13064.546345566</DistanceMeters>
          </Trackpoint>
          <Trackpoint>
            <Time>2022-11-06T11:08:15.000Z</Time>
            <Position>
              <LatitudeDegrees>41.3613539747893810272216796875</LatitudeDegrees>
              <LongitudeDegrees>-1.646778099238872528076171875</LongitudeDegrees>
            </Position>
            <AltitudeMeters>597</AltitudeMeters>
            <DistanceMeters>13066.602087714</DistanceMeters>
          </Trackpoint>
          <Trackpoint>
            <Time>2022-11-06T11:08:16.000Z</Time>
            <Position>
              <LatitudeDegrees>41.3613683916628360748291015625</LatitudeDegrees>
              <LongitudeDegrees>-1.646772734820842742919921875</LongitudeDegrees>
            </Position>
            <AltitudeMeters>597.20001220703125</AltitudeMeters>
            <DistanceMeters>13068.269799782</DistanceMeters>
          </Trackpoint>
          <Trackpoint>
            <Time>2022-11-06T11:08:17.000Z</Time>
            <Position>
              <LatitudeDegrees>41.3613831438124179840087890625</LatitudeDegrees>
              <LongitudeDegrees>-1.64676929824054241180419921875</LongitudeDegrees>
            </Position>
            <AltitudeMeters>597.4000244140625</AltitudeMeters>
            <DistanceMeters>13069.937511851</DistanceMeters>
          </Trackpoint>
          <Trackpoint>
            <Time>2022-11-06T11:08:18.000Z</Time>
            <Position>
              <LatitudeDegrees>41.3613972254097461700439453125</LatitudeDegrees>
              <LongitudeDegrees>-1.64676376618444919586181640625</LongitudeDegrees>
            </Position>
            <AltitudeMeters>597.5999755859375</AltitudeMeters>
            <DistanceMeters>13071.572413264</DistanceMeters>
          </Trackpoint>
          <Trackpoint>
            <Time>2022-11-06T11:08:19.000Z</Time>
            <Position>
              <LatitudeDegrees>41.36141390539705753326416015625</LatitudeDegrees>
              <LongitudeDegrees>-1.6467628441751003265380859375</LongitudeDegrees>
            </Position>
            <AltitudeMeters>597.79998779296875</AltitudeMeters>
            <DistanceMeters>13073.429693318</DistanceMeters>
          </Trackpoint>
          <Trackpoint>
            <Time>2022-11-06T11:08:20.000Z</Time>
            <Position>
              <LatitudeDegrees>41.36143125593662261962890625</LatitudeDegrees>
              <LongitudeDegrees>-1.64675923995673656463623046875</LongitudeDegrees>
            </Position>
            <AltitudeMeters>598</AltitudeMeters>
            <DistanceMeters>13075.384104313</DistanceMeters>
          </Trackpoint>
          <Trackpoint>
            <Time>2022-11-06T11:08:21.000Z</Time>
            <Position>
              <LatitudeDegrees>41.36144936084747314453125</LatitudeDegrees>
              <LongitudeDegrees>-1.64674817584455013275146484375</LongitudeDegrees>
            </Position>
            <AltitudeMeters>598.20001220703125</AltitudeMeters>
            <DistanceMeters>13077.600489114</DistanceMeters>
          </Trackpoint>
          <Trackpoint>
            <Time>2022-11-06T11:08:22.000Z</Time>
            <Position>
              <LatitudeDegrees>41.361466459929943084716796875</LatitudeDegrees>
              <LongitudeDegrees>-1.6467363573610782623291015625</LongitudeDegrees>
            </Position>
            <AltitudeMeters>598.5999755859375</AltitudeMeters>
            <DistanceMeters>13079.742282482</DistanceMeters>
          </Trackpoint>
          <Trackpoint>
            <Time>2022-11-06T11:08:23.000Z</Time>
            <Position>
              <LatitudeDegrees>41.3614847324788570404052734375</LatitudeDegrees>
              <LongitudeDegrees>-1.64672772400081157684326171875</LongitudeDegrees>
            </Position>
            <AltitudeMeters>598.79998779296875</AltitudeMeters>
            <DistanceMeters>13081.896687108</DistanceMeters>
          </Trackpoint>
          <Trackpoint>
            <Time>2022-11-06T11:08:24.000Z</Time>
            <Position>
              <LatitudeDegrees>41.36150174774229526519775390625</LatitudeDegrees>
              <LongitudeDegrees>-1.6467182524502277374267578125</LongitudeDegrees>
            </Position>
            <AltitudeMeters>599</AltitudeMeters>
            <DistanceMeters>13083.950231775</DistanceMeters>
          </Trackpoint>
          <Trackpoint>
            <Time>2022-11-06T11:08:25.000Z</Time>
            <Position>
              <LatitudeDegrees>41.361516416072845458984375</LatitudeDegrees>
              <LongitudeDegrees>-1.6467102058231830596923828125</LongitudeDegrees>
            </Position>
            <AltitudeMeters>599.4000244140625</AltitudeMeters>
            <DistanceMeters>13085.717830839</DistanceMeters>
          </Trackpoint>
          <Trackpoint>
            <Time>2022-11-06T11:08:26.000Z</Time>
            <Position>
              <LatitudeDegrees>41.36153326369822025299072265625</LatitudeDegrees>
              <LongitudeDegrees>-1.646705679595470428466796875</LongitudeDegrees>
            </Position>
            <AltitudeMeters>599.79998779296875</AltitudeMeters>
            <DistanceMeters>13087.630206576</DistanceMeters>
          </Trackpoint>
          <Trackpoint>
            <Time>2022-11-06T11:08:27.000Z</Time>
            <Position>
              <LatitudeDegrees>41.361549608409404754638671875</LatitudeDegrees>
              <LongitudeDegrees>-1.64670140482485294342041015625</LongitudeDegrees>
            </Position>
            <AltitudeMeters>600</AltitudeMeters>
            <DistanceMeters>13089.48261826</DistanceMeters>
          </Trackpoint>
          <Trackpoint>
            <Time>2022-11-06T11:08:28.000Z</Time>
            <Position>
              <LatitudeDegrees>41.36156612075865268707275390625</LatitudeDegrees>
              <LongitudeDegrees>-1.64669536985456943511962890625</LongitudeDegrees>
            </Position>
            <AltitudeMeters>600.20001220703125</AltitudeMeters>
            <DistanceMeters>13091.387897959</DistanceMeters>
          </Trackpoint>
          <Trackpoint>
            <Time>2022-11-06T11:08:29.000Z</Time>
            <Position>
              <LatitudeDegrees>41.3615843094885349273681640625</LatitudeDegrees>
              <LongitudeDegrees>-1.64668631739914417266845703125</LongitudeDegrees>
            </Position>
            <AltitudeMeters>600.5999755859375</AltitudeMeters>
            <DistanceMeters>13093.546489964</DistanceMeters>
          </Trackpoint>
          <Trackpoint>
            <Time>2022-11-06T11:08:30.000Z</Time>
            <Position>
              <LatitudeDegrees>41.36159763671457767486572265625</LatitudeDegrees>
              <LongitudeDegrees>-1.6466713137924671173095703125</LongitudeDegrees>
            </Position>
            <AltitudeMeters>600.79998779296875</AltitudeMeters>
            <DistanceMeters>13095.489315729</DistanceMeters>
          </Trackpoint>
          <Trackpoint>
            <Time>2022-11-06T11:08:31.000Z</Time>
            <Position>
              <LatitudeDegrees>41.3616097904741764068603515625</LatitudeDegrees>
              <LongitudeDegrees>-1.6466625966131687164306640625</LongitudeDegrees>
            </Position>
            <AltitudeMeters>601</AltitudeMeters>
            <DistanceMeters>13097.027457475</DistanceMeters>
          </Trackpoint>
          <Trackpoint>
            <Time>2022-11-06T11:08:32.000Z</Time>
            <Position>
              <LatitudeDegrees>41.361617334187030792236328125</LatitudeDegrees>
              <LongitudeDegrees>-1.64665631018579006195068359375</LongitudeDegrees>
            </Position>
            <AltitudeMeters>601.20001220703125</AltitudeMeters>
            <DistanceMeters>13098.015004059</DistanceMeters>
          </Trackpoint>
          <Trackpoint>
            <Time>2022-11-06T11:08:33.000Z</Time>
            <Position>
              <LatitudeDegrees>41.36162596754729747772216796875</LatitudeDegrees>
              <LongitudeDegrees>-1.64664901793003082275390625</LongitudeDegrees>
            </Position>
            <AltitudeMeters>601.4000244140625</AltitudeMeters>
            <DistanceMeters>13099.151358287</DistanceMeters>
          </Trackpoint>
          <Trackpoint>
            <Time>2022-11-06T11:08:34.000Z</Time>
            <Position>
              <LatitudeDegrees>41.36163652874529361724853515625</LatitudeDegrees>
              <LongitudeDegrees>-1.64664457552134990692138671875</LongitudeDegrees>
            </Position>
            <AltitudeMeters>601.79998779296875</AltitudeMeters>
            <DistanceMeters>13100.383045277</DistanceMeters>
          </Trackpoint>
          <Trackpoint>
            <Time>2022-11-06T11:08:35.000Z</Time>
            <Position>
              <LatitudeDegrees>41.3616527058184146881103515625</LatitudeDegrees>
              <LongitudeDegrees>-1.64663719944655895233154296875</LongitudeDegrees>
            </Position>
            <AltitudeMeters>602</AltitudeMeters>
            <DistanceMeters>13102.288324976</DistanceMeters>
          </Trackpoint>
          <Trackpoint>
            <Time>2022-11-06T11:08:36.000Z</Time>
            <Position>
              <LatitudeDegrees>41.36166653595864772796630859375</LatitudeDegrees>
              <LongitudeDegrees>-1.6466334275901317596435546875</LongitudeDegrees>
            </Position>
            <AltitudeMeters>602.20001220703125</AltitudeMeters>
            <DistanceMeters>13103.861296986</DistanceMeters>
          </Trackpoint>
          <Trackpoint>
            <Time>2022-11-06T11:08:37.000Z</Time>
            <Position>
              <LatitudeDegrees>41.3616771809756755828857421875</LatitudeDegrees>
              <LongitudeDegrees>-1.64662697352468967437744140625</LongitudeDegrees>
            </Position>
            <AltitudeMeters>602.4000244140625</AltitudeMeters>
            <DistanceMeters>13105.160767761</DistanceMeters>
          </Trackpoint>
          <Trackpoint>
            <Time>2022-11-06T11:08:38.000Z</Time>
            <Position>
              <LatitudeDegrees>41.36168698780238628387451171875</LatitudeDegrees>
              <LongitudeDegrees>-1.64661942981183528900146484375</LongitudeDegrees>
            </Position>
            <AltitudeMeters>602.79998779296875</AltitudeMeters>
            <DistanceMeters>13106.421439588</DistanceMeters>
          </Trackpoint>
          <Trackpoint>
            <Time>2022-11-06T11:08:39.000Z</Time>
            <Position>
              <LatitudeDegrees>41.36169788427650928497314453125</LatitudeDegrees>
              <LongitudeDegrees>-1.64661414921283721923828125</LongitudeDegrees>
            </Position>
            <AltitudeMeters>603</AltitudeMeters>
            <DistanceMeters>13107.710444656</DistanceMeters>
          </Trackpoint>
          <Trackpoint>
            <Time>2022-11-06T11:08:40.000Z</Time>
            <Position>
              <LatitudeDegrees>41.3617110438644886016845703125</LatitudeDegrees>
              <LongitudeDegrees>-1.6466076113283634185791015625</LongitudeDegrees>
            </Position>
            <AltitudeMeters>603.20001220703125</AltitudeMeters>
            <DistanceMeters>13109.274781805</DistanceMeters>
          </Trackpoint>
          <Trackpoint>
            <Time>2022-11-06T11:08:41.000Z</Time>
            <Position>
              <LatitudeDegrees>41.36172152124345302581787109375</LatitudeDegrees>
              <LongitudeDegrees>-1.6465952061116695404052734375</LongitudeDegrees>
            </Position>
            <AltitudeMeters>603.20001220703125</AltitudeMeters>
            <DistanceMeters>13110.836230056</DistanceMeters>
          </Trackpoint>
          <Trackpoint>
            <Time>2022-11-06T11:08:42.000Z</Time>
            <Position>
              <LatitudeDegrees>41.3617351837456226348876953125</LatitudeDegrees>
              <LongitudeDegrees>-1.646586991846561431884765625</LongitudeDegrees>
            </Position>
            <AltitudeMeters>603.5999755859375</AltitudeMeters>
            <DistanceMeters>13112.503942125</DistanceMeters>
          </Trackpoint>
          <Trackpoint>
            <Time>2022-11-06T11:08:43.000Z</Time>
            <Position>
              <LatitudeDegrees>41.361746080219745635986328125</LatitudeDegrees>
              <LongitudeDegrees>-1.64658087305724620819091796875</LongitudeDegrees>
            </Position>
            <AltitudeMeters>603.79998779296875</AltitudeMeters>
            <DistanceMeters>13113.820670904</DistanceMeters>
          </Trackpoint>
          <Trackpoint>
            <Time>2022-11-06T11:08:44.000Z</Time>
            <Position>
              <LatitudeDegrees>41.3617591559886932373046875</LatitudeDegrees>
              <LongitudeDegrees>-1.64657835848629474639892578125</LongitudeDegrees>
            </Position>
            <AltitudeMeters>604.20001220703125</AltitudeMeters>
            <DistanceMeters>13115.289748257</DistanceMeters>
          </Trackpoint>
          <Trackpoint>
            <Time>2022-11-06T11:08:45.000Z</Time>
            <Position>
              <LatitudeDegrees>41.3617720641195774078369140625</LatitudeDegrees>
              <LongitudeDegrees>-1.646576933562755584716796875</LongitudeDegrees>
            </Position>
            <AltitudeMeters>604.4000244140625</AltitudeMeters>
            <DistanceMeters>13116.730899735</DistanceMeters>
          </Trackpoint>
          <Trackpoint>
            <Time>2022-11-06T11:08:46.000Z</Time>
            <Position>
              <LatitudeDegrees>41.36178438551723957061767578125</LatitudeDegrees>
              <LongitudeDegrees>-1.64657383225858211517333984375</LongitudeDegrees>
            </Position>
            <AltitudeMeters>604.79998779296875</AltitudeMeters>
            <DistanceMeters>13118.121020722</DistanceMeters>
          </Trackpoint>
          <Trackpoint>
            <Time>2022-11-06T11:08:47.000Z</Time>
            <Position>
              <LatitudeDegrees>41.3617958687245845794677734375</LatitudeDegrees>
              <LongitudeDegrees>-1.64656545035541057586669921875</LongitudeDegrees>
            </Position>
            <AltitudeMeters>605</AltitudeMeters>
            <DistanceMeters>13119.577752669</DistanceMeters>
          </Trackpoint>
          <Trackpoint>
            <Time>2022-11-06T11:08:48.000Z</Time>
            <Position>
              <LatitudeDegrees>41.36180601082742214202880859375</LatitudeDegrees>
              <LongitudeDegrees>-1.646561510860919952392578125</LongitudeDegrees>
            </Position>
            <AltitudeMeters>605.20001220703125</AltitudeMeters>
            <DistanceMeters>13120.757003182</DistanceMeters>
          </Trackpoint>
          <Trackpoint>
            <Time>2022-11-06T11:08:49.000Z</Time>
            <Position>
              <LatitudeDegrees>41.36181489564478397369384765625</LatitudeDegrees>
              <LongitudeDegrees>-1.6465589962899684906005859375</LongitudeDegrees>
            </Position>
            <AltitudeMeters>605.5999755859375</AltitudeMeters>
            <DistanceMeters>13121.771610847</DistanceMeters>
          </Trackpoint>
          <Trackpoint>
            <Time>2022-11-06T11:08:50.000Z</Time>
            <Position>
              <LatitudeDegrees>41.36182545684278011322021484375</LatitudeDegrees>
              <LongitudeDegrees>-1.64655589498579502105712890625</LongitudeDegrees>
            </Position>
            <AltitudeMeters>605.79998779296875</AltitudeMeters>
            <DistanceMeters>13122.973614271</DistanceMeters>
          </Trackpoint>
          <Trackpoint>
            <Time>2022-11-06T11:08:51.000Z</Time>
            <Position>
              <LatitudeDegrees>41.361834593117237091064453125</LatitudeDegrees>
              <LongitudeDegrees>-1.64655245840549468994140625</LongitudeDegrees>
            </Position>
            <AltitudeMeters>605.79998779296875</AltitudeMeters>
            <DistanceMeters>13124.031786979</DistanceMeters>
          </Trackpoint>
          <Trackpoint>
            <Time>2022-11-06T11:08:52.000Z</Time>
            <Position>
              <LatitudeDegrees>41.3618441484868526458740234375</LatitudeDegrees>
              <LongitudeDegrees>-1.64654986001551151275634765625</LongitudeDegrees>
            </Position>
            <AltitudeMeters>606</AltitudeMeters>
            <DistanceMeters>13125.115258223</DistanceMeters>
          </Trackpoint>
          <Trackpoint>
            <Time>2022-11-06T11:08:53.000Z</Time>
            <Position>
              <LatitudeDegrees>41.3618572242558002471923828125</LatitudeDegrees>
              <LongitudeDegrees>-1.64654801599681377410888671875</LongitudeDegrees>
            </Position>
            <AltitudeMeters>606.4000244140625</AltitudeMeters>
            <DistanceMeters>13126.581258971</DistanceMeters>
          </Trackpoint>
          <Trackpoint>
            <Time>2022-11-06T11:08:54.000Z</Time>
            <Position>
              <LatitudeDegrees>41.36187457479536533355712890625</LatitudeDegrees>
              <LongitudeDegrees>-1.6465492732822895050048828125</LongitudeDegrees>
            </Position>
            <AltitudeMeters>606.5999755859375</AltitudeMeters>
            <DistanceMeters>13128.514766574</DistanceMeters>
          </Trackpoint>
          <Trackpoint>
            <Time>2022-11-06T11:08:55.000Z</Time>
            <Position>
              <LatitudeDegrees>41.361888907849788665771484375</LatitudeDegrees>
              <LongitudeDegrees>-1.64654986001551151275634765625</LongitudeDegrees>
            </Position>
            <AltitudeMeters>607.20001220703125</AltitudeMeters>
            <DistanceMeters>13130.110536468</DistanceMeters>
          </Trackpoint>
          <Trackpoint>
            <Time>2022-11-06T11:08:56.000Z</Time>
            <Position>
              <LatitudeDegrees>41.36190332472324371337890625</LatitudeDegrees>
              <LongitudeDegrees>-1.64655069820582866668701171875</LongitudeDegrees>
            </Position>
            <AltitudeMeters>607.4000244140625</AltitudeMeters>
            <DistanceMeters>13131.717584029</DistanceMeters>
          </Trackpoint>
          <Trackpoint>
            <Time>2022-11-06T11:08:57.000Z</Time>
            <Position>
              <LatitudeDegrees>41.3619155623018741607666015625</LatitudeDegrees>
              <LongitudeDegrees>-1.6465496085584163665771484375</LongitudeDegrees>
            </Position>
            <AltitudeMeters>607.5999755859375</AltitudeMeters>
            <DistanceMeters>13133.081473962</DistanceMeters>
          </Trackpoint>
          <Trackpoint>
            <Time>2022-11-06T11:08:58.000Z</Time>
            <Position>
              <LatitudeDegrees>41.361926458775997161865234375</LatitudeDegrees>
              <LongitudeDegrees>-1.64654843509197235107421875</LongitudeDegrees>
            </Position>
            <AltitudeMeters>607.79998779296875</AltitudeMeters>
            <DistanceMeters>13134.298409678</DistanceMeters>
          </Trackpoint>
          <Trackpoint>
            <Time>2022-11-06T11:08:59.000Z</Time>
            <Position>
              <LatitudeDegrees>41.3619403727352619171142578125</LatitudeDegrees>
              <LongitudeDegrees>-1.64654684253036975860595703125</LongitudeDegrees>
            </Position>
            <AltitudeMeters>608.20001220703125</AltitudeMeters>
            <DistanceMeters>13135.854064037</DistanceMeters>
          </Trackpoint>
          <Trackpoint>
            <Time>2022-11-06T11:09:00.000Z</Time>
            <Position>
              <LatitudeDegrees>41.3619549572467803955078125</LatitudeDegrees>
              <LongitudeDegrees>-1.6465452499687671661376953125</LongitudeDegrees>
            </Position>
            <AltitudeMeters>608.79998779296875</AltitudeMeters>
            <DistanceMeters>13137.483432772</DistanceMeters>
          </Trackpoint>
          <Trackpoint>
            <Time>2022-11-06T11:09:01.000Z</Time>
            <Position>
              <LatitudeDegrees>41.3619682006537914276123046875</LatitudeDegrees>
              <LongitudeDegrees>-1.64653879590332508087158203125</LongitudeDegrees>
            </Position>
            <AltitudeMeters>609.20001220703125</AltitudeMeters>
            <DistanceMeters>13139.050653495</DistanceMeters>
          </Trackpoint>
          <Trackpoint>
            <Time>2022-11-06T11:09:02.000Z</Time>
            <Position>
              <LatitudeDegrees>41.3619799353182315826416015625</LatitudeDegrees>
              <LongitudeDegrees>-1.6465251334011554718017578125</LongitudeDegrees>
            </Position>
            <AltitudeMeters>609.4000244140625</AltitudeMeters>
            <DistanceMeters>13140.782122634</DistanceMeters>
          </Trackpoint>
          <Trackpoint>
            <Time>2022-11-06T11:09:03.000Z</Time>
            <Position>
              <LatitudeDegrees>41.3619886524975299835205078125</LatitudeDegrees>
              <LongitudeDegrees>-1.6465117223560810089111328125</LongitudeDegrees>
            </Position>
            <AltitudeMeters>609.5999755859375</AltitudeMeters>
            <DistanceMeters>13142.26344251</DistanceMeters>
          </Trackpoint>
          <Trackpoint>
            <Time>2022-11-06T11:09:04.000Z</Time>
            <Position>
              <LatitudeDegrees>41.3619953580200672149658203125</LatitudeDegrees>
              <LongitudeDegrees>-1.6464993171393871307373046875</LongitudeDegrees>
            </Position>
            <AltitudeMeters>610</AltitudeMeters>
            <DistanceMeters>13143.545422975</DistanceMeters>
          </Trackpoint>
          <Trackpoint>
            <Time>2022-11-06T11:09:05.000Z</Time>
            <Position>
              <LatitudeDegrees>41.362003572285175323486328125</LatitudeDegrees>
              <LongitudeDegrees>-1.64648833684623241424560546875</LongitudeDegrees>
            </Position>
            <AltitudeMeters>610</AltitudeMeters>
            <DistanceMeters>13144.841414572</DistanceMeters>
          </Trackpoint>
          <Trackpoint>
            <Time>2022-11-06T11:09:06.000Z</Time>
            <Position>
              <LatitudeDegrees>41.36201622895896434783935546875</LatitudeDegrees>
              <LongitudeDegrees>-1.646477691829204559326171875</LongitudeDegrees>
            </Position>
            <AltitudeMeters>610.20001220703125</AltitudeMeters>
            <DistanceMeters>13146.503703172</DistanceMeters>
          </Trackpoint>
          <Trackpoint>
            <Time>2022-11-06T11:09:07.000Z</Time>
            <Position>
              <LatitudeDegrees>41.3620312325656414031982421875</LatitudeDegrees>
              <LongitudeDegrees>-1.64647257886826992034912109375</LongitudeDegrees>
            </Position>
            <AltitudeMeters>610.4000244140625</AltitudeMeters>
            <DistanceMeters>13148.227331656</DistanceMeters>
          </Trackpoint>
          <Trackpoint>
            <Time>2022-11-06T11:09:08.000Z</Time>
            <Position>
              <LatitudeDegrees>41.36204154230654239654541015625</LatitudeDegrees>
              <LongitudeDegrees>-1.6464624367654323577880859375</LongitudeDegrees>
            </Position>
            <AltitudeMeters>610.79998779296875</AltitudeMeters>
            <DistanceMeters>13149.655896417</DistanceMeters>
          </Trackpoint>
          <Trackpoint>
            <Time>2022-11-06T11:09:09.000Z</Time>
            <Position>
              <LatitudeDegrees>41.36205361224710941314697265625</LatitudeDegrees>
              <LongitudeDegrees>-1.646452210843563079833984375</LongitudeDegrees>
            </Position>
            <AltitudeMeters>611</AltitudeMeters>
            <DistanceMeters>13151.24883442</DistanceMeters>
          </Trackpoint>
          <Trackpoint>
            <Time>2022-11-06T11:09:10.000Z</Time>
            <Position>
              <LatitudeDegrees>41.3620671071112155914306640625</LatitudeDegrees>
              <LongitudeDegrees>-1.64644693024456501007080078125</LongitudeDegrees>
            </Position>
            <AltitudeMeters>611</AltitudeMeters>
            <DistanceMeters>13152.813171569</DistanceMeters>
          </Trackpoint>
          <Trackpoint>
            <Time>2022-11-06T11:09:11.000Z</Time>
            <Position>
              <LatitudeDegrees>41.3620798476040363311767578125</LatitudeDegrees>
              <LongitudeDegrees>-1.64643988944590091705322265625</LongitudeDegrees>
            </Position>
            <AltitudeMeters>611.20001220703125</AltitudeMeters>
            <DistanceMeters>13154.345431298</DistanceMeters>
          </Trackpoint>
          <Trackpoint>
            <Time>2022-11-06T11:09:12.000Z</Time>
            <Position>
              <LatitudeDegrees>41.362095437943935394287109375</LatitudeDegrees>
              <LongitudeDegrees>-1.64643033407628536224365234375</LongitudeDegrees>
            </Position>
            <AltitudeMeters>611.5999755859375</AltitudeMeters>
            <DistanceMeters>13156.250710996</DistanceMeters>
          </Trackpoint>
          <Trackpoint>
            <Time>2022-11-06T11:09:13.000Z</Time>
            <Position>
              <LatitudeDegrees>41.362106837332248687744140625</LatitudeDegrees>
              <LongitudeDegrees>-1.6464208625257015228271484375</LongitudeDegrees>
            </Position>
            <AltitudeMeters>612</AltitudeMeters>
            <DistanceMeters>13157.744173042</DistanceMeters>
          </Trackpoint>
          <Trackpoint>
            <Time>2022-11-06T11:09:14.000Z</Time>
            <Position>
              <LatitudeDegrees>41.36211647652089595794677734375</LatitudeDegrees>
              <LongitudeDegrees>-1.64640896022319793701171875</LongitudeDegrees>
            </Position>
            <AltitudeMeters>612.4000244140625</AltitudeMeters>
            <DistanceMeters>13159.204001128</DistanceMeters>
          </Trackpoint>
          <Trackpoint>
            <Time>2022-11-06T11:09:15.000Z</Time>
            <Position>
              <LatitudeDegrees>41.36212502606213092803955078125</LatitudeDegrees>
              <LongitudeDegrees>-1.6463970579206943511962890625</LongitudeDegrees>
            </Position>
            <AltitudeMeters>612.5999755859375</AltitudeMeters>
            <DistanceMeters>13160.577786401</DistanceMeters>
          </Trackpoint>
          <Trackpoint>
            <Time>2022-11-06T11:09:16.000Z</Time>
            <Position>
              <LatitudeDegrees>41.3621321506798267364501953125</LatitudeDegrees>
              <LongitudeDegrees>-1.64638389833271503448486328125</LongitudeDegrees>
            </Position>
            <AltitudeMeters>612.79998779296875</AltitudeMeters>
            <DistanceMeters>13161.93503936</DistanceMeters>
          </Trackpoint>
          <Trackpoint>
            <Time>2022-11-06T11:09:17.000Z</Time>
            <Position>
              <LatitudeDegrees>41.362137012183666229248046875</LatitudeDegrees>
              <LongitudeDegrees>-1.64636864326894283294677734375</LongitudeDegrees>
            </Position>
            <AltitudeMeters>613.4000244140625</AltitudeMeters>
            <DistanceMeters>13163.318649206</DistanceMeters>
          </Trackpoint>
          <Trackpoint>
            <Time>2022-11-06T11:09:18.000Z</Time>
            <Position>
              <LatitudeDegrees>41.36214346624910831451416015625</LatitudeDegrees>
              <LongitudeDegrees>-1.64635573513805866241455078125</LongitudeDegrees>
            </Position>
            <AltitudeMeters>613.5999755859375</AltitudeMeters>
            <DistanceMeters>13164.614640803</DistanceMeters>
          </Trackpoint>
          <Trackpoint>
            <Time>2022-11-06T11:09:19.000Z</Time>
            <Position>
              <LatitudeDegrees>41.3621482439339160919189453125</LatitudeDegrees>
              <LongitudeDegrees>-1.64634458720684051513671875</LongitudeDegrees>
            </Position>
            <AltitudeMeters>614</AltitudeMeters>
            <DistanceMeters>13165.689745349</DistanceMeters>
          </Trackpoint>
          <Trackpoint>
            <Time>2022-11-06T11:09:20.000Z</Time>
            <Position>
              <LatitudeDegrees>41.3621546141803264617919921875</LatitudeDegrees>
              <LongitudeDegrees>-1.64632857777178287506103515625</LongitudeDegrees>
            </Position>
            <AltitudeMeters>614</AltitudeMeters>
            <DistanceMeters>13167.204221964</DistanceMeters>
          </Trackpoint>
          <Trackpoint>
            <Time>2022-11-06T11:09:21.000Z</Time>
            <Position>
              <LatitudeDegrees>41.36215838603675365447998046875</LatitudeDegrees>
              <LongitudeDegrees>-1.64631533436477184295654296875</LongitudeDegrees>
            </Position>
            <AltitudeMeters>614.4000244140625</AltitudeMeters>
            <DistanceMeters>13168.387295017</DistanceMeters>
          </Trackpoint>
          <Trackpoint>
            <Time>2022-11-06T11:09:22.000Z</Time>
            <Position>
              <LatitudeDegrees>41.36216123588383197784423828125</LatitudeDegrees>
              <LongitudeDegrees>-1.64630175568163394927978515625</LongitudeDegrees>
            </Position>
            <AltitudeMeters>614.4000244140625</AltitudeMeters>
            <DistanceMeters>13169.56654553</DistanceMeters>
          </Trackpoint>
          <Trackpoint>
            <Time>2022-11-06T11:09:23.000Z</Time>
            <Position>
              <LatitudeDegrees>41.36216752231121063232421875</LatitudeDegrees>
              <LongitudeDegrees>-1.6462862491607666015625</LongitudeDegrees>
            </Position>
            <AltitudeMeters>614.79998779296875</AltitudeMeters>
            <DistanceMeters>13171.038693058</DistanceMeters>
          </Trackpoint>
          <Trackpoint>
            <Time>2022-11-06T11:09:24.000Z</Time>
            <Position>
              <LatitudeDegrees>41.3621747307479381561279296875</LatitudeDegrees>
              <LongitudeDegrees>-1.64627082645893096923828125</LongitudeDegrees>
            </Position>
            <AltitudeMeters>615.20001220703125</AltitudeMeters>
            <DistanceMeters>13172.556147998</DistanceMeters>
          </Trackpoint>
          <Trackpoint>
            <Time>2022-11-06T11:09:25.000Z</Time>
            <Position>
              <LatitudeDegrees>41.3621800951659679412841796875</LatitudeDegrees>
              <LongitudeDegrees>-1.6462562419474124908447265625</LongitudeDegrees>
            </Position>
            <AltitudeMeters>615.4000244140625</AltitudeMeters>
            <DistanceMeters>13173.906731369</DistanceMeters>
          </Trackpoint>
          <Trackpoint>
            <Time>2022-11-06T11:09:26.000Z</Time>
            <Position>
              <LatitudeDegrees>41.36218654923141002655029296875</LatitudeDegrees>
              <LongitudeDegrees>-1.64623721502721309661865234375</LongitudeDegrees>
            </Position>
            <AltitudeMeters>615.5999755859375</AltitudeMeters>
            <DistanceMeters>13175.648599815</DistanceMeters>
          </Trackpoint>
          <Trackpoint>
            <Time>2022-11-06T11:09:27.000Z</Time>
            <Position>
              <LatitudeDegrees>41.36219342239201068878173828125</LatitudeDegrees>
              <LongitudeDegrees>-1.64621877484023571014404296875</LongitudeDegrees>
            </Position>
            <AltitudeMeters>615.79998779296875</AltitudeMeters>
            <DistanceMeters>13177.369606809</DistanceMeters>
          </Trackpoint>
          <Trackpoint>
            <Time>2022-11-06T11:09:28.000Z</Time>
            <Position>
              <LatitudeDegrees>41.3621975295245647430419921875</LatitudeDegrees>
              <LongitudeDegrees>-1.64620653726160526275634765625</LongitudeDegrees>
            </Position>
            <AltitudeMeters>616.20001220703125</AltitudeMeters>
            <DistanceMeters>13178.485917944</DistanceMeters>
          </Trackpoint>
          <Trackpoint>
            <Time>2022-11-06T11:09:29.000Z</Time>
            <Position>
              <LatitudeDegrees>41.3622032292187213897705078125</LatitudeDegrees>
              <LongitudeDegrees>-1.64618977345526218414306640625</LongitudeDegrees>
            </Position>
            <AltitudeMeters>616.5999755859375</AltitudeMeters>
            <DistanceMeters>13180.021121498</DistanceMeters>
          </Trackpoint>
          <Trackpoint>
            <Time>2022-11-06T11:09:30.000Z</Time>
            <Position>
              <LatitudeDegrees>41.36220750398933887481689453125</LatitudeDegrees>
              <LongitudeDegrees>-1.6461784578859806060791015625</LongitudeDegrees>
            </Position>
            <AltitudeMeters>616.79998779296875</AltitudeMeters>
            <DistanceMeters>13181.075018743</DistanceMeters>
          </Trackpoint>
          <Trackpoint>
            <Time>2022-11-06T11:09:31.000Z</Time>
            <Position>
              <LatitudeDegrees>41.36221353895962238311767578125</LatitudeDegrees>
              <LongitudeDegrees>-1.6461615264415740966796875</LongitudeDegrees>
            </Position>
            <AltitudeMeters>617.20001220703125</AltitudeMeters>
            <DistanceMeters>13182.639355892</DistanceMeters>
          </Trackpoint>
          <Trackpoint>
            <Time>2022-11-06T11:09:32.000Z</Time>
            <Position>
              <LatitudeDegrees>41.36221982538700103759765625</LatitudeDegrees>
              <LongitudeDegrees>-1.64614132605493068695068359375</LongitudeDegrees>
            </Position>
            <AltitudeMeters>617.5999755859375</AltitudeMeters>
            <DistanceMeters>13184.467231239</DistanceMeters>
          </Trackpoint>
          <Trackpoint>
            <Time>2022-11-06T11:09:33.000Z</Time>
            <Position>
              <LatitudeDegrees>41.3622231781482696533203125</LatitudeDegrees>
              <LongitudeDegrees>-1.6461264900863170623779296875</LongitudeDegrees>
            </Position>
            <AltitudeMeters>617.79998779296875</AltitudeMeters>
            <DistanceMeters>13185.756236307</DistanceMeters>
          </Trackpoint>
          <Trackpoint>
            <Time>2022-11-06T11:09:34.000Z</Time>
            <Position>
              <LatitudeDegrees>41.36222653090953826904296875</LatitudeDegrees>
              <LongitudeDegrees>-1.64611198939383029937744140625</LongitudeDegrees>
            </Position>
            <AltitudeMeters>618.20001220703125</AltitudeMeters>
            <DistanceMeters>13187.016908133</DistanceMeters>
          </Trackpoint>
          <Trackpoint>
            <Time>2022-11-06T11:09:35.000Z</Time>
            <Position>
              <LatitudeDegrees>41.3622290454804897308349609375</LatitudeDegrees>
              <LongitudeDegrees>-1.646096147596836090087890625</LongitudeDegrees>
            </Position>
            <AltitudeMeters>618.4000244140625</AltitudeMeters>
            <DistanceMeters>13188.367491504</DistanceMeters>
          </Trackpoint>
          <Trackpoint>
            <Time>2022-11-06T11:09:36.000Z</Time>
            <Position>
              <LatitudeDegrees>41.362232901155948638916015625</LatitudeDegrees>
              <LongitudeDegrees>-1.64607980288565158843994140625</LongitudeDegrees>
            </Position>
            <AltitudeMeters>618.5999755859375</AltitudeMeters>
            <DistanceMeters>13189.796056265</DistanceMeters>
          </Trackpoint>
          <Trackpoint>
            <Time>2022-11-06T11:09:37.000Z</Time>
            <Position>
              <LatitudeDegrees>41.3622391037642955780029296875</LatitudeDegrees>
              <LongitudeDegrees>-1.64606505073606967926025390625</LongitudeDegrees>
            </Position>
            <AltitudeMeters>619</AltitudeMeters>
            <DistanceMeters>13191.208729934</DistanceMeters>
          </Trackpoint>
          <Trackpoint>
            <Time>2022-11-06T11:09:38.000Z</Time>
            <Position>
              <LatitudeDegrees>41.36224874295294284820556640625</LatitudeDegrees>
              <LongitudeDegrees>-1.6460500471293926239013671875</LongitudeDegrees>
            </Position>
            <AltitudeMeters>619.4000244140625</AltitudeMeters>
            <DistanceMeters>13192.860118164</DistanceMeters>
          </Trackpoint>
          <Trackpoint>
            <Time>2022-11-06T11:09:39.000Z</Time>
            <Position>
              <LatitudeDegrees>41.3622545264661312103271484375</LatitudeDegrees>
              <LongitudeDegrees>-1.64603076875209808349609375</LongitudeDegrees>
            </Position>
            <AltitudeMeters>619.79998779296875</AltitudeMeters>
            <DistanceMeters>13194.591587303</DistanceMeters>
          </Trackpoint>
          <Trackpoint>
            <Time>2022-11-06T11:09:40.000Z</Time>
            <Position>
              <LatitudeDegrees>41.3622588850557804107666015625</LatitudeDegrees>
              <LongitudeDegrees>-1.6460118256509304046630859375</LongitudeDegrees>
            </Position>
            <AltitudeMeters>620.20001220703125</AltitudeMeters>
            <DistanceMeters>13196.24570736</DistanceMeters>
          </Trackpoint>
          <Trackpoint>
            <Time>2022-11-06T11:09:41.000Z</Time>
            <Position>
              <LatitudeDegrees>41.36226232163608074188232421875</LatitudeDegrees>
              <LongitudeDegrees>-1.645993888378143310546875</LongitudeDegrees>
            </Position>
            <AltitudeMeters>620.5999755859375</AltitudeMeters>
            <DistanceMeters>13197.792630195</DistanceMeters>
          </Trackpoint>
          <Trackpoint>
            <Time>2022-11-06T11:09:42.000Z</Time>
            <Position>
              <LatitudeDegrees>41.36226676404476165771484375</LatitudeDegrees>
              <LongitudeDegrees>-1.64597519673407077789306640625</LongitudeDegrees>
            </Position>
            <AltitudeMeters>620.79998779296875</AltitudeMeters>
            <DistanceMeters>13199.430290936</DistanceMeters>
          </Trackpoint>
          <Trackpoint>
            <Time>2022-11-06T11:09:43.000Z</Time>
            <Position>
              <LatitudeDegrees>41.36227087117731571197509765625</LatitudeDegrees>
              <LongitudeDegrees>-1.64595776237547397613525390625</LongitudeDegrees>
            </Position>
            <AltitudeMeters>621</AltitudeMeters>
            <DistanceMeters>13200.956645981</DistanceMeters>
          </Trackpoint>
          <Trackpoint>
            <Time>2022-11-06T11:09:44.000Z</Time>
            <Position>
              <LatitudeDegrees>41.36227305047214031219482421875</LatitudeDegrees>
              <LongitudeDegrees>-1.64594133384525775909423828125</LongitudeDegrees>
            </Position>
            <AltitudeMeters>621.20001220703125</AltitudeMeters>
            <DistanceMeters>13202.350011129</DistanceMeters>
          </Trackpoint>
          <Trackpoint>
            <Time>2022-11-06T11:09:45.000Z</Time>
            <Position>
              <LatitudeDegrees>41.3622722961008548736572265625</LatitudeDegrees>
              <LongitudeDegrees>-1.64592683315277099609375</LongitudeDegrees>
            </Position>
            <AltitudeMeters>621.5999755859375</AltitudeMeters>
            <DistanceMeters>13203.566946845</DistanceMeters>
          </Trackpoint>
          <Trackpoint>
            <Time>2022-11-06T11:09:46.000Z</Time>
            <Position>
              <LatitudeDegrees>41.36227036826312541961669921875</LatitudeDegrees>
              <LongitudeDegrees>-1.6459132544696331024169921875</LongitudeDegrees>
            </Position>
            <AltitudeMeters>621.79998779296875</AltitudeMeters>
            <DistanceMeters>13204.72299672</DistanceMeters>
          </Trackpoint>
          <Trackpoint>
            <Time>2022-11-06T11:09:47.000Z</Time>
            <Position>
              <LatitudeDegrees>41.362270452082157135009765625</LatitudeDegrees>
              <LongitudeDegrees>-1.6458924673497676849365234375</LongitudeDegrees>
            </Position>
            <AltitudeMeters>622</AltitudeMeters>
            <DistanceMeters>13206.459673297</DistanceMeters>
          </Trackpoint>
          <Trackpoint>
            <Time>2022-11-06T11:09:48.000Z</Time>
            <Position>
              <LatitudeDegrees>41.3622649200260639190673828125</LatitudeDegrees>
              <LongitudeDegrees>-1.64587117731571197509765625</LongitudeDegrees>
            </Position>
            <AltitudeMeters>622.20001220703125</AltitudeMeters>
            <DistanceMeters>13208.338704933</DistanceMeters>
          </Trackpoint>
          <Trackpoint>
            <Time>2022-11-06T11:09:49.000Z</Time>
            <Position>
              <LatitudeDegrees>41.3622578792273998260498046875</LatitudeDegrees>
              <LongitudeDegrees>-1.6458555869758129119873046875</LongitudeDegrees>
            </Position>
            <AltitudeMeters>622.4000244140625</AltitudeMeters>
            <DistanceMeters>13209.859132363</DistanceMeters>
          </Trackpoint>
          <Trackpoint>
            <Time>2022-11-06T11:09:50.000Z</Time>
            <Position>
              <LatitudeDegrees>41.3622548617422580718994140625</LatitudeDegrees>
              <LongitudeDegrees>-1.64583840407431125640869140625</LongitudeDegrees>
            </Position>
            <AltitudeMeters>622.79998779296875</AltitudeMeters>
            <DistanceMeters>13211.331279892</DistanceMeters>
          </Trackpoint>
          <Trackpoint>
            <Time>2022-11-06T11:09:51.000Z</Time>
            <Position>
              <LatitudeDegrees>41.3622508384287357330322265625</LatitudeDegrees>
              <LongitudeDegrees>-1.64582147262990474700927734375</LongitudeDegrees>
            </Position>
            <AltitudeMeters>623</AltitudeMeters>
            <DistanceMeters>13212.815644622</DistanceMeters>
          </Trackpoint>
          <Trackpoint>
            <Time>2022-11-06T11:09:52.000Z</Time>
            <Position>
              <LatitudeDegrees>41.3622505031526088714599609375</LatitudeDegrees>
              <LongitudeDegrees>-1.645802445709705352783203125</LongitudeDegrees>
            </Position>
            <AltitudeMeters>623.4000244140625</AltitudeMeters>
            <DistanceMeters>13214.405745689</DistanceMeters>
          </Trackpoint>
          <Trackpoint>
            <Time>2022-11-06T11:09:53.000Z</Time>
            <Position>
              <LatitudeDegrees>41.36225209571421146392822265625</LatitudeDegrees>
              <LongitudeDegrees>-1.6457878611981868743896484375</LongitudeDegrees>
            </Position>
            <AltitudeMeters>623.4000244140625</AltitudeMeters>
            <DistanceMeters>13215.63743268</DistanceMeters>
          </Trackpoint>
          <Trackpoint>
            <Time>2022-11-06T11:09:54.000Z</Time>
            <Position>
              <LatitudeDegrees>41.362257711589336395263671875</LatitudeDegrees>
              <LongitudeDegrees>-1.64576782844960689544677734375</LongitudeDegrees>
            </Position>
            <AltitudeMeters>623.5999755859375</AltitudeMeters>
            <DistanceMeters>13217.422822549</DistanceMeters>
          </Trackpoint>
          <Trackpoint>
            <Time>2022-11-06T11:09:55.000Z</Time>
            <Position>
              <LatitudeDegrees>41.3622635789215564727783203125</LatitudeDegrees>
              <LongitudeDegrees>-1.64575207047164440155029296875</LongitudeDegrees>
            </Position>
            <AltitudeMeters>624.20001220703125</AltitudeMeters>
            <DistanceMeters>13218.894970078</DistanceMeters>
          </Trackpoint>
          <Trackpoint>
            <Time>2022-11-06T11:09:56.000Z</Time>
            <Position>
              <LatitudeDegrees>41.36227170936763286590576171875</LatitudeDegrees>
              <LongitudeDegrees>-1.64573664776980876922607421875</LongitudeDegrees>
            </Position>
            <AltitudeMeters>624.4000244140625</AltitudeMeters>
            <DistanceMeters>13220.470809861</DistanceMeters>
          </Trackpoint>
          <Trackpoint>
            <Time>2022-11-06T11:09:57.000Z</Time>
            <Position>
              <LatitudeDegrees>41.3622823543846607208251953125</LatitudeDegrees>
              <LongitudeDegrees>-1.645722649991512298583984375</LongitudeDegrees>
            </Position>
            <AltitudeMeters>624.5999755859375</AltitudeMeters>
            <DistanceMeters>13222.13852193</DistanceMeters>
          </Trackpoint>
          <Trackpoint>
            <Time>2022-11-06T11:09:58.000Z</Time>
            <Position>
              <LatitudeDegrees>41.36229090392589569091796875</LatitudeDegrees>
              <LongitudeDegrees>-1.6457043774425983428955078125</LongitudeDegrees>
            </Position>
            <AltitudeMeters>625</AltitudeMeters>
            <DistanceMeters>13223.936511742</DistanceMeters>
          </Trackpoint>
          <Trackpoint>
            <Time>2022-11-06T11:09:59.000Z</Time>
            <Position>
              <LatitudeDegrees>41.362297944724559783935546875</LatitudeDegrees>
              <LongitudeDegrees>-1.64568669162690639495849609375</LongitudeDegrees>
            </Position>
            <AltitudeMeters>625.20001220703125</AltitudeMeters>
            <DistanceMeters>13225.609629699</DistanceMeters>
          </Trackpoint>
          <Trackpoint>
            <Time>2022-11-06T11:10:00.000Z</Time>
            <Position>
              <LatitudeDegrees>41.362304985523223876953125</LatitudeDegrees>
              <LongitudeDegrees>-1.64567001163959503173828125</LongitudeDegrees>
            </Position>
            <AltitudeMeters>625.5999755859375</AltitudeMeters>
            <DistanceMeters>13227.208226469</DistanceMeters>
          </Trackpoint>
          <Trackpoint>
            <Time>2022-11-06T11:10:01.000Z</Time>
            <Position>
              <LatitudeDegrees>41.36231211014091968536376953125</LatitudeDegrees>
              <LongitudeDegrees>-1.645650230348110198974609375</LongitudeDegrees>
            </Position>
            <AltitudeMeters>625.79998779296875</AltitudeMeters>
            <DistanceMeters>13229.041035362</DistanceMeters>
          </Trackpoint>
          <Trackpoint>
            <Time>2022-11-06T11:10:02.000Z</Time>
            <Position>
              <LatitudeDegrees>41.3623155467212200164794921875</LatitudeDegrees>
              <LongitudeDegrees>-1.6456326283514499664306640625</LongitudeDegrees>
            </Position>
            <AltitudeMeters>626.20001220703125</AltitudeMeters>
            <DistanceMeters>13230.561462792</DistanceMeters>
          </Trackpoint>
          <Trackpoint>
            <Time>2022-11-06T11:10:03.000Z</Time>
            <Position>
              <LatitudeDegrees>41.3623158819973468780517578125</LatitudeDegrees>
              <LongitudeDegrees>-1.645611338317394256591796875</LongitudeDegrees>
            </Position>
            <AltitudeMeters>626.5999755859375</AltitudeMeters>
            <DistanceMeters>13232.339249831</DistanceMeters>
          </Trackpoint>
          <Trackpoint>
            <Time>2022-11-06T11:10:04.000Z</Time>
            <Position>
              <LatitudeDegrees>41.362321078777313232421875</LatitudeDegrees>
              <LongitudeDegrees>-1.6455907188355922698974609375</LongitudeDegrees>
            </Position>
            <AltitudeMeters>626.79998779296875</AltitudeMeters>
            <DistanceMeters>13234.152243991</DistanceMeters>
          </Trackpoint>
          <Trackpoint>
            <Time>2022-11-06T11:10:05.000Z</Time>
            <Position>
              <LatitudeDegrees>41.36232652701437473297119140625</LatitudeDegrees>
              <LongitudeDegrees>-1.64557253010571002960205078125</LongitudeDegrees>
            </Position>
            <AltitudeMeters>627</AltitudeMeters>
            <DistanceMeters>13235.789904733</DistanceMeters>
          </Trackpoint>
          <Trackpoint>
            <Time>2022-11-06T11:10:06.000Z</Time>
            <Position>
              <LatitudeDegrees>41.36233256198465824127197265625</LatitudeDegrees>
              <LongitudeDegrees>-1.64555224590003490447998046875</LongitudeDegrees>
            </Position>
            <AltitudeMeters>627.20001220703125</AltitudeMeters>
            <DistanceMeters>13237.612833182</DistanceMeters>
          </Trackpoint>
          <Trackpoint>
            <Time>2022-11-06T11:10:07.000Z</Time>
            <Position>
              <LatitudeDegrees>41.36233792640268802642822265625</LatitudeDegrees>
              <LongitudeDegrees>-1.6455330513417720794677734375</LongitudeDegrees>
            </Position>
            <AltitudeMeters>627.4000244140625</AltitudeMeters>
            <DistanceMeters>13239.323314041</DistanceMeters>
          </Trackpoint>
          <Trackpoint>
            <Time>2022-11-06T11:10:08.000Z</Time>
            <Position>
              <LatitudeDegrees>41.36234127916395664215087890625</LatitudeDegrees>
              <LongitudeDegrees>-1.645516455173492431640625</LongitudeDegrees>
            </Position>
            <AltitudeMeters>627.79998779296875</AltitudeMeters>
            <DistanceMeters>13240.761329168</DistanceMeters>
          </Trackpoint>
          <Trackpoint>
            <Time>2022-11-06T11:10:09.000Z</Time>
            <Position>
              <LatitudeDegrees>41.362345218658447265625</LatitudeDegrees>
              <LongitudeDegrees>-1.64549566805362701416015625</LongitudeDegrees>
            </Position>
            <AltitudeMeters>628.20001220703125</AltitudeMeters>
            <DistanceMeters>13242.551769655</DistanceMeters>
          </Trackpoint>
          <Trackpoint>
            <Time>2022-11-06T11:10:10.000Z</Time>
            <Position>
              <LatitudeDegrees>41.362345553934574127197265625</LatitudeDegrees>
              <LongitudeDegrees>-1.64547110907733440399169921875</LongitudeDegrees>
            </Position>
            <AltitudeMeters>628.5999755859375</AltitudeMeters>
            <DistanceMeters>13244.603114487</DistanceMeters>
          </Trackpoint>
          <Trackpoint>
            <Time>2022-11-06T11:10:11.000Z</Time>
            <Position>
              <LatitudeDegrees>41.36233842931687831878662109375</LatitudeDegrees>
              <LongitudeDegrees>-1.6454525850713253021240234375</LongitudeDegrees>
            </Position>
            <AltitudeMeters>628.79998779296875</AltitudeMeters>
            <DistanceMeters>13246.339791064</DistanceMeters>
          </Trackpoint>
          <Trackpoint>
            <Time>2022-11-06T11:10:12.000Z</Time>
            <Position>
              <LatitudeDegrees>41.36233055032789707183837890625</LatitudeDegrees>
              <LongitudeDegrees>-1.6454358212649822235107421875</LongitudeDegrees>
            </Position>
            <AltitudeMeters>629.20001220703125</AltitudeMeters>
            <DistanceMeters>13247.991179294</DistanceMeters>
          </Trackpoint>
          <Trackpoint>
            <Time>2022-11-06T11:10:13.000Z</Time>
            <Position>
              <LatitudeDegrees>41.36232133023440837860107421875</LatitudeDegrees>
              <LongitudeDegrees>-1.64541679434478282928466796875</LongitudeDegrees>
            </Position>
            <AltitudeMeters>629.4000244140625</AltitudeMeters>
            <DistanceMeters>13249.882187034</DistanceMeters>
          </Trackpoint>
          <Trackpoint>
            <Time>2022-11-06T11:10:14.000Z</Time>
            <Position>
              <LatitudeDegrees>41.36230926029384136199951171875</LatitudeDegrees>
              <LongitudeDegrees>-1.64539835415780544281005859375</LongitudeDegrees>
            </Position>
            <AltitudeMeters>629.5999755859375</AltitudeMeters>
            <DistanceMeters>13251.924708837</DistanceMeters>
          </Trackpoint>
          <Trackpoint>
            <Time>2022-11-06T11:10:15.000Z</Time>
            <Position>
              <LatitudeDegrees>41.36229668743908405303955078125</LatitudeDegrees>
              <LongitudeDegrees>-1.64538427256047725677490234375</LongitudeDegrees>
            </Position>
            <AltitudeMeters>629.5999755859375</AltitudeMeters>
            <DistanceMeters>13253.752584184</DistanceMeters>
          </Trackpoint>
          <Trackpoint>
            <Time>2022-11-06T11:10:16.000Z</Time>
            <Position>
              <LatitudeDegrees>41.36228361167013645172119140625</LatitudeDegrees>
              <LongitudeDegrees>-1.64537421427667140960693359375</LongitudeDegrees>
            </Position>
            <AltitudeMeters>629.79998779296875</AltitudeMeters>
            <DistanceMeters>13255.436461853</DistanceMeters>
          </Trackpoint>
          <Trackpoint>
            <Time>2022-11-06T11:10:17.000Z</Time>
            <Position>
              <LatitudeDegrees>41.3622712902724742889404296875</LatitudeDegrees>
              <LongitudeDegrees>-1.6453649103641510009765625</LongitudeDegrees>
            </Position>
            <AltitudeMeters>630</AltitudeMeters>
            <DistanceMeters>13257.0151642</DistanceMeters>
          </Trackpoint>
          <Trackpoint>
            <Time>2022-11-06T11:10:18.000Z</Time>
            <Position>
              <LatitudeDegrees>41.36225494556128978729248046875</LatitudeDegrees>
              <LongitudeDegrees>-1.64535351097583770751953125</LongitudeDegrees>
            </Position>
            <AltitudeMeters>630.20001220703125</AltitudeMeters>
            <DistanceMeters>13259.070906347</DistanceMeters>
          </Trackpoint>
          <Trackpoint>
            <Time>2022-11-06T11:10:19.000Z</Time>
            <Position>
              <LatitudeDegrees>41.362240277230739593505859375</LatitudeDegrees>
              <LongitudeDegrees>-1.6453456319868564605712890625</LongitudeDegrees>
            </Position>
            <AltitudeMeters>630.4000244140625</AltitudeMeters>
            <DistanceMeters>13260.830825726</DistanceMeters>
          </Trackpoint>
          <Trackpoint>
            <Time>2022-11-06T11:10:20.000Z</Time>
            <Position>
              <LatitudeDegrees>41.3622253574430942535400390625</LatitudeDegrees>
              <LongitudeDegrees>-1.64533699862658977508544921875</LongitudeDegrees>
            </Position>
            <AltitudeMeters>630.4000244140625</AltitudeMeters>
            <DistanceMeters>13262.638832272</DistanceMeters>
          </Trackpoint>
          <Trackpoint>
            <Time>2022-11-06T11:10:21.000Z</Time>
            <Position>
              <LatitudeDegrees>41.36221420951187610626220703125</LatitudeDegrees>
              <LongitudeDegrees>-1.6453228332102298736572265625</LongitudeDegrees>
            </Position>
            <AltitudeMeters>630.5999755859375</AltitudeMeters>
            <DistanceMeters>13264.354584271</DistanceMeters>
          </Trackpoint>
          <Trackpoint>
            <Time>2022-11-06T11:10:22.000Z</Time>
            <Position>
              <LatitudeDegrees>41.36220046319067478179931640625</LatitudeDegrees>
              <LongitudeDegrees>-1.645315624773502349853515625</LongitudeDegrees>
            </Position>
            <AltitudeMeters>630.5999755859375</AltitudeMeters>
            <DistanceMeters>13265.99774977</DistanceMeters>
          </Trackpoint>
          <Trackpoint>
            <Time>2022-11-06T11:10:23.000Z</Time>
            <Position>
              <LatitudeDegrees>41.362185962498188018798828125</LatitudeDegrees>
              <LongitudeDegrees>-1.6453112661838531494140625</LongitudeDegrees>
            </Position>
            <AltitudeMeters>630.79998779296875</AltitudeMeters>
            <DistanceMeters>13267.654597149</DistanceMeters>
          </Trackpoint>
          <Trackpoint>
            <Time>2022-11-06T11:10:24.000Z</Time>
            <Position>
              <LatitudeDegrees>41.36216844432055950164794921875</LatitudeDegrees>
              <LongitudeDegrees>-1.6453090868890285491943359375</LongitudeDegrees>
            </Position>
            <AltitudeMeters>630.79998779296875</AltitudeMeters>
            <DistanceMeters>13269.611316959</DistanceMeters>
          </Trackpoint>
          <Trackpoint>
            <Time>2022-11-06T11:10:25.000Z</Time>
            <Position>
              <LatitudeDegrees>41.36214933358132839202880859375</LatitudeDegrees>
              <LongitudeDegrees>-1.64530648849904537200927734375</LongitudeDegrees>
            </Position>
            <AltitudeMeters>630.79998779296875</AltitudeMeters>
            <DistanceMeters>13271.748890041</DistanceMeters>
          </Trackpoint>
          <Trackpoint>
            <Time>2022-11-06T11:10:26.000Z</Time>
            <Position>
              <LatitudeDegrees>41.36212687008082866668701171875</LatitudeDegrees>
              <LongitudeDegrees>-1.645304895937442779541015625</LongitudeDegrees>
            </Position>
            <AltitudeMeters>631</AltitudeMeters>
            <DistanceMeters>13274.252262376</DistanceMeters>
          </Trackpoint>
          <Trackpoint>
            <Time>2022-11-06T11:10:27.000Z</Time>
            <Position>
              <LatitudeDegrees>41.36210407130420207977294921875</LatitudeDegrees>
              <LongitudeDegrees>-1.64530162699520587921142578125</LongitudeDegrees>
            </Position>
            <AltitudeMeters>631</AltitudeMeters>
            <DistanceMeters>13276.805635673</DistanceMeters>
          </Trackpoint>
          <Trackpoint>
            <Time>2022-11-06T11:10:28.000Z</Time>
            <Position>
              <LatitudeDegrees>41.3620791770517826080322265625</LatitudeDegrees>
              <LongitudeDegrees>-1.64529525674879550933837890625</LongitudeDegrees>
            </Position>
            <AltitudeMeters>631</AltitudeMeters>
            <DistanceMeters>13279.627785106</DistanceMeters>
          </Trackpoint>
          <Trackpoint>
            <Time>2022-11-06T11:10:29.000Z</Time>
            <Position>
              <LatitudeDegrees>41.362050510942935943603515625</LatitudeDegrees>
              <LongitudeDegrees>-1.64528754539787769317626953125</LongitudeDegrees>
            </Position>
            <AltitudeMeters>631</AltitudeMeters>
            <DistanceMeters>13282.882363369</DistanceMeters>
          </Trackpoint>
          <Trackpoint>
            <Time>2022-11-06T11:10:30.000Z</Time>
            <Position>
              <LatitudeDegrees>41.3620191626250743865966796875</LatitudeDegrees>
              <LongitudeDegrees>-1.64528016932308673858642578125</LongitudeDegrees>
            </Position>
            <AltitudeMeters>630.79998779296875</AltitudeMeters>
            <DistanceMeters>13286.425216211</DistanceMeters>
          </Trackpoint>
          <Trackpoint>
            <Time>2022-11-06T11:10:31.000Z</Time>
            <Position>
              <LatitudeDegrees>41.36198940686881542205810546875</LatitudeDegrees>
              <LongitudeDegrees>-1.64527329616248607635498046875</LongitudeDegrees>
            </Position>
            <AltitudeMeters>630.79998779296875</AltitudeMeters>
            <DistanceMeters>13289.787604604</DistanceMeters>
          </Trackpoint>
          <Trackpoint>
            <Time>2022-11-06T11:10:32.000Z</Time>
            <Position>
              <LatitudeDegrees>41.36195973493158817291259765625</LatitudeDegrees>
              <LongitudeDegrees>-1.64526876993477344512939453125</LongitudeDegrees>
            </Position>
            <AltitudeMeters>630.79998779296875</AltitudeMeters>
            <DistanceMeters>13293.110823449</DistanceMeters>
          </Trackpoint>
          <Trackpoint>
            <Time>2022-11-06T11:10:33.000Z</Time>
            <Position>
              <LatitudeDegrees>41.3619266264140605926513671875</LatitudeDegrees>
              <LongitudeDegrees>-1.64526340551674365997314453125</LongitudeDegrees>
            </Position>
            <AltitudeMeters>630.79998779296875</AltitudeMeters>
            <DistanceMeters>13296.822951768</DistanceMeters>
          </Trackpoint>
          <Trackpoint>
            <Time>2022-11-06T11:10:34.000Z</Time>
            <Position>
              <LatitudeDegrees>41.3618905842304229736328125</LatitudeDegrees>
              <LongitudeDegrees>-1.64525426924228668212890625</LongitudeDegrees>
            </Position>
            <AltitudeMeters>630.79998779296875</AltitudeMeters>
            <DistanceMeters>13300.906889964</DistanceMeters>
          </Trackpoint>
          <Trackpoint>
            <Time>2022-11-06T11:10:35.000Z</Time>
            <Position>
              <LatitudeDegrees>41.36185546405613422393798828125</LatitudeDegrees>
              <LongitudeDegrees>-1.64524563588201999664306640625</LongitudeDegrees>
            </Position>
            <AltitudeMeters>630.79998779296875</AltitudeMeters>
            <DistanceMeters>13304.87987041</DistanceMeters>
          </Trackpoint>
          <Trackpoint>
            <Time>2022-11-06T11:10:36.000Z</Time>
            <Position>
              <LatitudeDegrees>41.3618195056915283203125</LatitudeDegrees>
              <LongitudeDegrees>-1.64523675106465816497802734375</LongitudeDegrees>
            </Position>
            <AltitudeMeters>630.5999755859375</AltitudeMeters>
            <DistanceMeters>13308.951629287</DistanceMeters>
          </Trackpoint>
          <Trackpoint>
            <Time>2022-11-06T11:10:37.000Z</Time>
            <Position>
              <LatitudeDegrees>41.36178354732692241668701171875</LatitudeDegrees>
              <LongitudeDegrees>-1.64522753097116947174072265625</LongitudeDegrees>
            </Position>
            <AltitudeMeters>630.5999755859375</AltitudeMeters>
            <DistanceMeters>13313.028928728</DistanceMeters>
          </Trackpoint>
          <Trackpoint>
            <Time>2022-11-06T11:10:38.000Z</Time>
            <Position>
              <LatitudeDegrees>41.36174733750522136688232421875</LatitudeDegrees>
              <LongitudeDegrees>-1.64521546103060245513916015625</LongitudeDegrees>
            </Position>
            <AltitudeMeters>630.5999755859375</AltitudeMeters>
            <DistanceMeters>13317.184106963</DistanceMeters>
          </Trackpoint>
          <Trackpoint>
            <Time>2022-11-06T11:10:39.000Z</Time>
            <Position>
              <LatitudeDegrees>41.36171230114996433258056640625</LatitudeDegrees>
              <LongitudeDegrees>-1.64520456455647945404052734375</LongitudeDegrees>
            </Position>
            <AltitudeMeters>630.4000244140625</AltitudeMeters>
            <DistanceMeters>13321.188781202</DistanceMeters>
          </Trackpoint>
          <Trackpoint>
            <Time>2022-11-06T11:10:44.000Z</Time>
            <Position>
              <LatitudeDegrees>41.36153628118336200714111328125</LatitudeDegrees>
              <LongitudeDegrees>-1.6451602242887020111083984375</LongitudeDegrees>
            </Position>
            <AltitudeMeters>630.79998779296875</AltitudeMeters>
            <DistanceMeters>13341.127188495</DistanceMeters>
          </Trackpoint>
          <Trackpoint>
            <Time>2022-11-06T11:10:47.000Z</Time>
            <Position>
              <LatitudeDegrees>41.36143368668854236602783203125</LatitudeDegrees>
              <LongitudeDegrees>-1.64514170028269290924072265625</LongitudeDegrees>
            </Position>
            <AltitudeMeters>631.4000244140625</AltitudeMeters>
            <DistanceMeters>13352.650916372</DistanceMeters>
          </Trackpoint>
          <Trackpoint>
            <Time>2022-11-06T11:10:50.000Z</Time>
            <Position>
              <LatitudeDegrees>41.36133964173495769500732421875</LatitudeDegrees>
              <LongitudeDegrees>-1.64513482712209224700927734375</LongitudeDegrees>
            </Position>
            <AltitudeMeters>631.79998779296875</AltitudeMeters>
            <DistanceMeters>13363.134047122</DistanceMeters>
          </Trackpoint>
          <Trackpoint>
            <Time>2022-11-06T11:10:51.000Z</Time>
            <Position>
              <LatitudeDegrees>41.36130561120808124542236328125</LatitudeDegrees>
              <LongitudeDegrees>-1.6451246850192546844482421875</LongitudeDegrees>
            </Position>
            <AltitudeMeters>632</AltitudeMeters>
            <DistanceMeters>13367.012720523</DistanceMeters>
          </Trackpoint>
          <Trackpoint>
            <Time>2022-11-06T11:10:52.000Z</Time>
            <Position>
              <LatitudeDegrees>41.3612698204815387725830078125</LatitudeDegrees>
              <LongitudeDegrees>-1.64511236362159252166748046875</LongitudeDegrees>
            </Position>
            <AltitudeMeters>632</AltitudeMeters>
            <DistanceMeters>13371.126400537</DistanceMeters>
          </Trackpoint>
          <Trackpoint>
            <Time>2022-11-06T11:10:53.000Z</Time>
            <Position>
              <LatitudeDegrees>41.36123537085950374603271484375</LatitudeDegrees>
              <LongitudeDegrees>-1.6451059095561504364013671875</LongitudeDegrees>
            </Position>
            <AltitudeMeters>632</AltitudeMeters>
            <DistanceMeters>13374.998083233</DistanceMeters>
          </Trackpoint>
          <Trackpoint>
            <Time>2022-11-06T11:10:54.000Z</Time>
            <Position>
              <LatitudeDegrees>41.36120134033262729644775390625</LatitudeDegrees>
              <LongitudeDegrees>-1.64510406553745269775390625</LongitudeDegrees>
            </Position>
            <AltitudeMeters>632</AltitudeMeters>
            <DistanceMeters>13378.789637228</DistanceMeters>
          </Trackpoint>
          <Trackpoint>
            <Time>2022-11-06T11:11:00.000Z</Time>
            <Position>
              <LatitudeDegrees>41.3609839975833892822265625</LatitudeDegrees>
              <LongitudeDegrees>-1.6450777463614940643310546875</LongitudeDegrees>
            </Position>
            <AltitudeMeters>631.5999755859375</AltitudeMeters>
            <DistanceMeters>13403.080071453</DistanceMeters>
          </Trackpoint>
          <Trackpoint>
            <Time>2022-11-06T11:11:05.000Z</Time>
            <Position>
              <LatitudeDegrees>41.36083153076469898223876953125</LatitudeDegrees>
              <LongitudeDegrees>-1.6450549475848674774169921875</LongitudeDegrees>
            </Position>
            <AltitudeMeters>632.4000244140625</AltitudeMeters>
            <DistanceMeters>13420.156877029</DistanceMeters>
          </Trackpoint>
          <Trackpoint>
            <Time>2022-11-06T11:11:06.000Z</Time>
            <Position>
              <LatitudeDegrees>41.36080420576035976409912109375</LatitudeDegrees>
              <LongitudeDegrees>-1.64504547603428363800048828125</LongitudeDegrees>
            </Position>
            <AltitudeMeters>632.5999755859375</AltitudeMeters>
            <DistanceMeters>13423.297075029</DistanceMeters>
          </Trackpoint>
          <Trackpoint>
            <Time>2022-11-06T11:11:07.000Z</Time>
            <Position>
              <LatitudeDegrees>41.36077956296503543853759765625</LatitudeDegrees>
              <LongitudeDegrees>-1.6450348310172557830810546875</LongitudeDegrees>
            </Position>
            <AltitudeMeters>632.79998779296875</AltitudeMeters>
            <DistanceMeters>13426.17781109</DistanceMeters>
          </Trackpoint>
          <Trackpoint>
            <Time>2022-11-06T11:11:08.000Z</Time>
            <Position>
              <LatitudeDegrees>41.3607521541416645050048828125</LatitudeDegrees>
              <LongitudeDegrees>-1.64502318017184734344482421875</LongitudeDegrees>
            </Position>
            <AltitudeMeters>633.20001220703125</AltitudeMeters>
            <DistanceMeters>13429.380648401</DistanceMeters>
          </Trackpoint>
          <Trackpoint>
            <Time>2022-11-06T11:11:09.000Z</Time>
            <Position>
              <LatitudeDegrees>41.3607238233089447021484375</LatitudeDegrees>
              <LongitudeDegrees>-1.64500742219388484954833984375</LongitudeDegrees>
            </Position>
            <AltitudeMeters>633.5999755859375</AltitudeMeters>
            <DistanceMeters>13432.798969468</DistanceMeters>
          </Trackpoint>
          <Trackpoint>
            <Time>2022-11-06T11:11:10.000Z</Time>
            <Position>
              <LatitudeDegrees>41.3606971688568592071533203125</LatitudeDegrees>
              <LongitudeDegrees>-1.64499032311141490936279296875</LongitudeDegrees>
            </Position>
            <AltitudeMeters>633.79998779296875</AltitudeMeters>
            <DistanceMeters>13436.090791415</DistanceMeters>
          </Trackpoint>
          <Trackpoint>
            <Time>2022-11-06T11:11:11.000Z</Time>
            <Position>
              <LatitudeDegrees>41.36067193932831287384033203125</LatitudeDegrees>
              <LongitudeDegrees>-1.644974313676357269287109375</LongitudeDegrees>
            </Position>
            <AltitudeMeters>634</AltitudeMeters>
            <DistanceMeters>13439.200648626</DistanceMeters>
          </Trackpoint>
          <Trackpoint>
            <Time>2022-11-06T11:11:12.000Z</Time>
            <Position>
              <LatitudeDegrees>41.36064964346587657928466796875</LatitudeDegrees>
              <LongitudeDegrees>-1.64495545439422130584716796875</LongitudeDegrees>
            </Position>
            <AltitudeMeters>634</AltitudeMeters>
            <DistanceMeters>13442.138803333</DistanceMeters>
          </Trackpoint>
          <Trackpoint>
            <Time>2022-11-06T11:11:13.000Z</Time>
            <Position>
              <LatitudeDegrees>41.3606326282024383544921875</LatitudeDegrees>
              <LongitudeDegrees>-1.64493684656918048858642578125</LongitudeDegrees>
            </Position>
            <AltitudeMeters>634.20001220703125</AltitudeMeters>
            <DistanceMeters>13444.591155451</DistanceMeters>
          </Trackpoint>
          <Trackpoint>
            <Time>2022-11-06T11:11:14.000Z</Time>
            <Position>
              <LatitudeDegrees>41.3606170378625392913818359375</LatitudeDegrees>
              <LongitudeDegrees>-1.6449161432683467864990234375</LongitudeDegrees>
            </Position>
            <AltitudeMeters>634.5999755859375</AltitudeMeters>
            <DistanceMeters>13447.03982259</DistanceMeters>
          </Trackpoint>
          <Trackpoint>
            <Time>2022-11-06T11:11:15.000Z</Time>
            <Position>
              <LatitudeDegrees>41.3605989329516887664794921875</LatitudeDegrees>
              <LongitudeDegrees>-1.644895188510417938232421875</LongitudeDegrees>
            </Position>
            <AltitudeMeters>635.20001220703125</AltitudeMeters>
            <DistanceMeters>13449.709041636</DistanceMeters>
          </Trackpoint>
          <Trackpoint>
            <Time>2022-11-06T11:11:16.000Z</Time>
            <Position>
              <LatitudeDegrees>41.3605816662311553955078125</LatitudeDegrees>
              <LongitudeDegrees>-1.6448745690286159515380859375</LongitudeDegrees>
            </Position>
            <AltitudeMeters>635.5999755859375</AltitudeMeters>
            <DistanceMeters>13452.290552127</DistanceMeters>
          </Trackpoint>
          <Trackpoint>
            <Time>2022-11-06T11:11:17.000Z</Time>
            <Position>
              <LatitudeDegrees>41.36056632734835147857666015625</LatitudeDegrees>
              <LongitudeDegrees>-1.64485638029873371124267578125</LongitudeDegrees>
            </Position>
            <AltitudeMeters>636</AltitudeMeters>
            <DistanceMeters>13454.577124728</DistanceMeters>
          </Trackpoint>
          <Trackpoint>
            <Time>2022-11-06T11:11:18.000Z</Time>
            <Position>
              <LatitudeDegrees>41.3605476357042789459228515625</LatitudeDegrees>
              <LongitudeDegrees>-1.64483827538788318634033203125</LongitudeDegrees>
            </Position>
            <AltitudeMeters>636.20001220703125</AltitudeMeters>
            <DistanceMeters>13457.149875403</DistanceMeters>
          </Trackpoint>
          <Trackpoint>
            <Time>2022-11-06T11:11:19.000Z</Time>
            <Position>
              <LatitudeDegrees>41.36052601039409637451171875</LatitudeDegrees>
              <LongitudeDegrees>-1.64482318796217441558837890625</LongitudeDegrees>
            </Position>
            <AltitudeMeters>636.5999755859375</AltitudeMeters>
            <DistanceMeters>13459.867705885</DistanceMeters>
          </Trackpoint>
          <Trackpoint>
            <Time>2022-11-06T11:11:20.000Z</Time>
            <Position>
              <LatitudeDegrees>41.36050681583583354949951171875</LatitudeDegrees>
              <LongitudeDegrees>-1.64480474777519702911376953125</LongitudeDegrees>
            </Position>
            <AltitudeMeters>637</AltitudeMeters>
            <DistanceMeters>13462.501163443</DistanceMeters>
          </Trackpoint>
          <Trackpoint>
            <Time>2022-11-06T11:11:21.000Z</Time>
            <Position>
              <LatitudeDegrees>41.3604936562478542327880859375</LatitudeDegrees>
              <LongitudeDegrees>-1.64478085935115814208984375</LongitudeDegrees>
            </Position>
            <AltitudeMeters>637.4000244140625</AltitudeMeters>
            <DistanceMeters>13464.975510191</DistanceMeters>
          </Trackpoint>
          <Trackpoint>
            <Time>2022-11-06T11:11:22.000Z</Time>
            <Position>
              <LatitudeDegrees>41.3604916445910930633544921875</LatitudeDegrees>
              <LongitudeDegrees>-1.6447555460035800933837890625</LongitudeDegrees>
            </Position>
            <AltitudeMeters>637.5999755859375</AltitudeMeters>
            <DistanceMeters>13467.100372121</DistanceMeters>
          </Trackpoint>
          <Trackpoint>
            <Time>2022-11-06T11:11:23.000Z</Time>
            <Position>
              <LatitudeDegrees>41.36049910448491573333740234375</LatitudeDegrees>
              <LongitudeDegrees>-1.6447300650179386138916015625</LongitudeDegrees>
            </Position>
            <AltitudeMeters>637.5999755859375</AltitudeMeters>
            <DistanceMeters>13469.384969282</DistanceMeters>
          </Trackpoint>
          <Trackpoint>
            <Time>2022-11-06T11:11:24.000Z</Time>
            <Position>
              <LatitudeDegrees>41.3605255074799060821533203125</LatitudeDegrees>
              <LongitudeDegrees>-1.64469846524298191070556640625</LongitudeDegrees>
            </Position>
            <AltitudeMeters>637.79998779296875</AltitudeMeters>
            <DistanceMeters>13473.335155618</DistanceMeters>
          </Trackpoint>
          <Trackpoint>
            <Time>2022-11-06T11:11:25.000Z</Time>
            <Position>
              <LatitudeDegrees>41.3605617173016071319580078125</LatitudeDegrees>
              <LongitudeDegrees>-1.64465186186134815216064453125</LongitudeDegrees>
            </Position>
            <AltitudeMeters>637.79998779296875</AltitudeMeters>
            <DistanceMeters>13478.938509596</DistanceMeters>
          </Trackpoint>
          <Trackpoint>
            <Time>2022-11-06T11:11:26.000Z</Time>
            <Position>
              <LatitudeDegrees>41.360599100589752197265625</LatitudeDegrees>
              <LongitudeDegrees>-1.6445936076343059539794921875</LongitudeDegrees>
            </Position>
            <AltitudeMeters>637.79998779296875</AltitudeMeters>
            <DistanceMeters>13485.341364198</DistanceMeters>
          </Trackpoint>
          <Trackpoint>
            <Time>2022-11-06T11:11:27.000Z</Time>
            <Position>
              <LatitudeDegrees>41.36063723824918270111083984375</LatitudeDegrees>
              <LongitudeDegrees>-1.64452747441828250885009765625</LongitudeDegrees>
            </Position>
            <AltitudeMeters>637.5999755859375</AltitudeMeters>
            <DistanceMeters>13492.308837984</DistanceMeters>
          </Trackpoint>
          <Trackpoint>
            <Time>2022-11-06T11:11:28.000Z</Time>
            <Position>
              <LatitudeDegrees>41.3606790639460086822509765625</LatitudeDegrees>
              <LongitudeDegrees>-1.64446092210710048675537109375</LongitudeDegrees>
            </Position>
            <AltitudeMeters>637.4000244140625</AltitudeMeters>
            <DistanceMeters>13499.560814626</DistanceMeters>
          </Trackpoint>
          <Trackpoint>
            <Time>2022-11-06T11:11:29.000Z</Time>
            <Position>
              <LatitudeDegrees>41.36072508059442043304443359375</LatitudeDegrees>
              <LongitudeDegrees>-1.64439328014850616455078125</LongitudeDegrees>
            </Position>
            <AltitudeMeters>636.79998779296875</AltitudeMeters>
            <DistanceMeters>13507.187855497</DistanceMeters>
          </Trackpoint>
          <Trackpoint>
            <Time>2022-11-06T11:11:30.000Z</Time>
            <Position>
              <LatitudeDegrees>41.3607729412615299224853515625</LatitudeDegrees>
              <LongitudeDegrees>-1.64431641809642314910888671875</LongitudeDegrees>
            </Position>
            <AltitudeMeters>636.20001220703125</AltitudeMeters>
            <DistanceMeters>13515.530746436</DistanceMeters>
          </Trackpoint>
          <Trackpoint>
            <Time>2022-11-06T11:11:31.000Z</Time>
            <Position>
              <LatitudeDegrees>41.36081040836870670318603515625</LatitudeDegrees>
              <LongitudeDegrees>-1.6442502848803997039794921875</LongitudeDegrees>
            </Position>
            <AltitudeMeters>635.5999755859375</AltitudeMeters>
            <DistanceMeters>13522.453362682</DistanceMeters>
          </Trackpoint>
          <Trackpoint>
            <Time>2022-11-06T11:11:32.000Z</Time>
            <Position>
              <LatitudeDegrees>41.3608570955693721771240234375</LatitudeDegrees>
              <LongitudeDegrees>-1.6441678069531917572021484375</LongitudeDegrees>
            </Position>
            <AltitudeMeters>635.20001220703125</AltitudeMeters>
            <DistanceMeters>13531.083546372</DistanceMeters>
          </Trackpoint>
          <Trackpoint>
            <Time>2022-11-06T11:11:33.000Z</Time>
            <Position>
              <LatitudeDegrees>41.36090881191194057464599609375</LatitudeDegrees>
              <LongitudeDegrees>-1.64408960379660129547119140625</LongitudeDegrees>
            </Position>
            <AltitudeMeters>634.5999755859375</AltitudeMeters>
            <DistanceMeters>13539.790814705</DistanceMeters>
          </Trackpoint>
          <Trackpoint>
            <Time>2022-11-06T11:11:34.000Z</Time>
            <Position>
              <LatitudeDegrees>41.36097150854766368865966796875</LatitudeDegrees>
              <LongitudeDegrees>-1.6440023481845855712890625</LongitudeDegrees>
            </Position>
            <AltitudeMeters>634.20001220703125</AltitudeMeters>
            <DistanceMeters>13549.882007501</DistanceMeters>
          </Trackpoint>
          <Trackpoint>
            <Time>2022-11-06T11:11:35.000Z</Time>
            <Position>
              <LatitudeDegrees>41.361017860472202301025390625</LatitudeDegrees>
              <LongitudeDegrees>-1.64393152110278606414794921875</LongitudeDegrees>
            </Position>
            <AltitudeMeters>633.5999755859375</AltitudeMeters>
            <DistanceMeters>13557.7325025</DistanceMeters>
          </Trackpoint>
          <Trackpoint>
            <Time>2022-11-06T11:11:36.000Z</Time>
            <Position>
              <LatitudeDegrees>41.36105440557003021240234375</LatitudeDegrees>
              <LongitudeDegrees>-1.64385826326906681060791015625</LongitudeDegrees>
            </Position>
            <AltitudeMeters>633.20001220703125</AltitudeMeters>
            <DistanceMeters>13565.080962008</DistanceMeters>
          </Trackpoint>
          <Trackpoint>
            <Time>2022-11-06T11:11:37.000Z</Time>
            <Position>
              <LatitudeDegrees>41.36107728816568851470947265625</LatitudeDegrees>
              <LongitudeDegrees>-1.64377905428409576416015625</LongitudeDegrees>
            </Position>
            <AltitudeMeters>632.79998779296875</AltitudeMeters>
            <DistanceMeters>13572.171126714</DistanceMeters>
          </Trackpoint>
          <Trackpoint>
            <Time>2022-11-06T11:11:38.000Z</Time>
            <Position>
              <LatitudeDegrees>41.361092962324619293212890625</LatitudeDegrees>
              <LongitudeDegrees>-1.64370059967041015625</LongitudeDegrees>
            </Position>
            <AltitudeMeters>632.5999755859375</AltitudeMeters>
            <DistanceMeters>13578.953398414</DistanceMeters>
          </Trackpoint>
          <Trackpoint>
            <Time>2022-11-06T11:11:39.000Z</Time>
            <Position>
              <LatitudeDegrees>41.3611051999032497406005859375</LatitudeDegrees>
              <LongitudeDegrees>-1.64361904375255107879638671875</LongitudeDegrees>
            </Position>
            <AltitudeMeters>632.4000244140625</AltitudeMeters>
            <DistanceMeters>13585.900104721</DistanceMeters>
          </Trackpoint>
          <Trackpoint>
            <Time>2022-11-06T11:11:40.000Z</Time>
            <Position>
              <LatitudeDegrees>41.361117102205753326416015625</LatitudeDegrees>
              <LongitudeDegrees>-1.6435334645211696624755859375</LongitudeDegrees>
            </Position>
            <AltitudeMeters>632</AltitudeMeters>
            <DistanceMeters>13593.170735196</DistanceMeters>
          </Trackpoint>
          <Trackpoint>
            <Time>2022-11-06T11:11:41.000Z</Time>
            <Position>
              <LatitudeDegrees>41.3611276634037494659423828125</LatitudeDegrees>
              <LongitudeDegrees>-1.64344335906207561492919921875</LongitudeDegrees>
            </Position>
            <AltitudeMeters>631.5999755859375</AltitudeMeters>
            <DistanceMeters>13600.788891226</DistanceMeters>
          </Trackpoint>
          <Trackpoint>
            <Time>2022-11-06T11:11:44.000Z</Time>
            <Position>
              <LatitudeDegrees>41.3611638732254505157470703125</LatitudeDegrees>
              <LongitudeDegrees>-1.64320229552686214447021484375</LongitudeDegrees>
            </Position>
            <AltitudeMeters>630.5999755859375</AltitudeMeters>
            <DistanceMeters>13621.326536434</DistanceMeters>
          </Trackpoint>
          <Trackpoint>
            <Time>2022-11-06T11:11:45.000Z</Time>
            <Position>
              <LatitudeDegrees>41.36119513772428035736083984375</LatitudeDegrees>
              <LongitudeDegrees>-1.64310707710683345794677734375</LongitudeDegrees>
            </Position>
            <AltitudeMeters>629.79998779296875</AltitudeMeters>
            <DistanceMeters>13630.00887933</DistanceMeters>
          </Trackpoint>
          <Trackpoint>
            <Time>2022-11-06T11:11:47.000Z</Time>
            <Position>
              <LatitudeDegrees>41.36125498451292514801025390625</LatitudeDegrees>
              <LongitudeDegrees>-1.64298654533922672271728515625</LongitudeDegrees>
            </Position>
            <AltitudeMeters>629.20001220703125</AltitudeMeters>
            <DistanceMeters>13642.081386684</DistanceMeters>
          </Trackpoint>
          <Trackpoint>
            <Time>2022-11-06T11:11:48.000Z</Time>
            <Position>
              <LatitudeDegrees>41.3612564094364643096923828125</LatitudeDegrees>
              <LongitudeDegrees>-1.642932482063770294189453125</LongitudeDegrees>
            </Position>
            <AltitudeMeters>629.20001220703125</AltitudeMeters>
            <DistanceMeters>13646.600903573</DistanceMeters>
          </Trackpoint>
          <Trackpoint>
            <Time>2022-11-06T11:11:49.000Z</Time>
            <Position>
              <LatitudeDegrees>41.36124308221042156219482421875</LatitudeDegrees>
              <LongitudeDegrees>-1.6428786702454090118408203125</LongitudeDegrees>
            </Position>
            <AltitudeMeters>628.79998779296875</AltitudeMeters>
            <DistanceMeters>13651.335103583</DistanceMeters>
          </Trackpoint>
          <Trackpoint>
            <Time>2022-11-06T11:11:50.000Z</Time>
            <Position>
              <LatitudeDegrees>41.36122246272861957550048828125</LatitudeDegrees>
              <LongitudeDegrees>-1.64282326586544513702392578125</LongitudeDegrees>
            </Position>
            <AltitudeMeters>628.79998779296875</AltitudeMeters>
            <DistanceMeters>13656.501621363</DistanceMeters>
          </Trackpoint>
          <Trackpoint>
            <Time>2022-11-06T11:11:51.000Z</Time>
            <Position>
              <LatitudeDegrees>41.36120033450424671173095703125</LatitudeDegrees>
              <LongitudeDegrees>-1.64276945404708385467529296875</LongitudeDegrees>
            </Position>
            <AltitudeMeters>628.5999755859375</AltitudeMeters>
            <DistanceMeters>13661.627781959</DistanceMeters>
          </Trackpoint>
          <Trackpoint>
            <Time>2022-11-06T11:11:52.000Z</Time>
            <Position>
              <LatitudeDegrees>41.3611771166324615478515625</LatitudeDegrees>
              <LongitudeDegrees>-1.64271815679967403411865234375</LongitudeDegrees>
            </Position>
            <AltitudeMeters>628.4000244140625</AltitudeMeters>
            <DistanceMeters>13666.632722723</DistanceMeters>
          </Trackpoint>
          <Trackpoint>
            <Time>2022-11-06T11:11:53.000Z</Time>
            <Position>
              <LatitudeDegrees>41.36116211302578449249267578125</LatitudeDegrees>
              <LongitudeDegrees>-1.64265763945877552032470703125</LongitudeDegrees>
            </Position>
            <AltitudeMeters>628.4000244140625</AltitudeMeters>
            <DistanceMeters>13671.957611457</DistanceMeters>
          </Trackpoint>
          <Trackpoint>
            <Time>2022-11-06T11:11:54.000Z</Time>
            <Position>
              <LatitudeDegrees>41.36115205474197864532470703125</LatitudeDegrees>
              <LongitudeDegrees>-1.64258438162505626678466796875</LongitudeDegrees>
            </Position>
            <AltitudeMeters>628.20001220703125</AltitudeMeters>
            <DistanceMeters>13678.178777557</DistanceMeters>
          </Trackpoint>
          <Trackpoint>
            <Time>2022-11-06T11:11:55.000Z</Time>
            <Position>
              <LatitudeDegrees>41.36115540750324726104736328125</LatitudeDegrees>
              <LongitudeDegrees>-1.64250676520168781280517578125</LongitudeDegrees>
            </Position>
            <AltitudeMeters>627.79998779296875</AltitudeMeters>
            <DistanceMeters>13684.674046385</DistanceMeters>
          </Trackpoint>
          <Trackpoint>
            <Time>2022-11-06T11:11:56.000Z</Time>
            <Position>
              <LatitudeDegrees>41.361167728900909423828125</LatitudeDegrees>
              <LongitudeDegrees>-1.64242747239768505096435546875</LongitudeDegrees>
            </Position>
            <AltitudeMeters>626.79998779296875</AltitudeMeters>
            <DistanceMeters>13691.438319985</DistanceMeters>
          </Trackpoint>
          <Trackpoint>
            <Time>2022-11-06T11:11:57.000Z</Time>
            <Position>
              <LatitudeDegrees>41.3611829839646816253662109375</LatitudeDegrees>
              <LongitudeDegrees>-1.642341725528240203857421875</LongitudeDegrees>
            </Position>
            <AltitudeMeters>626</AltitudeMeters>
            <DistanceMeters>13698.799057629</DistanceMeters>
          </Trackpoint>
          <Trackpoint>
            <Time>2022-11-06T11:11:58.000Z</Time>
            <Position>
              <LatitudeDegrees>41.36119513772428035736083984375</LatitudeDegrees>
              <LongitudeDegrees>-1.6422624327242374420166015625</LongitudeDegrees>
            </Position>
            <AltitudeMeters>624.4000244140625</AltitudeMeters>
            <DistanceMeters>13705.559325145</DistanceMeters>
          </Trackpoint>
          <Trackpoint>
            <Time>2022-11-06T11:11:59.000Z</Time>
            <Position>
              <LatitudeDegrees>41.3612094707787036895751953125</LatitudeDegrees>
              <LongitudeDegrees>-1.64220568723976612091064453125</LongitudeDegrees>
            </Position>
            <AltitudeMeters>623.4000244140625</AltitudeMeters>
            <DistanceMeters>13710.560656143</DistanceMeters>
          </Trackpoint>
          <Trackpoint>
            <Time>2022-11-06T11:12:00.000Z</Time>
            <Position>
              <LatitudeDegrees>41.36123101226985454559326171875</LatitudeDegrees>
              <LongitudeDegrees>-1.6421413980424404144287109375</LongitudeDegrees>
            </Position>
            <AltitudeMeters>622.5999755859375</AltitudeMeters>
            <DistanceMeters>13716.442341518</DistanceMeters>
          </Trackpoint>
          <Trackpoint>
            <Time>2022-11-06T11:12:01.000Z</Time>
            <Position>
              <LatitudeDegrees>41.36125347577035427093505859375</LatitudeDegrees>
              <LongitudeDegrees>-1.64206503890454769134521484375</LongitudeDegrees>
            </Position>
            <AltitudeMeters>621.5999755859375</AltitudeMeters>
            <DistanceMeters>13723.293497432</DistanceMeters>
          </Trackpoint>
          <Trackpoint>
            <Time>2022-11-06T11:12:02.000Z</Time>
            <Position>
              <LatitudeDegrees>41.36128197424113750457763671875</LatitudeDegrees>
              <LongitudeDegrees>-1.64198909886181354522705078125</LongitudeDegrees>
            </Position>
            <AltitudeMeters>621</AltitudeMeters>
            <DistanceMeters>13730.386208893</DistanceMeters>
          </Trackpoint>
          <Trackpoint>
            <Time>2022-11-06T11:12:03.000Z</Time>
            <Position>
              <LatitudeDegrees>41.36130980215966701507568359375</LatitudeDegrees>
              <LongitudeDegrees>-1.64192028343677520751953125</LongitudeDegrees>
            </Position>
            <AltitudeMeters>620.5999755859375</AltitudeMeters>
            <DistanceMeters>13736.916141586</DistanceMeters>
          </Trackpoint>
          <Trackpoint>
            <Time>2022-11-06T11:12:04.000Z</Time>
            <Position>
              <LatitudeDegrees>41.3613291643559932708740234375</LatitudeDegrees>
              <LongitudeDegrees>-1.641870327293872833251953125</LongitudeDegrees>
            </Position>
            <AltitudeMeters>619.5999755859375</AltitudeMeters>
            <DistanceMeters>13741.613960955</DistanceMeters>
          </Trackpoint>
          <Trackpoint>
            <Time>2022-11-06T11:12:05.000Z</Time>
            <Position>
              <LatitudeDegrees>41.361343748867511749267578125</LatitudeDegrees>
              <LongitudeDegrees>-1.64183202199637889862060546875</LongitudeDegrees>
            </Position>
            <AltitudeMeters>619</AltitudeMeters>
            <DistanceMeters>13745.203657194</DistanceMeters>
          </Trackpoint>
          <Trackpoint>
            <Time>2022-11-06T11:12:06.000Z</Time>
            <Position>
              <LatitudeDegrees>41.361360847949981689453125</LatitudeDegrees>
              <LongitudeDegrees>-1.64178407751023769378662109375</LongitudeDegrees>
            </Position>
            <AltitudeMeters>618.5999755859375</AltitudeMeters>
            <DistanceMeters>13749.638463446</DistanceMeters>
          </Trackpoint>
          <Trackpoint>
            <Time>2022-11-06T11:12:07.000Z</Time>
            <Position>
              <LatitudeDegrees>41.3613891787827014923095703125</LatitudeDegrees>
              <LongitudeDegrees>-1.64171081967651844024658203125</LongitudeDegrees>
            </Position>
            <AltitudeMeters>617.79998779296875</AltitudeMeters>
            <DistanceMeters>13756.522491422</DistanceMeters>
          </Trackpoint>
          <Trackpoint>
            <Time>2022-11-06T11:12:08.000Z</Time>
            <Position>
              <LatitudeDegrees>41.3614227063953876495361328125</LatitudeDegrees>
              <LongitudeDegrees>-1.64161459542810916900634765625</LongitudeDegrees>
            </Position>
            <AltitudeMeters>616</AltitudeMeters>
            <DistanceMeters>13765.384974421</DistanceMeters>
          </Trackpoint>
          <Trackpoint>
            <Time>2022-11-06T11:12:09.000Z</Time>
            <Position>
              <LatitudeDegrees>41.3614532165229320526123046875</LatitudeDegrees>
              <LongitudeDegrees>-1.64151535369455814361572265625</LongitudeDegrees>
            </Position>
            <AltitudeMeters>613.79998779296875</AltitudeMeters>
            <DistanceMeters>13774.343731</DistanceMeters>
          </Trackpoint>
          <Trackpoint>
            <Time>2022-11-06T11:12:10.000Z</Time>
            <Position>
              <LatitudeDegrees>41.3614900968968868255615234375</LatitudeDegrees>
              <LongitudeDegrees>-1.6414202190935611724853515625</LongitudeDegrees>
            </Position>
            <AltitudeMeters>612.5999755859375</AltitudeMeters>
            <DistanceMeters>13783.288364994</DistanceMeters>
          </Trackpoint>
          <Trackpoint>
            <Time>2022-11-06T11:12:12.000Z</Time>
            <Position>
              <LatitudeDegrees>41.3615621812641620635986328125</LatitudeDegrees>
              <LongitudeDegrees>-1.64122827351093292236328125</LongitudeDegrees>
            </Position>
            <AltitudeMeters>611.20001220703125</AltitudeMeters>
            <DistanceMeters>13801.218473236</DistanceMeters>
          </Trackpoint>
          <Trackpoint>
            <Time>2022-11-06T11:12:14.000Z</Time>
            <Position>
              <LatitudeDegrees>41.361618675291538238525390625</LatitudeDegrees>
              <LongitudeDegrees>-1.64106574840843677520751953125</LongitudeDegrees>
            </Position>
            <AltitudeMeters>610</AltitudeMeters>
            <DistanceMeters>13816.180579542</DistanceMeters>
          </Trackpoint>
          <Trackpoint>
            <Time>2022-11-06T11:12:15.000Z</Time>
            <Position>
              <LatitudeDegrees>41.361655555665493011474609375</LatitudeDegrees>
              <LongitudeDegrees>-1.64100699126720428466796875</LongitudeDegrees>
            </Position>
            <AltitudeMeters>609.20001220703125</AltitudeMeters>
            <DistanceMeters>13822.579201784</DistanceMeters>
          </Trackpoint>
          <Trackpoint>
            <Time>2022-11-06T11:12:16.000Z</Time>
            <Position>
              <LatitudeDegrees>41.361697800457477569580078125</LatitudeDegrees>
              <LongitudeDegrees>-1.6409447975456714630126953125</LongitudeDegrees>
            </Position>
            <AltitudeMeters>607.5999755859375</AltitudeMeters>
            <DistanceMeters>13829.58609308</DistanceMeters>
          </Trackpoint>
          <Trackpoint>
            <Time>2022-11-06T11:12:17.000Z</Time>
            <Position>
              <LatitudeDegrees>41.36173509992659091949462890625</LatitudeDegrees>
              <LongitudeDegrees>-1.640888638794422149658203125</LongitudeDegrees>
            </Position>
            <AltitudeMeters>605.79998779296875</AltitudeMeters>
            <DistanceMeters>13835.851373784</DistanceMeters>
          </Trackpoint>
          <Trackpoint>
            <Time>2022-11-06T11:12:18.000Z</Time>
            <Position>
              <LatitudeDegrees>41.36175219900906085968017578125</LatitudeDegrees>
              <LongitudeDegrees>-1.64084203541278839111328125</LongitudeDegrees>
            </Position>
            <AltitudeMeters>604.4000244140625</AltitudeMeters>
            <DistanceMeters>13840.186300436</DistanceMeters>
          </Trackpoint>
          <Trackpoint>
            <Time>2022-11-06T11:12:19.000Z</Time>
            <Position>
              <LatitudeDegrees>41.36176862753927707672119140625</LatitudeDegrees>
              <LongitudeDegrees>-1.6407971084117889404296875</LongitudeDegrees>
            </Position>
            <AltitudeMeters>603.4000244140625</AltitudeMeters>
            <DistanceMeters>13844.360991747</DistanceMeters>
          </Trackpoint>
          <Trackpoint>
            <Time>2022-11-06T11:12:20.000Z</Time>
            <Position>
              <LatitudeDegrees>41.36179494671523571014404296875</LatitudeDegrees>
              <LongitudeDegrees>-1.64075545035302639007568359375</LongitudeDegrees>
            </Position>
            <AltitudeMeters>602.5999755859375</AltitudeMeters>
            <DistanceMeters>13848.91038019</DistanceMeters>
          </Trackpoint>
          <Trackpoint>
            <Time>2022-11-06T11:12:21.000Z</Time>
            <Position>
              <LatitudeDegrees>41.361827552318572998046875</LatitudeDegrees>
              <LongitudeDegrees>-1.64071328938007354736328125</LongitudeDegrees>
            </Position>
            <AltitudeMeters>601.79998779296875</AltitudeMeters>
            <DistanceMeters>13853.967373021</DistanceMeters>
          </Trackpoint>
          <Trackpoint>
            <Time>2022-11-06T11:12:22.000Z</Time>
            <Position>
              <LatitudeDegrees>41.36185638606548309326171875</LatitudeDegrees>
              <LongitudeDegrees>-1.64066056720912456512451171875</LongitudeDegrees>
            </Position>
            <AltitudeMeters>601.4000244140625</AltitudeMeters>
            <DistanceMeters>13859.417136449</DistanceMeters>
          </Trackpoint>
          <Trackpoint>
            <Time>2022-11-06T11:12:23.000Z</Time>
            <Position>
              <LatitudeDegrees>41.36188530363142490386962890625</LatitudeDegrees>
              <LongitudeDegrees>-1.6406044922769069671630859375</LongitudeDegrees>
            </Position>
            <AltitudeMeters>600.5999755859375</AltitudeMeters>
            <DistanceMeters>13865.100496673</DistanceMeters>
          </Trackpoint>
          <Trackpoint>
            <Time>2022-11-06T11:12:24.000Z</Time>
            <Position>
              <LatitudeDegrees>41.36190734803676605224609375</LatitudeDegrees>
              <LongitudeDegrees>-1.640554368495941162109375</LongitudeDegrees>
            </Position>
            <AltitudeMeters>600.20001220703125</AltitudeMeters>
            <DistanceMeters>13869.953376166</DistanceMeters>
          </Trackpoint>
          <Trackpoint>
            <Time>2022-11-06T11:12:25.000Z</Time>
            <Position>
              <LatitudeDegrees>41.3619232736527919769287109375</LatitudeDegrees>
              <LongitudeDegrees>-1.64050810039043426513671875</LongitudeDegrees>
            </Position>
            <AltitudeMeters>599.20001220703125</AltitudeMeters>
            <DistanceMeters>13874.205224357</DistanceMeters>
          </Trackpoint>
          <Trackpoint>
            <Time>2022-11-06T11:12:26.000Z</Time>
            <Position>
              <LatitudeDegrees>41.36193215847015380859375</LatitudeDegrees>
              <LongitudeDegrees>-1.64046409539878368377685546875</LongitudeDegrees>
            </Position>
            <AltitudeMeters>598.4000244140625</AltitudeMeters>
            <DistanceMeters>13878.012227468</DistanceMeters>
          </Trackpoint>
          <Trackpoint>
            <Time>2022-11-06T11:12:27.000Z</Time>
            <Position>
              <LatitudeDegrees>41.361939199268817901611328125</LatitudeDegrees>
              <LongitudeDegrees>-1.6404231078922748565673828125</LongitudeDegrees>
            </Position>
            <AltitudeMeters>597.79998779296875</AltitudeMeters>
            <DistanceMeters>13881.525646672</DistanceMeters>
          </Trackpoint>
          <Trackpoint>
            <Time>2022-11-06T11:12:28.000Z</Time>
            <Position>
              <LatitudeDegrees>41.3619497604668140411376953125</LatitudeDegrees>
              <LongitudeDegrees>-1.6403822042047977447509765625</LongitudeDegrees>
            </Position>
            <AltitudeMeters>597.4000244140625</AltitudeMeters>
            <DistanceMeters>13885.139161656</DistanceMeters>
          </Trackpoint>
          <Trackpoint>
            <Time>2022-11-06T11:12:29.000Z</Time>
            <Position>
              <LatitudeDegrees>41.3619651831686496734619140625</LatitudeDegrees>
              <LongitudeDegrees>-1.64034205488860607147216796875</LongitudeDegrees>
            </Position>
            <AltitudeMeters>597</AltitudeMeters>
            <DistanceMeters>13888.906824083</DistanceMeters>
          </Trackpoint>
          <Trackpoint>
            <Time>2022-11-06T11:12:30.000Z</Time>
            <Position>
              <LatitudeDegrees>41.3619759120047092437744140625</LatitudeDegrees>
              <LongitudeDegrees>-1.64029276929795742034912109375</LongitudeDegrees>
            </Position>
            <AltitudeMeters>596.5999755859375</AltitudeMeters>
            <DistanceMeters>13893.194624876</DistanceMeters>
          </Trackpoint>
          <Trackpoint>
            <Time>2022-11-06T11:12:31.000Z</Time>
            <Position>
              <LatitudeDegrees>41.36198915541172027587890625</LatitudeDegrees>
              <LongitudeDegrees>-1.64023878984153270721435546875</LongitudeDegrees>
            </Position>
            <AltitudeMeters>595.79998779296875</AltitudeMeters>
            <DistanceMeters>13897.939304062</DistanceMeters>
          </Trackpoint>
          <Trackpoint>
            <Time>2022-11-06T11:12:32.000Z</Time>
            <Position>
              <LatitudeDegrees>41.3620020635426044464111328125</LatitudeDegrees>
              <LongitudeDegrees>-1.640176512300968170166015625</LongitudeDegrees>
            </Position>
            <AltitudeMeters>595.4000244140625</AltitudeMeters>
            <DistanceMeters>13903.336620674</DistanceMeters>
          </Trackpoint>
          <Trackpoint>
            <Time>2022-11-06T11:12:34.000Z</Time>
            <Position>
              <LatitudeDegrees>41.36201840825378894805908203125</LatitudeDegrees>
              <LongitudeDegrees>-1.64004248566925525665283203125</LongitudeDegrees>
            </Position>
            <AltitudeMeters>594.20001220703125</AltitudeMeters>
            <DistanceMeters>13914.680279225</DistanceMeters>
          </Trackpoint>
          <Trackpoint>
            <Time>2022-11-06T11:12:36.000Z</Time>
            <Position>
              <LatitudeDegrees>41.362030394375324249267578125</LatitudeDegrees>
              <LongitudeDegrees>-1.63991323672235012054443359375</LongitudeDegrees>
            </Position>
            <AltitudeMeters>593</AltitudeMeters>
            <DistanceMeters>13925.559489304</DistanceMeters>
          </Trackpoint>
          <Trackpoint>
            <Time>2022-11-06T11:12:38.000Z</Time>
            <Position>
              <LatitudeDegrees>41.36202695779502391815185546875</LatitudeDegrees>
              <LongitudeDegrees>-1.6398011706769466400146484375</LongitudeDegrees>
            </Position>
            <AltitudeMeters>592</AltitudeMeters>
            <DistanceMeters>13934.928660725</DistanceMeters>
          </Trackpoint>
          <Trackpoint>
            <Time>2022-11-06T11:12:39.000Z</Time>
            <Position>
              <LatitudeDegrees>41.36202536523342132568359375</LatitudeDegrees>
              <LongitudeDegrees>-1.63975146599113941192626953125</LongitudeDegrees>
            </Position>
            <AltitudeMeters>591.20001220703125</AltitudeMeters>
            <DistanceMeters>13939.08383896</DistanceMeters>
          </Trackpoint>
          <Trackpoint>
            <Time>2022-11-06T11:12:40.000Z</Time>
            <Position>
              <LatitudeDegrees>41.36202226392924785614013671875</LatitudeDegrees>
              <LongitudeDegrees>-1.6397009231150150299072265625</LongitudeDegrees>
            </Position>
            <AltitudeMeters>590.5999755859375</AltitudeMeters>
            <DistanceMeters>13943.3197287</DistanceMeters>
          </Trackpoint>
          <Trackpoint>
            <Time>2022-11-06T11:12:41.000Z</Time>
            <Position>
              <LatitudeDegrees>41.3620201684534549713134765625</LatitudeDegrees>
              <LongitudeDegrees>-1.63965255953371524810791015625</LongitudeDegrees>
            </Position>
            <AltitudeMeters>590.20001220703125</AltitudeMeters>
            <DistanceMeters>13947.367018987</DistanceMeters>
          </Trackpoint>
          <Trackpoint>
            <Time>2022-11-06T11:12:42.000Z</Time>
            <Position>
              <LatitudeDegrees>41.36201865971088409423828125</LatitudeDegrees>
              <LongitudeDegrees>-1.63960310630500316619873046875</LongitudeDegrees>
            </Position>
            <AltitudeMeters>589.4000244140625</AltitudeMeters>
            <DistanceMeters>13951.501500177</DistanceMeters>
          </Trackpoint>
          <Trackpoint>
            <Time>2022-11-06T11:12:43.000Z</Time>
            <Position>
              <LatitudeDegrees>41.36201824061572551727294921875</LatitudeDegrees>
              <LongitudeDegrees>-1.63955382071435451507568359375</LongitudeDegrees>
            </Position>
            <AltitudeMeters>589</AltitudeMeters>
            <DistanceMeters>13955.617374739</DistanceMeters>
          </Trackpoint>
          <Trackpoint>
            <Time>2022-11-06T11:12:44.000Z</Time>
            <Position>
              <LatitudeDegrees>41.36202343739569187164306640625</LatitudeDegrees>
              <LongitudeDegrees>-1.6395094804465770721435546875</LongitudeDegrees>
            </Position>
            <AltitudeMeters>588.4000244140625</AltitudeMeters>
            <DistanceMeters>13959.365814274</DistanceMeters>
          </Trackpoint>
          <Trackpoint>
            <Time>2022-11-06T11:12:45.000Z</Time>
            <Position>
              <LatitudeDegrees>41.36203098110854625701904296875</LatitudeDegrees>
              <LongitudeDegrees>-1.6394709236919879913330078125</LongitudeDegrees>
            </Position>
            <AltitudeMeters>587.79998779296875</AltitudeMeters>
            <DistanceMeters>13962.694463219</DistanceMeters>
          </Trackpoint>
          <Trackpoint>
            <Time>2022-11-06T11:12:46.000Z</Time>
            <Position>
              <LatitudeDegrees>41.3620362617075443267822265625</LatitudeDegrees>
              <LongitudeDegrees>-1.63943379186093807220458984375</LongitudeDegrees>
            </Position>
            <AltitudeMeters>587.4000244140625</AltitudeMeters>
            <DistanceMeters>13965.851867911</DistanceMeters>
          </Trackpoint>
          <Trackpoint>
            <Time>2022-11-06T11:12:47.000Z</Time>
            <Position>
              <LatitudeDegrees>41.362045817077159881591796875</LatitudeDegrees>
              <LongitudeDegrees>-1.63938618265092372894287109375</LongitudeDegrees>
            </Position>
            <AltitudeMeters>586.5999755859375</AltitudeMeters>
            <DistanceMeters>13969.969935852</DistanceMeters>
          </Trackpoint>
          <Trackpoint>
            <Time>2022-11-06T11:12:48.000Z</Time>
            <Position>
              <LatitudeDegrees>41.36206023395061492919921875</LatitudeDegrees>
              <LongitudeDegrees>-1.63933237083256244659423828125</LongitudeDegrees>
            </Position>
            <AltitudeMeters>585.4000244140625</AltitudeMeters>
            <DistanceMeters>13974.744023508</DistanceMeters>
          </Trackpoint>
          <Trackpoint>
            <Time>2022-11-06T11:12:49.000Z</Time>
            <Position>
              <LatitudeDegrees>41.36207607574760913848876953125</LatitudeDegrees>
              <LongitudeDegrees>-1.63927202112972736358642578125</LongitudeDegrees>
            </Position>
            <AltitudeMeters>584.20001220703125</AltitudeMeters>
            <DistanceMeters>13980.084152851</DistanceMeters>
          </Trackpoint>
          <Trackpoint>
            <Time>2022-11-06T11:12:50.000Z</Time>
            <Position>
              <LatitudeDegrees>41.36208261363208293914794921875</LatitudeDegrees>
              <LongitudeDegrees>-1.639210917055606842041015625</LongitudeDegrees>
            </Position>
            <AltitudeMeters>583.5999755859375</AltitudeMeters>
            <DistanceMeters>13985.240173124</DistanceMeters>
          </Trackpoint>
          <Trackpoint>
            <Time>2022-11-06T11:12:51.000Z</Time>
            <Position>
              <LatitudeDegrees>41.3620808534324169158935546875</LatitudeDegrees>
              <LongitudeDegrees>-1.63914998061954975128173828125</LongitudeDegrees>
            </Position>
            <AltitudeMeters>583</AltitudeMeters>
            <DistanceMeters>13990.335413038</DistanceMeters>
          </Trackpoint>
          <Trackpoint>
            <Time>2022-11-06T11:12:52.000Z</Time>
            <Position>
              <LatitudeDegrees>41.3620687834918498992919921875</LatitudeDegrees>
              <LongitudeDegrees>-1.6390856914222240447998046875</LongitudeDegrees>
            </Position>
            <AltitudeMeters>582.79998779296875</AltitudeMeters>
            <DistanceMeters>13995.871483797</DistanceMeters>
          </Trackpoint>
          <Trackpoint>
            <Time>2022-11-06T11:12:53.000Z</Time>
            <Position>
              <LatitudeDegrees>41.36204841546714305877685546875</LatitudeDegrees>
              <LongitudeDegrees>-1.63901587016880512237548828125</LongitudeDegrees>
            </Position>
            <AltitudeMeters>582.20001220703125</AltitudeMeters>
            <DistanceMeters>14002.12955391</DistanceMeters>
          </Trackpoint>
          <Trackpoint>
            <Time>2022-11-06T11:12:54.000Z</Time>
            <Position>
              <LatitudeDegrees>41.36202326975762844085693359375</LatitudeDegrees>
              <LongitudeDegrees>-1.63894864730536937713623046875</LongitudeDegrees>
            </Position>
            <AltitudeMeters>581.79998779296875</AltitudeMeters>
            <DistanceMeters>14008.404195995</DistanceMeters>
          </Trackpoint>
          <Trackpoint>
            <Time>2022-11-06T11:12:55.000Z</Time>
            <Position>
              <LatitudeDegrees>41.36200047098100185394287109375</LatitudeDegrees>
              <LongitudeDegrees>-1.638876311480998992919921875</LongitudeDegrees>
            </Position>
            <AltitudeMeters>581.4000244140625</AltitudeMeters>
            <DistanceMeters>14014.958973163</DistanceMeters>
          </Trackpoint>
          <Trackpoint>
            <Time>2022-11-06T11:12:56.000Z</Time>
            <Position>
              <LatitudeDegrees>41.36196769773960113525390625</LatitudeDegrees>
              <LongitudeDegrees>-1.63879559375345706939697265625</LongitudeDegrees>
            </Position>
            <AltitudeMeters>580.79998779296875</AltitudeMeters>
            <DistanceMeters>14022.624985</DistanceMeters>
          </Trackpoint>
          <Trackpoint>
            <Time>2022-11-06T11:12:58.000Z</Time>
            <Position>
              <LatitudeDegrees>41.36188848875463008880615234375</LatitudeDegrees>
              <LongitudeDegrees>-1.638641618192195892333984375</LongitudeDegrees>
            </Position>
            <AltitudeMeters>579.79998779296875</AltitudeMeters>
            <DistanceMeters>14038.218923841</DistanceMeters>
          </Trackpoint>
          <Trackpoint>
            <Time>2022-11-06T11:13:00.000Z</Time>
            <Position>
              <LatitudeDegrees>41.361801736056804656982421875</LatitudeDegrees>
              <LongitudeDegrees>-1.6385321505367755889892578125</LongitudeDegrees>
            </Position>
            <AltitudeMeters>578.20001220703125</AltitudeMeters>
            <DistanceMeters>14051.517572161</DistanceMeters>
          </Trackpoint>
          <Trackpoint>
            <Time>2022-11-06T11:13:01.000Z</Time>
            <Position>
              <LatitudeDegrees>41.36175773106515407562255859375</LatitudeDegrees>
              <LongitudeDegrees>-1.6384701244533061981201171875</LongitudeDegrees>
            </Position>
            <AltitudeMeters>577.79998779296875</AltitudeMeters>
            <DistanceMeters>14058.64647602</DistanceMeters>
          </Trackpoint>
          <Trackpoint>
            <Time>2022-11-06T11:13:02.000Z</Time>
            <Position>
              <LatitudeDegrees>41.36173208244144916534423828125</LatitudeDegrees>
              <LongitudeDegrees>-1.6384215094149112701416015625</LongitudeDegrees>
            </Position>
            <AltitudeMeters>576.79998779296875</AltitudeMeters>
            <DistanceMeters>14063.609745964</DistanceMeters>
          </Trackpoint>
          <Trackpoint>
            <Time>2022-11-06T11:13:03.000Z</Time>
            <Position>
              <LatitudeDegrees>41.36169436387717723846435546875</LatitudeDegrees>
              <LongitudeDegrees>-1.63835830986499786376953125</LongitudeDegrees>
            </Position>
            <AltitudeMeters>576</AltitudeMeters>
            <DistanceMeters>14070.354634779</DistanceMeters>
          </Trackpoint>
          <Trackpoint>
            <Time>2022-11-06T11:13:04.000Z</Time>
            <Position>
              <LatitudeDegrees>41.36165061034262180328369140625</LatitudeDegrees>
              <LongitudeDegrees>-1.6382692940533161163330078125</LongitudeDegrees>
            </Position>
            <AltitudeMeters>575.4000244140625</AltitudeMeters>
            <DistanceMeters>14079.24306202</DistanceMeters>
          </Trackpoint>
          <Trackpoint>
            <Time>2022-11-06T11:13:05.000Z</Time>
            <Position>
              <LatitudeDegrees>41.3616245426237583160400390625</LatitudeDegrees>
              <LongitudeDegrees>-1.63820986635982990264892578125</LongitudeDegrees>
            </Position>
            <AltitudeMeters>573.4000244140625</AltitudeMeters>
            <DistanceMeters>14084.993552428</DistanceMeters>
          </Trackpoint>
          <Trackpoint>
            <Time>2022-11-06T11:13:06.000Z</Time>
            <Position>
              <LatitudeDegrees>41.3615928590297698974609375</LatitudeDegrees>
              <LongitudeDegrees>-1.6381452418863773345947265625</LongitudeDegrees>
            </Position>
            <AltitudeMeters>572.4000244140625</AltitudeMeters>
            <DistanceMeters>14091.442079549</DistanceMeters>
          </Trackpoint>
          <Trackpoint>
            <Time>2022-11-06T11:13:07.000Z</Time>
            <Position>
              <LatitudeDegrees>41.3615537993609905242919921875</LatitudeDegrees>
              <LongitudeDegrees>-1.63809319026768207550048828125</LongitudeDegrees>
            </Position>
            <AltitudeMeters>571</AltitudeMeters>
            <DistanceMeters>14097.591710444</DistanceMeters>
          </Trackpoint>
          <Trackpoint>
            <Time>2022-11-06T11:13:08.000Z</Time>
            <Position>
              <LatitudeDegrees>41.36150375939905643463134765625</LatitudeDegrees>
              <LongitudeDegrees>-1.63804541341960430145263671875</LongitudeDegrees>
            </Position>
            <AltitudeMeters>570.4000244140625</AltitudeMeters>
            <DistanceMeters>14104.442866358</DistanceMeters>
          </Trackpoint>
          <Trackpoint>
            <Time>2022-11-06T11:13:09.000Z</Time>
            <Position>
              <LatitudeDegrees>41.3614458404481410980224609375</LatitudeDegrees>
              <LongitudeDegrees>-1.63799998350441455841064453125</LongitudeDegrees>
            </Position>
            <AltitudeMeters>569.5999755859375</AltitudeMeters>
            <DistanceMeters>14111.922863259</DistanceMeters>
          </Trackpoint>
          <Trackpoint>
            <Time>2022-11-06T11:13:10.000Z</Time>
            <Position>
              <LatitudeDegrees>41.3613863289356231689453125</LatitudeDegrees>
              <LongitudeDegrees>-1.63795170374214649200439453125</LongitudeDegrees>
            </Position>
            <AltitudeMeters>569</AltitudeMeters>
            <DistanceMeters>14119.677881577</DistanceMeters>
          </Trackpoint>
          <Trackpoint>
            <Time>2022-11-06T11:13:11.000Z</Time>
            <Position>
              <LatitudeDegrees>41.36132891289889812469482421875</LatitudeDegrees>
              <LongitudeDegrees>-1.63789353333413600921630859375</LongitudeDegrees>
            </Position>
            <AltitudeMeters>568.4000244140625</AltitudeMeters>
            <DistanceMeters>14127.705811297</DistanceMeters>
          </Trackpoint>
          <Trackpoint>
            <Time>2022-11-06T11:13:12.000Z</Time>
            <Position>
              <LatitudeDegrees>41.36126319877803325653076171875</LatitudeDegrees>
              <LongitudeDegrees>-1.63781021721661090850830078125</LongitudeDegrees>
            </Position>
            <AltitudeMeters>567.5999755859375</AltitudeMeters>
            <DistanceMeters>14137.80237175</DistanceMeters>
          </Trackpoint>
          <Trackpoint>
            <Time>2022-11-06T11:13:13.000Z</Time>
            <Position>
              <LatitudeDegrees>41.3612200319766998291015625</LatitudeDegrees>
              <LongitudeDegrees>-1.63774299435317516326904296875</LongitudeDegrees>
            </Position>
            <AltitudeMeters>566.4000244140625</AltitudeMeters>
            <DistanceMeters>14145.193104623</DistanceMeters>
          </Trackpoint>
          <Trackpoint>
            <Time>2022-11-06T11:13:14.000Z</Time>
            <Position>
              <LatitudeDegrees>41.3611645437777042388916015625</LatitudeDegrees>
              <LongitudeDegrees>-1.63766085170209407806396484375</LongitudeDegrees>
            </Position>
            <AltitudeMeters>565.5999755859375</AltitudeMeters>
            <DistanceMeters>14154.425868112</DistanceMeters>
          </Trackpoint>
          <Trackpoint>
            <Time>2022-11-06T11:13:15.000Z</Time>
            <Position>
              <LatitudeDegrees>41.36110511608421802520751953125</LatitudeDegrees>
              <LongitudeDegrees>-1.63759714923799037933349609375</LongitudeDegrees>
            </Position>
            <AltitudeMeters>564.79998779296875</AltitudeMeters>
            <DistanceMeters>14162.915748569</DistanceMeters>
          </Trackpoint>
          <Trackpoint>
            <Time>2022-11-06T11:13:16.000Z</Time>
            <Position>
              <LatitudeDegrees>41.361043341457843780517578125</LatitudeDegrees>
              <LongitudeDegrees>-1.63755607791244983673095703125</LongitudeDegrees>
            </Position>
            <AltitudeMeters>564.4000244140625</AltitudeMeters>
            <DistanceMeters>14170.600584282</DistanceMeters>
          </Trackpoint>
          <Trackpoint>
            <Time>2022-11-06T11:13:17.000Z</Time>
            <Position>
              <LatitudeDegrees>41.36097368784248828887939453125</LatitudeDegrees>
              <LongitudeDegrees>-1.63754233159124851226806640625</LongitudeDegrees>
            </Position>
            <AltitudeMeters>564.20001220703125</AltitudeMeters>
            <DistanceMeters>14178.437840178</DistanceMeters>
          </Trackpoint>
          <Trackpoint>
            <Time>2022-11-06T11:13:18.000Z</Time>
            <Position>
              <LatitudeDegrees>41.360911913216114044189453125</LatitudeDegrees>
              <LongitudeDegrees>-1.637528501451015472412109375</LongitudeDegrees>
            </Position>
            <AltitudeMeters>563.79998779296875</AltitudeMeters>
            <DistanceMeters>14185.410496169</DistanceMeters>
          </Trackpoint>
          <Trackpoint>
            <Time>2022-11-06T11:13:19.000Z</Time>
            <Position>
              <LatitudeDegrees>41.3608644716441631317138671875</LatitudeDegrees>
              <LongitudeDegrees>-1.6375038586556911468505859375</LongitudeDegrees>
            </Position>
            <AltitudeMeters>562.79998779296875</AltitudeMeters>
            <DistanceMeters>14191.077945499</DistanceMeters>
          </Trackpoint>
          <Trackpoint>
            <Time>2022-11-06T11:13:20.000Z</Time>
            <Position>
              <LatitudeDegrees>41.360828764736652374267578125</LatitudeDegrees>
              <LongitudeDegrees>-1.63745549507439136505126953125</LongitudeDegrees>
            </Position>
            <AltitudeMeters>562</AltitudeMeters>
            <DistanceMeters>14196.74539483</DistanceMeters>
          </Trackpoint>
          <Trackpoint>
            <Time>2022-11-06T11:13:21.000Z</Time>
            <Position>
              <LatitudeDegrees>41.36080219410359859466552734375</LatitudeDegrees>
              <LongitudeDegrees>-1.63739430718123912811279296875</LongitudeDegrees>
            </Position>
            <AltitudeMeters>561.5999755859375</AltitudeMeters>
            <DistanceMeters>14202.65082921</DistanceMeters>
          </Trackpoint>
          <Trackpoint>
            <Time>2022-11-06T11:13:22.000Z</Time>
            <Position>
              <LatitudeDegrees>41.360781490802764892578125</LatitudeDegrees>
              <LongitudeDegrees>-1.6373087279498577117919921875</LongitudeDegrees>
            </Position>
            <AltitudeMeters>561.20001220703125</AltitudeMeters>
            <DistanceMeters>14210.16214851</DistanceMeters>
          </Trackpoint>
          <Trackpoint>
            <Time>2022-11-06T11:13:24.000Z</Time>
            <Position>
              <LatitudeDegrees>41.36073664762079715728759765625</LatitudeDegrees>
              <LongitudeDegrees>-1.63714117370545864105224609375</LongitudeDegrees>
            </Position>
            <AltitudeMeters>560.5999755859375</AltitudeMeters>
            <DistanceMeters>14225.022819744</DistanceMeters>
          </Trackpoint>
          <Trackpoint>
            <Time>2022-11-06T11:13:25.000Z</Time>
            <Position>
              <LatitudeDegrees>41.36071166954934597015380859375</LatitudeDegrees>
              <LongitudeDegrees>-1.63705802522599697113037109375</LongitudeDegrees>
            </Position>
            <AltitudeMeters>560.20001220703125</AltitudeMeters>
            <DistanceMeters>14232.504627271</DistanceMeters>
          </Trackpoint>
          <Trackpoint>
            <Time>2022-11-06T11:13:26.000Z</Time>
            <Position>
              <LatitudeDegrees>41.36069406755268573760986328125</LatitudeDegrees>
              <LongitudeDegrees>-1.6369717754423618316650390625</LongitudeDegrees>
            </Position>
            <AltitudeMeters>560</AltitudeMeters>
            <DistanceMeters>14239.971332834</DistanceMeters>
          </Trackpoint>
          <Trackpoint>
            <Time>2022-11-06T11:13:28.000Z</Time>
            <Position>
              <LatitudeDegrees>41.3606854341924190521240234375</LatitudeDegrees>
              <LongitudeDegrees>-1.6367756389081478118896484375</LongitudeDegrees>
            </Position>
            <AltitudeMeters>559.4000244140625</AltitudeMeters>
            <DistanceMeters>14256.38456745</DistanceMeters>
          </Trackpoint>
          <Trackpoint>
            <Time>2022-11-06T11:13:29.000Z</Time>
            <Position>
              <LatitudeDegrees>41.3606830872595310211181640625</LatitudeDegrees>
              <LongitudeDegrees>-1.63667011074721813201904296875</LongitudeDegrees>
            </Position>
            <AltitudeMeters>558.5999755859375</AltitudeMeters>
            <DistanceMeters>14265.204152388</DistanceMeters>
          </Trackpoint>
          <Trackpoint>
            <Time>2022-11-06T11:13:31.000Z</Time>
            <Position>
              <LatitudeDegrees>41.3606532476842403411865234375</LatitudeDegrees>
              <LongitudeDegrees>-1.63646542467176914215087890625</LongitudeDegrees>
            </Position>
            <AltitudeMeters>557.20001220703125</AltitudeMeters>
            <DistanceMeters>14282.62335526</DistanceMeters>
          </Trackpoint>
          <Trackpoint>
            <Time>2022-11-06T11:13:32.000Z</Time>
            <Position>
              <LatitudeDegrees>41.36061561293900012969970703125</LatitudeDegrees>
              <LongitudeDegrees>-1.63637238554656505584716796875</LongitudeDegrees>
            </Position>
            <AltitudeMeters>556.4000244140625</AltitudeMeters>
            <DistanceMeters>14291.453172926</DistanceMeters>
          </Trackpoint>
          <Trackpoint>
            <Time>2022-11-06T11:13:33.000Z</Time>
            <Position>
              <LatitudeDegrees>41.36056196875870227813720703125</LatitudeDegrees>
              <LongitudeDegrees>-1.63628856651484966278076171875</LongitudeDegrees>
            </Position>
            <AltitudeMeters>555.5999755859375</AltitudeMeters>
            <DistanceMeters>14300.655567011</DistanceMeters>
          </Trackpoint>
          <Trackpoint>
            <Time>2022-11-06T11:13:34.000Z</Time>
            <Position>
              <LatitudeDegrees>41.36049558408558368682861328125</LatitudeDegrees>
              <LongitudeDegrees>-1.63621379993855953216552734375</LongitudeDegrees>
            </Position>
            <AltitudeMeters>555</AltitudeMeters>
            <DistanceMeters>14310.331041288</DistanceMeters>
          </Trackpoint>
          <Trackpoint>
            <Time>2022-11-06T11:13:35.000Z</Time>
            <Position>
              <LatitudeDegrees>41.3604296185076236724853515625</LatitudeDegrees>
              <LongitudeDegrees>-1.63614590652287006378173828125</LongitudeDegrees>
            </Position>
            <AltitudeMeters>554.4000244140625</AltitudeMeters>
            <DistanceMeters>14319.609659117</DistanceMeters>
          </Trackpoint>
          <Trackpoint>
            <Time>2022-11-06T11:13:36.000Z</Time>
            <Position>
              <LatitudeDegrees>41.3603670895099639892578125</LatitudeDegrees>
              <LongitudeDegrees>-1.6360899992287158966064453125</LongitudeDegrees>
            </Position>
            <AltitudeMeters>553.4000244140625</AltitudeMeters>
            <DistanceMeters>14327.991424727</DistanceMeters>
          </Trackpoint>
          <Trackpoint>
            <Time>2022-11-06T11:13:37.000Z</Time>
            <Position>
              <LatitudeDegrees>41.36030665598809719085693359375</LatitudeDegrees>
              <LongitudeDegrees>-1.6360531188547611236572265625</LongitudeDegrees>
            </Position>
            <AltitudeMeters>552.79998779296875</AltitudeMeters>
            <DistanceMeters>14335.388874507</DistanceMeters>
          </Trackpoint>
          <Trackpoint>
            <Time>2022-11-06T11:13:38.000Z</Time>
            <Position>
              <LatitudeDegrees>41.36024731211364269256591796875</LatitudeDegrees>
              <LongitudeDegrees>-1.6360450722277164459228515625</LongitudeDegrees>
            </Position>
            <AltitudeMeters>552.4000244140625</AltitudeMeters>
            <DistanceMeters>14342.027835504</DistanceMeters>
          </Trackpoint>
          <Trackpoint>
            <Time>2022-11-06T11:13:39.000Z</Time>
            <Position>
              <LatitudeDegrees>41.3601887226104736328125</LatitudeDegrees>
              <LongitudeDegrees>-1.636064685881137847900390625</LongitudeDegrees>
            </Position>
            <AltitudeMeters>552.20001220703125</AltitudeMeters>
            <DistanceMeters>14348.75126935</DistanceMeters>
          </Trackpoint>
          <Trackpoint>
            <Time>2022-11-06T11:13:40.000Z</Time>
            <Position>
              <LatitudeDegrees>41.3601449690759181976318359375</LatitudeDegrees>
              <LongitudeDegrees>-1.636114306747913360595703125</LongitudeDegrees>
            </Position>
            <AltitudeMeters>552</AltitudeMeters>
            <DistanceMeters>14355.146362486</DistanceMeters>
          </Trackpoint>
          <Trackpoint>
            <Time>2022-11-06T11:13:41.000Z</Time>
            <Position>
              <LatitudeDegrees>41.36010699905455112457275390625</LatitudeDegrees>
              <LongitudeDegrees>-1.63618630729615688323974609375</LongitudeDegrees>
            </Position>
            <AltitudeMeters>551.79998779296875</AltitudeMeters>
            <DistanceMeters>14362.49789345</DistanceMeters>
          </Trackpoint>
          <Trackpoint>
            <Time>2022-11-06T11:13:42.000Z</Time>
            <Position>
              <LatitudeDegrees>41.3600705377757549285888671875</LatitudeDegrees>
              <LongitudeDegrees>-1.6362566314637660980224609375</LongitudeDegrees>
            </Position>
            <AltitudeMeters>551.79998779296875</AltitudeMeters>
            <DistanceMeters>14369.637556014</DistanceMeters>
          </Trackpoint>
          <Trackpoint>
            <Time>2022-11-06T11:13:43.000Z</Time>
            <Position>
              <LatitudeDegrees>41.3600318133831024169921875</LatitudeDegrees>
              <LongitudeDegrees>-1.6363220103085041046142578125</LongitudeDegrees>
            </Position>
            <AltitudeMeters>551.5999755859375</AltitudeMeters>
            <DistanceMeters>14376.595302762</DistanceMeters>
          </Trackpoint>
          <Trackpoint>
            <Time>2022-11-06T11:13:44.000Z</Time>
            <Position>
              <LatitudeDegrees>41.35999266989529132843017578125</LatitudeDegrees>
              <LongitudeDegrees>-1.636387892067432403564453125</LongitudeDegrees>
            </Position>
            <AltitudeMeters>551.5999755859375</AltitudeMeters>
            <DistanceMeters>14383.614426431</DistanceMeters>
          </Trackpoint>
          <Trackpoint>
            <Time>2022-11-06T11:13:45.000Z</Time>
            <Position>
              <LatitudeDegrees>41.3599526882171630859375</LatitudeDegrees>
              <LongitudeDegrees>-1.63645352236926555633544921875</LongitudeDegrees>
            </Position>
            <AltitudeMeters>551.5999755859375</AltitudeMeters>
            <DistanceMeters>14390.675876857</DistanceMeters>
          </Trackpoint>
          <Trackpoint>
            <Time>2022-11-06T11:13:53.000Z</Time>
            <Position>
              <LatitudeDegrees>41.35966661386191844940185546875</LatitudeDegrees>
              <LongitudeDegrees>-1.637035645544528961181640625</LongitudeDegrees>
            </Position>
            <AltitudeMeters>552.4000244140625</AltitudeMeters>
            <DistanceMeters>14448.803182859</DistanceMeters>
          </Trackpoint>
          <Trackpoint>
            <Time>2022-11-06T11:13:58.000Z</Time>
            <Position>
              <LatitudeDegrees>41.35948799550533294677734375</LatitudeDegrees>
              <LongitudeDegrees>-1.6373828239738941192626953125</LongitudeDegrees>
            </Position>
            <AltitudeMeters>552.79998779296875</AltitudeMeters>
            <DistanceMeters>14483.966277392</DistanceMeters>
          </Trackpoint>
          <Trackpoint>
            <Time>2022-11-06T11:14:01.000Z</Time>
            <Position>
              <LatitudeDegrees>41.3593880832195281982421875</LatitudeDegrees>
              <LongitudeDegrees>-1.637566052377223968505859375</LongitudeDegrees>
            </Position>
            <AltitudeMeters>553.4000244140625</AltitudeMeters>
            <DistanceMeters>14502.886380203</DistanceMeters>
          </Trackpoint>
          <Trackpoint>
            <Time>2022-11-06T11:14:02.000Z</Time>
            <Position>
              <LatitudeDegrees>41.35935279540717601776123046875</LatitudeDegrees>
              <LongitudeDegrees>-1.63762128911912441253662109375</LongitudeDegrees>
            </Position>
            <AltitudeMeters>553.79998779296875</AltitudeMeters>
            <DistanceMeters>14508.94652219</DistanceMeters>
          </Trackpoint>
          <Trackpoint>
            <Time>2022-11-06T11:14:03.000Z</Time>
            <Position>
              <LatitudeDegrees>41.35931608267128467559814453125</LatitudeDegrees>
              <LongitudeDegrees>-1.63767225109040737152099609375</LongitudeDegrees>
            </Position>
            <AltitudeMeters>554</AltitudeMeters>
            <DistanceMeters>14514.847367448</DistanceMeters>
          </Trackpoint>
          <Trackpoint>
            <Time>2022-11-06T11:14:04.000Z</Time>
            <Position>
              <LatitudeDegrees>41.359273083508014678955078125</LatitudeDegrees>
              <LongitudeDegrees>-1.637735702097415924072265625</LongitudeDegrees>
            </Position>
            <AltitudeMeters>554.4000244140625</AltitudeMeters>
            <DistanceMeters>14521.989559117</DistanceMeters>
          </Trackpoint>
          <Trackpoint>
            <Time>2022-11-06T11:14:05.000Z</Time>
            <Position>
              <LatitudeDegrees>41.3592440821230411529541015625</LatitudeDegrees>
              <LongitudeDegrees>-1.63777761161327362060546875</LongitudeDegrees>
            </Position>
            <AltitudeMeters>554.79998779296875</AltitudeMeters>
            <DistanceMeters>14526.75228439</DistanceMeters>
          </Trackpoint>
          <Trackpoint>
            <Time>2022-11-06T11:14:06.000Z</Time>
            <Position>
              <LatitudeDegrees>41.35920695029199123382568359375</LatitudeDegrees>
              <LongitudeDegrees>-1.637826897203922271728515625</LongitudeDegrees>
            </Position>
            <AltitudeMeters>555</AltitudeMeters>
            <DistanceMeters>14532.585407742</DistanceMeters>
          </Trackpoint>
          <Trackpoint>
            <Time>2022-11-06T11:14:07.000Z</Time>
            <Position>
              <LatitudeDegrees>41.35916722007095813751220703125</LatitudeDegrees>
              <LongitudeDegrees>-1.63787542842328548431396484375</LongitudeDegrees>
            </Position>
            <AltitudeMeters>555.20001220703125</AltitudeMeters>
            <DistanceMeters>14538.584145495</DistanceMeters>
          </Trackpoint>
          <Trackpoint>
            <Time>2022-11-06T11:14:08.000Z</Time>
            <Position>
              <LatitudeDegrees>41.35912732221186161041259765625</LatitudeDegrees>
              <LongitudeDegrees>-1.6379222832620143890380859375</LongitudeDegrees>
            </Position>
            <AltitudeMeters>555.20001220703125</AltitudeMeters>
            <DistanceMeters>14544.504088627</DistanceMeters>
          </Trackpoint>
          <Trackpoint>
            <Time>2022-11-06T11:14:09.000Z</Time>
            <Position>
              <LatitudeDegrees>41.359089352190494537353515625</LatitudeDegrees>
              <LongitudeDegrees>-1.6379719041287899017333984375</LongitudeDegrees>
            </Position>
            <AltitudeMeters>555.4000244140625</AltitudeMeters>
            <DistanceMeters>14550.424794392</DistanceMeters>
          </Trackpoint>
          <Trackpoint>
            <Time>2022-11-06T11:14:10.000Z</Time>
            <Position>
              <LatitudeDegrees>41.3590452633798122406005859375</LatitudeDegrees>
              <LongitudeDegrees>-1.63802948780357837677001953125</LongitudeDegrees>
            </Position>
            <AltitudeMeters>555.5999755859375</AltitudeMeters>
            <DistanceMeters>14557.297006539</DistanceMeters>
          </Trackpoint>
          <Trackpoint>
            <Time>2022-11-06T11:14:11.000Z</Time>
            <Position>
              <LatitudeDegrees>41.35901584289968013763427734375</LatitudeDegrees>
              <LongitudeDegrees>-1.63806335069239139556884765625</LongitudeDegrees>
            </Position>
            <AltitudeMeters>555.5999755859375</AltitudeMeters>
            <DistanceMeters>14561.624636207</DistanceMeters>
          </Trackpoint>
          <Trackpoint>
            <Time>2022-11-06T11:14:12.000Z</Time>
            <Position>
              <LatitudeDegrees>41.35897024534642696380615234375</LatitudeDegrees>
              <LongitudeDegrees>-1.6381154023110866546630859375</LongitudeDegrees>
            </Position>
            <AltitudeMeters>555.79998779296875</AltitudeMeters>
            <DistanceMeters>14568.30765634</DistanceMeters>
          </Trackpoint>
          <Trackpoint>
            <Time>2022-11-06T11:14:14.000Z</Time>
            <Position>
              <LatitudeDegrees>41.358903944492340087890625</LatitudeDegrees>
              <LongitudeDegrees>-1.63819930516183376312255859375</LongitudeDegrees>
            </Position>
            <AltitudeMeters>556.4000244140625</AltitudeMeters>
            <DistanceMeters>14578.485722805</DistanceMeters>
          </Trackpoint>
          <Trackpoint>
            <Time>2022-11-06T11:14:15.000Z</Time>
            <Position>
              <LatitudeDegrees>41.358862705528736114501953125</LatitudeDegrees>
              <LongitudeDegrees>-1.638256721198558807373046875</LongitudeDegrees>
            </Position>
            <AltitudeMeters>556.5999755859375</AltitudeMeters>
            <DistanceMeters>14585.125363849</DistanceMeters>
          </Trackpoint>
          <Trackpoint>
            <Time>2022-11-06T11:14:16.000Z</Time>
            <Position>
              <LatitudeDegrees>41.35883345268666744232177734375</LatitudeDegrees>
              <LongitudeDegrees>-1.63829184137284755706787109375</LongitudeDegrees>
            </Position>
            <AltitudeMeters>556.79998779296875</AltitudeMeters>
            <DistanceMeters>14589.507939872</DistanceMeters>
          </Trackpoint>
          <Trackpoint>
            <Time>2022-11-06T11:14:17.000Z</Time>
            <Position>
              <LatitudeDegrees>41.35879573412239551544189453125</LatitudeDegrees>
              <LongitudeDegrees>-1.63833408616483211517333984375</LongitudeDegrees>
            </Position>
            <AltitudeMeters>557</AltitudeMeters>
            <DistanceMeters>14594.993212401</DistanceMeters>
          </Trackpoint>
          <Trackpoint>
            <Time>2022-11-06T11:14:18.000Z</Time>
            <Position>
              <LatitudeDegrees>41.35875784792006015777587890625</LatitudeDegrees>
              <LongitudeDegrees>-1.638377420604228973388671875</LongitudeDegrees>
            </Position>
            <AltitudeMeters>557.20001220703125</AltitudeMeters>
            <DistanceMeters>14600.550447454</DistanceMeters>
          </Trackpoint>
          <Trackpoint>
            <Time>2022-11-06T11:14:19.000Z</Time>
            <Position>
              <LatitudeDegrees>41.3587170280516147613525390625</LatitudeDegrees>
              <LongitudeDegrees>-1.638419665396213531494140625</LongitudeDegrees>
            </Position>
            <AltitudeMeters>557.20001220703125</AltitudeMeters>
            <DistanceMeters>14606.303292851</DistanceMeters>
          </Trackpoint>
          <Trackpoint>
            <Time>2022-11-06T11:14:20.000Z</Time>
            <Position>
              <LatitudeDegrees>41.358678974211215972900390625</LatitudeDegrees>
              <LongitudeDegrees>-1.638459227979183197021484375</LongitudeDegrees>
            </Position>
            <AltitudeMeters>557.4000244140625</AltitudeMeters>
            <DistanceMeters>14611.675454829</DistanceMeters>
          </Trackpoint>
          <Trackpoint>
            <Time>2022-11-06T11:14:21.000Z</Time>
            <Position>
              <LatitudeDegrees>41.3586432673037052154541015625</LatitudeDegrees>
              <LongitudeDegrees>-1.638497449457645416259765625</LongitudeDegrees>
            </Position>
            <AltitudeMeters>557.4000244140625</AltitudeMeters>
            <DistanceMeters>14616.774238025</DistanceMeters>
          </Trackpoint>
          <Trackpoint>
            <Time>2022-11-06T11:14:22.000Z</Time>
            <Position>
              <LatitudeDegrees>41.3585995137691497802734375</LatitudeDegrees>
              <LongitudeDegrees>-1.6385422088205814361572265625</LongitudeDegrees>
            </Position>
            <AltitudeMeters>557.5999755859375</AltitudeMeters>
            <DistanceMeters>14622.914316946</DistanceMeters>
          </Trackpoint>
          <Trackpoint>
            <Time>2022-11-06T11:14:23.000Z</Time>
            <Position>
              <LatitudeDegrees>41.3585691712796688079833984375</LatitudeDegrees>
              <LongitudeDegrees>-1.638572216033935546875</LongitudeDegrees>
            </Position>
            <AltitudeMeters>557.79998779296875</AltitudeMeters>
            <DistanceMeters>14627.12132893</DistanceMeters>
          </Trackpoint>
          <Trackpoint>
            <Time>2022-11-06T11:14:24.000Z</Time>
            <Position>
              <LatitudeDegrees>41.3585336320102214813232421875</LatitudeDegrees>
              <LongitudeDegrees>-1.63861270062625408172607421875</LongitudeDegrees>
            </Position>
            <AltitudeMeters>557.79998779296875</AltitudeMeters>
            <DistanceMeters>14632.325288889</DistanceMeters>
          </Trackpoint>
          <Trackpoint>
            <Time>2022-11-06T11:14:25.000Z</Time>
            <Position>
              <LatitudeDegrees>41.35849046520888805389404296875</LatitudeDegrees>
              <LongitudeDegrees>-1.6386567056179046630859375</LongitudeDegrees>
            </Position>
            <AltitudeMeters>557.79998779296875</AltitudeMeters>
            <DistanceMeters>14638.374991347</DistanceMeters>
          </Trackpoint>
          <Trackpoint>
            <Time>2022-11-06T11:14:26.000Z</Time>
            <Position>
              <LatitudeDegrees>41.3584635592997074127197265625</LatitudeDegrees>
              <LongitudeDegrees>-1.6386843658983707427978515625</LongitudeDegrees>
            </Position>
            <AltitudeMeters>557.79998779296875</AltitudeMeters>
            <DistanceMeters>14642.159393709</DistanceMeters>
          </Trackpoint>
          <Trackpoint>
            <Time>2022-11-06T11:14:27.000Z</Time>
            <Position>
              <LatitudeDegrees>41.35842223651707172393798828125</LatitudeDegrees>
              <LongitudeDegrees>-1.6387331485748291015625</LongitudeDegrees>
            </Position>
            <AltitudeMeters>557.79998779296875</AltitudeMeters>
            <DistanceMeters>14648.303883078</DistanceMeters>
          </Trackpoint>
          <Trackpoint>
            <Time>2022-11-06T11:14:28.000Z</Time>
            <Position>
              <LatitudeDegrees>41.358387283980846405029296875</LatitudeDegrees>
              <LongitudeDegrees>-1.638774387538433074951171875</LongitudeDegrees>
            </Position>
            <AltitudeMeters>557.79998779296875</AltitudeMeters>
            <DistanceMeters>14653.500028628</DistanceMeters>
          </Trackpoint>
          <Trackpoint>
            <Time>2022-11-06T11:14:29.000Z</Time>
            <Position>
              <LatitudeDegrees>41.35835886932909488677978515625</LatitudeDegrees>
              <LongitudeDegrees>-1.63880766369402408599853515625</LongitudeDegrees>
            </Position>
            <AltitudeMeters>557.5999755859375</AltitudeMeters>
            <DistanceMeters>14657.711331293</DistanceMeters>
          </Trackpoint>
          <Trackpoint>
            <Time>2022-11-06T11:14:30.000Z</Time>
            <Position>
              <LatitudeDegrees>41.35832123458385467529296875</LatitudeDegrees>
              <LongitudeDegrees>-1.63884705863893032073974609375</LongitudeDegrees>
            </Position>
            <AltitudeMeters>557.5999755859375</AltitudeMeters>
            <DistanceMeters>14663.037915581</DistanceMeters>
          </Trackpoint>
          <Trackpoint>
            <Time>2022-11-06T11:14:31.000Z</Time>
            <Position>
              <LatitudeDegrees>41.3582831807434558868408203125</LatitudeDegrees>
              <LongitudeDegrees>-1.63888846524059772491455078125</LongitudeDegrees>
            </Position>
            <AltitudeMeters>557.5999755859375</AltitudeMeters>
            <DistanceMeters>14668.506700929</DistanceMeters>
          </Trackpoint>
          <Trackpoint>
            <Time>2022-11-06T11:14:32.000Z</Time>
            <Position>
              <LatitudeDegrees>41.3582446239888668060302734375</LatitudeDegrees>
              <LongitudeDegrees>-1.638925932347774505615234375</LongitudeDegrees>
            </Position>
            <AltitudeMeters>557.4000244140625</AltitudeMeters>
            <DistanceMeters>14673.818005742</DistanceMeters>
          </Trackpoint>
          <Trackpoint>
            <Time>2022-11-06T11:14:33.000Z</Time>
            <Position>
              <LatitudeDegrees>41.35820631869137287139892578125</LatitudeDegrees>
              <LongitudeDegrees>-1.63896339945495128631591796875</LongitudeDegrees>
            </Position>
            <AltitudeMeters>557.4000244140625</AltitudeMeters>
            <DistanceMeters>14679.107162274</DistanceMeters>
          </Trackpoint>
          <Trackpoint>
            <Time>2022-11-06T11:14:34.000Z</Time>
            <Position>
              <LatitudeDegrees>41.35816097259521484375</LatitudeDegrees>
              <LongitudeDegrees>-1.63900899700820446014404296875</LongitudeDegrees>
            </Position>
            <AltitudeMeters>557.20001220703125</AltitudeMeters>
            <DistanceMeters>14685.430545743</DistanceMeters>
          </Trackpoint>
          <Trackpoint>
            <Time>2022-11-06T11:14:35.000Z</Time>
            <Position>
              <LatitudeDegrees>41.35813037864863872528076171875</LatitudeDegrees>
              <LongitudeDegrees>-1.63904001004993915557861328125</LongitudeDegrees>
            </Position>
            <AltitudeMeters>557.20001220703125</AltitudeMeters>
            <DistanceMeters>14689.709914275</DistanceMeters>
          </Trackpoint>
          <Trackpoint>
            <Time>2022-11-06T11:14:42.000Z</Time>
            <Position>
              <LatitudeDegrees>41.35783332400023937225341796875</LatitudeDegrees>
              <LongitudeDegrees>-1.63932985626161098480224609375</LongitudeDegrees>
            </Position>
            <AltitudeMeters>557.4000244140625</AltitudeMeters>
            <DistanceMeters>14730.691444964</DistanceMeters>
          </Trackpoint>
          <Trackpoint>
            <Time>2022-11-06T11:14:43.000Z</Time>
            <Position>
              <LatitudeDegrees>41.35777951218187808990478515625</LatitudeDegrees>
              <LongitudeDegrees>-1.639375202357769012451171875</LongitudeDegrees>
            </Position>
            <AltitudeMeters>557.4000244140625</AltitudeMeters>
            <DistanceMeters>14737.77842494</DistanceMeters>
          </Trackpoint>
          <Trackpoint>
            <Time>2022-11-06T11:14:47.000Z</Time>
            <Position>
              <LatitudeDegrees>41.35752051137387752532958984375</LatitudeDegrees>
              <LongitudeDegrees>-1.6395686566829681396484375</LongitudeDegrees>
            </Position>
            <AltitudeMeters>557.20001220703125</AltitudeMeters>
            <DistanceMeters>14770.8272353</DistanceMeters>
          </Trackpoint>
          <Trackpoint>
            <Time>2022-11-06T11:14:51.000Z</Time>
            <Position>
              <LatitudeDegrees>41.3572548888623714447021484375</LatitudeDegrees>
              <LongitudeDegrees>-1.6397619433701038360595703125</LongitudeDegrees>
            </Position>
            <AltitudeMeters>556.4000244140625</AltitudeMeters>
            <DistanceMeters>14804.514172037</DistanceMeters>
          </Trackpoint>
          <Trackpoint>
            <Time>2022-11-06T11:14:54.000Z</Time>
            <Position>
              <LatitudeDegrees>41.35702078230679035186767578125</LatitudeDegrees>
              <LongitudeDegrees>-1.6399292461574077606201171875</LongitudeDegrees>
            </Position>
            <AltitudeMeters>555.20001220703125</AltitudeMeters>
            <DistanceMeters>14834.082753866</DistanceMeters>
          </Trackpoint>
          <Trackpoint>
            <Time>2022-11-06T11:14:55.000Z</Time>
            <Position>
              <LatitudeDegrees>41.3569487817585468292236328125</LatitudeDegrees>
              <LongitudeDegrees>-1.63997861556708812713623046875</LongitudeDegrees>
            </Position>
            <AltitudeMeters>555.20001220703125</AltitudeMeters>
            <DistanceMeters>14843.095775984</DistanceMeters>
          </Trackpoint>
          <Trackpoint>
            <Time>2022-11-06T11:14:56.000Z</Time>
            <Position>
              <LatitudeDegrees>41.35689052753150463104248046875</LatitudeDegrees>
              <LongitudeDegrees>-1.64001767523586750030517578125</LongitudeDegrees>
            </Position>
            <AltitudeMeters>555</AltitudeMeters>
            <DistanceMeters>14850.35459793</DistanceMeters>
          </Trackpoint>
          <Trackpoint>
            <Time>2022-11-06T11:15:02.000Z</Time>
            <Position>
              <LatitudeDegrees>41.35648869909346103668212890625</LatitudeDegrees>
              <LongitudeDegrees>-1.64029813371598720550537109375</LongitudeDegrees>
            </Position>
            <AltitudeMeters>555</AltitudeMeters>
            <DistanceMeters>14900.844822932</DistanceMeters>
          </Trackpoint>
          <Trackpoint>
            <Time>2022-11-06T11:15:04.000Z</Time>
            <Position>
              <LatitudeDegrees>41.3563583604991436004638671875</LatitudeDegrees>
              <LongitudeDegrees>-1.64038681425154209136962890625</LongitudeDegrees>
            </Position>
            <AltitudeMeters>555.20001220703125</AltitudeMeters>
            <DistanceMeters>14917.134353199</DistanceMeters>
          </Trackpoint>
          <Trackpoint>
            <Time>2022-11-06T11:15:05.000Z</Time>
            <Position>
              <LatitudeDegrees>41.35629239492118358612060546875</LatitudeDegrees>
              <LongitudeDegrees>-1.64043207652866840362548828125</LongitudeDegrees>
            </Position>
            <AltitudeMeters>555.20001220703125</AltitudeMeters>
            <DistanceMeters>14925.393481328</DistanceMeters>
          </Trackpoint>
          <Trackpoint>
            <Time>2022-11-06T11:15:06.000Z</Time>
            <Position>
              <LatitudeDegrees>41.35621494613587856292724609375</LatitudeDegrees>
              <LongitudeDegrees>-1.64049074985086917877197265625</LongitudeDegrees>
            </Position>
            <AltitudeMeters>555.20001220703125</AltitudeMeters>
            <DistanceMeters>14935.310009575</DistanceMeters>
          </Trackpoint>
          <Trackpoint>
            <Time>2022-11-06T11:15:07.000Z</Time>
            <Position>
              <LatitudeDegrees>41.3561669178307056427001953125</LatitudeDegrees>
              <LongitudeDegrees>-1.64053492248058319091796875</LongitudeDegrees>
            </Position>
            <AltitudeMeters>555</AltitudeMeters>
            <DistanceMeters>14941.805278403</DistanceMeters>
          </Trackpoint>
          <Trackpoint>
            <Time>2022-11-06T11:15:08.000Z</Time>
            <Position>
              <LatitudeDegrees>41.35609340853989124298095703125</LatitudeDegrees>
              <LongitudeDegrees>-1.64060256443917751312255859375</LongitudeDegrees>
            </Position>
            <AltitudeMeters>555</AltitudeMeters>
            <DistanceMeters>14951.749087384</DistanceMeters>
          </Trackpoint>
          <Trackpoint>
            <Time>2022-11-06T11:15:13.000Z</Time>
            <Position>
              <LatitudeDegrees>41.35575897060334682464599609375</LatitudeDegrees>
              <LongitudeDegrees>-1.64089241065084934234619140625</LongitudeDegrees>
            </Position>
            <AltitudeMeters>554.20001220703125</AltitudeMeters>
            <DistanceMeters>14996.155956602</DistanceMeters>
          </Trackpoint>
          <Trackpoint>
            <Time>2022-11-06T11:15:15.000Z</Time>
            <Position>
              <LatitudeDegrees>41.35563005693256855010986328125</LatitudeDegrees>
              <LongitudeDegrees>-1.64099098183214664459228515625</LongitudeDegrees>
            </Position>
            <AltitudeMeters>554</AltitudeMeters>
            <DistanceMeters>15012.699613602</DistanceMeters>
          </Trackpoint>
          <Trackpoint>
            <Time>2022-11-06T11:15:16.000Z</Time>
            <Position>
              <LatitudeDegrees>41.35553718544542789459228515625</LatitudeDegrees>
              <LongitudeDegrees>-1.641056947410106658935546875</LongitudeDegrees>
            </Position>
            <AltitudeMeters>553.5999755859375</AltitudeMeters>
            <DistanceMeters>15024.414137567</DistanceMeters>
          </Trackpoint>
          <Trackpoint>
            <Time>2022-11-06T11:15:18.000Z</Time>
            <Position>
              <LatitudeDegrees>41.35539888404309749603271484375</LatitudeDegrees>
              <LongitudeDegrees>-1.64114017970860004425048828125</LongitudeDegrees>
            </Position>
            <AltitudeMeters>553.20001220703125</AltitudeMeters>
            <DistanceMeters>15041.305386642</DistanceMeters>
          </Trackpoint>
          <Trackpoint>
            <Time>2022-11-06T11:15:19.000Z</Time>
            <Position>
              <LatitudeDegrees>41.35532319545745849609375</LatitudeDegrees>
              <LongitudeDegrees>-1.6411811672151088714599609375</LongitudeDegrees>
            </Position>
            <AltitudeMeters>553</AltitudeMeters>
            <DistanceMeters>15050.399199928</DistanceMeters>
          </Trackpoint>
          <Trackpoint>
            <Time>2022-11-06T11:15:24.000Z</Time>
            <Position>
              <LatitudeDegrees>41.35493972338736057281494140625</LatitudeDegrees>
              <LongitudeDegrees>-1.64135341532528400421142578125</LongitudeDegrees>
            </Position>
            <AltitudeMeters>552.79998779296875</AltitudeMeters>
            <DistanceMeters>15095.441060619</DistanceMeters>
          </Trackpoint>
          <Trackpoint>
            <Time>2022-11-06T11:15:25.000Z</Time>
            <Position>
              <LatitudeDegrees>41.3548687286674976348876953125</LatitudeDegrees>
              <LongitudeDegrees>-1.6413779743015766143798828125</LongitudeDegrees>
            </Position>
            <AltitudeMeters>553</AltitudeMeters>
            <DistanceMeters>15103.604513574</DistanceMeters>
          </Trackpoint>
          <Trackpoint>
            <Time>2022-11-06T11:15:26.000Z</Time>
            <Position>
              <LatitudeDegrees>41.3548033498227596282958984375</LatitudeDegrees>
              <LongitudeDegrees>-1.64141778834164142608642578125</LongitudeDegrees>
            </Position>
            <AltitudeMeters>553</AltitudeMeters>
            <DistanceMeters>15111.605966067</DistanceMeters>
          </Trackpoint>
          <Trackpoint>
            <Time>2022-11-06T11:15:27.000Z</Time>
            <Position>
              <LatitudeDegrees>41.3547547347843647003173828125</LatitudeDegrees>
              <LongitudeDegrees>-1.64147763513028621673583984375</LongitudeDegrees>
            </Position>
            <AltitudeMeters>553</AltitudeMeters>
            <DistanceMeters>15118.974060771</DistanceMeters>
          </Trackpoint>
          <Trackpoint>
            <Time>2022-11-06T11:15:28.000Z</Time>
            <Position>
              <LatitudeDegrees>41.354715339839458465576171875</LatitudeDegrees>
              <LongitudeDegrees>-1.6415482945740222930908203125</LongitudeDegrees>
            </Position>
            <AltitudeMeters>553</AltitudeMeters>
            <DistanceMeters>15126.327433994</DistanceMeters>
          </Trackpoint>
          <Trackpoint>
            <Time>2022-11-06T11:15:29.000Z</Time>
            <Position>
              <LatitudeDegrees>41.35467267595231533050537109375</LatitudeDegrees>
              <LongitudeDegrees>-1.64161006920039653778076171875</LongitudeDegrees>
            </Position>
            <AltitudeMeters>553</AltitudeMeters>
            <DistanceMeters>15133.340122231</DistanceMeters>
          </Trackpoint>
          <Trackpoint>
            <Time>2022-11-06T11:15:30.000Z</Time>
            <Position>
              <LatitudeDegrees>41.35462339036166667938232421875</LatitudeDegrees>
              <LongitudeDegrees>-1.6416835784912109375</LongitudeDegrees>
            </Position>
            <AltitudeMeters>553.20001220703125</AltitudeMeters>
            <DistanceMeters>15141.574613352</DistanceMeters>
          </Trackpoint>
          <Trackpoint>
            <Time>2022-11-06T11:15:31.000Z</Time>
            <Position>
              <LatitudeDegrees>41.35458885692059993743896484375</LatitudeDegrees>
              <LongitudeDegrees>-1.641729511320590972900390625</LongitudeDegrees>
            </Position>
            <AltitudeMeters>553</AltitudeMeters>
            <DistanceMeters>15147.006119565</DistanceMeters>
          </Trackpoint>
          <Trackpoint>
            <Time>2022-11-06T11:15:32.000Z</Time>
            <Position>
              <LatitudeDegrees>41.3545465283095836639404296875</LatitudeDegrees>
              <LongitudeDegrees>-1.64178994484245777130126953125</LongitudeDegrees>
            </Position>
            <AltitudeMeters>552.79998779296875</AltitudeMeters>
            <DistanceMeters>15153.912411173</DistanceMeters>
          </Trackpoint>
          <Trackpoint>
            <Time>2022-11-06T11:15:34.000Z</Time>
            <Position>
              <LatitudeDegrees>41.35446949861943721771240234375</LatitudeDegrees>
              <LongitudeDegrees>-1.641909889876842498779296875</LongitudeDegrees>
            </Position>
            <AltitudeMeters>552.79998779296875</AltitudeMeters>
            <DistanceMeters>15167.100941511</DistanceMeters>
          </Trackpoint>
          <Trackpoint>
            <Time>2022-11-06T11:15:36.000Z</Time>
            <Position>
              <LatitudeDegrees>41.3543886132538318634033203125</LatitudeDegrees>
              <LongitudeDegrees>-1.64204358123242855072021484375</LongitudeDegrees>
            </Position>
            <AltitudeMeters>552.5999755859375</AltitudeMeters>
            <DistanceMeters>15181.446513725</DistanceMeters>
          </Trackpoint>
          <Trackpoint>
            <Time>2022-11-06T11:15:37.000Z</Time>
            <Position>
              <LatitudeDegrees>41.35436019860208034515380859375</LatitudeDegrees>
              <LongitudeDegrees>-1.6420894302427768707275390625</LongitudeDegrees>
            </Position>
            <AltitudeMeters>552.79998779296875</AltitudeMeters>
            <DistanceMeters>15186.413421097</DistanceMeters>
          </Trackpoint>
          <Trackpoint>
            <Time>2022-11-06T11:15:38.000Z</Time>
            <Position>
              <LatitudeDegrees>41.35431694798171520233154296875</LatitudeDegrees>
              <LongitudeDegrees>-1.64214693009853363037109375</LongitudeDegrees>
            </Position>
            <AltitudeMeters>552.79998779296875</AltitudeMeters>
            <DistanceMeters>15193.214307183</DistanceMeters>
          </Trackpoint>
          <Trackpoint>
            <Time>2022-11-06T11:15:39.000Z</Time>
            <Position>
              <LatitudeDegrees>41.35427503846585750579833984375</LatitudeDegrees>
              <LongitudeDegrees>-1.6421990655362606048583984375</LongitudeDegrees>
            </Position>
            <AltitudeMeters>552.79998779296875</AltitudeMeters>
            <DistanceMeters>15199.596679378</DistanceMeters>
          </Trackpoint>
          <Trackpoint>
            <Time>2022-11-06T11:15:40.000Z</Time>
            <Position>
              <LatitudeDegrees>41.35424989275634288787841796875</LatitudeDegrees>
              <LongitudeDegrees>-1.64225019514560699462890625</LongitudeDegrees>
            </Position>
            <AltitudeMeters>553</AltitudeMeters>
            <DistanceMeters>15204.705193929</DistanceMeters>
          </Trackpoint>
          <Trackpoint>
            <Time>2022-11-06T11:15:41.000Z</Time>
            <Position>
              <LatitudeDegrees>41.354218460619449615478515625</LatitudeDegrees>
              <LongitudeDegrees>-1.6423097066581249237060546875</LongitudeDegrees>
            </Position>
            <AltitudeMeters>553</AltitudeMeters>
            <DistanceMeters>15210.785418675</DistanceMeters>
          </Trackpoint>
          <Trackpoint>
            <Time>2022-11-06T11:15:42.000Z</Time>
            <Position>
              <LatitudeDegrees>41.3541871123015880584716796875</LatitudeDegrees>
              <LongitudeDegrees>-1.6423660330474376678466796875</LongitudeDegrees>
            </Position>
            <AltitudeMeters>553</AltitudeMeters>
            <DistanceMeters>15216.643258762</DistanceMeters>
          </Trackpoint>
          <Trackpoint>
            <Time>2022-11-06T11:15:43.000Z</Time>
            <Position>
              <LatitudeDegrees>41.35416624136269092559814453125</LatitudeDegrees>
              <LongitudeDegrees>-1.64243300445377826690673828125</LongitudeDegrees>
            </Position>
            <AltitudeMeters>553.20001220703125</AltitudeMeters>
            <DistanceMeters>15222.701165222</DistanceMeters>
          </Trackpoint>
          <Trackpoint>
            <Time>2022-11-06T11:15:44.000Z</Time>
            <Position>
              <LatitudeDegrees>41.35412760078907012939453125</LatitudeDegrees>
              <LongitudeDegrees>-1.642499975860118865966796875</LongitudeDegrees>
            </Position>
            <AltitudeMeters>553.4000244140625</AltitudeMeters>
            <DistanceMeters>15229.758138481</DistanceMeters>
          </Trackpoint>
          <Trackpoint>
            <Time>2022-11-06T11:15:45.000Z</Time>
            <Position>
              <LatitudeDegrees>41.3541063107550144195556640625</LatitudeDegrees>
              <LongitudeDegrees>-1.64256778545677661895751953125</LongitudeDegrees>
            </Position>
            <AltitudeMeters>553.79998779296875</AltitudeMeters>
            <DistanceMeters>15235.898952697</DistanceMeters>
          </Trackpoint>
          <Trackpoint>
            <Time>2022-11-06T11:15:46.000Z</Time>
            <Position>
              <LatitudeDegrees>41.35408694855868816375732421875</LatitudeDegrees>
              <LongitudeDegrees>-1.64265411905944347381591796875</LongitudeDegrees>
            </Position>
            <AltitudeMeters>554.20001220703125</AltitudeMeters>
            <DistanceMeters>15243.425884317</DistanceMeters>
          </Trackpoint>
          <Trackpoint>
            <Time>2022-11-06T11:15:47.000Z</Time>
            <Position>
              <LatitudeDegrees>41.35406515561044216156005859375</LatitudeDegrees>
              <LongitudeDegrees>-1.6427324898540973663330078125</LongitudeDegrees>
            </Position>
            <AltitudeMeters>554.5999755859375</AltitudeMeters>
            <DistanceMeters>15250.408246576</DistanceMeters>
          </Trackpoint>
          <Trackpoint>
            <Time>2022-11-06T11:15:48.000Z</Time>
            <Position>
              <LatitudeDegrees>41.35403816588222980499267578125</LatitudeDegrees>
              <LongitudeDegrees>-1.6428069211542606353759765625</LongitudeDegrees>
            </Position>
            <AltitudeMeters>554.79998779296875</AltitudeMeters>
            <DistanceMeters>15257.313230546</DistanceMeters>
          </Trackpoint>
          <Trackpoint>
            <Time>2022-11-06T11:15:50.000Z</Time>
            <Position>
              <LatitudeDegrees>41.3540147803723812103271484375</LatitudeDegrees>
              <LongitudeDegrees>-1.64293474517762660980224609375</LongitudeDegrees>
            </Position>
            <AltitudeMeters>555</AltitudeMeters>
            <DistanceMeters>15268.305155892</DistanceMeters>
          </Trackpoint>
          <Trackpoint>
            <Time>2022-11-06T11:15:51.000Z</Time>
            <Position>
              <LatitudeDegrees>41.35404336266219615936279296875</LatitudeDegrees>
              <LongitudeDegrees>-1.64299693889915943145751953125</LongitudeDegrees>
            </Position>
            <AltitudeMeters>555.20001220703125</AltitudeMeters>
            <DistanceMeters>15274.398732374</DistanceMeters>
          </Trackpoint>
          <Trackpoint>
            <Time>2022-11-06T11:15:52.000Z</Time>
            <Position>
              <LatitudeDegrees>41.3540865294635295867919921875</LatitudeDegrees>
              <LongitudeDegrees>-1.64303817786276340484619140625</LongitudeDegrees>
            </Position>
            <AltitudeMeters>555.4000244140625</AltitudeMeters>
            <DistanceMeters>15280.311807377</DistanceMeters>
          </Trackpoint>
          <Trackpoint>
            <Time>2022-11-06T11:15:53.000Z</Time>
            <Position>
              <LatitudeDegrees>41.35414159856736660003662109375</LatitudeDegrees>
              <LongitudeDegrees>-1.64307489059865474700927734375</LongitudeDegrees>
            </Position>
            <AltitudeMeters>555.4000244140625</AltitudeMeters>
            <DistanceMeters>15287.166257591</DistanceMeters>
          </Trackpoint>
          <Trackpoint>
            <Time>2022-11-06T11:15:54.000Z</Time>
            <Position>
              <LatitudeDegrees>41.3541904650628566741943359375</LatitudeDegrees>
              <LongitudeDegrees>-1.64309735409915447235107421875</LongitudeDegrees>
            </Position>
            <AltitudeMeters>555.5999755859375</AltitudeMeters>
            <DistanceMeters>15292.919887771</DistanceMeters>
          </Trackpoint>
          <Trackpoint>
            <Time>2022-11-06T11:15:55.000Z</Time>
            <Position>
              <LatitudeDegrees>41.35425475426018238067626953125</LatitudeDegrees>
              <LongitudeDegrees>-1.643115542829036712646484375</LongitudeDegrees>
            </Position>
            <AltitudeMeters>555.5999755859375</AltitudeMeters>
            <DistanceMeters>15300.235093373</DistanceMeters>
          </Trackpoint>
          <Trackpoint>
            <Time>2022-11-06T11:15:56.000Z</Time>
            <Position>
              <LatitudeDegrees>41.35430806316435337066650390625</LatitudeDegrees>
              <LongitudeDegrees>-1.643161810934543609619140625</LongitudeDegrees>
            </Position>
            <AltitudeMeters>555.5999755859375</AltitudeMeters>
            <DistanceMeters>15307.316974802</DistanceMeters>
          </Trackpoint>
          <Trackpoint>
            <Time>2022-11-06T11:15:57.000Z</Time>
            <Position>
              <LatitudeDegrees>41.35434527881443500518798828125</LatitudeDegrees>
              <LongitudeDegrees>-1.64321168325841426849365234375</LongitudeDegrees>
            </Position>
            <AltitudeMeters>555.5999755859375</AltitudeMeters>
            <DistanceMeters>15313.193284215</DistanceMeters>
          </Trackpoint>
          <Trackpoint>
            <Time>2022-11-06T11:15:58.000Z</Time>
            <Position>
              <LatitudeDegrees>41.35437645949423313140869140625</LatitudeDegrees>
              <LongitudeDegrees>-1.64329818449914455413818359375</LongitudeDegrees>
            </Position>
            <AltitudeMeters>555.5999755859375</AltitudeMeters>
            <DistanceMeters>15321.210520904</DistanceMeters>
          </Trackpoint>
          <Trackpoint>
            <Time>2022-11-06T11:15:59.000Z</Time>
            <Position>
              <LatitudeDegrees>41.3543738611042499542236328125</LatitudeDegrees>
              <LongitudeDegrees>-1.64338049478828907012939453125</LongitudeDegrees>
            </Position>
            <AltitudeMeters>555.5999755859375</AltitudeMeters>
            <DistanceMeters>15328.093237012</DistanceMeters>
          </Trackpoint>
          <Trackpoint>
            <Time>2022-11-06T11:16:00.000Z</Time>
            <Position>
              <LatitudeDegrees>41.354359276592731475830078125</LatitudeDegrees>
              <LongitudeDegrees>-1.6434831731021404266357421875</LongitudeDegrees>
            </Position>
            <AltitudeMeters>555.5999755859375</AltitudeMeters>
            <DistanceMeters>15336.823291147</DistanceMeters>
          </Trackpoint>
          <Trackpoint>
            <Time>2022-11-06T11:16:01.000Z</Time>
            <Position>
              <LatitudeDegrees>41.3543379865586757659912109375</LatitudeDegrees>
              <LongitudeDegrees>-1.643548719584941864013671875</LongitudeDegrees>
            </Position>
            <AltitudeMeters>555.79998779296875</AltitudeMeters>
            <DistanceMeters>15342.791089861</DistanceMeters>
          </Trackpoint>
          <Trackpoint>
            <Time>2022-11-06T11:16:02.000Z</Time>
            <Position>
              <LatitudeDegrees>41.3543285988271236419677734375</LatitudeDegrees>
              <LongitudeDegrees>-1.6436320357024669647216796875</LongitudeDegrees>
            </Position>
            <AltitudeMeters>556</AltitudeMeters>
            <DistanceMeters>15349.830125977</DistanceMeters>
          </Trackpoint>
          <Trackpoint>
            <Time>2022-11-06T11:16:03.000Z</Time>
            <Position>
              <LatitudeDegrees>41.35431560687720775604248046875</LatitudeDegrees>
              <LongitudeDegrees>-1.64370889775454998016357421875</LongitudeDegrees>
            </Position>
            <AltitudeMeters>556.20001220703125</AltitudeMeters>
            <DistanceMeters>15356.412398137</DistanceMeters>
          </Trackpoint>
          <Trackpoint>
            <Time>2022-11-06T11:16:04.000Z</Time>
            <Position>
              <LatitudeDegrees>41.35431191883981227874755859375</LatitudeDegrees>
              <LongitudeDegrees>-1.6437912918627262115478515625</LongitudeDegrees>
            </Position>
            <AltitudeMeters>556.20001220703125</AltitudeMeters>
            <DistanceMeters>15363.308221695</DistanceMeters>
          </Trackpoint>
          <Trackpoint>
            <Time>2022-11-06T11:16:05.000Z</Time>
            <Position>
              <LatitudeDegrees>41.3543011061847209930419921875</LatitudeDegrees>
              <LongitudeDegrees>-1.64387066848576068878173828125</LongitudeDegrees>
            </Position>
            <AltitudeMeters>556.4000244140625</AltitudeMeters>
            <DistanceMeters>15370.049092905</DistanceMeters>
          </Trackpoint>
          <Trackpoint>
            <Time>2022-11-06T11:16:06.000Z</Time>
            <Position>
              <LatitudeDegrees>41.35429255664348602294921875</LatitudeDegrees>
              <LongitudeDegrees>-1.6439334489405155181884765625</LongitudeDegrees>
            </Position>
            <AltitudeMeters>556.79998779296875</AltitudeMeters>
            <DistanceMeters>15375.380760622</DistanceMeters>
          </Trackpoint>
          <Trackpoint>
            <Time>2022-11-06T11:16:07.000Z</Time>
            <Position>
              <LatitudeDegrees>41.35428107343614101409912109375</LatitudeDegrees>
              <LongitudeDegrees>-1.64401366375386714935302734375</LongitudeDegrees>
            </Position>
            <AltitudeMeters>556.79998779296875</AltitudeMeters>
            <DistanceMeters>15382.2028581</DistanceMeters>
          </Trackpoint>
          <Trackpoint>
            <Time>2022-11-06T11:16:08.000Z</Time>
            <Position>
              <LatitudeDegrees>41.35425500571727752685546875</LatitudeDegrees>
              <LongitudeDegrees>-1.6441108100116252899169921875</LongitudeDegrees>
            </Position>
            <AltitudeMeters>557</AltitudeMeters>
            <DistanceMeters>15390.822048253</DistanceMeters>
          </Trackpoint>
          <Trackpoint>
            <Time>2022-11-06T11:16:09.000Z</Time>
            <Position>
              <LatitudeDegrees>41.35422416031360626220703125</LatitudeDegrees>
              <LongitudeDegrees>-1.64418700151145458221435546875</LongitudeDegrees>
            </Position>
            <AltitudeMeters>557</AltitudeMeters>
            <DistanceMeters>15398.05407444</DistanceMeters>
          </Trackpoint>
          <Trackpoint>
            <Time>2022-11-06T11:16:10.000Z</Time>
            <Position>
              <LatitudeDegrees>41.35420731268823146820068359375</LatitudeDegrees>
              <LongitudeDegrees>-1.6442476026713848114013671875</LongitudeDegrees>
            </Position>
            <AltitudeMeters>557.20001220703125</AltitudeMeters>
            <DistanceMeters>15403.45306386</DistanceMeters>
          </Trackpoint>
          <Trackpoint>
            <Time>2022-11-06T11:16:11.000Z</Time>
            <Position>
              <LatitudeDegrees>41.3541814126074314117431640625</LatitudeDegrees>
              <LongitudeDegrees>-1.64433485828340053558349609375</LongitudeDegrees>
            </Position>
            <AltitudeMeters>557.20001220703125</AltitudeMeters>
            <DistanceMeters>15411.292047863</DistanceMeters>
          </Trackpoint>
          <Trackpoint>
            <Time>2022-11-06T11:16:12.000Z</Time>
            <Position>
              <LatitudeDegrees>41.3541478849947452545166015625</LatitudeDegrees>
              <LongitudeDegrees>-1.6444018296897411346435546875</LongitudeDegrees>
            </Position>
            <AltitudeMeters>557.4000244140625</AltitudeMeters>
            <DistanceMeters>15418.01749602</DistanceMeters>
          </Trackpoint>
          <Trackpoint>
            <Time>2022-11-06T11:16:13.000Z</Time>
            <Position>
              <LatitudeDegrees>41.35411008261144161224365234375</LatitudeDegrees>
              <LongitudeDegrees>-1.644470728933811187744140625</LongitudeDegrees>
            </Position>
            <AltitudeMeters>557.5999755859375</AltitudeMeters>
            <DistanceMeters>15425.147666451</DistanceMeters>
          </Trackpoint>
          <Trackpoint>
            <Time>2022-11-06T11:16:14.000Z</Time>
            <Position>
              <LatitudeDegrees>41.3540690951049327850341796875</LatitudeDegrees>
              <LongitudeDegrees>-1.6445386223495006561279296875</LongitudeDegrees>
            </Position>
            <AltitudeMeters>557.79998779296875</AltitudeMeters>
            <DistanceMeters>15432.42698569</DistanceMeters>
          </Trackpoint>
          <Trackpoint>
            <Time>2022-11-06T11:16:15.000Z</Time>
            <Position>
              <LatitudeDegrees>41.3540385849773883819580078125</LatitudeDegrees>
              <LongitudeDegrees>-1.64459905587136745452880859375</LongitudeDegrees>
            </Position>
            <AltitudeMeters>557.79998779296875</AltitudeMeters>
            <DistanceMeters>15438.511664269</DistanceMeters>
          </Trackpoint>
          <Trackpoint>
            <Time>2022-11-06T11:16:16.000Z</Time>
            <Position>
              <LatitudeDegrees>41.35399390943348407745361328125</LatitudeDegrees>
              <LongitudeDegrees>-1.6446962021291255950927734375</LongitudeDegrees>
            </Position>
            <AltitudeMeters>557.79998779296875</AltitudeMeters>
            <DistanceMeters>15448.0300022</DistanceMeters>
          </Trackpoint>
          <Trackpoint>
            <Time>2022-11-06T11:16:17.000Z</Time>
            <Position>
              <LatitudeDegrees>41.35395728051662445068359375</LatitudeDegrees>
              <LongitudeDegrees>-1.64477440528571605682373046875</LongitudeDegrees>
            </Position>
            <AltitudeMeters>557.4000244140625</AltitudeMeters>
            <DistanceMeters>15455.730684768</DistanceMeters>
          </Trackpoint>
          <Trackpoint>
            <Time>2022-11-06T11:16:18.000Z</Time>
            <Position>
              <LatitudeDegrees>41.35392283089458942413330078125</LatitudeDegrees>
              <LongitudeDegrees>-1.64484883658587932586669921875</LongitudeDegrees>
            </Position>
            <AltitudeMeters>557.20001220703125</AltitudeMeters>
            <DistanceMeters>15463.036008291</DistanceMeters>
          </Trackpoint>
          <Trackpoint>
            <Time>2022-11-06T11:16:19.000Z</Time>
            <Position>
              <LatitudeDegrees>41.35388159193098545074462890625</LatitudeDegrees>
              <LongitudeDegrees>-1.64492913521826267242431640625</LongitudeDegrees>
            </Position>
            <AltitudeMeters>557</AltitudeMeters>
            <DistanceMeters>15471.164542559</DistanceMeters>
          </Trackpoint>
          <Trackpoint>
            <Time>2022-11-06T11:16:20.000Z</Time>
            <Position>
              <LatitudeDegrees>41.35385124944150447845458984375</LatitudeDegrees>
              <LongitudeDegrees>-1.6449952684342861175537109375</LongitudeDegrees>
            </Position>
            <AltitudeMeters>556.5999755859375</AltitudeMeters>
            <DistanceMeters>15477.641015757</DistanceMeters>
          </Trackpoint>
          <Trackpoint>
            <Time>2022-11-06T11:16:21.000Z</Time>
            <Position>
              <LatitudeDegrees>41.35380615480244159698486328125</LatitudeDegrees>
              <LongitudeDegrees>-1.645093001425266265869140625</LongitudeDegrees>
            </Position>
            <AltitudeMeters>556.20001220703125</AltitudeMeters>
            <DistanceMeters>15487.226003902</DistanceMeters>
          </Trackpoint>
          <Trackpoint>
            <Time>2022-11-06T11:16:22.000Z</Time>
            <Position>
              <LatitudeDegrees>41.3537710346281528472900390625</LatitudeDegrees>
              <LongitudeDegrees>-1.64515377022325992584228515625</LongitudeDegrees>
            </Position>
            <AltitudeMeters>555.79998779296875</AltitudeMeters>
            <DistanceMeters>15493.633792724</DistanceMeters>
          </Trackpoint>
          <Trackpoint>
            <Time>2022-11-06T11:16:23.000Z</Time>
            <Position>
              <LatitudeDegrees>41.353725604712963104248046875</LatitudeDegrees>
              <LongitudeDegrees>-1.6452289558947086334228515625</LongitudeDegrees>
            </Position>
            <AltitudeMeters>555.5999755859375</AltitudeMeters>
            <DistanceMeters>15501.698196642</DistanceMeters>
          </Trackpoint>
          <Trackpoint>
            <Time>2022-11-06T11:16:25.000Z</Time>
            <Position>
              <LatitudeDegrees>41.3536318950355052947998046875</LatitudeDegrees>
              <LongitudeDegrees>-1.6454006172716617584228515625</LongitudeDegrees>
            </Position>
            <AltitudeMeters>555.4000244140625</AltitudeMeters>
            <DistanceMeters>15519.431821264</DistanceMeters>
          </Trackpoint>
          <Trackpoint>
            <Time>2022-11-06T11:16:26.000Z</Time>
            <Position>
              <LatitudeDegrees>41.3535876385867595672607421875</LatitudeDegrees>
              <LongitudeDegrees>-1.6454921476542949676513671875</LongitudeDegrees>
            </Position>
            <AltitudeMeters>555.20001220703125</AltitudeMeters>
            <DistanceMeters>15528.527620315</DistanceMeters>
          </Trackpoint>
          <Trackpoint>
            <Time>2022-11-06T11:16:27.000Z</Time>
            <Position>
              <LatitudeDegrees>41.353559307754039764404296875</LatitudeDegrees>
              <LongitudeDegrees>-1.6455843485891819000244140625</LongitudeDegrees>
            </Position>
            <AltitudeMeters>555.20001220703125</AltitudeMeters>
            <DistanceMeters>15536.851005833</DistanceMeters>
          </Trackpoint>
          <Trackpoint>
            <Time>2022-11-06T11:16:28.000Z</Time>
            <Position>
              <LatitudeDegrees>41.353536508977413177490234375</LatitudeDegrees>
              <LongitudeDegrees>-1.64566221646964550018310546875</LongitudeDegrees>
            </Position>
            <AltitudeMeters>554.79998779296875</AltitudeMeters>
            <DistanceMeters>15543.834014697</DistanceMeters>
          </Trackpoint>
          <Trackpoint>
            <Time>2022-11-06T11:16:32.000Z</Time>
            <Position>
              <LatitudeDegrees>41.3534216769039630889892578125</LatitudeDegrees>
              <LongitudeDegrees>-1.64604417979717254638671875</LongitudeDegrees>
            </Position>
            <AltitudeMeters>554.4000244140625</AltitudeMeters>
            <DistanceMeters>15578.210839801</DistanceMeters>
          </Trackpoint>
          <Trackpoint>
            <Time>2022-11-06T11:16:33.000Z</Time>
            <Position>
              <LatitudeDegrees>41.35337867774069309234619140625</LatitudeDegrees>
              <LongitudeDegrees>-1.64612791500985622406005859375</LongitudeDegrees>
            </Position>
            <AltitudeMeters>554.4000244140625</AltitudeMeters>
            <DistanceMeters>15586.686881813</DistanceMeters>
          </Trackpoint>
          <Trackpoint>
            <Time>2022-11-06T11:16:34.000Z</Time>
            <Position>
              <LatitudeDegrees>41.35333593003451824188232421875</LatitudeDegrees>
              <LongitudeDegrees>-1.64620804600417613983154296875</LongitudeDegrees>
            </Position>
            <AltitudeMeters>554.20001220703125</AltitudeMeters>
            <DistanceMeters>15594.899961079</DistanceMeters>
          </Trackpoint>
          <Trackpoint>
            <Time>2022-11-06T11:16:37.000Z</Time>
            <Position>
              <LatitudeDegrees>41.35325110517442226409912109375</LatitudeDegrees>
              <LongitudeDegrees>-1.64645430631935596466064453125</LongitudeDegrees>
            </Position>
            <AltitudeMeters>553.79998779296875</AltitudeMeters>
            <DistanceMeters>15617.53747062</DistanceMeters>
          </Trackpoint>
          <Trackpoint>
            <Time>2022-11-06T11:16:38.000Z</Time>
            <Position>
              <LatitudeDegrees>41.35321757756173610687255859375</LatitudeDegrees>
              <LongitudeDegrees>-1.646522618830204010009765625</LongitudeDegrees>
            </Position>
            <AltitudeMeters>554</AltitudeMeters>
            <DistanceMeters>15624.355595988</DistanceMeters>
          </Trackpoint>
          <Trackpoint>
            <Time>2022-11-06T11:16:39.000Z</Time>
            <Position>
              <LatitudeDegrees>41.35319964028894901275634765625</LatitudeDegrees>
              <LongitudeDegrees>-1.64659344591200351715087890625</LongitudeDegrees>
            </Position>
            <AltitudeMeters>554.4000244140625</AltitudeMeters>
            <DistanceMeters>15630.600666056</DistanceMeters>
          </Trackpoint>
          <Trackpoint>
            <Time>2022-11-06T11:16:40.000Z</Time>
            <Position>
              <LatitudeDegrees>41.353196203708648681640625</LatitudeDegrees>
              <LongitudeDegrees>-1.646635271608829498291015625</LongitudeDegrees>
            </Position>
            <AltitudeMeters>554.5999755859375</AltitudeMeters>
            <DistanceMeters>15634.115370109</DistanceMeters>
          </Trackpoint>
          <Trackpoint>
            <Time>2022-11-06T11:16:41.000Z</Time>
            <Position>
              <LatitudeDegrees>41.35319595225155353546142578125</LatitudeDegrees>
              <LongitudeDegrees>-1.64667449891567230224609375</LongitudeDegrees>
            </Position>
            <AltitudeMeters>554.79998779296875</AltitudeMeters>
            <DistanceMeters>15637.392069804</DistanceMeters>
          </Trackpoint>
          <Trackpoint>
            <Time>2022-11-06T11:16:42.000Z</Time>
            <Position>
              <LatitudeDegrees>41.35319930501282215118408203125</LatitudeDegrees>
              <LongitudeDegrees>-1.646723784506320953369140625</LongitudeDegrees>
            </Position>
            <AltitudeMeters>555.20001220703125</AltitudeMeters>
            <DistanceMeters>15641.526550994</DistanceMeters>
          </Trackpoint>
          <Trackpoint>
            <Time>2022-11-06T11:16:43.000Z</Time>
            <Position>
              <LatitudeDegrees>41.3532091118395328521728515625</LatitudeDegrees>
              <LongitudeDegrees>-1.6467859782278537750244140625</LongitudeDegrees>
            </Position>
            <AltitudeMeters>555.4000244140625</AltitudeMeters>
            <DistanceMeters>15646.836155372</DistanceMeters>
          </Trackpoint>
          <Trackpoint>
            <Time>2022-11-06T11:16:44.000Z</Time>
            <Position>
              <LatitudeDegrees>41.35322512127459049224853515625</LatitudeDegrees>
              <LongitudeDegrees>-1.64682461880147457122802734375</LongitudeDegrees>
            </Position>
            <AltitudeMeters>555.5999755859375</AltitudeMeters>
            <DistanceMeters>15650.523877586</DistanceMeters>
          </Trackpoint>
          <Trackpoint>
            <Time>2022-11-06T11:16:45.000Z</Time>
            <Position>
              <LatitudeDegrees>41.3532483391463756561279296875</LatitudeDegrees>
              <LongitudeDegrees>-1.64686669595539569854736328125</LongitudeDegrees>
            </Position>
            <AltitudeMeters>555.5999755859375</AltitudeMeters>
            <DistanceMeters>15654.886835429</DistanceMeters>
          </Trackpoint>
          <Trackpoint>
            <Time>2022-11-06T11:16:46.000Z</Time>
            <Position>
              <LatitudeDegrees>41.35327507741749286651611328125</LatitudeDegrees>
              <LongitudeDegrees>-1.64690290577709674835205078125</LongitudeDegrees>
            </Position>
            <AltitudeMeters>555.5999755859375</AltitudeMeters>
            <DistanceMeters>15659.130179916</DistanceMeters>
          </Trackpoint>
          <Trackpoint>
            <Time>2022-11-06T11:16:47.000Z</Time>
            <Position>
              <LatitudeDegrees>41.353304497897624969482421875</LatitudeDegrees>
              <LongitudeDegrees>-1.646934337913990020751953125</LongitudeDegrees>
            </Position>
            <AltitudeMeters>555.79998779296875</AltitudeMeters>
            <DistanceMeters>15663.328597382</DistanceMeters>
          </Trackpoint>
          <Trackpoint>
            <Time>2022-11-06T11:16:48.000Z</Time>
            <Position>
              <LatitudeDegrees>41.35333366692066192626953125</LatitudeDegrees>
              <LongitudeDegrees>-1.64696685969829559326171875</LongitudeDegrees>
            </Position>
            <AltitudeMeters>556</AltitudeMeters>
            <DistanceMeters>15667.562354784</DistanceMeters>
          </Trackpoint>
          <Trackpoint>
            <Time>2022-11-06T11:16:49.000Z</Time>
            <Position>
              <LatitudeDegrees>41.3533666916191577911376953125</LatitudeDegrees>
              <LongitudeDegrees>-1.6469983756542205810546875</LongitudeDegrees>
            </Position>
            <AltitudeMeters>556.20001220703125</AltitudeMeters>
            <DistanceMeters>15672.08386925</DistanceMeters>
          </Trackpoint>
          <Trackpoint>
            <Time>2022-11-06T11:16:51.000Z</Time>
            <Position>
              <LatitudeDegrees>41.35343483649194240570068359375</LatitudeDegrees>
              <LongitudeDegrees>-1.6470629163086414337158203125</LongitudeDegrees>
            </Position>
            <AltitudeMeters>556.4000244140625</AltitudeMeters>
            <DistanceMeters>15681.389697161</DistanceMeters>
          </Trackpoint>
          <Trackpoint>
            <Time>2022-11-06T11:16:53.000Z</Time>
            <Position>
              <LatitudeDegrees>41.35349501855671405792236328125</LatitudeDegrees>
              <LongitudeDegrees>-1.64713919162750244140625</LongitudeDegrees>
            </Position>
            <AltitudeMeters>556.5999755859375</AltitudeMeters>
            <DistanceMeters>15690.635166517</DistanceMeters>
          </Trackpoint>
          <Trackpoint>
            <Time>2022-11-06T11:16:55.000Z</Time>
            <Position>
              <LatitudeDegrees>41.35355821810662746429443359375</LatitudeDegrees>
              <LongitudeDegrees>-1.647191159427165985107421875</LongitudeDegrees>
            </Position>
            <AltitudeMeters>556.5999755859375</AltitudeMeters>
            <DistanceMeters>15698.901944518</DistanceMeters>
          </Trackpoint>
          <Trackpoint>
            <Time>2022-11-06T11:16:57.000Z</Time>
            <Position>
              <LatitudeDegrees>41.3536178134381771087646484375</LatitudeDegrees>
              <LongitudeDegrees>-1.64724086411297321319580078125</LongitudeDegrees>
            </Position>
            <AltitudeMeters>556.5999755859375</AltitudeMeters>
            <DistanceMeters>15706.727669944</DistanceMeters>
          </Trackpoint>
          <Trackpoint>
            <Time>2022-11-06T11:16:58.000Z</Time>
            <Position>
              <LatitudeDegrees>41.35364673100411891937255859375</LatitudeDegrees>
              <LongitudeDegrees>-1.6472795046865940093994140625</LongitudeDegrees>
            </Position>
            <AltitudeMeters>556.5999755859375</AltitudeMeters>
            <DistanceMeters>15711.286972081</DistanceMeters>
          </Trackpoint>
          <Trackpoint>
            <Time>2022-11-06T11:16:59.000Z</Time>
            <Position>
              <LatitudeDegrees>41.35366357862949371337890625</LatitudeDegrees>
              <LongitudeDegrees>-1.6473059915006160736083984375</LongitudeDegrees>
            </Position>
            <AltitudeMeters>556.79998779296875</AltitudeMeters>
            <DistanceMeters>15714.186454995</DistanceMeters>
          </Trackpoint>
          <Trackpoint>
            <Time>2022-11-06T11:17:00.000Z</Time>
            <Position>
              <LatitudeDegrees>41.3536872155964374542236328125</LatitudeDegrees>
              <LongitudeDegrees>-1.64732837118208408355712890625</LongitudeDegrees>
            </Position>
            <AltitudeMeters>556.79998779296875</AltitudeMeters>
            <DistanceMeters>15717.413168205</DistanceMeters>
          </Trackpoint>
          <Trackpoint>
            <Time>2022-11-06T11:17:01.000Z</Time>
            <Position>
              <LatitudeDegrees>41.35371428914368152618408203125</LatitudeDegrees>
              <LongitudeDegrees>-1.6473515890538692474365234375</LongitudeDegrees>
            </Position>
            <AltitudeMeters>557</AltitudeMeters>
            <DistanceMeters>15720.996570039</DistanceMeters>
          </Trackpoint>
          <Trackpoint>
            <Time>2022-11-06T11:17:02.000Z</Time>
            <Position>
              <LatitudeDegrees>41.353738009929656982421875</LatitudeDegrees>
              <LongitudeDegrees>-1.6473794169723987579345703125</LongitudeDegrees>
            </Position>
            <AltitudeMeters>557.4000244140625</AltitudeMeters>
            <DistanceMeters>15724.513842381</DistanceMeters>
          </Trackpoint>
          <Trackpoint>
            <Time>2022-11-06T11:17:03.000Z</Time>
            <Position>
              <LatitudeDegrees>41.3537608087062835693359375</LatitudeDegrees>
              <LongitudeDegrees>-1.647401042282581329345703125</LongitudeDegrees>
            </Position>
            <AltitudeMeters>557.5999755859375</AltitudeMeters>
            <DistanceMeters>15727.62950157</DistanceMeters>
          </Trackpoint>
          <Trackpoint>
            <Time>2022-11-06T11:17:04.000Z</Time>
            <Position>
              <LatitudeDegrees>41.3537844456732273101806640625</LatitudeDegrees>
              <LongitudeDegrees>-1.64741612970829010009765625</LongitudeDegrees>
            </Position>
            <AltitudeMeters>557.79998779296875</AltitudeMeters>
            <DistanceMeters>15730.546063246</DistanceMeters>
          </Trackpoint>
          <Trackpoint>
            <Time>2022-11-06T11:17:05.000Z</Time>
            <Position>
              <LatitudeDegrees>41.3538022153079509735107421875</LatitudeDegrees>
              <LongitudeDegrees>-1.64743767119944095611572265625</LongitudeDegrees>
            </Position>
            <AltitudeMeters>558</AltitudeMeters>
            <DistanceMeters>15733.220352038</DistanceMeters>
          </Trackpoint>
          <Trackpoint>
            <Time>2022-11-06T11:17:06.000Z</Time>
            <Position>
              <LatitudeDegrees>41.353817470371723175048828125</LatitudeDegrees>
              <LongitudeDegrees>-1.6474655829370021820068359375</LongitudeDegrees>
            </Position>
            <AltitudeMeters>558</AltitudeMeters>
            <DistanceMeters>15736.105786231</DistanceMeters>
          </Trackpoint>
          <Trackpoint>
            <Time>2022-11-06T11:17:07.000Z</Time>
            <Position>
              <LatitudeDegrees>41.35383934713900089263916015625</LatitudeDegrees>
              <LongitudeDegrees>-1.647495925426483154296875</LongitudeDegrees>
            </Position>
            <AltitudeMeters>558.4000244140625</AltitudeMeters>
            <DistanceMeters>15739.620490283</DistanceMeters>
          </Trackpoint>
          <Trackpoint>
            <Time>2022-11-06T11:17:08.000Z</Time>
            <Position>
              <LatitudeDegrees>41.35386616922914981842041015625</LatitudeDegrees>
              <LongitudeDegrees>-1.6475202329456806182861328125</LongitudeDegrees>
            </Position>
            <AltitudeMeters>558.5999755859375</AltitudeMeters>
            <DistanceMeters>15743.231505429</DistanceMeters>
          </Trackpoint>
          <Trackpoint>
            <Time>2022-11-06T11:17:09.000Z</Time>
            <Position>
              <LatitudeDegrees>41.35389466769993305206298828125</LatitudeDegrees>
              <LongitudeDegrees>-1.647551916539669036865234375</LongitudeDegrees>
            </Position>
            <AltitudeMeters>558.79998779296875</AltitudeMeters>
            <DistanceMeters>15747.362709186</DistanceMeters>
          </Trackpoint>
          <Trackpoint>
            <Time>2022-11-06T11:17:10.000Z</Time>
            <Position>
              <LatitudeDegrees>41.3539148680865764617919921875</LatitudeDegrees>
              <LongitudeDegrees>-1.64757446385920047760009765625</LongitudeDegrees>
            </Position>
            <AltitudeMeters>559</AltitudeMeters>
            <DistanceMeters>15750.294710682</DistanceMeters>
          </Trackpoint>
          <Trackpoint>
            <Time>2022-11-06T11:17:11.000Z</Time>
            <Position>
              <LatitudeDegrees>41.353938169777393341064453125</LatitudeDegrees>
              <LongitudeDegrees>-1.64759055711328983306884765625</LongitudeDegrees>
            </Position>
            <AltitudeMeters>559</AltitudeMeters>
            <DistanceMeters>15753.214366854</DistanceMeters>
          </Trackpoint>
          <Trackpoint>
            <Time>2022-11-06T11:17:12.000Z</Time>
            <Position>
              <LatitudeDegrees>41.3539646565914154052734375</LatitudeDegrees>
              <LongitudeDegrees>-1.6476181335747241973876953125</LongitudeDegrees>
            </Position>
            <AltitudeMeters>559</AltitudeMeters>
            <DistanceMeters>15756.95557234</DistanceMeters>
          </Trackpoint>
          <Trackpoint>
            <Time>2022-11-06T11:17:13.000Z</Time>
            <Position>
              <LatitudeDegrees>41.35398334823548793792724609375</LatitudeDegrees>
              <LongitudeDegrees>-1.647641099989414215087890625</LongitudeDegrees>
            </Position>
            <AltitudeMeters>559.20001220703125</AltitudeMeters>
            <DistanceMeters>15759.787304651</DistanceMeters>
          </Trackpoint>
          <Trackpoint>
            <Time>2022-11-06T11:17:14.000Z</Time>
            <Position>
              <LatitudeDegrees>41.35400195606052875518798828125</LatitudeDegrees>
              <LongitudeDegrees>-1.6476630605757236480712890625</LongitudeDegrees>
            </Position>
            <AltitudeMeters>559.20001220703125</AltitudeMeters>
            <DistanceMeters>15762.554524343</DistanceMeters>
          </Trackpoint>
          <Trackpoint>
            <Time>2022-11-06T11:17:15.000Z</Time>
            <Position>
              <LatitudeDegrees>41.3540228269994258880615234375</LatitudeDegrees>
              <LongitudeDegrees>-1.6476955823600292205810546875</LongitudeDegrees>
            </Position>
            <AltitudeMeters>559.20001220703125</AltitudeMeters>
            <DistanceMeters>15766.130358266</DistanceMeters>
          </Trackpoint>
          <Trackpoint>
            <Time>2022-11-06T11:17:16.000Z</Time>
            <Position>
              <LatitudeDegrees>41.3540389202535152435302734375</LatitudeDegrees>
              <LongitudeDegrees>-1.64772332645952701568603515625</LongitudeDegrees>
            </Position>
            <AltitudeMeters>559.4000244140625</AltitudeMeters>
            <DistanceMeters>15769.05927831</DistanceMeters>
          </Trackpoint>
          <Trackpoint>
            <Time>2022-11-06T11:17:17.000Z</Time>
            <Position>
              <LatitudeDegrees>41.35405107401311397552490234375</LatitudeDegrees>
              <LongitudeDegrees>-1.64774696342647075653076171875</LongitudeDegrees>
            </Position>
            <AltitudeMeters>559.5999755859375</AltitudeMeters>
            <DistanceMeters>15771.453876093</DistanceMeters>
          </Trackpoint>
          <Trackpoint>
            <Time>2022-11-06T11:17:18.000Z</Time>
            <Position>
              <LatitudeDegrees>41.3540692627429962158203125</LatitudeDegrees>
              <LongitudeDegrees>-1.64778837002813816070556640625</LongitudeDegrees>
            </Position>
            <AltitudeMeters>559.79998779296875</AltitudeMeters>
            <DistanceMeters>15775.461931231</DistanceMeters>
          </Trackpoint>
          <Trackpoint>
            <Time>2022-11-06T11:17:19.000Z</Time>
            <Position>
              <LatitudeDegrees>41.35408736765384674072265625</LatitudeDegrees>
              <LongitudeDegrees>-1.64781820960342884063720703125</LongitudeDegrees>
            </Position>
            <AltitudeMeters>559.79998779296875</AltitudeMeters>
            <DistanceMeters>15778.667586701</DistanceMeters>
          </Trackpoint>
          <Trackpoint>
            <Time>2022-11-06T11:17:20.000Z</Time>
            <Position>
              <LatitudeDegrees>41.35409935377538204193115234375</LatitudeDegrees>
              <LongitudeDegrees>-1.64784704335033893585205078125</LongitudeDegrees>
            </Position>
            <AltitudeMeters>560.20001220703125</AltitudeMeters>
            <DistanceMeters>15781.423361418</DistanceMeters>
          </Trackpoint>
          <Trackpoint>
            <Time>2022-11-06T11:17:21.000Z</Time>
            <Position>
              <LatitudeDegrees>41.35410756804049015045166015625</LatitudeDegrees>
              <LongitudeDegrees>-1.6478803195059299468994140625</LongitudeDegrees>
            </Position>
            <AltitudeMeters>560.5999755859375</AltitudeMeters>
            <DistanceMeters>15784.350739519</DistanceMeters>
          </Trackpoint>
          <Trackpoint>
            <Time>2022-11-06T11:17:22.000Z</Time>
            <Position>
              <LatitudeDegrees>41.354112513363361358642578125</LatitudeDegrees>
              <LongitudeDegrees>-1.64791476912796497344970703125</LongitudeDegrees>
            </Position>
            <AltitudeMeters>560.79998779296875</AltitudeMeters>
            <DistanceMeters>15787.281200694</DistanceMeters>
          </Trackpoint>
          <Trackpoint>
            <Time>2022-11-06T11:17:23.000Z</Time>
            <Position>
              <LatitudeDegrees>41.35411896742880344390869140625</LatitudeDegrees>
              <LongitudeDegrees>-1.6479557566344738006591796875</LongitudeDegrees>
            </Position>
            <AltitudeMeters>560.79998779296875</AltitudeMeters>
            <DistanceMeters>15790.779164899</DistanceMeters>
          </Trackpoint>
          <Trackpoint>
            <Time>2022-11-06T11:17:24.000Z</Time>
            <Position>
              <LatitudeDegrees>41.354119889438152313232421875</LatitudeDegrees>
              <LongitudeDegrees>-1.64797796867787837982177734375</LongitudeDegrees>
            </Position>
            <AltitudeMeters>561.20001220703125</AltitudeMeters>
            <DistanceMeters>15792.636444954</DistanceMeters>
          </Trackpoint>
          <Trackpoint>
            <Time>2022-11-06T11:17:25.000Z</Time>
            <Position>
              <LatitudeDegrees>41.35412215255200862884521484375</LatitudeDegrees>
              <LongitudeDegrees>-1.6480127535760402679443359375</LongitudeDegrees>
            </Position>
            <AltitudeMeters>561.5999755859375</AltitudeMeters>
            <DistanceMeters>15795.55300663</DistanceMeters>
          </Trackpoint>
          <Trackpoint>
            <Time>2022-11-06T11:17:26.000Z</Time>
            <Position>
              <LatitudeDegrees>41.35411796160042285919189453125</LatitudeDegrees>
              <LongitudeDegrees>-1.64804804138839244842529296875</LongitudeDegrees>
            </Position>
            <AltitudeMeters>561.5999755859375</AltitudeMeters>
            <DistanceMeters>15798.536905987</DistanceMeters>
          </Trackpoint>
          <Trackpoint>
            <Time>2022-11-06T11:17:27.000Z</Time>
            <Position>
              <LatitudeDegrees>41.35411628521978855133056640625</LatitudeDegrees>
              <LongitudeDegrees>-1.6480834968388080596923828125</LongitudeDegrees>
            </Position>
            <AltitudeMeters>561.79998779296875</AltitudeMeters>
            <DistanceMeters>15801.505635448</DistanceMeters>
          </Trackpoint>
          <Trackpoint>
            <Time>2022-11-06T11:17:28.000Z</Time>
            <Position>
              <LatitudeDegrees>41.35411477647721767425537109375</LatitudeDegrees>
              <LongitudeDegrees>-1.64812331087887287139892578125</LongitudeDegrees>
            </Position>
            <AltitudeMeters>562</AltitudeMeters>
            <DistanceMeters>15804.838351161</DistanceMeters>
          </Trackpoint>
          <Trackpoint>
            <Time>2022-11-06T11:17:29.000Z</Time>
            <Position>
              <LatitudeDegrees>41.35411192663013935089111328125</LatitudeDegrees>
              <LongitudeDegrees>-1.64815776050090789794921875</LongitudeDegrees>
            </Position>
            <AltitudeMeters>562.20001220703125</AltitudeMeters>
            <DistanceMeters>15807.733158744</DistanceMeters>
          </Trackpoint>
          <Trackpoint>
            <Time>2022-11-06T11:17:30.000Z</Time>
            <Position>
              <LatitudeDegrees>41.35410941205918788909912109375</LatitudeDegrees>
              <LongitudeDegrees>-1.64818567223846912384033203125</LongitudeDegrees>
            </Position>
            <AltitudeMeters>562.4000244140625</AltitudeMeters>
            <DistanceMeters>15810.082068428</DistanceMeters>
          </Trackpoint>
          <Trackpoint>
            <Time>2022-11-06T11:17:31.000Z</Time>
            <Position>
              <LatitudeDegrees>41.354105137288570404052734375</LatitudeDegrees>
              <LongitudeDegrees>-1.6482162661850452423095703125</LongitudeDegrees>
            </Position>
            <AltitudeMeters>562.5999755859375</AltitudeMeters>
            <DistanceMeters>15812.681009978</DistanceMeters>
          </Trackpoint>
          <Trackpoint>
            <Time>2022-11-06T11:17:32.000Z</Time>
            <Position>
              <LatitudeDegrees>41.354100443422794342041015625</LatitudeDegrees>
              <LongitudeDegrees>-1.648252308368682861328125</LongitudeDegrees>
            </Position>
            <AltitudeMeters>562.79998779296875</AltitudeMeters>
            <DistanceMeters>15815.738153927</DistanceMeters>
          </Trackpoint>
          <Trackpoint>
            <Time>2022-11-06T11:17:33.000Z</Time>
            <Position>
              <LatitudeDegrees>41.3540952466428279876708984375</LatitudeDegrees>
              <LongitudeDegrees>-1.648282147943973541259765625</LongitudeDegrees>
            </Position>
            <AltitudeMeters>563</AltitudeMeters>
            <DistanceMeters>15818.29859051</DistanceMeters>
          </Trackpoint>
          <Trackpoint>
            <Time>2022-11-06T11:17:34.000Z</Time>
            <Position>
              <LatitudeDegrees>41.35409248061478137969970703125</LatitudeDegrees>
              <LongitudeDegrees>-1.64831391535699367523193359375</LongitudeDegrees>
            </Position>
            <AltitudeMeters>563</AltitudeMeters>
            <DistanceMeters>15820.96950054</DistanceMeters>
          </Trackpoint>
          <Trackpoint>
            <Time>2022-11-06T11:17:35.000Z</Time>
            <Position>
              <LatitudeDegrees>41.3540922291576862335205078125</LatitudeDegrees>
              <LongitudeDegrees>-1.6483476944267749786376953125</LongitudeDegrees>
            </Position>
            <AltitudeMeters>563.4000244140625</AltitudeMeters>
            <DistanceMeters>15823.791649974</DistanceMeters>
          </Trackpoint>
          <Trackpoint>
            <Time>2022-11-06T11:17:36.000Z</Time>
            <Position>
              <LatitudeDegrees>41.3540942408144474029541015625</LatitudeDegrees>
              <LongitudeDegrees>-1.648378707468509674072265625</LongitudeDegrees>
            </Position>
            <AltitudeMeters>563.5999755859375</AltitudeMeters>
            <DistanceMeters>15826.390591524</DistanceMeters>
          </Trackpoint>
          <Trackpoint>
            <Time>2022-11-06T11:17:37.000Z</Time>
            <Position>
              <LatitudeDegrees>41.35409264825284481048583984375</LatitudeDegrees>
              <LongitudeDegrees>-1.64840779267251491546630859375</LongitudeDegrees>
            </Position>
            <AltitudeMeters>563.79998779296875</AltitudeMeters>
            <DistanceMeters>15828.826317334</DistanceMeters>
          </Trackpoint>
          <Trackpoint>
            <Time>2022-11-06T11:17:38.000Z</Time>
            <Position>
              <LatitudeDegrees>41.35408912785351276397705078125</LatitudeDegrees>
              <LongitudeDegrees>-1.64843612350523471832275390625</LongitudeDegrees>
            </Position>
            <AltitudeMeters>564</AltitudeMeters>
            <DistanceMeters>15831.222799885</DistanceMeters>
          </Trackpoint>
          <Trackpoint>
            <Time>2022-11-06T11:17:39.000Z</Time>
            <Position>
              <LatitudeDegrees>41.354088373482227325439453125</LatitudeDegrees>
              <LongitudeDegrees>-1.64846361614763736724853515625</LongitudeDegrees>
            </Position>
            <AltitudeMeters>564</AltitudeMeters>
            <DistanceMeters>15833.519224202</DistanceMeters>
          </Trackpoint>
          <Trackpoint>
            <Time>2022-11-06T11:17:40.000Z</Time>
            <Position>
              <LatitudeDegrees>41.3540898822247982025146484375</LatitudeDegrees>
              <LongitudeDegrees>-1.6484881751239299774169921875</LongitudeDegrees>
            </Position>
            <AltitudeMeters>564.20001220703125</AltitudeMeters>
            <DistanceMeters>15835.574966349</DistanceMeters>
          </Trackpoint>
          <Trackpoint>
            <Time>2022-11-06T11:17:41.000Z</Time>
            <Position>
              <LatitudeDegrees>41.35409407317638397216796875</LatitudeDegrees>
              <LongitudeDegrees>-1.64851181209087371826171875</LongitudeDegrees>
            </Position>
            <AltitudeMeters>564.5999755859375</AltitudeMeters>
            <DistanceMeters>15837.60418168</DistanceMeters>
          </Trackpoint>
          <Trackpoint>
            <Time>2022-11-06T11:17:42.000Z</Time>
            <Position>
              <LatitudeDegrees>41.3540996052324771881103515625</LatitudeDegrees>
              <LongitudeDegrees>-1.648535616695880889892578125</LongitudeDegrees>
            </Position>
            <AltitudeMeters>564.79998779296875</AltitudeMeters>
            <DistanceMeters>15839.683942872</DistanceMeters>
          </Trackpoint>
          <Trackpoint>
            <Time>2022-11-06T11:17:43.000Z</Time>
            <Position>
              <LatitudeDegrees>41.354103125631809234619140625</LatitudeDegrees>
              <LongitudeDegrees>-1.64856319315731525421142578125</LongitudeDegrees>
            </Position>
            <AltitudeMeters>565</AltitudeMeters>
            <DistanceMeters>15842.019358504</DistanceMeters>
          </Trackpoint>
          <Trackpoint>
            <Time>2022-11-06T11:17:44.000Z</Time>
            <Position>
              <LatitudeDegrees>41.3541053049266338348388671875</LatitudeDegrees>
              <LongitudeDegrees>-1.64859303273260593414306640625</LongitudeDegrees>
            </Position>
            <AltitudeMeters>565.4000244140625</AltitudeMeters>
            <DistanceMeters>15844.52273084</DistanceMeters>
          </Trackpoint>
          <Trackpoint>
            <Time>2022-11-06T11:17:45.000Z</Time>
            <Position>
              <LatitudeDegrees>41.35410605929791927337646484375</LatitudeDegrees>
              <LongitudeDegrees>-1.64861180819571018218994140625</LongitudeDegrees>
            </Position>
            <AltitudeMeters>565.4000244140625</AltitudeMeters>
            <DistanceMeters>15846.09570285</DistanceMeters>
          </Trackpoint>
          <Trackpoint>
            <Time>2022-11-06T11:17:46.000Z</Time>
            <Position>
              <LatitudeDegrees>41.354107148945331573486328125</LatitudeDegrees>
              <LongitudeDegrees>-1.6486333496868610382080078125</LongitudeDegrees>
            </Position>
            <AltitudeMeters>565.5999755859375</AltitudeMeters>
            <DistanceMeters>15847.901210423</DistanceMeters>
          </Trackpoint>
          <Trackpoint>
            <Time>2022-11-06T11:17:47.000Z</Time>
            <Position>
              <LatitudeDegrees>41.35411016643047332763671875</LatitudeDegrees>
              <LongitudeDegrees>-1.648662351071834564208984375</LongitudeDegrees>
            </Position>
            <AltitudeMeters>566</AltitudeMeters>
            <DistanceMeters>15850.34618703</DistanceMeters>
          </Trackpoint>
          <Trackpoint>
            <Time>2022-11-06T11:17:48.000Z</Time>
            <Position>
              <LatitudeDegrees>41.3541140221059322357177734375</LatitudeDegrees>
              <LongitudeDegrees>-1.6486839763820171356201171875</LongitudeDegrees>
            </Position>
            <AltitudeMeters>566.20001220703125</AltitudeMeters>
            <DistanceMeters>15852.203467084</DistanceMeters>
          </Trackpoint>
          <Trackpoint>
            <Time>2022-11-06T11:17:49.000Z</Time>
            <Position>
              <LatitudeDegrees>41.35411829687654972076416015625</LatitudeDegrees>
              <LongitudeDegrees>-1.64870836772024631500244140625</LongitudeDegrees>
            </Position>
            <AltitudeMeters>566.4000244140625</AltitudeMeters>
            <DistanceMeters>15854.298369744</DistanceMeters>
          </Trackpoint>
          <Trackpoint>
            <Time>2022-11-06T11:17:50.000Z</Time>
            <Position>
              <LatitudeDegrees>41.35412089526653289794921875</LatitudeDegrees>
              <LongitudeDegrees>-1.648725382983684539794921875</LongitudeDegrees>
            </Position>
            <AltitudeMeters>566.5999755859375</AltitudeMeters>
            <DistanceMeters>15855.751998956</DistanceMeters>
          </Trackpoint>
          <Trackpoint>
            <Time>2022-11-06T11:17:51.000Z</Time>
            <Position>
              <LatitudeDegrees>41.3541240803897380828857421875</LatitudeDegrees>
              <LongitudeDegrees>-1.648743487894535064697265625</LongitudeDegrees>
            </Position>
            <AltitudeMeters>566.79998779296875</AltitudeMeters>
            <DistanceMeters>15857.304748263</DistanceMeters>
          </Trackpoint>
          <Trackpoint>
            <Time>2022-11-06T11:17:52.000Z</Time>
            <Position>
              <LatitudeDegrees>41.35412760078907012939453125</LatitudeDegrees>
              <LongitudeDegrees>-1.648769639432430267333984375</LongitudeDegrees>
            </Position>
            <AltitudeMeters>567</AltitudeMeters>
            <DistanceMeters>15859.525203563</DistanceMeters>
          </Trackpoint>
          <Trackpoint>
            <Time>2022-11-06T11:17:53.000Z</Time>
            <Position>
              <LatitudeDegrees>41.35412693023681640625</LatitudeDegrees>
              <LongitudeDegrees>-1.6487929411232471466064453125</LongitudeDegrees>
            </Position>
            <AltitudeMeters>567.4000244140625</AltitudeMeters>
            <DistanceMeters>15861.47267169</DistanceMeters>
          </Trackpoint>
          <Trackpoint>
            <Time>2022-11-06T11:17:54.000Z</Time>
            <Position>
              <LatitudeDegrees>41.35412449948489665985107421875</LatitudeDegrees>
              <LongitudeDegrees>-1.64880962111055850982666015625</LongitudeDegrees>
            </Position>
            <AltitudeMeters>567.5999755859375</AltitudeMeters>
            <DistanceMeters>15862.891723151</DistanceMeters>
          </Trackpoint>
          <Trackpoint>
            <Time>2022-11-06T11:17:55.000Z</Time>
            <Position>
              <LatitudeDegrees>41.35412089526653289794921875</LatitudeDegrees>
              <LongitudeDegrees>-1.64882772602140903472900390625</LongitudeDegrees>
            </Position>
            <AltitudeMeters>568</AltitudeMeters>
            <DistanceMeters>15864.458943873</DistanceMeters>
          </Trackpoint>
          <Trackpoint>
            <Time>2022-11-06T11:17:56.000Z</Time>
            <Position>
              <LatitudeDegrees>41.35411360301077365875244140625</LatitudeDegrees>
              <LongitudeDegrees>-1.64884851314127445220947265625</LongitudeDegrees>
            </Position>
            <AltitudeMeters>568.4000244140625</AltitudeMeters>
            <DistanceMeters>15866.37603571</DistanceMeters>
          </Trackpoint>
          <Trackpoint>
            <Time>2022-11-06T11:17:57.000Z</Time>
            <Position>
              <LatitudeDegrees>41.354109160602092742919921875</LatitudeDegrees>
              <LongitudeDegrees>-1.648869216442108154296875</LongitudeDegrees>
            </Position>
            <AltitudeMeters>568.5999755859375</AltitudeMeters>
            <DistanceMeters>15868.174025523</DistanceMeters>
          </Trackpoint>
          <Trackpoint>
            <Time>2022-11-06T11:17:58.000Z</Time>
            <Position>
              <LatitudeDegrees>41.3541063107550144195556640625</LatitudeDegrees>
              <LongitudeDegrees>-1.64888732135295867919921875</LongitudeDegrees>
            </Position>
            <AltitudeMeters>568.79998779296875</AltitudeMeters>
            <DistanceMeters>15869.723864332</DistanceMeters>
          </Trackpoint>
          <Trackpoint>
            <Time>2022-11-06T11:17:59.000Z</Time>
            <Position>
              <LatitudeDegrees>41.35410253889858722686767578125</LatitudeDegrees>
              <LongitudeDegrees>-1.64890668354928493499755859375</LongitudeDegrees>
            </Position>
            <AltitudeMeters>569</AltitudeMeters>
            <DistanceMeters>15871.396982289</DistanceMeters>
          </Trackpoint>
          <Trackpoint>
            <Time>2022-11-06T11:18:00.000Z</Time>
            <Position>
              <LatitudeDegrees>41.35409834794700145721435546875</LatitudeDegrees>
              <LongitudeDegrees>-1.64892696775496006011962890625</LongitudeDegrees>
            </Position>
            <AltitudeMeters>569.4000244140625</AltitudeMeters>
            <DistanceMeters>15873.154334315</DistanceMeters>
          </Trackpoint>
          <Trackpoint>
            <Time>2022-11-06T11:18:01.000Z</Time>
            <Position>
              <LatitudeDegrees>41.35409549809992313385009765625</LatitudeDegrees>
              <LongitudeDegrees>-1.64894574321806430816650390625</LongitudeDegrees>
            </Position>
            <AltitudeMeters>569.5999755859375</AltitudeMeters>
            <DistanceMeters>15874.755752971</DistanceMeters>
          </Trackpoint>
          <Trackpoint>
            <Time>2022-11-06T11:18:02.000Z</Time>
            <Position>
              <LatitudeDegrees>41.354096420109272003173828125</LatitudeDegrees>
              <LongitudeDegrees>-1.64897072128951549530029296875</LongitudeDegrees>
            </Position>
            <AltitudeMeters>569.79998779296875</AltitudeMeters>
            <DistanceMeters>15876.846340687</DistanceMeters>
          </Trackpoint>
          <Trackpoint>
            <Time>2022-11-06T11:18:03.000Z</Time>
            <Position>
              <LatitudeDegrees>41.35409600101411342620849609375</LatitudeDegrees>
              <LongitudeDegrees>-1.64899083785712718963623046875</LongitudeDegrees>
            </Position>
            <AltitudeMeters>569.79998779296875</AltitudeMeters>
            <DistanceMeters>15878.530218356</DistanceMeters>
          </Trackpoint>
          <Trackpoint>
            <Time>2022-11-06T11:18:04.000Z</Time>
            <Position>
              <LatitudeDegrees>41.35409449227154254913330078125</LatitudeDegrees>
              <LongitudeDegrees>-1.6490095295011997222900390625</LongitudeDegrees>
            </Position>
            <AltitudeMeters>570</AltitudeMeters>
            <DistanceMeters>15880.100317356</DistanceMeters>
          </Trackpoint>
          <Trackpoint>
            <Time>2022-11-06T11:18:05.000Z</Time>
            <Position>
              <LatitudeDegrees>41.35409281589090824127197265625</LatitudeDegrees>
              <LongitudeDegrees>-1.64902805350720882415771484375</LongitudeDegrees>
            </Position>
            <AltitudeMeters>570.4000244140625</AltitudeMeters>
            <DistanceMeters>15881.655971715</DistanceMeters>
          </Trackpoint>
          <Trackpoint>
            <Time>2022-11-06T11:18:06.000Z</Time>
            <Position>
              <LatitudeDegrees>41.35409147478640079498291015625</LatitudeDegrees>
              <LongitudeDegrees>-1.649045906960964202880859375</LongitudeDegrees>
            </Position>
            <AltitudeMeters>570.79998779296875</AltitudeMeters>
            <DistanceMeters>15883.15245391</DistanceMeters>
          </Trackpoint>
          <Trackpoint>
            <Time>2022-11-06T11:18:07.000Z</Time>
            <Position>
              <LatitudeDegrees>41.3540902175009250640869140625</LatitudeDegrees>
              <LongitudeDegrees>-1.64906459860503673553466796875</LongitudeDegrees>
            </Position>
            <AltitudeMeters>571</AltitudeMeters>
            <DistanceMeters>15884.719674632</DistanceMeters>
          </Trackpoint>
          <Trackpoint>
            <Time>2022-11-06T11:18:08.000Z</Time>
            <Position>
              <LatitudeDegrees>41.35408845730125904083251953125</LatitudeDegrees>
              <LongitudeDegrees>-1.64908178150653839111328125</LongitudeDegrees>
            </Position>
            <AltitudeMeters>571.20001220703125</AltitudeMeters>
            <DistanceMeters>15886.167078423</DistanceMeters>
          </Trackpoint>
          <Trackpoint>
            <Time>2022-11-06T11:18:09.000Z</Time>
            <Position>
              <LatitudeDegrees>41.35408493690192699432373046875</LatitudeDegrees>
              <LongitudeDegrees>-1.64909929968416690826416015625</LongitudeDegrees>
            </Position>
            <AltitudeMeters>571.4000244140625</AltitudeMeters>
            <DistanceMeters>15887.681555038</DistanceMeters>
          </Trackpoint>
          <Trackpoint>
            <Time>2022-11-06T11:18:10.000Z</Time>
            <Position>
              <LatitudeDegrees>41.35408342815935611724853515625</LatitudeDegrees>
              <LongitudeDegrees>-1.64911933243274688720703125</LongitudeDegrees>
            </Position>
            <AltitudeMeters>571.79998779296875</AltitudeMeters>
            <DistanceMeters>15889.362749235</DistanceMeters>
          </Trackpoint>
          <Trackpoint>
            <Time>2022-11-06T11:18:11.000Z</Time>
            <Position>
              <LatitudeDegrees>41.35408275760710239410400390625</LatitudeDegrees>
              <LongitudeDegrees>-1.6491386108100414276123046875</LongitudeDegrees>
            </Position>
            <AltitudeMeters>572</AltitudeMeters>
            <DistanceMeters>15890.975406054</DistanceMeters>
          </Trackpoint>
          <Trackpoint>
            <Time>2022-11-06T11:18:12.000Z</Time>
            <Position>
              <LatitudeDegrees>41.35408258996903896331787109375</LatitudeDegrees>
              <LongitudeDegrees>-1.64915126748383045196533203125</LongitudeDegrees>
            </Position>
            <AltitudeMeters>572.20001220703125</AltitudeMeters>
            <DistanceMeters>15892.033578761</DistanceMeters>
          </Trackpoint>
          <Trackpoint>
            <Time>2022-11-06T11:18:13.000Z</Time>
            <Position>
              <LatitudeDegrees>41.35407387278974056243896484375</LatitudeDegrees>
              <LongitudeDegrees>-1.64917071349918842315673828125</LongitudeDegrees>
            </Position>
            <AltitudeMeters>572.5999755859375</AltitudeMeters>
            <DistanceMeters>15893.926972632</DistanceMeters>
          </Trackpoint>
          <Trackpoint>
            <Time>2022-11-06T11:18:14.000Z</Time>
            <Position>
              <LatitudeDegrees>41.35406649671494960784912109375</LatitudeDegrees>
              <LongitudeDegrees>-1.64918311871588230133056640625</LongitudeDegrees>
            </Position>
            <AltitudeMeters>572.5999755859375</AltitudeMeters>
            <DistanceMeters>15895.250541606</DistanceMeters>
          </Trackpoint>
          <Trackpoint>
            <Time>2022-11-06T11:18:15.000Z</Time>
            <Position>
              <LatitudeDegrees>41.35406188666820526123046875</LatitudeDegrees>
              <LongitudeDegrees>-1.649201810359954833984375</LongitudeDegrees>
            </Position>
            <AltitudeMeters>573</AltitudeMeters>
            <DistanceMeters>15896.89645258</DistanceMeters>
          </Trackpoint>
          <Trackpoint>
            <Time>2022-11-06T11:18:16.000Z</Time>
            <Position>
              <LatitudeDegrees>41.3540590368211269378662109375</LatitudeDegrees>
              <LongitudeDegrees>-1.6492197476327419281005859375</LongitudeDegrees>
            </Position>
            <AltitudeMeters>573.4000244140625</AltitudeMeters>
            <DistanceMeters>15898.428712308</DistanceMeters>
          </Trackpoint>
          <Trackpoint>
            <Time>2022-11-06T11:18:17.000Z</Time>
            <Position>
              <LatitudeDegrees>41.3540558516979217529296875</LatitudeDegrees>
              <LongitudeDegrees>-1.64924229495227336883544921875</LongitudeDegrees>
            </Position>
            <AltitudeMeters>573.5999755859375</AltitudeMeters>
            <DistanceMeters>15900.345804146</DistanceMeters>
          </Trackpoint>
          <Trackpoint>
            <Time>2022-11-06T11:18:18.000Z</Time>
            <Position>
              <LatitudeDegrees>41.35405124165117740631103515625</LatitudeDegrees>
              <LongitudeDegrees>-1.64925838820636272430419921875</LongitudeDegrees>
            </Position>
            <AltitudeMeters>573.5999755859375</AltitudeMeters>
            <DistanceMeters>15901.783819273</DistanceMeters>
          </Trackpoint>
          <Trackpoint>
            <Time>2022-11-06T11:18:19.000Z</Time>
            <Position>
              <LatitudeDegrees>41.35404956527054309844970703125</LatitudeDegrees>
              <LongitudeDegrees>-1.64927699603140354156494140625</LongitudeDegrees>
            </Position>
            <AltitudeMeters>573.79998779296875</AltitudeMeters>
            <DistanceMeters>15903.348156422</DistanceMeters>
          </Trackpoint>
          <Trackpoint>
            <Time>2022-11-06T11:18:20.000Z</Time>
            <Position>
              <LatitudeDegrees>41.35404822416603565216064453125</LatitudeDegrees>
              <LongitudeDegrees>-1.64929635822772979736328125</LongitudeDegrees>
            </Position>
            <AltitudeMeters>573.79998779296875</AltitudeMeters>
            <DistanceMeters>15904.971973629</DistanceMeters>
          </Trackpoint>
          <Trackpoint>
            <Time>2022-11-06T11:18:21.000Z</Time>
            <Position>
              <LatitudeDegrees>41.354049481451511383056640625</LatitudeDegrees>
              <LongitudeDegrees>-1.64931655861437320709228515625</LongitudeDegrees>
            </Position>
            <AltitudeMeters>574.20001220703125</AltitudeMeters>
            <DistanceMeters>15906.666542692</DistanceMeters>
          </Trackpoint>
          <Trackpoint>
            <Time>2022-11-06T11:18:22.000Z</Time>
            <Position>
              <LatitudeDegrees>41.3540563546121120452880859375</LatitudeDegrees>
              <LongitudeDegrees>-1.64933659136295318603515625</LongitudeDegrees>
            </Position>
            <AltitudeMeters>574.5999755859375</AltitudeMeters>
            <DistanceMeters>15908.506727103</DistanceMeters>
          </Trackpoint>
          <Trackpoint>
            <Time>2022-11-06T11:18:23.000Z</Time>
            <Position>
              <LatitudeDegrees>41.35406632907688617706298828125</LatitudeDegrees>
              <LongitudeDegrees>-1.64935310371220111846923828125</LongitudeDegrees>
            </Position>
            <AltitudeMeters>575</AltitudeMeters>
            <DistanceMeters>15910.279427473</DistanceMeters>
          </Trackpoint>
          <Trackpoint>
            <Time>2022-11-06T11:18:24.000Z</Time>
            <Position>
              <LatitudeDegrees>41.354074291884899139404296875</LatitudeDegrees>
              <LongitudeDegrees>-1.64936743676662445068359375</LongitudeDegrees>
            </Position>
            <AltitudeMeters>575</AltitudeMeters>
            <DistanceMeters>15911.76986325</DistanceMeters>
          </Trackpoint>
          <Trackpoint>
            <Time>2022-11-06T11:18:25.000Z</Time>
            <Position>
              <LatitudeDegrees>41.35408158414065837860107421875</LatitudeDegrees>
              <LongitudeDegrees>-1.64938763715326786041259765625</LongitudeDegrees>
            </Position>
            <AltitudeMeters>575.20001220703125</AltitudeMeters>
            <DistanceMeters>15913.641672444</DistanceMeters>
          </Trackpoint>
          <Trackpoint>
            <Time>2022-11-06T11:18:26.000Z</Time>
            <Position>
              <LatitudeDegrees>41.35408644564449787139892578125</LatitudeDegrees>
              <LongitudeDegrees>-1.64939769543707370758056640625</LongitudeDegrees>
            </Position>
            <AltitudeMeters>575.5999755859375</AltitudeMeters>
            <DistanceMeters>15914.642841004</DistanceMeters>
          </Trackpoint>
          <Trackpoint>
            <Time>2022-11-06T11:18:27.000Z</Time>
            <Position>
              <LatitudeDegrees>41.354099772870540618896484375</LatitudeDegrees>
              <LongitudeDegrees>-1.6494118608534336090087890625</LongitudeDegrees>
            </Position>
            <AltitudeMeters>575.79998779296875</AltitudeMeters>
            <DistanceMeters>15916.543375292</DistanceMeters>
          </Trackpoint>
          <Trackpoint>
            <Time>2022-11-06T11:18:28.000Z</Time>
            <Position>
              <LatitudeDegrees>41.3541116751730442047119140625</LatitudeDegrees>
              <LongitudeDegrees>-1.64942317642271518707275390625</LongitudeDegrees>
            </Position>
            <AltitudeMeters>575.79998779296875</AltitudeMeters>
            <DistanceMeters>15918.169970631</DistanceMeters>
          </Trackpoint>
          <Trackpoint>
            <Time>2022-11-06T11:18:29.000Z</Time>
            <Position>
              <LatitudeDegrees>41.35411947034299373626708984375</LatitudeDegrees>
              <LongitudeDegrees>-1.649428121745586395263671875</LongitudeDegrees>
            </Position>
            <AltitudeMeters>576.20001220703125</AltitudeMeters>
            <DistanceMeters>15919.129693402</DistanceMeters>
          </Trackpoint>
          <Trackpoint>
            <Time>2022-11-06T11:18:30.000Z</Time>
            <Position>
              <LatitudeDegrees>41.35413086973130702972412109375</LatitudeDegrees>
              <LongitudeDegrees>-1.6494353301823139190673828125</LongitudeDegrees>
            </Position>
            <AltitudeMeters>576.5999755859375</AltitudeMeters>
            <DistanceMeters>15920.532746026</DistanceMeters>
          </Trackpoint>
          <Trackpoint>
            <Time>2022-11-06T11:18:31.000Z</Time>
            <Position>
              <LatitudeDegrees>41.354142688214778900146484375</LatitudeDegrees>
              <LongitudeDegrees>-1.649449579417705535888671875</LongitudeDegrees>
            </Position>
            <AltitudeMeters>576.79998779296875</AltitudeMeters>
            <DistanceMeters>15922.305446396</DistanceMeters>
          </Trackpoint>
          <Trackpoint>
            <Time>2022-11-06T11:18:32.000Z</Time>
            <Position>
              <LatitudeDegrees>41.35414947755634784698486328125</LatitudeDegrees>
              <LongitudeDegrees>-1.64946625940501689910888671875</LongitudeDegrees>
            </Position>
            <AltitudeMeters>577</AltitudeMeters>
            <DistanceMeters>15923.889858353</DistanceMeters>
          </Trackpoint>
          <Trackpoint>
            <Time>2022-11-06T11:18:33.000Z</Time>
            <Position>
              <LatitudeDegrees>41.35415576398372650146484375</LatitudeDegrees>
              <LongitudeDegrees>-1.649485118687152862548828125</LongitudeDegrees>
            </Position>
            <AltitudeMeters>577.4000244140625</AltitudeMeters>
            <DistanceMeters>15925.616104346</DistanceMeters>
          </Trackpoint>
          <Trackpoint>
            <Time>2022-11-06T11:18:34.000Z</Time>
            <Position>
              <LatitudeDegrees>41.35416439734399318695068359375</LatitudeDegrees>
              <LongitudeDegrees>-1.6495043970644474029541015625</LongitudeDegrees>
            </Position>
            <AltitudeMeters>577.5999755859375</AltitudeMeters>
            <DistanceMeters>15927.490324113</DistanceMeters>
          </Trackpoint>
          <Trackpoint>
            <Time>2022-11-06T11:18:35.000Z</Time>
            <Position>
              <LatitudeDegrees>41.3541690073907375335693359375</LatitudeDegrees>
              <LongitudeDegrees>-1.6495211608707904815673828125</LongitudeDegrees>
            </Position>
            <AltitudeMeters>577.79998779296875</AltitudeMeters>
            <DistanceMeters>15928.98075989</DistanceMeters>
          </Trackpoint>
          <Trackpoint>
            <Time>2022-11-06T11:18:36.000Z</Time>
            <Position>
              <LatitudeDegrees>41.354170851409435272216796875</LatitudeDegrees>
              <LongitudeDegrees>-1.649536080658435821533203125</LongitudeDegrees>
            </Position>
            <AltitudeMeters>578</AltitudeMeters>
            <DistanceMeters>15930.245008098</DistanceMeters>
          </Trackpoint>
          <Trackpoint>
            <Time>2022-11-06T11:18:37.000Z</Time>
            <Position>
              <LatitudeDegrees>41.3541753776371479034423828125</LatitudeDegrees>
              <LongitudeDegrees>-1.64955510757863521575927734375</LongitudeDegrees>
            </Position>
            <AltitudeMeters>578.4000244140625</AltitudeMeters>
            <DistanceMeters>15931.912720167</DistanceMeters>
          </Trackpoint>
          <Trackpoint>
            <Time>2022-11-06T11:18:38.000Z</Time>
            <Position>
              <LatitudeDegrees>41.3541790656745433807373046875</LatitudeDegrees>
              <LongitudeDegrees>-1.64957396686077117919921875</LongitudeDegrees>
            </Position>
            <AltitudeMeters>578.5999755859375</AltitudeMeters>
            <DistanceMeters>15933.542088902</DistanceMeters>
          </Trackpoint>
          <Trackpoint>
            <Time>2022-11-06T11:18:39.000Z</Time>
            <Position>
              <LatitudeDegrees>41.3541864417493343353271484375</LatitudeDegrees>
              <LongitudeDegrees>-1.64958511479198932647705078125</LongitudeDegrees>
            </Position>
            <AltitudeMeters>578.79998779296875</AltitudeMeters>
            <DistanceMeters>15934.784724437</DistanceMeters>
          </Trackpoint>
          <Trackpoint>
            <Time>2022-11-06T11:18:40.000Z</Time>
            <Position>
              <LatitudeDegrees>41.35419038124382495880126953125</LatitudeDegrees>
              <LongitudeDegrees>-1.6495979391038417816162109375</LongitudeDegrees>
            </Position>
            <AltitudeMeters>579</AltitudeMeters>
            <DistanceMeters>15935.94467331</DistanceMeters>
          </Trackpoint>
          <Trackpoint>
            <Time>2022-11-06T11:18:41.000Z</Time>
            <Position>
              <LatitudeDegrees>41.3541954942047595977783203125</LatitudeDegrees>
              <LongitudeDegrees>-1.649612523615360260009765625</LongitudeDegrees>
            </Position>
            <AltitudeMeters>579.20001220703125</AltitudeMeters>
            <DistanceMeters>15937.291909506</DistanceMeters>
          </Trackpoint>
          <Trackpoint>
            <Time>2022-11-06T11:18:42.000Z</Time>
            <Position>
              <LatitudeDegrees>41.35419826023280620574951171875</LatitudeDegrees>
              <LongitudeDegrees>-1.6496307961642742156982421875</LongitudeDegrees>
            </Position>
            <AltitudeMeters>579.4000244140625</AltitudeMeters>
            <DistanceMeters>15938.847563865</DistanceMeters>
          </Trackpoint>
          <Trackpoint>
            <Time>2022-11-06T11:18:43.000Z</Time>
            <Position>
              <LatitudeDegrees>41.35419809259474277496337890625</LatitudeDegrees>
              <LongitudeDegrees>-1.64965082891285419464111328125</LongitudeDegrees>
            </Position>
            <AltitudeMeters>579.4000244140625</AltitudeMeters>
            <DistanceMeters>15940.520681822</DistanceMeters>
          </Trackpoint>
          <Trackpoint>
            <Time>2022-11-06T11:18:44.000Z</Time>
            <Position>
              <LatitudeDegrees>41.35419356636703014373779296875</LatitudeDegrees>
              <LongitudeDegrees>-1.64967178367078304290771484375</LongitudeDegrees>
            </Position>
            <AltitudeMeters>579.4000244140625</AltitudeMeters>
            <DistanceMeters>15942.341131782</DistanceMeters>
          </Trackpoint>
          <Trackpoint>
            <Time>2022-11-06T11:18:45.000Z</Time>
            <Position>
              <LatitudeDegrees>41.35418526828289031982421875</LatitudeDegrees>
              <LongitudeDegrees>-1.6496904753148555755615234375</LongitudeDegrees>
            </Position>
            <AltitudeMeters>579.4000244140625</AltitudeMeters>
            <DistanceMeters>15944.154125942</DistanceMeters>
          </Trackpoint>
          <Trackpoint>
            <Time>2022-11-06T11:18:46.000Z</Time>
            <Position>
              <LatitudeDegrees>41.35417546145617961883544921875</LatitudeDegrees>
              <LongitudeDegrees>-1.64970899932086467742919921875</LongitudeDegrees>
            </Position>
            <AltitudeMeters>579.4000244140625</AltitudeMeters>
            <DistanceMeters>15946.047519812</DistanceMeters>
          </Trackpoint>
          <Trackpoint>
            <Time>2022-11-06T11:18:47.000Z</Time>
            <Position>
              <LatitudeDegrees>41.35416506789624691009521484375</LatitudeDegrees>
              <LongitudeDegrees>-1.64972928352653980255126953125</LongitudeDegrees>
            </Position>
            <AltitudeMeters>579.5999755859375</AltitudeMeters>
            <DistanceMeters>15948.098864645</DistanceMeters>
          </Trackpoint>
          <Trackpoint>
            <Time>2022-11-06T11:18:48.000Z</Time>
            <Position>
              <LatitudeDegrees>41.3541576080024242401123046875</LatitudeDegrees>
              <LongitudeDegrees>-1.6497521661221981048583984375</LongitudeDegrees>
            </Position>
            <AltitudeMeters>579.5999755859375</AltitudeMeters>
            <DistanceMeters>15950.185128494</DistanceMeters>
          </Trackpoint>
          <Trackpoint>
            <Time>2022-11-06T11:18:49.000Z</Time>
            <Position>
              <LatitudeDegrees>41.35415014810860157012939453125</LatitudeDegrees>
              <LongitudeDegrees>-1.64977622218430042266845703125</LongitudeDegrees>
            </Position>
            <AltitudeMeters>579.79998779296875</AltitudeMeters>
            <DistanceMeters>15952.360389411</DistanceMeters>
          </Trackpoint>
          <Trackpoint>
            <Time>2022-11-06T11:18:50.000Z</Time>
            <Position>
              <LatitudeDegrees>41.3541381619870662689208984375</LatitudeDegrees>
              <LongitudeDegrees>-1.64980052970349788665771484375</LongitudeDegrees>
            </Position>
            <AltitudeMeters>579.79998779296875</AltitudeMeters>
            <DistanceMeters>15954.79054784</DistanceMeters>
          </Trackpoint>
          <Trackpoint>
            <Time>2022-11-06T11:18:51.000Z</Time>
            <Position>
              <LatitudeDegrees>41.35412600822746753692626953125</LatitudeDegrees>
              <LongitudeDegrees>-1.64982198737561702728271484375</LongitudeDegrees>
            </Position>
            <AltitudeMeters>580.20001220703125</AltitudeMeters>
            <DistanceMeters>15957.039290335</DistanceMeters>
          </Trackpoint>
          <Trackpoint>
            <Time>2022-11-06T11:18:52.000Z</Time>
            <Position>
              <LatitudeDegrees>41.3541156984865665435791015625</LatitudeDegrees>
              <LongitudeDegrees>-1.64984327740967273712158203125</LongitudeDegrees>
            </Position>
            <AltitudeMeters>580.4000244140625</AltitudeMeters>
            <DistanceMeters>15959.155635751</DistanceMeters>
          </Trackpoint>
          <Trackpoint>
            <Time>2022-11-06T11:18:53.000Z</Time>
            <Position>
              <LatitudeDegrees>41.35410748422145843505859375</LatitudeDegrees>
              <LongitudeDegrees>-1.649864651262760162353515625</LongitudeDegrees>
            </Position>
            <AltitudeMeters>580.4000244140625</AltitudeMeters>
            <DistanceMeters>15961.162477571</DistanceMeters>
          </Trackpoint>
          <Trackpoint>
            <Time>2022-11-06T11:18:54.000Z</Time>
            <Position>
              <LatitudeDegrees>41.3540985994040966033935546875</LatitudeDegrees>
              <LongitudeDegrees>-1.64988376200199127197265625</LongitudeDegrees>
            </Position>
            <AltitudeMeters>580.5999755859375</AltitudeMeters>
            <DistanceMeters>15963.039104816</DistanceMeters>
          </Trackpoint>
          <Trackpoint>
            <Time>2022-11-06T11:18:55.000Z</Time>
            <Position>
              <LatitudeDegrees>41.35408862493932247161865234375</LatitudeDegrees>
              <LongitudeDegrees>-1.64990278892219066619873046875</LongitudeDegrees>
            </Position>
            <AltitudeMeters>580.79998779296875</AltitudeMeters>
            <DistanceMeters>15964.977277099</DistanceMeters>
          </Trackpoint>
          <Trackpoint>
            <Time>2022-11-06T11:18:56.000Z</Time>
            <Position>
              <LatitudeDegrees>41.35407856665551662445068359375</LatitudeDegrees>
              <LongitudeDegrees>-1.6499234922230243682861328125</LongitudeDegrees>
            </Position>
            <AltitudeMeters>581</AltitudeMeters>
            <DistanceMeters>15967.037407175</DistanceMeters>
          </Trackpoint>
          <Trackpoint>
            <Time>2022-11-06T11:18:57.000Z</Time>
            <Position>
              <LatitudeDegrees>41.35406599380075931549072265625</LatitudeDegrees>
              <LongitudeDegrees>-1.64994302205741405487060546875</LongitudeDegrees>
            </Position>
            <AltitudeMeters>581.4000244140625</AltitudeMeters>
            <DistanceMeters>15969.187616267</DistanceMeters>
          </Trackpoint>
          <Trackpoint>
            <Time>2022-11-06T11:18:58.000Z</Time>
            <Position>
              <LatitudeDegrees>41.3540533371269702911376953125</LatitudeDegrees>
              <LongitudeDegrees>-1.64996045641601085662841796875</LongitudeDegrees>
            </Position>
            <AltitudeMeters>581.4000244140625</AltitudeMeters>
            <DistanceMeters>15971.214605359</DistanceMeters>
          </Trackpoint>
          <Trackpoint>
            <Time>2022-11-06T11:18:59.000Z</Time>
            <Position>
              <LatitudeDegrees>41.35403774678707122802734375</LatitudeDegrees>
              <LongitudeDegrees>-1.64997420273721218109130859375</LongitudeDegrees>
            </Position>
            <AltitudeMeters>581.5999755859375</AltitudeMeters>
            <DistanceMeters>15973.29653636</DistanceMeters>
          </Trackpoint>
          <Trackpoint>
            <Time>2022-11-06T11:19:00.000Z</Time>
            <Position>
              <LatitudeDegrees>41.35402425192296504974365234375</LatitudeDegrees>
              <LongitudeDegrees>-1.6499868594110012054443359375</LongitudeDegrees>
            </Position>
            <AltitudeMeters>581.79998779296875</AltitudeMeters>
            <DistanceMeters>15975.136720771</DistanceMeters>
          </Trackpoint>
          <Trackpoint>
            <Time>2022-11-06T11:19:01.000Z</Time>
            <Position>
              <LatitudeDegrees>41.35401151143014430999755859375</LatitudeDegrees>
              <LongitudeDegrees>-1.65000353939831256866455078125</LongitudeDegrees>
            </Position>
            <AltitudeMeters>582</AltitudeMeters>
            <DistanceMeters>15977.125482568</DistanceMeters>
          </Trackpoint>
          <Trackpoint>
            <Time>2022-11-06T11:19:02.000Z</Time>
            <Position>
              <LatitudeDegrees>41.3540000282227993011474609375</LatitudeDegrees>
              <LongitudeDegrees>-1.65002063848078250885009765625</LongitudeDegrees>
            </Position>
            <AltitudeMeters>582.20001220703125</AltitudeMeters>
            <DistanceMeters>15979.042574405</DistanceMeters>
          </Trackpoint>
          <Trackpoint>
            <Time>2022-11-06T11:19:03.000Z</Time>
            <Position>
              <LatitudeDegrees>41.3539913110435009002685546875</LatitudeDegrees>
              <LongitudeDegrees>-1.65004025213420391082763671875</LongitudeDegrees>
            </Position>
            <AltitudeMeters>582.5999755859375</AltitudeMeters>
            <DistanceMeters>15980.947854104</DistanceMeters>
          </Trackpoint>
          <Trackpoint>
            <Time>2022-11-06T11:19:04.000Z</Time>
            <Position>
              <LatitudeDegrees>41.35397999547421932220458984375</LatitudeDegrees>
              <LongitudeDegrees>-1.65005743503570556640625</LongitudeDegrees>
            </Position>
            <AltitudeMeters>582.79998779296875</AltitudeMeters>
            <DistanceMeters>15982.855502082</DistanceMeters>
          </Trackpoint>
          <Trackpoint>
            <Time>2022-11-06T11:19:05.000Z</Time>
            <Position>
              <LatitudeDegrees>41.3539681769907474517822265625</LatitudeDegrees>
              <LongitudeDegrees>-1.65007361210882663726806640625</LongitudeDegrees>
            </Position>
            <AltitudeMeters>583</AltitudeMeters>
            <DistanceMeters>15984.736935037</DistanceMeters>
          </Trackpoint>
          <Trackpoint>
            <Time>2022-11-06T11:19:06.000Z</Time>
            <Position>
              <LatitudeDegrees>41.35396004654467105865478515625</LatitudeDegrees>
              <LongitudeDegrees>-1.65009163320064544677734375</LongitudeDegrees>
            </Position>
            <AltitudeMeters>583</AltitudeMeters>
            <DistanceMeters>15986.491715954</DistanceMeters>
          </Trackpoint>
          <Trackpoint>
            <Time>2022-11-06T11:19:07.000Z</Time>
            <Position>
              <LatitudeDegrees>41.35395132936537265777587890625</LatitudeDegrees>
              <LongitudeDegrees>-1.65011032484471797943115234375</LongitudeDegrees>
            </Position>
            <AltitudeMeters>583.20001220703125</AltitudeMeters>
            <DistanceMeters>15988.329445148</DistanceMeters>
          </Trackpoint>
          <Trackpoint>
            <Time>2022-11-06T11:19:08.000Z</Time>
            <Position>
              <LatitudeDegrees>41.35394110344350337982177734375</LatitudeDegrees>
              <LongitudeDegrees>-1.6501273401081562042236328125</LongitudeDegrees>
            </Position>
            <AltitudeMeters>583.5999755859375</AltitudeMeters>
            <DistanceMeters>15990.152373597</DistanceMeters>
          </Trackpoint>
          <Trackpoint>
            <Time>2022-11-06T11:19:09.000Z</Time>
            <Position>
              <LatitudeDegrees>41.35392836295068264007568359375</LatitudeDegrees>
              <LongitudeDegrees>-1.65014636702835559844970703125</LongitudeDegrees>
            </Position>
            <AltitudeMeters>583.79998779296875</AltitudeMeters>
            <DistanceMeters>15992.285718044</DistanceMeters>
          </Trackpoint>
          <Trackpoint>
            <Time>2022-11-06T11:19:10.000Z</Time>
            <Position>
              <LatitudeDegrees>41.35391428135335445404052734375</LatitudeDegrees>
              <LongitudeDegrees>-1.6501645557582378387451171875</LongitudeDegrees>
            </Position>
            <AltitudeMeters>584</AltitudeMeters>
            <DistanceMeters>15994.469265699</DistanceMeters>
          </Trackpoint>
          <Trackpoint>
            <Time>2022-11-06T11:19:11.000Z</Time>
            <Position>
              <LatitudeDegrees>41.3539017923176288604736328125</LatitudeDegrees>
              <LongitudeDegrees>-1.65018341504037380218505859375</LongitudeDegrees>
            </Position>
            <AltitudeMeters>584.20001220703125</AltitudeMeters>
            <DistanceMeters>15996.57062416</DistanceMeters>
          </Trackpoint>
          <Trackpoint>
            <Time>2022-11-06T11:19:12.000Z</Time>
            <Position>
              <LatitudeDegrees>41.35388812981545925140380859375</LatitudeDegrees>
              <LongitudeDegrees>-1.65020135231316089630126953125</LongitudeDegrees>
            </Position>
            <AltitudeMeters>584.20001220703125</AltitudeMeters>
            <DistanceMeters>15998.703968607</DistanceMeters>
          </Trackpoint>
          <Trackpoint>
            <Time>2022-11-06T11:19:13.000Z</Time>
            <Position>
              <LatitudeDegrees>41.353873796761035919189453125</LatitudeDegrees>
              <LongitudeDegrees>-1.6502178646624088287353515625</LongitudeDegrees>
            </Position>
            <AltitudeMeters>584.4000244140625</AltitudeMeters>
            <DistanceMeters>16000.816042886</DistanceMeters>
          </Trackpoint>
          <Trackpoint>
            <Time>2022-11-06T11:19:14.000Z</Time>
            <Position>
              <LatitudeDegrees>41.353861056268215179443359375</LatitudeDegrees>
              <LongitudeDegrees>-1.65023722685873508453369140625</LongitudeDegrees>
            </Position>
            <AltitudeMeters>584.4000244140625</AltitudeMeters>
            <DistanceMeters>16002.966251978</DistanceMeters>
          </Trackpoint>
          <Trackpoint>
            <Time>2022-11-06T11:19:15.000Z</Time>
            <Position>
              <LatitudeDegrees>41.3538493216037750244140625</LatitudeDegrees>
              <LongitudeDegrees>-1.65025658905506134033203125</LongitudeDegrees>
            </Position>
            <AltitudeMeters>584.5999755859375</AltitudeMeters>
            <DistanceMeters>16005.043841096</DistanceMeters>
          </Trackpoint>
          <Trackpoint>
            <Time>2022-11-06T11:19:16.000Z</Time>
            <Position>
              <LatitudeDegrees>41.35384186170995235443115234375</LatitudeDegrees>
              <LongitudeDegrees>-1.6502775438129901885986328125</LongitudeDegrees>
            </Position>
            <AltitudeMeters>584.79998779296875</AltitudeMeters>
            <DistanceMeters>16006.982013379</DistanceMeters>
          </Trackpoint>
          <Trackpoint>
            <Time>2022-11-06T11:19:17.000Z</Time>
            <Position>
              <LatitudeDegrees>41.353831551969051361083984375</LatitudeDegrees>
              <LongitudeDegrees>-1.6502949781715869903564453125</LongitudeDegrees>
            </Position>
            <AltitudeMeters>585</AltitudeMeters>
            <DistanceMeters>16008.839293434</DistanceMeters>
          </Trackpoint>
          <Trackpoint>
            <Time>2022-11-06T11:19:18.000Z</Time>
            <Position>
              <LatitudeDegrees>41.35382308624684810638427734375</LatitudeDegrees>
              <LongitudeDegrees>-1.65031693875789642333984375</LongitudeDegrees>
            </Position>
            <AltitudeMeters>585.20001220703125</AltitudeMeters>
            <DistanceMeters>16010.901613973</DistanceMeters>
          </Trackpoint>
          <Trackpoint>
            <Time>2022-11-06T11:19:19.000Z</Time>
            <Position>
              <LatitudeDegrees>41.3538122735917568206787109375</LatitudeDegrees>
              <LongitudeDegrees>-1.65033948607742786407470703125</LongitudeDegrees>
            </Position>
            <AltitudeMeters>585.4000244140625</AltitudeMeters>
            <DistanceMeters>16013.138277191</DistanceMeters>
          </Trackpoint>
          <Trackpoint>
            <Time>2022-11-06T11:19:20.000Z</Time>
            <Position>
              <LatitudeDegrees>41.3538042269647121429443359375</LatitudeDegrees>
              <LongitudeDegrees>-1.65036119520664215087890625</LongitudeDegrees>
            </Position>
            <AltitudeMeters>585.4000244140625</AltitudeMeters>
            <DistanceMeters>16015.163037598</DistanceMeters>
          </Trackpoint>
          <Trackpoint>
            <Time>2022-11-06T11:19:21.000Z</Time>
            <Position>
              <LatitudeDegrees>41.35379877872765064239501953125</LatitudeDegrees>
              <LongitudeDegrees>-1.650384329259395599365234375</LongitudeDegrees>
            </Position>
            <AltitudeMeters>585.5999755859375</AltitudeMeters>
            <DistanceMeters>16017.19002669</DistanceMeters>
          </Trackpoint>
          <Trackpoint>
            <Time>2022-11-06T11:19:22.000Z</Time>
            <Position>
              <LatitudeDegrees>41.35378737933933734893798828125</LatitudeDegrees>
              <LongitudeDegrees>-1.6504052840173244476318359375</LongitudeDegrees>
            </Position>
            <AltitudeMeters>585.5999755859375</AltitudeMeters>
            <DistanceMeters>16019.352797968</DistanceMeters>
          </Trackpoint>
          <Trackpoint>
            <Time>2022-11-06T11:19:23.000Z</Time>
            <Position>
              <LatitudeDegrees>41.35377623140811920166015625</LatitudeDegrees>
              <LongitudeDegrees>-1.6504274122416973114013671875</LongitudeDegrees>
            </Position>
            <AltitudeMeters>585.79998779296875</AltitudeMeters>
            <DistanceMeters>16021.581371961</DistanceMeters>
          </Trackpoint>
          <Trackpoint>
            <Time>2022-11-06T11:19:24.000Z</Time>
            <Position>
              <LatitudeDegrees>41.35376675985753536224365234375</LatitudeDegrees>
              <LongitudeDegrees>-1.6504471935331821441650390625</LongitudeDegrees>
            </Position>
            <AltitudeMeters>586</AltitudeMeters>
            <DistanceMeters>16023.542701246</DistanceMeters>
          </Trackpoint>
          <Trackpoint>
            <Time>2022-11-06T11:19:25.000Z</Time>
            <Position>
              <LatitudeDegrees>41.35376147925853729248046875</LatitudeDegrees>
              <LongitudeDegrees>-1.6504683159291744232177734375</LongitudeDegrees>
            </Position>
            <AltitudeMeters>586.20001220703125</AltitudeMeters>
            <DistanceMeters>16025.404836943</DistanceMeters>
          </Trackpoint>
          <Trackpoint>
            <Time>2022-11-06T11:19:26.000Z</Time>
            <Position>
              <LatitudeDegrees>41.3537634909152984619140625</LatitudeDegrees>
              <LongitudeDegrees>-1.65049522183835506439208984375</LongitudeDegrees>
            </Position>
            <AltitudeMeters>586.20001220703125</AltitudeMeters>
            <DistanceMeters>16027.665594177</DistanceMeters>
          </Trackpoint>
          <Trackpoint>
            <Time>2022-11-06T11:19:27.000Z</Time>
            <Position>
              <LatitudeDegrees>41.35376826860010623931884765625</LatitudeDegrees>
              <LongitudeDegrees>-1.65051382966339588165283203125</LongitudeDegrees>
            </Position>
            <AltitudeMeters>586.4000244140625</AltitudeMeters>
            <DistanceMeters>16029.31150515</DistanceMeters>
          </Trackpoint>
          <Trackpoint>
            <Time>2022-11-06T11:19:28.000Z</Time>
            <Position>
              <LatitudeDegrees>41.35377095080912113189697265625</LatitudeDegrees>
              <LongitudeDegrees>-1.6505390591919422149658203125</LongitudeDegrees>
            </Position>
            <AltitudeMeters>586.5999755859375</AltitudeMeters>
            <DistanceMeters>16031.440612563</DistanceMeters>
          </Trackpoint>
          <Trackpoint>
            <Time>2022-11-06T11:19:29.000Z</Time>
            <Position>
              <LatitudeDegrees>41.35377044789493083953857421875</LatitudeDegrees>
              <LongitudeDegrees>-1.65055741555988788604736328125</LongitudeDegrees>
            </Position>
            <AltitudeMeters>586.79998779296875</AltitudeMeters>
            <DistanceMeters>16032.972872291</DistanceMeters>
          </Trackpoint>
          <Trackpoint>
            <Time>2022-11-06T11:19:30.000Z</Time>
            <Position>
              <LatitudeDegrees>41.35377086699008941650390625</LatitudeDegrees>
              <LongitudeDegrees>-1.65057820267975330352783203125</LongitudeDegrees>
            </Position>
            <AltitudeMeters>586.79998779296875</AltitudeMeters>
            <DistanceMeters>16034.709548868</DistanceMeters>
          </Trackpoint>
          <Trackpoint>
            <Time>2022-11-06T11:19:31.000Z</Time>
            <Position>
              <LatitudeDegrees>41.3537717051804065704345703125</LatitudeDegrees>
              <LongitudeDegrees>-1.65059831924736499786376953125</LongitudeDegrees>
            </Position>
            <AltitudeMeters>587</AltitudeMeters>
            <DistanceMeters>16036.393426537</DistanceMeters>
          </Trackpoint>
          <Trackpoint>
            <Time>2022-11-06T11:19:32.000Z</Time>
            <Position>
              <LatitudeDegrees>41.3537730462849140167236328125</LatitudeDegrees>
              <LongitudeDegrees>-1.65062136948108673095703125</LongitudeDegrees>
            </Position>
            <AltitudeMeters>587.20001220703125</AltitudeMeters>
            <DistanceMeters>16038.326934139</DistanceMeters>
          </Trackpoint>
          <Trackpoint>
            <Time>2022-11-06T11:19:33.000Z</Time>
            <Position>
              <LatitudeDegrees>41.35377623140811920166015625</LatitudeDegrees>
              <LongitudeDegrees>-1.6506470181047916412353515625</LongitudeDegrees>
            </Position>
            <AltitudeMeters>587.4000244140625</AltitudeMeters>
            <DistanceMeters>16040.498039826</DistanceMeters>
          </Trackpoint>
          <Trackpoint>
            <Time>2022-11-06T11:19:34.000Z</Time>
            <Position>
              <LatitudeDegrees>41.3537797518074512481689453125</LatitudeDegrees>
              <LongitudeDegrees>-1.650671996176242828369140625</LongitudeDegrees>
            </Position>
            <AltitudeMeters>587.5999755859375</AltitudeMeters>
            <DistanceMeters>16042.622901756</DistanceMeters>
          </Trackpoint>
          <Trackpoint>
            <Time>2022-11-06T11:19:35.000Z</Time>
            <Position>
              <LatitudeDegrees>41.353783942759037017822265625</LatitudeDegrees>
              <LongitudeDegrees>-1.65069471113383769989013671875</LongitudeDegrees>
            </Position>
            <AltitudeMeters>587.79998779296875</AltitudeMeters>
            <DistanceMeters>16044.579621566</DistanceMeters>
          </Trackpoint>
          <Trackpoint>
            <Time>2022-11-06T11:19:36.000Z</Time>
            <Position>
              <LatitudeDegrees>41.35378620587289333343505859375</LatitudeDegrees>
              <LongitudeDegrees>-1.6507194377481937408447265625</LongitudeDegrees>
            </Position>
            <AltitudeMeters>588.20001220703125</AltitudeMeters>
            <DistanceMeters>16046.661552567</DistanceMeters>
          </Trackpoint>
          <Trackpoint>
            <Time>2022-11-06T11:19:37.000Z</Time>
            <Position>
              <LatitudeDegrees>41.35378905571997165679931640625</LatitudeDegrees>
              <LongitudeDegrees>-1.6507432423532009124755859375</LongitudeDegrees>
            </Position>
            <AltitudeMeters>588.4000244140625</AltitudeMeters>
            <DistanceMeters>16048.67737359</DistanceMeters>
          </Trackpoint>
          <Trackpoint>
            <Time>2022-11-06T11:19:38.000Z</Time>
            <Position>
              <LatitudeDegrees>41.35378989391028881072998046875</LatitudeDegrees>
              <LongitudeDegrees>-1.65076629258692264556884765625</LongitudeDegrees>
            </Position>
            <AltitudeMeters>588.5999755859375</AltitudeMeters>
            <DistanceMeters>16050.60620523</DistanceMeters>
          </Trackpoint>
          <Trackpoint>
            <Time>2022-11-06T11:19:39.000Z</Time>
            <Position>
              <LatitudeDegrees>41.35378922335803508758544921875</LatitudeDegrees>
              <LongitudeDegrees>-1.650788001716136932373046875</LongitudeDegrees>
            </Position>
            <AltitudeMeters>588.5999755859375</AltitudeMeters>
            <DistanceMeters>16052.424173321</DistanceMeters>
          </Trackpoint>
          <Trackpoint>
            <Time>2022-11-06T11:19:40.000Z</Time>
            <Position>
              <LatitudeDegrees>41.35378989391028881072998046875</LatitudeDegrees>
              <LongitudeDegrees>-1.650807447731494903564453125</LongitudeDegrees>
            </Position>
            <AltitudeMeters>588.79998779296875</AltitudeMeters>
            <DistanceMeters>16054.047990528</DistanceMeters>
          </Trackpoint>
          <Trackpoint>
            <Time>2022-11-06T11:19:41.000Z</Time>
            <Position>
              <LatitudeDegrees>41.3537904806435108184814453125</LatitudeDegrees>
              <LongitudeDegrees>-1.6508304141461849212646484375</LongitudeDegrees>
            </Position>
            <AltitudeMeters>589</AltitudeMeters>
            <DistanceMeters>16055.96743607</DistanceMeters>
          </Trackpoint>
          <Trackpoint>
            <Time>2022-11-06T11:19:42.000Z</Time>
            <Position>
              <LatitudeDegrees>41.35379173792898654937744140625</LatitudeDegrees>
              <LongitudeDegrees>-1.65085312910377979278564453125</LongitudeDegrees>
            </Position>
            <AltitudeMeters>589.20001220703125</AltitudeMeters>
            <DistanceMeters>16057.872715769</DistanceMeters>
          </Trackpoint>
          <Trackpoint>
            <Time>2022-11-06T11:19:43.000Z</Time>
            <Position>
              <LatitudeDegrees>41.35379207320511341094970703125</LatitudeDegrees>
              <LongitudeDegrees>-1.65087240748107433319091796875</LongitudeDegrees>
            </Position>
            <AltitudeMeters>589.5999755859375</AltitudeMeters>
            <DistanceMeters>16059.485372588</DistanceMeters>
          </Trackpoint>
          <Trackpoint>
            <Time>2022-11-06T11:19:44.000Z</Time>
            <Position>
              <LatitudeDegrees>41.35379173792898654937744140625</LatitudeDegrees>
              <LongitudeDegrees>-1.65089135058224201202392578125</LongitudeDegrees>
            </Position>
            <AltitudeMeters>589.79998779296875</AltitudeMeters>
            <DistanceMeters>16061.069784545</DistanceMeters>
          </Trackpoint>
          <Trackpoint>
            <Time>2022-11-06T11:19:45.000Z</Time>
            <Position>
              <LatitudeDegrees>41.3537888042628765106201171875</LatitudeDegrees>
              <LongitudeDegrees>-1.65091574192047119140625</LongitudeDegrees>
            </Position>
            <AltitudeMeters>590</AltitudeMeters>
            <DistanceMeters>16063.134293223</DistanceMeters>
          </Trackpoint>
          <Trackpoint>
            <Time>2022-11-06T11:19:46.000Z</Time>
            <Position>
              <LatitudeDegrees>41.35378696024417877197265625</LatitudeDegrees>
              <LongitudeDegrees>-1.65093711577355861663818359375</LongitudeDegrees>
            </Position>
            <AltitudeMeters>590.20001220703125</AltitudeMeters>
            <DistanceMeters>16064.932283036</DistanceMeters>
          </Trackpoint>
          <Trackpoint>
            <Time>2022-11-06T11:19:47.000Z</Time>
            <Position>
              <LatitudeDegrees>41.35378369130194187164306640625</LatitudeDegrees>
              <LongitudeDegrees>-1.650955975055694580078125</LongitudeDegrees>
            </Position>
            <AltitudeMeters>590.4000244140625</AltitudeMeters>
            <DistanceMeters>16066.55052967</DistanceMeters>
          </Trackpoint>
          <Trackpoint>
            <Time>2022-11-06T11:19:48.000Z</Time>
            <Position>
              <LatitudeDegrees>41.35378201492130756378173828125</LatitudeDegrees>
              <LongitudeDegrees>-1.65097952820360660552978515625</LongitudeDegrees>
            </Position>
            <AltitudeMeters>590.5999755859375</AltitudeMeters>
            <DistanceMeters>16068.530189534</DistanceMeters>
          </Trackpoint>
          <Trackpoint>
            <Time>2022-11-06T11:19:49.000Z</Time>
            <Position>
              <LatitudeDegrees>41.35378268547356128692626953125</LatitudeDegrees>
              <LongitudeDegrees>-1.6510034166276454925537109375</LongitudeDegrees>
            </Position>
            <AltitudeMeters>590.79998779296875</AltitudeMeters>
            <DistanceMeters>16070.528011795</DistanceMeters>
          </Trackpoint>
          <Trackpoint>
            <Time>2022-11-06T11:19:50.000Z</Time>
            <Position>
              <LatitudeDegrees>41.3537837751209735870361328125</LatitudeDegrees>
              <LongitudeDegrees>-1.65102445520460605621337890625</LongitudeDegrees>
            </Position>
            <AltitudeMeters>591</AltitudeMeters>
            <DistanceMeters>16072.290494787</DistanceMeters>
          </Trackpoint>
          <Trackpoint>
            <Time>2022-11-06T11:19:51.000Z</Time>
            <Position>
              <LatitudeDegrees>41.3537851162254810333251953125</LatitudeDegrees>
              <LongitudeDegrees>-1.651044152677059173583984375</LongitudeDegrees>
            </Position>
            <AltitudeMeters>591.20001220703125</AltitudeMeters>
            <DistanceMeters>16073.941883017</DistanceMeters>
          </Trackpoint>
          <Trackpoint>
            <Time>2022-11-06T11:19:52.000Z</Time>
            <Position>
              <LatitudeDegrees>41.3537847809493541717529296875</LatitudeDegrees>
              <LongitudeDegrees>-1.65106393396854400634765625</LongitudeDegrees>
            </Position>
            <AltitudeMeters>591.4000244140625</AltitudeMeters>
            <DistanceMeters>16075.593271247</DistanceMeters>
          </Trackpoint>
          <Trackpoint>
            <Time>2022-11-06T11:19:53.000Z</Time>
            <Position>
              <LatitudeDegrees>41.35378427803516387939453125</LatitudeDegrees>
              <LongitudeDegrees>-1.65108262561261653900146484375</LongitudeDegrees>
            </Position>
            <AltitudeMeters>591.79998779296875</AltitudeMeters>
            <DistanceMeters>16077.154719498</DistanceMeters>
          </Trackpoint>
          <Trackpoint>
            <Time>2022-11-06T11:19:54.000Z</Time>
            <Position>
              <LatitudeDegrees>41.353782601654529571533203125</LatitudeDegrees>
              <LongitudeDegrees>-1.65109972469508647918701171875</LongitudeDegrees>
            </Position>
            <AltitudeMeters>592</AltitudeMeters>
            <DistanceMeters>16078.595870976</DistanceMeters>
          </Trackpoint>
          <Trackpoint>
            <Time>2022-11-06T11:19:55.000Z</Time>
            <Position>
              <LatitudeDegrees>41.3537831045687198638916015625</LatitudeDegrees>
              <LongitudeDegrees>-1.65111665613949298858642578125</LongitudeDegrees>
            </Position>
            <AltitudeMeters>592.20001220703125</AltitudeMeters>
            <DistanceMeters>16080.008544645</DistanceMeters>
          </Trackpoint>
          <Trackpoint>
            <Time>2022-11-06T11:19:56.000Z</Time>
            <Position>
              <LatitudeDegrees>41.35378922335803508758544921875</LatitudeDegrees>
              <LongitudeDegrees>-1.65113635361194610595703125</LongitudeDegrees>
            </Position>
            <AltitudeMeters>592.4000244140625</AltitudeMeters>
            <DistanceMeters>16081.791403839</DistanceMeters>
          </Trackpoint>
          <Trackpoint>
            <Time>2022-11-06T11:19:57.000Z</Time>
            <Position>
              <LatitudeDegrees>41.3537995330989360809326171875</LatitudeDegrees>
              <LongitudeDegrees>-1.65115244686603546142578125</LongitudeDegrees>
            </Position>
            <AltitudeMeters>592.5999755859375</AltitudeMeters>
            <DistanceMeters>16083.559002903</DistanceMeters>
          </Trackpoint>
          <Trackpoint>
            <Time>2022-11-06T11:19:58.000Z</Time>
            <Position>
              <LatitudeDegrees>41.35381168685853481292724609375</LatitudeDegrees>
              <LongitudeDegrees>-1.65116124786436557769775390625</LongitudeDegrees>
            </Position>
            <AltitudeMeters>593</AltitudeMeters>
            <DistanceMeters>16085.097144648</DistanceMeters>
          </Trackpoint>
          <Trackpoint>
            <Time>2022-11-06T11:19:59.000Z</Time>
            <Position>
              <LatitudeDegrees>41.35382208041846752166748046875</LatitudeDegrees>
              <LongitudeDegrees>-1.6511744074523448944091796875</LongitudeDegrees>
            </Position>
            <AltitudeMeters>593.4000244140625</AltitudeMeters>
            <DistanceMeters>16086.692914543</DistanceMeters>
          </Trackpoint>
          <Trackpoint>
            <Time>2022-11-06T11:20:00.000Z</Time>
            <Position>
              <LatitudeDegrees>41.35382811538875102996826171875</LatitudeDegrees>
              <LongitudeDegrees>-1.651193685829639434814453125</LongitudeDegrees>
            </Position>
            <AltitudeMeters>593.79998779296875</AltitudeMeters>
            <DistanceMeters>16088.434782989</DistanceMeters>
          </Trackpoint>
          <Trackpoint>
            <Time>2022-11-06T11:20:01.000Z</Time>
            <Position>
              <LatitudeDegrees>41.3538293726742267608642578125</LatitudeDegrees>
              <LongitudeDegrees>-1.65121187455952167510986328125</LongitudeDegrees>
            </Position>
            <AltitudeMeters>594</AltitudeMeters>
            <DistanceMeters>16089.961138034</DistanceMeters>
          </Trackpoint>
          <Trackpoint>
            <Time>2022-11-06T11:20:02.000Z</Time>
            <Position>
              <LatitudeDegrees>41.35382660664618015289306640625</LatitudeDegrees>
              <LongitudeDegrees>-1.65123282931745052337646484375</LongitudeDegrees>
            </Position>
            <AltitudeMeters>594.20001220703125</AltitudeMeters>
            <DistanceMeters>16091.738925073</DistanceMeters>
          </Trackpoint>
          <Trackpoint>
            <Time>2022-11-06T11:20:03.000Z</Time>
            <Position>
              <LatitudeDegrees>41.35382493026554584503173828125</LatitudeDegrees>
              <LongitudeDegrees>-1.65125168859958648681640625</LongitudeDegrees>
            </Position>
            <AltitudeMeters>594.4000244140625</AltitudeMeters>
            <DistanceMeters>16093.323337031</DistanceMeters>
          </Trackpoint>
          <Trackpoint>
            <Time>2022-11-06T11:20:04.000Z</Time>
            <Position>
              <LatitudeDegrees>41.3538230024278163909912109375</LatitudeDegrees>
              <LongitudeDegrees>-1.65126753039658069610595703125</LongitudeDegrees>
            </Position>
            <AltitudeMeters>594.79998779296875</AltitudeMeters>
            <DistanceMeters>16094.663853801</DistanceMeters>
          </Trackpoint>
          <Trackpoint>
            <Time>2022-11-06T11:20:05.000Z</Time>
            <Position>
              <LatitudeDegrees>41.35382593609392642974853515625</LatitudeDegrees>
              <LongitudeDegrees>-1.6512860544025897979736328125</LongitudeDegrees>
            </Position>
            <AltitudeMeters>595.20001220703125</AltitudeMeters>
            <DistanceMeters>16096.242556148</DistanceMeters>
          </Trackpoint>
          <Trackpoint>
            <Time>2022-11-06T11:20:06.000Z</Time>
            <Position>
              <LatitudeDegrees>41.35383146815001964569091796875</LatitudeDegrees>
              <LongitudeDegrees>-1.65130407549440860748291015625</LongitudeDegrees>
            </Position>
            <AltitudeMeters>595.5999755859375</AltitudeMeters>
            <DistanceMeters>16097.869151487</DistanceMeters>
          </Trackpoint>
          <Trackpoint>
            <Time>2022-11-06T11:20:07.000Z</Time>
            <Position>
              <LatitudeDegrees>41.35383792221546173095703125</LatitudeDegrees>
              <LongitudeDegrees>-1.65132150985300540924072265625</LongitudeDegrees>
            </Position>
            <AltitudeMeters>595.79998779296875</AltitudeMeters>
            <DistanceMeters>16099.492968694</DistanceMeters>
          </Trackpoint>
          <Trackpoint>
            <Time>2022-11-06T11:20:08.000Z</Time>
            <Position>
              <LatitudeDegrees>41.35384236462414264678955078125</LatitudeDegrees>
              <LongitudeDegrees>-1.6513328254222869873046875</LongitudeDegrees>
            </Position>
            <AltitudeMeters>596.20001220703125</AltitudeMeters>
            <DistanceMeters>16100.559640917</DistanceMeters>
          </Trackpoint>
          <Trackpoint>
            <Time>2022-11-06T11:20:09.000Z</Time>
            <Position>
              <LatitudeDegrees>41.35384806431829929351806640625</LatitudeDegrees>
              <LongitudeDegrees>-1.651351936161518096923828125</LongitudeDegrees>
            </Position>
            <AltitudeMeters>596.5999755859375</AltitudeMeters>
            <DistanceMeters>16102.278022422</DistanceMeters>
          </Trackpoint>
          <Trackpoint>
            <Time>2022-11-06T11:20:10.000Z</Time>
            <Position>
              <LatitudeDegrees>41.35385225526988506317138671875</LatitudeDegrees>
              <LongitudeDegrees>-1.65136677213013172149658203125</LongitudeDegrees>
            </Position>
            <AltitudeMeters>597</AltitudeMeters>
            <DistanceMeters>16103.601591397</DistanceMeters>
          </Trackpoint>
          <Trackpoint>
            <Time>2022-11-06T11:20:11.000Z</Time>
            <Position>
              <LatitudeDegrees>41.353856027126312255859375</LatitudeDegrees>
              <LongitudeDegrees>-1.65138001553714275360107421875</LongitudeDegrees>
            </Position>
            <AltitudeMeters>597.20001220703125</AltitudeMeters>
            <DistanceMeters>16104.78466445</DistanceMeters>
          </Trackpoint>
          <Trackpoint>
            <Time>2022-11-06T11:20:12.000Z</Time>
            <Position>
              <LatitudeDegrees>41.3538572005927562713623046875</LatitudeDegrees>
              <LongitudeDegrees>-1.65139476768672466278076171875</LongitudeDegrees>
            </Position>
            <AltitudeMeters>597.4000244140625</AltitudeMeters>
            <DistanceMeters>16106.02366122</DistanceMeters>
          </Trackpoint>
          <Trackpoint>
            <Time>2022-11-06T11:20:13.000Z</Time>
            <Position>
              <LatitudeDegrees>41.3538602180778980255126953125</LatitudeDegrees>
              <LongitudeDegrees>-1.651406921446323394775390625</LongitudeDegrees>
            </Position>
            <AltitudeMeters>597.79998779296875</AltitudeMeters>
            <DistanceMeters>16107.090333443</DistanceMeters>
          </Trackpoint>
          <Trackpoint>
            <Time>2022-11-06T11:20:14.000Z</Time>
            <Position>
              <LatitudeDegrees>41.35386147536337375640869140625</LatitudeDegrees>
              <LongitudeDegrees>-1.6514251939952373504638671875</LongitudeDegrees>
            </Position>
            <AltitudeMeters>598.20001220703125</AltitudeMeters>
            <DistanceMeters>16108.622593171</DistanceMeters>
          </Trackpoint>
          <Trackpoint>
            <Time>2022-11-06T11:20:15.000Z</Time>
            <Position>
              <LatitudeDegrees>41.35386072099208831787109375</LatitudeDegrees>
              <LongitudeDegrees>-1.6514443047344684600830078125</LongitudeDegrees>
            </Position>
            <AltitudeMeters>598.4000244140625</AltitudeMeters>
            <DistanceMeters>16110.218363066</DistanceMeters>
          </Trackpoint>
          <Trackpoint>
            <Time>2022-11-06T11:20:16.000Z</Time>
            <Position>
              <LatitudeDegrees>41.35385896079242229461669921875</LatitudeDegrees>
              <LongitudeDegrees>-1.6514624096453189849853515625</LongitudeDegrees>
            </Position>
            <AltitudeMeters>598.5999755859375</AltitudeMeters>
            <DistanceMeters>16111.744718111</DistanceMeters>
          </Trackpoint>
          <Trackpoint>
            <Time>2022-11-06T11:20:17.000Z</Time>
            <Position>
              <LatitudeDegrees>41.3538568653166294097900390625</LatitudeDegrees>
              <LongitudeDegrees>-1.65148059837520122528076171875</LongitudeDegrees>
            </Position>
            <AltitudeMeters>598.79998779296875</AltitudeMeters>
            <DistanceMeters>16113.282859856</DistanceMeters>
          </Trackpoint>
          <Trackpoint>
            <Time>2022-11-06T11:20:18.000Z</Time>
            <Position>
              <LatitudeDegrees>41.353855691850185394287109375</LatitudeDegrees>
              <LongitudeDegrees>-1.6514972783625125885009765625</LongitudeDegrees>
            </Position>
            <AltitudeMeters>599</AltitudeMeters>
            <DistanceMeters>16114.679461629</DistanceMeters>
          </Trackpoint>
          <Trackpoint>
            <Time>2022-11-06T11:20:19.000Z</Time>
            <Position>
              <LatitudeDegrees>41.3538545183837413787841796875</LatitudeDegrees>
              <LongitudeDegrees>-1.6515127010643482208251953125</LongitudeDegrees>
            </Position>
            <AltitudeMeters>599.20001220703125</AltitudeMeters>
            <DistanceMeters>16115.975453226</DistanceMeters>
          </Trackpoint>
          <Trackpoint>
            <Time>2022-11-06T11:20:20.000Z</Time>
            <Position>
              <LatitudeDegrees>41.35385191999375820159912109375</LatitudeDegrees>
              <LongitudeDegrees>-1.651528961956501007080078125</LongitudeDegrees>
            </Position>
            <AltitudeMeters>599.5999755859375</AltitudeMeters>
            <DistanceMeters>16117.365574213</DistanceMeters>
          </Trackpoint>
          <Trackpoint>
            <Time>2022-11-06T11:20:21.000Z</Time>
            <Position>
              <LatitudeDegrees>41.35385007597506046295166015625</LatitudeDegrees>
              <LongitudeDegrees>-1.65154648013412952423095703125</LongitudeDegrees>
            </Position>
            <AltitudeMeters>599.79998779296875</AltitudeMeters>
            <DistanceMeters>16118.843842963</DistanceMeters>
          </Trackpoint>
          <Trackpoint>
            <Time>2022-11-06T11:20:22.000Z</Time>
            <Position>
              <LatitudeDegrees>41.35385275818407535552978515625</LatitudeDegrees>
              <LongitudeDegrees>-1.65156860835850238800048828125</LongitudeDegrees>
            </Position>
            <AltitudeMeters>600.20001220703125</AltitudeMeters>
            <DistanceMeters>16120.720470208</DistanceMeters>
          </Trackpoint>
          <Trackpoint>
            <Time>2022-11-06T11:20:23.000Z</Time>
            <Position>
              <LatitudeDegrees>41.353853680193424224853515625</LatitudeDegrees>
              <LongitudeDegrees>-1.65158855728805065155029296875</LongitudeDegrees>
            </Position>
            <AltitudeMeters>600.20001220703125</AltitudeMeters>
            <DistanceMeters>16122.390887407</DistanceMeters>
          </Trackpoint>
          <Trackpoint>
            <Time>2022-11-06T11:20:24.000Z</Time>
            <Position>
              <LatitudeDegrees>41.3538520038127899169921875</LatitudeDegrees>
              <LongitudeDegrees>-1.65160766802728176116943359375</LongitudeDegrees>
            </Position>
            <AltitudeMeters>600.79998779296875</AltitudeMeters>
            <DistanceMeters>16123.997934968</DistanceMeters>
          </Trackpoint>
          <Trackpoint>
            <Time>2022-11-06T11:20:25.000Z</Time>
            <Position>
              <LatitudeDegrees>41.35384689085185527801513671875</LatitudeDegrees>
              <LongitudeDegrees>-1.65162342600524425506591796875</LongitudeDegrees>
            </Position>
            <AltitudeMeters>601</AltitudeMeters>
            <DistanceMeters>16125.432806889</DistanceMeters>
          </Trackpoint>
          <Trackpoint>
            <Time>2022-11-06T11:20:26.000Z</Time>
            <Position>
              <LatitudeDegrees>41.3538451306521892547607421875</LatitudeDegrees>
              <LongitudeDegrees>-1.6516399383544921875</LongitudeDegrees>
            </Position>
            <AltitudeMeters>601.20001220703125</AltitudeMeters>
            <DistanceMeters>16126.829408662</DistanceMeters>
          </Trackpoint>
          <Trackpoint>
            <Time>2022-11-06T11:20:27.000Z</Time>
            <Position>
              <LatitudeDegrees>41.35384923778474330902099609375</LatitudeDegrees>
              <LongitudeDegrees>-1.65165946818888187408447265625</LongitudeDegrees>
            </Position>
            <AltitudeMeters>601.4000244140625</AltitudeMeters>
            <DistanceMeters>16128.523977725</DistanceMeters>
          </Trackpoint>
          <Trackpoint>
            <Time>2022-11-06T11:20:28.000Z</Time>
            <Position>
              <LatitudeDegrees>41.35384856723248958587646484375</LatitudeDegrees>
              <LongitudeDegrees>-1.6516793332993984222412109375</LongitudeDegrees>
            </Position>
            <AltitudeMeters>601.5999755859375</AltitudeMeters>
            <DistanceMeters>16130.186266325</DistanceMeters>
          </Trackpoint>
          <Trackpoint>
            <Time>2022-11-06T11:20:29.000Z</Time>
            <Position>
              <LatitudeDegrees>41.3538478128612041473388671875</LatitudeDegrees>
              <LongitudeDegrees>-1.65169869549572467803955078125</LongitudeDegrees>
            </Position>
            <AltitudeMeters>602</AltitudeMeters>
            <DistanceMeters>16131.80451296</DistanceMeters>
          </Trackpoint>
          <Trackpoint>
            <Time>2022-11-06T11:20:30.000Z</Time>
            <Position>
              <LatitudeDegrees>41.35384856723248958587646484375</LatitudeDegrees>
              <LongitudeDegrees>-1.651714704930782318115234375</LongitudeDegrees>
            </Position>
            <AltitudeMeters>602.20001220703125</AltitudeMeters>
            <DistanceMeters>16133.141657356</DistanceMeters>
          </Trackpoint>
          <Trackpoint>
            <Time>2022-11-06T11:20:31.000Z</Time>
            <Position>
              <LatitudeDegrees>41.353843621909618377685546875</LatitudeDegrees>
              <LongitudeDegrees>-1.65172970853745937347412109375</LongitudeDegrees>
            </Position>
            <AltitudeMeters>602.4000244140625</AltitudeMeters>
            <DistanceMeters>16134.51215212</DistanceMeters>
          </Trackpoint>
          <Trackpoint>
            <Time>2022-11-06T11:20:32.000Z</Time>
            <Position>
              <LatitudeDegrees>41.3538372516632080078125</LatitudeDegrees>
              <LongitudeDegrees>-1.65174798108637332916259765625</LongitudeDegrees>
            </Position>
            <AltitudeMeters>602.4000244140625</AltitudeMeters>
            <DistanceMeters>16136.196029789</DistanceMeters>
          </Trackpoint>
          <Trackpoint>
            <Time>2022-11-06T11:20:33.000Z</Time>
            <Position>
              <LatitudeDegrees>41.35383146815001964569091796875</LatitudeDegrees>
              <LongitudeDegrees>-1.6517648287117481231689453125</LongitudeDegrees>
            </Position>
            <AltitudeMeters>602.5999755859375</AltitudeMeters>
            <DistanceMeters>16137.742952624</DistanceMeters>
          </Trackpoint>
          <Trackpoint>
            <Time>2022-11-06T11:20:34.000Z</Time>
            <Position>
              <LatitudeDegrees>41.3538287021219730377197265625</LatitudeDegrees>
              <LongitudeDegrees>-1.65178544819355010986328125</LongitudeDegrees>
            </Position>
            <AltitudeMeters>602.79998779296875</AltitudeMeters>
            <DistanceMeters>16139.492579989</DistanceMeters>
          </Trackpoint>
          <Trackpoint>
            <Time>2022-11-06T11:20:35.000Z</Time>
            <Position>
              <LatitudeDegrees>41.3538260199129581451416015625</LatitudeDegrees>
              <LongitudeDegrees>-1.65180246345698833465576171875</LongitudeDegrees>
            </Position>
            <AltitudeMeters>603.20001220703125</AltitudeMeters>
            <DistanceMeters>16140.946209201</DistanceMeters>
          </Trackpoint>
          <Trackpoint>
            <Time>2022-11-06T11:20:36.000Z</Time>
            <Position>
              <LatitudeDegrees>41.35382291860878467559814453125</LatitudeDegrees>
              <LongitudeDegrees>-1.65181872434914112091064453125</LongitudeDegrees>
            </Position>
            <AltitudeMeters>603.4000244140625</AltitudeMeters>
            <DistanceMeters>16142.349261825</DistanceMeters>
          </Trackpoint>
          <Trackpoint>
            <Time>2022-11-06T11:20:37.000Z</Time>
            <Position>
              <LatitudeDegrees>41.353817470371723175048828125</LatitudeDegrees>
              <LongitudeDegrees>-1.6518359072506427764892578125</LongitudeDegrees>
            </Position>
            <AltitudeMeters>603.5999755859375</AltitudeMeters>
            <DistanceMeters>16143.904916185</DistanceMeters>
          </Trackpoint>
          <Trackpoint>
            <Time>2022-11-06T11:20:38.000Z</Time>
            <Position>
              <LatitudeDegrees>41.35381051339209079742431640625</LatitudeDegrees>
              <LongitudeDegrees>-1.65185526944696903228759765625</LongitudeDegrees>
            </Position>
            <AltitudeMeters>603.79998779296875</AltitudeMeters>
            <DistanceMeters>16145.697876646</DistanceMeters>
          </Trackpoint>
          <Trackpoint>
            <Time>2022-11-06T11:20:39.000Z</Time>
            <Position>
              <LatitudeDegrees>41.35380481369793415069580078125</LatitudeDegrees>
              <LongitudeDegrees>-1.65187454782426357269287109375</LongitudeDegrees>
            </Position>
            <AltitudeMeters>603.79998779296875</AltitudeMeters>
            <DistanceMeters>16147.429345785</DistanceMeters>
          </Trackpoint>
          <Trackpoint>
            <Time>2022-11-06T11:20:40.000Z</Time>
            <Position>
              <LatitudeDegrees>41.35380079038441181182861328125</LatitudeDegrees>
              <LongitudeDegrees>-1.65188980288803577423095703125</LongitudeDegrees>
            </Position>
            <AltitudeMeters>604.4000244140625</AltitudeMeters>
            <DistanceMeters>16148.783268056</DistanceMeters>
          </Trackpoint>
          <Trackpoint>
            <Time>2022-11-06T11:20:41.000Z</Time>
            <Position>
              <LatitudeDegrees>41.3537971861660480499267578125</LatitudeDegrees>
              <LongitudeDegrees>-1.6519056446850299835205078125</LongitudeDegrees>
            </Position>
            <AltitudeMeters>604.5999755859375</AltitudeMeters>
            <DistanceMeters>16150.166877903</DistanceMeters>
          </Trackpoint>
          <Trackpoint>
            <Time>2022-11-06T11:20:42.000Z</Time>
            <Position>
              <LatitudeDegrees>41.35379928164184093475341796875</LatitudeDegrees>
              <LongitudeDegrees>-1.65192224085330963134765625</LongitudeDegrees>
            </Position>
            <AltitudeMeters>605</AltitudeMeters>
            <DistanceMeters>16151.569930526</DistanceMeters>
          </Trackpoint>
          <Trackpoint>
            <Time>2022-11-06T11:20:43.000Z</Time>
            <Position>
              <LatitudeDegrees>41.3538082502782344818115234375</LatitudeDegrees>
              <LongitudeDegrees>-1.65193858556449413299560546875</LongitudeDegrees>
            </Position>
            <AltitudeMeters>605.20001220703125</AltitudeMeters>
            <DistanceMeters>16153.259162351</DistanceMeters>
          </Trackpoint>
          <Trackpoint>
            <Time>2022-11-06T11:20:44.000Z</Time>
            <Position>
              <LatitudeDegrees>41.3538219965994358062744140625</LatitudeDegrees>
              <LongitudeDegrees>-1.6519458778202533721923828125</LongitudeDegrees>
            </Position>
            <AltitudeMeters>605.4000244140625</AltitudeMeters>
            <DistanceMeters>16154.905073324</DistanceMeters>
          </Trackpoint>
          <Trackpoint>
            <Time>2022-11-06T11:20:45.000Z</Time>
            <Position>
              <LatitudeDegrees>41.35383649729192256927490234375</LatitudeDegrees>
              <LongitudeDegrees>-1.651950068771839141845703125</LongitudeDegrees>
            </Position>
            <AltitudeMeters>605.5999755859375</AltitudeMeters>
            <DistanceMeters>16156.556461554</DistanceMeters>
          </Trackpoint>
          <Trackpoint>
            <Time>2022-11-06T11:20:46.000Z</Time>
            <Position>
              <LatitudeDegrees>41.35385057888925075531005859375</LatitudeDegrees>
              <LongitudeDegrees>-1.65194914676249027252197265625</LongitudeDegrees>
            </Position>
            <AltitudeMeters>606.20001220703125</AltitudeMeters>
            <DistanceMeters>16158.129433565</DistanceMeters>
          </Trackpoint>
          <Trackpoint>
            <Time>2022-11-06T11:20:47.000Z</Time>
            <Position>
              <LatitudeDegrees>41.35385577566921710968017578125</LatitudeDegrees>
              <LongitudeDegrees>-1.65194906294345855712890625</LongitudeDegrees>
            </Position>
            <AltitudeMeters>606.5999755859375</AltitudeMeters>
            <DistanceMeters>16158.715217573</DistanceMeters>
          </Trackpoint>
          <Trackpoint>
            <Time>2022-11-06T11:20:48.000Z</Time>
            <Position>
              <LatitudeDegrees>41.35385577566921710968017578125</LatitudeDegrees>
              <LongitudeDegrees>-1.65194906294345855712890625</LongitudeDegrees>
            </Position>
            <AltitudeMeters>606.79998779296875</AltitudeMeters>
            <DistanceMeters>16158.715217573</DistanceMeters>
          </Trackpoint>
          <Trackpoint>
            <Time>2022-11-06T11:20:49.000Z</Time>
            <Position>
              <LatitudeDegrees>41.35385896079242229461669921875</LatitudeDegrees>
              <LongitudeDegrees>-1.65194503962993621826171875</LongitudeDegrees>
            </Position>
            <AltitudeMeters>607.20001220703125</AltitudeMeters>
            <DistanceMeters>16159.208990865</DistanceMeters>
          </Trackpoint>
          <Trackpoint>
            <Time>2022-11-06T11:21:54.000Z</Time>
            <Position>
              <LatitudeDegrees>41.353800036013126373291015625</LatitudeDegrees>
              <LongitudeDegrees>-1.65255918167531490325927734375</LongitudeDegrees>
            </Position>
            <AltitudeMeters>620.5999755859375</AltitudeMeters>
            <DistanceMeters>16210.936876882</DistanceMeters>
          </Trackpoint>
          <Trackpoint>
            <Time>2022-11-06T11:21:55.000Z</Time>
            <Position>
              <LatitudeDegrees>41.35378922335803508758544921875</LatitudeDegrees>
              <LongitudeDegrees>-1.6525668092072010040283203125</LongitudeDegrees>
            </Position>
            <AltitudeMeters>620.79998779296875</AltitudeMeters>
            <DistanceMeters>16212.300766814</DistanceMeters>
          </Trackpoint>
          <Trackpoint>
            <Time>2022-11-06T11:21:56.000Z</Time>
            <Position>
              <LatitudeDegrees>41.353779919445514678955078125</LatitudeDegrees>
              <LongitudeDegrees>-1.65257544256746768951416015625</LongitudeDegrees>
            </Position>
            <AltitudeMeters>621</AltitudeMeters>
            <DistanceMeters>16213.561438641</DistanceMeters>
          </Trackpoint>
          <Trackpoint>
            <Time>2022-11-06T11:21:57.000Z</Time>
            <Position>
              <LatitudeDegrees>41.35377145372331142425537109375</LatitudeDegrees>
              <LongitudeDegrees>-1.652581058442592620849609375</LongitudeDegrees>
            </Position>
            <AltitudeMeters>621.20001220703125</AltitudeMeters>
            <DistanceMeters>16214.611043007</DistanceMeters>
          </Trackpoint>
          <Trackpoint>
            <Time>2022-11-06T11:21:58.000Z</Time>
            <Position>
              <LatitudeDegrees>41.35375921614468097686767578125</LatitudeDegrees>
              <LongitudeDegrees>-1.65258608758449554443359375</LongitudeDegrees>
            </Position>
            <AltitudeMeters>621.5999755859375</AltitudeMeters>
            <DistanceMeters>16216.033272638</DistanceMeters>
          </Trackpoint>
          <Trackpoint>
            <Time>2022-11-06T11:21:59.000Z</Time>
            <Position>
              <LatitudeDegrees>41.35374932549893856048583984375</LatitudeDegrees>
              <LongitudeDegrees>-1.652596481144428253173828125</LongitudeDegrees>
            </Position>
            <AltitudeMeters>621.79998779296875</AltitudeMeters>
            <DistanceMeters>16217.429874411</DistanceMeters>
          </Trackpoint>
          <Trackpoint>
            <Time>2022-11-06T11:22:00.000Z</Time>
            <Position>
              <LatitudeDegrees>41.3537401892244815826416015625</LatitudeDegrees>
              <LongitudeDegrees>-1.65260762907564640045166015625</LongitudeDegrees>
            </Position>
            <AltitudeMeters>622</AltitudeMeters>
            <DistanceMeters>16218.80694233</DistanceMeters>
          </Trackpoint>
          <Trackpoint>
            <Time>2022-11-06T11:22:01.000Z</Time>
            <Position>
              <LatitudeDegrees>41.35373071767389774322509765625</LatitudeDegrees>
              <LongitudeDegrees>-1.65261668153107166290283203125</LongitudeDegrees>
            </Position>
            <AltitudeMeters>622.4000244140625</AltitudeMeters>
            <DistanceMeters>16220.102933927</DistanceMeters>
          </Trackpoint>
          <Trackpoint>
            <Time>2022-11-06T11:22:02.000Z</Time>
            <Position>
              <LatitudeDegrees>41.35372049175202846527099609375</LatitudeDegrees>
              <LongitudeDegrees>-1.65262305177748203277587890625</LongitudeDegrees>
            </Position>
            <AltitudeMeters>622.5999755859375</AltitudeMeters>
            <DistanceMeters>16221.360019197</DistanceMeters>
          </Trackpoint>
          <Trackpoint>
            <Time>2022-11-06T11:22:03.000Z</Time>
            <Position>
              <LatitudeDegrees>41.35371160693466663360595703125</LatitudeDegrees>
              <LongitudeDegrees>-1.65263193659484386444091796875</LongitudeDegrees>
            </Position>
            <AltitudeMeters>623</AltitudeMeters>
            <DistanceMeters>16222.595366484</DistanceMeters>
          </Trackpoint>
          <Trackpoint>
            <Time>2022-11-06T11:22:04.000Z</Time>
            <Position>
              <LatitudeDegrees>41.35370188392698764801025390625</LatitudeDegrees>
              <LongitudeDegrees>-1.65264065377414226531982421875</LongitudeDegrees>
            </Position>
            <AltitudeMeters>623.20001220703125</AltitudeMeters>
            <DistanceMeters>16223.901767819</DistanceMeters>
          </Trackpoint>
          <Trackpoint>
            <Time>2022-11-06T11:22:05.000Z</Time>
            <Position>
              <LatitudeDegrees>41.3536939211189746856689453125</LatitudeDegrees>
              <LongitudeDegrees>-1.6526489518582820892333984375</LongitudeDegrees>
            </Position>
            <AltitudeMeters>623.4000244140625</AltitudeMeters>
            <DistanceMeters>16225.026139066</DistanceMeters>
          </Trackpoint>
          <Trackpoint>
            <Time>2022-11-06T11:22:06.000Z</Time>
            <Position>
              <LatitudeDegrees>41.35368478484451770782470703125</LatitudeDegrees>
              <LongitudeDegrees>-1.65265641175210475921630859375</LongitudeDegrees>
            </Position>
            <AltitudeMeters>623.5999755859375</AltitudeMeters>
            <DistanceMeters>16226.216820385</DistanceMeters>
          </Trackpoint>
          <Trackpoint>
            <Time>2022-11-06T11:22:07.000Z</Time>
            <Position>
              <LatitudeDegrees>41.35367422364652156829833984375</LatitudeDegrees>
              <LongitudeDegrees>-1.6526605188846588134765625</LongitudeDegrees>
            </Position>
            <AltitudeMeters>623.79998779296875</AltitudeMeters>
            <DistanceMeters>16227.441153954</DistanceMeters>
          </Trackpoint>
          <Trackpoint>
            <Time>2022-11-06T11:22:08.000Z</Time>
            <Position>
              <LatitudeDegrees>41.35366223752498626708984375</LatitudeDegrees>
              <LongitudeDegrees>-1.65266454219818115234375</LongitudeDegrees>
            </Position>
            <AltitudeMeters>624</AltitudeMeters>
            <DistanceMeters>16228.814939228</DistanceMeters>
          </Trackpoint>
          <Trackpoint>
            <Time>2022-11-06T11:22:09.000Z</Time>
            <Position>
              <LatitudeDegrees>41.35365142486989498138427734375</LatitudeDegrees>
              <LongitudeDegrees>-1.6526700742542743682861328125</LongitudeDegrees>
            </Position>
            <AltitudeMeters>624.20001220703125</AltitudeMeters>
            <DistanceMeters>16230.107442281</DistanceMeters>
          </Trackpoint>
          <Trackpoint>
            <Time>2022-11-06T11:22:10.000Z</Time>
            <Position>
              <LatitudeDegrees>41.35364119894802570343017578125</LatitudeDegrees>
              <LongitudeDegrees>-1.65267501957714557647705078125</LongitudeDegrees>
            </Position>
            <AltitudeMeters>624.4000244140625</AltitudeMeters>
            <DistanceMeters>16231.324377997</DistanceMeters>
          </Trackpoint>
          <Trackpoint>
            <Time>2022-11-06T11:22:11.000Z</Time>
            <Position>
              <LatitudeDegrees>41.35363197885453701019287109375</LatitudeDegrees>
              <LongitudeDegrees>-1.65268239565193653106689453125</LongitudeDegrees>
            </Position>
            <AltitudeMeters>624.5999755859375</AltitudeMeters>
            <DistanceMeters>16232.522619272</DistanceMeters>
          </Trackpoint>
          <Trackpoint>
            <Time>2022-11-06T11:22:12.000Z</Time>
            <Position>
              <LatitudeDegrees>41.35362141765654087066650390625</LatitudeDegrees>
              <LongitudeDegrees>-1.652689687907695770263671875</LongitudeDegrees>
            </Position>
            <AltitudeMeters>625</AltitudeMeters>
            <DistanceMeters>16233.842772579</DistanceMeters>
          </Trackpoint>
          <Trackpoint>
            <Time>2022-11-06T11:22:13.000Z</Time>
            <Position>
              <LatitudeDegrees>41.35360993444919586181640625</LatitudeDegrees>
              <LongitudeDegrees>-1.65269765071570873260498046875</LongitudeDegrees>
            </Position>
            <AltitudeMeters>625.4000244140625</AltitudeMeters>
            <DistanceMeters>16235.283924057</DistanceMeters>
          </Trackpoint>
          <Trackpoint>
            <Time>2022-11-06T11:22:14.000Z</Time>
            <Position>
              <LatitudeDegrees>41.35360314510762691497802734375</LatitudeDegrees>
              <LongitudeDegrees>-1.65270469151437282562255859375</LongitudeDegrees>
            </Position>
            <AltitudeMeters>625.5999755859375</AltitudeMeters>
            <DistanceMeters>16236.243646828</DistanceMeters>
          </Trackpoint>
          <Trackpoint>
            <Time>2022-11-06T11:22:15.000Z</Time>
            <Position>
              <LatitudeDegrees>41.3535973615944385528564453125</LatitudeDegrees>
              <LongitudeDegrees>-1.65270905010402202606201171875</LongitudeDegrees>
            </Position>
            <AltitudeMeters>625.79998779296875</AltitudeMeters>
            <DistanceMeters>16236.991887925</DistanceMeters>
          </Trackpoint>
          <Trackpoint>
            <Time>2022-11-06T11:22:16.000Z</Time>
            <Position>
              <LatitudeDegrees>41.35359115898609161376953125</LatitudeDegrees>
              <LongitudeDegrees>-1.65271282196044921875</LongitudeDegrees>
            </Position>
            <AltitudeMeters>626</AltitudeMeters>
            <DistanceMeters>16237.75210164</DistanceMeters>
          </Trackpoint>
          <Trackpoint>
            <Time>2022-11-06T11:22:17.000Z</Time>
            <Position>
              <LatitudeDegrees>41.35358235798776149749755859375</LatitudeDegrees>
              <LongitudeDegrees>-1.6527146659791469573974609375</LongitudeDegrees>
            </Position>
            <AltitudeMeters>626.20001220703125</AltitudeMeters>
            <DistanceMeters>16238.748750229</DistanceMeters>
          </Trackpoint>
          <Trackpoint>
            <Time>2022-11-06T11:22:18.000Z</Time>
            <Position>
              <LatitudeDegrees>41.35357246734201908111572265625</LatitudeDegrees>
              <LongitudeDegrees>-1.65271961130201816558837890625</LongitudeDegrees>
            </Position>
            <AltitudeMeters>626.4000244140625</AltitudeMeters>
            <DistanceMeters>16239.928000742</DistanceMeters>
          </Trackpoint>
          <Trackpoint>
            <Time>2022-11-06T11:22:19.000Z</Time>
            <Position>
              <LatitudeDegrees>41.3535671867430210113525390625</LatitudeDegrees>
              <LongitudeDegrees>-1.65272422134876251220703125</LongitudeDegrees>
            </Position>
            <AltitudeMeters>626.5999755859375</AltitudeMeters>
            <DistanceMeters>16240.626301628</DistanceMeters>
          </Trackpoint>
          <Trackpoint>
            <Time>2022-11-06T11:22:20.000Z</Time>
            <Position>
              <LatitudeDegrees>41.35355704464018344879150390625</LatitudeDegrees>
              <LongitudeDegrees>-1.6527280770242214202880859375</LongitudeDegrees>
            </Position>
            <AltitudeMeters>626.79998779296875</AltitudeMeters>
            <DistanceMeters>16241.797869645</DistanceMeters>
          </Trackpoint>
          <Trackpoint>
            <Time>2022-11-06T11:22:21.000Z</Time>
            <Position>
              <LatitudeDegrees>41.35354824364185333251953125</LatitudeDegrees>
              <LongitudeDegrees>-1.65273486636579036712646484375</LongitudeDegrees>
            </Position>
            <AltitudeMeters>627.20001220703125</AltitudeMeters>
            <DistanceMeters>16242.930243636</DistanceMeters>
          </Trackpoint>
          <Trackpoint>
            <Time>2022-11-06T11:22:22.000Z</Time>
            <Position>
              <LatitudeDegrees>41.3535396941006183624267578125</LatitudeDegrees>
              <LongitudeDegrees>-1.65273721329867839813232421875</LongitudeDegrees>
            </Position>
            <AltitudeMeters>627.4000244140625</AltitudeMeters>
            <DistanceMeters>16243.9039777</DistanceMeters>
          </Trackpoint>
          <Trackpoint>
            <Time>2022-11-06T11:22:23.000Z</Time>
            <Position>
              <LatitudeDegrees>41.35353147983551025390625</LatitudeDegrees>
              <LongitudeDegrees>-1.65274861268699169158935546875</LongitudeDegrees>
            </Position>
            <AltitudeMeters>627.4000244140625</AltitudeMeters>
            <DistanceMeters>16245.227546674</DistanceMeters>
          </Trackpoint>
          <Trackpoint>
            <Time>2022-11-06T11:22:24.000Z</Time>
            <Position>
              <LatitudeDegrees>41.35352267883718013763427734375</LatitudeDegrees>
              <LongitudeDegrees>-1.65276252664625644683837890625</LongitudeDegrees>
            </Position>
            <AltitudeMeters>627.79998779296875</AltitudeMeters>
            <DistanceMeters>16246.750940795</DistanceMeters>
          </Trackpoint>
          <Trackpoint>
            <Time>2022-11-06T11:22:25.000Z</Time>
            <Position>
              <LatitudeDegrees>41.3535179011523723602294921875</LatitudeDegrees>
              <LongitudeDegrees>-1.65277543477714061737060546875</LongitudeDegrees>
            </Position>
            <AltitudeMeters>628</AltitudeMeters>
            <DistanceMeters>16247.952944219</DistanceMeters>
          </Trackpoint>
          <Trackpoint>
            <Time>2022-11-06T11:22:26.000Z</Time>
            <Position>
              <LatitudeDegrees>41.35351563803851604461669921875</LatitudeDegrees>
              <LongitudeDegrees>-1.6527865827083587646484375</LongitudeDegrees>
            </Position>
            <AltitudeMeters>628.4000244140625</AltitudeMeters>
            <DistanceMeters>16248.91266699</DistanceMeters>
          </Trackpoint>
          <Trackpoint>
            <Time>2022-11-06T11:22:27.000Z</Time>
            <Position>
              <LatitudeDegrees>41.35351563803851604461669921875</LatitudeDegrees>
              <LongitudeDegrees>-1.65279571898281574249267578125</LongitudeDegrees>
            </Position>
            <AltitudeMeters>628.5999755859375</AltitudeMeters>
            <DistanceMeters>16249.678796854</DistanceMeters>
          </Trackpoint>
          <Trackpoint>
            <Time>2022-11-06T11:22:28.000Z</Time>
            <Position>
              <LatitudeDegrees>41.35351815260946750640869140625</LatitudeDegrees>
              <LongitudeDegrees>-1.6528045199811458587646484375</LongitudeDegrees>
            </Position>
            <AltitudeMeters>629</AltitudeMeters>
            <DistanceMeters>16250.462407215</DistanceMeters>
          </Trackpoint>
          <Trackpoint>
            <Time>2022-11-06T11:22:29.000Z</Time>
            <Position>
              <LatitudeDegrees>41.35352418757975101470947265625</LatitudeDegrees>
              <LongitudeDegrees>-1.6528149135410785675048828125</LongitudeDegrees>
            </Position>
            <AltitudeMeters>629.20001220703125</AltitudeMeters>
            <DistanceMeters>16251.558308747</DistanceMeters>
          </Trackpoint>
          <Trackpoint>
            <Time>2022-11-06T11:22:30.000Z</Time>
            <Position>
              <LatitudeDegrees>41.353529803454875946044921875</LatitudeDegrees>
              <LongitudeDegrees>-1.65282421745359897613525390625</LongitudeDegrees>
            </Position>
            <AltitudeMeters>629.4000244140625</AltitudeMeters>
            <DistanceMeters>16252.554957335</DistanceMeters>
          </Trackpoint>
          <Trackpoint>
            <Time>2022-11-06T11:22:31.000Z</Time>
            <Position>
              <LatitudeDegrees>41.35353676043450832366943359375</LatitudeDegrees>
              <LongitudeDegrees>-1.6528330184519290924072265625</LongitudeDegrees>
            </Position>
            <AltitudeMeters>629.79998779296875</AltitudeMeters>
            <DistanceMeters>16253.621629558</DistanceMeters>
          </Trackpoint>
          <Trackpoint>
            <Time>2022-11-06T11:22:32.000Z</Time>
            <Position>
              <LatitudeDegrees>41.3535443879663944244384765625</LatitudeDegrees>
              <LongitudeDegrees>-1.65283896960318088531494140625</LongitudeDegrees>
            </Position>
            <AltitudeMeters>630</AltitudeMeters>
            <DistanceMeters>16254.609176143</DistanceMeters>
          </Trackpoint>
          <Trackpoint>
            <Time>2022-11-06T11:22:33.000Z</Time>
            <Position>
              <LatitudeDegrees>41.35355067439377307891845703125</LatitudeDegrees>
              <LongitudeDegrees>-1.65284500457346439361572265625</LongitudeDegrees>
            </Position>
            <AltitudeMeters>630.20001220703125</AltitudeMeters>
            <DistanceMeters>16255.46967964</DistanceMeters>
          </Trackpoint>
          <Trackpoint>
            <Time>2022-11-06T11:22:34.000Z</Time>
            <Position>
              <LatitudeDegrees>41.35355603881180286407470703125</LatitudeDegrees>
              <LongitudeDegrees>-1.652851291000843048095703125</LongitudeDegrees>
            </Position>
            <AltitudeMeters>630.4000244140625</AltitudeMeters>
            <DistanceMeters>16256.253290001</DistanceMeters>
          </Trackpoint>
          <Trackpoint>
            <Time>2022-11-06T11:22:35.000Z</Time>
            <Position>
              <LatitudeDegrees>41.353564001619815826416015625</LatitudeDegrees>
              <LongitudeDegrees>-1.65285556577146053314208984375</LongitudeDegrees>
            </Position>
            <AltitudeMeters>630.5999755859375</AltitudeMeters>
            <DistanceMeters>16257.203557145</DistanceMeters>
          </Trackpoint>
          <Trackpoint>
            <Time>2022-11-06T11:22:36.000Z</Time>
            <Position>
              <LatitudeDegrees>41.35357263498008251190185546875</LatitudeDegrees>
              <LongitudeDegrees>-1.6528643667697906494140625</LongitudeDegrees>
            </Position>
            <AltitudeMeters>630.79998779296875</AltitudeMeters>
            <DistanceMeters>16258.413049759</DistanceMeters>
          </Trackpoint>
          <Trackpoint>
            <Time>2022-11-06T11:22:37.000Z</Time>
            <Position>
              <LatitudeDegrees>41.35358118452131748199462890625</LatitudeDegrees>
              <LongitudeDegrees>-1.6528742574155330657958984375</LongitudeDegrees>
            </Position>
            <AltitudeMeters>631</AltitudeMeters>
            <DistanceMeters>16259.673721585</DistanceMeters>
          </Trackpoint>
          <Trackpoint>
            <Time>2022-11-06T11:22:38.000Z</Time>
            <Position>
              <LatitudeDegrees>41.353590153157711029052734375</LatitudeDegrees>
              <LongitudeDegrees>-1.65288037620484828948974609375</LongitudeDegrees>
            </Position>
            <AltitudeMeters>631.20001220703125</AltitudeMeters>
            <DistanceMeters>16260.794070025</DistanceMeters>
          </Trackpoint>
          <Trackpoint>
            <Time>2022-11-06T11:22:39.000Z</Time>
            <Position>
              <LatitudeDegrees>41.35360322892665863037109375</LatitudeDegrees>
              <LongitudeDegrees>-1.6528940387070178985595703125</LongitudeDegrees>
            </Position>
            <AltitudeMeters>631.4000244140625</AltitudeMeters>
            <DistanceMeters>16262.64404272</DistanceMeters>
          </Trackpoint>
          <Trackpoint>
            <Time>2022-11-06T11:22:40.000Z</Time>
            <Position>
              <LatitudeDegrees>41.3536106050014495849609375</LatitudeDegrees>
              <LongitudeDegrees>-1.652904935181140899658203125</LongitudeDegrees>
            </Position>
            <AltitudeMeters>631.4000244140625</AltitudeMeters>
            <DistanceMeters>16263.872058504</DistanceMeters>
          </Trackpoint>
          <Trackpoint>
            <Time>2022-11-06T11:22:41.000Z</Time>
            <Position>
              <LatitudeDegrees>41.3536208309233188629150390625</LatitudeDegrees>
              <LongitudeDegrees>-1.6529178433120250701904296875</LongitudeDegrees>
            </Position>
            <AltitudeMeters>631.5999755859375</AltitudeMeters>
            <DistanceMeters>16265.442157504</DistanceMeters>
          </Trackpoint>
          <Trackpoint>
            <Time>2022-11-06T11:22:42.000Z</Time>
            <Position>
              <LatitudeDegrees>41.35363181121647357940673828125</LatitudeDegrees>
              <LongitudeDegrees>-1.65292538702487945556640625</LongitudeDegrees>
            </Position>
            <AltitudeMeters>632</AltitudeMeters>
            <DistanceMeters>16266.819225423</DistanceMeters>
          </Trackpoint>
          <Trackpoint>
            <Time>2022-11-06T11:22:43.000Z</Time>
            <Position>
              <LatitudeDegrees>41.35364077985286712646484375</LatitudeDegrees>
              <LongitudeDegrees>-1.65293603204190731048583984375</LongitudeDegrees>
            </Position>
            <AltitudeMeters>632.20001220703125</AltitudeMeters>
            <DistanceMeters>16268.156369819</DistanceMeters>
          </Trackpoint>
          <Trackpoint>
            <Time>2022-11-06T11:22:44.000Z</Time>
            <Position>
              <LatitudeDegrees>41.35365159250795841217041015625</LatitudeDegrees>
              <LongitudeDegrees>-1.65294726379215717315673828125</LongitudeDegrees>
            </Position>
            <AltitudeMeters>632.4000244140625</AltitudeMeters>
            <DistanceMeters>16269.682724863</DistanceMeters>
          </Trackpoint>
          <Trackpoint>
            <Time>2022-11-06T11:22:45.000Z</Time>
            <Position>
              <LatitudeDegrees>41.3536600582301616668701171875</LatitudeDegrees>
              <LongitudeDegrees>-1.65295095182955265045166015625</LongitudeDegrees>
            </Position>
            <AltitudeMeters>632.5999755859375</AltitudeMeters>
            <DistanceMeters>16270.679373452</DistanceMeters>
          </Trackpoint>
          <Trackpoint>
            <Time>2022-11-06T11:22:46.000Z</Time>
            <Position>
              <LatitudeDegrees>41.353669278323650360107421875</LatitudeDegrees>
              <LongitudeDegrees>-1.65295363403856754302978515625</LongitudeDegrees>
            </Position>
            <AltitudeMeters>632.79998779296875</AltitudeMeters>
            <DistanceMeters>16271.728977818</DistanceMeters>
          </Trackpoint>
          <Trackpoint>
            <Time>2022-11-06T11:22:47.000Z</Time>
            <Position>
              <LatitudeDegrees>41.35368009097874164581298828125</LatitudeDegrees>
              <LongitudeDegrees>-1.6529620997607707977294921875</LongitudeDegrees>
            </Position>
            <AltitudeMeters>633</AltitudeMeters>
            <DistanceMeters>16273.122342966</DistanceMeters>
          </Trackpoint>
          <Trackpoint>
            <Time>2022-11-06T11:22:48.000Z</Time>
            <Position>
              <LatitudeDegrees>41.35368897579610347747802734375</LatitudeDegrees>
              <LongitudeDegrees>-1.65297106839716434478759765625</LongitudeDegrees>
            </Position>
            <AltitudeMeters>633.20001220703125</AltitudeMeters>
            <DistanceMeters>16274.361339736</DistanceMeters>
          </Trackpoint>
          <Trackpoint>
            <Time>2022-11-06T11:22:49.000Z</Time>
            <Position>
              <LatitudeDegrees>41.35369819588959217071533203125</LatitudeDegrees>
              <LongitudeDegrees>-1.6529745049774646759033203125</LongitudeDegrees>
            </Position>
            <AltitudeMeters>633.4000244140625</AltitudeMeters>
            <DistanceMeters>16275.423770701</DistanceMeters>
          </Trackpoint>
          <Trackpoint>
            <Time>2022-11-06T11:22:50.000Z</Time>
            <Position>
              <LatitudeDegrees>41.35370573960244655609130859375</LatitudeDegrees>
              <LongitudeDegrees>-1.652980037033557891845703125</LongitudeDegrees>
            </Position>
            <AltitudeMeters>633.79998779296875</AltitudeMeters>
            <DistanceMeters>16276.383493472</DistanceMeters>
          </Trackpoint>
          <Trackpoint>
            <Time>2022-11-06T11:22:51.000Z</Time>
            <Position>
              <LatitudeDegrees>41.35371387004852294921875</LatitudeDegrees>
              <LongitudeDegrees>-1.65298632346093654632568359375</LongitudeDegrees>
            </Position>
            <AltitudeMeters>634</AltitudeMeters>
            <DistanceMeters>16277.424458973</DistanceMeters>
          </Trackpoint>
          <Trackpoint>
            <Time>2022-11-06T11:22:52.000Z</Time>
            <Position>
              <LatitudeDegrees>41.35372434742748737335205078125</LatitudeDegrees>
              <LongitudeDegrees>-1.65298934094607830047607421875</LongitudeDegrees>
            </Position>
            <AltitudeMeters>634.20001220703125</AltitudeMeters>
            <DistanceMeters>16278.618926251</DistanceMeters>
          </Trackpoint>
          <Trackpoint>
            <Time>2022-11-06T11:22:53.000Z</Time>
            <Position>
              <LatitudeDegrees>41.35373490862548351287841796875</LatitudeDegrees>
              <LongitudeDegrees>-1.652993448078632354736328125</LongitudeDegrees>
            </Position>
            <AltitudeMeters>634.4000244140625</AltitudeMeters>
            <DistanceMeters>16279.84325982</DistanceMeters>
          </Trackpoint>
          <Trackpoint>
            <Time>2022-11-06T11:22:54.000Z</Time>
            <Position>
              <LatitudeDegrees>41.3537422008812427520751953125</LatitudeDegrees>
              <LongitudeDegrees>-1.652998141944408416748046875</LongitudeDegrees>
            </Position>
            <AltitudeMeters>634.5999755859375</AltitudeMeters>
            <DistanceMeters>16280.744762388</DistanceMeters>
          </Trackpoint>
          <Trackpoint>
            <Time>2022-11-06T11:22:55.000Z</Time>
            <Position>
              <LatitudeDegrees>41.35374999605119228363037109375</LatitudeDegrees>
              <LongitudeDegrees>-1.653004176914691925048828125</LongitudeDegrees>
            </Position>
            <AltitudeMeters>635</AltitudeMeters>
            <DistanceMeters>16281.745930948</DistanceMeters>
          </Trackpoint>
          <Trackpoint>
            <Time>2022-11-06T11:22:56.000Z</Time>
            <Position>
              <LatitudeDegrees>41.35375753976404666900634765625</LatitudeDegrees>
              <LongitudeDegrees>-1.65301113389432430267333984375</LongitudeDegrees>
            </Position>
            <AltitudeMeters>635</AltitudeMeters>
            <DistanceMeters>16282.764978931</DistanceMeters>
          </Trackpoint>
          <Trackpoint>
            <Time>2022-11-06T11:22:57.000Z</Time>
            <Position>
              <LatitudeDegrees>41.35376491583883762359619140625</LatitudeDegrees>
              <LongitudeDegrees>-1.6530167497694492340087890625</LongitudeDegrees>
            </Position>
            <AltitudeMeters>635.4000244140625</AltitudeMeters>
            <DistanceMeters>16283.715246074</DistanceMeters>
          </Trackpoint>
          <Trackpoint>
            <Time>2022-11-06T11:22:58.000Z</Time>
            <Position>
              <LatitudeDegrees>41.353772543370723724365234375</LatitudeDegrees>
              <LongitudeDegrees>-1.65302353911101818084716796875</LongitudeDegrees>
            </Position>
            <AltitudeMeters>635.5999755859375</AltitudeMeters>
            <DistanceMeters>16284.73871511</DistanceMeters>
          </Trackpoint>
          <Trackpoint>
            <Time>2022-11-06T11:22:59.000Z</Time>
            <Position>
              <LatitudeDegrees>41.35378025472164154052734375</LatitudeDegrees>
              <LongitudeDegrees>-1.65302865207195281982421875</LongitudeDegrees>
            </Position>
            <AltitudeMeters>635.79998779296875</AltitudeMeters>
            <DistanceMeters>16285.698437881</DistanceMeters>
          </Trackpoint>
          <Trackpoint>
            <Time>2022-11-06T11:23:00.000Z</Time>
            <Position>
              <LatitudeDegrees>41.3537881337106227874755859375</LatitudeDegrees>
              <LongitudeDegrees>-1.6530358605086803436279296875</LongitudeDegrees>
            </Position>
            <AltitudeMeters>636</AltitudeMeters>
            <DistanceMeters>16286.756610589</DistanceMeters>
          </Trackpoint>
          <Trackpoint>
            <Time>2022-11-06T11:23:01.000Z</Time>
            <Position>
              <LatitudeDegrees>41.35379768908023834228515625</LatitudeDegrees>
              <LongitudeDegrees>-1.65304206311702728271484375</LongitudeDegrees>
            </Position>
            <AltitudeMeters>636.20001220703125</AltitudeMeters>
            <DistanceMeters>16287.943493871</DistanceMeters>
          </Trackpoint>
          <Trackpoint>
            <Time>2022-11-06T11:23:02.000Z</Time>
            <Position>
              <LatitudeDegrees>41.353806070983409881591796875</LatitudeDegrees>
              <LongitudeDegrees>-1.65304801426827907562255859375</LongitudeDegrees>
            </Position>
            <AltitudeMeters>636.4000244140625</AltitudeMeters>
            <DistanceMeters>16289.005924836</DistanceMeters>
          </Trackpoint>
          <Trackpoint>
            <Time>2022-11-06T11:23:03.000Z</Time>
            <Position>
              <LatitudeDegrees>41.3538136146962642669677734375</LatitudeDegrees>
              <LongitudeDegrees>-1.65305455215275287628173828125</LongitudeDegrees>
            </Position>
            <AltitudeMeters>636.79998779296875</AltitudeMeters>
            <DistanceMeters>16290.011593053</DistanceMeters>
          </Trackpoint>
          <Trackpoint>
            <Time>2022-11-06T11:23:04.000Z</Time>
            <Position>
              <LatitudeDegrees>41.3538209907710552215576171875</LatitudeDegrees>
              <LongitudeDegrees>-1.65305824019014835357666015625</LongitudeDegrees>
            </Position>
            <AltitudeMeters>637</AltitudeMeters>
            <DistanceMeters>16290.892834548</DistanceMeters>
          </Trackpoint>
          <Trackpoint>
            <Time>2022-11-06T11:23:05.000Z</Time>
            <Position>
              <LatitudeDegrees>41.35382182896137237548828125</LatitudeDegrees>
              <LongitudeDegrees>-1.65306578390300273895263671875</LongitudeDegrees>
            </Position>
            <AltitudeMeters>637</AltitudeMeters>
            <DistanceMeters>16291.523170462</DistanceMeters>
          </Trackpoint>
          <Trackpoint>
            <Time>2022-11-06T11:23:06.000Z</Time>
            <Position>
              <LatitudeDegrees>41.35381788946688175201416015625</LatitudeDegrees>
              <LongitudeDegrees>-1.65307718329131603240966796875</LongitudeDegrees>
            </Position>
            <AltitudeMeters>637.20001220703125</AltitudeMeters>
            <DistanceMeters>16292.572774828</DistanceMeters>
          </Trackpoint>
          <Trackpoint>
            <Time>2022-11-06T11:23:07.000Z</Time>
            <Position>
              <LatitudeDegrees>41.353812776505947113037109375</LatitudeDegrees>
              <LongitudeDegrees>-1.653091348707675933837890625</LongitudeDegrees>
            </Position>
            <AltitudeMeters>637.4000244140625</AltitudeMeters>
            <DistanceMeters>16293.882627692</DistanceMeters>
          </Trackpoint>
          <Trackpoint>
            <Time>2022-11-06T11:23:08.000Z</Time>
            <Position>
              <LatitudeDegrees>41.353809423744678497314453125</LatitudeDegrees>
              <LongitudeDegrees>-1.6531057655811309814453125</LongitudeDegrees>
            </Position>
            <AltitudeMeters>637.4000244140625</AltitudeMeters>
            <DistanceMeters>16295.143299518</DistanceMeters>
          </Trackpoint>
          <Trackpoint>
            <Time>2022-11-06T11:23:09.000Z</Time>
            <Position>
              <LatitudeDegrees>41.3538045622408390045166015625</LatitudeDegrees>
              <LongitudeDegrees>-1.6531129740178585052490234375</LongitudeDegrees>
            </Position>
            <AltitudeMeters>637.5999755859375</AltitudeMeters>
            <DistanceMeters>16295.949627928</DistanceMeters>
          </Trackpoint>
          <Trackpoint>
            <Time>2022-11-06T11:23:10.000Z</Time>
            <Position>
              <LatitudeDegrees>41.35379810817539691925048828125</LatitudeDegrees>
              <LongitudeDegrees>-1.6531190089881420135498046875</LongitudeDegrees>
            </Position>
            <AltitudeMeters>638</AltitudeMeters>
            <DistanceMeters>16296.820562151</DistanceMeters>
          </Trackpoint>
          <Trackpoint>
            <Time>2022-11-06T11:23:11.000Z</Time>
            <Position>
              <LatitudeDegrees>41.3537921570241451263427734375</LatitudeDegrees>
              <LongitudeDegrees>-1.65312931872904300689697265625</LongitudeDegrees>
            </Position>
            <AltitudeMeters>638.20001220703125</AltitudeMeters>
            <DistanceMeters>16297.904033396</DistanceMeters>
          </Trackpoint>
          <Trackpoint>
            <Time>2022-11-06T11:23:12.000Z</Time>
            <Position>
              <LatitudeDegrees>41.35378561913967132568359375</LatitudeDegrees>
              <LongitudeDegrees>-1.65313728153705596923828125</LongitudeDegrees>
            </Position>
            <AltitudeMeters>638.4000244140625</AltitudeMeters>
            <DistanceMeters>16298.89157998</DistanceMeters>
          </Trackpoint>
          <Trackpoint>
            <Time>2022-11-06T11:23:13.000Z</Time>
            <Position>
              <LatitudeDegrees>41.3537810929119586944580078125</LatitudeDegrees>
              <LongitudeDegrees>-1.65314725600183010101318359375</LongitudeDegrees>
            </Position>
            <AltitudeMeters>638.5999755859375</AltitudeMeters>
            <DistanceMeters>16299.865314043</DistanceMeters>
          </Trackpoint>
          <Trackpoint>
            <Time>2022-11-06T11:23:14.000Z</Time>
            <Position>
              <LatitudeDegrees>41.35377715341746807098388671875</LatitudeDegrees>
              <LongitudeDegrees>-1.65315999649465084075927734375</LongitudeDegrees>
            </Position>
            <AltitudeMeters>638.5999755859375</AltitudeMeters>
            <DistanceMeters>16301.013526202</DistanceMeters>
          </Trackpoint>
          <Trackpoint>
            <Time>2022-11-06T11:23:15.000Z</Time>
            <Position>
              <LatitudeDegrees>41.35377229191362857818603515625</LatitudeDegrees>
              <LongitudeDegrees>-1.65317089296877384185791015625</LongitudeDegrees>
            </Position>
            <AltitudeMeters>638.79998779296875</AltitudeMeters>
            <DistanceMeters>16302.071698909</DistanceMeters>
          </Trackpoint>
          <Trackpoint>
            <Time>2022-11-06T11:23:16.000Z</Time>
            <Position>
              <LatitudeDegrees>41.353767178952693939208984375</LatitudeDegrees>
              <LongitudeDegrees>-1.65317994542419910430908203125</LongitudeDegrees>
            </Position>
            <AltitudeMeters>639.20001220703125</AltitudeMeters>
            <DistanceMeters>16303.012415387</DistanceMeters>
          </Trackpoint>
          <Trackpoint>
            <Time>2022-11-06T11:23:17.000Z</Time>
            <Position>
              <LatitudeDegrees>41.35376156307756900787353515625</LatitudeDegrees>
              <LongitudeDegrees>-1.6531884111464023590087890625</LongitudeDegrees>
            </Position>
            <AltitudeMeters>639.4000244140625</AltitudeMeters>
            <DistanceMeters>16303.953131865</DistanceMeters>
          </Trackpoint>
          <Trackpoint>
            <Time>2022-11-06T11:23:18.000Z</Time>
            <Position>
              <LatitudeDegrees>41.35375686921179294586181640625</LatitudeDegrees>
              <LongitudeDegrees>-1.65319922380149364471435546875</LongitudeDegrees>
            </Position>
            <AltitudeMeters>639.5999755859375</AltitudeMeters>
            <DistanceMeters>16304.994097366</DistanceMeters>
          </Trackpoint>
          <Trackpoint>
            <Time>2022-11-06T11:23:19.000Z</Time>
            <Position>
              <LatitudeDegrees>41.35375116951763629913330078125</LatitudeDegrees>
              <LongitudeDegrees>-1.6532105393707752227783203125</LongitudeDegrees>
            </Position>
            <AltitudeMeters>639.79998779296875</AltitudeMeters>
            <DistanceMeters>16306.134417938</DistanceMeters>
          </Trackpoint>
          <Trackpoint>
            <Time>2022-11-06T11:23:20.000Z</Time>
            <Position>
              <LatitudeDegrees>41.3537447154521942138671875</LatitudeDegrees>
              <LongitudeDegrees>-1.65322403423488140106201171875</LongitudeDegrees>
            </Position>
            <AltitudeMeters>640</AltitudeMeters>
            <DistanceMeters>16307.471562334</DistanceMeters>
          </Trackpoint>
          <Trackpoint>
            <Time>2022-11-06T11:23:21.000Z</Time>
            <Position>
              <LatitudeDegrees>41.35373909957706928253173828125</LatitudeDegrees>
              <LongitudeDegrees>-1.65323442779481410980224609375</LongitudeDegrees>
            </Position>
            <AltitudeMeters>640.4000244140625</AltitudeMeters>
            <DistanceMeters>16308.542459018</DistanceMeters>
          </Trackpoint>
          <Trackpoint>
            <Time>2022-11-06T11:23:22.000Z</Time>
            <Position>
              <LatitudeDegrees>41.35373239405453205108642578125</LatitudeDegrees>
              <LongitudeDegrees>-1.65324389934539794921875</LongitudeDegrees>
            </Position>
            <AltitudeMeters>640.5999755859375</AltitudeMeters>
            <DistanceMeters>16309.630089477</DistanceMeters>
          </Trackpoint>
          <Trackpoint>
            <Time>2022-11-06T11:23:23.000Z</Time>
            <Position>
              <LatitudeDegrees>41.35372468270361423492431640625</LatitudeDegrees>
              <LongitudeDegrees>-1.65325387381017208099365234375</LongitudeDegrees>
            </Position>
            <AltitudeMeters>640.79998779296875</AltitudeMeters>
            <DistanceMeters>16310.824556755</DistanceMeters>
          </Trackpoint>
          <Trackpoint>
            <Time>2022-11-06T11:23:24.000Z</Time>
            <Position>
              <LatitudeDegrees>41.35371563024818897247314453125</LatitudeDegrees>
              <LongitudeDegrees>-1.6532685421407222747802734375</LongitudeDegrees>
            </Position>
            <AltitudeMeters>640.79998779296875</AltitudeMeters>
            <DistanceMeters>16312.408968712</DistanceMeters>
          </Trackpoint>
          <Trackpoint>
            <Time>2022-11-06T11:23:25.000Z</Time>
            <Position>
              <LatitudeDegrees>41.35370917618274688720703125</LatitudeDegrees>
              <LongitudeDegrees>-1.6532801091670989990234375</LongitudeDegrees>
            </Position>
            <AltitudeMeters>641</AltitudeMeters>
            <DistanceMeters>16313.618461327</DistanceMeters>
          </Trackpoint>
          <Trackpoint>
            <Time>2022-11-06T11:23:26.000Z</Time>
            <Position>
              <LatitudeDegrees>41.353705488145351409912109375</LatitudeDegrees>
              <LongitudeDegrees>-1.65329544804990291595458984375</LongitudeDegrees>
            </Position>
            <AltitudeMeters>641.20001220703125</AltitudeMeters>
            <DistanceMeters>16314.969044697</DistanceMeters>
          </Trackpoint>
          <Trackpoint>
            <Time>2022-11-06T11:23:27.000Z</Time>
            <Position>
              <LatitudeDegrees>41.3537046499550342559814453125</LatitudeDegrees>
              <LongitudeDegrees>-1.65331187658011913299560546875</LongitudeDegrees>
            </Position>
            <AltitudeMeters>641.20001220703125</AltitudeMeters>
            <DistanceMeters>16316.346112616</DistanceMeters>
          </Trackpoint>
          <Trackpoint>
            <Time>2022-11-06T11:23:28.000Z</Time>
            <Position>
              <LatitudeDegrees>41.35370154865086078643798828125</LatitudeDegrees>
              <LongitudeDegrees>-1.65332629345357418060302734375</LongitudeDegrees>
            </Position>
            <AltitudeMeters>641.4000244140625</AltitudeMeters>
            <DistanceMeters>16317.599601069</DistanceMeters>
          </Trackpoint>
          <Trackpoint>
            <Time>2022-11-06T11:23:29.000Z</Time>
            <Position>
              <LatitudeDegrees>41.35369551368057727813720703125</LatitudeDegrees>
              <LongitudeDegrees>-1.653342135250568389892578125</LongitudeDegrees>
            </Position>
            <AltitudeMeters>641.4000244140625</AltitudeMeters>
            <DistanceMeters>16319.083965799</DistanceMeters>
          </Trackpoint>
          <Trackpoint>
            <Time>2022-11-06T11:23:30.000Z</Time>
            <Position>
              <LatitudeDegrees>41.35368847288191318511962890625</LatitudeDegrees>
              <LongitudeDegrees>-1.65335948579013347625732421875</LongitudeDegrees>
            </Position>
            <AltitudeMeters>641.4000244140625</AltitudeMeters>
            <DistanceMeters>16320.732617676</DistanceMeters>
          </Trackpoint>
          <Trackpoint>
            <Time>2022-11-06T11:23:31.000Z</Time>
            <Position>
              <LatitudeDegrees>41.3536795042455196380615234375</LatitudeDegrees>
              <LongitudeDegrees>-1.6533811949193477630615234375</LongitudeDegrees>
            </Position>
            <AltitudeMeters>641.4000244140625</AltitudeMeters>
            <DistanceMeters>16322.8036769</DistanceMeters>
          </Trackpoint>
          <Trackpoint>
            <Time>2022-11-06T11:23:32.000Z</Time>
            <Position>
              <LatitudeDegrees>41.35367305018007755279541015625</LatitudeDegrees>
              <LongitudeDegrees>-1.6534066759049892425537109375</LongitudeDegrees>
            </Position>
            <AltitudeMeters>641.4000244140625</AltitudeMeters>
            <DistanceMeters>16325.048400192</DistanceMeters>
          </Trackpoint>
          <Trackpoint>
            <Time>2022-11-06T11:23:33.000Z</Time>
            <Position>
              <LatitudeDegrees>41.3536634109914302825927734375</LatitudeDegrees>
              <LongitudeDegrees>-1.65343894623219966888427734375</LongitudeDegrees>
            </Position>
            <AltitudeMeters>641.4000244140625</AltitudeMeters>
            <DistanceMeters>16327.949439875</DistanceMeters>
          </Trackpoint>
          <Trackpoint>
            <Time>2022-11-06T11:23:34.000Z</Time>
            <Position>
              <LatitudeDegrees>41.35365075431764125823974609375</LatitudeDegrees>
              <LongitudeDegrees>-1.65348437614738941192626953125</LongitudeDegrees>
            </Position>
            <AltitudeMeters>641.4000244140625</AltitudeMeters>
            <DistanceMeters>16331.996730163</DistanceMeters>
          </Trackpoint>
          <Trackpoint>
            <Time>2022-11-06T11:23:35.000Z</Time>
            <Position>
              <LatitudeDegrees>41.3536322303116321563720703125</LatitudeDegrees>
              <LongitudeDegrees>-1.6535441391170024871826171875</LongitudeDegrees>
            </Position>
            <AltitudeMeters>641.20001220703125</AltitudeMeters>
            <DistanceMeters>16337.398227824</DistanceMeters>
          </Trackpoint>
          <Trackpoint>
            <Time>2022-11-06T11:23:36.000Z</Time>
            <Position>
              <LatitudeDegrees>41.3536079227924346923828125</LatitudeDegrees>
              <LongitudeDegrees>-1.65361429564654827117919921875</LongitudeDegrees>
            </Position>
            <AltitudeMeters>640.79998779296875</AltitudeMeters>
            <DistanceMeters>16343.854452175</DistanceMeters>
          </Trackpoint>
          <Trackpoint>
            <Time>2022-11-06T11:23:37.000Z</Time>
            <Position>
              <LatitudeDegrees>41.35358789004385471343994140625</LatitudeDegrees>
              <LongitudeDegrees>-1.653696186840534210205078125</LongitudeDegrees>
            </Position>
            <AltitudeMeters>640.4000244140625</AltitudeMeters>
            <DistanceMeters>16351.050177179</DistanceMeters>
          </Trackpoint>
          <Trackpoint>
            <Time>2022-11-06T11:23:38.000Z</Time>
            <Position>
              <LatitudeDegrees>41.3535732217133045196533203125</LatitudeDegrees>
              <LongitudeDegrees>-1.65379132144153118133544921875</LongitudeDegrees>
            </Position>
            <AltitudeMeters>639.79998779296875</AltitudeMeters>
            <DistanceMeters>16359.16370029</DistanceMeters>
          </Trackpoint>
          <Trackpoint>
            <Time>2022-11-06T11:23:39.000Z</Time>
            <Position>
              <LatitudeDegrees>41.35356509126722812652587890625</LatitudeDegrees>
              <LongitudeDegrees>-1.65389441885054111480712890625</LongitudeDegrees>
            </Position>
            <AltitudeMeters>639</AltitudeMeters>
            <DistanceMeters>16367.825217195</DistanceMeters>
          </Trackpoint>
          <Trackpoint>
            <Time>2022-11-06T11:23:40.000Z</Time>
            <Position>
              <LatitudeDegrees>41.3535571284592151641845703125</LatitudeDegrees>
              <LongitudeDegrees>-1.6540041379630565643310546875</LongitudeDegrees>
            </Position>
            <AltitudeMeters>638.4000244140625</AltitudeMeters>
            <DistanceMeters>16377.035458132</DistanceMeters>
          </Trackpoint>
          <Trackpoint>
            <Time>2022-11-06T11:23:41.000Z</Time>
            <Position>
              <LatitudeDegrees>41.35354220867156982421875</LatitudeDegrees>
              <LongitudeDegrees>-1.6541198082268238067626953125</LongitudeDegrees>
            </Position>
            <AltitudeMeters>637.20001220703125</AltitudeMeters>
            <DistanceMeters>16386.841183703</DistanceMeters>
          </Trackpoint>
          <Trackpoint>
            <Time>2022-11-06T11:23:43.000Z</Time>
            <Position>
              <LatitudeDegrees>41.35346375405788421630859375</LatitudeDegrees>
              <LongitudeDegrees>-1.6543216444551944732666015625</LongitudeDegrees>
            </Position>
            <AltitudeMeters>635.79998779296875</AltitudeMeters>
            <DistanceMeters>16405.831078457</DistanceMeters>
          </Trackpoint>
          <Trackpoint>
            <Time>2022-11-06T11:23:44.000Z</Time>
            <Position>
              <LatitudeDegrees>41.35340717621147632598876953125</LatitudeDegrees>
              <LongitudeDegrees>-1.6543920524418354034423828125</LongitudeDegrees>
            </Position>
            <AltitudeMeters>635</AltitudeMeters>
            <DistanceMeters>16414.448696961</DistanceMeters>
          </Trackpoint>
          <Trackpoint>
            <Time>2022-11-06T11:23:45.000Z</Time>
            <Position>
              <LatitudeDegrees>41.3533194176852703094482421875</LatitudeDegrees>
              <LongitudeDegrees>-1.654389537870883941650390625</LongitudeDegrees>
            </Position>
            <AltitudeMeters>634.20001220703125</AltitudeMeters>
            <DistanceMeters>16424.218441482</DistanceMeters>
          </Trackpoint>
          <Trackpoint>
            <Time>2022-11-06T11:23:46.000Z</Time>
            <Position>
              <LatitudeDegrees>41.35324272327125072479248046875</LatitudeDegrees>
              <LongitudeDegrees>-1.65437285788357257843017578125</LongitudeDegrees>
            </Position>
            <AltitudeMeters>633.20001220703125</AltitudeMeters>
            <DistanceMeters>16432.867438723</DistanceMeters>
          </Trackpoint>
          <Trackpoint>
            <Time>2022-11-06T11:23:47.000Z</Time>
            <Position>
              <LatitudeDegrees>41.3531412184238433837890625</LatitudeDegrees>
              <LongitudeDegrees>-1.65434637106955051422119140625</LongitudeDegrees>
            </Position>
            <AltitudeMeters>631.79998779296875</AltitudeMeters>
            <DistanceMeters>16444.379798688</DistanceMeters>
          </Trackpoint>
          <Trackpoint>
            <Time>2022-11-06T11:23:48.000Z</Time>
            <Position>
              <LatitudeDegrees>41.35301205329596996307373046875</LatitudeDegrees>
              <LongitudeDegrees>-1.65431938134133815765380859375</LongitudeDegrees>
            </Position>
            <AltitudeMeters>630.5999755859375</AltitudeMeters>
            <DistanceMeters>16458.931923024</DistanceMeters>
          </Trackpoint>
          <Trackpoint>
            <Time>2022-11-06T11:23:49.000Z</Time>
            <Position>
              <LatitudeDegrees>41.35290183126926422119140625</LatitudeDegrees>
              <LongitudeDegrees>-1.65431317873299121856689453125</LongitudeDegrees>
            </Position>
            <AltitudeMeters>629.79998779296875</AltitudeMeters>
            <DistanceMeters>16471.210977808</DistanceMeters>
          </Trackpoint>
          <Trackpoint>
            <Time>2022-11-06T11:23:50.000Z</Time>
            <Position>
              <LatitudeDegrees>41.35281122289597988128662109375</LatitudeDegrees>
              <LongitudeDegrees>-1.65432156063616275787353515625</LongitudeDegrees>
            </Position>
            <AltitudeMeters>629.20001220703125</AltitudeMeters>
            <DistanceMeters>16481.319605066</DistanceMeters>
          </Trackpoint>
          <Trackpoint>
            <Time>2022-11-06T11:23:51.000Z</Time>
            <Position>
              <LatitudeDegrees>41.35271541774272918701171875</LatitudeDegrees>
              <LongitudeDegrees>-1.65435441769659519195556640625</LongitudeDegrees>
            </Position>
            <AltitudeMeters>629</AltitudeMeters>
            <DistanceMeters>16492.330409139</DistanceMeters>
          </Trackpoint>
          <Trackpoint>
            <Time>2022-11-06T11:23:52.000Z</Time>
            <Position>
              <LatitudeDegrees>41.35263101197779178619384765625</LatitudeDegrees>
              <LongitudeDegrees>-1.65442046709358692169189453125</LongitudeDegrees>
            </Position>
            <AltitudeMeters>628.79998779296875</AltitudeMeters>
            <DistanceMeters>16503.225792791</DistanceMeters>
          </Trackpoint>
          <Trackpoint>
            <Time>2022-11-06T11:23:53.000Z</Time>
            <Position>
              <LatitudeDegrees>41.35259027592837810516357421875</LatitudeDegrees>
              <LongitudeDegrees>-1.65447629056870937347412109375</LongitudeDegrees>
            </Position>
            <AltitudeMeters>628.4000244140625</AltitudeMeters>
            <DistanceMeters>16509.730091995</DistanceMeters>
          </Trackpoint>
          <Trackpoint>
            <Time>2022-11-06T11:23:54.000Z</Time>
            <Position>
              <LatitudeDegrees>41.35256546549499034881591796875</LatitudeDegrees>
              <LongitudeDegrees>-1.65455742739140987396240234375</LongitudeDegrees>
            </Position>
            <AltitudeMeters>628.4000244140625</AltitudeMeters>
            <DistanceMeters>16517.050233635</DistanceMeters>
          </Trackpoint>
          <Trackpoint>
            <Time>2022-11-06T11:23:55.000Z</Time>
            <Position>
              <LatitudeDegrees>41.35256479494273662567138671875</LatitudeDegrees>
              <LongitudeDegrees>-1.654657088220119476318359375</LongitudeDegrees>
            </Position>
            <AltitudeMeters>628.20001220703125</AltitudeMeters>
            <DistanceMeters>16525.376873229</DistanceMeters>
          </Trackpoint>
          <Trackpoint>
            <Time>2022-11-06T11:23:56.000Z</Time>
            <Position>
              <LatitudeDegrees>41.35257954709231853485107421875</LatitudeDegrees>
              <LongitudeDegrees>-1.654718108475208282470703125</LongitudeDegrees>
            </Position>
            <AltitudeMeters>628.20001220703125</AltitudeMeters>
            <DistanceMeters>16530.733042837</DistanceMeters>
          </Trackpoint>
          <Trackpoint>
            <Time>2022-11-06T11:23:57.000Z</Time>
            <Position>
              <LatitudeDegrees>41.35261307470500469207763671875</LatitudeDegrees>
              <LongitudeDegrees>-1.65480653755366802215576171875</LongitudeDegrees>
            </Position>
            <AltitudeMeters>628.20001220703125</AltitudeMeters>
            <DistanceMeters>16539.010736963</DistanceMeters>
          </Trackpoint>
          <Trackpoint>
            <Time>2022-11-06T11:23:58.000Z</Time>
            <Position>
              <LatitudeDegrees>41.3526458479464054107666015625</LatitudeDegrees>
              <LongitudeDegrees>-1.65486739017069339752197265625</LongitudeDegrees>
            </Position>
            <AltitudeMeters>628.20001220703125</AltitudeMeters>
            <DistanceMeters>16545.26808556</DistanceMeters>
          </Trackpoint>
          <Trackpoint>
            <Time>2022-11-06T11:23:59.000Z</Time>
            <Position>
              <LatitudeDegrees>41.35267878882586956024169921875</LatitudeDegrees>
              <LongitudeDegrees>-1.654922962188720703125</LongitudeDegrees>
            </Position>
            <AltitudeMeters>628.20001220703125</AltitudeMeters>
            <DistanceMeters>16551.184214049</DistanceMeters>
          </Trackpoint>
          <Trackpoint>
            <Time>2022-11-06T11:24:00.000Z</Time>
            <Position>
              <LatitudeDegrees>41.35270577855408191680908203125</LatitudeDegrees>
              <LongitudeDegrees>-1.6549720801413059234619140625</LongitudeDegrees>
            </Position>
            <AltitudeMeters>628.20001220703125</AltitudeMeters>
            <DistanceMeters>16556.269697205</DistanceMeters>
          </Trackpoint>
          <Trackpoint>
            <Time>2022-11-06T11:24:01.000Z</Time>
            <Position>
              <LatitudeDegrees>41.35272656567394733428955078125</LatitudeDegrees>
              <LongitudeDegrees>-1.6550154983997344970703125</LongitudeDegrees>
            </Position>
            <AltitudeMeters>628.4000244140625</AltitudeMeters>
            <DistanceMeters>16560.572214691</DistanceMeters>
          </Trackpoint>
          <Trackpoint>
            <Time>2022-11-06T11:24:02.000Z</Time>
            <Position>
              <LatitudeDegrees>41.35274668224155902862548828125</LatitudeDegrees>
              <LongitudeDegrees>-1.655054390430450439453125</LongitudeDegrees>
            </Position>
            <AltitudeMeters>629</AltitudeMeters>
            <DistanceMeters>16564.517826404</DistanceMeters>
          </Trackpoint>
          <Trackpoint>
            <Time>2022-11-06T11:24:03.000Z</Time>
            <Position>
              <LatitudeDegrees>41.3527549803256988525390625</LatitudeDegrees>
              <LongitudeDegrees>-1.65509386919438838958740234375</LongitudeDegrees>
            </Position>
            <AltitudeMeters>629.20001220703125</AltitudeMeters>
            <DistanceMeters>16567.944063316</DistanceMeters>
          </Trackpoint>
          <Trackpoint>
            <Time>2022-11-06T11:24:04.000Z</Time>
            <Position>
              <LatitudeDegrees>41.35275925509631633758544921875</LatitudeDegrees>
              <LongitudeDegrees>-1.65512907318770885467529296875</LongitudeDegrees>
            </Position>
            <AltitudeMeters>629.4000244140625</AltitudeMeters>
            <DistanceMeters>16570.923419814</DistanceMeters>
          </Trackpoint>
          <Trackpoint>
            <Time>2022-11-06T11:24:05.000Z</Time>
            <Position>
              <LatitudeDegrees>41.35275389067828655242919921875</LatitudeDegrees>
              <LongitudeDegrees>-1.6551630198955535888671875</LongitudeDegrees>
            </Position>
            <AltitudeMeters>630.20001220703125</AltitudeMeters>
            <DistanceMeters>16573.821345122</DistanceMeters>
          </Trackpoint>
          <Trackpoint>
            <Time>2022-11-06T11:24:06.000Z</Time>
            <Position>
              <LatitudeDegrees>41.35275003500282764434814453125</LatitudeDegrees>
              <LongitudeDegrees>-1.655198223888874053955078125</LongitudeDegrees>
            </Position>
            <AltitudeMeters>630.5999755859375</AltitudeMeters>
            <DistanceMeters>16576.793114757</DistanceMeters>
          </Trackpoint>
          <Trackpoint>
            <Time>2022-11-06T11:24:07.000Z</Time>
            <Position>
              <LatitudeDegrees>41.35273897089064121246337890625</LatitudeDegrees>
              <LongitudeDegrees>-1.6552302427589893341064453125</LongitudeDegrees>
            </Position>
            <AltitudeMeters>631.4000244140625</AltitudeMeters>
            <DistanceMeters>16579.737409815</DistanceMeters>
          </Trackpoint>
          <Trackpoint>
            <Time>2022-11-06T11:24:08.000Z</Time>
            <Position>
              <LatitudeDegrees>41.3527174293994903564453125</LatitudeDegrees>
              <LongitudeDegrees>-1.65526066906750202178955078125</LongitudeDegrees>
            </Position>
            <AltitudeMeters>631.79998779296875</AltitudeMeters>
            <DistanceMeters>16583.231499589</DistanceMeters>
          </Trackpoint>
          <Trackpoint>
            <Time>2022-11-06T11:24:09.000Z</Time>
            <Position>
              <LatitudeDegrees>41.35269018821418285369873046875</LatitudeDegrees>
              <LongitudeDegrees>-1.6552926041185855865478515625</LongitudeDegrees>
            </Position>
            <AltitudeMeters>632</AltitudeMeters>
            <DistanceMeters>16587.26985545</DistanceMeters>
          </Trackpoint>
          <Trackpoint>
            <Time>2022-11-06T11:24:10.000Z</Time>
            <Position>
              <LatitudeDegrees>41.35265833698213100433349609375</LatitudeDegrees>
              <LongitudeDegrees>-1.6553298197686672210693359375</LongitudeDegrees>
            </Position>
            <AltitudeMeters>632.20001220703125</AltitudeMeters>
            <DistanceMeters>16591.984942745</DistanceMeters>
          </Trackpoint>
          <Trackpoint>
            <Time>2022-11-06T11:24:11.000Z</Time>
            <Position>
              <LatitudeDegrees>41.35262698866426944732666015625</LatitudeDegrees>
              <LongitudeDegrees>-1.65536477230489253997802734375</LongitudeDegrees>
            </Position>
            <AltitudeMeters>632.20001220703125</AltitudeMeters>
            <DistanceMeters>16596.534331189</DistanceMeters>
          </Trackpoint>
          <Trackpoint>
            <Time>2022-11-06T11:24:12.000Z</Time>
            <Position>
              <LatitudeDegrees>41.35258474387228488922119140625</LatitudeDegrees>
              <LongitudeDegrees>-1.65540374815464019775390625</LongitudeDegrees>
            </Position>
            <AltitudeMeters>631.79998779296875</AltitudeMeters>
            <DistanceMeters>16602.25332908</DistanceMeters>
          </Trackpoint>
          <Trackpoint>
            <Time>2022-11-06T11:24:13.000Z</Time>
            <Position>
              <LatitudeDegrees>41.35253746993839740753173828125</LatitudeDegrees>
              <LongitudeDegrees>-1.65543316863477230072021484375</LongitudeDegrees>
            </Position>
            <AltitudeMeters>631.5999755859375</AltitudeMeters>
            <DistanceMeters>16608.060075625</DistanceMeters>
          </Trackpoint>
          <Trackpoint>
            <Time>2022-11-06T11:24:14.000Z</Time>
            <Position>
              <LatitudeDegrees>41.3524822331964969635009765625</LatitudeDegrees>
              <LongitudeDegrees>-1.65546602569520473480224609375</LongitudeDegrees>
            </Position>
            <AltitudeMeters>631.4000244140625</AltitudeMeters>
            <DistanceMeters>16614.793575</DistanceMeters>
          </Trackpoint>
          <Trackpoint>
            <Time>2022-11-06T11:24:16.000Z</Time>
            <Position>
              <LatitudeDegrees>41.35240704752504825592041015625</LatitudeDegrees>
              <LongitudeDegrees>-1.6555507667362689971923828125</LongitudeDegrees>
            </Position>
            <AltitudeMeters>631.20001220703125</AltitudeMeters>
            <DistanceMeters>16625.755061996</DistanceMeters>
          </Trackpoint>
          <Trackpoint>
            <Time>2022-11-06T11:24:17.000Z</Time>
            <Position>
              <LatitudeDegrees>41.35239665396511554718017578125</LatitudeDegrees>
              <LongitudeDegrees>-1.65559996850788593292236328125</LongitudeDegrees>
            </Position>
            <AltitudeMeters>631.20001220703125</AltitudeMeters>
            <DistanceMeters>16630.025981618</DistanceMeters>
          </Trackpoint>
          <Trackpoint>
            <Time>2022-11-06T11:24:18.000Z</Time>
            <Position>
              <LatitudeDegrees>41.35239833034574985504150390625</LatitudeDegrees>
              <LongitudeDegrees>-1.65567741729319095611572265625</LongitudeDegrees>
            </Position>
            <AltitudeMeters>631.20001220703125</AltitudeMeters>
            <DistanceMeters>16636.498968154</DistanceMeters>
          </Trackpoint>
          <Trackpoint>
            <Time>2022-11-06T11:24:20.000Z</Time>
            <Position>
              <LatitudeDegrees>41.35243135504424571990966796875</LatitudeDegrees>
              <LongitudeDegrees>-1.6557884775102138519287109375</LongitudeDegrees>
            </Position>
            <AltitudeMeters>631.4000244140625</AltitudeMeters>
            <DistanceMeters>16646.479035447</DistanceMeters>
          </Trackpoint>
          <Trackpoint>
            <Time>2022-11-06T11:24:21.000Z</Time>
            <Position>
              <LatitudeDegrees>41.35246320627629756927490234375</LatitudeDegrees>
              <LongitudeDegrees>-1.65585662238299846649169921875</LongitudeDegrees>
            </Position>
            <AltitudeMeters>631.4000244140625</AltitudeMeters>
            <DistanceMeters>16653.186333029</DistanceMeters>
          </Trackpoint>
          <Trackpoint>
            <Time>2022-11-06T11:24:22.000Z</Time>
            <Position>
              <LatitudeDegrees>41.35248717851936817169189453125</LatitudeDegrees>
              <LongitudeDegrees>-1.6559086740016937255859375</LongitudeDegrees>
            </Position>
            <AltitudeMeters>631.4000244140625</AltitudeMeters>
            <DistanceMeters>16658.286886943</DistanceMeters>
          </Trackpoint>
          <Trackpoint>
            <Time>2022-11-06T11:24:23.000Z</Time>
            <Position>
              <LatitudeDegrees>41.3525010086596012115478515625</LatitudeDegrees>
              <LongitudeDegrees>-1.6559542715549468994140625</LongitudeDegrees>
            </Position>
            <AltitudeMeters>631.5999755859375</AltitudeMeters>
            <DistanceMeters>16662.396174345</DistanceMeters>
          </Trackpoint>
          <Trackpoint>
            <Time>2022-11-06T11:24:24.000Z</Time>
            <Position>
              <LatitudeDegrees>41.35250578634440898895263671875</LatitudeDegrees>
              <LongitudeDegrees>-1.65599710308015346527099609375</LongitudeDegrees>
            </Position>
            <AltitudeMeters>632.20001220703125</AltitudeMeters>
            <DistanceMeters>16666.012187438</DistanceMeters>
          </Trackpoint>
          <Trackpoint>
            <Time>2022-11-06T11:24:25.000Z</Time>
            <Position>
              <LatitudeDegrees>41.35250486433506011962890625</LatitudeDegrees>
              <LongitudeDegrees>-1.6560385935008525848388671875</LongitudeDegrees>
            </Position>
            <AltitudeMeters>632.4000244140625</AltitudeMeters>
            <DistanceMeters>16669.480337063</DistanceMeters>
          </Trackpoint>
          <Trackpoint>
            <Time>2022-11-06T11:24:26.000Z</Time>
            <Position>
              <LatitudeDegrees>41.35250126011669635772705078125</LatitudeDegrees>
              <LongitudeDegrees>-1.65607622824609279632568359375</LongitudeDegrees>
            </Position>
            <AltitudeMeters>632.5999755859375</AltitudeMeters>
            <DistanceMeters>16672.649160979</DistanceMeters>
          </Trackpoint>
          <Trackpoint>
            <Time>2022-11-06T11:24:27.000Z</Time>
            <Position>
              <LatitudeDegrees>41.3524966500699520111083984375</LatitudeDegrees>
              <LongitudeDegrees>-1.656114868819713592529296875</LongitudeDegrees>
            </Position>
            <AltitudeMeters>633</AltitudeMeters>
            <DistanceMeters>16675.918963803</DistanceMeters>
          </Trackpoint>
          <Trackpoint>
            <Time>2022-11-06T11:24:28.000Z</Time>
            <Position>
              <LatitudeDegrees>41.35248399339616298675537109375</LatitudeDegrees>
              <LongitudeDegrees>-1.65615568868815898895263671875</LongitudeDegrees>
            </Position>
            <AltitudeMeters>633.4000244140625</AltitudeMeters>
            <DistanceMeters>16679.609133891</DistanceMeters>
          </Trackpoint>
          <Trackpoint>
            <Time>2022-11-06T11:24:29.000Z</Time>
            <Position>
              <LatitudeDegrees>41.35246739722788333892822265625</LatitudeDegrees>
              <LongitudeDegrees>-1.65620061568915843963623046875</LongitudeDegrees>
            </Position>
            <AltitudeMeters>634</AltitudeMeters>
            <DistanceMeters>16683.792468464</DistanceMeters>
          </Trackpoint>
          <Trackpoint>
            <Time>2022-11-06T11:24:30.000Z</Time>
            <Position>
              <LatitudeDegrees>41.3524480350315570831298828125</LatitudeDegrees>
              <LongitudeDegrees>-1.6562350653111934661865234375</LongitudeDegrees>
            </Position>
            <AltitudeMeters>634.20001220703125</AltitudeMeters>
            <DistanceMeters>16687.388448089</DistanceMeters>
          </Trackpoint>
          <Trackpoint>
            <Time>2022-11-06T11:24:31.000Z</Time>
            <Position>
              <LatitudeDegrees>41.35242682881653308868408203125</LatitudeDegrees>
              <LongitudeDegrees>-1.656260378658771514892578125</LongitudeDegrees>
            </Position>
            <AltitudeMeters>634.4000244140625</AltitudeMeters>
            <DistanceMeters>16690.557272005</DistanceMeters>
          </Trackpoint>
          <Trackpoint>
            <Time>2022-11-06T11:24:32.000Z</Time>
            <Position>
              <LatitudeDegrees>41.35239866562187671661376953125</LatitudeDegrees>
              <LongitudeDegrees>-1.65629717521369457244873046875</LongitudeDegrees>
            </Position>
            <AltitudeMeters>634.4000244140625</AltitudeMeters>
            <DistanceMeters>16694.947053677</DistanceMeters>
          </Trackpoint>
          <Trackpoint>
            <Time>2022-11-06T11:24:33.000Z</Time>
            <Position>
              <LatitudeDegrees>41.3523605279624462127685546875</LatitudeDegrees>
              <LongitudeDegrees>-1.65635325014591217041015625</LongitudeDegrees>
            </Position>
            <AltitudeMeters>634.4000244140625</AltitudeMeters>
            <DistanceMeters>16701.269008939</DistanceMeters>
          </Trackpoint>
          <Trackpoint>
            <Time>2022-11-06T11:24:34.000Z</Time>
            <Position>
              <LatitudeDegrees>41.35233194567263126373291015625</LatitudeDegrees>
              <LongitudeDegrees>-1.6563946567475795745849609375</LongitudeDegrees>
            </Position>
            <AltitudeMeters>634.20001220703125</AltitudeMeters>
            <DistanceMeters>16705.967789303</DistanceMeters>
          </Trackpoint>
          <Trackpoint>
            <Time>2022-11-06T11:24:35.000Z</Time>
            <Position>
              <LatitudeDegrees>41.3522911258041858673095703125</LatitudeDegrees>
              <LongitudeDegrees>-1.65646280162036418914794921875</LongitudeDegrees>
            </Position>
            <AltitudeMeters>633.79998779296875</AltitudeMeters>
            <DistanceMeters>16713.252068896</DistanceMeters>
          </Trackpoint>
          <Trackpoint>
            <Time>2022-11-06T11:24:36.000Z</Time>
            <Position>
              <LatitudeDegrees>41.35225499980151653289794921875</LatitudeDegrees>
              <LongitudeDegrees>-1.65652097202837467193603515625</LongitudeDegrees>
            </Position>
            <AltitudeMeters>633.5999755859375</AltitudeMeters>
            <DistanceMeters>16719.559724309</DistanceMeters>
          </Trackpoint>
          <Trackpoint>
            <Time>2022-11-06T11:24:37.000Z</Time>
            <Position>
              <LatitudeDegrees>41.35222457349300384521484375</LatitudeDegrees>
              <LongitudeDegrees>-1.65656623430550098419189453125</LongitudeDegrees>
            </Position>
            <AltitudeMeters>633.4000244140625</AltitudeMeters>
            <DistanceMeters>16724.636321414</DistanceMeters>
          </Trackpoint>
          <Trackpoint>
            <Time>2022-11-06T11:24:38.000Z</Time>
            <Position>
              <LatitudeDegrees>41.35217788629233837127685546875</LatitudeDegrees>
              <LongitudeDegrees>-1.65663027204573154449462890625</LongitudeDegrees>
            </Position>
            <AltitudeMeters>633.4000244140625</AltitudeMeters>
            <DistanceMeters>16732.09455652</DistanceMeters>
          </Trackpoint>
          <Trackpoint>
            <Time>2022-11-06T11:24:39.000Z</Time>
            <Position>
              <LatitudeDegrees>41.35214201174676418304443359375</LatitudeDegrees>
              <LongitudeDegrees>-1.65666748769581317901611328125</LongitudeDegrees>
            </Position>
            <AltitudeMeters>633.20001220703125</AltitudeMeters>
            <DistanceMeters>16737.155119413</DistanceMeters>
          </Trackpoint>
          <Trackpoint>
            <Time>2022-11-06T11:24:40.000Z</Time>
            <Position>
              <LatitudeDegrees>41.35208115912973880767822265625</LatitudeDegrees>
              <LongitudeDegrees>-1.656719036400318145751953125</LongitudeDegrees>
            </Position>
            <AltitudeMeters>633</AltitudeMeters>
            <DistanceMeters>16745.181361707</DistanceMeters>
          </Trackpoint>
          <Trackpoint>
            <Time>2022-11-06T11:24:41.000Z</Time>
            <Position>
              <LatitudeDegrees>41.3520363159477710723876953125</LatitudeDegrees>
              <LongitudeDegrees>-1.65675650350749492645263671875</LongitudeDegrees>
            </Position>
            <AltitudeMeters>632.79998779296875</AltitudeMeters>
            <DistanceMeters>16751.073017998</DistanceMeters>
          </Trackpoint>
          <Trackpoint>
            <Time>2022-11-06T11:24:42.000Z</Time>
            <Position>
              <LatitudeDegrees>41.35197387076914310455322265625</LatitudeDegrees>
              <LongitudeDegrees>-1.65680679492652416229248046875</LongitudeDegrees>
            </Position>
            <AltitudeMeters>632.20001220703125</AltitudeMeters>
            <DistanceMeters>16759.194328135</DistanceMeters>
          </Trackpoint>
          <Trackpoint>
            <Time>2022-11-06T11:24:43.000Z</Time>
            <Position>
              <LatitudeDegrees>41.35191234759986400604248046875</LatitudeDegrees>
              <LongitudeDegrees>-1.656872928142547607421875</LongitudeDegrees>
            </Position>
            <AltitudeMeters>631.79998779296875</AltitudeMeters>
            <DistanceMeters>16767.993411919</DistanceMeters>
          </Trackpoint>
          <Trackpoint>
            <Time>2022-11-06T11:24:44.000Z</Time>
            <Position>
              <LatitudeDegrees>41.3518522493541240692138671875</LatitudeDegrees>
              <LongitudeDegrees>-1.65697393007576465606689453125</LongitudeDegrees>
            </Position>
            <AltitudeMeters>631.4000244140625</AltitudeMeters>
            <DistanceMeters>16778.762081367</DistanceMeters>
          </Trackpoint>
          <Trackpoint>
            <Time>2022-11-06T11:24:45.000Z</Time>
            <Position>
              <LatitudeDegrees>41.351828612387180328369140625</LatitudeDegrees>
              <LongitudeDegrees>-1.6570521332323551177978515625</LongitudeDegrees>
            </Position>
            <AltitudeMeters>631</AltitudeMeters>
            <DistanceMeters>16785.806247042</DistanceMeters>
          </Trackpoint>
          <Trackpoint>
            <Time>2022-11-06T11:24:46.000Z</Time>
            <Position>
              <LatitudeDegrees>41.3518093340098857879638671875</LatitudeDegrees>
              <LongitudeDegrees>-1.6571473516523838043212890625</LongitudeDegrees>
            </Position>
            <AltitudeMeters>630.79998779296875</AltitudeMeters>
            <DistanceMeters>16794.045671458</DistanceMeters>
          </Trackpoint>
          <Trackpoint>
            <Time>2022-11-06T11:24:47.000Z</Time>
            <Position>
              <LatitudeDegrees>41.3518002815544605255126953125</LatitudeDegrees>
              <LongitudeDegrees>-1.65722052566707134246826171875</LongitudeDegrees>
            </Position>
            <AltitudeMeters>630.5999755859375</AltitudeMeters>
            <DistanceMeters>16800.241384086</DistanceMeters>
          </Trackpoint>
          <Trackpoint>
            <Time>2022-11-06T11:24:48.000Z</Time>
            <Position>
              <LatitudeDegrees>41.35178946889936923980712890625</LatitudeDegrees>
              <LongitudeDegrees>-1.6572764329612255096435546875</LongitudeDegrees>
            </Position>
            <AltitudeMeters>630.5999755859375</AltitudeMeters>
            <DistanceMeters>16805.064399421</DistanceMeters>
          </Trackpoint>
          <Trackpoint>
            <Time>2022-11-06T11:24:49.000Z</Time>
            <Position>
              <LatitudeDegrees>41.35177806951105594635009765625</LatitudeDegrees>
              <LongitudeDegrees>-1.65731624700129032135009765625</LongitudeDegrees>
            </Position>
            <AltitudeMeters>630.5999755859375</AltitudeMeters>
            <DistanceMeters>16808.625049267</DistanceMeters>
          </Trackpoint>
          <Trackpoint>
            <Time>2022-11-06T11:24:50.000Z</Time>
            <Position>
              <LatitudeDegrees>41.35176532901823520660400390625</LatitudeDegrees>
              <LongitudeDegrees>-1.65734491311013698577880859375</LongitudeDegrees>
            </Position>
            <AltitudeMeters>631.79998779296875</AltitudeMeters>
            <DistanceMeters>16811.408537293</DistanceMeters>
          </Trackpoint>
          <Trackpoint>
            <Time>2022-11-06T11:24:51.000Z</Time>
            <Position>
              <LatitudeDegrees>41.351754181087017059326171875</LatitudeDegrees>
              <LongitudeDegrees>-1.6573651134967803955078125</LongitudeDegrees>
            </Position>
            <AltitudeMeters>632.5999755859375</AltitudeMeters>
            <DistanceMeters>16813.503439952</DistanceMeters>
          </Trackpoint>
          <Trackpoint>
            <Time>2022-11-06T11:24:52.000Z</Time>
            <Position>
              <LatitudeDegrees>41.35174102149903774261474609375</LatitudeDegrees>
              <LongitudeDegrees>-1.65739168412983417510986328125</LongitudeDegrees>
            </Position>
            <AltitudeMeters>633</AltitudeMeters>
            <DistanceMeters>16816.162490507</DistanceMeters>
          </Trackpoint>
          <Trackpoint>
            <Time>2022-11-06T11:24:53.000Z</Time>
            <Position>
              <LatitudeDegrees>41.351731717586517333984375</LatitudeDegrees>
              <LongitudeDegrees>-1.65741012431681156158447265625</LongitudeDegrees>
            </Position>
            <AltitudeMeters>633.20001220703125</AltitudeMeters>
            <DistanceMeters>16818.019770562</DistanceMeters>
          </Trackpoint>
          <Trackpoint>
            <Time>2022-11-06T11:24:54.000Z</Time>
            <Position>
              <LatitudeDegrees>41.351717971265316009521484375</LatitudeDegrees>
              <LongitudeDegrees>-1.6574346832931041717529296875</LongitudeDegrees>
            </Position>
            <AltitudeMeters>633.4000244140625</AltitudeMeters>
            <DistanceMeters>16820.580207145</DistanceMeters>
          </Trackpoint>
          <Trackpoint>
            <Time>2022-11-06T11:24:56.000Z</Time>
            <Position>
              <LatitudeDegrees>41.3516886346042156219482421875</LatitudeDegrees>
              <LongitudeDegrees>-1.65748740546405315399169921875</LongitudeDegrees>
            </Position>
            <AltitudeMeters>633.5999755859375</AltitudeMeters>
            <DistanceMeters>16826.063833186</DistanceMeters>
          </Trackpoint>
          <Trackpoint>
            <Time>2022-11-06T11:24:57.000Z</Time>
            <Position>
              <LatitudeDegrees>41.35167497210204601287841796875</LatitudeDegrees>
              <LongitudeDegrees>-1.65751405991613864898681640625</LongitudeDegrees>
            </Position>
            <AltitudeMeters>633.79998779296875</AltitudeMeters>
            <DistanceMeters>16828.761654829</DistanceMeters>
          </Trackpoint>
          <Trackpoint>
            <Time>2022-11-06T11:25:00.000Z</Time>
            <Position>
              <LatitudeDegrees>41.35163708589971065521240234375</LatitudeDegrees>
              <LongitudeDegrees>-1.65760181844234466552734375</LongitudeDegrees>
            </Position>
            <AltitudeMeters>634.20001220703125</AltitudeMeters>
            <DistanceMeters>16837.220100056</DistanceMeters>
          </Trackpoint>
          <Trackpoint>
            <Time>2022-11-06T11:25:04.000Z</Time>
            <Position>
              <LatitudeDegrees>41.35159467346966266632080078125</LatitudeDegrees>
              <LongitudeDegrees>-1.6577018983662128448486328125</LongitudeDegrees>
            </Position>
            <AltitudeMeters>634.79998779296875</AltitudeMeters>
            <DistanceMeters>16846.822031138</DistanceMeters>
          </Trackpoint>
          <Trackpoint>
            <Time>2022-11-06T11:25:05.000Z</Time>
            <Position>
              <LatitudeDegrees>41.35158327408134937286376953125</LatitudeDegrees>
              <LongitudeDegrees>-1.65772176347672939300537109375</LongitudeDegrees>
            </Position>
            <AltitudeMeters>635</AltitudeMeters>
            <DistanceMeters>16848.912618854</DistanceMeters>
          </Trackpoint>
          <Trackpoint>
            <Time>2022-11-06T11:25:06.000Z</Time>
            <Position>
              <LatitudeDegrees>41.35157204233109951019287109375</LatitudeDegrees>
              <LongitudeDegrees>-1.65773919783532619476318359375</LongitudeDegrees>
            </Position>
            <AltitudeMeters>635.4000244140625</AltitudeMeters>
            <DistanceMeters>16850.832064396</DistanceMeters>
          </Trackpoint>
          <Trackpoint>
            <Time>2022-11-06T11:25:07.000Z</Time>
            <Position>
              <LatitudeDegrees>41.35156064294278621673583984375</LatitudeDegrees>
              <LongitudeDegrees>-1.65775445289909839630126953125</LongitudeDegrees>
            </Position>
            <AltitudeMeters>635.5999755859375</AltitudeMeters>
            <DistanceMeters>16852.632563616</DistanceMeters>
          </Trackpoint>
          <Trackpoint>
            <Time>2022-11-06T11:25:08.000Z</Time>
            <Position>
              <LatitudeDegrees>41.35155024938285350799560546875</LatitudeDegrees>
              <LongitudeDegrees>-1.65777121670544147491455078125</LongitudeDegrees>
            </Position>
            <AltitudeMeters>635.79998779296875</AltitudeMeters>
            <DistanceMeters>16854.450531707</DistanceMeters>
          </Trackpoint>
          <Trackpoint>
            <Time>2022-11-06T11:25:09.000Z</Time>
            <Position>
              <LatitudeDegrees>41.35154320858418941497802734375</LatitudeDegrees>
              <LongitudeDegrees>-1.65778395719826221466064453125</LongitudeDegrees>
            </Position>
            <AltitudeMeters>636.20001220703125</AltitudeMeters>
            <DistanceMeters>16855.774100681</DistanceMeters>
          </Trackpoint>
          <Trackpoint>
            <Time>2022-11-06T11:25:10.000Z</Time>
            <Position>
              <LatitudeDegrees>41.3515377603471279144287109375</LatitudeDegrees>
              <LongitudeDegrees>-1.6577947698533535003662109375</LongitudeDegrees>
            </Position>
            <AltitudeMeters>636.4000244140625</AltitudeMeters>
            <DistanceMeters>16856.857571926</DistanceMeters>
          </Trackpoint>
          <Trackpoint>
            <Time>2022-11-06T11:25:11.000Z</Time>
            <Position>
              <LatitudeDegrees>41.35152828879654407501220703125</LatitudeDegrees>
              <LongitudeDegrees>-1.6578078456223011016845703125</LongitudeDegrees>
            </Position>
            <AltitudeMeters>636.5999755859375</AltitudeMeters>
            <DistanceMeters>16858.377999356</DistanceMeters>
          </Trackpoint>
          <Trackpoint>
            <Time>2022-11-06T11:25:12.000Z</Time>
            <Position>
              <LatitudeDegrees>41.351510770618915557861328125</LatitudeDegrees>
              <LongitudeDegrees>-1.6578232683241367340087890625</LongitudeDegrees>
            </Position>
            <AltitudeMeters>637</AltitudeMeters>
            <DistanceMeters>16860.715347479</DistanceMeters>
          </Trackpoint>
          <Trackpoint>
            <Time>2022-11-06T11:25:13.000Z</Time>
            <Position>
              <LatitudeDegrees>41.35149543173611164093017578125</LatitudeDegrees>
              <LongitudeDegrees>-1.65783626027405261993408203125</LongitudeDegrees>
            </Position>
            <AltitudeMeters>637.20001220703125</AltitudeMeters>
            <DistanceMeters>16862.740107886</DistanceMeters>
          </Trackpoint>
          <Trackpoint>
            <Time>2022-11-06T11:25:14.000Z</Time>
            <Position>
              <LatitudeDegrees>41.35148151777684688568115234375</LatitudeDegrees>
              <LongitudeDegrees>-1.6578524373471736907958984375</LongitudeDegrees>
            </Position>
            <AltitudeMeters>637.5999755859375</AltitudeMeters>
            <DistanceMeters>16864.795850033</DistanceMeters>
          </Trackpoint>
          <Trackpoint>
            <Time>2022-11-06T11:25:15.000Z</Time>
            <Position>
              <LatitudeDegrees>41.3514700345695018768310546875</LatitudeDegrees>
              <LongitudeDegrees>-1.65786861442029476165771484375</LongitudeDegrees>
            </Position>
            <AltitudeMeters>638</AltitudeMeters>
            <DistanceMeters>16866.655559494</DistanceMeters>
          </Trackpoint>
          <Trackpoint>
            <Time>2022-11-06T11:25:16.000Z</Time>
            <Position>
              <LatitudeDegrees>41.35146014392375946044921875</LatitudeDegrees>
              <LongitudeDegrees>-1.6578869707882404327392578125</LongitudeDegrees>
            </Position>
            <AltitudeMeters>638.4000244140625</AltitudeMeters>
            <DistanceMeters>16868.541785917</DistanceMeters>
          </Trackpoint>
          <Trackpoint>
            <Time>2022-11-06T11:25:17.000Z</Time>
            <Position>
              <LatitudeDegrees>41.35145100764930248260498046875</LatitudeDegrees>
              <LongitudeDegrees>-1.657906584441661834716796875</LongitudeDegrees>
            </Position>
            <AltitudeMeters>638.5999755859375</AltitudeMeters>
            <DistanceMeters>16870.470617557</DistanceMeters>
          </Trackpoint>
          <Trackpoint>
            <Time>2022-11-06T11:25:18.000Z</Time>
            <Position>
              <LatitudeDegrees>41.35144128464162349700927734375</LatitudeDegrees>
              <LongitudeDegrees>-1.657923348248004913330078125</LongitudeDegrees>
            </Position>
            <AltitudeMeters>638.79998779296875</AltitudeMeters>
            <DistanceMeters>16872.243317927</DistanceMeters>
          </Trackpoint>
          <Trackpoint>
            <Time>2022-11-06T11:25:19.000Z</Time>
            <Position>
              <LatitudeDegrees>41.35143457911908626556396484375</LatitudeDegrees>
              <LongitudeDegrees>-1.65794572792947292327880859375</LongitudeDegrees>
            </Position>
            <AltitudeMeters>639</AltitudeMeters>
            <DistanceMeters>16874.25465436</DistanceMeters>
          </Trackpoint>
          <Trackpoint>
            <Time>2022-11-06T11:25:20.000Z</Time>
            <Position>
              <LatitudeDegrees>41.35143089108169078826904296875</LatitudeDegrees>
              <LongitudeDegrees>-1.65797271765768527984619140625</LongitudeDegrees>
            </Position>
            <AltitudeMeters>639.4000244140625</AltitudeMeters>
            <DistanceMeters>16876.547143071</DistanceMeters>
          </Trackpoint>
          <Trackpoint>
            <Time>2022-11-06T11:25:21.000Z</Time>
            <Position>
              <LatitudeDegrees>41.35143608786165714263916015625</LatitudeDegrees>
              <LongitudeDegrees>-1.65800238959491252899169921875</LongitudeDegrees>
            </Position>
            <AltitudeMeters>639.5999755859375</AltitudeMeters>
            <DistanceMeters>16879.093433488</DistanceMeters>
          </Trackpoint>
          <Trackpoint>
            <Time>2022-11-06T11:25:22.000Z</Time>
            <Position>
              <LatitudeDegrees>41.35144312866032123565673828125</LatitudeDegrees>
              <LongitudeDegrees>-1.65802896022796630859375</LongitudeDegrees>
            </Position>
            <AltitudeMeters>639.5999755859375</AltitudeMeters>
            <DistanceMeters>16881.448102666</DistanceMeters>
          </Trackpoint>
          <Trackpoint>
            <Time>2022-11-06T11:25:23.000Z</Time>
            <Position>
              <LatitudeDegrees>41.35145838372409343719482421875</LatitudeDegrees>
              <LongitudeDegrees>-1.6580653376877307891845703125</LongitudeDegrees>
            </Position>
            <AltitudeMeters>639.79998779296875</AltitudeMeters>
            <DistanceMeters>16884.929246528</DistanceMeters>
          </Trackpoint>
          <Trackpoint>
            <Time>2022-11-06T11:25:24.000Z</Time>
            <Position>
              <LatitudeDegrees>41.35147531516849994659423828125</LatitudeDegrees>
              <LongitudeDegrees>-1.65809341706335544586181640625</LongitudeDegrees>
            </Position>
            <AltitudeMeters>639.79998779296875</AltitudeMeters>
            <DistanceMeters>16887.940259106</DistanceMeters>
          </Trackpoint>
          <Trackpoint>
            <Time>2022-11-06T11:25:25.000Z</Time>
            <Position>
              <LatitudeDegrees>41.3514911569654941558837890625</LatitudeDegrees>
              <LongitudeDegrees>-1.65811814367771148681640625</LongitudeDegrees>
            </Position>
            <AltitudeMeters>640</AltitudeMeters>
            <DistanceMeters>16890.656427815</DistanceMeters>
          </Trackpoint>
          <Trackpoint>
            <Time>2022-11-06T11:25:26.000Z</Time>
            <Position>
              <LatitudeDegrees>41.351507417857646942138671875</LatitudeDegrees>
              <LongitudeDegrees>-1.6581390984356403350830078125</LongitudeDegrees>
            </Position>
            <AltitudeMeters>640</AltitudeMeters>
            <DistanceMeters>16893.174187467</DistanceMeters>
          </Trackpoint>
          <Trackpoint>
            <Time>2022-11-06T11:25:27.000Z</Time>
            <Position>
              <LatitudeDegrees>41.351522840559482574462890625</LatitudeDegrees>
              <LongitudeDegrees>-1.658165417611598968505859375</LongitudeDegrees>
            </Position>
            <AltitudeMeters>640</AltitudeMeters>
            <DistanceMeters>16895.964156265</DistanceMeters>
          </Trackpoint>
          <Trackpoint>
            <Time>2022-11-06T11:25:28.000Z</Time>
            <Position>
              <LatitudeDegrees>41.3515323959290981292724609375</LatitudeDegrees>
              <LongitudeDegrees>-1.65819232352077960968017578125</LongitudeDegrees>
            </Position>
            <AltitudeMeters>640</AltitudeMeters>
            <DistanceMeters>16898.451243389</DistanceMeters>
          </Trackpoint>
          <Trackpoint>
            <Time>2022-11-06T11:25:29.000Z</Time>
            <Position>
              <LatitudeDegrees>41.35153952054679393768310546875</LatitudeDegrees>
              <LongitudeDegrees>-1.658215709030628204345703125</LongitudeDegrees>
            </Position>
            <AltitudeMeters>640.20001220703125</AltitudeMeters>
            <DistanceMeters>16900.559037879</DistanceMeters>
          </Trackpoint>
          <Trackpoint>
            <Time>2022-11-06T11:25:30.000Z</Time>
            <Position>
              <LatitudeDegrees>41.351543627679347991943359375</LatitudeDegrees>
              <LongitudeDegrees>-1.6582395136356353759765625</LongitudeDegrees>
            </Position>
            <AltitudeMeters>640.4000244140625</AltitudeMeters>
            <DistanceMeters>16902.601559682</DistanceMeters>
          </Trackpoint>
          <Trackpoint>
            <Time>2022-11-06T11:25:31.000Z</Time>
            <Position>
              <LatitudeDegrees>41.351543962955474853515625</LatitudeDegrees>
              <LongitudeDegrees>-1.658259294927120208740234375</LongitudeDegrees>
            </Position>
            <AltitudeMeters>640.5999755859375</AltitudeMeters>
            <DistanceMeters>16904.255679739</DistanceMeters>
          </Trackpoint>
          <Trackpoint>
            <Time>2022-11-06T11:25:32.000Z</Time>
            <Position>
              <LatitudeDegrees>41.351541616022586822509765625</LatitudeDegrees>
              <LongitudeDegrees>-1.6582745499908924102783203125</LongitudeDegrees>
            </Position>
            <AltitudeMeters>640.79998779296875</AltitudeMeters>
            <DistanceMeters>16905.555150514</DistanceMeters>
          </Trackpoint>
          <Trackpoint>
            <Time>2022-11-06T11:25:33.000Z</Time>
            <Position>
              <LatitudeDegrees>41.35153750889003276824951171875</LatitudeDegrees>
              <LongitudeDegrees>-1.6582906432449817657470703125</LongitudeDegrees>
            </Position>
            <AltitudeMeters>641.20001220703125</AltitudeMeters>
            <DistanceMeters>16906.977380145</DistanceMeters>
          </Trackpoint>
          <Trackpoint>
            <Time>2022-11-06T11:25:34.000Z</Time>
            <Position>
              <LatitudeDegrees>41.35153164155781269073486328125</LatitudeDegrees>
              <LongitudeDegrees>-1.65831000544130802154541015625</LongitudeDegrees>
            </Position>
            <AltitudeMeters>641.4000244140625</AltitudeMeters>
            <DistanceMeters>16908.724425032</DistanceMeters>
          </Trackpoint>
          <Trackpoint>
            <Time>2022-11-06T11:25:35.000Z</Time>
            <Position>
              <LatitudeDegrees>41.35152543894946575164794921875</LatitudeDegrees>
              <LongitudeDegrees>-1.6583255119621753692626953125</LongitudeDegrees>
            </Position>
            <AltitudeMeters>641.79998779296875</AltitudeMeters>
            <DistanceMeters>16910.193502386</DistanceMeters>
          </Trackpoint>
          <Trackpoint>
            <Time>2022-11-06T11:25:36.000Z</Time>
            <Position>
              <LatitudeDegrees>41.35151856578886508941650390625</LatitudeDegrees>
              <LongitudeDegrees>-1.65834319777786731719970703125</LongitudeDegrees>
            </Position>
            <AltitudeMeters>642.20001220703125</AltitudeMeters>
            <DistanceMeters>16911.858504929</DistanceMeters>
          </Trackpoint>
          <Trackpoint>
            <Time>2022-11-06T11:25:37.000Z</Time>
            <Position>
              <LatitudeDegrees>41.35150917805731296539306640625</LatitudeDegrees>
              <LongitudeDegrees>-1.65836264379322528839111328125</LongitudeDegrees>
            </Position>
            <AltitudeMeters>642.5999755859375</AltitudeMeters>
            <DistanceMeters>16913.787336569</DistanceMeters>
          </Trackpoint>
          <Trackpoint>
            <Time>2022-11-06T11:25:38.000Z</Time>
            <Position>
              <LatitudeDegrees>41.35150440037250518798828125</LatitudeDegrees>
              <LongitudeDegrees>-1.65838410146534442901611328125</LongitudeDegrees>
            </Position>
            <AltitudeMeters>643</AltitudeMeters>
            <DistanceMeters>16915.656732082</DistanceMeters>
          </Trackpoint>
          <Trackpoint>
            <Time>2022-11-06T11:25:39.000Z</Time>
            <Position>
              <LatitudeDegrees>41.3515023887157440185546875</LatitudeDegrees>
              <LongitudeDegrees>-1.65840757079422473907470703125</LongitudeDegrees>
            </Position>
            <AltitudeMeters>643.5999755859375</AltitudeMeters>
            <DistanceMeters>16917.627247971</DistanceMeters>
          </Trackpoint>
          <Trackpoint>
            <Time>2022-11-06T11:25:40.000Z</Time>
            <Position>
              <LatitudeDegrees>41.35149744339287281036376953125</LatitudeDegrees>
              <LongitudeDegrees>-1.65842919610440731048583984375</LongitudeDegrees>
            </Position>
            <AltitudeMeters>643.79998779296875</AltitudeMeters>
            <DistanceMeters>16919.515866566</DistanceMeters>
          </Trackpoint>
          <Trackpoint>
            <Time>2022-11-06T11:25:41.000Z</Time>
            <Position>
              <LatitudeDegrees>41.35149342007935047149658203125</LatitudeDegrees>
              <LongitudeDegrees>-1.658450402319431304931640625</LongitudeDegrees>
            </Position>
            <AltitudeMeters>644</AltitudeMeters>
            <DistanceMeters>16921.343741913</DistanceMeters>
          </Trackpoint>
          <Trackpoint>
            <Time>2022-11-06T11:25:42.000Z</Time>
            <Position>
              <LatitudeDegrees>41.35149040259420871734619140625</LatitudeDegrees>
              <LongitudeDegrees>-1.65847144089639186859130859375</LongitudeDegrees>
            </Position>
            <AltitudeMeters>644.20001220703125</AltitudeMeters>
            <DistanceMeters>16923.136702373</DistanceMeters>
          </Trackpoint>
          <Trackpoint>
            <Time>2022-11-06T11:25:43.000Z</Time>
            <Position>
              <LatitudeDegrees>41.351484619081020355224609375</LatitudeDegrees>
              <LongitudeDegrees>-1.65849256329238414764404296875</LongitudeDegrees>
            </Position>
            <AltitudeMeters>644.20001220703125</AltitudeMeters>
            <DistanceMeters>16925.018135329</DistanceMeters>
          </Trackpoint>
          <Trackpoint>
            <Time>2022-11-06T11:25:44.000Z</Time>
            <Position>
              <LatitudeDegrees>41.35147933848202228546142578125</LatitudeDegrees>
              <LongitudeDegrees>-1.65851485915482044219970703125</LongitudeDegrees>
            </Position>
            <AltitudeMeters>644.4000244140625</AltitudeMeters>
            <DistanceMeters>16926.970234778</DistanceMeters>
          </Trackpoint>
          <Trackpoint>
            <Time>2022-11-06T11:25:45.000Z</Time>
            <Position>
              <LatitudeDegrees>41.3514723815023899078369140625</LatitudeDegrees>
              <LongitudeDegrees>-1.65853966958820819854736328125</LongitudeDegrees>
            </Position>
            <AltitudeMeters>644.5999755859375</AltitudeMeters>
            <DistanceMeters>16929.184581524</DistanceMeters>
          </Trackpoint>
          <Trackpoint>
            <Time>2022-11-06T11:25:46.000Z</Time>
            <Position>
              <LatitudeDegrees>41.35146592743694782257080078125</LatitudeDegrees>
              <LongitudeDegrees>-1.6585640609264373779296875</LongitudeDegrees>
            </Position>
            <AltitudeMeters>644.79998779296875</AltitudeMeters>
            <DistanceMeters>16931.347352801</DistanceMeters>
          </Trackpoint>
          <Trackpoint>
            <Time>2022-11-06T11:25:47.000Z</Time>
            <Position>
              <LatitudeDegrees>41.35145955719053745269775390625</LatitudeDegrees>
              <LongitudeDegrees>-1.65857856161892414093017578125</LongitudeDegrees>
            </Position>
            <AltitudeMeters>645</AltitudeMeters>
            <DistanceMeters>16932.750405425</DistanceMeters>
          </Trackpoint>
          <Trackpoint>
            <Time>2022-11-06T11:25:48.000Z</Time>
            <Position>
              <LatitudeDegrees>41.35144731961190700531005859375</LatitudeDegrees>
              <LongitudeDegrees>-1.6586014442145824432373046875</LongitudeDegrees>
            </Position>
            <AltitudeMeters>645.20001220703125</AltitudeMeters>
            <DistanceMeters>16935.097392138</DistanceMeters>
          </Trackpoint>
          <Trackpoint>
            <Time>2022-11-06T11:25:49.000Z</Time>
            <Position>
              <LatitudeDegrees>41.35143625549972057342529296875</LatitudeDegrees>
              <LongitudeDegrees>-1.658620722591876983642578125</LongitudeDegrees>
            </Position>
            <AltitudeMeters>645.4000244140625</AltitudeMeters>
            <DistanceMeters>16937.126607468</DistanceMeters>
          </Trackpoint>
          <Trackpoint>
            <Time>2022-11-06T11:25:50.000Z</Time>
            <Position>
              <LatitudeDegrees>41.3514251075685024261474609375</LatitudeDegrees>
              <LongitudeDegrees>-1.65863974951207637786865234375</LongitudeDegrees>
            </Position>
            <AltitudeMeters>645.5999755859375</AltitudeMeters>
            <DistanceMeters>16939.14466705</DistanceMeters>
          </Trackpoint>
          <Trackpoint>
            <Time>2022-11-06T11:25:51.000Z</Time>
            <Position>
              <LatitudeDegrees>41.3514100201427936553955078125</LatitudeDegrees>
              <LongitudeDegrees>-1.65865249000489711761474609375</LongitudeDegrees>
            </Position>
            <AltitudeMeters>645.79998779296875</AltitudeMeters>
            <DistanceMeters>16941.133428846</DistanceMeters>
          </Trackpoint>
          <Trackpoint>
            <Time>2022-11-06T11:25:52.000Z</Time>
            <Position>
              <LatitudeDegrees>41.35139577090740203857421875</LatitudeDegrees>
              <LongitudeDegrees>-1.65866523049771785736083984375</LongitudeDegrees>
            </Position>
            <AltitudeMeters>646</AltitudeMeters>
            <DistanceMeters>16943.043442167</DistanceMeters>
          </Trackpoint>
          <Trackpoint>
            <Time>2022-11-06T11:25:53.000Z</Time>
            <Position>
              <LatitudeDegrees>41.3513825275003910064697265625</LatitudeDegrees>
              <LongitudeDegrees>-1.65868031792342662811279296875</LongitudeDegrees>
            </Position>
            <AltitudeMeters>646.20001220703125</AltitudeMeters>
            <DistanceMeters>16944.98161445</DistanceMeters>
          </Trackpoint>
          <Trackpoint>
            <Time>2022-11-06T11:25:54.000Z</Time>
            <Position>
              <LatitudeDegrees>41.35136802680790424346923828125</LatitudeDegrees>
              <LongitudeDegrees>-1.65869406424462795257568359375</LongitudeDegrees>
            </Position>
            <AltitudeMeters>646.4000244140625</AltitudeMeters>
            <DistanceMeters>16946.961274314</DistanceMeters>
          </Trackpoint>
          <Trackpoint>
            <Time>2022-11-06T11:25:55.000Z</Time>
            <Position>
              <LatitudeDegrees>41.35135193355381488800048828125</LatitudeDegrees>
              <LongitudeDegrees>-1.65870663709938526153564453125</LongitudeDegrees>
            </Position>
            <AltitudeMeters>646.5999755859375</AltitudeMeters>
            <DistanceMeters>16949.036689083</DistanceMeters>
          </Trackpoint>
          <Trackpoint>
            <Time>2022-11-06T11:25:56.000Z</Time>
            <Position>
              <LatitudeDegrees>41.3513372652232646942138671875</LatitudeDegrees>
              <LongitudeDegrees>-1.65872004814445972442626953125</LongitudeDegrees>
            </Position>
            <AltitudeMeters>646.79998779296875</AltitudeMeters>
            <DistanceMeters>16951.016348947</DistanceMeters>
          </Trackpoint>
          <Trackpoint>
            <Time>2022-11-06T11:25:57.000Z</Time>
            <Position>
              <LatitudeDegrees>41.35132561437785625457763671875</LatitudeDegrees>
              <LongitudeDegrees>-1.65873815305531024932861328125</LongitudeDegrees>
            </Position>
            <AltitudeMeters>646.79998779296875</AltitudeMeters>
            <DistanceMeters>16953.009646124</DistanceMeters>
          </Trackpoint>
          <Trackpoint>
            <Time>2022-11-06T11:25:58.000Z</Time>
            <Position>
              <LatitudeDegrees>41.35131455026566982269287109375</LatitudeDegrees>
              <LongitudeDegrees>-1.6587546654045581817626953125</LongitudeDegrees>
            </Position>
            <AltitudeMeters>646.79998779296875</AltitudeMeters>
            <DistanceMeters>16954.85717661</DistanceMeters>
          </Trackpoint>
          <Trackpoint>
            <Time>2022-11-06T11:25:59.000Z</Time>
            <Position>
              <LatitudeDegrees>41.3513027317821979522705078125</LatitudeDegrees>
              <LongitudeDegrees>-1.65877352468669414520263671875</LongitudeDegrees>
            </Position>
            <AltitudeMeters>647.20001220703125</AltitudeMeters>
            <DistanceMeters>16956.908521442</DistanceMeters>
          </Trackpoint>
          <Trackpoint>
            <Time>2022-11-06T11:26:00.000Z</Time>
            <Position>
              <LatitudeDegrees>41.3512899912893772125244140625</LatitudeDegrees>
              <LongitudeDegrees>-1.65879565291106700897216796875</LongitudeDegrees>
            </Position>
            <AltitudeMeters>647.4000244140625</AltitudeMeters>
            <DistanceMeters>16959.240067286</DistanceMeters>
          </Trackpoint>
          <Trackpoint>
            <Time>2022-11-06T11:26:01.000Z</Time>
            <Position>
              <LatitudeDegrees>41.351279430091381072998046875</LatitudeDegrees>
              <LongitudeDegrees>-1.65881644003093242645263671875</LongitudeDegrees>
            </Position>
            <AltitudeMeters>647.5999755859375</AltitudeMeters>
            <DistanceMeters>16961.339276019</DistanceMeters>
          </Trackpoint>
          <Trackpoint>
            <Time>2022-11-06T11:26:02.000Z</Time>
            <Position>
              <LatitudeDegrees>41.35127247311174869537353515625</LatitudeDegrees>
              <LongitudeDegrees>-1.6588411666452884674072265625</LongitudeDegrees>
            </Position>
            <AltitudeMeters>647.79998779296875</AltitudeMeters>
            <DistanceMeters>16963.545451715</DistanceMeters>
          </Trackpoint>
          <Trackpoint>
            <Time>2022-11-06T11:26:03.000Z</Time>
            <Position>
              <LatitudeDegrees>41.35126576758921146392822265625</LatitudeDegrees>
              <LongitudeDegrees>-1.65886606089770793914794921875</LongitudeDegrees>
            </Position>
            <AltitudeMeters>647.79998779296875</AltitudeMeters>
            <DistanceMeters>16965.755716712</DistanceMeters>
          </Trackpoint>
          <Trackpoint>
            <Time>2022-11-06T11:26:04.000Z</Time>
            <Position>
              <LatitudeDegrees>41.35125696659088134765625</LatitudeDegrees>
              <LongitudeDegrees>-1.658885590732097625732421875</LongitudeDegrees>
            </Position>
            <AltitudeMeters>648</AltitudeMeters>
            <DistanceMeters>16967.660996411</DistanceMeters>
          </Trackpoint>
          <Trackpoint>
            <Time>2022-11-06T11:26:05.000Z</Time>
            <Position>
              <LatitudeDegrees>41.351247914135456085205078125</LatitudeDegrees>
              <LongitudeDegrees>-1.6589082218706607818603515625</LongitudeDegrees>
            </Position>
            <AltitudeMeters>648</AltitudeMeters>
            <DistanceMeters>16969.802789779</DistanceMeters>
          </Trackpoint>
          <Trackpoint>
            <Time>2022-11-06T11:26:06.000Z</Time>
            <Position>
              <LatitudeDegrees>41.35123886168003082275390625</LatitudeDegrees>
              <LongitudeDegrees>-1.658933870494365692138671875</LongitudeDegrees>
            </Position>
            <AltitudeMeters>648</AltitudeMeters>
            <DistanceMeters>16972.172749177</DistanceMeters>
          </Trackpoint>
          <Trackpoint>
            <Time>2022-11-06T11:26:07.000Z</Time>
            <Position>
              <LatitudeDegrees>41.3512288033962249755859375</LatitudeDegrees>
              <LongitudeDegrees>-1.65896681137382984161376953125</LongitudeDegrees>
            </Position>
            <AltitudeMeters>648.20001220703125</AltitudeMeters>
            <DistanceMeters>16975.146037733</DistanceMeters>
          </Trackpoint>
          <Trackpoint>
            <Time>2022-11-06T11:26:08.000Z</Time>
            <Position>
              <LatitudeDegrees>41.35121480561792850494384765625</LatitudeDegrees>
              <LongitudeDegrees>-1.65900570340454578399658203125</LongitudeDegrees>
            </Position>
            <AltitudeMeters>648.20001220703125</AltitudeMeters>
            <DistanceMeters>16978.750795701</DistanceMeters>
          </Trackpoint>
          <Trackpoint>
            <Time>2022-11-06T11:26:09.000Z</Time>
            <Position>
              <LatitudeDegrees>41.3512019813060760498046875</LatitudeDegrees>
              <LongitudeDegrees>-1.6590470261871814727783203125</LongitudeDegrees>
            </Position>
            <AltitudeMeters>648.20001220703125</AltitudeMeters>
            <DistanceMeters>16982.487170706</DistanceMeters>
          </Trackpoint>
          <Trackpoint>
            <Time>2022-11-06T11:26:10.000Z</Time>
            <Position>
              <LatitudeDegrees>41.35118815116584300994873046875</LatitudeDegrees>
              <LongitudeDegrees>-1.6590939648449420928955078125</LongitudeDegrees>
            </Position>
            <AltitudeMeters>648.20001220703125</AltitudeMeters>
            <DistanceMeters>16986.700617073</DistanceMeters>
          </Trackpoint>
          <Trackpoint>
            <Time>2022-11-06T11:26:11.000Z</Time>
            <Position>
              <LatitudeDegrees>41.3511736504733562469482421875</LatitudeDegrees>
              <LongitudeDegrees>-1.65914149023592472076416015625</LongitudeDegrees>
            </Position>
            <AltitudeMeters>648</AltitudeMeters>
            <DistanceMeters>16990.987364741</DistanceMeters>
          </Trackpoint>
          <Trackpoint>
            <Time>2022-11-06T11:26:12.000Z</Time>
            <Position>
              <LatitudeDegrees>41.3511632569134235382080078125</LatitudeDegrees>
              <LongitudeDegrees>-1.65918993763625621795654296875</LongitudeDegrees>
            </Position>
            <AltitudeMeters>648</AltitudeMeters>
            <DistanceMeters>16995.197595145</DistanceMeters>
          </Trackpoint>
          <Trackpoint>
            <Time>2022-11-06T11:26:13.000Z</Time>
            <Position>
              <LatitudeDegrees>41.35115973651409149169921875</LatitudeDegrees>
              <LongitudeDegrees>-1.65923788212239742279052734375</LongitudeDegrees>
            </Position>
            <AltitudeMeters>647.79998779296875</AltitudeMeters>
            <DistanceMeters>16999.222512181</DistanceMeters>
          </Trackpoint>
          <Trackpoint>
            <Time>2022-11-06T11:26:14.000Z</Time>
            <Position>
              <LatitudeDegrees>41.35115730576217174530029296875</LatitudeDegrees>
              <LongitudeDegrees>-1.65928431786596775054931640625</LongitudeDegrees>
            </Position>
            <AltitudeMeters>647.79998779296875</AltitudeMeters>
            <DistanceMeters>17003.112808843</DistanceMeters>
          </Trackpoint>
          <Trackpoint>
            <Time>2022-11-06T11:26:15.000Z</Time>
            <Position>
              <LatitudeDegrees>41.35115596465766429901123046875</LatitudeDegrees>
              <LongitudeDegrees>-1.65932706557214260101318359375</LongitudeDegrees>
            </Position>
            <AltitudeMeters>647.79998779296875</AltitudeMeters>
            <DistanceMeters>17006.68737989</DistanceMeters>
          </Trackpoint>
          <Trackpoint>
            <Time>2022-11-06T11:26:16.000Z</Time>
            <Position>
              <LatitudeDegrees>41.35115328244864940643310546875</LatitudeDegrees>
              <LongitudeDegrees>-1.65936897508800029754638671875</LongitudeDegrees>
            </Position>
            <AltitudeMeters>648</AltitudeMeters>
            <DistanceMeters>17010.202083942</DistanceMeters>
          </Trackpoint>
          <Trackpoint>
            <Time>2022-11-06T11:26:17.000Z</Time>
            <Position>
              <LatitudeDegrees>41.35115210898220539093017578125</LatitudeDegrees>
              <LongitudeDegrees>-1.65940686129033565521240234375</LongitudeDegrees>
            </Position>
            <AltitudeMeters>648</AltitudeMeters>
            <DistanceMeters>17013.370907857</DistanceMeters>
          </Trackpoint>
          <Trackpoint>
            <Time>2022-11-06T11:26:18.000Z</Time>
            <Position>
              <LatitudeDegrees>41.35115160606801509857177734375</LatitudeDegrees>
              <LongitudeDegrees>-1.6594411432743072509765625</LongitudeDegrees>
            </Position>
            <AltitudeMeters>648.20001220703125</AltitudeMeters>
            <DistanceMeters>17016.235927837</DistanceMeters>
          </Trackpoint>
          <Trackpoint>
            <Time>2022-11-06T11:26:19.000Z</Time>
            <Position>
              <LatitudeDegrees>41.35115009732544422149658203125</LatitudeDegrees>
              <LongitudeDegrees>-1.659471653401851654052734375</LongitudeDegrees>
            </Position>
            <AltitudeMeters>648.4000244140625</AltitudeMeters>
            <DistanceMeters>17018.791068786</DistanceMeters>
          </Trackpoint>
          <Trackpoint>
            <Time>2022-11-06T11:26:20.000Z</Time>
            <Position>
              <LatitudeDegrees>41.35114758275449275970458984375</LatitudeDegrees>
              <LongitudeDegrees>-1.65949956513941287994384765625</LongitudeDegrees>
            </Position>
            <AltitudeMeters>648.4000244140625</AltitudeMeters>
            <DistanceMeters>17021.14189987</DistanceMeters>
          </Trackpoint>
          <Trackpoint>
            <Time>2022-11-06T11:26:21.000Z</Time>
            <Position>
              <LatitudeDegrees>41.351146996021270751953125</LatitudeDegrees>
              <LongitudeDegrees>-1.6595284827053546905517578125</LongitudeDegrees>
            </Position>
            <AltitudeMeters>648.79998779296875</AltitudeMeters>
            <DistanceMeters>17023.557149212</DistanceMeters>
          </Trackpoint>
          <Trackpoint>
            <Time>2022-11-06T11:26:22.000Z</Time>
            <Position>
              <LatitudeDegrees>41.351145319640636444091796875</LatitudeDegrees>
              <LongitudeDegrees>-1.65955488570034503936767578125</LongitudeDegrees>
            </Position>
            <AltitudeMeters>649.20001220703125</AltitudeMeters>
            <DistanceMeters>17025.769456024</DistanceMeters>
          </Trackpoint>
          <Trackpoint>
            <Time>2022-11-06T11:26:23.000Z</Time>
            <Position>
              <LatitudeDegrees>41.35114364326000213623046875</LatitudeDegrees>
              <LongitudeDegrees>-1.6595797799527645111083984375</LongitudeDegrees>
            </Position>
            <AltitudeMeters>649.5999755859375</AltitudeMeters>
            <DistanceMeters>17027.855719873</DistanceMeters>
          </Trackpoint>
          <Trackpoint>
            <Time>2022-11-06T11:26:24.000Z</Time>
            <Position>
              <LatitudeDegrees>41.351144649088382720947265625</LatitudeDegrees>
              <LongitudeDegrees>-1.659607775509357452392578125</LongitudeDegrees>
            </Position>
            <AltitudeMeters>650</AltitudeMeters>
            <DistanceMeters>17030.198855908</DistanceMeters>
          </Trackpoint>
          <Trackpoint>
            <Time>2022-11-06T11:26:25.000Z</Time>
            <Position>
              <LatitudeDegrees>41.35114632546901702880859375</LatitudeDegrees>
              <LongitudeDegrees>-1.65963216684758663177490234375</LongitudeDegrees>
            </Position>
            <AltitudeMeters>650.4000244140625</AltitudeMeters>
            <DistanceMeters>17032.24579398</DistanceMeters>
          </Trackpoint>
          <Trackpoint>
            <Time>2022-11-06T11:26:26.000Z</Time>
            <Position>
              <LatitudeDegrees>41.351146660745143890380859375</LatitudeDegrees>
              <LongitudeDegrees>-1.6596599109470844268798828125</LongitudeDegrees>
            </Position>
            <AltitudeMeters>650.5999755859375</AltitudeMeters>
            <DistanceMeters>17034.561796011</DistanceMeters>
          </Trackpoint>
          <Trackpoint>
            <Time>2022-11-06T11:26:27.000Z</Time>
            <Position>
              <LatitudeDegrees>41.35114808566868305206298828125</LatitudeDegrees>
              <LongitudeDegrees>-1.659691594541072845458984375</LongitudeDegrees>
            </Position>
            <AltitudeMeters>650.79998779296875</AltitudeMeters>
            <DistanceMeters>17037.212343025</DistanceMeters>
          </Trackpoint>
          <Trackpoint>
            <Time>2022-11-06T11:26:28.000Z</Time>
            <Position>
              <LatitudeDegrees>41.351152025163173675537109375</LatitudeDegrees>
              <LongitudeDegrees>-1.65972487069666385650634765625</LongitudeDegrees>
            </Position>
            <AltitudeMeters>651</AltitudeMeters>
            <DistanceMeters>17040.028085754</DistanceMeters>
          </Trackpoint>
          <Trackpoint>
            <Time>2022-11-06T11:26:29.000Z</Time>
            <Position>
              <LatitudeDegrees>41.3511548750102519989013671875</LatitudeDegrees>
              <LongitudeDegrees>-1.6597576439380645751953125</LongitudeDegrees>
            </Position>
            <AltitudeMeters>651.20001220703125</AltitudeMeters>
            <DistanceMeters>17042.787135308</DistanceMeters>
          </Trackpoint>
          <Trackpoint>
            <Time>2022-11-06T11:26:30.000Z</Time>
            <Position>
              <LatitudeDegrees>41.35115562938153743743896484375</LatitudeDegrees>
              <LongitudeDegrees>-1.65978807024657726287841796875</LongitudeDegrees>
            </Position>
            <AltitudeMeters>651.4000244140625</AltitudeMeters>
            <DistanceMeters>17045.331651924</DistanceMeters>
          </Trackpoint>
          <Trackpoint>
            <Time>2022-11-06T11:26:31.000Z</Time>
            <Position>
              <LatitudeDegrees>41.35116049088537693023681640625</LatitudeDegrees>
              <LongitudeDegrees>-1.65982226841151714324951171875</LongitudeDegrees>
            </Position>
            <AltitudeMeters>651.79998779296875</AltitudeMeters>
            <DistanceMeters>17048.23891035</DistanceMeters>
          </Trackpoint>
          <Trackpoint>
            <Time>2022-11-06T11:26:32.000Z</Time>
            <Position>
              <LatitudeDegrees>41.351165771484375</LatitudeDegrees>
              <LongitudeDegrees>-1.65985965169966220855712890625</LongitudeDegrees>
            </Position>
            <AltitudeMeters>652.20001220703125</AltitudeMeters>
            <DistanceMeters>17051.416271749</DistanceMeters>
          </Trackpoint>
          <Trackpoint>
            <Time>2022-11-06T11:26:33.000Z</Time>
            <Position>
              <LatitudeDegrees>41.35116820223629474639892578125</LatitudeDegrees>
              <LongitudeDegrees>-1.659892089664936065673828125</LongitudeDegrees>
            </Position>
            <AltitudeMeters>652.4000244140625</AltitudeMeters>
            <DistanceMeters>17054.14073919</DistanceMeters>
          </Trackpoint>
          <Trackpoint>
            <Time>2022-11-06T11:26:34.000Z</Time>
            <Position>
              <LatitudeDegrees>41.3511696271598339080810546875</LatitudeDegrees>
              <LongitudeDegrees>-1.65992151014506816864013671875</LongitudeDegrees>
            </Position>
            <AltitudeMeters>652.5999755859375</AltitudeMeters>
            <DistanceMeters>17056.602279621</DistanceMeters>
          </Trackpoint>
          <Trackpoint>
            <Time>2022-11-06T11:26:35.000Z</Time>
            <Position>
              <LatitudeDegrees>41.35117339901626110076904296875</LatitudeDegrees>
              <LongitudeDegrees>-1.6599546186625957489013671875</LongitudeDegrees>
            </Position>
            <AltitudeMeters>652.5999755859375</AltitudeMeters>
            <DistanceMeters>17059.40194145</DistanceMeters>
          </Trackpoint>
          <Trackpoint>
            <Time>2022-11-06T11:26:36.000Z</Time>
            <Position>
              <LatitudeDegrees>41.351175494492053985595703125</LatitudeDegrees>
              <LongitudeDegrees>-1.6599851287901401519775390625</LongitudeDegrees>
            </Position>
            <AltitudeMeters>652.79998779296875</AltitudeMeters>
            <DistanceMeters>17061.962378033</DistanceMeters>
          </Trackpoint>
          <Trackpoint>
            <Time>2022-11-06T11:26:37.000Z</Time>
            <Position>
              <LatitudeDegrees>41.3511756621301174163818359375</LatitudeDegrees>
              <LongitudeDegrees>-1.66001840494573116302490234375</LongitudeDegrees>
            </Position>
            <AltitudeMeters>652.79998779296875</AltitudeMeters>
            <DistanceMeters>17064.742620008</DistanceMeters>
          </Trackpoint>
          <Trackpoint>
            <Time>2022-11-06T11:26:38.000Z</Time>
            <Position>
              <LatitudeDegrees>41.35117591358721256256103515625</LatitudeDegrees>
              <LongitudeDegrees>-1.66005142964422702789306640625</LongitudeDegrees>
            </Position>
            <AltitudeMeters>653</AltitudeMeters>
            <DistanceMeters>17067.501669562</DistanceMeters>
          </Trackpoint>
          <Trackpoint>
            <Time>2022-11-06T11:26:39.000Z</Time>
            <Position>
              <LatitudeDegrees>41.3511765003204345703125</LatitudeDegrees>
              <LongitudeDegrees>-1.66008126921951770782470703125</LongitudeDegrees>
            </Position>
            <AltitudeMeters>653.20001220703125</AltitudeMeters>
            <DistanceMeters>17069.996007684</DistanceMeters>
          </Trackpoint>
          <Trackpoint>
            <Time>2022-11-06T11:26:40.000Z</Time>
            <Position>
              <LatitudeDegrees>41.3511763326823711395263671875</LatitudeDegrees>
              <LongitudeDegrees>-1.66011529974639415740966796875</LongitudeDegrees>
            </Position>
            <AltitudeMeters>653.20001220703125</AltitudeMeters>
            <DistanceMeters>17072.840466947</DistanceMeters>
          </Trackpoint>
          <Trackpoint>
            <Time>2022-11-06T11:26:41.000Z</Time>
            <Position>
              <LatitudeDegrees>41.35117809288203716278076171875</LatitudeDegrees>
              <LongitudeDegrees>-1.66015301831066608428955078125</LongitudeDegrees>
            </Position>
            <AltitudeMeters>653.4000244140625</AltitudeMeters>
            <DistanceMeters>17075.997871639</DistanceMeters>
          </Trackpoint>
          <Trackpoint>
            <Time>2022-11-06T11:26:42.000Z</Time>
            <Position>
              <LatitudeDegrees>41.3511806912720203399658203125</LatitudeDegrees>
              <LongitudeDegrees>-1.6601936705410480499267578125</LongitudeDegrees>
            </Position>
            <AltitudeMeters>653.4000244140625</AltitudeMeters>
            <DistanceMeters>17079.405609644</DistanceMeters>
          </Trackpoint>
          <Trackpoint>
            <Time>2022-11-06T11:26:43.000Z</Time>
            <Position>
              <LatitudeDegrees>41.3511837087571620941162109375</LatitudeDegrees>
              <LongitudeDegrees>-1.660234071314334869384765625</LongitudeDegrees>
            </Position>
            <AltitudeMeters>653.5999755859375</AltitudeMeters>
            <DistanceMeters>17082.79741114</DistanceMeters>
          </Trackpoint>
          <Trackpoint>
            <Time>2022-11-06T11:26:44.000Z</Time>
            <Position>
              <LatitudeDegrees>41.3511813618242740631103515625</LatitudeDegrees>
              <LongitudeDegrees>-1.66027338244020938873291015625</LongitudeDegrees>
            </Position>
            <AltitudeMeters>653.79998779296875</AltitudeMeters>
            <DistanceMeters>17086.09197513</DistanceMeters>
          </Trackpoint>
          <Trackpoint>
            <Time>2022-11-06T11:26:45.000Z</Time>
            <Position>
              <LatitudeDegrees>41.35118278674781322479248046875</LatitudeDegrees>
              <LongitudeDegrees>-1.66031143628060817718505859375</LongitudeDegrees>
            </Position>
            <AltitudeMeters>653.79998779296875</AltitudeMeters>
            <DistanceMeters>17089.275015465</DistanceMeters>
          </Trackpoint>
          <Trackpoint>
            <Time>2022-11-06T11:26:46.000Z</Time>
            <Position>
              <LatitudeDegrees>41.351180858910083770751953125</LatitudeDegrees>
              <LongitudeDegrees>-1.66035116650164127349853515625</LongitudeDegrees>
            </Position>
            <AltitudeMeters>654</AltitudeMeters>
            <DistanceMeters>17092.599592666</DistanceMeters>
          </Trackpoint>
          <Trackpoint>
            <Time>2022-11-06T11:26:47.000Z</Time>
            <Position>
              <LatitudeDegrees>41.35118119418621063232421875</LatitudeDegrees>
              <LongitudeDegrees>-1.66038854978978633880615234375</LongitudeDegrees>
            </Position>
            <AltitudeMeters>654.20001220703125</AltitudeMeters>
            <DistanceMeters>17095.722489167</DistanceMeters>
          </Trackpoint>
          <Trackpoint>
            <Time>2022-11-06T11:26:48.000Z</Time>
            <Position>
              <LatitudeDegrees>41.3511833734810352325439453125</LatitudeDegrees>
              <LongitudeDegrees>-1.660424172878265380859375</LongitudeDegrees>
            </Position>
            <AltitudeMeters>654.20001220703125</AltitudeMeters>
            <DistanceMeters>17098.706388525</DistanceMeters>
          </Trackpoint>
          <Trackpoint>
            <Time>2022-11-06T11:26:49.000Z</Time>
            <Position>
              <LatitudeDegrees>41.3511880673468112945556640625</LatitudeDegrees>
              <LongitudeDegrees>-1.66046231053769588470458984375</LongitudeDegrees>
            </Position>
            <AltitudeMeters>654.4000244140625</AltitudeMeters>
            <DistanceMeters>17101.9345007</DistanceMeters>
          </Trackpoint>
          <Trackpoint>
            <Time>2022-11-06T11:26:50.000Z</Time>
            <Position>
              <LatitudeDegrees>41.3511977903544902801513671875</LatitudeDegrees>
              <LongitudeDegrees>-1.66049986146390438079833984375</LongitudeDegrees>
            </Position>
            <AltitudeMeters>654.4000244140625</AltitudeMeters>
            <DistanceMeters>17105.25364114</DistanceMeters>
          </Trackpoint>
          <Trackpoint>
            <Time>2022-11-06T11:26:51.000Z</Time>
            <Position>
              <LatitudeDegrees>41.35120877064764499664306640625</LatitudeDegrees>
              <LongitudeDegrees>-1.66053724475204944610595703125</LongitudeDegrees>
            </Position>
            <AltitudeMeters>654.5999755859375</AltitudeMeters>
            <DistanceMeters>17108.60661671</DistanceMeters>
          </Trackpoint>
          <Trackpoint>
            <Time>2022-11-06T11:26:52.000Z</Time>
            <Position>
              <LatitudeDegrees>41.35122084058821201324462890625</LatitudeDegrees>
              <LongitudeDegrees>-1.66057077236473560333251953125</LongitudeDegrees>
            </Position>
            <AltitudeMeters>654.5999755859375</AltitudeMeters>
            <DistanceMeters>17111.712115324</DistanceMeters>
          </Trackpoint>
          <Trackpoint>
            <Time>2022-11-06T11:26:53.000Z</Time>
            <Position>
              <LatitudeDegrees>41.3512353412806987762451171875</LatitudeDegrees>
              <LongitudeDegrees>-1.66060564108192920684814453125</LongitudeDegrees>
            </Position>
            <AltitudeMeters>654.79998779296875</AltitudeMeters>
            <DistanceMeters>17115.04212041</DistanceMeters>
          </Trackpoint>
          <Trackpoint>
            <Time>2022-11-06T11:26:54.000Z</Time>
            <Position>
              <LatitudeDegrees>41.351248584687709808349609375</LatitudeDegrees>
              <LongitudeDegrees>-1.66064235381782054901123046875</LongitudeDegrees>
            </Position>
            <AltitudeMeters>655.20001220703125</AltitudeMeters>
            <DistanceMeters>17118.445881283</DistanceMeters>
          </Trackpoint>
          <Trackpoint>
            <Time>2022-11-06T11:26:55.000Z</Time>
            <Position>
              <LatitudeDegrees>41.3512611575424671173095703125</LatitudeDegrees>
              <LongitudeDegrees>-1.6606741212308406829833984375</LongitudeDegrees>
            </Position>
            <AltitudeMeters>655.4000244140625</AltitudeMeters>
            <DistanceMeters>17121.444873803</DistanceMeters>
          </Trackpoint>
          <Trackpoint>
            <Time>2022-11-06T11:26:56.000Z</Time>
            <Position>
              <LatitudeDegrees>41.3512775860726833343505859375</LatitudeDegrees>
              <LongitudeDegrees>-1.66069599799811840057373046875</LongitudeDegrees>
            </Position>
            <AltitudeMeters>655.5999755859375</AltitudeMeters>
            <DistanceMeters>17124.031625945</DistanceMeters>
          </Trackpoint>
          <Trackpoint>
            <Time>2022-11-06T11:26:57.000Z</Time>
            <Position>
              <LatitudeDegrees>41.351296193897724151611328125</LatitudeDegrees>
              <LongitudeDegrees>-1.66071443818509578704833984375</LongitudeDegrees>
            </Position>
            <AltitudeMeters>655.79998779296875</AltitudeMeters>
            <DistanceMeters>17126.613136437</DistanceMeters>
          </Trackpoint>
          <Trackpoint>
            <Time>2022-11-06T11:26:58.000Z</Time>
            <Position>
              <LatitudeDegrees>41.351313292980194091796875</LatitudeDegrees>
              <LongitudeDegrees>-1.66071829386055469512939453125</LongitudeDegrees>
            </Position>
            <AltitudeMeters>656.20001220703125</AltitudeMeters>
            <DistanceMeters>17128.541968076</DistanceMeters>
          </Trackpoint>
          <Trackpoint>
            <Time>2022-11-06T11:26:59.000Z</Time>
            <Position>
              <LatitudeDegrees>41.3513255305588245391845703125</LatitudeDegrees>
              <LongitudeDegrees>-1.6607066430151462554931640625</LongitudeDegrees>
            </Position>
            <AltitudeMeters>656.4000244140625</AltitudeMeters>
            <DistanceMeters>17130.215086033</DistanceMeters>
          </Trackpoint>
          <Trackpoint>
            <Time>2022-11-06T11:27:00.000Z</Time>
            <Position>
              <LatitudeDegrees>41.3513312302529811859130859375</LatitudeDegrees>
              <LongitudeDegrees>-1.66068728081881999969482421875</LongitudeDegrees>
            </Position>
            <AltitudeMeters>656.4000244140625</AltitudeMeters>
            <DistanceMeters>17131.954360482</DistanceMeters>
          </Trackpoint>
          <Trackpoint>
            <Time>2022-11-06T11:27:01.000Z</Time>
            <Position>
              <LatitudeDegrees>41.3513369299471378326416015625</LatitudeDegrees>
              <LongitudeDegrees>-1.6606513224542140960693359375</LongitudeDegrees>
            </Position>
            <AltitudeMeters>656.5999755859375</AltitudeMeters>
            <DistanceMeters>17135.02476759</DistanceMeters>
          </Trackpoint>
          <Trackpoint>
            <Time>2022-11-06T11:27:02.000Z</Time>
            <Position>
              <LatitudeDegrees>41.351339779794216156005859375</LatitudeDegrees>
              <LongitudeDegrees>-1.6606020368635654449462890625</LongitudeDegrees>
            </Position>
            <AltitudeMeters>656.4000244140625</AltitudeMeters>
            <DistanceMeters>17139.153784946</DistanceMeters>
          </Trackpoint>
          <Trackpoint>
            <Time>2022-11-06T11:27:03.000Z</Time>
            <Position>
              <LatitudeDegrees>41.3513372652232646942138671875</LatitudeDegrees>
              <LongitudeDegrees>-1.66054277680814266204833984375</LongitudeDegrees>
            </Position>
            <AltitudeMeters>655.5999755859375</AltitudeMeters>
            <DistanceMeters>17144.113414794</DistanceMeters>
          </Trackpoint>
          <Trackpoint>
            <Time>2022-11-06T11:27:04.000Z</Time>
            <Position>
              <LatitudeDegrees>41.35132729075849056243896484375</LatitudeDegrees>
              <LongitudeDegrees>-1.66046415455639362335205078125</LongitudeDegrees>
            </Position>
            <AltitudeMeters>655</AltitudeMeters>
            <DistanceMeters>17150.776136145</DistanceMeters>
          </Trackpoint>
          <Trackpoint>
            <Time>2022-11-06T11:27:05.000Z</Time>
            <Position>
              <LatitudeDegrees>41.3513037376105785369873046875</LatitudeDegrees>
              <LongitudeDegrees>-1.6603799164295196533203125</LongitudeDegrees>
            </Position>
            <AltitudeMeters>654.4000244140625</AltitudeMeters>
            <DistanceMeters>17158.287455445</DistanceMeters>
          </Trackpoint>
          <Trackpoint>
            <Time>2022-11-06T11:27:06.000Z</Time>
            <Position>
              <LatitudeDegrees>41.35128437541425228118896484375</LatitudeDegrees>
              <LongitudeDegrees>-1.6603103466331958770751953125</LongitudeDegrees>
            </Position>
            <AltitudeMeters>653.5999755859375</AltitudeMeters>
            <DistanceMeters>17164.486810681</DistanceMeters>
          </Trackpoint>
          <Trackpoint>
            <Time>2022-11-06T11:27:07.000Z</Time>
            <Position>
              <LatitudeDegrees>41.351286470890045166015625</LatitudeDegrees>
              <LongitudeDegrees>-1.6602674312889575958251953125</LongitudeDegrees>
            </Position>
            <AltitudeMeters>653</AltitudeMeters>
            <DistanceMeters>17168.08027827</DistanceMeters>
          </Trackpoint>
          <Trackpoint>
            <Time>2022-11-06T11:27:08.000Z</Time>
            <Position>
              <LatitudeDegrees>41.3513050787150859832763671875</LatitudeDegrees>
              <LongitudeDegrees>-1.660256870090961456298828125</LongitudeDegrees>
            </Position>
            <AltitudeMeters>652.79998779296875</AltitudeMeters>
            <DistanceMeters>17170.333032798</DistanceMeters>
          </Trackpoint>
          <Trackpoint>
            <Time>2022-11-06T11:27:09.000Z</Time>
            <Position>
              <LatitudeDegrees>41.3513288833200931549072265625</LatitudeDegrees>
              <LongitudeDegrees>-1.6602774895727634429931640625</LongitudeDegrees>
            </Position>
            <AltitudeMeters>652.20001220703125</AltitudeMeters>
            <DistanceMeters>17173.494724532</DistanceMeters>
          </Trackpoint>
          <Trackpoint>
            <Time>2022-11-06T11:27:10.000Z</Time>
            <Position>
              <LatitudeDegrees>41.3513513468205928802490234375</LatitudeDegrees>
              <LongitudeDegrees>-1.66030975989997386932373046875</LongitudeDegrees>
            </Position>
            <AltitudeMeters>651.79998779296875</AltitudeMeters>
            <DistanceMeters>17177.171411143</DistanceMeters>
          </Trackpoint>
          <Trackpoint>
            <Time>2022-11-06T11:27:11.000Z</Time>
            <Position>
              <LatitudeDegrees>41.3513771630823612213134765625</LatitudeDegrees>
              <LongitudeDegrees>-1.66034010238945484161376953125</LongitudeDegrees>
            </Position>
            <AltitudeMeters>651.5999755859375</AltitudeMeters>
            <DistanceMeters>17181.003238945</DistanceMeters>
          </Trackpoint>
          <Trackpoint>
            <Time>2022-11-06T11:27:13.000Z</Time>
            <Position>
              <LatitudeDegrees>41.35141714476048946380615234375</LatitudeDegrees>
              <LongitudeDegrees>-1.6603029705584049224853515625</LongitudeDegrees>
            </Position>
            <AltitudeMeters>651.20001220703125</AltitudeMeters>
            <DistanceMeters>17186.428090936</DistanceMeters>
          </Trackpoint>
          <Trackpoint>
            <Time>2022-11-06T11:27:14.000Z</Time>
            <Position>
              <LatitudeDegrees>41.35140893049538135528564453125</LatitudeDegrees>
              <LongitudeDegrees>-1.66025645099580287933349609375</LongitudeDegrees>
            </Position>
            <AltitudeMeters>650.5999755859375</AltitudeMeters>
            <DistanceMeters>17190.41921294</DistanceMeters>
          </Trackpoint>
          <Trackpoint>
            <Time>2022-11-06T11:27:16.000Z</Time>
            <Position>
              <LatitudeDegrees>41.35137925855815410614013671875</LatitudeDegrees>
              <LongitudeDegrees>-1.66014262475073337554931640625</LongitudeDegrees>
            </Position>
            <AltitudeMeters>649.79998779296875</AltitudeMeters>
            <DistanceMeters>17200.486664355</DistanceMeters>
          </Trackpoint>
          <Trackpoint>
            <Time>2022-11-06T11:27:17.000Z</Time>
            <Position>
              <LatitudeDegrees>41.35136920027434825897216796875</LatitudeDegrees>
              <LongitudeDegrees>-1.66008428670465946197509765625</LongitudeDegrees>
            </Position>
            <AltitudeMeters>649.79998779296875</AltitudeMeters>
            <DistanceMeters>17205.487995353</DistanceMeters>
          </Trackpoint>
          <Trackpoint>
            <Time>2022-11-06T11:27:18.000Z</Time>
            <Position>
              <LatitudeDegrees>41.351369954645633697509765625</LatitudeDegrees>
              <LongitudeDegrees>-1.660043299198150634765625</LongitudeDegrees>
            </Position>
            <AltitudeMeters>649.79998779296875</AltitudeMeters>
            <DistanceMeters>17208.914232265</DistanceMeters>
          </Trackpoint>
          <Trackpoint>
            <Time>2022-11-06T11:27:19.000Z</Time>
            <Position>
              <LatitudeDegrees>41.35138562880456447601318359375</LatitudeDegrees>
              <LongitudeDegrees>-1.6600213386118412017822265625</LongitudeDegrees>
            </Position>
            <AltitudeMeters>649.5999755859375</AltitudeMeters>
            <DistanceMeters>17211.446297485</DistanceMeters>
          </Trackpoint>
          <Trackpoint>
            <Time>2022-11-06T11:27:20.000Z</Time>
            <Position>
              <LatitudeDegrees>41.35140239261090755462646484375</LatitudeDegrees>
              <LongitudeDegrees>-1.660028211772441864013671875</LongitudeDegrees>
            </Position>
            <AltitudeMeters>649.20001220703125</AltitudeMeters>
            <DistanceMeters>17213.400708479</DistanceMeters>
          </Trackpoint>
          <Trackpoint>
            <Time>2022-11-06T11:27:21.000Z</Time>
            <Position>
              <LatitudeDegrees>41.3514227606356143951416015625</LatitudeDegrees>
              <LongitudeDegrees>-1.66005335748195648193359375</LongitudeDegrees>
            </Position>
            <AltitudeMeters>649</AltitudeMeters>
            <DistanceMeters>17216.491634049</DistanceMeters>
          </Trackpoint>
          <Trackpoint>
            <Time>2022-11-06T11:27:22.000Z</Time>
            <Position>
              <LatitudeDegrees>41.35143709369003772735595703125</LatitudeDegrees>
              <LongitudeDegrees>-1.66010725311934947967529296875</LongitudeDegrees>
            </Position>
            <AltitudeMeters>648.79998779296875</AltitudeMeters>
            <DistanceMeters>17221.269503161</DistanceMeters>
          </Trackpoint>
          <Trackpoint>
            <Time>2022-11-06T11:27:24.000Z</Time>
            <Position>
              <LatitudeDegrees>41.3514713756740093231201171875</LatitudeDegrees>
              <LongitudeDegrees>-1.6602121107280254364013671875</LongitudeDegrees>
            </Position>
            <AltitudeMeters>648.4000244140625</AltitudeMeters>
            <DistanceMeters>17230.825713868</DistanceMeters>
          </Trackpoint>
          <Trackpoint>
            <Time>2022-11-06T11:27:25.000Z</Time>
            <Position>
              <LatitudeDegrees>41.35149526409804821014404296875</LatitudeDegrees>
              <LongitudeDegrees>-1.66026659309864044189453125</LongitudeDegrees>
            </Position>
            <AltitudeMeters>648.4000244140625</AltitudeMeters>
            <DistanceMeters>17236.097769946</DistanceMeters>
          </Trackpoint>
          <Trackpoint>
            <Time>2022-11-06T11:27:27.000Z</Time>
            <Position>
              <LatitudeDegrees>41.35156181640923023223876953125</LatitudeDegrees>
              <LongitudeDegrees>-1.660344712436199188232421875</LongitudeDegrees>
            </Position>
            <AltitudeMeters>648.4000244140625</AltitudeMeters>
            <DistanceMeters>17245.970492222</DistanceMeters>
          </Trackpoint>
          <Trackpoint>
            <Time>2022-11-06T11:27:28.000Z</Time>
            <Position>
              <LatitudeDegrees>41.35159551165997982025146484375</LatitudeDegrees>
              <LongitudeDegrees>-1.66034630499780178070068359375</LongitudeDegrees>
            </Position>
            <AltitudeMeters>648.4000244140625</AltitudeMeters>
            <DistanceMeters>17249.72374671</DistanceMeters>
          </Trackpoint>
          <Trackpoint>
            <Time>2022-11-06T11:27:29.000Z</Time>
            <Position>
              <LatitudeDegrees>41.351626105606555938720703125</LatitudeDegrees>
              <LongitudeDegrees>-1.660323925316333770751953125</LongitudeDegrees>
            </Position>
            <AltitudeMeters>648.4000244140625</AltitudeMeters>
            <DistanceMeters>17253.60823609</DistanceMeters>
          </Trackpoint>
          <Trackpoint>
            <Time>2022-11-06T11:27:31.000Z</Time>
            <Position>
              <LatitudeDegrees>41.35160942561924457550048828125</LatitudeDegrees>
              <LongitudeDegrees>-1.66021169163286685943603515625</LongitudeDegrees>
            </Position>
            <AltitudeMeters>648.4000244140625</AltitudeMeters>
            <DistanceMeters>17263.167281206</DistanceMeters>
          </Trackpoint>
          <Trackpoint>
            <Time>2022-11-06T11:27:32.000Z</Time>
            <Position>
              <LatitudeDegrees>41.351576149463653564453125</LatitudeDegrees>
              <LongitudeDegrees>-1.660146899521350860595703125</LongitudeDegrees>
            </Position>
            <AltitudeMeters>647.4000244140625</AltitudeMeters>
            <DistanceMeters>17269.72618997</DistanceMeters>
          </Trackpoint>
          <Trackpoint>
            <Time>2022-11-06T11:27:34.000Z</Time>
            <Position>
              <LatitudeDegrees>41.35152828879654407501220703125</LatitudeDegrees>
              <LongitudeDegrees>-1.66002326644957065582275390625</LongitudeDegrees>
            </Position>
            <AltitudeMeters>646.4000244140625</AltitudeMeters>
            <DistanceMeters>17281.348232968</DistanceMeters>
          </Trackpoint>
          <Trackpoint>
            <Time>2022-11-06T11:27:35.000Z</Time>
            <Position>
              <LatitudeDegrees>41.3515370897948741912841796875</LatitudeDegrees>
              <LongitudeDegrees>-1.65997649542987346649169921875</LongitudeDegrees>
            </Position>
            <AltitudeMeters>646.20001220703125</AltitudeMeters>
            <DistanceMeters>17285.377634592</DistanceMeters>
          </Trackpoint>
          <Trackpoint>
            <Time>2022-11-06T11:27:36.000Z</Time>
            <Position>
              <LatitudeDegrees>41.35156617499887943267822265625</LatitudeDegrees>
              <LongitudeDegrees>-1.6599459014832973480224609375</LongitudeDegrees>
            </Position>
            <AltitudeMeters>645.79998779296875</AltitudeMeters>
            <DistanceMeters>17289.503370175</DistanceMeters>
          </Trackpoint>
          <Trackpoint>
            <Time>2022-11-06T11:27:37.000Z</Time>
            <Position>
              <LatitudeDegrees>41.35160808451473712921142578125</LatitudeDegrees>
              <LongitudeDegrees>-1.659940369427204132080078125</LongitudeDegrees>
            </Position>
            <AltitudeMeters>645.5999755859375</AltitudeMeters>
            <DistanceMeters>17294.19156877</DistanceMeters>
          </Trackpoint>
          <Trackpoint>
            <Time>2022-11-06T11:27:38.000Z</Time>
            <Position>
              <LatitudeDegrees>41.35165058076381683349609375</LatitudeDegrees>
              <LongitudeDegrees>-1.6599653474986553192138671875</LongitudeDegrees>
            </Position>
            <AltitudeMeters>645.20001220703125</AltitudeMeters>
            <DistanceMeters>17299.361580982</DistanceMeters>
          </Trackpoint>
          <Trackpoint>
            <Time>2022-11-06T11:27:39.000Z</Time>
            <Position>
              <LatitudeDegrees>41.3516936637461185455322265625</LatitudeDegrees>
              <LongitudeDegrees>-1.66000583209097385406494140625</LongitudeDegrees>
            </Position>
            <AltitudeMeters>644.4000244140625</AltitudeMeters>
            <DistanceMeters>17305.230201906</DistanceMeters>
          </Trackpoint>
          <Trackpoint>
            <Time>2022-11-06T11:27:41.000Z</Time>
            <Position>
              <LatitudeDegrees>41.3517825119197368621826171875</LatitudeDegrees>
              <LongitudeDegrees>-1.6600776650011539459228515625</LongitudeDegrees>
            </Position>
            <AltitudeMeters>643.79998779296875</AltitudeMeters>
            <DistanceMeters>17316.797728554</DistanceMeters>
          </Trackpoint>
          <Trackpoint>
            <Time>2022-11-06T11:27:42.000Z</Time>
            <Position>
              <LatitudeDegrees>41.35183573700487613677978515625</LatitudeDegrees>
              <LongitudeDegrees>-1.6600954346358776092529296875</LongitudeDegrees>
            </Position>
            <AltitudeMeters>643.5999755859375</AltitudeMeters>
            <DistanceMeters>17322.90462758</DistanceMeters>
          </Trackpoint>
          <Trackpoint>
            <Time>2022-11-06T11:27:43.000Z</Time>
            <Position>
              <LatitudeDegrees>41.35189122520387172698974609375</LatitudeDegrees>
              <LongitudeDegrees>-1.66010105051100254058837890625</LongitudeDegrees>
            </Position>
            <AltitudeMeters>643.5999755859375</AltitudeMeters>
            <DistanceMeters>17329.098153614</DistanceMeters>
          </Trackpoint>
          <Trackpoint>
            <Time>2022-11-06T11:27:44.000Z</Time>
            <Position>
              <LatitudeDegrees>41.35193984024226665496826171875</LatitudeDegrees>
              <LongitudeDegrees>-1.66009090840816497802734375</LongitudeDegrees>
            </Position>
            <AltitudeMeters>643.5999755859375</AltitudeMeters>
            <DistanceMeters>17334.575188756</DistanceMeters>
          </Trackpoint>
          <Trackpoint>
            <Time>2022-11-06T11:27:45.000Z</Time>
            <Position>
              <LatitudeDegrees>41.35197219438850879669189453125</LatitudeDegrees>
              <LongitudeDegrees>-1.6600632481276988983154296875</LongitudeDegrees>
            </Position>
            <AltitudeMeters>643.5999755859375</AltitudeMeters>
            <DistanceMeters>17338.854557288</DistanceMeters>
          </Trackpoint>
          <Trackpoint>
            <Time>2022-11-06T11:27:46.000Z</Time>
            <Position>
              <LatitudeDegrees>41.35197353549301624298095703125</LatitudeDegrees>
              <LongitudeDegrees>-1.66002142243087291717529296875</LongitudeDegrees>
            </Position>
            <AltitudeMeters>643.5999755859375</AltitudeMeters>
            <DistanceMeters>17342.352521493</DistanceMeters>
          </Trackpoint>
          <Trackpoint>
            <Time>2022-11-06T11:27:47.000Z</Time>
            <Position>
              <LatitudeDegrees>41.35194486938416957855224609375</LatitudeDegrees>
              <LongitudeDegrees>-1.65996727533638477325439453125</LongitudeDegrees>
            </Position>
            <AltitudeMeters>643.5999755859375</AltitudeMeters>
            <DistanceMeters>17347.888592252</DistanceMeters>
          </Trackpoint>
          <Trackpoint>
            <Time>2022-11-06T11:27:48.000Z</Time>
            <Position>
              <LatitudeDegrees>41.35190078057348728179931640625</LatitudeDegrees>
              <LongitudeDegrees>-1.65989686734974384307861328125</LongitudeDegrees>
            </Position>
            <AltitudeMeters>642.79998779296875</AltitudeMeters>
            <DistanceMeters>17355.548712142</DistanceMeters>
          </Trackpoint>
          <Trackpoint>
            <Time>2022-11-06T11:27:49.000Z</Time>
            <Position>
              <LatitudeDegrees>41.3518644869327545166015625</LatitudeDegrees>
              <LongitudeDegrees>-1.65981237776577472686767578125</LongitudeDegrees>
            </Position>
            <AltitudeMeters>641.79998779296875</AltitudeMeters>
            <DistanceMeters>17363.681688839</DistanceMeters>
          </Trackpoint>
          <Trackpoint>
            <Time>2022-11-06T11:27:50.000Z</Time>
            <Position>
              <LatitudeDegrees>41.35183841921389102935791015625</LatitudeDegrees>
              <LongitudeDegrees>-1.65971833281219005584716796875</LongitudeDegrees>
            </Position>
            <AltitudeMeters>640.5999755859375</AltitudeMeters>
            <DistanceMeters>17372.05752694</DistanceMeters>
          </Trackpoint>
          <Trackpoint>
            <Time>2022-11-06T11:27:51.000Z</Time>
            <Position>
              <LatitudeDegrees>41.35182970203459262847900390625</LatitudeDegrees>
              <LongitudeDegrees>-1.65962227620184421539306640625</LongitudeDegrees>
            </Position>
            <AltitudeMeters>639.79998779296875</AltitudeMeters>
            <DistanceMeters>17380.141502647</DistanceMeters>
          </Trackpoint>
          <Trackpoint>
            <Time>2022-11-06T11:27:52.000Z</Time>
            <Position>
              <LatitudeDegrees>41.35184009559452533721923828125</LatitudeDegrees>
              <LongitudeDegrees>-1.65953443385660648345947265625</LongitudeDegrees>
            </Position>
            <AltitudeMeters>639.5999755859375</AltitudeMeters>
            <DistanceMeters>17387.571838264</DistanceMeters>
          </Trackpoint>
          <Trackpoint>
            <Time>2022-11-06T11:27:53.000Z</Time>
            <Position>
              <LatitudeDegrees>41.35186641477048397064208984375</LatitudeDegrees>
              <LongitudeDegrees>-1.65946352295577526092529296875</LongitudeDegrees>
            </Position>
            <AltitudeMeters>639.4000244140625</AltitudeMeters>
            <DistanceMeters>17394.181491041</DistanceMeters>
          </Trackpoint>
          <Trackpoint>
            <Time>2022-11-06T11:27:54.000Z</Time>
            <Position>
              <LatitudeDegrees>41.351898349821567535400390625</LatitudeDegrees>
              <LongitudeDegrees>-1.659418009221553802490234375</LongitudeDegrees>
            </Position>
            <AltitudeMeters>639.20001220703125</AltitudeMeters>
            <DistanceMeters>17399.387185943</DistanceMeters>
          </Trackpoint>
          <Trackpoint>
            <Time>2022-11-06T11:27:55.000Z</Time>
            <Position>
              <LatitudeDegrees>41.35193221271038055419921875</LatitudeDegrees>
              <LongitudeDegrees>-1.6594037599861621856689453125</LongitudeDegrees>
            </Position>
            <AltitudeMeters>639.5999755859375</AltitudeMeters>
            <DistanceMeters>17403.340799774</DistanceMeters>
          </Trackpoint>
          <Trackpoint>
            <Time>2022-11-06T11:27:56.000Z</Time>
            <Position>
              <LatitudeDegrees>41.351960711181163787841796875</LatitudeDegrees>
              <LongitudeDegrees>-1.6594084538519382476806640625</LongitudeDegrees>
            </Position>
            <AltitudeMeters>639.79998779296875</AltitudeMeters>
            <DistanceMeters>17406.536580814</DistanceMeters>
          </Trackpoint>
          <Trackpoint>
            <Time>2022-11-06T11:27:57.000Z</Time>
            <Position>
              <LatitudeDegrees>41.35197772644460201263427734375</LatitudeDegrees>
              <LongitudeDegrees>-1.65943804197013378143310546875</LongitudeDegrees>
            </Position>
            <AltitudeMeters>639.79998779296875</AltitudeMeters>
            <DistanceMeters>17409.650790521</DistanceMeters>
          </Trackpoint>
          <Trackpoint>
            <Time>2022-11-06T11:27:58.000Z</Time>
            <Position>
              <LatitudeDegrees>41.35198962874710559844970703125</LatitudeDegrees>
              <LongitudeDegrees>-1.6595003195106983184814453125</LongitudeDegrees>
            </Position>
            <AltitudeMeters>639.5999755859375</AltitudeMeters>
            <DistanceMeters>17415.019589643</DistanceMeters>
          </Trackpoint>
          <Trackpoint>
            <Time>2022-11-06T11:27:59.000Z</Time>
            <Position>
              <LatitudeDegrees>41.35201360099017620086669921875</LatitudeDegrees>
              <LongitudeDegrees>-1.65956779383122920989990234375</LongitudeDegrees>
            </Position>
            <AltitudeMeters>638.4000244140625</AltitudeMeters>
            <DistanceMeters>17421.256701901</DistanceMeters>
          </Trackpoint>
          <Trackpoint>
            <Time>2022-11-06T11:28:01.000Z</Time>
            <Position>
              <LatitudeDegrees>41.35208317078649997711181640625</LatitudeDegrees>
              <LongitudeDegrees>-1.6596904210746288299560546875</LongitudeDegrees>
            </Position>
            <AltitudeMeters>637.4000244140625</AltitudeMeters>
            <DistanceMeters>17434.099027087</DistanceMeters>
          </Trackpoint>
          <Trackpoint>
            <Time>2022-11-06T11:28:02.000Z</Time>
            <Position>
              <LatitudeDegrees>41.35212206281721591949462890625</LatitudeDegrees>
              <LongitudeDegrees>-1.65972218848764896392822265625</LongitudeDegrees>
            </Position>
            <AltitudeMeters>637</AltitudeMeters>
            <DistanceMeters>17439.177402646</DistanceMeters>
          </Trackpoint>
          <Trackpoint>
            <Time>2022-11-06T11:28:03.000Z</Time>
            <Position>
              <LatitudeDegrees>41.35215810500085353851318359375</LatitudeDegrees>
              <LongitudeDegrees>-1.65972872637212276458740234375</LongitudeDegrees>
            </Position>
            <AltitudeMeters>636.79998779296875</AltitudeMeters>
            <DistanceMeters>17443.22580835</DistanceMeters>
          </Trackpoint>
          <Trackpoint>
            <Time>2022-11-06T11:28:04.000Z</Time>
            <Position>
              <LatitudeDegrees>41.3521798141300678253173828125</LatitudeDegrees>
              <LongitudeDegrees>-1.6597105376422405242919921875</LongitudeDegrees>
            </Position>
            <AltitudeMeters>636.5999755859375</AltitudeMeters>
            <DistanceMeters>17446.079775581</DistanceMeters>
          </Trackpoint>
          <Trackpoint>
            <Time>2022-11-06T11:28:05.000Z</Time>
            <Position>
              <LatitudeDegrees>41.35218375362455844879150390625</LatitudeDegrees>
              <LongitudeDegrees>-1.6596699692308902740478515625</LongitudeDegrees>
            </Position>
            <AltitudeMeters>636.4000244140625</AltitudeMeters>
            <DistanceMeters>17449.496775558</DistanceMeters>
          </Trackpoint>
          <Trackpoint>
            <Time>2022-11-06T11:28:06.000Z</Time>
            <Position>
              <LatitudeDegrees>41.35217805393040180206298828125</LatitudeDegrees>
              <LongitudeDegrees>-1.65962009690701961517333984375</LongitudeDegrees>
            </Position>
            <AltitudeMeters>636.20001220703125</AltitudeMeters>
            <DistanceMeters>17453.712364537</DistanceMeters>
          </Trackpoint>
          <Trackpoint>
            <Time>2022-11-06T11:28:07.000Z</Time>
            <Position>
              <LatitudeDegrees>41.3521603681147098541259765625</LatitudeDegrees>
              <LongitudeDegrees>-1.6595757566392421722412109375</LongitudeDegrees>
            </Position>
            <AltitudeMeters>635.20001220703125</AltitudeMeters>
            <DistanceMeters>17457.908630623</DistanceMeters>
          </Trackpoint>
          <Trackpoint>
            <Time>2022-11-06T11:28:08.000Z</Time>
            <Position>
              <LatitudeDegrees>41.352134384214878082275390625</LatitudeDegrees>
              <LongitudeDegrees>-1.65954415686428546905517578125</LongitudeDegrees>
            </Position>
            <AltitudeMeters>634.5999755859375</AltitudeMeters>
            <DistanceMeters>17461.824377014</DistanceMeters>
          </Trackpoint>
          <Trackpoint>
            <Time>2022-11-06T11:28:10.000Z</Time>
            <Position>
              <LatitudeDegrees>41.3520788960158824920654296875</LatitudeDegrees>
              <LongitudeDegrees>-1.65948732756078243255615234375</LongitudeDegrees>
            </Position>
            <AltitudeMeters>634.20001220703125</AltitudeMeters>
            <DistanceMeters>17469.614249523</DistanceMeters>
          </Trackpoint>
          <Trackpoint>
            <Time>2022-11-06T11:28:11.000Z</Time>
            <Position>
              <LatitudeDegrees>41.3520815782248973846435546875</LatitudeDegrees>
              <LongitudeDegrees>-1.659456230700016021728515625</LongitudeDegrees>
            </Position>
            <AltitudeMeters>634</AltitudeMeters>
            <DistanceMeters>17472.230505999</DistanceMeters>
          </Trackpoint>
          <Trackpoint>
            <Time>2022-11-06T11:28:12.000Z</Time>
            <Position>
              <LatitudeDegrees>41.35210479609668254852294921875</LatitudeDegrees>
              <LongitudeDegrees>-1.65943644940853118896484375</LongitudeDegrees>
            </Position>
            <AltitudeMeters>634</AltitudeMeters>
            <DistanceMeters>17475.297970693</DistanceMeters>
          </Trackpoint>
          <Trackpoint>
            <Time>2022-11-06T11:28:13.000Z</Time>
            <Position>
              <LatitudeDegrees>41.35214284993708133697509765625</LatitudeDegrees>
              <LongitudeDegrees>-1.65943502448499202728271484375</LongitudeDegrees>
            </Position>
            <AltitudeMeters>633.79998779296875</AltitudeMeters>
            <DistanceMeters>17479.535991699</DistanceMeters>
          </Trackpoint>
          <Trackpoint>
            <Time>2022-11-06T11:28:14.000Z</Time>
            <Position>
              <LatitudeDegrees>41.352181993424892425537109375</LatitudeDegrees>
              <LongitudeDegrees>-1.65945178829133510589599609375</LongitudeDegrees>
            </Position>
            <AltitudeMeters>633.5999755859375</AltitudeMeters>
            <DistanceMeters>17484.113084374</DistanceMeters>
          </Trackpoint>
          <Trackpoint>
            <Time>2022-11-06T11:28:15.000Z</Time>
            <Position>
              <LatitudeDegrees>41.3522415049374103546142578125</LatitudeDegrees>
              <LongitudeDegrees>-1.6594929434359073638916015625</LongitudeDegrees>
            </Position>
            <AltitudeMeters>633.20001220703125</AltitudeMeters>
            <DistanceMeters>17491.576765877</DistanceMeters>
          </Trackpoint>
          <Trackpoint>
            <Time>2022-11-06T11:28:16.000Z</Time>
            <Position>
              <LatitudeDegrees>41.35228903032839298248291015625</LatitudeDegrees>
              <LongitudeDegrees>-1.6595177538692951202392578125</LongitudeDegrees>
            </Position>
            <AltitudeMeters>633</AltitudeMeters>
            <DistanceMeters>17497.257742308</DistanceMeters>
          </Trackpoint>
          <Trackpoint>
            <Time>2022-11-06T11:28:17.000Z</Time>
            <Position>
              <LatitudeDegrees>41.3523363880813121795654296875</LatitudeDegrees>
              <LongitudeDegrees>-1.65952001698315143585205078125</LongitudeDegrees>
            </Position>
            <AltitudeMeters>632.79998779296875</AltitudeMeters>
            <DistanceMeters>17502.532366989</DistanceMeters>
          </Trackpoint>
          <Trackpoint>
            <Time>2022-11-06T11:28:18.000Z</Time>
            <Position>
              <LatitudeDegrees>41.3523702509701251983642578125</LatitudeDegrees>
              <LongitudeDegrees>-1.65950174443423748016357421875</LongitudeDegrees>
            </Position>
            <AltitudeMeters>632.5999755859375</AltitudeMeters>
            <DistanceMeters>17506.59968798</DistanceMeters>
          </Trackpoint>
          <Trackpoint>
            <Time>2022-11-06T11:28:19.000Z</Time>
            <Position>
              <LatitudeDegrees>41.35240620933473110198974609375</LatitudeDegrees>
              <LongitudeDegrees>-1.659456901252269744873046875</LongitudeDegrees>
            </Position>
            <AltitudeMeters>632.4000244140625</AltitudeMeters>
            <DistanceMeters>17512.082490592</DistanceMeters>
          </Trackpoint>
          <Trackpoint>
            <Time>2022-11-06T11:28:20.000Z</Time>
            <Position>
              <LatitudeDegrees>41.3524104841053485870361328125</LatitudeDegrees>
              <LongitudeDegrees>-1.65938825346529483795166015625</LongitudeDegrees>
            </Position>
            <AltitudeMeters>632.4000244140625</AltitudeMeters>
            <DistanceMeters>17517.839258831</DistanceMeters>
          </Trackpoint>
          <Trackpoint>
            <Time>2022-11-06T11:28:21.000Z</Time>
            <Position>
              <LatitudeDegrees>41.35240168310701847076416015625</LatitudeDegrees>
              <LongitudeDegrees>-1.6593058593571186065673828125</LongitudeDegrees>
            </Position>
            <AltitudeMeters>631.5999755859375</AltitudeMeters>
            <DistanceMeters>17524.792461638</DistanceMeters>
          </Trackpoint>
          <Trackpoint>
            <Time>2022-11-06T11:28:22.000Z</Time>
            <Position>
              <LatitudeDegrees>41.35239413939416408538818359375</LatitudeDegrees>
              <LongitudeDegrees>-1.65922053158283233642578125</LongitudeDegrees>
            </Position>
            <AltitudeMeters>630.5999755859375</AltitudeMeters>
            <DistanceMeters>17531.970596228</DistanceMeters>
          </Trackpoint>
          <Trackpoint>
            <Time>2022-11-06T11:28:23.000Z</Time>
            <Position>
              <LatitudeDegrees>41.3523974083364009857177734375</LatitudeDegrees>
              <LongitudeDegrees>-1.65913872420787811279296875</LongitudeDegrees>
            </Position>
            <AltitudeMeters>630.20001220703125</AltitudeMeters>
            <DistanceMeters>17538.815158784</DistanceMeters>
          </Trackpoint>
          <Trackpoint>
            <Time>2022-11-06T11:28:24.000Z</Time>
            <Position>
              <LatitudeDegrees>41.3524124957621097564697265625</LatitudeDegrees>
              <LongitudeDegrees>-1.65906496345996856689453125</LongitudeDegrees>
            </Position>
            <AltitudeMeters>629.79998779296875</AltitudeMeters>
            <DistanceMeters>17545.202481022</DistanceMeters>
          </Trackpoint>
          <Trackpoint>
            <Time>2022-11-06T11:28:25.000Z</Time>
            <Position>
              <LatitudeDegrees>41.3524425029754638671875</LatitudeDegrees>
              <LongitudeDegrees>-1.65901442058384418487548828125</LongitudeDegrees>
            </Position>
            <AltitudeMeters>629.79998779296875</AltitudeMeters>
            <DistanceMeters>17550.586396455</DistanceMeters>
          </Trackpoint>
          <Trackpoint>
            <Time>2022-11-06T11:28:26.000Z</Time>
            <Position>
              <LatitudeDegrees>41.35246924124658107757568359375</LatitudeDegrees>
              <LongitudeDegrees>-1.65899849496781826019287109375</LongitudeDegrees>
            </Position>
            <AltitudeMeters>629.79998779296875</AltitudeMeters>
            <DistanceMeters>17553.845133925</DistanceMeters>
          </Trackpoint>
          <Trackpoint>
            <Time>2022-11-06T11:28:27.000Z</Time>
            <Position>
              <LatitudeDegrees>41.35249287821352481842041015625</LatitudeDegrees>
              <LongitudeDegrees>-1.65900838561356067657470703125</LongitudeDegrees>
            </Position>
            <AltitudeMeters>629.5999755859375</AltitudeMeters>
            <DistanceMeters>17556.602546547</DistanceMeters>
          </Trackpoint>
          <Trackpoint>
            <Time>2022-11-06T11:28:28.000Z</Time>
            <Position>
              <LatitudeDegrees>41.35251467116177082061767578125</LatitudeDegrees>
              <LongitudeDegrees>-1.65903721936047077178955078125</LongitudeDegrees>
            </Position>
            <AltitudeMeters>629.20001220703125</AltitudeMeters>
            <DistanceMeters>17560.023508264</DistanceMeters>
          </Trackpoint>
          <Trackpoint>
            <Time>2022-11-06T11:28:29.000Z</Time>
            <Position>
              <LatitudeDegrees>41.3525214605033397674560546875</LatitudeDegrees>
              <LongitudeDegrees>-1.65907409973442554473876953125</LongitudeDegrees>
            </Position>
            <AltitudeMeters>628.4000244140625</AltitudeMeters>
            <DistanceMeters>17563.195180561</DistanceMeters>
          </Trackpoint>
          <Trackpoint>
            <Time>2022-11-06T11:28:31.000Z</Time>
            <Position>
              <LatitudeDegrees>41.352498829364776611328125</LatitudeDegrees>
              <LongitudeDegrees>-1.659174598753452301025390625</LongitudeDegrees>
            </Position>
            <AltitudeMeters>627.4000244140625</AltitudeMeters>
            <DistanceMeters>17571.961362771</DistanceMeters>
          </Trackpoint>
          <Trackpoint>
            <Time>2022-11-06T11:28:32.000Z</Time>
            <Position>
              <LatitudeDegrees>41.35250193066895008087158203125</LatitudeDegrees>
              <LongitudeDegrees>-1.6592354513704776763916015625</LongitudeDegrees>
            </Position>
            <AltitudeMeters>627.4000244140625</AltitudeMeters>
            <DistanceMeters>17577.057488736</DistanceMeters>
          </Trackpoint>
          <Trackpoint>
            <Time>2022-11-06T11:28:33.000Z</Time>
            <Position>
              <LatitudeDegrees>41.35251819156110286712646484375</LatitudeDegrees>
              <LongitudeDegrees>-1.65927325375378131866455078125</LongitudeDegrees>
            </Position>
            <AltitudeMeters>627.20001220703125</AltitudeMeters>
            <DistanceMeters>17580.695907632</DistanceMeters>
          </Trackpoint>
          <Trackpoint>
            <Time>2022-11-06T11:28:34.000Z</Time>
            <Position>
              <LatitudeDegrees>41.35254031978547573089599609375</LatitudeDegrees>
              <LongitudeDegrees>-1.65927174501121044158935546875</LongitudeDegrees>
            </Position>
            <AltitudeMeters>627.20001220703125</AltitudeMeters>
            <DistanceMeters>17583.1611138</DistanceMeters>
          </Trackpoint>
          <Trackpoint>
            <Time>2022-11-06T11:28:35.000Z</Time>
            <Position>
              <LatitudeDegrees>41.3525747694075107574462890625</LatitudeDegrees>
              <LongitudeDegrees>-1.65924760513007640838623046875</LongitudeDegrees>
            </Position>
            <AltitudeMeters>627.20001220703125</AltitudeMeters>
            <DistanceMeters>17587.492914678</DistanceMeters>
          </Trackpoint>
          <Trackpoint>
            <Time>2022-11-06T11:28:37.000Z</Time>
            <Position>
              <LatitudeDegrees>41.35268432088196277618408203125</LatitudeDegrees>
              <LongitudeDegrees>-1.65918675251305103302001953125</LongitudeDegrees>
            </Position>
            <AltitudeMeters>626.20001220703125</AltitudeMeters>
            <DistanceMeters>17600.704020518</DistanceMeters>
          </Trackpoint>
          <Trackpoint>
            <Time>2022-11-06T11:28:38.000Z</Time>
            <Position>
              <LatitudeDegrees>41.3527683913707733154296875</LatitudeDegrees>
              <LongitudeDegrees>-1.65915071032941341400146484375</LongitudeDegrees>
            </Position>
            <AltitudeMeters>624.5999755859375</AltitudeMeters>
            <DistanceMeters>17610.533660285</DistanceMeters>
          </Trackpoint>
          <Trackpoint>
            <Time>2022-11-06T11:28:40.000Z</Time>
            <Position>
              <LatitudeDegrees>41.3528775237500667572021484375</LatitudeDegrees>
              <LongitudeDegrees>-1.6591030173003673553466796875</LongitudeDegrees>
            </Position>
            <AltitudeMeters>623.20001220703125</AltitudeMeters>
            <DistanceMeters>17623.317490833</DistanceMeters>
          </Trackpoint>
          <Trackpoint>
            <Time>2022-11-06T11:28:41.000Z</Time>
            <Position>
              <LatitudeDegrees>41.352915577590465545654296875</LatitudeDegrees>
              <LongitudeDegrees>-1.659088768064975738525390625</LongitudeDegrees>
            </Position>
            <AltitudeMeters>622.79998779296875</AltitudeMeters>
            <DistanceMeters>17627.717545821</DistanceMeters>
          </Trackpoint>
          <Trackpoint>
            <Time>2022-11-06T11:28:42.000Z</Time>
            <Position>
              <LatitudeDegrees>41.3529475964605808258056640625</LatitudeDegrees>
              <LongitudeDegrees>-1.6590772010385990142822265625</LongitudeDegrees>
            </Position>
            <AltitudeMeters>622.5999755859375</AltitudeMeters>
            <DistanceMeters>17631.412606792</DistanceMeters>
          </Trackpoint>
          <Trackpoint>
            <Time>2022-11-06T11:28:43.000Z</Time>
            <Position>
              <LatitudeDegrees>41.3529952056705951690673828125</LatitudeDegrees>
              <LongitudeDegrees>-1.659064628183841705322265625</LongitudeDegrees>
            </Position>
            <AltitudeMeters>622.5999755859375</AltitudeMeters>
            <DistanceMeters>17636.814940276</DistanceMeters>
          </Trackpoint>
          <Trackpoint>
            <Time>2022-11-06T11:28:44.000Z</Time>
            <Position>
              <LatitudeDegrees>41.353034265339374542236328125</LatitudeDegrees>
              <LongitudeDegrees>-1.65906236506998538970947265625</LongitudeDegrees>
            </Position>
            <AltitudeMeters>622.20001220703125</AltitudeMeters>
            <DistanceMeters>17641.167537245</DistanceMeters>
          </Trackpoint>
          <Trackpoint>
            <Time>2022-11-06T11:28:45.000Z</Time>
            <Position>
              <LatitudeDegrees>41.353092603385448455810546875</LatitudeDegrees>
              <LongitudeDegrees>-1.65906228125095367431640625</LongitudeDegrees>
            </Position>
            <AltitudeMeters>621.20001220703125</AltitudeMeters>
            <DistanceMeters>17647.66141567</DistanceMeters>
          </Trackpoint>
          <Trackpoint>
            <Time>2022-11-06T11:28:46.000Z</Time>
            <Position>
              <LatitudeDegrees>41.35315655730664730072021484375</LatitudeDegrees>
              <LongitudeDegrees>-1.6590513847768306732177734375</LongitudeDegrees>
            </Position>
            <AltitudeMeters>619.5999755859375</AltitudeMeters>
            <DistanceMeters>17654.838292152</DistanceMeters>
          </Trackpoint>
          <Trackpoint>
            <Time>2022-11-06T11:28:47.000Z</Time>
            <Position>
              <LatitudeDegrees>41.353229396045207977294921875</LatitudeDegrees>
              <LongitudeDegrees>-1.65903956629335880279541015625</LongitudeDegrees>
            </Position>
            <AltitudeMeters>618.4000244140625</AltitudeMeters>
            <DistanceMeters>17663.005615746</DistanceMeters>
          </Trackpoint>
          <Trackpoint>
            <Time>2022-11-06T11:28:48.000Z</Time>
            <Position>
              <LatitudeDegrees>41.35327608324587345123291015625</LatitudeDegrees>
              <LongitudeDegrees>-1.65905331261456012725830078125</LongitudeDegrees>
            </Position>
            <AltitudeMeters>617.20001220703125</AltitudeMeters>
            <DistanceMeters>17668.327111751</DistanceMeters>
          </Trackpoint>
          <Trackpoint>
            <Time>2022-11-06T11:28:49.000Z</Time>
            <Position>
              <LatitudeDegrees>41.35334162972867488861083984375</LatitudeDegrees>
              <LongitudeDegrees>-1.65907795540988445281982421875</LongitudeDegrees>
            </Position>
            <AltitudeMeters>616.4000244140625</AltitudeMeters>
            <DistanceMeters>17675.907837738</DistanceMeters>
          </Trackpoint>
          <Trackpoint>
            <Time>2022-11-06T11:28:50.000Z</Time>
            <Position>
              <LatitudeDegrees>41.35339493863284587860107421875</LatitudeDegrees>
              <LongitudeDegrees>-1.659094803035259246826171875</LongitudeDegrees>
            </Position>
            <AltitudeMeters>616</AltitudeMeters>
            <DistanceMeters>17682.005858301</DistanceMeters>
          </Trackpoint>
          <Trackpoint>
            <Time>2022-11-06T11:28:51.000Z</Time>
            <Position>
              <LatitudeDegrees>41.3534511812031269073486328125</LatitudeDegrees>
              <LongitudeDegrees>-1.65909983217716217041015625</LongitudeDegrees>
            </Position>
            <AltitudeMeters>616</AltitudeMeters>
            <DistanceMeters>17688.280500387</DistanceMeters>
          </Trackpoint>
          <Trackpoint>
            <Time>2022-11-06T11:28:52.000Z</Time>
            <Position>
              <LatitudeDegrees>41.3534937612712383270263671875</LatitudeDegrees>
              <LongitudeDegrees>-1.65909044444561004638671875</LongitudeDegrees>
            </Position>
            <AltitudeMeters>615.79998779296875</AltitudeMeters>
            <DistanceMeters>17693.084756353</DistanceMeters>
          </Trackpoint>
          <Trackpoint>
            <Time>2022-11-06T11:28:53.000Z</Time>
            <Position>
              <LatitudeDegrees>41.35351949371397495269775390625</LatitudeDegrees>
              <LongitudeDegrees>-1.6590731777250766754150390625</LongitudeDegrees>
            </Position>
            <AltitudeMeters>615.79998779296875</AltitudeMeters>
            <DistanceMeters>17696.291819974</DistanceMeters>
          </Trackpoint>
          <Trackpoint>
            <Time>2022-11-06T11:28:54.000Z</Time>
            <Position>
              <LatitudeDegrees>41.3535390235483646392822265625</LatitudeDegrees>
              <LongitudeDegrees>-1.65903872810304164886474609375</LongitudeDegrees>
            </Position>
            <AltitudeMeters>615.79998779296875</AltitudeMeters>
            <DistanceMeters>17699.899082115</DistanceMeters>
          </Trackpoint>
          <Trackpoint>
            <Time>2022-11-06T11:28:55.000Z</Time>
            <Position>
              <LatitudeDegrees>41.35355092585086822509765625</LatitudeDegrees>
              <LongitudeDegrees>-1.659007966518402099609375</LongitudeDegrees>
            </Position>
            <AltitudeMeters>616</AltitudeMeters>
            <DistanceMeters>17702.789206803</DistanceMeters>
          </Trackpoint>
          <Trackpoint>
            <Time>2022-11-06T11:28:56.000Z</Time>
            <Position>
              <LatitudeDegrees>41.35357774794101715087890625</LatitudeDegrees>
              <LongitudeDegrees>-1.658959351480007171630859375</LongitudeDegrees>
            </Position>
            <AltitudeMeters>616</AltitudeMeters>
            <DistanceMeters>17707.830103064</DistanceMeters>
          </Trackpoint>
          <Trackpoint>
            <Time>2022-11-06T11:28:57.000Z</Time>
            <Position>
              <LatitudeDegrees>41.35360867716372013092041015625</LatitudeDegrees>
              <LongitudeDegrees>-1.658906377851963043212890625</LongitudeDegrees>
            </Position>
            <AltitudeMeters>615.79998779296875</AltitudeMeters>
            <DistanceMeters>17713.437484465</DistanceMeters>
          </Trackpoint>
          <Trackpoint>
            <Time>2022-11-06T11:28:58.000Z</Time>
            <Position>
              <LatitudeDegrees>41.35363047011196613311767578125</LatitudeDegrees>
              <LongitudeDegrees>-1.658861450850963592529296875</LongitudeDegrees>
            </Position>
            <AltitudeMeters>615</AltitudeMeters>
            <DistanceMeters>17717.906771779</DistanceMeters>
          </Trackpoint>
          <Trackpoint>
            <Time>2022-11-06T11:28:59.000Z</Time>
            <Position>
              <LatitudeDegrees>41.35363784618675708770751953125</LatitudeDegrees>
              <LongitudeDegrees>-1.65884342975914478302001953125</LongitudeDegrees>
            </Position>
            <AltitudeMeters>614.5999755859375</AltitudeMeters>
            <DistanceMeters>17719.619890235</DistanceMeters>
          </Trackpoint>
          <Trackpoint>
            <Time>2022-11-06T11:29:00.000Z</Time>
            <Position>
              <LatitudeDegrees>41.35363784618675708770751953125</LatitudeDegrees>
              <LongitudeDegrees>-1.65884342975914478302001953125</LongitudeDegrees>
            </Position>
            <AltitudeMeters>614.4000244140625</AltitudeMeters>
            <DistanceMeters>17719.619890235</DistanceMeters>
          </Trackpoint>
          <Trackpoint>
            <Time>2022-11-06T11:30:00.000Z</Time>
            <Position>
              <LatitudeDegrees>41.353670619428157806396484375</LatitudeDegrees>
              <LongitudeDegrees>-1.65876681916415691375732421875</LongitudeDegrees>
            </Position>
            <AltitudeMeters>613.5999755859375</AltitudeMeters>
            <DistanceMeters>17726.986759273</DistanceMeters>
          </Trackpoint>
          <Trackpoint>
            <Time>2022-11-06T11:30:01.000Z</Time>
            <Position>
              <LatitudeDegrees>41.353676319122314453125</LatitudeDegrees>
              <LongitudeDegrees>-1.65875474922358989715576171875</LongitudeDegrees>
            </Position>
            <AltitudeMeters>613</AltitudeMeters>
            <DistanceMeters>17728.181226551</DistanceMeters>
          </Trackpoint>
          <Trackpoint>
            <Time>2022-11-06T11:30:02.000Z</Time>
            <Position>
              <LatitudeDegrees>41.35367992334067821502685546875</LatitudeDegrees>
              <LongitudeDegrees>-1.6587496362626552581787109375</LongitudeDegrees>
            </Position>
            <AltitudeMeters>612.5999755859375</AltitudeMeters>
            <DistanceMeters>17728.76701056</DistanceMeters>
          </Trackpoint>
          <Trackpoint>
            <Time>2022-11-06T11:30:03.000Z</Time>
            <Position>
              <LatitudeDegrees>41.35367992334067821502685546875</LatitudeDegrees>
              <LongitudeDegrees>-1.6587496362626552581787109375</LongitudeDegrees>
            </Position>
            <AltitudeMeters>612.20001220703125</AltitudeMeters>
            <DistanceMeters>17728.76701056</DistanceMeters>
          </Trackpoint>
          <Trackpoint>
            <Time>2022-11-06T11:30:04.000Z</Time>
            <Position>
              <LatitudeDegrees>41.3536825217306613922119140625</LatitudeDegrees>
              <LongitudeDegrees>-1.6587456129491329193115234375</LongitudeDegrees>
            </Position>
            <AltitudeMeters>612</AltitudeMeters>
            <DistanceMeters>17729.212725359</DistanceMeters>
          </Trackpoint>
          <Trackpoint>
            <Time>2022-11-06T11:30:05.000Z</Time>
            <Position>
              <LatitudeDegrees>41.35369484312832355499267578125</LatitudeDegrees>
              <LongitudeDegrees>-1.6587234847247600555419921875</LongitudeDegrees>
            </Position>
            <AltitudeMeters>611.79998779296875</AltitudeMeters>
            <DistanceMeters>17731.517000722</DistanceMeters>
          </Trackpoint>
          <Trackpoint>
            <Time>2022-11-06T11:30:07.000Z</Time>
            <Position>
              <LatitudeDegrees>41.3537462241947650909423828125</LatitudeDegrees>
              <LongitudeDegrees>-1.65863472037017345428466796875</LongitudeDegrees>
            </Position>
            <AltitudeMeters>611</AltitudeMeters>
            <DistanceMeters>17740.88231612</DistanceMeters>
          </Trackpoint>
          <Trackpoint>
            <Time>2022-11-06T11:30:10.000Z</Time>
            <Position>
              <LatitudeDegrees>41.35384186170995235443115234375</LatitudeDegrees>
              <LongitudeDegrees>-1.6584227420389652252197265625</LongitudeDegrees>
            </Position>
            <AltitudeMeters>609.5999755859375</AltitudeMeters>
            <DistanceMeters>17761.545546857</DistanceMeters>
          </Trackpoint>
          <Trackpoint>
            <Time>2022-11-06T11:30:11.000Z</Time>
            <Position>
              <LatitudeDegrees>41.3538726232945919036865234375</LatitudeDegrees>
              <LongitudeDegrees>-1.658342443406581878662109375</LongitudeDegrees>
            </Position>
            <AltitudeMeters>609.20001220703125</AltitudeMeters>
            <DistanceMeters>17769.077875202</DistanceMeters>
          </Trackpoint>
          <Trackpoint>
            <Time>2022-11-06T11:30:12.000Z</Time>
            <Position>
              <LatitudeDegrees>41.3539031334221363067626953125</LatitudeDegrees>
              <LongitudeDegrees>-1.6582698561251163482666015625</LongitudeDegrees>
            </Position>
            <AltitudeMeters>609</AltitudeMeters>
            <DistanceMeters>17776.028480138</DistanceMeters>
          </Trackpoint>
          <Trackpoint>
            <Time>2022-11-06T11:30:14.000Z</Time>
            <Position>
              <LatitudeDegrees>41.35396893136203289031982421875</LatitudeDegrees>
              <LongitudeDegrees>-1.65818310342729091644287109375</LongitudeDegrees>
            </Position>
            <AltitudeMeters>608.4000244140625</AltitudeMeters>
            <DistanceMeters>17786.332636524</DistanceMeters>
          </Trackpoint>
          <Trackpoint>
            <Time>2022-11-06T11:30:15.000Z</Time>
            <Position>
              <LatitudeDegrees>41.3540107570588588714599609375</LatitudeDegrees>
              <LongitudeDegrees>-1.65814924053847789764404296875</LongitudeDegrees>
            </Position>
            <AltitudeMeters>608.20001220703125</AltitudeMeters>
            <DistanceMeters>17791.779913935</DistanceMeters>
          </Trackpoint>
          <Trackpoint>
            <Time>2022-11-06T11:30:16.000Z</Time>
            <Position>
              <LatitudeDegrees>41.3540519960224628448486328125</LatitudeDegrees>
              <LongitudeDegrees>-1.6581028886139392852783203125</LongitudeDegrees>
            </Position>
            <AltitudeMeters>607.5999755859375</AltitudeMeters>
            <DistanceMeters>17797.78542185</DistanceMeters>
          </Trackpoint>
          <Trackpoint>
            <Time>2022-11-06T11:30:17.000Z</Time>
            <Position>
              <LatitudeDegrees>41.3540962524712085723876953125</LatitudeDegrees>
              <LongitudeDegrees>-1.65804312564432621002197265625</LongitudeDegrees>
            </Position>
            <AltitudeMeters>606.4000244140625</AltitudeMeters>
            <DistanceMeters>17804.799397646</DistanceMeters>
          </Trackpoint>
          <Trackpoint>
            <Time>2022-11-06T11:30:18.000Z</Time>
            <Position>
              <LatitudeDegrees>41.35413858108222484588623046875</LatitudeDegrees>
              <LongitudeDegrees>-1.65796534158289432525634765625</LongitudeDegrees>
            </Position>
            <AltitudeMeters>605.5999755859375</AltitudeMeters>
            <DistanceMeters>17812.826202454</DistanceMeters>
          </Trackpoint>
          <Trackpoint>
            <Time>2022-11-06T11:30:19.000Z</Time>
            <Position>
              <LatitudeDegrees>41.3541720248758792877197265625</LatitudeDegrees>
              <LongitudeDegrees>-1.6578866355121135711669921875</LongitudeDegrees>
            </Position>
            <AltitudeMeters>605</AltitudeMeters>
            <DistanceMeters>17820.381872066</DistanceMeters>
          </Trackpoint>
          <Trackpoint>
            <Time>2022-11-06T11:30:20.000Z</Time>
            <Position>
              <LatitudeDegrees>41.3541921414434909820556640625</LatitudeDegrees>
              <LongitudeDegrees>-1.65780507959425449371337890625</LongitudeDegrees>
            </Position>
            <AltitudeMeters>604.20001220703125</AltitudeMeters>
            <DistanceMeters>17827.554343432</DistanceMeters>
          </Trackpoint>
          <Trackpoint>
            <Time>2022-11-06T11:30:21.000Z</Time>
            <Position>
              <LatitudeDegrees>41.354200355708599090576171875</LatitudeDegrees>
              <LongitudeDegrees>-1.65772109292447566986083984375</LongitudeDegrees>
            </Position>
            <AltitudeMeters>603.5999755859375</AltitudeMeters>
            <DistanceMeters>17834.63112264</DistanceMeters>
          </Trackpoint>
          <Trackpoint>
            <Time>2022-11-06T11:30:22.000Z</Time>
            <Position>
              <LatitudeDegrees>41.354217790067195892333984375</LatitudeDegrees>
              <LongitudeDegrees>-1.657634675502777099609375</LongitudeDegrees>
            </Position>
            <AltitudeMeters>603.20001220703125</AltitudeMeters>
            <DistanceMeters>17842.107496974</DistanceMeters>
          </Trackpoint>
          <Trackpoint>
            <Time>2022-11-06T11:30:23.000Z</Time>
            <Position>
              <LatitudeDegrees>41.35424201376736164093017578125</LatitudeDegrees>
              <LongitudeDegrees>-1.65755228139460086822509765625</LongitudeDegrees>
            </Position>
            <AltitudeMeters>602.5999755859375</AltitudeMeters>
            <DistanceMeters>17849.500062337</DistanceMeters>
          </Trackpoint>
          <Trackpoint>
            <Time>2022-11-06T11:30:25.000Z</Time>
            <Position>
              <LatitudeDegrees>41.3542783074080944061279296875</LatitudeDegrees>
              <LongitudeDegrees>-1.65739319287240505218505859375</LongitudeDegrees>
            </Position>
            <AltitudeMeters>602.20001220703125</AltitudeMeters>
            <DistanceMeters>17863.392174983</DistanceMeters>
          </Trackpoint>
          <Trackpoint>
            <Time>2022-11-06T11:30:26.000Z</Time>
            <Position>
              <LatitudeDegrees>41.35427705012261867523193359375</LatitudeDegrees>
              <LongitudeDegrees>-1.657322533428668975830078125</LongitudeDegrees>
            </Position>
            <AltitudeMeters>602</AltitudeMeters>
            <DistanceMeters>17869.297609363</DistanceMeters>
          </Trackpoint>
          <Trackpoint>
            <Time>2022-11-06T11:30:28.000Z</Time>
            <Position>
              <LatitudeDegrees>41.35425408370792865753173828125</LatitudeDegrees>
              <LongitudeDegrees>-1.65715816430747509002685546875</LongitudeDegrees>
            </Position>
            <AltitudeMeters>602.20001220703125</AltitudeMeters>
            <DistanceMeters>17883.266213152</DistanceMeters>
          </Trackpoint>
          <Trackpoint>
            <Time>2022-11-06T11:30:29.000Z</Time>
            <Position>
              <LatitudeDegrees>41.3542355597019195556640625</LatitudeDegrees>
              <LongitudeDegrees>-1.65708205662667751312255859375</LongitudeDegrees>
            </Position>
            <AltitudeMeters>602.20001220703125</AltitudeMeters>
            <DistanceMeters>17889.950584345</DistanceMeters>
          </Trackpoint>
          <Trackpoint>
            <Time>2022-11-06T11:30:30.000Z</Time>
            <Position>
              <LatitudeDegrees>41.354209743440151214599609375</LatitudeDegrees>
              <LongitudeDegrees>-1.657004021108150482177734375</LongitudeDegrees>
            </Position>
            <AltitudeMeters>602.20001220703125</AltitudeMeters>
            <DistanceMeters>17897.075687135</DistanceMeters>
          </Trackpoint>
          <Trackpoint>
            <Time>2022-11-06T11:30:31.000Z</Time>
            <Position>
              <LatitudeDegrees>41.35419641621410846710205078125</LatitudeDegrees>
              <LongitudeDegrees>-1.65692665614187717437744140625</LongitudeDegrees>
            </Position>
            <AltitudeMeters>602</AltitudeMeters>
            <DistanceMeters>17903.70716301</DistanceMeters>
          </Trackpoint>
          <Trackpoint>
            <Time>2022-11-06T11:30:32.000Z</Time>
            <Position>
              <LatitudeDegrees>41.35419205762445926666259765625</LatitudeDegrees>
              <LongitudeDegrees>-1.65684350766241550445556640625</LongitudeDegrees>
            </Position>
            <AltitudeMeters>601.79998779296875</AltitudeMeters>
            <DistanceMeters>17910.670747612</DistanceMeters>
          </Trackpoint>
          <Trackpoint>
            <Time>2022-11-06T11:30:33.000Z</Time>
            <Position>
              <LatitudeDegrees>41.3541944883763790130615234375</LatitudeDegrees>
              <LongitudeDegrees>-1.6567535698413848876953125</LongitudeDegrees>
            </Position>
            <AltitudeMeters>601.4000244140625</AltitudeMeters>
            <DistanceMeters>17918.190477573</DistanceMeters>
          </Trackpoint>
          <Trackpoint>
            <Time>2022-11-06T11:30:35.000Z</Time>
            <Position>
              <LatitudeDegrees>41.3542112521827220916748046875</LatitudeDegrees>
              <LongitudeDegrees>-1.65654829703271389007568359375</LongitudeDegrees>
            </Position>
            <AltitudeMeters>599.4000244140625</AltitudeMeters>
            <DistanceMeters>17935.441948798</DistanceMeters>
          </Trackpoint>
          <Trackpoint>
            <Time>2022-11-06T11:30:36.000Z</Time>
            <Position>
              <LatitudeDegrees>41.35420546866953372955322265625</LatitudeDegrees>
              <LongitudeDegrees>-1.65646950714290142059326171875</LongitudeDegrees>
            </Position>
            <AltitudeMeters>598.5999755859375</AltitudeMeters>
            <DistanceMeters>17942.055698891</DistanceMeters>
          </Trackpoint>
          <Trackpoint>
            <Time>2022-11-06T11:30:37.000Z</Time>
            <Position>
              <LatitudeDegrees>41.354184933006763458251953125</LatitudeDegrees>
              <LongitudeDegrees>-1.65634788572788238525390625</LongitudeDegrees>
            </Position>
            <AltitudeMeters>598</AltitudeMeters>
            <DistanceMeters>17952.470990934</DistanceMeters>
          </Trackpoint>
          <Trackpoint>
            <Time>2022-11-06T11:30:39.000Z</Time>
            <Position>
              <LatitudeDegrees>41.354152746498584747314453125</LatitudeDegrees>
              <LongitudeDegrees>-1.65617060847580432891845703125</LongitudeDegrees>
            </Position>
            <AltitudeMeters>596.5999755859375</AltitudeMeters>
            <DistanceMeters>17967.709080895</DistanceMeters>
          </Trackpoint>
          <Trackpoint>
            <Time>2022-11-06T11:30:40.000Z</Time>
            <Position>
              <LatitudeDegrees>41.35414578951895236968994140625</LatitudeDegrees>
              <LongitudeDegrees>-1.656092070043087005615234375</LongitudeDegrees>
            </Position>
            <AltitudeMeters>596.4000244140625</AltitudeMeters>
            <DistanceMeters>17974.316000717</DistanceMeters>
          </Trackpoint>
          <Trackpoint>
            <Time>2022-11-06T11:30:41.000Z</Time>
            <Position>
              <LatitudeDegrees>41.35414880700409412384033203125</LatitudeDegrees>
              <LongitudeDegrees>-1.6560221649706363677978515625</LongitudeDegrees>
            </Position>
            <AltitudeMeters>596.20001220703125</AltitudeMeters>
            <DistanceMeters>17980.166128042</DistanceMeters>
          </Trackpoint>
          <Trackpoint>
            <Time>2022-11-06T11:30:42.000Z</Time>
            <Position>
              <LatitudeDegrees>41.35415802709758281707763671875</LatitudeDegrees>
              <LongitudeDegrees>-1.6559945046901702880859375</LongitudeDegrees>
            </Position>
            <AltitudeMeters>596.20001220703125</AltitudeMeters>
            <DistanceMeters>17982.694624458</DistanceMeters>
          </Trackpoint>
          <Trackpoint>
            <Time>2022-11-06T11:30:43.000Z</Time>
            <Position>
              <LatitudeDegrees>41.35416942648589611053466796875</LatitudeDegrees>
              <LongitudeDegrees>-1.6559698618948459625244140625</LongitudeDegrees>
            </Position>
            <AltitudeMeters>596</AltitudeMeters>
            <DistanceMeters>17985.111742464</DistanceMeters>
          </Trackpoint>
          <Trackpoint>
            <Time>2022-11-06T11:30:44.000Z</Time>
            <Position>
              <LatitudeDegrees>41.3541851006448268890380859375</LatitudeDegrees>
              <LongitudeDegrees>-1.6559554450213909149169921875</LongitudeDegrees>
            </Position>
            <AltitudeMeters>596</AltitudeMeters>
            <DistanceMeters>17987.234478469</DistanceMeters>
          </Trackpoint>
          <Trackpoint>
            <Time>2022-11-06T11:30:45.000Z</Time>
            <Position>
              <LatitudeDegrees>41.35419859550893306732177734375</LatitudeDegrees>
              <LongitudeDegrees>-1.65594748221337795257568359375</LongitudeDegrees>
            </Position>
            <AltitudeMeters>596</AltitudeMeters>
            <DistanceMeters>17988.880389443</DistanceMeters>
          </Trackpoint>
          <Trackpoint>
            <Time>2022-11-06T11:30:46.000Z</Time>
            <Position>
              <LatitudeDegrees>41.35421033017337322235107421875</LatitudeDegrees>
              <LongitudeDegrees>-1.65594429709017276763916015625</LongitudeDegrees>
            </Position>
            <AltitudeMeters>595.5999755859375</AltitudeMeters>
            <DistanceMeters>17990.217533839</DistanceMeters>
          </Trackpoint>
          <Trackpoint>
            <Time>2022-11-06T11:30:47.000Z</Time>
            <Position>
              <LatitudeDegrees>41.3542196340858936309814453125</LatitudeDegrees>
              <LongitudeDegrees>-1.65594161488115787506103515625</LongitudeDegrees>
            </Position>
            <AltitudeMeters>595.4000244140625</AltitudeMeters>
            <DistanceMeters>17991.275706546</DistanceMeters>
          </Trackpoint>
          <Trackpoint>
            <Time>2022-11-06T11:30:48.000Z</Time>
            <Position>
              <LatitudeDegrees>41.354230530560016632080078125</LatitudeDegrees>
              <LongitudeDegrees>-1.65593725629150867462158203125</LongitudeDegrees>
            </Position>
            <AltitudeMeters>595.20001220703125</AltitudeMeters>
            <DistanceMeters>17992.543521047</DistanceMeters>
          </Trackpoint>
          <Trackpoint>
            <Time>2022-11-06T11:30:49.000Z</Time>
            <Position>
              <LatitudeDegrees>41.35424385778605937957763671875</LatitudeDegrees>
              <LongitudeDegrees>-1.65593055076897144317626953125</LongitudeDegrees>
            </Position>
            <AltitudeMeters>595.20001220703125</AltitudeMeters>
            <DistanceMeters>17994.127933004</DistanceMeters>
          </Trackpoint>
          <Trackpoint>
            <Time>2022-11-06T11:30:50.000Z</Time>
            <Position>
              <LatitudeDegrees>41.3542571850121021270751953125</LatitudeDegrees>
              <LongitudeDegrees>-1.65592770092189311981201171875</LongitudeDegrees>
            </Position>
            <AltitudeMeters>595</AltitudeMeters>
            <DistanceMeters>17995.630437284</DistanceMeters>
          </Trackpoint>
          <Trackpoint>
            <Time>2022-11-06T11:30:52.000Z</Time>
            <Position>
              <LatitudeDegrees>41.3542873598635196685791015625</LatitudeDegrees>
              <LongitudeDegrees>-1.655944548547267913818359375</LongitudeDegrees>
            </Position>
            <AltitudeMeters>594.4000244140625</AltitudeMeters>
            <DistanceMeters>17999.271337203</DistanceMeters>
          </Trackpoint>
          <Trackpoint>
            <Time>2022-11-06T11:30:53.000Z</Time>
            <Position>
              <LatitudeDegrees>41.35430722497403621673583984375</LatitudeDegrees>
              <LongitudeDegrees>-1.65596223436295986175537109375</LongitudeDegrees>
            </Position>
            <AltitudeMeters>594.20001220703125</AltitudeMeters>
            <DistanceMeters>18001.930387758</DistanceMeters>
          </Trackpoint>
          <Trackpoint>
            <Time>2022-11-06T11:30:54.000Z</Time>
            <Position>
              <LatitudeDegrees>41.35433522053062915802001953125</LatitudeDegrees>
              <LongitudeDegrees>-1.6559837758541107177734375</LongitudeDegrees>
            </Position>
            <AltitudeMeters>594</AltitudeMeters>
            <DistanceMeters>18005.528877667</DistanceMeters>
          </Trackpoint>
          <Trackpoint>
            <Time>2022-11-06T11:30:55.000Z</Time>
            <Position>
              <LatitudeDegrees>41.35437964461743831634521484375</LatitudeDegrees>
              <LongitudeDegrees>-1.65600053966045379638671875</LongitudeDegrees>
            </Position>
            <AltitudeMeters>593.79998779296875</AltitudeMeters>
            <DistanceMeters>18010.667354437</DistanceMeters>
          </Trackpoint>
          <Trackpoint>
            <Time>2022-11-06T11:30:56.000Z</Time>
            <Position>
              <LatitudeDegrees>41.3544338755309581756591796875</LatitudeDegrees>
              <LongitudeDegrees>-1.65599458850920200347900390625</LongitudeDegrees>
            </Position>
            <AltitudeMeters>593.20001220703125</AltitudeMeters>
            <DistanceMeters>18016.724515537</DistanceMeters>
          </Trackpoint>
          <Trackpoint>
            <Time>2022-11-06T11:30:57.000Z</Time>
            <Position>
              <LatitudeDegrees>41.3544875197112560272216796875</LatitudeDegrees>
              <LongitudeDegrees>-1.6559648327529430389404296875</LongitudeDegrees>
            </Position>
            <AltitudeMeters>592.20001220703125</AltitudeMeters>
            <DistanceMeters>18023.19261759</DistanceMeters>
          </Trackpoint>
          <Trackpoint>
            <Time>2022-11-06T11:30:58.000Z</Time>
            <Position>
              <LatitudeDegrees>41.3545386493206024169921875</LatitudeDegrees>
              <LongitudeDegrees>-1.65590289048850536346435546875</LongitudeDegrees>
            </Position>
            <AltitudeMeters>591.20001220703125</AltitudeMeters>
            <DistanceMeters>18030.88450038</DistanceMeters>
          </Trackpoint>
          <Trackpoint>
            <Time>2022-11-06T11:30:59.000Z</Time>
            <Position>
              <LatitudeDegrees>41.35459363460540771484375</LatitudeDegrees>
              <LongitudeDegrees>-1.6558119468390941619873046875</LongitudeDegrees>
            </Position>
            <AltitudeMeters>590.4000244140625</AltitudeMeters>
            <DistanceMeters>18040.640370701</DistanceMeters>
          </Trackpoint>
          <Trackpoint>
            <Time>2022-11-06T11:31:00.000Z</Time>
            <Position>
              <LatitudeDegrees>41.35463261045515537261962890625</LatitudeDegrees>
              <LongitudeDegrees>-1.655748747289180755615234375</LongitudeDegrees>
            </Position>
            <AltitudeMeters>589.5999755859375</AltitudeMeters>
            <DistanceMeters>18047.474370655</DistanceMeters>
          </Trackpoint>
          <Trackpoint>
            <Time>2022-11-06T11:31:01.000Z</Time>
            <Position>
              <LatitudeDegrees>41.354667060077190399169921875</LatitudeDegrees>
              <LongitudeDegrees>-1.655714213848114013671875</LongitudeDegrees>
            </Position>
            <AltitudeMeters>589</AltitudeMeters>
            <DistanceMeters>18052.27298451</DistanceMeters>
          </Trackpoint>
          <Trackpoint>
            <Time>2022-11-06T11:31:02.000Z</Time>
            <Position>
              <LatitudeDegrees>41.35469916276633739471435546875</LatitudeDegrees>
              <LongitudeDegrees>-1.65570960380136966705322265625</LongitudeDegrees>
            </Position>
            <AltitudeMeters>588.4000244140625</AltitudeMeters>
            <DistanceMeters>18055.8664521</DistanceMeters>
          </Trackpoint>
          <Trackpoint>
            <Time>2022-11-06T11:31:03.000Z</Time>
            <Position>
              <LatitudeDegrees>41.35471575893461704254150390625</LatitudeDegrees>
              <LongitudeDegrees>-1.65572385303676128387451171875</LongitudeDegrees>
            </Position>
            <AltitudeMeters>588.20001220703125</AltitudeMeters>
            <DistanceMeters>18058.064426371</DistanceMeters>
          </Trackpoint>
          <Trackpoint>
            <Time>2022-11-06T11:31:04.000Z</Time>
            <Position>
              <LatitudeDegrees>41.354722715914249420166015625</LatitudeDegrees>
              <LongitudeDegrees>-1.65575570426881313323974609375</LongitudeDegrees>
            </Position>
            <AltitudeMeters>588</AltitudeMeters>
            <DistanceMeters>18060.834907372</DistanceMeters>
          </Trackpoint>
          <Trackpoint>
            <Time>2022-11-06T11:31:05.000Z</Time>
            <Position>
              <LatitudeDegrees>41.35471777059137821197509765625</LatitudeDegrees>
              <LongitudeDegrees>-1.6557864658534526824951171875</LongitudeDegrees>
            </Position>
            <AltitudeMeters>588.20001220703125</AltitudeMeters>
            <DistanceMeters>18063.464933713</DistanceMeters>
          </Trackpoint>
          <Trackpoint>
            <Time>2022-11-06T11:31:06.000Z</Time>
            <Position>
              <LatitudeDegrees>41.354708634316921234130859375</LatitudeDegrees>
              <LongitudeDegrees>-1.655827201902866363525390625</LongitudeDegrees>
            </Position>
            <AltitudeMeters>588.20001220703125</AltitudeMeters>
            <DistanceMeters>18067.017967188</DistanceMeters>
          </Trackpoint>
          <Trackpoint>
            <Time>2022-11-06T11:31:07.000Z</Time>
            <Position>
              <LatitudeDegrees>41.354705281555652618408203125</LatitudeDegrees>
              <LongitudeDegrees>-1.65586106479167938232421875</LongitudeDegrees>
            </Position>
            <AltitudeMeters>588.4000244140625</AltitudeMeters>
            <DistanceMeters>18069.871934418</DistanceMeters>
          </Trackpoint>
          <Trackpoint>
            <Time>2022-11-06T11:31:09.000Z</Time>
            <Position>
              <LatitudeDegrees>41.35469212196767330169677734375</LatitudeDegrees>
              <LongitudeDegrees>-1.65594982914626598358154296875</LongitudeDegrees>
            </Position>
            <AltitudeMeters>588.79998779296875</AltitudeMeters>
            <DistanceMeters>18077.431188597</DistanceMeters>
          </Trackpoint>
          <Trackpoint>
            <Time>2022-11-06T11:31:12.000Z</Time>
            <Position>
              <LatitudeDegrees>41.3546705804765224456787109375</LatitudeDegrees>
              <LongitudeDegrees>-1.65606650523841381072998046875</LongitudeDegrees>
            </Position>
            <AltitudeMeters>589.5999755859375</AltitudeMeters>
            <DistanceMeters>18087.469896338</DistanceMeters>
          </Trackpoint>
          <Trackpoint>
            <Time>2022-11-06T11:31:16.000Z</Time>
            <Position>
              <LatitudeDegrees>41.35465574450790882110595703125</LatitudeDegrees>
              <LongitudeDegrees>-1.65623548440635204315185546875</LongitudeDegrees>
            </Position>
            <AltitudeMeters>590.20001220703125</AltitudeMeters>
            <DistanceMeters>18101.683936241</DistanceMeters>
          </Trackpoint>
          <Trackpoint>
            <Time>2022-11-06T11:31:18.000Z</Time>
            <Position>
              <LatitudeDegrees>41.3546393997967243194580078125</LatitudeDegrees>
              <LongitudeDegrees>-1.65631293319165706634521484375</LongitudeDegrees>
            </Position>
            <AltitudeMeters>590.4000244140625</AltitudeMeters>
            <DistanceMeters>18108.405355172</DistanceMeters>
          </Trackpoint>
          <Trackpoint>
            <Time>2022-11-06T11:31:19.000Z</Time>
            <Position>
              <LatitudeDegrees>41.35463579557836055755615234375</LatitudeDegrees>
              <LongitudeDegrees>-1.65635752491652965545654296875</LongitudeDegrees>
            </Position>
            <AltitudeMeters>590.5999755859375</AltitudeMeters>
            <DistanceMeters>18112.152590002</DistanceMeters>
          </Trackpoint>
          <Trackpoint>
            <Time>2022-11-06T11:31:22.000Z</Time>
            <Position>
              <LatitudeDegrees>41.354620456695556640625</LatitudeDegrees>
              <LongitudeDegrees>-1.65648241527378559112548828125</LongitudeDegrees>
            </Position>
            <AltitudeMeters>591.5999755859375</AltitudeMeters>
            <DistanceMeters>18122.725779983</DistanceMeters>
          </Trackpoint>
          <Trackpoint>
            <Time>2022-11-06T11:31:24.000Z</Time>
            <Position>
              <LatitudeDegrees>41.3546182774007320404052734375</LatitudeDegrees>
              <LongitudeDegrees>-1.6565683297812938690185546875</LongitudeDegrees>
            </Position>
            <AltitudeMeters>592.4000244140625</AltitudeMeters>
            <DistanceMeters>18129.907687574</DistanceMeters>
          </Trackpoint>
          <Trackpoint>
            <Time>2022-11-06T11:31:25.000Z</Time>
            <Position>
              <LatitudeDegrees>41.35462037287652492523193359375</LatitudeDegrees>
              <LongitudeDegrees>-1.65660671889781951904296875</LongitudeDegrees>
            </Position>
            <AltitudeMeters>592.5999755859375</AltitudeMeters>
            <DistanceMeters>18133.121782696</DistanceMeters>
          </Trackpoint>
          <Trackpoint>
            <Time>2022-11-06T11:31:26.000Z</Time>
            <Position>
              <LatitudeDegrees>41.35462590493261814117431640625</LatitudeDegrees>
              <LongitudeDegrees>-1.65664787404239177703857421875</LongitudeDegrees>
            </Position>
            <AltitudeMeters>593</AltitudeMeters>
            <DistanceMeters>18136.614580038</DistanceMeters>
          </Trackpoint>
          <Trackpoint>
            <Time>2022-11-06T11:31:29.000Z</Time>
            <Position>
              <LatitudeDegrees>41.35465540923178195953369140625</LatitudeDegrees>
              <LongitudeDegrees>-1.656760610640048980712890625</LongitudeDegrees>
            </Position>
            <AltitudeMeters>593.79998779296875</AltitudeMeters>
            <DistanceMeters>18146.589216987</DistanceMeters>
          </Trackpoint>
          <Trackpoint>
            <Time>2022-11-06T11:31:31.000Z</Time>
            <Position>
              <LatitudeDegrees>41.3546839915215969085693359375</LatitudeDegrees>
              <LongitudeDegrees>-1.6568442620337009429931640625</LongitudeDegrees>
            </Position>
            <AltitudeMeters>594.20001220703125</AltitudeMeters>
            <DistanceMeters>18154.268175196</DistanceMeters>
          </Trackpoint>
          <Trackpoint>
            <Time>2022-11-06T11:31:32.000Z</Time>
            <Position>
              <LatitudeDegrees>41.35469933040440082550048828125</LatitudeDegrees>
              <LongitudeDegrees>-1.656885333359241485595703125</LongitudeDegrees>
            </Position>
            <AltitudeMeters>594.4000244140625</AltitudeMeters>
            <DistanceMeters>18158.100002998</DistanceMeters>
          </Trackpoint>
          <Trackpoint>
            <Time>2022-11-06T11:31:33.000Z</Time>
            <Position>
              <LatitudeDegrees>41.354712657630443572998046875</LatitudeDegrees>
              <LongitudeDegrees>-1.6569166816771030426025390625</LongitudeDegrees>
            </Position>
            <AltitudeMeters>594.5999755859375</AltitudeMeters>
            <DistanceMeters>18161.109515695</DistanceMeters>
          </Trackpoint>
          <Trackpoint>
            <Time>2022-11-06T11:31:34.000Z</Time>
            <Position>
              <LatitudeDegrees>41.35473109781742095947265625</LatitudeDegrees>
              <LongitudeDegrees>-1.6569656319916248321533203125</LongitudeDegrees>
            </Position>
            <AltitudeMeters>594.79998779296875</AltitudeMeters>
            <DistanceMeters>18165.68562182</DistanceMeters>
          </Trackpoint>
          <Trackpoint>
            <Time>2022-11-06T11:31:35.000Z</Time>
            <Position>
              <LatitudeDegrees>41.35474325157701969146728515625</LatitudeDegrees>
              <LongitudeDegrees>-1.65699840523302555084228515625</LongitudeDegrees>
            </Position>
            <AltitudeMeters>595</AltitudeMeters>
            <DistanceMeters>18168.74128853</DistanceMeters>
          </Trackpoint>
          <Trackpoint>
            <Time>2022-11-06T11:31:36.000Z</Time>
            <Position>
              <LatitudeDegrees>41.35476420633494853973388671875</LatitudeDegrees>
              <LongitudeDegrees>-1.65704660117626190185546875</LongitudeDegrees>
            </Position>
            <AltitudeMeters>595.20001220703125</AltitudeMeters>
            <DistanceMeters>18173.394687644</DistanceMeters>
          </Trackpoint>
          <Trackpoint>
            <Time>2022-11-06T11:31:37.000Z</Time>
            <Position>
              <LatitudeDegrees>41.35478164069354534149169921875</LatitudeDegrees>
              <LongitudeDegrees>-1.65708406828343868255615234375</LongitudeDegrees>
            </Position>
            <AltitudeMeters>595.20001220703125</AltitudeMeters>
            <DistanceMeters>18177.077509228</DistanceMeters>
          </Trackpoint>
          <Trackpoint>
            <Time>2022-11-06T11:31:38.000Z</Time>
            <Position>
              <LatitudeDegrees>41.3547986559569835662841796875</LatitudeDegrees>
              <LongitudeDegrees>-1.65712178684771060943603515625</LongitudeDegrees>
            </Position>
            <AltitudeMeters>595.4000244140625</AltitudeMeters>
            <DistanceMeters>18180.755423652</DistanceMeters>
          </Trackpoint>
          <Trackpoint>
            <Time>2022-11-06T11:31:39.000Z</Time>
            <Position>
              <LatitudeDegrees>41.35481567122042179107666015625</LatitudeDegrees>
              <LongitudeDegrees>-1.65716218762099742889404296875</LongitudeDegrees>
            </Position>
            <AltitudeMeters>595.4000244140625</AltitudeMeters>
            <DistanceMeters>18184.625940003</DistanceMeters>
          </Trackpoint>
          <Trackpoint>
            <Time>2022-11-06T11:31:40.000Z</Time>
            <Position>
              <LatitudeDegrees>41.35483193211257457733154296875</LatitudeDegrees>
              <LongitudeDegrees>-1.65720309130847454071044921875</LongitudeDegrees>
            </Position>
            <AltitudeMeters>595.4000244140625</AltitudeMeters>
            <DistanceMeters>18188.492955207</DistanceMeters>
          </Trackpoint>
          <Trackpoint>
            <Time>2022-11-06T11:31:41.000Z</Time>
            <Position>
              <LatitudeDegrees>41.35484534315764904022216796875</LatitudeDegrees>
              <LongitudeDegrees>-1.657246090471744537353515625</LongitudeDegrees>
            </Position>
            <AltitudeMeters>595.5999755859375</AltitudeMeters>
            <DistanceMeters>18192.38325187</DistanceMeters>
          </Trackpoint>
          <Trackpoint>
            <Time>2022-11-06T11:31:42.000Z</Time>
            <Position>
              <LatitudeDegrees>41.35485540144145488739013671875</LatitudeDegrees>
              <LongitudeDegrees>-1.65728255175054073333740234375</LongitudeDegrees>
            </Position>
            <AltitudeMeters>595.5999755859375</AltitudeMeters>
            <DistanceMeters>18195.630886284</DistanceMeters>
          </Trackpoint>
          <Trackpoint>
            <Time>2022-11-06T11:31:43.000Z</Time>
            <Position>
              <LatitudeDegrees>41.354863531887531280517578125</LatitudeDegrees>
              <LongitudeDegrees>-1.6573260538280010223388671875</LongitudeDegrees>
            </Position>
            <AltitudeMeters>595.5999755859375</AltitudeMeters>
            <DistanceMeters>18199.376916021</DistanceMeters>
          </Trackpoint>
          <Trackpoint>
            <Time>2022-11-06T11:31:44.000Z</Time>
            <Position>
              <LatitudeDegrees>41.35487484745681285858154296875</LatitudeDegrees>
              <LongitudeDegrees>-1.65738078765571117401123046875</LongitudeDegrees>
            </Position>
            <AltitudeMeters>596</AltitudeMeters>
            <DistanceMeters>18204.120643511</DistanceMeters>
          </Trackpoint>
          <Trackpoint>
            <Time>2022-11-06T11:31:45.000Z</Time>
            <Position>
              <LatitudeDegrees>41.354886330664157867431640625</LatitudeDegrees>
              <LongitudeDegrees>-1.65742604993283748626708984375</LongitudeDegrees>
            </Position>
            <AltitudeMeters>596</AltitudeMeters>
            <DistanceMeters>18208.112896625</DistanceMeters>
          </Trackpoint>
          <Trackpoint>
            <Time>2022-11-06T11:31:46.000Z</Time>
            <Position>
              <LatitudeDegrees>41.35489664040505886077880859375</LatitudeDegrees>
              <LongitudeDegrees>-1.65747307240962982177734375</LongitudeDegrees>
            </Position>
            <AltitudeMeters>596.20001220703125</AltitudeMeters>
            <DistanceMeters>18212.205669744</DistanceMeters>
          </Trackpoint>
          <Trackpoint>
            <Time>2022-11-06T11:31:47.000Z</Time>
            <Position>
              <LatitudeDegrees>41.35490787215530872344970703125</LatitudeDegrees>
              <LongitudeDegrees>-1.657522358000278472900390625</LongitudeDegrees>
            </Position>
            <AltitudeMeters>596.20001220703125</AltitudeMeters>
            <DistanceMeters>18216.508187229</DistanceMeters>
          </Trackpoint>
          <Trackpoint>
            <Time>2022-11-06T11:31:48.000Z</Time>
            <Position>
              <LatitudeDegrees>41.35491885244846343994140625</LatitudeDegrees>
              <LongitudeDegrees>-1.65757499635219573974609375</LongitudeDegrees>
            </Position>
            <AltitudeMeters>596.20001220703125</AltitudeMeters>
            <DistanceMeters>18221.073427248</DistanceMeters>
          </Trackpoint>
          <Trackpoint>
            <Time>2022-11-06T11:31:49.000Z</Time>
            <Position>
              <LatitudeDegrees>41.3549297489225864410400390625</LatitudeDegrees>
              <LongitudeDegrees>-1.6576274670660495758056640625</LongitudeDegrees>
            </Position>
            <AltitudeMeters>596.20001220703125</AltitudeMeters>
            <DistanceMeters>18225.622815691</DistanceMeters>
          </Trackpoint>
          <Trackpoint>
            <Time>2022-11-06T11:31:50.000Z</Time>
            <Position>
              <LatitudeDegrees>41.35493720881640911102294921875</LatitudeDegrees>
              <LongitudeDegrees>-1.65766417980194091796875</LongitudeDegrees>
            </Position>
            <AltitudeMeters>596.20001220703125</AltitudeMeters>
            <DistanceMeters>18228.800177091</DistanceMeters>
          </Trackpoint>
          <Trackpoint>
            <Time>2022-11-06T11:31:51.000Z</Time>
            <Position>
              <LatitudeDegrees>41.35494894348084926605224609375</LatitudeDegrees>
              <LongitudeDegrees>-1.65772025473415851593017578125</LongitudeDegrees>
            </Position>
            <AltitudeMeters>596.20001220703125</AltitudeMeters>
            <DistanceMeters>18233.66420837</DistanceMeters>
          </Trackpoint>
          <Trackpoint>
            <Time>2022-11-06T11:31:52.000Z</Time>
            <Position>
              <LatitudeDegrees>41.3549579121172428131103515625</LatitudeDegrees>
              <LongitudeDegrees>-1.65776937268674373626708984375</LongitudeDegrees>
            </Position>
            <AltitudeMeters>596</AltitudeMeters>
            <DistanceMeters>18237.88835693</DistanceMeters>
          </Trackpoint>
          <Trackpoint>
            <Time>2022-11-06T11:31:53.000Z</Time>
            <Position>
              <LatitudeDegrees>41.3549649529159069061279296875</LatitudeDegrees>
              <LongitudeDegrees>-1.65780977346003055572509765625</LongitudeDegrees>
            </Position>
            <AltitudeMeters>596</AltitudeMeters>
            <DistanceMeters>18241.353901861</DistanceMeters>
          </Trackpoint>
          <Trackpoint>
            <Time>2022-11-06T11:31:54.000Z</Time>
            <Position>
              <LatitudeDegrees>41.35497962124645709991455078125</LatitudeDegrees>
              <LongitudeDegrees>-1.657865680754184722900390625</LongitudeDegrees>
            </Position>
            <AltitudeMeters>596.20001220703125</AltitudeMeters>
            <DistanceMeters>18246.301682903</DistanceMeters>
          </Trackpoint>
          <Trackpoint>
            <Time>2022-11-06T11:31:55.000Z</Time>
            <Position>
              <LatitudeDegrees>41.3549921102821826934814453125</LatitudeDegrees>
              <LongitudeDegrees>-1.657905243337154388427734375</LongitudeDegrees>
            </Position>
            <AltitudeMeters>596.20001220703125</AltitudeMeters>
            <DistanceMeters>18249.887603825</DistanceMeters>
          </Trackpoint>
          <Trackpoint>
            <Time>2022-11-06T11:31:56.000Z</Time>
            <Position>
              <LatitudeDegrees>41.35500602424144744873046875</LatitudeDegrees>
              <LongitudeDegrees>-1.65794757194817066192626953125</LongitudeDegrees>
            </Position>
            <AltitudeMeters>596.20001220703125</AltitudeMeters>
            <DistanceMeters>18253.74760721</DistanceMeters>
          </Trackpoint>
          <Trackpoint>
            <Time>2022-11-06T11:31:57.000Z</Time>
            <Position>
              <LatitudeDegrees>41.35501750744879245758056640625</LatitudeDegrees>
              <LongitudeDegrees>-1.6579954326152801513671875</LongitudeDegrees>
            </Position>
            <AltitudeMeters>596.4000244140625</AltitudeMeters>
            <DistanceMeters>18257.944949123</DistanceMeters>
          </Trackpoint>
          <Trackpoint>
            <Time>2022-11-06T11:31:58.000Z</Time>
            <Position>
              <LatitudeDegrees>41.35503091849386692047119140625</LatitudeDegrees>
              <LongitudeDegrees>-1.65804438292980194091796875</LongitudeDegrees>
            </Position>
            <AltitudeMeters>596.4000244140625</AltitudeMeters>
            <DistanceMeters>18262.29858329</DistanceMeters>
          </Trackpoint>
          <Trackpoint>
            <Time>2022-11-06T11:31:59.000Z</Time>
            <Position>
              <LatitudeDegrees>41.35504516772925853729248046875</LatitudeDegrees>
              <LongitudeDegrees>-1.65809844620525836944580078125</LongitudeDegrees>
            </Position>
            <AltitudeMeters>596.20001220703125</AltitudeMeters>
            <DistanceMeters>18267.085892974</DistanceMeters>
          </Trackpoint>
          <Trackpoint>
            <Time>2022-11-06T11:32:01.000Z</Time>
            <Position>
              <LatitudeDegrees>41.3550658710300922393798828125</LatitudeDegrees>
              <LongitudeDegrees>-1.658203303813934326171875</LongitudeDegrees>
            </Position>
            <AltitudeMeters>596</AltitudeMeters>
            <DistanceMeters>18276.143888038</DistanceMeters>
          </Trackpoint>
          <Trackpoint>
            <Time>2022-11-06T11:32:08.000Z</Time>
            <Position>
              <LatitudeDegrees>41.35503343306481838226318359375</LatitudeDegrees>
              <LongitudeDegrees>-1.6586272604763507843017578125</LongitudeDegrees>
            </Position>
            <AltitudeMeters>596.20001220703125</AltitudeMeters>
            <DistanceMeters>18311.747596708</DistanceMeters>
          </Trackpoint>
          <Trackpoint>
            <Time>2022-11-06T11:32:11.000Z</Time>
            <Position>
              <LatitudeDegrees>41.35500074364244937896728515625</LatitudeDegrees>
              <LongitudeDegrees>-1.658801101148128509521484375</LongitudeDegrees>
            </Position>
            <AltitudeMeters>596.4000244140625</AltitudeMeters>
            <DistanceMeters>18326.72026106</DistanceMeters>
          </Trackpoint>
          <Trackpoint>
            <Time>2022-11-06T11:32:14.000Z</Time>
            <Position>
              <LatitudeDegrees>41.354998983442783355712890625</LatitudeDegrees>
              <LongitudeDegrees>-1.65896647609770298004150390625</LongitudeDegrees>
            </Position>
            <AltitudeMeters>596.79998779296875</AltitudeMeters>
            <DistanceMeters>18340.538073344</DistanceMeters>
          </Trackpoint>
          <Trackpoint>
            <Time>2022-11-06T11:32:15.000Z</Time>
            <Position>
              <LatitudeDegrees>41.35500342585146427154541015625</LatitudeDegrees>
              <LongitudeDegrees>-1.65902464650571346282958984375</LongitudeDegrees>
            </Position>
            <AltitudeMeters>596.79998779296875</AltitudeMeters>
            <DistanceMeters>18345.424331843</DistanceMeters>
          </Trackpoint>
          <Trackpoint>
            <Time>2022-11-06T11:32:16.000Z</Time>
            <Position>
              <LatitudeDegrees>41.355012394487857818603515625</LatitudeDegrees>
              <LongitudeDegrees>-1.65909136645495891571044921875</LongitudeDegrees>
            </Position>
            <AltitudeMeters>597</AltitudeMeters>
            <DistanceMeters>18351.086201797</DistanceMeters>
          </Trackpoint>
          <Trackpoint>
            <Time>2022-11-06T11:32:17.000Z</Time>
            <Position>
              <LatitudeDegrees>41.3550246320664882659912109375</LatitudeDegrees>
              <LongitudeDegrees>-1.65913294069468975067138671875</LongitudeDegrees>
            </Position>
            <AltitudeMeters>597.20001220703125</AltitudeMeters>
            <DistanceMeters>18354.817740069</DistanceMeters>
          </Trackpoint>
          <Trackpoint>
            <Time>2022-11-06T11:32:18.000Z</Time>
            <Position>
              <LatitudeDegrees>41.355042569339275360107421875</LatitudeDegrees>
              <LongitudeDegrees>-1.6591811366379261016845703125</LongitudeDegrees>
            </Position>
            <AltitudeMeters>597.79998779296875</AltitudeMeters>
            <DistanceMeters>18359.313216805</DistanceMeters>
          </Trackpoint>
          <Trackpoint>
            <Time>2022-11-06T11:32:19.000Z</Time>
            <Position>
              <LatitudeDegrees>41.35506570339202880859375</LatitudeDegrees>
              <LongitudeDegrees>-1.65922782383859157562255859375</LongitudeDegrees>
            </Position>
            <AltitudeMeters>598</AltitudeMeters>
            <DistanceMeters>18363.987913051</DistanceMeters>
          </Trackpoint>
          <Trackpoint>
            <Time>2022-11-06T11:32:21.000Z</Time>
            <Position>
              <LatitudeDegrees>41.35511306114494800567626953125</LatitudeDegrees>
              <LongitudeDegrees>-1.65931298397481441497802734375</LongitudeDegrees>
            </Position>
            <AltitudeMeters>598.20001220703125</AltitudeMeters>
            <DistanceMeters>18372.842241015</DistanceMeters>
          </Trackpoint>
          <Trackpoint>
            <Time>2022-11-06T11:32:22.000Z</Time>
            <Position>
              <LatitudeDegrees>41.3551392965018749237060546875</LatitudeDegrees>
              <LongitudeDegrees>-1.65935464203357696533203125</LongitudeDegrees>
            </Position>
            <AltitudeMeters>598.4000244140625</AltitudeMeters>
            <DistanceMeters>18377.386664502</DistanceMeters>
          </Trackpoint>
          <Trackpoint>
            <Time>2022-11-06T11:32:23.000Z</Time>
            <Position>
              <LatitudeDegrees>41.35516293346881866455078125</LatitudeDegrees>
              <LongitudeDegrees>-1.65938775055110454559326171875</LongitudeDegrees>
            </Position>
            <AltitudeMeters>598.4000244140625</AltitudeMeters>
            <DistanceMeters>18381.204326532</DistanceMeters>
          </Trackpoint>
          <Trackpoint>
            <Time>2022-11-06T11:32:24.000Z</Time>
            <Position>
              <LatitudeDegrees>41.35518162511289119720458984375</LatitudeDegrees>
              <LongitudeDegrees>-1.65941390208899974822998046875</LongitudeDegrees>
            </Position>
            <AltitudeMeters>598.79998779296875</AltitudeMeters>
            <DistanceMeters>18384.221331182</DistanceMeters>
          </Trackpoint>
          <Trackpoint>
            <Time>2022-11-06T11:32:25.000Z</Time>
            <Position>
              <LatitudeDegrees>41.3552043400704860687255859375</LatitudeDegrees>
              <LongitudeDegrees>-1.65945329703390598297119140625</LongitudeDegrees>
            </Position>
            <AltitudeMeters>599.20001220703125</AltitudeMeters>
            <DistanceMeters>18388.37216072</DistanceMeters>
          </Trackpoint>
          <Trackpoint>
            <Time>2022-11-06T11:32:26.000Z</Time>
            <Position>
              <LatitudeDegrees>41.355226971209049224853515625</LatitudeDegrees>
              <LongitudeDegrees>-1.65949554182589054107666015625</LongitudeDegrees>
            </Position>
            <AltitudeMeters>599.4000244140625</AltitudeMeters>
            <DistanceMeters>18392.708128796</DistanceMeters>
          </Trackpoint>
          <Trackpoint>
            <Time>2022-11-06T11:32:27.000Z</Time>
            <Position>
              <LatitudeDegrees>41.35524901561439037322998046875</LatitudeDegrees>
              <LongitudeDegrees>-1.65953896008431911468505859375</LongitudeDegrees>
            </Position>
            <AltitudeMeters>599.4000244140625</AltitudeMeters>
            <DistanceMeters>18397.086581981</DistanceMeters>
          </Trackpoint>
          <Trackpoint>
            <Time>2022-11-06T11:32:28.000Z</Time>
            <Position>
              <LatitudeDegrees>41.35526829399168491363525390625</LatitudeDegrees>
              <LongitudeDegrees>-1.65958606638014316558837890625</LongitudeDegrees>
            </Position>
            <AltitudeMeters>599.5999755859375</AltitudeMeters>
            <DistanceMeters>18401.567975739</DistanceMeters>
          </Trackpoint>
          <Trackpoint>
            <Time>2022-11-06T11:32:29.000Z</Time>
            <Position>
              <LatitudeDegrees>41.35528908111155033111572265625</LatitudeDegrees>
              <LongitudeDegrees>-1.6596431471407413482666015625</LongitudeDegrees>
            </Position>
            <AltitudeMeters>599.5999755859375</AltitudeMeters>
            <DistanceMeters>18406.86821798</DistanceMeters>
          </Trackpoint>
          <Trackpoint>
            <Time>2022-11-06T11:32:30.000Z</Time>
            <Position>
              <LatitudeDegrees>41.35530584491789340972900390625</LatitudeDegrees>
              <LongitudeDegrees>-1.659690923988819122314453125</LongitudeDegrees>
            </Position>
            <AltitudeMeters>599.79998779296875</AltitudeMeters>
            <DistanceMeters>18411.273400641</DistanceMeters>
          </Trackpoint>
          <Trackpoint>
            <Time>2022-11-06T11:32:31.000Z</Time>
            <Position>
              <LatitudeDegrees>41.3553240336477756500244140625</LatitudeDegrees>
              <LongitudeDegrees>-1.65973828174173831939697265625</LongitudeDegrees>
            </Position>
            <AltitudeMeters>599.79998779296875</AltitudeMeters>
            <DistanceMeters>18415.718376148</DistanceMeters>
          </Trackpoint>
          <Trackpoint>
            <Time>2022-11-06T11:32:32.000Z</Time>
            <Position>
              <LatitudeDegrees>41.35534037835896015167236328125</LatitudeDegrees>
              <LongitudeDegrees>-1.6597879864275455474853515625</LongitudeDegrees>
            </Position>
            <AltitudeMeters>600</AltitudeMeters>
            <DistanceMeters>18420.249865289</DistanceMeters>
          </Trackpoint>
          <Trackpoint>
            <Time>2022-11-06T11:32:33.000Z</Time>
            <Position>
              <LatitudeDegrees>41.3553575612604618072509765625</LatitudeDegrees>
              <LongitudeDegrees>-1.6598381102085113525390625</LongitudeDegrees>
            </Position>
            <AltitudeMeters>600.20001220703125</AltitudeMeters>
            <DistanceMeters>18424.852534008</DistanceMeters>
          </Trackpoint>
          <Trackpoint>
            <Time>2022-11-06T11:32:34.000Z</Time>
            <Position>
              <LatitudeDegrees>41.35537139140069484710693359375</LatitudeDegrees>
              <LongitudeDegrees>-1.6598768346011638641357421875</LongitudeDegrees>
            </Position>
            <AltitudeMeters>600.4000244140625</AltitudeMeters>
            <DistanceMeters>18428.435935842</DistanceMeters>
          </Trackpoint>
          <Trackpoint>
            <Time>2022-11-06T11:32:35.000Z</Time>
            <Position>
              <LatitudeDegrees>41.3553894124925136566162109375</LatitudeDegrees>
              <LongitudeDegrees>-1.659923605620861053466796875</LongitudeDegrees>
            </Position>
            <AltitudeMeters>600.5999755859375</AltitudeMeters>
            <DistanceMeters>18432.8277741</DistanceMeters>
          </Trackpoint>
          <Trackpoint>
            <Time>2022-11-06T11:32:36.000Z</Time>
            <Position>
              <LatitudeDegrees>41.35540726594626903533935546875</LatitudeDegrees>
              <LongitudeDegrees>-1.65996710769832134246826171875</LongitudeDegrees>
            </Position>
            <AltitudeMeters>600.5999755859375</AltitudeMeters>
            <DistanceMeters>18436.969892549</DistanceMeters>
          </Trackpoint>
          <Trackpoint>
            <Time>2022-11-06T11:32:37.000Z</Time>
            <Position>
              <LatitudeDegrees>41.3554252870380878448486328125</LatitudeDegrees>
              <LongitudeDegrees>-1.6600163094699382781982421875</LongitudeDegrees>
            </Position>
            <AltitudeMeters>600.79998779296875</AltitudeMeters>
            <DistanceMeters>18441.543037751</DistanceMeters>
          </Trackpoint>
          <Trackpoint>
            <Time>2022-11-06T11:32:38.000Z</Time>
            <Position>
              <LatitudeDegrees>41.35544188320636749267578125</LatitudeDegrees>
              <LongitudeDegrees>-1.660063751041889190673828125</LongitudeDegrees>
            </Position>
            <AltitudeMeters>600.79998779296875</AltitudeMeters>
            <DistanceMeters>18445.916331923</DistanceMeters>
          </Trackpoint>
          <Trackpoint>
            <Time>2022-11-06T11:32:39.000Z</Time>
            <Position>
              <LatitudeDegrees>41.355457641184329986572265625</LatitudeDegrees>
              <LongitudeDegrees>-1.66011278517544269561767578125</LongitudeDegrees>
            </Position>
            <AltitudeMeters>601</AltitudeMeters>
            <DistanceMeters>18450.371453472</DistanceMeters>
          </Trackpoint>
          <Trackpoint>
            <Time>2022-11-06T11:32:40.000Z</Time>
            <Position>
              <LatitudeDegrees>41.35546845383942127227783203125</LatitudeDegrees>
              <LongitudeDegrees>-1.66017271578311920166015625</LongitudeDegrees>
            </Position>
            <AltitudeMeters>601</AltitudeMeters>
            <DistanceMeters>18455.520463517</DistanceMeters>
          </Trackpoint>
          <Trackpoint>
            <Time>2022-11-06T11:32:41.000Z</Time>
            <Position>
              <LatitudeDegrees>41.3554715551435947418212890625</LatitudeDegrees>
              <LongitudeDegrees>-1.6602163016796112060546875</LongitudeDegrees>
            </Position>
            <AltitudeMeters>601.20001220703125</AltitudeMeters>
            <DistanceMeters>18459.178683479</DistanceMeters>
          </Trackpoint>
          <Trackpoint>
            <Time>2022-11-06T11:32:42.000Z</Time>
            <Position>
              <LatitudeDegrees>41.35547314770519733428955078125</LatitudeDegrees>
              <LongitudeDegrees>-1.6602721251547336578369140625</LongitudeDegrees>
            </Position>
            <AltitudeMeters>601.20001220703125</AltitudeMeters>
            <DistanceMeters>18463.846613905</DistanceMeters>
          </Trackpoint>
          <Trackpoint>
            <Time>2022-11-06T11:32:43.000Z</Time>
            <Position>
              <LatitudeDegrees>41.35546811856329441070556640625</LatitudeDegrees>
              <LongitudeDegrees>-1.66032786481082439422607421875</LongitudeDegrees>
            </Position>
            <AltitudeMeters>601.20001220703125</AltitudeMeters>
            <DistanceMeters>18468.536738233</DistanceMeters>
          </Trackpoint>
          <Trackpoint>
            <Time>2022-11-06T11:32:44.000Z</Time>
            <Position>
              <LatitudeDegrees>41.3554554618895053863525390625</LatitudeDegrees>
              <LongitudeDegrees>-1.66039542295038700103759765625</LongitudeDegrees>
            </Position>
            <AltitudeMeters>601.20001220703125</AltitudeMeters>
            <DistanceMeters>18474.3543603</DistanceMeters>
          </Trackpoint>
          <Trackpoint>
            <Time>2022-11-06T11:32:45.000Z</Time>
            <Position>
              <LatitudeDegrees>41.35544297285377979278564453125</LatitudeDegrees>
              <LongitudeDegrees>-1.6604481451213359832763671875</LongitudeDegrees>
            </Position>
            <AltitudeMeters>601.20001220703125</AltitudeMeters>
            <DistanceMeters>18478.972697724</DistanceMeters>
          </Trackpoint>
          <Trackpoint>
            <Time>2022-11-06T11:32:46.000Z</Time>
            <Position>
              <LatitudeDegrees>41.355427801609039306640625</LatitudeDegrees>
              <LongitudeDegrees>-1.6604981012642383575439453125</LongitudeDegrees>
            </Position>
            <AltitudeMeters>601.20001220703125</AltitudeMeters>
            <DistanceMeters>18483.476202103</DistanceMeters>
          </Trackpoint>
          <Trackpoint>
            <Time>2022-11-06T11:32:47.000Z</Time>
            <Position>
              <LatitudeDegrees>41.35541237890720367431640625</LatitudeDegrees>
              <LongitudeDegrees>-1.6605440340936183929443359375</LongitudeDegrees>
            </Position>
            <AltitudeMeters>601.20001220703125</AltitudeMeters>
            <DistanceMeters>18487.681067104</DistanceMeters>
          </Trackpoint>
          <Trackpoint>
            <Time>2022-11-06T11:32:48.000Z</Time>
            <Position>
              <LatitudeDegrees>41.35539502836763858795166015625</LatitudeDegrees>
              <LongitudeDegrees>-1.6605903021991252899169921875</LongitudeDegrees>
            </Position>
            <AltitudeMeters>601.20001220703125</AltitudeMeters>
            <DistanceMeters>18492.002432408</DistanceMeters>
          </Trackpoint>
          <Trackpoint>
            <Time>2022-11-06T11:32:49.000Z</Time>
            <Position>
              <LatitudeDegrees>41.3553813658654689788818359375</LatitudeDegrees>
              <LongitudeDegrees>-1.66062860749661922454833984375</LongitudeDegrees>
            </Position>
            <AltitudeMeters>601.20001220703125</AltitudeMeters>
            <DistanceMeters>18495.544010612</DistanceMeters>
          </Trackpoint>
          <Trackpoint>
            <Time>2022-11-06T11:32:50.000Z</Time>
            <Position>
              <LatitudeDegrees>41.3553647696971893310546875</LatitudeDegrees>
              <LongitudeDegrees>-1.660677306354045867919921875</LongitudeDegrees>
            </Position>
            <AltitudeMeters>601.4000244140625</AltitudeMeters>
            <DistanceMeters>18500.013297926</DistanceMeters>
          </Trackpoint>
          <Trackpoint>
            <Time>2022-11-06T11:32:51.000Z</Time>
            <Position>
              <LatitudeDegrees>41.35534423403441905975341796875</LatitudeDegrees>
              <LongitudeDegrees>-1.6607334651052951812744140625</LongitudeDegrees>
            </Position>
            <AltitudeMeters>601.5999755859375</AltitudeMeters>
            <DistanceMeters>18505.23371656</DistanceMeters>
          </Trackpoint>
          <Trackpoint>
            <Time>2022-11-06T11:32:52.000Z</Time>
            <Position>
              <LatitudeDegrees>41.35532378219068050384521484375</LatitudeDegrees>
              <LongitudeDegrees>-1.66078082285821437835693359375</LongitudeDegrees>
            </Position>
            <AltitudeMeters>601.5999755859375</AltitudeMeters>
            <DistanceMeters>18509.798956579</DistanceMeters>
          </Trackpoint>
          <Trackpoint>
            <Time>2022-11-06T11:32:53.000Z</Time>
            <Position>
              <LatitudeDegrees>41.3553052581846714019775390625</LatitudeDegrees>
              <LongitudeDegrees>-1.66082893498241901397705078125</LongitudeDegrees>
            </Position>
            <AltitudeMeters>601.79998779296875</AltitudeMeters>
            <DistanceMeters>18514.316475009</DistanceMeters>
          </Trackpoint>
          <Trackpoint>
            <Time>2022-11-06T11:32:54.000Z</Time>
            <Position>
              <LatitudeDegrees>41.35528656654059886932373046875</LatitudeDegrees>
              <LongitudeDegrees>-1.66087738238275051116943359375</LongitudeDegrees>
            </Position>
            <AltitudeMeters>601.79998779296875</AltitudeMeters>
            <DistanceMeters>18518.866855793</DistanceMeters>
          </Trackpoint>
          <Trackpoint>
            <Time>2022-11-06T11:32:57.000Z</Time>
            <Position>
              <LatitudeDegrees>41.355230994522571563720703125</LatitudeDegrees>
              <LongitudeDegrees>-1.66101920418441295623779296875</LongitudeDegrees>
            </Position>
            <AltitudeMeters>602.20001220703125</AltitudeMeters>
            <DistanceMeters>18532.232896058</DistanceMeters>
          </Trackpoint>
          <Trackpoint>
            <Time>2022-11-06T11:32:58.000Z</Time>
            <Position>
              <LatitudeDegrees>41.35521523654460906982421875</LatitudeDegrees>
              <LongitudeDegrees>-1.66106362827122211456298828125</LongitudeDegrees>
            </Position>
            <AltitudeMeters>602.4000244140625</AltitudeMeters>
            <DistanceMeters>18536.336686083</DistanceMeters>
          </Trackpoint>
          <Trackpoint>
            <Time>2022-11-06T11:33:00.000Z</Time>
            <Position>
              <LatitudeDegrees>41.35517978109419345855712890625</LatitudeDegrees>
              <LongitudeDegrees>-1.6611522249877452850341796875</LongitudeDegrees>
            </Position>
            <AltitudeMeters>602.5999755859375</AltitudeMeters>
            <DistanceMeters>18544.723836702</DistanceMeters>
          </Trackpoint>
          <Trackpoint>
            <Time>2022-11-06T11:33:01.000Z</Time>
            <Position>
              <LatitudeDegrees>41.3551634363830089569091796875</LatitudeDegrees>
              <LongitudeDegrees>-1.66119622997939586639404296875</LongitudeDegrees>
            </Position>
            <AltitudeMeters>602.79998779296875</AltitudeMeters>
            <DistanceMeters>18548.824324763</DistanceMeters>
          </Trackpoint>
          <Trackpoint>
            <Time>2022-11-06T11:33:06.000Z</Time>
            <Position>
              <LatitudeDegrees>41.35509428568184375762939453125</LatitudeDegrees>
              <LongitudeDegrees>-1.66140653192996978759765625</LongitudeDegrees>
            </Position>
            <AltitudeMeters>603.79998779296875</AltitudeMeters>
            <DistanceMeters>18568.006073765</DistanceMeters>
          </Trackpoint>
          <Trackpoint>
            <Time>2022-11-06T11:33:07.000Z</Time>
            <Position>
              <LatitudeDegrees>41.3550866581499576568603515625</LatitudeDegrees>
              <LongitudeDegrees>-1.66144098155200481414794921875</LongitudeDegrees>
            </Position>
            <AltitudeMeters>604</AltitudeMeters>
            <DistanceMeters>18571.006571426</DistanceMeters>
          </Trackpoint>
          <Trackpoint>
            <Time>2022-11-06T11:33:08.000Z</Time>
            <Position>
              <LatitudeDegrees>41.35507819242775440216064453125</LatitudeDegrees>
              <LongitudeDegrees>-1.66147383861243724822998046875</LongitudeDegrees>
            </Position>
            <AltitudeMeters>604.20001220703125</AltitudeMeters>
            <DistanceMeters>18573.909167044</DistanceMeters>
          </Trackpoint>
          <Trackpoint>
            <Time>2022-11-06T11:33:09.000Z</Time>
            <Position>
              <LatitudeDegrees>41.355071403086185455322265625</LatitudeDegrees>
              <LongitudeDegrees>-1.66150619275867938995361328125</LongitudeDegrees>
            </Position>
            <AltitudeMeters>604.5999755859375</AltitudeMeters>
            <DistanceMeters>18576.716880836</DistanceMeters>
          </Trackpoint>
          <Trackpoint>
            <Time>2022-11-06T11:33:10.000Z</Time>
            <Position>
              <LatitudeDegrees>41.3550658710300922393798828125</LatitudeDegrees>
              <LongitudeDegrees>-1.6615384630858898162841796875</LongitudeDegrees>
            </Position>
            <AltitudeMeters>604.79998779296875</AltitudeMeters>
            <DistanceMeters>18579.484100528</DistanceMeters>
          </Trackpoint>
          <Trackpoint>
            <Time>2022-11-06T11:33:11.000Z</Time>
            <Position>
              <LatitudeDegrees>41.35505874641239643096923828125</LatitudeDegrees>
              <LongitudeDegrees>-1.6615666262805461883544921875</LongitudeDegrees>
            </Position>
            <AltitudeMeters>605</AltitudeMeters>
            <DistanceMeters>18581.967554214</DistanceMeters>
          </Trackpoint>
          <Trackpoint>
            <Time>2022-11-06T11:33:12.000Z</Time>
            <Position>
              <LatitudeDegrees>41.3550501130521297454833984375</LatitudeDegrees>
              <LongitudeDegrees>-1.66159068234264850616455078125</LongitudeDegrees>
            </Position>
            <AltitudeMeters>605.4000244140625</AltitudeMeters>
            <DistanceMeters>18584.196128208</DistanceMeters>
          </Trackpoint>
          <Trackpoint>
            <Time>2022-11-06T11:33:13.000Z</Time>
            <Position>
              <LatitudeDegrees>41.35503963567316532135009765625</LatitudeDegrees>
              <LongitudeDegrees>-1.66162337176501750946044921875</LongitudeDegrees>
            </Position>
            <AltitudeMeters>605.79998779296875</AltitudeMeters>
            <DistanceMeters>18587.164857668</DistanceMeters>
          </Trackpoint>
          <Trackpoint>
            <Time>2022-11-06T11:33:14.000Z</Time>
            <Position>
              <LatitudeDegrees>41.35503360070288181304931640625</LatitudeDegrees>
              <LongitudeDegrees>-1.66164256632328033447265625</LongitudeDegrees>
            </Position>
            <AltitudeMeters>606</AltitudeMeters>
            <DistanceMeters>18588.901534245</DistanceMeters>
          </Trackpoint>
          <Trackpoint>
            <Time>2022-11-06T11:33:15.000Z</Time>
            <Position>
              <LatitudeDegrees>41.3550236262381076812744140625</LatitudeDegrees>
              <LongitudeDegrees>-1.66166896931827068328857421875</LongitudeDegrees>
            </Position>
            <AltitudeMeters>606.20001220703125</AltitudeMeters>
            <DistanceMeters>18591.370400705</DistanceMeters>
          </Trackpoint>
          <Trackpoint>
            <Time>2022-11-06T11:33:16.000Z</Time>
            <Position>
              <LatitudeDegrees>41.35501532815396785736083984375</LatitudeDegrees>
              <LongitudeDegrees>-1.6616973839700222015380859375</LongitudeDegrees>
            </Position>
            <AltitudeMeters>606.4000244140625</AltitudeMeters>
            <DistanceMeters>18593.920235022</DistanceMeters>
          </Trackpoint>
          <Trackpoint>
            <Time>2022-11-06T11:33:17.000Z</Time>
            <Position>
              <LatitudeDegrees>41.35500594042241573333740234375</LatitudeDegrees>
              <LongitudeDegrees>-1.66172479279339313507080078125</LongitudeDegrees>
            </Position>
            <AltitudeMeters>606.79998779296875</AltitudeMeters>
            <DistanceMeters>18596.437994673</DistanceMeters>
          </Trackpoint>
          <Trackpoint>
            <Time>2022-11-06T11:33:18.000Z</Time>
            <Position>
              <LatitudeDegrees>41.35500191710889339447021484375</LatitudeDegrees>
              <LongitudeDegrees>-1.66175597347319126129150390625</LongitudeDegrees>
            </Position>
            <AltitudeMeters>607.20001220703125</AltitudeMeters>
            <DistanceMeters>18599.081719161</DistanceMeters>
          </Trackpoint>
          <Trackpoint>
            <Time>2022-11-06T11:33:19.000Z</Time>
            <Position>
              <LatitudeDegrees>41.35500560514628887176513671875</LatitudeDegrees>
              <LongitudeDegrees>-1.6617946140468120574951171875</LongitudeDegrees>
            </Position>
            <AltitudeMeters>607.4000244140625</AltitudeMeters>
            <DistanceMeters>18602.336297424</DistanceMeters>
          </Trackpoint>
          <Trackpoint>
            <Time>2022-11-06T11:33:20.000Z</Time>
            <Position>
              <LatitudeDegrees>41.355016417801380157470703125</LatitudeDegrees>
              <LongitudeDegrees>-1.66181732900440692901611328125</LongitudeDegrees>
            </Position>
            <AltitudeMeters>607.5999755859375</AltitudeMeters>
            <DistanceMeters>18604.585039919</DistanceMeters>
          </Trackpoint>
          <Trackpoint>
            <Time>2022-11-06T11:33:21.000Z</Time>
            <Position>
              <LatitudeDegrees>41.355035863816738128662109375</LatitudeDegrees>
              <LongitudeDegrees>-1.66184314526617527008056640625</LongitudeDegrees>
            </Position>
            <AltitudeMeters>608</AltitudeMeters>
            <DistanceMeters>18607.640706629</DistanceMeters>
          </Trackpoint>
          <Trackpoint>
            <Time>2022-11-06T11:33:22.000Z</Time>
            <Position>
              <LatitudeDegrees>41.35505656711757183074951171875</LatitudeDegrees>
              <LongitudeDegrees>-1.66185588575899600982666015625</LongitudeDegrees>
            </Position>
            <AltitudeMeters>608.20001220703125</AltitudeMeters>
            <DistanceMeters>18610.179894409</DistanceMeters>
          </Trackpoint>
          <Trackpoint>
            <Time>2022-11-06T11:33:23.000Z</Time>
            <Position>
              <LatitudeDegrees>41.35507903061807155609130859375</LatitudeDegrees>
              <LongitudeDegrees>-1.66185286827385425567626953125</LongitudeDegrees>
            </Position>
            <AltitudeMeters>608.4000244140625</AltitudeMeters>
            <DistanceMeters>18612.69406495</DistanceMeters>
          </Trackpoint>
          <Trackpoint>
            <Time>2022-11-06T11:33:24.000Z</Time>
            <Position>
              <LatitudeDegrees>41.35510870255529880523681640625</LatitudeDegrees>
              <LongitudeDegrees>-1.6618378646671772003173828125</LongitudeDegrees>
            </Position>
            <AltitudeMeters>608.4000244140625</AltitudeMeters>
            <DistanceMeters>18616.225429498</DistanceMeters>
          </Trackpoint>
          <Trackpoint>
            <Time>2022-11-06T11:33:25.000Z</Time>
            <Position>
              <LatitudeDegrees>41.35513384826481342315673828125</LatitudeDegrees>
              <LongitudeDegrees>-1.66182336397469043731689453125</LongitudeDegrees>
            </Position>
            <AltitudeMeters>608.5999755859375</AltitudeMeters>
            <DistanceMeters>18619.2751801</DistanceMeters>
          </Trackpoint>
          <Trackpoint>
            <Time>2022-11-06T11:33:26.000Z</Time>
            <Position>
              <LatitudeDegrees>41.35516419075429439544677734375</LatitudeDegrees>
              <LongitudeDegrees>-1.66180643253028392791748046875</LongitudeDegrees>
            </Position>
            <AltitudeMeters>608.5999755859375</AltitudeMeters>
            <DistanceMeters>18622.935867664</DistanceMeters>
          </Trackpoint>
          <Trackpoint>
            <Time>2022-11-06T11:33:27.000Z</Time>
            <Position>
              <LatitudeDegrees>41.35520593263208866119384765625</LatitudeDegrees>
              <LongitudeDegrees>-1.66178866289556026458740234375</LongitudeDegrees>
            </Position>
            <AltitudeMeters>608.79998779296875</AltitudeMeters>
            <DistanceMeters>18627.812877133</DistanceMeters>
          </Trackpoint>
          <Trackpoint>
            <Time>2022-11-06T11:33:28.000Z</Time>
            <Position>
              <LatitudeDegrees>41.35523677803575992584228515625</LatitudeDegrees>
              <LongitudeDegrees>-1.6617786884307861328125</LongitudeDegrees>
            </Position>
            <AltitudeMeters>608.5999755859375</AltitudeMeters>
            <DistanceMeters>18631.345520002</DistanceMeters>
          </Trackpoint>
          <Trackpoint>
            <Time>2022-11-06T11:33:29.000Z</Time>
            <Position>
              <LatitudeDegrees>41.355283297598361968994140625</LatitudeDegrees>
              <LongitudeDegrees>-1.66176636703312397003173828125</LongitudeDegrees>
            </Position>
            <AltitudeMeters>608.5999755859375</AltitudeMeters>
            <DistanceMeters>18636.62442291</DistanceMeters>
          </Trackpoint>
          <Trackpoint>
            <Time>2022-11-06T11:33:30.000Z</Time>
            <Position>
              <LatitudeDegrees>41.35531690903007984161376953125</LatitudeDegrees>
              <LongitudeDegrees>-1.6617637686431407928466796875</LongitudeDegrees>
            </Position>
            <AltitudeMeters>608.5999755859375</AltitudeMeters>
            <DistanceMeters>18640.37165774</DistanceMeters>
          </Trackpoint>
          <Trackpoint>
            <Time>2022-11-06T11:33:31.000Z</Time>
            <Position>
              <LatitudeDegrees>41.3553649373352527618408203125</LatitudeDegrees>
              <LongitudeDegrees>-1.6617657802999019622802734375</LongitudeDegrees>
            </Position>
            <AltitudeMeters>608.5999755859375</AltitudeMeters>
            <DistanceMeters>18645.720235324</DistanceMeters>
          </Trackpoint>
          <Trackpoint>
            <Time>2022-11-06T11:33:32.000Z</Time>
            <Position>
              <LatitudeDegrees>41.35539988987147808074951171875</LatitudeDegrees>
              <LongitudeDegrees>-1.66177625767886638641357421875</LongitudeDegrees>
            </Position>
            <AltitudeMeters>608.5999755859375</AltitudeMeters>
            <DistanceMeters>18649.707962072</DistanceMeters>
          </Trackpoint>
          <Trackpoint>
            <Time>2022-11-06T11:33:33.000Z</Time>
            <Position>
              <LatitudeDegrees>41.35542285628616809844970703125</LatitudeDegrees>
              <LongitudeDegrees>-1.6617934405803680419921875</LongitudeDegrees>
            </Position>
            <AltitudeMeters>608.5999755859375</AltitudeMeters>
            <DistanceMeters>18652.639963569</DistanceMeters>
          </Trackpoint>
          <Trackpoint>
            <Time>2022-11-06T11:33:34.000Z</Time>
            <Position>
              <LatitudeDegrees>41.35545353405177593231201171875</LatitudeDegrees>
              <LongitudeDegrees>-1.66182361543178558349609375</LongitudeDegrees>
            </Position>
            <AltitudeMeters>608.79998779296875</AltitudeMeters>
            <DistanceMeters>18656.883308055</DistanceMeters>
          </Trackpoint>
          <Trackpoint>
            <Time>2022-11-06T11:33:35.000Z</Time>
            <Position>
              <LatitudeDegrees>41.35546912439167499542236328125</LatitudeDegrees>
              <LongitudeDegrees>-1.661846078932285308837890625</LongitudeDegrees>
            </Position>
            <AltitudeMeters>608.79998779296875</AltitudeMeters>
            <DistanceMeters>18659.440215434</DistanceMeters>
          </Trackpoint>
          <Trackpoint>
            <Time>2022-11-06T11:33:36.000Z</Time>
            <Position>
              <LatitudeDegrees>41.3554881513118743896484375</LatitudeDegrees>
              <LongitudeDegrees>-1.66187055408954620361328125</LongitudeDegrees>
            </Position>
            <AltitudeMeters>609</AltitudeMeters>
            <DistanceMeters>18662.384510492</DistanceMeters>
          </Trackpoint>
          <Trackpoint>
            <Time>2022-11-06T11:33:37.000Z</Time>
            <Position>
              <LatitudeDegrees>41.3555069267749786376953125</LatitudeDegrees>
              <LongitudeDegrees>-1.66189813055098056793212890625</LongitudeDegrees>
            </Position>
            <AltitudeMeters>609.20001220703125</AltitudeMeters>
            <DistanceMeters>18665.495819211</DistanceMeters>
          </Trackpoint>
          <Trackpoint>
            <Time>2022-11-06T11:33:38.000Z</Time>
            <Position>
              <LatitudeDegrees>41.3555268757045269012451171875</LatitudeDegrees>
              <LongitudeDegrees>-1.66192092932760715484619140625</LongitudeDegrees>
            </Position>
            <AltitudeMeters>609.4000244140625</AltitudeMeters>
            <DistanceMeters>18668.421654556</DistanceMeters>
          </Trackpoint>
          <Trackpoint>
            <Time>2022-11-06T11:33:39.000Z</Time>
            <Position>
              <LatitudeDegrees>41.3555486686527729034423828125</LatitudeDegrees>
              <LongitudeDegrees>-1.6619377769529819488525390625</LongitudeDegrees>
            </Position>
            <AltitudeMeters>609.5999755859375</AltitudeMeters>
            <DistanceMeters>18671.224539946</DistanceMeters>
          </Trackpoint>
          <Trackpoint>
            <Time>2022-11-06T11:33:40.000Z</Time>
            <Position>
              <LatitudeDegrees>41.35556702502071857452392578125</LatitudeDegrees>
              <LongitudeDegrees>-1.66195713914930820465087890625</LongitudeDegrees>
            </Position>
            <AltitudeMeters>610</AltitudeMeters>
            <DistanceMeters>18673.830421272</DistanceMeters>
          </Trackpoint>
          <Trackpoint>
            <Time>2022-11-06T11:33:41.000Z</Time>
            <Position>
              <LatitudeDegrees>41.3555892370641231536865234375</LatitudeDegrees>
              <LongitudeDegrees>-1.661982871592044830322265625</LongitudeDegrees>
            </Position>
            <AltitudeMeters>610.4000244140625</AltitudeMeters>
            <DistanceMeters>18677.105742755</DistanceMeters>
          </Trackpoint>
          <Trackpoint>
            <Time>2022-11-06T11:33:42.000Z</Time>
            <Position>
              <LatitudeDegrees>41.3556016422808170318603515625</LatitudeDegrees>
              <LongitudeDegrees>-1.66200122795999050140380859375</LongitudeDegrees>
            </Position>
            <AltitudeMeters>610.79998779296875</AltitudeMeters>
            <DistanceMeters>18679.16587283</DistanceMeters>
          </Trackpoint>
          <Trackpoint>
            <Time>2022-11-06T11:33:43.000Z</Time>
            <Position>
              <LatitudeDegrees>41.3556187413632869720458984375</LatitudeDegrees>
              <LongitudeDegrees>-1.6620289720594882965087890625</LongitudeDegrees>
            </Position>
            <AltitudeMeters>611</AltitudeMeters>
            <DistanceMeters>18682.164865351</DistanceMeters>
          </Trackpoint>
          <Trackpoint>
            <Time>2022-11-06T11:33:44.000Z</Time>
            <Position>
              <LatitudeDegrees>41.3556274585425853729248046875</LatitudeDegrees>
              <LongitudeDegrees>-1.662046909332275390625</LongitudeDegrees>
            </Position>
            <AltitudeMeters>611.20001220703125</AltitudeMeters>
            <DistanceMeters>18683.947724546</DistanceMeters>
          </Trackpoint>
          <Trackpoint>
            <Time>2022-11-06T11:33:45.000Z</Time>
            <Position>
              <LatitudeDegrees>41.3556391932070255279541015625</LatitudeDegrees>
              <LongitudeDegrees>-1.66207230649888515472412109375</LongitudeDegrees>
            </Position>
            <AltitudeMeters>611.4000244140625</AltitudeMeters>
            <DistanceMeters>18686.440251896</DistanceMeters>
          </Trackpoint>
          <Trackpoint>
            <Time>2022-11-06T11:33:46.000Z</Time>
            <Position>
              <LatitudeDegrees>41.355653442442417144775390625</LatitudeDegrees>
              <LongitudeDegrees>-1.6621064208447933197021484375</LongitudeDegrees>
            </Position>
            <AltitudeMeters>611.5999755859375</AltitudeMeters>
            <DistanceMeters>18689.701759224</DistanceMeters>
          </Trackpoint>
          <Trackpoint>
            <Time>2022-11-06T11:33:47.000Z</Time>
            <Position>
              <LatitudeDegrees>41.3556690327823162078857421875</LatitudeDegrees>
              <LongitudeDegrees>-1.662137098610401153564453125</LongitudeDegrees>
            </Position>
            <AltitudeMeters>611.5999755859375</AltitudeMeters>
            <DistanceMeters>18692.797063912</DistanceMeters>
          </Trackpoint>
          <Trackpoint>
            <Time>2022-11-06T11:33:48.000Z</Time>
            <Position>
              <LatitudeDegrees>41.3556871376931667327880859375</LatitudeDegrees>
              <LongitudeDegrees>-1.66216802783310413360595703125</LongitudeDegrees>
            </Position>
            <AltitudeMeters>611.5999755859375</AltitudeMeters>
            <DistanceMeters>18696.072385394</DistanceMeters>
          </Trackpoint>
          <Trackpoint>
            <Time>2022-11-06T11:33:49.000Z</Time>
            <Position>
              <LatitudeDegrees>41.3557080924510955810546875</LatitudeDegrees>
              <LongitudeDegrees>-1.6622063331305980682373046875</LongitudeDegrees>
            </Position>
            <AltitudeMeters>611.5999755859375</AltitudeMeters>
            <DistanceMeters>18700.031705122</DistanceMeters>
          </Trackpoint>
          <Trackpoint>
            <Time>2022-11-06T11:33:50.000Z</Time>
            <Position>
              <LatitudeDegrees>41.35572611354291439056396484375</LatitudeDegrees>
              <LongitudeDegrees>-1.6622388549149036407470703125</LongitudeDegrees>
            </Position>
            <AltitudeMeters>611.5999755859375</AltitudeMeters>
            <DistanceMeters>18703.408832089</DistanceMeters>
          </Trackpoint>
          <Trackpoint>
            <Time>2022-11-06T11:33:51.000Z</Time>
            <Position>
              <LatitudeDegrees>41.35574053041636943817138671875</LatitudeDegrees>
              <LongitudeDegrees>-1.662264503538608551025390625</LongitudeDegrees>
            </Position>
            <AltitudeMeters>611.5999755859375</AltitudeMeters>
            <DistanceMeters>18706.083120881</DistanceMeters>
          </Trackpoint>
          <Trackpoint>
            <Time>2022-11-06T11:33:52.000Z</Time>
            <Position>
              <LatitudeDegrees>41.35575880296528339385986328125</LatitudeDegrees>
              <LongitudeDegrees>-1.66230104863643646240234375</LongitudeDegrees>
            </Position>
            <AltitudeMeters>611.4000244140625</AltitudeMeters>
            <DistanceMeters>18709.751201292</DistanceMeters>
          </Trackpoint>
          <Trackpoint>
            <Time>2022-11-06T11:33:53.000Z</Time>
            <Position>
              <LatitudeDegrees>41.35577808134257793426513671875</LatitudeDegrees>
              <LongitudeDegrees>-1.6623350791633129119873046875</LongitudeDegrees>
            </Position>
            <AltitudeMeters>611.4000244140625</AltitudeMeters>
            <DistanceMeters>18713.31311895</DistanceMeters>
          </Trackpoint>
          <Trackpoint>
            <Time>2022-11-06T11:33:54.000Z</Time>
            <Position>
              <LatitudeDegrees>41.355797946453094482421875</LatitudeDegrees>
              <LongitudeDegrees>-1.66236768476665019989013671875</LongitudeDegrees>
            </Position>
            <AltitudeMeters>611.4000244140625</AltitudeMeters>
            <DistanceMeters>18716.820106848</DistanceMeters>
          </Trackpoint>
          <Trackpoint>
            <Time>2022-11-06T11:33:55.000Z</Time>
            <Position>
              <LatitudeDegrees>41.35581764392554759979248046875</LatitudeDegrees>
              <LongitudeDegrees>-1.66240138001739978790283203125</LongitudeDegrees>
            </Position>
            <AltitudeMeters>611.4000244140625</AltitudeMeters>
            <DistanceMeters>18720.388356809</DistanceMeters>
          </Trackpoint>
          <Trackpoint>
            <Time>2022-11-06T11:33:56.000Z</Time>
            <Position>
              <LatitudeDegrees>41.355837173759937286376953125</LatitudeDegrees>
              <LongitudeDegrees>-1.662435829639434814453125</LongitudeDegrees>
            </Position>
            <AltitudeMeters>611.4000244140625</AltitudeMeters>
            <DistanceMeters>18723.995618951</DistanceMeters>
          </Trackpoint>
          <Trackpoint>
            <Time>2022-11-06T11:33:57.000Z</Time>
            <Position>
              <LatitudeDegrees>41.35585092008113861083984375</LatitudeDegrees>
              <LongitudeDegrees>-1.66247145272791385650634765625</LongitudeDegrees>
            </Position>
            <AltitudeMeters>611.79998779296875</AltitudeMeters>
            <DistanceMeters>18727.343203881</DistanceMeters>
          </Trackpoint>
          <Trackpoint>
            <Time>2022-11-06T11:33:58.000Z</Time>
            <Position>
              <LatitudeDegrees>41.355861313641071319580078125</LatitudeDegrees>
              <LongitudeDegrees>-1.66250430978834629058837890625</LongitudeDegrees>
            </Position>
            <AltitudeMeters>612</AltitudeMeters>
            <DistanceMeters>18730.321044553</DistanceMeters>
          </Trackpoint>
          <Trackpoint>
            <Time>2022-11-06T11:33:59.000Z</Time>
            <Position>
              <LatitudeDegrees>41.35586944408714771270751953125</LatitudeDegrees>
              <LongitudeDegrees>-1.662537753582000732421875</LongitudeDegrees>
            </Position>
            <AltitudeMeters>612.20001220703125</AltitudeMeters>
            <DistanceMeters>18733.256124267</DistanceMeters>
          </Trackpoint>
          <Trackpoint>
            <Time>2022-11-06T11:34:00.000Z</Time>
            <Position>
              <LatitudeDegrees>41.35587397031486034393310546875</LatitudeDegrees>
              <LongitudeDegrees>-1.66256683878600597381591796875</LongitudeDegrees>
            </Position>
            <AltitudeMeters>612.4000244140625</AltitudeMeters>
            <DistanceMeters>18735.737759239</DistanceMeters>
          </Trackpoint>
          <Trackpoint>
            <Time>2022-11-06T11:34:01.000Z</Time>
            <Position>
              <LatitudeDegrees>41.35587581433355808258056640625</LatitudeDegrees>
              <LongitudeDegrees>-1.66259332560002803802490234375</LongitudeDegrees>
            </Position>
            <AltitudeMeters>612.79998779296875</AltitudeMeters>
            <DistanceMeters>18737.96227759</DistanceMeters>
          </Trackpoint>
          <Trackpoint>
            <Time>2022-11-06T11:34:02.000Z</Time>
            <Position>
              <LatitudeDegrees>41.35588335804641246795654296875</LatitudeDegrees>
              <LongitudeDegrees>-1.6626197285950183868408203125</LongitudeDegrees>
            </Position>
            <AltitudeMeters>613</AltitudeMeters>
            <DistanceMeters>18740.324604248</DistanceMeters>
          </Trackpoint>
          <Trackpoint>
            <Time>2022-11-06T11:34:03.000Z</Time>
            <Position>
              <LatitudeDegrees>41.35589073412120342254638671875</LatitudeDegrees>
              <LongitudeDegrees>-1.66264244355261325836181640625</LongitudeDegrees>
            </Position>
            <AltitudeMeters>613.20001220703125</AltitudeMeters>
            <DistanceMeters>18742.393482262</DistanceMeters>
          </Trackpoint>
          <Trackpoint>
            <Time>2022-11-06T11:34:04.000Z</Time>
            <Position>
              <LatitudeDegrees>41.355899870395660400390625</LatitudeDegrees>
              <LongitudeDegrees>-1.66266993619501590728759765625</LongitudeDegrees>
            </Position>
            <AltitudeMeters>613.5999755859375</AltitudeMeters>
            <DistanceMeters>18744.904058562</DistanceMeters>
          </Trackpoint>
          <Trackpoint>
            <Time>2022-11-06T11:34:05.000Z</Time>
            <Position>
              <LatitudeDegrees>41.3559065759181976318359375</LatitudeDegrees>
              <LongitudeDegrees>-1.66268602944910526275634765625</LongitudeDegrees>
            </Position>
            <AltitudeMeters>613.79998779296875</AltitudeMeters>
            <DistanceMeters>18746.439262116</DistanceMeters>
          </Trackpoint>
          <Trackpoint>
            <Time>2022-11-06T11:34:06.000Z</Time>
            <Position>
              <LatitudeDegrees>41.3559188134968280792236328125</LatitudeDegrees>
              <LongitudeDegrees>-1.66270740330219268798828125</LongitudeDegrees>
            </Position>
            <AltitudeMeters>613.79998779296875</AltitudeMeters>
            <DistanceMeters>18748.683985407</DistanceMeters>
          </Trackpoint>
          <Trackpoint>
            <Time>2022-11-06T11:34:07.000Z</Time>
            <Position>
              <LatitudeDegrees>41.355927698314189910888671875</LatitudeDegrees>
              <LongitudeDegrees>-1.6627273522317409515380859375</LongitudeDegrees>
            </Position>
            <AltitudeMeters>614.20001220703125</AltitudeMeters>
            <DistanceMeters>18750.622157691</DistanceMeters>
          </Trackpoint>
          <Trackpoint>
            <Time>2022-11-06T11:34:08.000Z</Time>
            <Position>
              <LatitudeDegrees>41.35593532584607601165771484375</LatitudeDegrees>
              <LongitudeDegrees>-1.66275090537965297698974609375</LongitudeDegrees>
            </Position>
            <AltitudeMeters>614.5999755859375</AltitudeMeters>
            <DistanceMeters>18752.768163046</DistanceMeters>
          </Trackpoint>
          <Trackpoint>
            <Time>2022-11-06T11:34:09.000Z</Time>
            <Position>
              <LatitudeDegrees>41.35594739578664302825927734375</LatitudeDegrees>
              <LongitudeDegrees>-1.66277890093624591827392578125</LongitudeDegrees>
            </Position>
            <AltitudeMeters>614.79998779296875</AltitudeMeters>
            <DistanceMeters>18755.465984689</DistanceMeters>
          </Trackpoint>
          <Trackpoint>
            <Time>2022-11-06T11:34:10.000Z</Time>
            <Position>
              <LatitudeDegrees>41.35596583597362041473388671875</LatitudeDegrees>
              <LongitudeDegrees>-1.66281108744442462921142578125</LongitudeDegrees>
            </Position>
            <AltitudeMeters>615.20001220703125</AltitudeMeters>
            <DistanceMeters>18758.847120116</DistanceMeters>
          </Trackpoint>
          <Trackpoint>
            <Time>2022-11-06T11:34:11.000Z</Time>
            <Position>
              <LatitudeDegrees>41.355980671942234039306640625</LatitudeDegrees>
              <LongitudeDegrees>-1.66283371858298778533935546875</LongitudeDegrees>
            </Position>
            <AltitudeMeters>615.4000244140625</AltitudeMeters>
            <DistanceMeters>18761.357696416</DistanceMeters>
          </Trackpoint>
          <Trackpoint>
            <Time>2022-11-06T11:34:12.000Z</Time>
            <Position>
              <LatitudeDegrees>41.35599986650049686431884765625</LatitudeDegrees>
              <LongitudeDegrees>-1.66287110187113285064697265625</LongitudeDegrees>
            </Position>
            <AltitudeMeters>615.4000244140625</AltitudeMeters>
            <DistanceMeters>18765.139711895</DistanceMeters>
          </Trackpoint>
          <Trackpoint>
            <Time>2022-11-06T11:34:13.000Z</Time>
            <Position>
              <LatitudeDegrees>41.35601176880300045013427734375</LatitudeDegrees>
              <LongitudeDegrees>-1.662896163761615753173828125</LongitudeDegrees>
            </Position>
            <AltitudeMeters>615.5999755859375</AltitudeMeters>
            <DistanceMeters>18767.617705435</DistanceMeters>
          </Trackpoint>
          <Trackpoint>
            <Time>2022-11-06T11:34:14.000Z</Time>
            <Position>
              <LatitudeDegrees>41.356024928390979766845703125</LatitudeDegrees>
              <LongitudeDegrees>-1.66292491368949413299560546875</LongitudeDegrees>
            </Position>
            <AltitudeMeters>615.5999755859375</AltitudeMeters>
            <DistanceMeters>18770.431844209</DistanceMeters>
          </Trackpoint>
          <Trackpoint>
            <Time>2022-11-06T11:34:15.000Z</Time>
            <Position>
              <LatitudeDegrees>41.35603691451251506805419921875</LatitudeDegrees>
              <LongitudeDegrees>-1.66295223869383335113525390625</LongitudeDegrees>
            </Position>
            <AltitudeMeters>615.79998779296875</AltitudeMeters>
            <DistanceMeters>18773.075568697</DistanceMeters>
          </Trackpoint>
          <Trackpoint>
            <Time>2022-11-06T11:34:16.000Z</Time>
            <Position>
              <LatitudeDegrees>41.35604395531117916107177734375</LatitudeDegrees>
              <LongitudeDegrees>-1.6629788093268871307373046875</LongitudeDegrees>
            </Position>
            <AltitudeMeters>616</AltitudeMeters>
            <DistanceMeters>18775.430237875</DistanceMeters>
          </Trackpoint>
          <Trackpoint>
            <Time>2022-11-06T11:34:17.000Z</Time>
            <Position>
              <LatitudeDegrees>41.35605476796627044677734375</LatitudeDegrees>
              <LongitudeDegrees>-1.66300504468381404876708984375</LongitudeDegrees>
            </Position>
            <AltitudeMeters>616</AltitudeMeters>
            <DistanceMeters>18777.931805978</DistanceMeters>
          </Trackpoint>
          <Trackpoint>
            <Time>2022-11-06T11:34:18.000Z</Time>
            <Position>
              <LatitudeDegrees>41.35606625117361545562744140625</LatitudeDegrees>
              <LongitudeDegrees>-1.6630337946116924285888671875</LongitudeDegrees>
            </Position>
            <AltitudeMeters>616.20001220703125</AltitudeMeters>
            <DistanceMeters>18780.652956963</DistanceMeters>
          </Trackpoint>
          <Trackpoint>
            <Time>2022-11-06T11:34:19.000Z</Time>
            <Position>
              <LatitudeDegrees>41.35607698000967502593994140625</LatitudeDegrees>
              <LongitudeDegrees>-1.6630653105676174163818359375</LongitudeDegrees>
            </Position>
            <AltitudeMeters>616.4000244140625</AltitudeMeters>
            <DistanceMeters>18783.544643459</DistanceMeters>
          </Trackpoint>
          <Trackpoint>
            <Time>2022-11-06T11:34:20.000Z</Time>
            <Position>
              <LatitudeDegrees>41.356087289750576019287109375</LatitudeDegrees>
              <LongitudeDegrees>-1.6630901210010051727294921875</LongitudeDegrees>
            </Position>
            <AltitudeMeters>616.4000244140625</AltitudeMeters>
            <DistanceMeters>18785.912696978</DistanceMeters>
          </Trackpoint>
          <Trackpoint>
            <Time>2022-11-06T11:34:21.000Z</Time>
            <Position>
              <LatitudeDegrees>41.3561032153666019439697265625</LatitudeDegrees>
              <LongitudeDegrees>-1.66311375796794891357421875</LongitudeDegrees>
            </Position>
            <AltitudeMeters>616.5999755859375</AltitudeMeters>
            <DistanceMeters>18788.566648678</DistanceMeters>
          </Trackpoint>
          <Trackpoint>
            <Time>2022-11-06T11:34:22.000Z</Time>
            <Position>
              <LatitudeDegrees>41.35612207464873790740966796875</LatitudeDegrees>
              <LongitudeDegrees>-1.66314016096293926239013671875</LongitudeDegrees>
            </Position>
            <AltitudeMeters>616.5999755859375</AltitudeMeters>
            <DistanceMeters>18791.611954658</DistanceMeters>
          </Trackpoint>
          <Trackpoint>
            <Time>2022-11-06T11:34:23.000Z</Time>
            <Position>
              <LatitudeDegrees>41.3561407662928104400634765625</LatitudeDegrees>
              <LongitudeDegrees>-1.6631668992340564727783203125</LongitudeDegrees>
            </Position>
            <AltitudeMeters>616.5999755859375</AltitudeMeters>
            <DistanceMeters>18794.664664747</DistanceMeters>
          </Trackpoint>
          <Trackpoint>
            <Time>2022-11-06T11:34:24.000Z</Time>
            <Position>
              <LatitudeDegrees>41.3561595417559146881103515625</LatitudeDegrees>
              <LongitudeDegrees>-1.66319933719933032989501953125</LongitudeDegrees>
            </Position>
            <AltitudeMeters>616.79998779296875</AltitudeMeters>
            <DistanceMeters>18798.086946025</DistanceMeters>
          </Trackpoint>
          <Trackpoint>
            <Time>2022-11-06T11:34:25.000Z</Time>
            <Position>
              <LatitudeDegrees>41.35617622174322605133056640625</LatitudeDegrees>
              <LongitudeDegrees>-1.66323454119265079498291015625</LongitudeDegrees>
            </Position>
            <AltitudeMeters>616.79998779296875</AltitudeMeters>
            <DistanceMeters>18801.565494923</DistanceMeters>
          </Trackpoint>
          <Trackpoint>
            <Time>2022-11-06T11:34:26.000Z</Time>
            <Position>
              <LatitudeDegrees>41.356190554797649383544921875</LatitudeDegrees>
              <LongitudeDegrees>-1.66326999664306640625</LongitudeDegrees>
            </Position>
            <AltitudeMeters>616.79998779296875</AltitudeMeters>
            <DistanceMeters>18804.930567859</DistanceMeters>
          </Trackpoint>
          <Trackpoint>
            <Time>2022-11-06T11:34:27.000Z</Time>
            <Position>
              <LatitudeDegrees>41.3562115095555782318115234375</LatitudeDegrees>
              <LongitudeDegrees>-1.66330159641802310943603515625</LongitudeDegrees>
            </Position>
            <AltitudeMeters>617</AltitudeMeters>
            <DistanceMeters>18808.452971162</DistanceMeters>
          </Trackpoint>
          <Trackpoint>
            <Time>2022-11-06T11:34:28.000Z</Time>
            <Position>
              <LatitudeDegrees>41.356234811246395111083984375</LatitudeDegrees>
              <LongitudeDegrees>-1.663325987756252288818359375</LongitudeDegrees>
            </Position>
            <AltitudeMeters>617</AltitudeMeters>
            <DistanceMeters>18811.753012403</DistanceMeters>
          </Trackpoint>
          <Trackpoint>
            <Time>2022-11-06T11:34:29.000Z</Time>
            <Position>
              <LatitudeDegrees>41.35625719092786312103271484375</LatitudeDegrees>
              <LongitudeDegrees>-1.66335172019898891448974609375</LongitudeDegrees>
            </Position>
            <AltitudeMeters>617</AltitudeMeters>
            <DistanceMeters>18815.043462472</DistanceMeters>
          </Trackpoint>
          <Trackpoint>
            <Time>2022-11-06T11:34:30.000Z</Time>
            <Position>
              <LatitudeDegrees>41.35627948679029941558837890625</LatitudeDegrees>
              <LongitudeDegrees>-1.66337368078529834747314453125</LongitudeDegrees>
            </Position>
            <AltitudeMeters>617.20001220703125</AltitudeMeters>
            <DistanceMeters>18818.13146518</DistanceMeters>
          </Trackpoint>
          <Trackpoint>
            <Time>2022-11-06T11:34:31.000Z</Time>
            <Position>
              <LatitudeDegrees>41.35629993863403797149658203125</LatitudeDegrees>
              <LongitudeDegrees>-1.66339614428579807281494140625</LongitudeDegrees>
            </Position>
            <AltitudeMeters>617.4000244140625</AltitudeMeters>
            <DistanceMeters>18821.083417715</DistanceMeters>
          </Trackpoint>
          <Trackpoint>
            <Time>2022-11-06T11:34:32.000Z</Time>
            <Position>
              <LatitudeDegrees>41.35631586425006389617919921875</LatitudeDegrees>
              <LongitudeDegrees>-1.6634186916053295135498046875</LongitudeDegrees>
            </Position>
            <AltitudeMeters>617.4000244140625</AltitudeMeters>
            <DistanceMeters>18823.671914716</DistanceMeters>
          </Trackpoint>
          <Trackpoint>
            <Time>2022-11-06T11:34:33.000Z</Time>
            <Position>
              <LatitudeDegrees>41.356330700218677520751953125</LatitudeDegrees>
              <LongitudeDegrees>-1.66343704797327518463134765625</LongitudeDegrees>
            </Position>
            <AltitudeMeters>617.79998779296875</AltitudeMeters>
            <DistanceMeters>18825.924669243</DistanceMeters>
          </Trackpoint>
          <Trackpoint>
            <Time>2022-11-06T11:34:34.000Z</Time>
            <Position>
              <LatitudeDegrees>41.3563466258347034454345703125</LatitudeDegrees>
              <LongitudeDegrees>-1.6634559072554111480712890625</LongitudeDegrees>
            </Position>
            <AltitudeMeters>618.20001220703125</AltitudeMeters>
            <DistanceMeters>18828.294628641</DistanceMeters>
          </Trackpoint>
          <Trackpoint>
            <Time>2022-11-06T11:34:35.000Z</Time>
            <Position>
              <LatitudeDegrees>41.35636447928845882415771484375</LatitudeDegrees>
              <LongitudeDegrees>-1.66347862221300601959228515625</LongitudeDegrees>
            </Position>
            <AltitudeMeters>618.4000244140625</AltitudeMeters>
            <DistanceMeters>18831.042199188</DistanceMeters>
          </Trackpoint>
          <Trackpoint>
            <Time>2022-11-06T11:34:36.000Z</Time>
            <Position>
              <LatitudeDegrees>41.35638392530381679534912109375</LatitudeDegrees>
              <LongitudeDegrees>-1.66350158862769603729248046875</LongitudeDegrees>
            </Position>
            <AltitudeMeters>618.79998779296875</AltitudeMeters>
            <DistanceMeters>18833.935446647</DistanceMeters>
          </Trackpoint>
          <Trackpoint>
            <Time>2022-11-06T11:34:37.000Z</Time>
            <Position>
              <LatitudeDegrees>41.35640253312885761260986328125</LatitudeDegrees>
              <LongitudeDegrees>-1.66352681815624237060546875</LongitudeDegrees>
            </Position>
            <AltitudeMeters>618.79998779296875</AltitudeMeters>
            <DistanceMeters>18836.891984149</DistanceMeters>
          </Trackpoint>
          <Trackpoint>
            <Time>2022-11-06T11:34:38.000Z</Time>
            <Position>
              <LatitudeDegrees>41.35642080567777156829833984375</LatitudeDegrees>
              <LongitudeDegrees>-1.66355137713253498077392578125</LongitudeDegrees>
            </Position>
            <AltitudeMeters>619</AltitudeMeters>
            <DistanceMeters>18839.780546185</DistanceMeters>
          </Trackpoint>
          <Trackpoint>
            <Time>2022-11-06T11:34:39.000Z</Time>
            <Position>
              <LatitudeDegrees>41.3564398325979709625244140625</LatitudeDegrees>
              <LongitudeDegrees>-1.6635759361088275909423828125</LongitudeDegrees>
            </Position>
            <AltitudeMeters>619</AltitudeMeters>
            <DistanceMeters>18842.727906621</DistanceMeters>
          </Trackpoint>
          <Trackpoint>
            <Time>2022-11-06T11:34:40.000Z</Time>
            <Position>
              <LatitudeDegrees>41.35645919479429721832275390625</LatitudeDegrees>
              <LongitudeDegrees>-1.6636027581989765167236328125</LongitudeDegrees>
            </Position>
            <AltitudeMeters>619.20001220703125</AltitudeMeters>
            <DistanceMeters>18845.836311645</DistanceMeters>
          </Trackpoint>
          <Trackpoint>
            <Time>2022-11-06T11:34:41.000Z</Time>
            <Position>
              <LatitudeDegrees>41.356478221714496612548828125</LatitudeDegrees>
              <LongitudeDegrees>-1.66362899355590343475341796875</LongitudeDegrees>
            </Position>
            <AltitudeMeters>619.20001220703125</AltitudeMeters>
            <DistanceMeters>18848.884581426</DistanceMeters>
          </Trackpoint>
          <Trackpoint>
            <Time>2022-11-06T11:34:42.000Z</Time>
            <Position>
              <LatitudeDegrees>41.3564951531589031219482421875</LatitudeDegrees>
              <LongitudeDegrees>-1.66366000659763813018798828125</LongitudeDegrees>
            </Position>
            <AltitudeMeters>619.4000244140625</AltitudeMeters>
            <DistanceMeters>18852.087418737</DistanceMeters>
          </Trackpoint>
          <Trackpoint>
            <Time>2022-11-06T11:34:43.000Z</Time>
            <Position>
              <LatitudeDegrees>41.3565159402787685394287109375</LatitudeDegrees>
              <LongitudeDegrees>-1.663691103458404541015625</LongitudeDegrees>
            </Position>
            <AltitudeMeters>619.4000244140625</AltitudeMeters>
            <DistanceMeters>18855.565967635</DistanceMeters>
          </Trackpoint>
          <Trackpoint>
            <Time>2022-11-06T11:34:44.000Z</Time>
            <Position>
              <LatitudeDegrees>41.3565343804657459259033203125</LatitudeDegrees>
              <LongitudeDegrees>-1.6637201048433780670166015625</LongitudeDegrees>
            </Position>
            <AltitudeMeters>619.4000244140625</AltitudeMeters>
            <DistanceMeters>18858.740485758</DistanceMeters>
          </Trackpoint>
          <Trackpoint>
            <Time>2022-11-06T11:34:45.000Z</Time>
            <Position>
              <LatitudeDegrees>41.35655525140464305877685546875</LatitudeDegrees>
              <LongitudeDegrees>-1.6637455858290195465087890625</LongitudeDegrees>
            </Position>
            <AltitudeMeters>619.4000244140625</AltitudeMeters>
            <DistanceMeters>18861.892165324</DistanceMeters>
          </Trackpoint>
          <Trackpoint>
            <Time>2022-11-06T11:34:46.000Z</Time>
            <Position>
              <LatitudeDegrees>41.35657620616257190704345703125</LatitudeDegrees>
              <LongitudeDegrees>-1.66377467103302478790283203125</LongitudeDegrees>
            </Position>
            <AltitudeMeters>619.5999755859375</AltitudeMeters>
            <DistanceMeters>18865.259920662</DistanceMeters>
          </Trackpoint>
          <Trackpoint>
            <Time>2022-11-06T11:34:47.000Z</Time>
            <Position>
              <LatitudeDegrees>41.3565950654447078704833984375</LatitudeDegrees>
              <LongitudeDegrees>-1.6638052649796009063720703125</LongitudeDegrees>
            </Position>
            <AltitudeMeters>619.5999755859375</AltitudeMeters>
            <DistanceMeters>18868.565430077</DistanceMeters>
          </Trackpoint>
          <Trackpoint>
            <Time>2022-11-06T11:34:48.000Z</Time>
            <Position>
              <LatitudeDegrees>41.3566146790981292724609375</LatitudeDegrees>
              <LongitudeDegrees>-1.66383937932550907135009765625</LongitudeDegrees>
            </Position>
            <AltitudeMeters>619.5999755859375</AltitudeMeters>
            <DistanceMeters>18872.156383873</DistanceMeters>
          </Trackpoint>
          <Trackpoint>
            <Time>2022-11-06T11:34:49.000Z</Time>
            <Position>
              <LatitudeDegrees>41.35663320310413837432861328125</LatitudeDegrees>
              <LongitudeDegrees>-1.66387357749044895172119140625</LongitudeDegrees>
            </Position>
            <AltitudeMeters>619.5999755859375</AltitudeMeters>
            <DistanceMeters>18875.68006875</DistanceMeters>
          </Trackpoint>
          <Trackpoint>
            <Time>2022-11-06T11:34:50.000Z</Time>
            <Position>
              <LatitudeDegrees>41.35664510540664196014404296875</LatitudeDegrees>
              <LongitudeDegrees>-1.6639112122356891632080078125</LongitudeDegrees>
            </Position>
            <AltitudeMeters>619.5999755859375</AltitudeMeters>
            <DistanceMeters>18879.093102387</DistanceMeters>
          </Trackpoint>
          <Trackpoint>
            <Time>2022-11-06T11:34:51.000Z</Time>
            <Position>
              <LatitudeDegrees>41.356653906404972076416015625</LatitudeDegrees>
              <LongitudeDegrees>-1.66394566185772418975830078125</LongitudeDegrees>
            </Position>
            <AltitudeMeters>619.5999755859375</AltitudeMeters>
            <DistanceMeters>18882.133957247</DistanceMeters>
          </Trackpoint>
          <Trackpoint>
            <Time>2022-11-06T11:34:52.000Z</Time>
            <Position>
              <LatitudeDegrees>41.35666237212717533111572265625</LatitudeDegrees>
              <LongitudeDegrees>-1.66397608816623687744140625</LongitudeDegrees>
            </Position>
            <AltitudeMeters>619.5999755859375</AltitudeMeters>
            <DistanceMeters>18884.845134524</DistanceMeters>
          </Trackpoint>
          <Trackpoint>
            <Time>2022-11-06T11:34:53.000Z</Time>
            <Position>
              <LatitudeDegrees>41.35666823945939540863037109375</LatitudeDegrees>
              <LongitudeDegrees>-1.66400081478059291839599609375</LongitudeDegrees>
            </Position>
            <AltitudeMeters>620</AltitudeMeters>
            <DistanceMeters>18887.012077013</DistanceMeters>
          </Trackpoint>
          <Trackpoint>
            <Time>2022-11-06T11:34:54.000Z</Time>
            <Position>
              <LatitudeDegrees>41.35668097995221614837646484375</LatitudeDegrees>
              <LongitudeDegrees>-1.66402512229979038238525390625</LongitudeDegrees>
            </Position>
            <AltitudeMeters>620.20001220703125</AltitudeMeters>
            <DistanceMeters>18889.490070552</DistanceMeters>
          </Trackpoint>
          <Trackpoint>
            <Time>2022-11-06T11:34:55.000Z</Time>
            <Position>
              <LatitudeDegrees>41.356699168682098388671875</LatitudeDegrees>
              <LongitudeDegrees>-1.66404440067708492279052734375</LongitudeDegrees>
            </Position>
            <AltitudeMeters>620.79998779296875</AltitudeMeters>
            <DistanceMeters>18892.076822695</DistanceMeters>
          </Trackpoint>
          <Trackpoint>
            <Time>2022-11-06T11:34:56.000Z</Time>
            <Position>
              <LatitudeDegrees>41.35672372765839099884033203125</LatitudeDegrees>
              <LongitudeDegrees>-1.66405521333217620849609375</LongitudeDegrees>
            </Position>
            <AltitudeMeters>621</AltitudeMeters>
            <DistanceMeters>18894.955991008</DistanceMeters>
          </Trackpoint>
          <Trackpoint>
            <Time>2022-11-06T11:34:57.000Z</Time>
            <Position>
              <LatitudeDegrees>41.35675071738660335540771484375</LatitudeDegrees>
              <LongitudeDegrees>-1.66406870819628238677978515625</LongitudeDegrees>
            </Position>
            <AltitudeMeters>621.20001220703125</AltitudeMeters>
            <DistanceMeters>18898.165869078</DistanceMeters>
          </Trackpoint>
          <Trackpoint>
            <Time>2022-11-06T11:34:58.000Z</Time>
            <Position>
              <LatitudeDegrees>41.35677888058125972747802734375</LatitudeDegrees>
              <LongitudeDegrees>-1.66408899240195751190185546875</LongitudeDegrees>
            </Position>
            <AltitudeMeters>621.5999755859375</AltitudeMeters>
            <DistanceMeters>18901.729054097</DistanceMeters>
          </Trackpoint>
          <Trackpoint>
            <Time>2022-11-06T11:34:59.000Z</Time>
            <Position>
              <LatitudeDegrees>41.356804780662059783935546875</LatitudeDegrees>
              <LongitudeDegrees>-1.66411246173083782196044921875</LongitudeDegrees>
            </Position>
            <AltitudeMeters>621.5999755859375</AltitudeMeters>
            <DistanceMeters>18905.215382092</DistanceMeters>
          </Trackpoint>
          <Trackpoint>
            <Time>2022-11-06T11:35:00.000Z</Time>
            <Position>
              <LatitudeDegrees>41.35682900436222553253173828125</LatitudeDegrees>
              <LongitudeDegrees>-1.6641345061361789703369140625</LongitudeDegrees>
            </Position>
            <AltitudeMeters>621.79998779296875</AltitudeMeters>
            <DistanceMeters>18908.479656928</DistanceMeters>
          </Trackpoint>
          <Trackpoint>
            <Time>2022-11-06T11:35:01.000Z</Time>
            <Position>
              <LatitudeDegrees>41.35685113258659839630126953125</LatitudeDegrees>
              <LongitudeDegrees>-1.66415839456021785736083984375</LongitudeDegrees>
            </Position>
            <AltitudeMeters>621.79998779296875</AltitudeMeters>
            <DistanceMeters>18911.648480843</DistanceMeters>
          </Trackpoint>
          <Trackpoint>
            <Time>2022-11-06T11:35:02.000Z</Time>
            <Position>
              <LatitudeDegrees>41.3568756915628910064697265625</LatitudeDegrees>
              <LongitudeDegrees>-1.6641851328313350677490234375</LongitudeDegrees>
            </Position>
            <AltitudeMeters>621.79998779296875</AltitudeMeters>
            <DistanceMeters>18915.178566606</DistanceMeters>
          </Trackpoint>
          <Trackpoint>
            <Time>2022-11-06T11:35:03.000Z</Time>
            <Position>
              <LatitudeDegrees>41.356902010738849639892578125</LatitudeDegrees>
              <LongitudeDegrees>-1.66421304456889629364013671875</LongitudeDegrees>
            </Position>
            <AltitudeMeters>622</AltitudeMeters>
            <DistanceMeters>18918.922184995</DistanceMeters>
          </Trackpoint>
          <Trackpoint>
            <Time>2022-11-06T11:35:04.000Z</Time>
            <Position>
              <LatitudeDegrees>41.35692405514419078826904296875</LatitudeDegrees>
              <LongitudeDegrees>-1.664240621030330657958984375</LongitudeDegrees>
            </Position>
            <AltitudeMeters>622</AltitudeMeters>
            <DistanceMeters>18922.288599399</DistanceMeters>
          </Trackpoint>
          <Trackpoint>
            <Time>2022-11-06T11:35:05.000Z</Time>
            <Position>
              <LatitudeDegrees>41.356945596635341644287109375</LatitudeDegrees>
              <LongitudeDegrees>-1.66426802985370159149169921875</LongitudeDegrees>
            </Position>
            <AltitudeMeters>622</AltitudeMeters>
            <DistanceMeters>18925.605018116</DistanceMeters>
          </Trackpoint>
          <Trackpoint>
            <Time>2022-11-06T11:35:06.000Z</Time>
            <Position>
              <LatitudeDegrees>41.356967724859714508056640625</LatitudeDegrees>
              <LongitudeDegrees>-1.6642994619905948638916015625</LongitudeDegrees>
            </Position>
            <AltitudeMeters>622.20001220703125</AltitudeMeters>
            <DistanceMeters>18929.203508024</DistanceMeters>
          </Trackpoint>
          <Trackpoint>
            <Time>2022-11-06T11:35:07.000Z</Time>
            <Position>
              <LatitudeDegrees>41.35698951780796051025390625</LatitudeDegrees>
              <LongitudeDegrees>-1.6643296368420124053955078125</LongitudeDegrees>
            </Position>
            <AltitudeMeters>620.4000244140625</AltitudeMeters>
            <DistanceMeters>18932.702762753</DistanceMeters>
          </Trackpoint>
          <Trackpoint>
            <Time>2022-11-06T11:35:08.000Z</Time>
            <Position>
              <LatitudeDegrees>41.357019357383251190185546875</LatitudeDegrees>
              <LongitudeDegrees>-1.66435503400862216949462890625</LongitudeDegrees>
            </Position>
            <AltitudeMeters>620.4000244140625</AltitudeMeters>
            <DistanceMeters>18936.643794532</DistanceMeters>
          </Trackpoint>
          <Trackpoint>
            <Time>2022-11-06T11:35:09.000Z</Time>
            <Position>
              <LatitudeDegrees>41.35704894550144672393798828125</LatitudeDegrees>
              <LongitudeDegrees>-1.6643638350069522857666015625</LongitudeDegrees>
            </Position>
            <AltitudeMeters>620.4000244140625</AltitudeMeters>
            <DistanceMeters>18940.018246547</DistanceMeters>
          </Trackpoint>
          <Trackpoint>
            <Time>2022-11-06T11:35:10.000Z</Time>
            <Position>
              <LatitudeDegrees>41.3570748455822467803955078125</LatitudeDegrees>
              <LongitudeDegrees>-1.66435536928474903106689453125</LongitudeDegrees>
            </Position>
            <AltitudeMeters>620.4000244140625</AltitudeMeters>
            <DistanceMeters>18942.986976007</DistanceMeters>
          </Trackpoint>
          <Trackpoint>
            <Time>2022-11-06T11:35:11.000Z</Time>
            <Position>
              <LatitudeDegrees>41.35709278285503387451171875</LatitudeDegrees>
              <LongitudeDegrees>-1.66433776728808879852294921875</LongitudeDegrees>
            </Position>
            <AltitudeMeters>620.5999755859375</AltitudeMeters>
            <DistanceMeters>18945.466790931</DistanceMeters>
          </Trackpoint>
          <Trackpoint>
            <Time>2022-11-06T11:35:12.000Z</Time>
            <Position>
              <LatitudeDegrees>41.3571066968142986297607421875</LatitudeDegrees>
              <LongitudeDegrees>-1.6643132083117961883544921875</LongitudeDegrees>
            </Position>
            <AltitudeMeters>621</AltitudeMeters>
            <DistanceMeters>18948.037786061</DistanceMeters>
          </Trackpoint>
          <Trackpoint>
            <Time>2022-11-06T11:35:14.000Z</Time>
            <Position>
              <LatitudeDegrees>41.3571328483521938323974609375</LatitudeDegrees>
              <LongitudeDegrees>-1.66426266543567180633544921875</LongitudeDegrees>
            </Position>
            <AltitudeMeters>621.79998779296875</AltitudeMeters>
            <DistanceMeters>18953.166588327</DistanceMeters>
          </Trackpoint>
          <Trackpoint>
            <Time>2022-11-06T11:35:15.000Z</Time>
            <Position>
              <LatitudeDegrees>41.3571445830166339874267578125</LatitudeDegrees>
              <LongitudeDegrees>-1.66425026021897792816162109375</LongitudeDegrees>
            </Position>
            <AltitudeMeters>622.20001220703125</AltitudeMeters>
            <DistanceMeters>18954.834300396</DistanceMeters>
          </Trackpoint>
          <Trackpoint>
            <Time>2022-11-06T11:35:16.000Z</Time>
            <Position>
              <LatitudeDegrees>41.35715782642364501953125</LatitudeDegrees>
              <LongitudeDegrees>-1.66424036957323551177978515625</LongitudeDegrees>
            </Position>
            <AltitudeMeters>622.5999755859375</AltitudeMeters>
            <DistanceMeters>18956.518178064</DistanceMeters>
          </Trackpoint>
          <Trackpoint>
            <Time>2022-11-06T11:35:17.000Z</Time>
            <Position>
              <LatitudeDegrees>41.35717685334384441375732421875</LatitudeDegrees>
              <LongitudeDegrees>-1.6642350889742374420166015625</LongitudeDegrees>
            </Position>
            <AltitudeMeters>623</AltitudeMeters>
            <DistanceMeters>18958.680949342</DistanceMeters>
          </Trackpoint>
          <Trackpoint>
            <Time>2022-11-06T11:35:18.000Z</Time>
            <Position>
              <LatitudeDegrees>41.3571958802640438079833984375</LatitudeDegrees>
              <LongitudeDegrees>-1.664225868880748748779296875</LongitudeDegrees>
            </Position>
            <AltitudeMeters>623.20001220703125</AltitudeMeters>
            <DistanceMeters>18960.933703869</DistanceMeters>
          </Trackpoint>
          <Trackpoint>
            <Time>2022-11-06T11:35:19.000Z</Time>
            <Position>
              <LatitudeDegrees>41.35721624828875064849853515625</LatitudeDegrees>
              <LongitudeDegrees>-1.66421321220695972442626953125</LongitudeDegrees>
            </Position>
            <AltitudeMeters>623.20001220703125</AltitudeMeters>
            <DistanceMeters>18963.433466438</DistanceMeters>
          </Trackpoint>
          <Trackpoint>
            <Time>2022-11-06T11:35:22.000Z</Time>
            <Position>
              <LatitudeDegrees>41.3572827167809009552001953125</LatitudeDegrees>
              <LongitudeDegrees>-1.66418370790779590606689453125</LongitudeDegrees>
            </Position>
            <AltitudeMeters>623.5999755859375</AltitudeMeters>
            <DistanceMeters>18971.231449175</DistanceMeters>
          </Trackpoint>
          <Trackpoint>
            <Time>2022-11-06T11:35:23.000Z</Time>
            <Position>
              <LatitudeDegrees>41.3573051802814006805419921875</LatitudeDegrees>
              <LongitudeDegrees>-1.66417725384235382080078125</LongitudeDegrees>
            </Position>
            <AltitudeMeters>623.79998779296875</AltitudeMeters>
            <DistanceMeters>18973.788356554</DistanceMeters>
          </Trackpoint>
          <Trackpoint>
            <Time>2022-11-06T11:35:24.000Z</Time>
            <Position>
              <LatitudeDegrees>41.35732336901128292083740234375</LatitudeDegrees>
              <LongitudeDegrees>-1.66415805928409099578857421875</LongitudeDegrees>
            </Position>
            <AltitudeMeters>624</AltitudeMeters>
            <DistanceMeters>18976.371615444</DistanceMeters>
          </Trackpoint>
          <Trackpoint>
            <Time>2022-11-06T11:35:25.000Z</Time>
            <Position>
              <LatitudeDegrees>41.35734214447438716888427734375</LatitudeDegrees>
              <LongitudeDegrees>-1.66414196603000164031982421875</LongitudeDegrees>
            </Position>
            <AltitudeMeters>624.20001220703125</AltitudeMeters>
            <DistanceMeters>18978.856886513</DistanceMeters>
          </Trackpoint>
          <Trackpoint>
            <Time>2022-11-06T11:35:26.000Z</Time>
            <Position>
              <LatitudeDegrees>41.35736024938523769378662109375</LatitudeDegrees>
              <LongitudeDegrees>-1.6641224361956119537353515625</LongitudeDegrees>
            </Position>
            <AltitudeMeters>624.20001220703125</AltitudeMeters>
            <DistanceMeters>18981.448869707</DistanceMeters>
          </Trackpoint>
          <Trackpoint>
            <Time>2022-11-06T11:35:27.000Z</Time>
            <Position>
              <LatitudeDegrees>41.35737567208707332611083984375</LatitudeDegrees>
              <LongitudeDegrees>-1.66410692967474460601806640625</LongitudeDegrees>
            </Position>
            <AltitudeMeters>624.5999755859375</AltitudeMeters>
            <DistanceMeters>18983.599078799</DistanceMeters>
          </Trackpoint>
          <Trackpoint>
            <Time>2022-11-06T11:35:28.000Z</Time>
            <Position>
              <LatitudeDegrees>41.3573871552944183349609375</LatitudeDegrees>
              <LongitudeDegrees>-1.66409536264836788177490234375</LongitudeDegrees>
            </Position>
            <AltitudeMeters>625</AltitudeMeters>
            <DistanceMeters>18985.20612636</DistanceMeters>
          </Trackpoint>
          <Trackpoint>
            <Time>2022-11-06T11:35:29.000Z</Time>
            <Position>
              <LatitudeDegrees>41.357397548854351043701171875</LatitudeDegrees>
              <LongitudeDegrees>-1.6640840470790863037109375</LongitudeDegrees>
            </Position>
            <AltitudeMeters>625.20001220703125</AltitudeMeters>
            <DistanceMeters>18986.702608554</DistanceMeters>
          </Trackpoint>
          <Trackpoint>
            <Time>2022-11-06T11:35:30.000Z</Time>
            <Position>
              <LatitudeDegrees>41.3574084453284740447998046875</LatitudeDegrees>
              <LongitudeDegrees>-1.66407206095755100250244140625</LongitudeDegrees>
            </Position>
            <AltitudeMeters>625.5999755859375</AltitudeMeters>
            <DistanceMeters>18988.275580564</DistanceMeters>
          </Trackpoint>
          <Trackpoint>
            <Time>2022-11-06T11:35:31.000Z</Time>
            <Position>
              <LatitudeDegrees>41.35741925798356533050537109375</LatitudeDegrees>
              <LongitudeDegrees>-1.66406116448342800140380859375</LongitudeDegrees>
            </Position>
            <AltitudeMeters>626.20001220703125</AltitudeMeters>
            <DistanceMeters>18989.784082889</DistanceMeters>
          </Trackpoint>
          <Trackpoint>
            <Time>2022-11-06T11:35:32.000Z</Time>
            <Position>
              <LatitudeDegrees>41.357434429228305816650390625</LatitudeDegrees>
              <LongitudeDegrees>-1.66404607705771923065185546875</LongitudeDegrees>
            </Position>
            <AltitudeMeters>626.5999755859375</AltitudeMeters>
            <DistanceMeters>18991.889734222</DistanceMeters>
          </Trackpoint>
          <Trackpoint>
            <Time>2022-11-06T11:35:33.000Z</Time>
            <Position>
              <LatitudeDegrees>41.35744943283498287200927734375</LatitudeDegrees>
              <LongitudeDegrees>-1.66402705013751983642578125</LongitudeDegrees>
            </Position>
            <AltitudeMeters>626.79998779296875</AltitudeMeters>
            <DistanceMeters>18994.19596817</DistanceMeters>
          </Trackpoint>
          <Trackpoint>
            <Time>2022-11-06T11:35:34.000Z</Time>
            <Position>
              <LatitudeDegrees>41.35746301151812076568603515625</LatitudeDegrees>
              <LongitudeDegrees>-1.6640097834169864654541015625</LongitudeDegrees>
            </Position>
            <AltitudeMeters>626.79998779296875</AltitudeMeters>
            <DistanceMeters>18996.286555886</DistanceMeters>
          </Trackpoint>
          <Trackpoint>
            <Time>2022-11-06T11:35:35.000Z</Time>
            <Position>
              <LatitudeDegrees>41.3574768416583538055419921875</LatitudeDegrees>
              <LongitudeDegrees>-1.66399276815354824066162109375</LongitudeDegrees>
            </Position>
            <AltitudeMeters>627</AltitudeMeters>
            <DistanceMeters>18998.383612688</DistanceMeters>
          </Trackpoint>
          <Trackpoint>
            <Time>2022-11-06T11:35:36.000Z</Time>
            <Position>
              <LatitudeDegrees>41.35749167762696743011474609375</LatitudeDegrees>
              <LongitudeDegrees>-1.6639742441475391387939453125</LongitudeDegrees>
            </Position>
            <AltitudeMeters>627.20001220703125</AltitudeMeters>
            <DistanceMeters>19000.646366175</DistanceMeters>
          </Trackpoint>
          <Trackpoint>
            <Time>2022-11-06T11:35:37.000Z</Time>
            <Position>
              <LatitudeDegrees>41.357506178319454193115234375</LatitudeDegrees>
              <LongitudeDegrees>-1.6639564745128154754638671875</LongitudeDegrees>
            </Position>
            <AltitudeMeters>627.20001220703125</AltitudeMeters>
            <DistanceMeters>19002.838169238</DistanceMeters>
          </Trackpoint>
          <Trackpoint>
            <Time>2022-11-06T11:35:38.000Z</Time>
            <Position>
              <LatitudeDegrees>41.35752051137387752532958984375</LatitudeDegrees>
              <LongitudeDegrees>-1.66393778286874294281005859375</LongitudeDegrees>
            </Position>
            <AltitudeMeters>627.20001220703125</AltitudeMeters>
            <DistanceMeters>19005.070791507</DistanceMeters>
          </Trackpoint>
          <Trackpoint>
            <Time>2022-11-06T11:35:39.000Z</Time>
            <Position>
              <LatitudeDegrees>41.3575318269431591033935546875</LatitudeDegrees>
              <LongitudeDegrees>-1.66391909122467041015625</LongitudeDegrees>
            </Position>
            <AltitudeMeters>627.4000244140625</AltitudeMeters>
            <DistanceMeters>19007.077633328</DistanceMeters>
          </Trackpoint>
          <Trackpoint>
            <Time>2022-11-06T11:35:40.000Z</Time>
            <Position>
              <LatitudeDegrees>41.3575427234172821044921875</LatitudeDegrees>
              <LongitudeDegrees>-1.66390073485672473907470703125</LongitudeDegrees>
            </Position>
            <AltitudeMeters>627.4000244140625</AltitudeMeters>
            <DistanceMeters>19009.029732777</DistanceMeters>
          </Trackpoint>
          <Trackpoint>
            <Time>2022-11-06T11:35:41.000Z</Time>
            <Position>
              <LatitudeDegrees>41.3575579784810543060302734375</LatitudeDegrees>
              <LongitudeDegrees>-1.663879863917827606201171875</LongitudeDegrees>
            </Position>
            <AltitudeMeters>627.5999755859375</AltitudeMeters>
            <DistanceMeters>19011.463604209</DistanceMeters>
          </Trackpoint>
          <Trackpoint>
            <Time>2022-11-06T11:35:42.000Z</Time>
            <Position>
              <LatitudeDegrees>41.35756929405033588409423828125</LatitudeDegrees>
              <LongitudeDegrees>-1.66386620141565799713134765625</LongitudeDegrees>
            </Position>
            <AltitudeMeters>627.5999755859375</AltitudeMeters>
            <DistanceMeters>19013.163493754</DistanceMeters>
          </Trackpoint>
          <Trackpoint>
            <Time>2022-11-06T11:35:43.000Z</Time>
            <Position>
              <LatitudeDegrees>41.35758002288639545440673828125</LatitudeDegrees>
              <LongitudeDegrees>-1.66385404765605926513671875</LongitudeDegrees>
            </Position>
            <AltitudeMeters>628</AltitudeMeters>
            <DistanceMeters>19014.730714476</DistanceMeters>
          </Trackpoint>
          <Trackpoint>
            <Time>2022-11-06T11:35:44.000Z</Time>
            <Position>
              <LatitudeDegrees>41.357585974037647247314453125</LatitudeDegrees>
              <LongitudeDegrees>-1.66384239681065082550048828125</LongitudeDegrees>
            </Position>
            <AltitudeMeters>628.20001220703125</AltitudeMeters>
            <DistanceMeters>19015.909964989</DistanceMeters>
          </Trackpoint>
          <Trackpoint>
            <Time>2022-11-06T11:35:45.000Z</Time>
            <Position>
              <LatitudeDegrees>41.3575925119221210479736328125</LatitudeDegrees>
              <LongitudeDegrees>-1.66383124887943267822265625</LongitudeDegrees>
            </Position>
            <AltitudeMeters>628.4000244140625</AltitudeMeters>
            <DistanceMeters>19017.089215502</DistanceMeters>
          </Trackpoint>
          <Trackpoint>
            <Time>2022-11-06T11:35:46.000Z</Time>
            <Position>
              <LatitudeDegrees>41.35760198347270488739013671875</LatitudeDegrees>
              <LongitudeDegrees>-1.66381808929145336151123046875</LongitudeDegrees>
            </Position>
            <AltitudeMeters>628.5999755859375</AltitudeMeters>
            <DistanceMeters>19018.612609622</DistanceMeters>
          </Trackpoint>
          <Trackpoint>
            <Time>2022-11-06T11:35:47.000Z</Time>
            <Position>
              <LatitudeDegrees>41.35761036537587642669677734375</LatitudeDegrees>
              <LongitudeDegrees>-1.66380166076123714447021484375</LongitudeDegrees>
            </Position>
            <AltitudeMeters>628.79998779296875</AltitudeMeters>
            <DistanceMeters>19020.269457002</DistanceMeters>
          </Trackpoint>
          <Trackpoint>
            <Time>2022-11-06T11:35:48.000Z</Time>
            <Position>
              <LatitudeDegrees>41.35761824436485767364501953125</LatitudeDegrees>
              <LongitudeDegrees>-1.6637836396694183349609375</LongitudeDegrees>
            </Position>
            <AltitudeMeters>629</AltitudeMeters>
            <DistanceMeters>19022.011325448</DistanceMeters>
          </Trackpoint>
          <Trackpoint>
            <Time>2022-11-06T11:35:49.000Z</Time>
            <Position>
              <LatitudeDegrees>41.35763056576251983642578125</LatitudeDegrees>
              <LongitudeDegrees>-1.663770563900470733642578125</LongitudeDegrees>
            </Position>
            <AltitudeMeters>629.20001220703125</AltitudeMeters>
            <DistanceMeters>19023.763531484</DistanceMeters>
          </Trackpoint>
          <Trackpoint>
            <Time>2022-11-06T11:35:50.000Z</Time>
            <Position>
              <LatitudeDegrees>41.35764489881694316864013671875</LatitudeDegrees>
              <LongitudeDegrees>-1.66376025415956974029541015625</LongitudeDegrees>
            </Position>
            <AltitudeMeters>629.4000244140625</AltitudeMeters>
            <DistanceMeters>19025.574033555</DistanceMeters>
          </Trackpoint>
          <Trackpoint>
            <Time>2022-11-06T11:35:51.000Z</Time>
            <Position>
              <LatitudeDegrees>41.35766082443296909332275390625</LatitudeDegrees>
              <LongitudeDegrees>-1.66375069878995418548583984375</LongitudeDegrees>
            </Position>
            <AltitudeMeters>629.5999755859375</AltitudeMeters>
            <DistanceMeters>19027.51685932</DistanceMeters>
          </Trackpoint>
          <Trackpoint>
            <Time>2022-11-06T11:35:52.000Z</Time>
            <Position>
              <LatitudeDegrees>41.357677839696407318115234375</LatitudeDegrees>
              <LongitudeDegrees>-1.66373443789780139923095703125</LongitudeDegrees>
            </Position>
            <AltitudeMeters>629.5999755859375</AltitudeMeters>
            <DistanceMeters>19029.848405163</DistanceMeters>
          </Trackpoint>
          <Trackpoint>
            <Time>2022-11-06T11:35:53.000Z</Time>
            <Position>
              <LatitudeDegrees>41.357695944607257843017578125</LatitudeDegrees>
              <LongitudeDegrees>-1.6637192666530609130859375</LongitudeDegrees>
            </Position>
            <AltitudeMeters>629.79998779296875</AltitudeMeters>
            <DistanceMeters>19032.225972797</DistanceMeters>
          </Trackpoint>
          <Trackpoint>
            <Time>2022-11-06T11:35:54.000Z</Time>
            <Position>
              <LatitudeDegrees>41.3577115349471569061279296875</LatitudeDegrees>
              <LongitudeDegrees>-1.6637046821415424346923828125</LongitudeDegrees>
            </Position>
            <AltitudeMeters>629.79998779296875</AltitudeMeters>
            <DistanceMeters>19034.348708802</DistanceMeters>
          </Trackpoint>
          <Trackpoint>
            <Time>2022-11-06T11:35:55.000Z</Time>
            <Position>
              <LatitudeDegrees>41.357730142772197723388671875</LatitudeDegrees>
              <LongitudeDegrees>-1.66369403712451457977294921875</LongitudeDegrees>
            </Position>
            <AltitudeMeters>629.79998779296875</AltitudeMeters>
            <DistanceMeters>19036.601463329</DistanceMeters>
          </Trackpoint>
          <Trackpoint>
            <Time>2022-11-06T11:35:56.000Z</Time>
            <Position>
              <LatitudeDegrees>41.35775118134915828704833984375</LatitudeDegrees>
              <LongitudeDegrees>-1.66368682868778705596923828125</LongitudeDegrees>
            </Position>
            <AltitudeMeters>629.79998779296875</AltitudeMeters>
            <DistanceMeters>19039.020448558</DistanceMeters>
          </Trackpoint>
          <Trackpoint>
            <Time>2022-11-06T11:35:57.000Z</Time>
            <Position>
              <LatitudeDegrees>41.35775118134915828704833984375</LatitudeDegrees>
              <LongitudeDegrees>-1.66368682868778705596923828125</LongitudeDegrees>
            </Position>
            <AltitudeMeters>630</AltitudeMeters>
            <DistanceMeters>19039.115475272</DistanceMeters>
          </Trackpoint>
          <Trackpoint>
            <Time>2022-11-06T11:35:58.000Z</Time>
            <Position>
              <LatitudeDegrees>41.3578028976917266845703125</LatitudeDegrees>
              <LongitudeDegrees>-1.66367626748979091644287109375</LongitudeDegrees>
            </Position>
            <AltitudeMeters>630</AltitudeMeters>
            <DistanceMeters>19044.939302804</DistanceMeters>
          </Trackpoint>
          <Trackpoint>
            <Time>2022-11-06T11:35:59.000Z</Time>
            <Position>
              <LatitudeDegrees>41.35783097706735134124755859375</LatitudeDegrees>
              <LongitudeDegrees>-1.6636634431779384613037109375</LongitudeDegrees>
            </Position>
            <AltitudeMeters>630</AltitudeMeters>
            <DistanceMeters>19048.243446025</DistanceMeters>
          </Trackpoint>
          <Trackpoint>
            <Time>2022-11-06T11:36:00.000Z</Time>
            <Position>
              <LatitudeDegrees>41.3578463159501552581787109375</LatitudeDegrees>
              <LongitudeDegrees>-1.66364894248545169830322265625</LongitudeDegrees>
            </Position>
            <AltitudeMeters>630.20001220703125</AltitudeMeters>
            <DistanceMeters>19050.334033741</DistanceMeters>
          </Trackpoint>
          <Trackpoint>
            <Time>2022-11-06T11:36:01.000Z</Time>
            <Position>
              <LatitudeDegrees>41.3578583858907222747802734375</LatitudeDegrees>
              <LongitudeDegrees>-1.663629747927188873291015625</LongitudeDegrees>
            </Position>
            <AltitudeMeters>630.20001220703125</AltitudeMeters>
            <DistanceMeters>19052.426780041</DistanceMeters>
          </Trackpoint>
          <Trackpoint>
            <Time>2022-11-06T11:36:02.000Z</Time>
            <Position>
              <LatitudeDegrees>41.3578637503087520599365234375</LatitudeDegrees>
              <LongitudeDegrees>-1.66360996663570404052734375</LongitudeDegrees>
            </Position>
            <AltitudeMeters>630.4000244140625</AltitudeMeters>
            <DistanceMeters>19054.184132067</DistanceMeters>
          </Trackpoint>
          <Trackpoint>
            <Time>2022-11-06T11:36:03.000Z</Time>
            <Position>
              <LatitudeDegrees>41.357870958745479583740234375</LatitudeDegrees>
              <LongitudeDegrees>-1.66359253227710723876953125</LongitudeDegrees>
            </Position>
            <AltitudeMeters>630.5999755859375</AltitudeMeters>
            <DistanceMeters>19055.846420668</DistanceMeters>
          </Trackpoint>
          <Trackpoint>
            <Time>2022-11-06T11:36:04.000Z</Time>
            <Position>
              <LatitudeDegrees>41.3578781671822071075439453125</LatitudeDegrees>
              <LongitudeDegrees>-1.66357601992785930633544921875</LongitudeDegrees>
            </Position>
            <AltitudeMeters>630.5999755859375</AltitudeMeters>
            <DistanceMeters>19057.442190562</DistanceMeters>
          </Trackpoint>
          <Trackpoint>
            <Time>2022-11-06T11:36:05.000Z</Time>
            <Position>
              <LatitudeDegrees>41.35788512416183948516845703125</LatitudeDegrees>
              <LongitudeDegrees>-1.6635578311979770660400390625</LongitudeDegrees>
            </Position>
            <AltitudeMeters>630.79998779296875</AltitudeMeters>
            <DistanceMeters>19059.147383987</DistanceMeters>
          </Trackpoint>
          <Trackpoint>
            <Time>2022-11-06T11:36:06.000Z</Time>
            <Position>
              <LatitudeDegrees>41.35789074003696441650390625</LatitudeDegrees>
              <LongitudeDegrees>-1.66353620588779449462890625</LongitudeDegrees>
            </Position>
            <AltitudeMeters>631</AltitudeMeters>
            <DistanceMeters>19061.059759724</DistanceMeters>
          </Trackpoint>
          <Trackpoint>
            <Time>2022-11-06T11:36:07.000Z</Time>
            <Position>
              <LatitudeDegrees>41.35789333842694759368896484375</LatitudeDegrees>
              <LongitudeDegrees>-1.66352405212819576263427734375</LongitudeDegrees>
            </Position>
            <AltitudeMeters>631</AltitudeMeters>
            <DistanceMeters>19062.10936409</DistanceMeters>
          </Trackpoint>
          <Trackpoint>
            <Time>2022-11-06T11:36:08.000Z</Time>
            <Position>
              <LatitudeDegrees>41.35789602063596248626708984375</LatitudeDegrees>
              <LongitudeDegrees>-1.66352522559463977813720703125</LongitudeDegrees>
            </Position>
            <AltitudeMeters>631.20001220703125</AltitudeMeters>
            <DistanceMeters>19062.438546285</DistanceMeters>
          </Trackpoint>
          <Trackpoint>
            <Time>2022-11-06T11:36:09.000Z</Time>
            <Position>
              <LatitudeDegrees>41.35789535008370876312255859375</LatitudeDegrees>
              <LongitudeDegrees>-1.66352287866175174713134765625</LongitudeDegrees>
            </Position>
            <AltitudeMeters>631.5999755859375</AltitudeMeters>
            <DistanceMeters>19062.671313247</DistanceMeters>
          </Trackpoint>
          <Trackpoint>
            <Time>2022-11-06T11:36:10.000Z</Time>
            <Position>
              <LatitudeDegrees>41.35789400897920131683349609375</LatitudeDegrees>
              <LongitudeDegrees>-1.66351902298629283905029296875</LongitudeDegrees>
            </Position>
            <AltitudeMeters>631.79998779296875</AltitudeMeters>
            <DistanceMeters>19063.000495442</DistanceMeters>
          </Trackpoint>
          <Trackpoint>
            <Time>2022-11-06T11:36:11.000Z</Time>
            <Position>
              <LatitudeDegrees>41.35789342224597930908203125</LatitudeDegrees>
              <LongitudeDegrees>-1.6635149158537387847900390625</LongitudeDegrees>
            </Position>
            <AltitudeMeters>632</AltitudeMeters>
            <DistanceMeters>19063.343119133</DistanceMeters>
          </Trackpoint>
          <Trackpoint>
            <Time>2022-11-06T11:36:12.000Z</Time>
            <Position>
              <LatitudeDegrees>41.35789074003696441650390625</LatitudeDegrees>
              <LongitudeDegrees>-1.66349907405674457550048828125</LongitudeDegrees>
            </Position>
            <AltitudeMeters>632.20001220703125</AltitudeMeters>
            <DistanceMeters>19064.700372092</DistanceMeters>
          </Trackpoint>
          <Trackpoint>
            <Time>2022-11-06T11:36:13.000Z</Time>
            <Position>
              <LatitudeDegrees>41.3578888960182666778564453125</LatitudeDegrees>
              <LongitudeDegrees>-1.663479544222354888916015625</LongitudeDegrees>
            </Position>
            <AltitudeMeters>632.4000244140625</AltitudeMeters>
            <DistanceMeters>19066.346283066</DistanceMeters>
          </Trackpoint>
          <Trackpoint>
            <Time>2022-11-06T11:36:14.000Z</Time>
            <Position>
              <LatitudeDegrees>41.357887051999568939208984375</LatitudeDegrees>
              <LongitudeDegrees>-1.66346118785440921783447265625</LongitudeDegrees>
            </Position>
            <AltitudeMeters>632.5999755859375</AltitudeMeters>
            <DistanceMeters>19067.89028442</DistanceMeters>
          </Trackpoint>
          <Trackpoint>
            <Time>2022-11-06T11:36:15.000Z</Time>
            <Position>
              <LatitudeDegrees>41.35788562707602977752685546875</LatitudeDegrees>
              <LongitudeDegrees>-1.66344576515257358551025390625</LongitudeDegrees>
            </Position>
            <AltitudeMeters>632.79998779296875</AltitudeMeters>
            <DistanceMeters>19069.189755195</DistanceMeters>
          </Trackpoint>
          <Trackpoint>
            <Time>2022-11-06T11:36:16.000Z</Time>
            <Position>
              <LatitudeDegrees>41.35788612999022006988525390625</LatitudeDegrees>
              <LongitudeDegrees>-1.66343956254422664642333984375</LongitudeDegrees>
            </Position>
            <AltitudeMeters>633</AltitudeMeters>
            <DistanceMeters>19069.710237945</DistanceMeters>
          </Trackpoint>
          <Trackpoint>
            <Time>2022-11-06T11:36:17.000Z</Time>
            <Position>
              <LatitudeDegrees>41.35788612999022006988525390625</LatitudeDegrees>
              <LongitudeDegrees>-1.66343956254422664642333984375</LongitudeDegrees>
            </Position>
            <AltitudeMeters>633</AltitudeMeters>
            <DistanceMeters>19069.710237945</DistanceMeters>
          </Trackpoint>
          <Trackpoint>
            <Time>2022-11-06T11:36:18.000Z</Time>
            <Position>
              <LatitudeDegrees>41.35788612999022006988525390625</LatitudeDegrees>
              <LongitudeDegrees>-1.66343956254422664642333984375</LongitudeDegrees>
            </Position>
            <AltitudeMeters>633.20001220703125</AltitudeMeters>
            <DistanceMeters>19069.710237945</DistanceMeters>
          </Trackpoint>
          <Trackpoint>
            <Time>2022-11-06T11:36:25.000Z</Time>
            <Position>
              <LatitudeDegrees>41.3579048216342926025390625</LatitudeDegrees>
              <LongitudeDegrees>-1.663325317203998565673828125</LongitudeDegrees>
            </Position>
            <AltitudeMeters>633.4000244140625</AltitudeMeters>
            <DistanceMeters>19079.478595933</DistanceMeters>
          </Trackpoint>
          <Trackpoint>
            <Time>2022-11-06T11:36:26.000Z</Time>
            <Position>
              <LatitudeDegrees>41.35791060514748096466064453125</LatitudeDegrees>
              <LongitudeDegrees>-1.6632966510951519012451171875</LongitudeDegrees>
            </Position>
            <AltitudeMeters>633.5999755859375</AltitudeMeters>
            <DistanceMeters>19081.958410857</DistanceMeters>
          </Trackpoint>
          <Trackpoint>
            <Time>2022-11-06T11:36:27.000Z</Time>
            <Position>
              <LatitudeDegrees>41.35791613720357418060302734375</LatitudeDegrees>
              <LongitudeDegrees>-1.66326739825308322906494140625</LongitudeDegrees>
            </Position>
            <AltitudeMeters>633.5999755859375</AltitudeMeters>
            <DistanceMeters>19084.477963147</DistanceMeters>
          </Trackpoint>
          <Trackpoint>
            <Time>2022-11-06T11:36:28.000Z</Time>
            <Position>
              <LatitudeDegrees>41.35791781358420848846435546875</LatitudeDegrees>
              <LongitudeDegrees>-1.66323571465909481048583984375</LongitudeDegrees>
            </Position>
            <AltitudeMeters>633.79998779296875</AltitudeMeters>
            <DistanceMeters>19087.131914847</DistanceMeters>
          </Trackpoint>
          <Trackpoint>
            <Time>2022-11-06T11:36:29.000Z</Time>
            <Position>
              <LatitudeDegrees>41.35791647247970104217529296875</LatitudeDegrees>
              <LongitudeDegrees>-1.66320688091218471527099609375</LongitudeDegrees>
            </Position>
            <AltitudeMeters>634</AltitudeMeters>
            <DistanceMeters>19089.545294077</DistanceMeters>
          </Trackpoint>
          <Trackpoint>
            <Time>2022-11-06T11:36:30.000Z</Time>
            <Position>
              <LatitudeDegrees>41.35791219770908355712890625</LatitudeDegrees>
              <LongitudeDegrees>-1.66318341158330440521240234375</LongitudeDegrees>
            </Position>
            <AltitudeMeters>634.4000244140625</AltitudeMeters>
            <DistanceMeters>19091.563353659</DistanceMeters>
          </Trackpoint>
          <Trackpoint>
            <Time>2022-11-06T11:36:31.000Z</Time>
            <Position>
              <LatitudeDegrees>41.35791110806167125701904296875</LatitudeDegrees>
              <LongitudeDegrees>-1.6631586849689483642578125</LongitudeDegrees>
            </Position>
            <AltitudeMeters>634.79998779296875</AltitudeMeters>
            <DistanceMeters>19093.634412883</DistanceMeters>
          </Trackpoint>
          <Trackpoint>
            <Time>2022-11-06T11:36:32.000Z</Time>
            <Position>
              <LatitudeDegrees>41.357911862432956695556640625</LatitudeDegrees>
              <LongitudeDegrees>-1.6631310246884822845458984375</LongitudeDegrees>
            </Position>
            <AltitudeMeters>635</AltitudeMeters>
            <DistanceMeters>19095.946512633</DistanceMeters>
          </Trackpoint>
          <Trackpoint>
            <Time>2022-11-06T11:36:33.000Z</Time>
            <Position>
              <LatitudeDegrees>41.3579113595187664031982421875</LatitudeDegrees>
              <LongitudeDegrees>-1.66309976018965244293212890625</LongitudeDegrees>
            </Position>
            <AltitudeMeters>635.20001220703125</AltitudeMeters>
            <DistanceMeters>19098.559315303</DistanceMeters>
          </Trackpoint>
          <Trackpoint>
            <Time>2022-11-06T11:36:34.000Z</Time>
            <Position>
              <LatitudeDegrees>41.35790959931910037994384765625</LatitudeDegrees>
              <LongitudeDegrees>-1.66306941770017147064208984375</LongitudeDegrees>
            </Position>
            <AltitudeMeters>635.20001220703125</AltitudeMeters>
            <DistanceMeters>19101.103831919</DistanceMeters>
          </Trackpoint>
          <Trackpoint>
            <Time>2022-11-06T11:36:35.000Z</Time>
            <Position>
              <LatitudeDegrees>41.357905156910419464111328125</LatitudeDegrees>
              <LongitudeDegrees>-1.6630384884774684906005859375</LongitudeDegrees>
            </Position>
            <AltitudeMeters>635.4000244140625</AltitudeMeters>
            <DistanceMeters>19103.733858261</DistanceMeters>
          </Trackpoint>
          <Trackpoint>
            <Time>2022-11-06T11:36:36.000Z</Time>
            <Position>
              <LatitudeDegrees>41.3578992895781993865966796875</LatitudeDegrees>
              <LongitudeDegrees>-1.66300923563539981842041015625</LongitudeDegrees>
            </Position>
            <AltitudeMeters>635.5999755859375</AltitudeMeters>
            <DistanceMeters>19106.262354676</DistanceMeters>
          </Trackpoint>
          <Trackpoint>
            <Time>2022-11-06T11:36:37.000Z</Time>
            <Position>
              <LatitudeDegrees>41.35789199732244014739990234375</LatitudeDegrees>
              <LongitudeDegrees>-1.6629781387746334075927734375</LongitudeDegrees>
            </Position>
            <AltitudeMeters>635.5999755859375</AltitudeMeters>
            <DistanceMeters>19108.983505661</DistanceMeters>
          </Trackpoint>
          <Trackpoint>
            <Time>2022-11-06T11:36:38.000Z</Time>
            <Position>
              <LatitudeDegrees>41.35788747109472751617431640625</LatitudeDegrees>
              <LongitudeDegrees>-1.6629506461322307586669921875</LongitudeDegrees>
            </Position>
            <AltitudeMeters>635.5999755859375</AltitudeMeters>
            <DistanceMeters>19111.334336745</DistanceMeters>
          </Trackpoint>
          <Trackpoint>
            <Time>2022-11-06T11:36:39.000Z</Time>
            <Position>
              <LatitudeDegrees>41.35788126848638057708740234375</LatitudeDegrees>
              <LongitudeDegrees>-1.6629224829375743865966796875</LongitudeDegrees>
            </Position>
            <AltitudeMeters>635.79998779296875</AltitudeMeters>
            <DistanceMeters>19113.786688863</DistanceMeters>
          </Trackpoint>
          <Trackpoint>
            <Time>2022-11-06T11:36:40.000Z</Time>
            <Position>
              <LatitudeDegrees>41.35787825100123882293701171875</LatitudeDegrees>
              <LongitudeDegrees>-1.6628916375339031219482421875</LongitudeDegrees>
            </Position>
            <AltitudeMeters>635.79998779296875</AltitudeMeters>
            <DistanceMeters>19116.385630413</DistanceMeters>
          </Trackpoint>
          <Trackpoint>
            <Time>2022-11-06T11:36:41.000Z</Time>
            <Position>
              <LatitudeDegrees>41.3578738085925579071044921875</LatitudeDegrees>
              <LongitudeDegrees>-1.6628617979586124420166015625</LongitudeDegrees>
            </Position>
            <AltitudeMeters>636.20001220703125</AltitudeMeters>
            <DistanceMeters>19118.924818193</DistanceMeters>
          </Trackpoint>
          <Trackpoint>
            <Time>2022-11-06T11:36:42.000Z</Time>
            <Position>
              <LatitudeDegrees>41.35786718688905239105224609375</LatitudeDegrees>
              <LongitudeDegrees>-1.662832796573638916015625</LongitudeDegrees>
            </Position>
            <AltitudeMeters>636.4000244140625</AltitudeMeters>
            <DistanceMeters>19121.455099639</DistanceMeters>
          </Trackpoint>
          <Trackpoint>
            <Time>2022-11-06T11:36:43.000Z</Time>
            <Position>
              <LatitudeDegrees>41.35785897262394428253173828125</LatitudeDegrees>
              <LongitudeDegrees>-1.66279993951320648193359375</LongitudeDegrees>
            </Position>
            <AltitudeMeters>636.5999755859375</AltitudeMeters>
            <DistanceMeters>19124.346786135</DistanceMeters>
          </Trackpoint>
          <Trackpoint>
            <Time>2022-11-06T11:36:44.000Z</Time>
            <Position>
              <LatitudeDegrees>41.35785679332911968231201171875</LatitudeDegrees>
              <LongitudeDegrees>-1.662778817117214202880859375</LongitudeDegrees>
            </Position>
            <AltitudeMeters>636.79998779296875</AltitudeMeters>
            <DistanceMeters>19126.127111058</DistanceMeters>
          </Trackpoint>
          <Trackpoint>
            <Time>2022-11-06T11:36:45.000Z</Time>
            <Position>
              <LatitudeDegrees>41.35785344056785106658935546875</LatitudeDegrees>
              <LongitudeDegrees>-1.66275207884609699249267578125</LongitudeDegrees>
            </Position>
            <AltitudeMeters>637</AltitudeMeters>
            <DistanceMeters>19128.391859039</DistanceMeters>
          </Trackpoint>
          <Trackpoint>
            <Time>2022-11-06T11:36:46.000Z</Time>
            <Position>
              <LatitudeDegrees>41.35784648358821868896484375</LatitudeDegrees>
              <LongitudeDegrees>-1.66272358037531375885009765625</LongitudeDegrees>
            </Position>
            <AltitudeMeters>637.4000244140625</AltitudeMeters>
            <DistanceMeters>19130.897034308</DistanceMeters>
          </Trackpoint>
          <Trackpoint>
            <Time>2022-11-06T11:36:47.000Z</Time>
            <Position>
              <LatitudeDegrees>41.35783835314214229583740234375</LatitudeDegrees>
              <LongitudeDegrees>-1.66269977577030658721923828125</LongitudeDegrees>
            </Position>
            <AltitudeMeters>637.5999755859375</AltitudeMeters>
            <DistanceMeters>19133.082648739</DistanceMeters>
          </Trackpoint>
          <Trackpoint>
            <Time>2022-11-06T11:36:48.000Z</Time>
            <Position>
              <LatitudeDegrees>41.357830055058002471923828125</LatitudeDegrees>
              <LongitudeDegrees>-1.66268016211688518524169921875</LongitudeDegrees>
            </Position>
            <AltitudeMeters>638</AltitudeMeters>
            <DistanceMeters>19134.959275983</DistanceMeters>
          </Trackpoint>
          <Trackpoint>
            <Time>2022-11-06T11:36:49.000Z</Time>
            <Position>
              <LatitudeDegrees>41.357825361192226409912109375</LatitudeDegrees>
              <LongitudeDegrees>-1.6626525856554508209228515625</LongitudeDegrees>
            </Position>
            <AltitudeMeters>638.20001220703125</AltitudeMeters>
            <DistanceMeters>19137.321602642</DistanceMeters>
          </Trackpoint>
          <Trackpoint>
            <Time>2022-11-06T11:36:50.000Z</Time>
            <Position>
              <LatitudeDegrees>41.35782075114548206329345703125</LatitudeDegrees>
              <LongitudeDegrees>-1.6626210696995258331298828125</LongitudeDegrees>
            </Position>
            <AltitudeMeters>638.4000244140625</AltitudeMeters>
            <DistanceMeters>19140.004319721</DistanceMeters>
          </Trackpoint>
          <Trackpoint>
            <Time>2022-11-06T11:36:51.000Z</Time>
            <Position>
              <LatitudeDegrees>41.357815302908420562744140625</LatitudeDegrees>
              <LongitudeDegrees>-1.6625898890197277069091796875</LongitudeDegrees>
            </Position>
            <AltitudeMeters>638.5999755859375</AltitudeMeters>
            <DistanceMeters>19142.678608513</DistanceMeters>
          </Trackpoint>
          <Trackpoint>
            <Time>2022-11-06T11:36:52.000Z</Time>
            <Position>
              <LatitudeDegrees>41.35780817829072475433349609375</LatitudeDegrees>
              <LongitudeDegrees>-1.66255585849285125732421875</LongitudeDegrees>
            </Position>
            <AltitudeMeters>638.79998779296875</AltitudeMeters>
            <DistanceMeters>19145.629031142</DistanceMeters>
          </Trackpoint>
          <Trackpoint>
            <Time>2022-11-06T11:36:53.000Z</Time>
            <Position>
              <LatitudeDegrees>41.35780532844364643096923828125</LatitudeDegrees>
              <LongitudeDegrees>-1.662534736096858978271484375</LongitudeDegrees>
            </Position>
            <AltitudeMeters>639</AltitudeMeters>
            <DistanceMeters>19147.42450804</DistanceMeters>
          </Trackpoint>
          <Trackpoint>
            <Time>2022-11-06T11:36:54.000Z</Time>
            <Position>
              <LatitudeDegrees>41.35780130513012409210205078125</LatitudeDegrees>
              <LongitudeDegrees>-1.662502549588680267333984375</LongitudeDegrees>
            </Position>
            <AltitudeMeters>639.20001220703125</AltitudeMeters>
            <DistanceMeters>19150.152287904</DistanceMeters>
          </Trackpoint>
          <Trackpoint>
            <Time>2022-11-06T11:36:55.000Z</Time>
            <Position>
              <LatitudeDegrees>41.35779862292110919952392578125</LatitudeDegrees>
              <LongitudeDegrees>-1.6624720394611358642578125</LongitudeDegrees>
            </Position>
            <AltitudeMeters>639.20001220703125</AltitudeMeters>
            <DistanceMeters>19152.718009192</DistanceMeters>
          </Trackpoint>
          <Trackpoint>
            <Time>2022-11-06T11:36:56.000Z</Time>
            <Position>
              <LatitudeDegrees>41.3577923364937305450439453125</LatitudeDegrees>
              <LongitudeDegrees>-1.66244211606681346893310546875</LongitudeDegrees>
            </Position>
            <AltitudeMeters>639.4000244140625</AltitudeMeters>
            <DistanceMeters>19155.313473896</DistanceMeters>
          </Trackpoint>
          <Trackpoint>
            <Time>2022-11-06T11:36:57.000Z</Time>
            <Position>
              <LatitudeDegrees>41.35778336785733699798583984375</LatitudeDegrees>
              <LongitudeDegrees>-1.66240624152123928070068359375</LongitudeDegrees>
            </Position>
            <AltitudeMeters>639.4000244140625</AltitudeMeters>
            <DistanceMeters>19158.472308249</DistanceMeters>
          </Trackpoint>
          <Trackpoint>
            <Time>2022-11-06T11:36:58.000Z</Time>
            <Position>
              <LatitudeDegrees>41.35777347721159458160400390625</LatitudeDegrees>
              <LongitudeDegrees>-1.66237405501306056976318359375</LongitudeDegrees>
            </Position>
            <AltitudeMeters>639.5999755859375</AltitudeMeters>
            <DistanceMeters>19161.378013237</DistanceMeters>
          </Trackpoint>
          <Trackpoint>
            <Time>2022-11-06T11:36:59.000Z</Time>
            <Position>
              <LatitudeDegrees>41.35776174254715442657470703125</LatitudeDegrees>
              <LongitudeDegrees>-1.66234128177165985107421875</LongitudeDegrees>
            </Position>
            <AltitudeMeters>639.79998779296875</AltitudeMeters>
            <DistanceMeters>19164.41143505</DistanceMeters>
          </Trackpoint>
          <Trackpoint>
            <Time>2022-11-06T11:37:00.000Z</Time>
            <Position>
              <LatitudeDegrees>41.35774816386401653289794921875</LatitudeDegrees>
              <LongitudeDegrees>-1.662309430539608001708984375</LongitudeDegrees>
            </Position>
            <AltitudeMeters>639.79998779296875</AltitudeMeters>
            <DistanceMeters>19167.473006435</DistanceMeters>
          </Trackpoint>
          <Trackpoint>
            <Time>2022-11-06T11:37:01.000Z</Time>
            <Position>
              <LatitudeDegrees>41.35773391462862491607666015625</LatitudeDegrees>
              <LongitudeDegrees>-1.66227447800338268280029296875</LongitudeDegrees>
            </Position>
            <AltitudeMeters>640</AltitudeMeters>
            <DistanceMeters>19170.794866368</DistanceMeters>
          </Trackpoint>
          <Trackpoint>
            <Time>2022-11-06T11:37:02.000Z</Time>
            <Position>
              <LatitudeDegrees>41.357718408107757568359375</LatitudeDegrees>
              <LongitudeDegrees>-1.66223793290555477142333984375</LongitudeDegrees>
            </Position>
            <AltitudeMeters>640</AltitudeMeters>
            <DistanceMeters>19174.301854266</DistanceMeters>
          </Trackpoint>
          <Trackpoint>
            <Time>2022-11-06T11:37:03.000Z</Time>
            <Position>
              <LatitudeDegrees>41.3576994650065898895263671875</LatitudeDegrees>
              <LongitudeDegrees>-1.6621984541416168212890625</LongitudeDegrees>
            </Position>
            <AltitudeMeters>640</AltitudeMeters>
            <DistanceMeters>19178.217600658</DistanceMeters>
          </Trackpoint>
          <Trackpoint>
            <Time>2022-11-06T11:37:04.000Z</Time>
            <Position>
              <LatitudeDegrees>41.35767926461994647979736328125</LatitudeDegrees>
              <LongitudeDegrees>-1.66215830482542514801025390625</LongitudeDegrees>
            </Position>
            <AltitudeMeters>640</AltitudeMeters>
            <DistanceMeters>19182.255956519</DistanceMeters>
          </Trackpoint>
          <Trackpoint>
            <Time>2022-11-06T11:37:05.000Z</Time>
            <Position>
              <LatitudeDegrees>41.35765596292912960052490234375</LatitudeDegrees>
              <LongitudeDegrees>-1.66211907751858234405517578125</LongitudeDegrees>
            </Position>
            <AltitudeMeters>640</AltitudeMeters>
            <DistanceMeters>19186.434971695</DistanceMeters>
          </Trackpoint>
          <Trackpoint>
            <Time>2022-11-06T11:37:06.000Z</Time>
            <Position>
              <LatitudeDegrees>41.3576307334005832672119140625</LatitudeDegrees>
              <LongitudeDegrees>-1.662079431116580963134765625</LongitudeDegrees>
            </Position>
            <AltitudeMeters>640</AltitudeMeters>
            <DistanceMeters>19190.778222746</DistanceMeters>
          </Trackpoint>
          <Trackpoint>
            <Time>2022-11-06T11:37:07.000Z</Time>
            <Position>
              <LatitudeDegrees>41.3576065935194492340087890625</LatitudeDegrees>
              <LongitudeDegrees>-1.66203148663043975830078125</LongitudeDegrees>
            </Position>
            <AltitudeMeters>640</AltitudeMeters>
            <DistanceMeters>19195.60123808</DistanceMeters>
          </Trackpoint>
          <Trackpoint>
            <Time>2022-11-06T11:37:08.000Z</Time>
            <Position>
              <LatitudeDegrees>41.35759259574115276336669921875</LatitudeDegrees>
              <LongitudeDegrees>-1.66197256185114383697509765625</LongitudeDegrees>
            </Position>
            <AltitudeMeters>639.79998779296875</AltitudeMeters>
            <DistanceMeters>19200.764259063</DistanceMeters>
          </Trackpoint>
          <Trackpoint>
            <Time>2022-11-06T11:37:09.000Z</Time>
            <Position>
              <LatitudeDegrees>41.35759410448372364044189453125</LatitudeDegrees>
              <LongitudeDegrees>-1.66189997456967830657958984375</LongitudeDegrees>
            </Position>
            <AltitudeMeters>639.5999755859375</AltitudeMeters>
            <DistanceMeters>19206.830358428</DistanceMeters>
          </Trackpoint>
          <Trackpoint>
            <Time>2022-11-06T11:37:10.000Z</Time>
            <Position>
              <LatitudeDegrees>41.35760852135717868804931640625</LatitudeDegrees>
              <LongitudeDegrees>-1.661824285984039306640625</LongitudeDegrees>
            </Position>
            <AltitudeMeters>639.20001220703125</AltitudeMeters>
            <DistanceMeters>19213.354757278</DistanceMeters>
          </Trackpoint>
          <Trackpoint>
            <Time>2022-11-06T11:37:11.000Z</Time>
            <Position>
              <LatitudeDegrees>41.35763299651443958282470703125</LatitudeDegrees>
              <LongitudeDegrees>-1.66174658574163913726806640625</LongitudeDegrees>
            </Position>
            <AltitudeMeters>638.5999755859375</AltitudeMeters>
            <DistanceMeters>19220.394434794</DistanceMeters>
          </Trackpoint>
          <Trackpoint>
            <Time>2022-11-06T11:37:12.000Z</Time>
            <Position>
              <LatitudeDegrees>41.35766585357487201690673828125</LatitudeDegrees>
              <LongitudeDegrees>-1.66166360490024089813232421875</LongitudeDegrees>
            </Position>
            <AltitudeMeters>638.20001220703125</AltitudeMeters>
            <DistanceMeters>19228.232842803</DistanceMeters>
          </Trackpoint>
          <Trackpoint>
            <Time>2022-11-06T11:37:13.000Z</Time>
            <Position>
              <LatitudeDegrees>41.357708014547824859619140625</LatitudeDegrees>
              <LongitudeDegrees>-1.66158489882946014404296875</LongitudeDegrees>
            </Position>
            <AltitudeMeters>637.4000244140625</AltitudeMeters>
            <DistanceMeters>19236.311790293</DistanceMeters>
          </Trackpoint>
          <Trackpoint>
            <Time>2022-11-06T11:37:14.000Z</Time>
            <Position>
              <LatitudeDegrees>41.357752941548824310302734375</LatitudeDegrees>
              <LongitudeDegrees>-1.66150510311126708984375</LongitudeDegrees>
            </Position>
            <AltitudeMeters>636.79998779296875</AltitudeMeters>
            <DistanceMeters>19244.644934228</DistanceMeters>
          </Trackpoint>
          <Trackpoint>
            <Time>2022-11-06T11:37:15.000Z</Time>
            <Position>
              <LatitudeDegrees>41.357798539102077484130859375</LatitudeDegrees>
              <LongitudeDegrees>-1.6614234633743762969970703125</LongitudeDegrees>
            </Position>
            <AltitudeMeters>636.4000244140625</AltitudeMeters>
            <DistanceMeters>19253.146506545</DistanceMeters>
          </Trackpoint>
          <Trackpoint>
            <Time>2022-11-06T11:37:17.000Z</Time>
            <Position>
              <LatitudeDegrees>41.3578882254660129547119140625</LatitudeDegrees>
              <LongitudeDegrees>-1.66126261465251445770263671875</LongitudeDegrees>
            </Position>
            <AltitudeMeters>636</AltitudeMeters>
            <DistanceMeters>19269.886319334</DistanceMeters>
          </Trackpoint>
          <Trackpoint>
            <Time>2022-11-06T11:37:19.000Z</Time>
            <Position>
              <LatitudeDegrees>41.357924602925777435302734375</LatitudeDegrees>
              <LongitudeDegrees>-1.66111291386187076568603515625</LongitudeDegrees>
            </Position>
            <AltitudeMeters>635.20001220703125</AltitudeMeters>
            <DistanceMeters>19283.032330249</DistanceMeters>
          </Trackpoint>
          <Trackpoint>
            <Time>2022-11-06T11:37:20.000Z</Time>
            <Position>
              <LatitudeDegrees>41.35790339671075344085693359375</LatitudeDegrees>
              <LongitudeDegrees>-1.66105457581579685211181640625</LongitudeDegrees>
            </Position>
            <AltitudeMeters>634.79998779296875</AltitudeMeters>
            <DistanceMeters>19288.448019337</DistanceMeters>
          </Trackpoint>
          <Trackpoint>
            <Time>2022-11-06T11:37:21.000Z</Time>
            <Position>
              <LatitudeDegrees>41.3578697852790355682373046875</LatitudeDegrees>
              <LongitudeDegrees>-1.6610047034919261932373046875</LongitudeDegrees>
            </Position>
            <AltitudeMeters>634.4000244140625</AltitudeMeters>
            <DistanceMeters>19294.047342994</DistanceMeters>
          </Trackpoint>
          <Trackpoint>
            <Time>2022-11-06T11:37:22.000Z</Time>
            <Position>
              <LatitudeDegrees>41.35784438811242580413818359375</LatitudeDegrees>
              <LongitudeDegrees>-1.66095281951129436492919921875</LongitudeDegrees>
            </Position>
            <AltitudeMeters>634</AltitudeMeters>
            <DistanceMeters>19299.22259243</DistanceMeters>
          </Trackpoint>
          <Trackpoint>
            <Time>2022-11-06T11:37:23.000Z</Time>
            <Position>
              <LatitudeDegrees>41.3578275404870510101318359375</LatitudeDegrees>
              <LongitudeDegrees>-1.6609017737209796905517578125</LongitudeDegrees>
            </Position>
            <AltitudeMeters>633.20001220703125</AltitudeMeters>
            <DistanceMeters>19303.880840351</DistanceMeters>
          </Trackpoint>
          <Trackpoint>
            <Time>2022-11-06T11:37:24.000Z</Time>
            <Position>
              <LatitudeDegrees>41.3578131236135959625244140625</LatitudeDegrees>
              <LongitudeDegrees>-1.6608385741710662841796875</LongitudeDegrees>
            </Position>
            <AltitudeMeters>632.5999755859375</AltitudeMeters>
            <DistanceMeters>19309.398121176</DistanceMeters>
          </Trackpoint>
          <Trackpoint>
            <Time>2022-11-06T11:37:25.000Z</Time>
            <Position>
              <LatitudeDegrees>41.35778923518955707550048828125</LatitudeDegrees>
              <LongitudeDegrees>-1.6607529111206531524658203125</LongitudeDegrees>
            </Position>
            <AltitudeMeters>632</AltitudeMeters>
            <DistanceMeters>19317.032262474</DistanceMeters>
          </Trackpoint>
          <Trackpoint>
            <Time>2022-11-06T11:37:26.000Z</Time>
            <Position>
              <LatitudeDegrees>41.35776308365166187286376953125</LatitudeDegrees>
              <LongitudeDegrees>-1.66064822115004062652587890625</LongitudeDegrees>
            </Position>
            <AltitudeMeters>631.20001220703125</AltitudeMeters>
            <DistanceMeters>19326.249363927</DistanceMeters>
          </Trackpoint>
          <Trackpoint>
            <Time>2022-11-06T11:37:27.000Z</Time>
            <Position>
              <LatitudeDegrees>41.357738189399242401123046875</LatitudeDegrees>
              <LongitudeDegrees>-1.660542190074920654296875</LongitudeDegrees>
            </Position>
            <AltitudeMeters>629</AltitudeMeters>
            <DistanceMeters>19335.530414471</DistanceMeters>
          </Trackpoint>
          <Trackpoint>
            <Time>2022-11-06T11:37:28.000Z</Time>
            <Position>
              <LatitudeDegrees>41.35771329514682292938232421875</LatitudeDegrees>
              <LongitudeDegrees>-1.66044336743652820587158203125</LongitudeDegrees>
            </Position>
            <AltitudeMeters>627.79998779296875</AltitudeMeters>
            <DistanceMeters>19344.238719815</DistanceMeters>
          </Trackpoint>
          <Trackpoint>
            <Time>2022-11-06T11:37:29.000Z</Time>
            <Position>
              <LatitudeDegrees>41.357696950435638427734375</LatitudeDegrees>
              <LongitudeDegrees>-1.66035803966224193572998046875</LongitudeDegrees>
            </Position>
            <AltitudeMeters>627.20001220703125</AltitudeMeters>
            <DistanceMeters>19351.59577617</DistanceMeters>
          </Trackpoint>
          <Trackpoint>
            <Time>2022-11-06T11:37:30.000Z</Time>
            <Position>
              <LatitudeDegrees>41.35769971646368503570556640625</LatitudeDegrees>
              <LongitudeDegrees>-1.66029618121683597564697265625</LongitudeDegrees>
            </Position>
            <AltitudeMeters>626.79998779296875</AltitudeMeters>
            <DistanceMeters>19356.771897962</DistanceMeters>
          </Trackpoint>
          <Trackpoint>
            <Time>2022-11-06T11:37:31.000Z</Time>
            <Position>
              <LatitudeDegrees>41.3577148877084255218505859375</LatitudeDegrees>
              <LongitudeDegrees>-1.6602597199380397796630859375</LongitudeDegrees>
            </Position>
            <AltitudeMeters>627</AltitudeMeters>
            <DistanceMeters>19360.254338581</DistanceMeters>
          </Trackpoint>
          <Trackpoint>
            <Time>2022-11-06T11:37:32.000Z</Time>
            <Position>
              <LatitudeDegrees>41.3577339984476566314697265625</LatitudeDegrees>
              <LongitudeDegrees>-1.660231053829193115234375</LongitudeDegrees>
            </Position>
            <AltitudeMeters>627</AltitudeMeters>
            <DistanceMeters>19363.457175892</DistanceMeters>
          </Trackpoint>
          <Trackpoint>
            <Time>2022-11-06T11:37:33.000Z</Time>
            <Position>
              <LatitudeDegrees>41.35776744224131107330322265625</LatitudeDegrees>
              <LongitudeDegrees>-1.6602074168622493743896484375</LongitudeDegrees>
            </Position>
            <AltitudeMeters>627</AltitudeMeters>
            <DistanceMeters>19367.670622259</DistanceMeters>
          </Trackpoint>
          <Trackpoint>
            <Time>2022-11-06T11:37:34.000Z</Time>
            <Position>
              <LatitudeDegrees>41.35781320743262767791748046875</LatitudeDegrees>
              <LongitudeDegrees>-1.6601956821978092193603515625</LongitudeDegrees>
            </Position>
            <AltitudeMeters>627</AltitudeMeters>
            <DistanceMeters>19372.857200874</DistanceMeters>
          </Trackpoint>
          <Trackpoint>
            <Time>2022-11-06T11:37:35.000Z</Time>
            <Position>
              <LatitudeDegrees>41.35786450468003749847412109375</LatitudeDegrees>
              <LongitudeDegrees>-1.6602090932428836822509765625</LongitudeDegrees>
            </Position>
            <AltitudeMeters>626.5999755859375</AltitudeMeters>
            <DistanceMeters>19378.675598986</DistanceMeters>
          </Trackpoint>
          <Trackpoint>
            <Time>2022-11-06T11:37:36.000Z</Time>
            <Position>
              <LatitudeDegrees>41.35791513137519359588623046875</LatitudeDegrees>
              <LongitudeDegrees>-1.6602389328181743621826171875</LongitudeDegrees>
            </Position>
            <AltitudeMeters>625.4000244140625</AltitudeMeters>
            <DistanceMeters>19384.836965829</DistanceMeters>
          </Trackpoint>
          <Trackpoint>
            <Time>2022-11-06T11:37:38.000Z</Time>
            <Position>
              <LatitudeDegrees>41.35801278054714202880859375</LatitudeDegrees>
              <LongitudeDegrees>-1.6602805070579051971435546875</LongitudeDegrees>
            </Position>
            <AltitudeMeters>624.4000244140625</AltitudeMeters>
            <DistanceMeters>19396.247296331</DistanceMeters>
          </Trackpoint>
          <Trackpoint>
            <Time>2022-11-06T11:37:39.000Z</Time>
            <Position>
              <LatitudeDegrees>41.35806768201291561126708984375</LatitudeDegrees>
              <LongitudeDegrees>-1.66027287952601909637451171875</LongitudeDegrees>
            </Position>
            <AltitudeMeters>624.20001220703125</AltitudeMeters>
            <DistanceMeters>19402.391050845</DistanceMeters>
          </Trackpoint>
          <Trackpoint>
            <Time>2022-11-06T11:37:40.000Z</Time>
            <Position>
              <LatitudeDegrees>41.35810104198753833770751953125</LatitudeDegrees>
              <LongitudeDegrees>-1.660250835120677947998046875</LongitudeDegrees>
            </Position>
            <AltitudeMeters>623.79998779296875</AltitudeMeters>
            <DistanceMeters>19406.535348783</DistanceMeters>
          </Trackpoint>
          <Trackpoint>
            <Time>2022-11-06T11:37:41.000Z</Time>
            <Position>
              <LatitudeDegrees>41.3581346534192562103271484375</LatitudeDegrees>
              <LongitudeDegrees>-1.66019962169229984283447265625</LongitudeDegrees>
            </Position>
            <AltitudeMeters>623.4000244140625</AltitudeMeters>
            <DistanceMeters>19412.217914521</DistanceMeters>
          </Trackpoint>
          <Trackpoint>
            <Time>2022-11-06T11:37:42.000Z</Time>
            <Position>
              <LatitudeDegrees>41.35815761983394622802734375</LatitudeDegrees>
              <LongitudeDegrees>-1.66011379100382328033447265625</LongitudeDegrees>
            </Position>
            <AltitudeMeters>623.20001220703125</AltitudeMeters>
            <DistanceMeters>19419.83073467</DistanceMeters>
          </Trackpoint>
          <Trackpoint>
            <Time>2022-11-06T11:37:44.000Z</Time>
            <Position>
              <LatitudeDegrees>41.3582201488316059112548828125</LatitudeDegrees>
              <LongitudeDegrees>-1.659982614219188690185546875</LongitudeDegrees>
            </Position>
            <AltitudeMeters>621.5999755859375</AltitudeMeters>
            <DistanceMeters>19432.812580327</DistanceMeters>
          </Trackpoint>
          <Trackpoint>
            <Time>2022-11-06T11:37:45.000Z</Time>
            <Position>
              <LatitudeDegrees>41.35826515965163707733154296875</LatitudeDegrees>
              <LongitudeDegrees>-1.65992058813571929931640625</LongitudeDegrees>
            </Position>
            <AltitudeMeters>621</AltitudeMeters>
            <DistanceMeters>19440.020217234</DistanceMeters>
          </Trackpoint>
          <Trackpoint>
            <Time>2022-11-06T11:37:46.000Z</Time>
            <Position>
              <LatitudeDegrees>41.3583046384155750274658203125</LatitudeDegrees>
              <LongitudeDegrees>-1.65985093452036380767822265625</LongitudeDegrees>
            </Position>
            <AltitudeMeters>620</AltitudeMeters>
            <DistanceMeters>19447.311931031</DistanceMeters>
          </Trackpoint>
          <Trackpoint>
            <Time>2022-11-06T11:37:48.000Z</Time>
            <Position>
              <LatitudeDegrees>41.35836389847099781036376953125</LatitudeDegrees>
              <LongitudeDegrees>-1.65969301946461200714111328125</LongitudeDegrees>
            </Position>
            <AltitudeMeters>618.79998779296875</AltitudeMeters>
            <DistanceMeters>19462.061595492</DistanceMeters>
          </Trackpoint>
          <Trackpoint>
            <Time>2022-11-06T11:37:49.000Z</Time>
            <Position>
              <LatitudeDegrees>41.35839876718819141387939453125</LatitudeDegrees>
              <LongitudeDegrees>-1.6596404649317264556884765625</LongitudeDegrees>
            </Position>
            <AltitudeMeters>617.4000244140625</AltitudeMeters>
            <DistanceMeters>19467.920976913</DistanceMeters>
          </Trackpoint>
          <Trackpoint>
            <Time>2022-11-06T11:37:50.000Z</Time>
            <Position>
              <LatitudeDegrees>41.35844335891306400299072265625</LatitudeDegrees>
              <LongitudeDegrees>-1.65958036668598651885986328125</LongitudeDegrees>
            </Position>
            <AltitudeMeters>616.5999755859375</AltitudeMeters>
            <DistanceMeters>19474.981148438</DistanceMeters>
          </Trackpoint>
          <Trackpoint>
            <Time>2022-11-06T11:37:51.000Z</Time>
            <Position>
              <LatitudeDegrees>41.358467079699039459228515625</LatitudeDegrees>
              <LongitudeDegrees>-1.6595301590859889984130859375</LongitudeDegrees>
            </Position>
            <AltitudeMeters>616.20001220703125</AltitudeMeters>
            <DistanceMeters>19479.937135517</DistanceMeters>
          </Trackpoint>
          <Trackpoint>
            <Time>2022-11-06T11:37:52.000Z</Time>
            <Position>
              <LatitudeDegrees>41.35848778299987316131591796875</LatitudeDegrees>
              <LongitudeDegrees>-1.65945849381387233734130859375</LongitudeDegrees>
            </Position>
            <AltitudeMeters>615.79998779296875</AltitudeMeters>
            <DistanceMeters>19486.352670447</DistanceMeters>
          </Trackpoint>
          <Trackpoint>
            <Time>2022-11-06T11:37:53.000Z</Time>
            <Position>
              <LatitudeDegrees>41.3585058040916919708251953125</LatitudeDegrees>
              <LongitudeDegrees>-1.65939043276011943817138671875</LongitudeDegrees>
            </Position>
            <AltitudeMeters>615.4000244140625</AltitudeMeters>
            <DistanceMeters>19492.382188484</DistanceMeters>
          </Trackpoint>
          <Trackpoint>
            <Time>2022-11-06T11:37:54.000Z</Time>
            <Position>
              <LatitudeDegrees>41.35852600447833538055419921875</LatitudeDegrees>
              <LongitudeDegrees>-1.6593242995440959930419921875</LongitudeDegrees>
            </Position>
            <AltitudeMeters>614.4000244140625</AltitudeMeters>
            <DistanceMeters>19498.346960164</DistanceMeters>
          </Trackpoint>
          <Trackpoint>
            <Time>2022-11-06T11:37:55.000Z</Time>
            <Position>
              <LatitudeDegrees>41.3585534133017063140869140625</LatitudeDegrees>
              <LongitudeDegrees>-1.65925682522356510162353515625</LongitudeDegrees>
            </Position>
            <AltitudeMeters>613.4000244140625</AltitudeMeters>
            <DistanceMeters>19504.756862489</DistanceMeters>
          </Trackpoint>
          <Trackpoint>
            <Time>2022-11-06T11:37:56.000Z</Time>
            <Position>
              <LatitudeDegrees>41.358579732477664947509765625</LatitudeDegrees>
              <LongitudeDegrees>-1.65919848717749118804931640625</LongitudeDegrees>
            </Position>
            <AltitudeMeters>612.5999755859375</AltitudeMeters>
            <DistanceMeters>19510.442605507</DistanceMeters>
          </Trackpoint>
          <Trackpoint>
            <Time>2022-11-06T11:37:57.000Z</Time>
            <Position>
              <LatitudeDegrees>41.35862155817449092864990234375</LatitudeDegrees>
              <LongitudeDegrees>-1.65915054269134998321533203125</LongitudeDegrees>
            </Position>
            <AltitudeMeters>611.5999755859375</AltitudeMeters>
            <DistanceMeters>19516.583419723</DistanceMeters>
          </Trackpoint>
          <Trackpoint>
            <Time>2022-11-06T11:37:59.000Z</Time>
            <Position>
              <LatitudeDegrees>41.3587126694619655609130859375</LatitudeDegrees>
              <LongitudeDegrees>-1.6590356267988681793212890625</LongitudeDegrees>
            </Position>
            <AltitudeMeters>610.20001220703125</AltitudeMeters>
            <DistanceMeters>19530.547820921</DistanceMeters>
          </Trackpoint>
          <Trackpoint>
            <Time>2022-11-06T11:38:00.000Z</Time>
            <Position>
              <LatitudeDegrees>41.358772180974483489990234375</LatitudeDegrees>
              <LongitudeDegrees>-1.65894686244428157806396484375</LongitudeDegrees>
            </Position>
            <AltitudeMeters>609.4000244140625</AltitudeMeters>
            <DistanceMeters>19540.49072175</DistanceMeters>
          </Trackpoint>
          <Trackpoint>
            <Time>2022-11-06T11:38:01.000Z</Time>
            <Position>
              <LatitudeDegrees>41.3588189519941806793212890625</LatitudeDegrees>
              <LongitudeDegrees>-1.65888517163693904876708984375</LongitudeDegrees>
            </Position>
            <AltitudeMeters>608.20001220703125</AltitudeMeters>
            <DistanceMeters>19547.814563234</DistanceMeters>
          </Trackpoint>
          <Trackpoint>
            <Time>2022-11-06T11:38:02.000Z</Time>
            <Position>
              <LatitudeDegrees>41.3588677346706390380859375</LatitudeDegrees>
              <LongitudeDegrees>-1.65881291963160037994384765625</LongitudeDegrees>
            </Position>
            <AltitudeMeters>607.4000244140625</AltitudeMeters>
            <DistanceMeters>19555.932536989</DistanceMeters>
          </Trackpoint>
          <Trackpoint>
            <Time>2022-11-06T11:38:03.000Z</Time>
            <Position>
              <LatitudeDegrees>41.35890520177781581878662109375</LatitudeDegrees>
              <LongitudeDegrees>-1.65873865596950054168701171875</LongitudeDegrees>
            </Position>
            <AltitudeMeters>606.79998779296875</AltitudeMeters>
            <DistanceMeters>19563.407703411</DistanceMeters>
          </Trackpoint>
          <Trackpoint>
            <Time>2022-11-06T11:38:04.000Z</Time>
            <Position>
              <LatitudeDegrees>41.35893277823925018310546875</LatitudeDegrees>
              <LongitudeDegrees>-1.6586503945291042327880859375</LongitudeDegrees>
            </Position>
            <AltitudeMeters>606.4000244140625</AltitudeMeters>
            <DistanceMeters>19571.394471218</DistanceMeters>
          </Trackpoint>
          <Trackpoint>
            <Time>2022-11-06T11:38:05.000Z</Time>
            <Position>
              <LatitudeDegrees>41.358951218426227569580078125</LatitudeDegrees>
              <LongitudeDegrees>-1.658547632396221160888671875</LongitudeDegrees>
            </Position>
            <AltitudeMeters>606.20001220703125</AltitudeMeters>
            <DistanceMeters>19580.221220311</DistanceMeters>
          </Trackpoint>
          <Trackpoint>
            <Time>2022-11-06T11:38:06.000Z</Time>
            <Position>
              <LatitudeDegrees>41.3589616119861602783203125</LatitudeDegrees>
              <LongitudeDegrees>-1.658436991274356842041015625</LongitudeDegrees>
            </Position>
            <AltitudeMeters>605.20001220703125</AltitudeMeters>
            <DistanceMeters>19589.536262155</DistanceMeters>
          </Trackpoint>
          <Trackpoint>
            <Time>2022-11-06T11:38:07.000Z</Time>
            <Position>
              <LatitudeDegrees>41.35896052233874797821044921875</LatitudeDegrees>
              <LongitudeDegrees>-1.65832257829606533050537109375</LongitudeDegrees>
            </Position>
            <AltitudeMeters>604.5999755859375</AltitudeMeters>
            <DistanceMeters>19599.094834928</DistanceMeters>
          </Trackpoint>
          <Trackpoint>
            <Time>2022-11-06T11:38:08.000Z</Time>
            <Position>
              <LatitudeDegrees>41.35894794948399066925048828125</LatitudeDegrees>
              <LongitudeDegrees>-1.65821176953613758087158203125</LongitudeDegrees>
            </Position>
            <AltitudeMeters>603.79998779296875</AltitudeMeters>
            <DistanceMeters>19608.456775003</DistanceMeters>
          </Trackpoint>
          <Trackpoint>
            <Time>2022-11-06T11:38:09.000Z</Time>
            <Position>
              <LatitudeDegrees>41.35894493199884891510009765625</LatitudeDegrees>
              <LongitudeDegrees>-1.65811303071677684783935546875</LongitudeDegrees>
            </Position>
            <AltitudeMeters>602.4000244140625</AltitudeMeters>
            <DistanceMeters>19616.712622446</DistanceMeters>
          </Trackpoint>
          <Trackpoint>
            <Time>2022-11-06T11:38:10.000Z</Time>
            <Position>
              <LatitudeDegrees>41.35896152816712856292724609375</LatitudeDegrees>
              <LongitudeDegrees>-1.6580227576196193695068359375</LongitudeDegrees>
            </Position>
            <AltitudeMeters>601.79998779296875</AltitudeMeters>
            <DistanceMeters>19624.478113447</DistanceMeters>
          </Trackpoint>
          <Trackpoint>
            <Time>2022-11-06T11:38:11.000Z</Time>
            <Position>
              <LatitudeDegrees>41.358987428247928619384765625</LatitudeDegrees>
              <LongitudeDegrees>-1.6579426266252994537353515625</LongitudeDegrees>
            </Position>
            <AltitudeMeters>601.4000244140625</AltitudeMeters>
            <DistanceMeters>19631.766730581</DistanceMeters>
          </Trackpoint>
          <Trackpoint>
            <Time>2022-11-06T11:38:12.000Z</Time>
            <Position>
              <LatitudeDegrees>41.359012909233570098876953125</LatitudeDegrees>
              <LongitudeDegrees>-1.6578695364296436309814453125</LongitudeDegrees>
            </Position>
            <AltitudeMeters>601.20001220703125</AltitudeMeters>
            <DistanceMeters>19638.498888754</DistanceMeters>
          </Trackpoint>
          <Trackpoint>
            <Time>2022-11-06T11:38:13.000Z</Time>
            <Position>
              <LatitudeDegrees>41.35903344489634037017822265625</LatitudeDegrees>
              <LongitudeDegrees>-1.65779585950076580047607421875</LongitudeDegrees>
            </Position>
            <AltitudeMeters>601.20001220703125</AltitudeMeters>
            <DistanceMeters>19645.064677735</DistanceMeters>
          </Trackpoint>
          <Trackpoint>
            <Time>2022-11-06T11:38:14.000Z</Time>
            <Position>
              <LatitudeDegrees>41.35904920287430286407470703125</LatitudeDegrees>
              <LongitudeDegrees>-1.65769259445369243621826171875</LongitudeDegrees>
            </Position>
            <AltitudeMeters>601</AltitudeMeters>
            <DistanceMeters>19653.868378441</DistanceMeters>
          </Trackpoint>
          <Trackpoint>
            <Time>2022-11-06T11:38:15.000Z</Time>
            <Position>
              <LatitudeDegrees>41.35905615985393524169921875</LatitudeDegrees>
              <LongitudeDegrees>-1.65760793723165988922119140625</LongitudeDegrees>
            </Position>
            <AltitudeMeters>600.79998779296875</AltitudeMeters>
            <DistanceMeters>19660.98333512</DistanceMeters>
          </Trackpoint>
          <Trackpoint>
            <Time>2022-11-06T11:38:16.000Z</Time>
            <Position>
              <LatitudeDegrees>41.35905741713941097259521484375</LatitudeDegrees>
              <LongitudeDegrees>-1.657496877014636993408203125</LongitudeDegrees>
            </Position>
            <AltitudeMeters>599.4000244140625</AltitudeMeters>
            <DistanceMeters>19670.262926111</DistanceMeters>
          </Trackpoint>
          <Trackpoint>
            <Time>2022-11-06T11:38:18.000Z</Time>
            <Position>
              <LatitudeDegrees>41.35904140770435333251953125</LatitudeDegrees>
              <LongitudeDegrees>-1.6572650335729122161865234375</LongitudeDegrees>
            </Position>
            <AltitudeMeters>596.4000244140625</AltitudeMeters>
            <DistanceMeters>19689.713480929</DistanceMeters>
          </Trackpoint>
          <Trackpoint>
            <Time>2022-11-06T11:38:19.000Z</Time>
            <Position>
              <LatitudeDegrees>41.359032690525054931640625</LatitudeDegrees>
              <LongitudeDegrees>-1.6571510396897792816162109375</LongitudeDegrees>
            </Position>
            <AltitudeMeters>595.4000244140625</AltitudeMeters>
            <DistanceMeters>19699.285742191</DistanceMeters>
          </Trackpoint>
          <Trackpoint>
            <Time>2022-11-06T11:38:22.000Z</Time>
            <Position>
              <LatitudeDegrees>41.35902439244091510772705078125</LatitudeDegrees>
              <LongitudeDegrees>-1.65682976134121417999267578125</LongitudeDegrees>
            </Position>
            <AltitudeMeters>594.4000244140625</AltitudeMeters>
            <DistanceMeters>19726.141508901</DistanceMeters>
          </Trackpoint>
          <Trackpoint>
            <Time>2022-11-06T11:38:23.000Z</Time>
            <Position>
              <LatitudeDegrees>41.35901617817580699920654296875</LatitudeDegrees>
              <LongitudeDegrees>-1.65671073831617832183837890625</LongitudeDegrees>
            </Position>
            <AltitudeMeters>594.4000244140625</AltitudeMeters>
            <DistanceMeters>19736.127003586</DistanceMeters>
          </Trackpoint>
          <Trackpoint>
            <Time>2022-11-06T11:38:24.000Z</Time>
            <Position>
              <LatitudeDegrees>41.35900922119617462158203125</LatitudeDegrees>
              <LongitudeDegrees>-1.656615436077117919921875</LongitudeDegrees>
            </Position>
            <AltitudeMeters>594.4000244140625</AltitudeMeters>
            <DistanceMeters>19744.12619865</DistanceMeters>
          </Trackpoint>
          <Trackpoint>
            <Time>2022-11-06T11:38:25.000Z</Time>
            <Position>
              <LatitudeDegrees>41.359003521502017974853515625</LatitudeDegrees>
              <LongitudeDegrees>-1.65654108859598636627197265625</LongitudeDegrees>
            </Position>
            <AltitudeMeters>594.4000244140625</AltitudeMeters>
            <DistanceMeters>19750.3705457</DistanceMeters>
          </Trackpoint>
          <Trackpoint>
            <Time>2022-11-06T11:38:26.000Z</Time>
            <Position>
              <LatitudeDegrees>41.35899203829467296600341796875</LatitudeDegrees>
              <LongitudeDegrees>-1.65645257569849491119384765625</LongitudeDegrees>
            </Position>
            <AltitudeMeters>594.5999755859375</AltitudeMeters>
            <DistanceMeters>19757.874648359</DistanceMeters>
          </Trackpoint>
          <Trackpoint>
            <Time>2022-11-06T11:38:27.000Z</Time>
            <Position>
              <LatitudeDegrees>41.35898147709667682647705078125</LatitudeDegrees>
              <LongitudeDegrees>-1.6563604585826396942138671875</LongitudeDegrees>
            </Position>
            <AltitudeMeters>594.5999755859375</AltitudeMeters>
            <DistanceMeters>19765.659302687</DistanceMeters>
          </Trackpoint>
          <Trackpoint>
            <Time>2022-11-06T11:38:28.000Z</Time>
            <Position>
              <LatitudeDegrees>41.35897510685026645660400390625</LatitudeDegrees>
              <LongitudeDegrees>-1.6562608815729618072509765625</LongitudeDegrees>
            </Position>
            <AltitudeMeters>594.5999755859375</AltitudeMeters>
            <DistanceMeters>19774.008685308</DistanceMeters>
          </Trackpoint>
          <Trackpoint>
            <Time>2022-11-06T11:38:29.000Z</Time>
            <Position>
              <LatitudeDegrees>41.3589768670499324798583984375</LatitudeDegrees>
              <LongitudeDegrees>-1.656135655939579010009765625</LongitudeDegrees>
            </Position>
            <AltitudeMeters>594.20001220703125</AltitudeMeters>
            <DistanceMeters>19784.471985304</DistanceMeters>
          </Trackpoint>
          <Trackpoint>
            <Time>2022-11-06T11:38:31.000Z</Time>
            <Position>
              <LatitudeDegrees>41.35899572633206844329833984375</LatitudeDegrees>
              <LongitudeDegrees>-1.655948571860790252685546875</LongitudeDegrees>
            </Position>
            <AltitudeMeters>593.4000244140625</AltitudeMeters>
            <DistanceMeters>19800.241266997</DistanceMeters>
          </Trackpoint>
          <Trackpoint>
            <Time>2022-11-06T11:38:32.000Z</Time>
            <Position>
              <LatitudeDegrees>41.35899153538048267364501953125</LatitudeDegrees>
              <LongitudeDegrees>-1.65582259185612201690673828125</LongitudeDegrees>
            </Position>
            <AltitudeMeters>593</AltitudeMeters>
            <DistanceMeters>19810.775954439</DistanceMeters>
          </Trackpoint>
          <Trackpoint>
            <Time>2022-11-06T11:38:33.000Z</Time>
            <Position>
              <LatitudeDegrees>41.358976699411869049072265625</LatitudeDegrees>
              <LongitudeDegrees>-1.65574438869953155517578125</LongitudeDegrees>
            </Position>
            <AltitudeMeters>592.5999755859375</AltitudeMeters>
            <DistanceMeters>19817.514145914</DistanceMeters>
          </Trackpoint>
          <Trackpoint>
            <Time>2022-11-06T11:38:35.000Z</Time>
            <Position>
              <LatitudeDegrees>41.3588994182646274566650390625</LatitudeDegrees>
              <LongitudeDegrees>-1.655543558299541473388671875</LongitudeDegrees>
            </Position>
            <AltitudeMeters>591</AltitudeMeters>
            <DistanceMeters>19836.368269848</DistanceMeters>
          </Trackpoint>
          <Trackpoint>
            <Time>2022-11-06T11:38:36.000Z</Time>
            <Position>
              <LatitudeDegrees>41.3588373921811580657958984375</LatitudeDegrees>
              <LongitudeDegrees>-1.6554602421820163726806640625</LongitudeDegrees>
            </Position>
            <AltitudeMeters>590.20001220703125</AltitudeMeters>
            <DistanceMeters>19846.172153449</DistanceMeters>
          </Trackpoint>
          <Trackpoint>
            <Time>2022-11-06T11:38:37.000Z</Time>
            <Position>
              <LatitudeDegrees>41.35877318680286407470703125</LatitudeDegrees>
              <LongitudeDegrees>-1.6553874872624874114990234375</LongitudeDegrees>
            </Position>
            <AltitudeMeters>589.5999755859375</AltitudeMeters>
            <DistanceMeters>19855.553364726</DistanceMeters>
          </Trackpoint>
          <Trackpoint>
            <Time>2022-11-06T11:38:38.000Z</Time>
            <Position>
              <LatitudeDegrees>41.3587173633277416229248046875</LatitudeDegrees>
              <LongitudeDegrees>-1.65531464852392673492431640625</LongitudeDegrees>
            </Position>
            <AltitudeMeters>589</AltitudeMeters>
            <DistanceMeters>19864.249217769</DistanceMeters>
          </Trackpoint>
          <Trackpoint>
            <Time>2022-11-06T11:38:39.000Z</Time>
            <Position>
              <LatitudeDegrees>41.358680315315723419189453125</LatitudeDegrees>
              <LongitudeDegrees>-1.65523342788219451904296875</LongitudeDegrees>
            </Position>
            <AltitudeMeters>588</AltitudeMeters>
            <DistanceMeters>19872.189494447</DistanceMeters>
          </Trackpoint>
          <Trackpoint>
            <Time>2022-11-06T11:38:40.000Z</Time>
            <Position>
              <LatitudeDegrees>41.35865575633943080902099609375</LatitudeDegrees>
              <LongitudeDegrees>-1.65515027940273284912109375</LongitudeDegrees>
            </Position>
            <AltitudeMeters>587.4000244140625</AltitudeMeters>
            <DistanceMeters>19879.654385721</DistanceMeters>
          </Trackpoint>
          <Trackpoint>
            <Time>2022-11-06T11:38:41.000Z</Time>
            <Position>
              <LatitudeDegrees>41.35862826369702816009521484375</LatitudeDegrees>
              <LongitudeDegrees>-1.655047349631786346435546875</LongitudeDegrees>
            </Position>
            <AltitudeMeters>587.20001220703125</AltitudeMeters>
            <DistanceMeters>19888.781403591</DistanceMeters>
          </Trackpoint>
          <Trackpoint>
            <Time>2022-11-06T11:38:42.000Z</Time>
            <Position>
              <LatitudeDegrees>41.3586107455193996429443359375</LatitudeDegrees>
              <LongitudeDegrees>-1.65497702546417713165283203125</LongitudeDegrees>
            </Position>
            <AltitudeMeters>586.79998779296875</AltitudeMeters>
            <DistanceMeters>19894.972012966</DistanceMeters>
          </Trackpoint>
          <Trackpoint>
            <Time>2022-11-06T11:38:43.000Z</Time>
            <Position>
              <LatitudeDegrees>41.35858970694243907928466796875</LatitudeDegrees>
              <LongitudeDegrees>-1.65487510152161121368408203125</LongitudeDegrees>
            </Position>
            <AltitudeMeters>586.4000244140625</AltitudeMeters>
            <DistanceMeters>19903.802853253</DistanceMeters>
          </Trackpoint>
          <Trackpoint>
            <Time>2022-11-06T11:38:44.000Z</Time>
            <Position>
              <LatitudeDegrees>41.35858752764761447906494140625</LatitudeDegrees>
              <LongitudeDegrees>-1.6548191942274570465087890625</LongitudeDegrees>
            </Position>
            <AltitudeMeters>586.4000244140625</AltitudeMeters>
            <DistanceMeters>19908.479480792</DistanceMeters>
          </Trackpoint>
          <Trackpoint>
            <Time>2022-11-06T11:38:45.000Z</Time>
            <Position>
              <LatitudeDegrees>41.35859356261789798736572265625</LatitudeDegrees>
              <LongitudeDegrees>-1.6547618620097637176513671875</LongitudeDegrees>
            </Position>
            <AltitudeMeters>586.20001220703125</AltitudeMeters>
            <DistanceMeters>19913.315584388</DistanceMeters>
          </Trackpoint>
          <Trackpoint>
            <Time>2022-11-06T11:38:46.000Z</Time>
            <Position>
              <LatitudeDegrees>41.35861166752874851226806640625</LatitudeDegrees>
              <LongitudeDegrees>-1.6547149233520030975341796875</LongitudeDegrees>
            </Position>
            <AltitudeMeters>586</AltitudeMeters>
            <DistanceMeters>19917.725888761</DistanceMeters>
          </Trackpoint>
          <Trackpoint>
            <Time>2022-11-06T11:38:47.000Z</Time>
            <Position>
              <LatitudeDegrees>41.35863530449569225311279296875</LatitudeDegrees>
              <LongitudeDegrees>-1.65467645041644573211669921875</LongitudeDegrees>
            </Position>
            <AltitudeMeters>586</AltitudeMeters>
            <DistanceMeters>19921.878893217</DistanceMeters>
          </Trackpoint>
          <Trackpoint>
            <Time>2022-11-06T11:38:48.000Z</Time>
            <Position>
              <LatitudeDegrees>41.358663551509380340576171875</LatitudeDegrees>
              <LongitudeDegrees>-1.6546552442014217376708984375</LongitudeDegrees>
            </Position>
            <AltitudeMeters>585.79998779296875</AltitudeMeters>
            <DistanceMeters>19925.487406793</DistanceMeters>
          </Trackpoint>
          <Trackpoint>
            <Time>2022-11-06T11:38:49.000Z</Time>
            <Position>
              <LatitudeDegrees>41.358706466853618621826171875</LatitudeDegrees>
              <LongitudeDegrees>-1.65465750731527805328369140625</LongitudeDegrees>
            </Position>
            <AltitudeMeters>585.79998779296875</AltitudeMeters>
            <DistanceMeters>19930.267165511</DistanceMeters>
          </Trackpoint>
          <Trackpoint>
            <Time>2022-11-06T11:38:50.000Z</Time>
            <Position>
              <LatitudeDegrees>41.35873496532440185546875</LatitudeDegrees>
              <LongitudeDegrees>-1.654677204787731170654296875</LongitudeDegrees>
            </Position>
            <AltitudeMeters>585.79998779296875</AltitudeMeters>
            <DistanceMeters>19933.840473235</DistanceMeters>
          </Trackpoint>
          <Trackpoint>
            <Time>2022-11-06T11:38:51.000Z</Time>
            <Position>
              <LatitudeDegrees>41.35876790620386600494384765625</LatitudeDegrees>
              <LongitudeDegrees>-1.65471098385751247406005859375</LongitudeDegrees>
            </Position>
            <AltitudeMeters>585.79998779296875</AltitudeMeters>
            <DistanceMeters>19938.466625111</DistanceMeters>
          </Trackpoint>
          <Trackpoint>
            <Time>2022-11-06T11:38:52.000Z</Time>
            <Position>
              <LatitudeDegrees>41.358806379139423370361328125</LatitudeDegrees>
              <LongitudeDegrees>-1.65475825779139995574951171875</LongitudeDegrees>
            </Position>
            <AltitudeMeters>585.79998779296875</AltitudeMeters>
            <DistanceMeters>19944.291227861</DistanceMeters>
          </Trackpoint>
          <Trackpoint>
            <Time>2022-11-06T11:38:54.000Z</Time>
            <Position>
              <LatitudeDegrees>41.35886664502322673797607421875</LatitudeDegrees>
              <LongitudeDegrees>-1.65483453311026096343994140625</LongitudeDegrees>
            </Position>
            <AltitudeMeters>585.79998779296875</AltitudeMeters>
            <DistanceMeters>19953.542555578</DistanceMeters>
          </Trackpoint>
          <Trackpoint>
            <Time>2022-11-06T11:38:55.000Z</Time>
            <Position>
              <LatitudeDegrees>41.3589064590632915496826171875</LatitudeDegrees>
              <LongitudeDegrees>-1.6548735089600086212158203125</LongitudeDegrees>
            </Position>
            <AltitudeMeters>585.79998779296875</AltitudeMeters>
            <DistanceMeters>19959.041803346</DistanceMeters>
          </Trackpoint>
          <Trackpoint>
            <Time>2022-11-06T11:38:59.000Z</Time>
            <Position>
              <LatitudeDegrees>41.35906093753874301910400390625</LatitudeDegrees>
              <LongitudeDegrees>-1.65501893498003482818603515625</LongitudeDegrees>
            </Position>
            <AltitudeMeters>586.4000244140625</AltitudeMeters>
            <DistanceMeters>19980.094456671</DistanceMeters>
          </Trackpoint>
          <Trackpoint>
            <Time>2022-11-06T11:39:04.000Z</Time>
            <Position>
              <LatitudeDegrees>41.35925103910267353057861328125</LatitudeDegrees>
              <LongitudeDegrees>-1.65522940456867218017578125</LongitudeDegrees>
            </Position>
            <AltitudeMeters>586.79998779296875</AltitudeMeters>
            <DistanceMeters>20007.605305932</DistanceMeters>
          </Trackpoint>
          <Trackpoint>
            <Time>2022-11-06T11:39:08.000Z</Time>
            <Position>
              <LatitudeDegrees>41.35935631580650806427001953125</LatitudeDegrees>
              <LongitudeDegrees>-1.65538673289120197296142578125</LongitudeDegrees>
            </Position>
            <AltitudeMeters>588</AltitudeMeters>
            <DistanceMeters>20025.213220194</DistanceMeters>
          </Trackpoint>
          <Trackpoint>
            <Time>2022-11-06T11:39:09.000Z</Time>
            <Position>
              <LatitudeDegrees>41.359386742115020751953125</LatitudeDegrees>
              <LongitudeDegrees>-1.6554300673305988311767578125</LongitudeDegrees>
            </Position>
            <AltitudeMeters>588.20001220703125</AltitudeMeters>
            <DistanceMeters>20030.169207273</DistanceMeters>
          </Trackpoint>
          <Trackpoint>
            <Time>2022-11-06T11:39:10.000Z</Time>
            <Position>
              <LatitudeDegrees>41.35940811596810817718505859375</LatitudeDegrees>
              <LongitudeDegrees>-1.65546275675296783447265625</LongitudeDegrees>
            </Position>
            <AltitudeMeters>588.5999755859375</AltitudeMeters>
            <DistanceMeters>20033.791458102</DistanceMeters>
          </Trackpoint>
          <Trackpoint>
            <Time>2022-11-06T11:39:11.000Z</Time>
            <Position>
              <LatitudeDegrees>41.35943426750600337982177734375</LatitudeDegrees>
              <LongitudeDegrees>-1.65550164878368377685546875</LongitudeDegrees>
            </Position>
            <AltitudeMeters>588.79998779296875</AltitudeMeters>
            <DistanceMeters>20038.154415946</DistanceMeters>
          </Trackpoint>
          <Trackpoint>
            <Time>2022-11-06T11:39:13.000Z</Time>
            <Position>
              <LatitudeDegrees>41.35948221199214458465576171875</LatitudeDegrees>
              <LongitudeDegrees>-1.65558370761573314666748046875</LongitudeDegrees>
            </Position>
            <AltitudeMeters>589.20001220703125</AltitudeMeters>
            <DistanceMeters>20046.841957538</DistanceMeters>
          </Trackpoint>
          <Trackpoint>
            <Time>2022-11-06T11:39:14.000Z</Time>
            <Position>
              <LatitudeDegrees>41.35950408875942230224609375</LatitudeDegrees>
              <LongitudeDegrees>-1.65562427602708339691162109375</LongitudeDegrees>
            </Position>
            <AltitudeMeters>589.20001220703125</AltitudeMeters>
            <DistanceMeters>20051.016648848</DistanceMeters>
          </Trackpoint>
          <Trackpoint>
            <Time>2022-11-06T11:39:15.000Z</Time>
            <Position>
              <LatitudeDegrees>41.359525881707668304443359375</LatitudeDegrees>
              <LongitudeDegrees>-1.6556677781045436859130859375</LongitudeDegrees>
            </Position>
            <AltitudeMeters>589.4000244140625</AltitudeMeters>
            <DistanceMeters>20055.386844688</DistanceMeters>
          </Trackpoint>
          <Trackpoint>
            <Time>2022-11-06T11:39:19.000Z</Time>
            <Position>
              <LatitudeDegrees>41.35962084867060184478759765625</LatitudeDegrees>
              <LongitudeDegrees>-1.65583348833024501800537109375</LongitudeDegrees>
            </Position>
            <AltitudeMeters>590.20001220703125</AltitudeMeters>
            <DistanceMeters>20072.804492297</DistanceMeters>
          </Trackpoint>
          <Trackpoint>
            <Time>2022-11-06T11:39:20.000Z</Time>
            <Position>
              <LatitudeDegrees>41.35964968241751194000244140625</LatitudeDegrees>
              <LongitudeDegrees>-1.6558729670941829681396484375</LongitudeDegrees>
            </Position>
            <AltitudeMeters>590.5999755859375</AltitudeMeters>
            <DistanceMeters>20077.405198676</DistanceMeters>
          </Trackpoint>
          <Trackpoint>
            <Time>2022-11-06T11:39:21.000Z</Time>
            <Position>
              <LatitudeDegrees>41.35967985726892948150634765625</LatitudeDegrees>
              <LongitudeDegrees>-1.65590808726847171783447265625</LongitudeDegrees>
            </Position>
            <AltitudeMeters>590.79998779296875</AltitudeMeters>
            <DistanceMeters>20081.864372179</DistanceMeters>
          </Trackpoint>
          <Trackpoint>
            <Time>2022-11-06T11:39:22.000Z</Time>
            <Position>
              <LatitudeDegrees>41.35971221141517162322998046875</LatitudeDegrees>
              <LongitudeDegrees>-1.655937172472476959228515625</LongitudeDegrees>
            </Position>
            <AltitudeMeters>591</AltitudeMeters>
            <DistanceMeters>20086.208662658</DistanceMeters>
          </Trackpoint>
          <Trackpoint>
            <Time>2022-11-06T11:39:23.000Z</Time>
            <Position>
              <LatitudeDegrees>41.3597456552088260650634765625</LatitudeDegrees>
              <LongitudeDegrees>-1.65596273727715015411376953125</LongitudeDegrees>
            </Position>
            <AltitudeMeters>591.4000244140625</AltitudeMeters>
            <DistanceMeters>20090.500673369</DistanceMeters>
          </Trackpoint>
          <Trackpoint>
            <Time>2022-11-06T11:39:24.000Z</Time>
            <Position>
              <LatitudeDegrees>41.35978261940181255340576171875</LatitudeDegrees>
              <LongitudeDegrees>-1.655986122786998748779296875</LongitudeDegrees>
            </Position>
            <AltitudeMeters>591.4000244140625</AltitudeMeters>
            <DistanceMeters>20095.055021357</DistanceMeters>
          </Trackpoint>
          <Trackpoint>
            <Time>2022-11-06T11:39:25.000Z</Time>
            <Position>
              <LatitudeDegrees>41.3598227687180042266845703125</LatitudeDegrees>
              <LongitudeDegrees>-1.65600582025945186614990234375</LongitudeDegrees>
            </Position>
            <AltitudeMeters>591.5999755859375</AltitudeMeters>
            <DistanceMeters>20099.816798541</DistanceMeters>
          </Trackpoint>
          <Trackpoint>
            <Time>2022-11-06T11:39:26.000Z</Time>
            <Position>
              <LatitudeDegrees>41.359863169491291046142578125</LatitudeDegrees>
              <LongitudeDegrees>-1.65602375753223896026611328125</LongitudeDegrees>
            </Position>
            <AltitudeMeters>591.5999755859375</AltitudeMeters>
            <DistanceMeters>20104.554811842</DistanceMeters>
          </Trackpoint>
          <Trackpoint>
            <Time>2022-11-06T11:39:27.000Z</Time>
            <Position>
              <LatitudeDegrees>41.3599055819213390350341796875</LatitudeDegrees>
              <LongitudeDegrees>-1.6560449637472629547119140625</LongitudeDegrees>
            </Position>
            <AltitudeMeters>591.79998779296875</AltitudeMeters>
            <DistanceMeters>20109.597499148</DistanceMeters>
          </Trackpoint>
          <Trackpoint>
            <Time>2022-11-06T11:39:28.000Z</Time>
            <Position>
              <LatitudeDegrees>41.35994791053235530853271484375</LatitudeDegrees>
              <LongitudeDegrees>-1.65606767870485782623291015625</LongitudeDegrees>
            </Position>
            <AltitudeMeters>591.79998779296875</AltitudeMeters>
            <DistanceMeters>20114.677652539</DistanceMeters>
          </Trackpoint>
          <Trackpoint>
            <Time>2022-11-06T11:39:29.000Z</Time>
            <Position>
              <LatitudeDegrees>41.35998822748661041259765625</LatitudeDegrees>
              <LongitudeDegrees>-1.65609751828014850616455078125</LongitudeDegrees>
            </Position>
            <AltitudeMeters>591.79998779296875</AltitudeMeters>
            <DistanceMeters>20119.810854567</DistanceMeters>
          </Trackpoint>
          <Trackpoint>
            <Time>2022-11-06T11:39:30.000Z</Time>
            <Position>
              <LatitudeDegrees>41.36002837680280208587646484375</LatitudeDegrees>
              <LongitudeDegrees>-1.65613255463540554046630859375</LongitudeDegrees>
            </Position>
            <AltitudeMeters>591.79998779296875</AltitudeMeters>
            <DistanceMeters>20125.153519786</DistanceMeters>
          </Trackpoint>
          <Trackpoint>
            <Time>2022-11-06T11:39:31.000Z</Time>
            <Position>
              <LatitudeDegrees>41.3600722141563892364501953125</LatitudeDegrees>
              <LongitudeDegrees>-1.6561723686754703521728515625</LongitudeDegrees>
            </Position>
            <AltitudeMeters>591.79998779296875</AltitudeMeters>
            <DistanceMeters>20131.058954167</DistanceMeters>
          </Trackpoint>
          <Trackpoint>
            <Time>2022-11-06T11:39:32.000Z</Time>
            <Position>
              <LatitudeDegrees>41.3601000420749187469482421875</LatitudeDegrees>
              <LongitudeDegrees>-1.65620514191687107086181640625</LongitudeDegrees>
            </Position>
            <AltitudeMeters>592</AltitudeMeters>
            <DistanceMeters>20135.192343167</DistanceMeters>
          </Trackpoint>
          <Trackpoint>
            <Time>2022-11-06T11:39:33.000Z</Time>
            <Position>
              <LatitudeDegrees>41.360132731497287750244140625</LatitudeDegrees>
              <LongitudeDegrees>-1.65624135173857212066650390625</LongitudeDegrees>
            </Position>
            <AltitudeMeters>592</AltitudeMeters>
            <DistanceMeters>20139.923681192</DistanceMeters>
          </Trackpoint>
          <Trackpoint>
            <Time>2022-11-06T11:39:34.000Z</Time>
            <Position>
              <LatitudeDegrees>41.3601644150912761688232421875</LatitudeDegrees>
              <LongitudeDegrees>-1.656278483569622039794921875</LongitudeDegrees>
            </Position>
            <AltitudeMeters>592</AltitudeMeters>
            <DistanceMeters>20144.619577984</DistanceMeters>
          </Trackpoint>
          <Trackpoint>
            <Time>2022-11-06T11:39:35.000Z</Time>
            <Position>
              <LatitudeDegrees>41.36019400320947170257568359375</LatitudeDegrees>
              <LongitudeDegrees>-1.65632047690451145172119140625</LongitudeDegrees>
            </Position>
            <AltitudeMeters>592</AltitudeMeters>
            <DistanceMeters>20149.431346474</DistanceMeters>
          </Trackpoint>
          <Trackpoint>
            <Time>2022-11-06T11:39:36.000Z</Time>
            <Position>
              <LatitudeDegrees>41.3602247647941112518310546875</LatitudeDegrees>
              <LongitudeDegrees>-1.65636104531586170196533203125</LongitudeDegrees>
            </Position>
            <AltitudeMeters>592.20001220703125</AltitudeMeters>
            <DistanceMeters>20154.249678814</DistanceMeters>
          </Trackpoint>
          <Trackpoint>
            <Time>2022-11-06T11:39:37.000Z</Time>
            <Position>
              <LatitudeDegrees>41.36025552637875080108642578125</LatitudeDegrees>
              <LongitudeDegrees>-1.6563976742327213287353515625</LongitudeDegrees>
            </Position>
            <AltitudeMeters>592.4000244140625</AltitudeMeters>
            <DistanceMeters>20158.842527447</DistanceMeters>
          </Trackpoint>
          <Trackpoint>
            <Time>2022-11-06T11:39:38.000Z</Time>
            <Position>
              <LatitudeDegrees>41.36028637178242206573486328125</LatitudeDegrees>
              <LongitudeDegrees>-1.65643648244440555572509765625</LongitudeDegrees>
            </Position>
            <AltitudeMeters>592.4000244140625</AltitudeMeters>
            <DistanceMeters>20163.565269111</DistanceMeters>
          </Trackpoint>
          <Trackpoint>
            <Time>2022-11-06T11:39:39.000Z</Time>
            <Position>
              <LatitudeDegrees>41.36031604371964931488037109375</LatitudeDegrees>
              <LongitudeDegrees>-1.6564786434173583984375</LongitudeDegrees>
            </Position>
            <AltitudeMeters>592.4000244140625</AltitudeMeters>
            <DistanceMeters>20168.393898044</DistanceMeters>
          </Trackpoint>
          <Trackpoint>
            <Time>2022-11-06T11:39:40.000Z</Time>
            <Position>
              <LatitudeDegrees>41.36034672148525714874267578125</LatitudeDegrees>
              <LongitudeDegrees>-1.656517870724201202392578125</LongitudeDegrees>
            </Position>
            <AltitudeMeters>592.5999755859375</AltitudeMeters>
            <DistanceMeters>20173.126190256</DistanceMeters>
          </Trackpoint>
          <Trackpoint>
            <Time>2022-11-06T11:39:41.000Z</Time>
            <Position>
              <LatitudeDegrees>41.36037589050829410552978515625</LatitudeDegrees>
              <LongitudeDegrees>-1.65656070224940776824951171875</LongitudeDegrees>
            </Position>
            <AltitudeMeters>592.5999755859375</AltitudeMeters>
            <DistanceMeters>20177.958557966</DistanceMeters>
          </Trackpoint>
          <Trackpoint>
            <Time>2022-11-06T11:39:42.000Z</Time>
            <Position>
              <LatitudeDegrees>41.36040220968425273895263671875</LatitudeDegrees>
              <LongitudeDegrees>-1.65660462342202663421630859375</LongitudeDegrees>
            </Position>
            <AltitudeMeters>592.5999755859375</AltitudeMeters>
            <DistanceMeters>20182.654454758</DistanceMeters>
          </Trackpoint>
          <Trackpoint>
            <Time>2022-11-06T11:39:43.000Z</Time>
            <Position>
              <LatitudeDegrees>41.360430456697940826416015625</LatitudeDegrees>
              <LongitudeDegrees>-1.6566474549472332000732421875</LongitudeDegrees>
            </Position>
            <AltitudeMeters>592.79998779296875</AltitudeMeters>
            <DistanceMeters>20187.419075643</DistanceMeters>
          </Trackpoint>
          <Trackpoint>
            <Time>2022-11-06T11:39:44.000Z</Time>
            <Position>
              <LatitudeDegrees>41.36046004481613636016845703125</LatitudeDegrees>
              <LongitudeDegrees>-1.6566876880824565887451171875</LongitudeDegrees>
            </Position>
            <AltitudeMeters>593</AltitudeMeters>
            <DistanceMeters>20192.126496125</DistanceMeters>
          </Trackpoint>
          <Trackpoint>
            <Time>2022-11-06T11:39:45.000Z</Time>
            <Position>
              <LatitudeDegrees>41.36049114167690277099609375</LatitudeDegrees>
              <LongitudeDegrees>-1.65672582574188709259033203125</LongitudeDegrees>
            </Position>
            <AltitudeMeters>593</AltitudeMeters>
            <DistanceMeters>20196.83103833</DistanceMeters>
          </Trackpoint>
          <Trackpoint>
            <Time>2022-11-06T11:39:46.000Z</Time>
            <Position>
              <LatitudeDegrees>41.3605198077857494354248046875</LatitudeDegrees>
              <LongitudeDegrees>-1.65676421485841274261474609375</LongitudeDegrees>
            </Position>
            <AltitudeMeters>593</AltitudeMeters>
            <DistanceMeters>20201.354549491</DistanceMeters>
          </Trackpoint>
          <Trackpoint>
            <Time>2022-11-06T11:39:47.000Z</Time>
            <Position>
              <LatitudeDegrees>41.360549814999103546142578125</LatitudeDegrees>
              <LongitudeDegrees>-1.6567993350327014923095703125</LongitudeDegrees>
            </Position>
            <AltitudeMeters>593</AltitudeMeters>
            <DistanceMeters>20205.799524998</DistanceMeters>
          </Trackpoint>
          <Trackpoint>
            <Time>2022-11-06T11:39:48.000Z</Time>
            <Position>
              <LatitudeDegrees>41.36057839728891849517822265625</LatitudeDegrees>
              <LongitudeDegrees>-1.65683495812118053436279296875</LongitudeDegrees>
            </Position>
            <AltitudeMeters>593.20001220703125</AltitudeMeters>
            <DistanceMeters>20210.155232818</DistanceMeters>
          </Trackpoint>
          <Trackpoint>
            <Time>2022-11-06T11:39:49.000Z</Time>
            <Position>
              <LatitudeDegrees>41.36060538701713085174560546875</LatitudeDegrees>
              <LongitudeDegrees>-1.6568704135715961456298828125</LongitudeDegrees>
            </Position>
            <AltitudeMeters>593.20001220703125</AltitudeMeters>
            <DistanceMeters>20214.374033675</DistanceMeters>
          </Trackpoint>
          <Trackpoint>
            <Time>2022-11-06T11:39:50.000Z</Time>
            <Position>
              <LatitudeDegrees>41.3606405071914196014404296875</LatitudeDegrees>
              <LongitudeDegrees>-1.6569026000797748565673828125</LongitudeDegrees>
            </Position>
            <AltitudeMeters>593.20001220703125</AltitudeMeters>
            <DistanceMeters>20219.119664365</DistanceMeters>
          </Trackpoint>
          <Trackpoint>
            <Time>2022-11-06T11:39:51.000Z</Time>
            <Position>
              <LatitudeDegrees>41.36067328043282032012939453125</LatitudeDegrees>
              <LongitudeDegrees>-1.65693319402635097503662109375</LongitudeDegrees>
            </Position>
            <AltitudeMeters>593.20001220703125</AltitudeMeters>
            <DistanceMeters>20223.573772351</DistanceMeters>
          </Trackpoint>
          <Trackpoint>
            <Time>2022-11-06T11:39:52.000Z</Time>
            <Position>
              <LatitudeDegrees>41.36070395819842815399169921875</LatitudeDegrees>
              <LongitudeDegrees>-1.656966470181941986083984375</LongitudeDegrees>
            </Position>
            <AltitudeMeters>593.4000244140625</AltitudeMeters>
            <DistanceMeters>20227.977929955</DistanceMeters>
          </Trackpoint>
          <Trackpoint>
            <Time>2022-11-06T11:39:53.000Z</Time>
            <Position>
              <LatitudeDegrees>41.3607363961637020111083984375</LatitudeDegrees>
              <LongitudeDegrees>-1.6569976508617401123046875</LongitudeDegrees>
            </Position>
            <AltitudeMeters>593.5999755859375</AltitudeMeters>
            <DistanceMeters>20232.431024146</DistanceMeters>
          </Trackpoint>
          <Trackpoint>
            <Time>2022-11-06T11:39:55.000Z</Time>
            <Position>
              <LatitudeDegrees>41.36080185882747173309326171875</LatitudeDegrees>
              <LongitudeDegrees>-1.65705188177525997161865234375</LongitudeDegrees>
            </Position>
            <AltitudeMeters>594.20001220703125</AltitudeMeters>
            <DistanceMeters>20241.010836683</DistanceMeters>
          </Trackpoint>
          <Trackpoint>
            <Time>2022-11-06T11:39:57.000Z</Time>
            <Position>
              <LatitudeDegrees>41.36087469756603240966796875</LatitudeDegrees>
              <LongitudeDegrees>-1.65709898807108402252197265625</LongitudeDegrees>
            </Position>
            <AltitudeMeters>594.4000244140625</AltitudeMeters>
            <DistanceMeters>20250.022856852</DistanceMeters>
          </Trackpoint>
          <Trackpoint>
            <Time>2022-11-06T11:39:59.000Z</Time>
            <Position>
              <LatitudeDegrees>41.36094820685684680938720703125</LatitudeDegrees>
              <LongitudeDegrees>-1.657129414379596710205078125</LongitudeDegrees>
            </Position>
            <AltitudeMeters>594.5999755859375</AltitudeMeters>
            <DistanceMeters>20258.590030327</DistanceMeters>
          </Trackpoint>
          <Trackpoint>
            <Time>2022-11-06T11:40:00.000Z</Time>
            <Position>
              <LatitudeDegrees>41.36098776943981647491455078125</LatitudeDegrees>
              <LongitudeDegrees>-1.657132767140865325927734375</LongitudeDegrees>
            </Position>
            <AltitudeMeters>594.79998779296875</AltitudeMeters>
            <DistanceMeters>20263.001358328</DistanceMeters>
          </Trackpoint>
          <Trackpoint>
            <Time>2022-11-06T11:40:01.000Z</Time>
            <Position>
              <LatitudeDegrees>41.36102624237537384033203125</LatitudeDegrees>
              <LongitudeDegrees>-1.65712899528443813323974609375</LongitudeDegrees>
            </Position>
            <AltitudeMeters>594.79998779296875</AltitudeMeters>
            <DistanceMeters>20267.295472451</DistanceMeters>
          </Trackpoint>
          <Trackpoint>
            <Time>2022-11-06T11:40:02.000Z</Time>
            <Position>
              <LatitudeDegrees>41.36106521822512149810791015625</LatitudeDegrees>
              <LongitudeDegrees>-1.657122038304805755615234375</LongitudeDegrees>
            </Position>
            <AltitudeMeters>595</AltitudeMeters>
            <DistanceMeters>20271.67186276</DistanceMeters>
          </Trackpoint>
          <Trackpoint>
            <Time>2022-11-06T11:40:03.000Z</Time>
            <Position>
              <LatitudeDegrees>41.36110293678939342498779296875</LatitudeDegrees>
              <LongitudeDegrees>-1.6571118123829364776611328125</LongitudeDegrees>
            </Position>
            <AltitudeMeters>595.20001220703125</AltitudeMeters>
            <DistanceMeters>20275.957557043</DistanceMeters>
          </Trackpoint>
          <Trackpoint>
            <Time>2022-11-06T11:40:04.000Z</Time>
            <Position>
              <LatitudeDegrees>41.361141242086887359619140625</LatitudeDegrees>
              <LongitudeDegrees>-1.6570997424423694610595703125</LongitudeDegrees>
            </Position>
            <AltitudeMeters>595.4000244140625</AltitudeMeters>
            <DistanceMeters>20280.33910272</DistanceMeters>
          </Trackpoint>
          <Trackpoint>
            <Time>2022-11-06T11:40:05.000Z</Time>
            <Position>
              <LatitudeDegrees>41.3611757755279541015625</LatitudeDegrees>
              <LongitudeDegrees>-1.6570861637592315673828125</LongitudeDegrees>
            </Position>
            <AltitudeMeters>595.5999755859375</AltitudeMeters>
            <DistanceMeters>20284.347157858</DistanceMeters>
          </Trackpoint>
          <Trackpoint>
            <Time>2022-11-06T11:40:06.000Z</Time>
            <Position>
              <LatitudeDegrees>41.3612098060548305511474609375</LatitudeDegrees>
              <LongitudeDegrees>-1.65707132779061794281005859375</LongitudeDegrees>
            </Position>
            <AltitudeMeters>595.5999755859375</AltitudeMeters>
            <DistanceMeters>20288.332619496</DistanceMeters>
          </Trackpoint>
          <Trackpoint>
            <Time>2022-11-06T11:40:07.000Z</Time>
            <Position>
              <LatitudeDegrees>41.361242495477199554443359375</LatitudeDegrees>
              <LongitudeDegrees>-1.65705506689846515655517578125</LongitudeDegrees>
            </Position>
            <AltitudeMeters>595.79998779296875</AltitudeMeters>
            <DistanceMeters>20292.215946377</DistanceMeters>
          </Trackpoint>
          <Trackpoint>
            <Time>2022-11-06T11:40:08.000Z</Time>
            <Position>
              <LatitudeDegrees>41.36127845384180545806884765625</LatitudeDegrees>
              <LongitudeDegrees>-1.65704349987208843231201171875</LongitudeDegrees>
            </Position>
            <AltitudeMeters>596</AltitudeMeters>
            <DistanceMeters>20296.334014317</DistanceMeters>
          </Trackpoint>
          <Trackpoint>
            <Time>2022-11-06T11:40:09.000Z</Time>
            <Position>
              <LatitudeDegrees>41.36131248436868190765380859375</LatitudeDegrees>
              <LongitudeDegrees>-1.65703117847442626953125</LongitudeDegrees>
            </Position>
            <AltitudeMeters>596.4000244140625</AltitudeMeters>
            <DistanceMeters>20300.258974242</DistanceMeters>
          </Trackpoint>
          <Trackpoint>
            <Time>2022-11-06T11:40:10.000Z</Time>
            <Position>
              <LatitudeDegrees>41.36134701780974864959716796875</LatitudeDegrees>
              <LongitudeDegrees>-1.65702103637158870697021484375</LongitudeDegrees>
            </Position>
            <AltitudeMeters>596.4000244140625</AltitudeMeters>
            <DistanceMeters>20304.195420759</DistanceMeters>
          </Trackpoint>
          <Trackpoint>
            <Time>2022-11-06T11:40:11.000Z</Time>
            <Position>
              <LatitudeDegrees>41.36137761175632476806640625</LatitudeDegrees>
              <LongitudeDegrees>-1.65700913406908512115478515625</LongitudeDegrees>
            </Position>
            <AltitudeMeters>596.5999755859375</AltitudeMeters>
            <DistanceMeters>20307.742094762</DistanceMeters>
          </Trackpoint>
          <Trackpoint>
            <Time>2022-11-06T11:40:12.000Z</Time>
            <Position>
              <LatitudeDegrees>41.3614170067012310028076171875</LatitudeDegrees>
              <LongitudeDegrees>-1.65699387900531291961669921875</LongitudeDegrees>
            </Position>
            <AltitudeMeters>596.79998779296875</AltitudeMeters>
            <DistanceMeters>20312.30931236</DistanceMeters>
          </Trackpoint>
          <Trackpoint>
            <Time>2022-11-06T11:40:13.000Z</Time>
            <Position>
              <LatitudeDegrees>41.3614431582391262054443359375</LatitudeDegrees>
              <LongitudeDegrees>-1.65698197670280933380126953125</LongitudeDegrees>
            </Position>
            <AltitudeMeters>597</AltitudeMeters>
            <DistanceMeters>20315.38559585</DistanceMeters>
          </Trackpoint>
          <Trackpoint>
            <Time>2022-11-06T11:40:14.000Z</Time>
            <Position>
              <LatitudeDegrees>41.36147626675665378570556640625</LatitudeDegrees>
              <LongitudeDegrees>-1.6569726727902889251708984375</LongitudeDegrees>
            </Position>
            <AltitudeMeters>597.20001220703125</AltitudeMeters>
            <DistanceMeters>20319.153258278</DistanceMeters>
          </Trackpoint>
          <Trackpoint>
            <Time>2022-11-06T11:40:15.000Z</Time>
            <Position>
              <LatitudeDegrees>41.36150929145514965057373046875</LatitudeDegrees>
              <LongitudeDegrees>-1.6569619439542293548583984375</LongitudeDegrees>
            </Position>
            <AltitudeMeters>597.4000244140625</AltitudeMeters>
            <DistanceMeters>20322.936467387</DistanceMeters>
          </Trackpoint>
          <Trackpoint>
            <Time>2022-11-06T11:40:16.000Z</Time>
            <Position>
              <LatitudeDegrees>41.361541561782360076904296875</LatitudeDegrees>
              <LongitudeDegrees>-1.6569532267749309539794921875</LongitudeDegrees>
            </Position>
            <AltitudeMeters>597.5999755859375</AltitudeMeters>
            <DistanceMeters>20326.600853239</DistanceMeters>
          </Trackpoint>
          <Trackpoint>
            <Time>2022-11-06T11:40:17.000Z</Time>
            <Position>
              <LatitudeDegrees>41.36157433502376079559326171875</LatitudeDegrees>
              <LongitudeDegrees>-1.6569471918046474456787109375</LongitudeDegrees>
            </Position>
            <AltitudeMeters>598</AltitudeMeters>
            <DistanceMeters>20330.283674823</DistanceMeters>
          </Trackpoint>
          <Trackpoint>
            <Time>2022-11-06T11:40:18.000Z</Time>
            <Position>
              <LatitudeDegrees>41.36161305941641330718994140625</LatitudeDegrees>
              <LongitudeDegrees>-1.65694124065339565277099609375</LongitudeDegrees>
            </Position>
            <AltitudeMeters>598.20001220703125</AltitudeMeters>
            <DistanceMeters>20334.623806096</DistanceMeters>
          </Trackpoint>
          <Trackpoint>
            <Time>2022-11-06T11:40:19.000Z</Time>
            <Position>
              <LatitudeDegrees>41.3616372831165790557861328125</LatitudeDegrees>
              <LongitudeDegrees>-1.65693721733987331390380859375</LongitudeDegrees>
            </Position>
            <AltitudeMeters>598.5999755859375</AltitudeMeters>
            <DistanceMeters>20337.341636578</DistanceMeters>
          </Trackpoint>
          <Trackpoint>
            <Time>2022-11-06T11:40:20.000Z</Time>
            <Position>
              <LatitudeDegrees>41.361666619777679443359375</LatitudeDegrees>
              <LongitudeDegrees>-1.65692782960832118988037109375</LongitudeDegrees>
            </Position>
            <AltitudeMeters>598.79998779296875</AltitudeMeters>
            <DistanceMeters>20340.698649447</DistanceMeters>
          </Trackpoint>
          <Trackpoint>
            <Time>2022-11-06T11:40:21.000Z</Time>
            <Position>
              <LatitudeDegrees>41.36170425452291965484619140625</LatitudeDegrees>
              <LongitudeDegrees>-1.6569190286099910736083984375</LongitudeDegrees>
            </Position>
            <AltitudeMeters>599</AltitudeMeters>
            <DistanceMeters>20344.950497638</DistanceMeters>
          </Trackpoint>
          <Trackpoint>
            <Time>2022-11-06T11:40:22.000Z</Time>
            <Position>
              <LatitudeDegrees>41.36172990314662456512451171875</LatitudeDegrees>
              <LongitudeDegrees>-1.65692112408578395843505859375</LongitudeDegrees>
            </Position>
            <AltitudeMeters>599.20001220703125</AltitudeMeters>
            <DistanceMeters>20347.809206994</DistanceMeters>
          </Trackpoint>
          <Trackpoint>
            <Time>2022-11-06T11:40:23.000Z</Time>
            <Position>
              <LatitudeDegrees>41.36176309548318386077880859375</LatitudeDegrees>
              <LongitudeDegrees>-1.65692598558962345123291015625</LongitudeDegrees>
            </Position>
            <AltitudeMeters>599.4000244140625</AltitudeMeters>
            <DistanceMeters>20351.526197303</DistanceMeters>
          </Trackpoint>
          <Trackpoint>
            <Time>2022-11-06T11:40:24.000Z</Time>
            <Position>
              <LatitudeDegrees>41.3618035800755023956298828125</LatitudeDegrees>
              <LongitudeDegrees>-1.65692833252251148223876953125</LongitudeDegrees>
            </Position>
            <AltitudeMeters>599.5999755859375</AltitudeMeters>
            <DistanceMeters>20356.037715042</DistanceMeters>
          </Trackpoint>
          <Trackpoint>
            <Time>2022-11-06T11:40:25.000Z</Time>
            <Position>
              <LatitudeDegrees>41.361837945878505706787109375</LatitudeDegrees>
              <LongitudeDegrees>-1.65692883543670177459716796875</LongitudeDegrees>
            </Position>
            <AltitudeMeters>599.79998779296875</AltitudeMeters>
            <DistanceMeters>20359.862466516</DistanceMeters>
          </Trackpoint>
          <Trackpoint>
            <Time>2022-11-06T11:40:26.000Z</Time>
            <Position>
              <LatitudeDegrees>41.3618612475693225860595703125</LatitudeDegrees>
              <LongitudeDegrees>-1.65693285875022411346435546875</LongitudeDegrees>
            </Position>
            <AltitudeMeters>599.79998779296875</AltitudeMeters>
            <DistanceMeters>20362.476996659</DistanceMeters>
          </Trackpoint>
          <Trackpoint>
            <Time>2022-11-06T11:40:27.000Z</Time>
            <Position>
              <LatitudeDegrees>41.36189368553459644317626953125</LatitudeDegrees>
              <LongitudeDegrees>-1.656939648091793060302734375</LongitudeDegrees>
            </Position>
            <AltitudeMeters>599.79998779296875</AltitudeMeters>
            <DistanceMeters>20366.130276416</DistanceMeters>
          </Trackpoint>
          <Trackpoint>
            <Time>2022-11-06T11:40:28.000Z</Time>
            <Position>
              <LatitudeDegrees>41.3619267940521240234375</LatitudeDegrees>
              <LongitudeDegrees>-1.6569435037672519683837890625</LongitudeDegrees>
            </Position>
            <AltitudeMeters>600</AltitudeMeters>
            <DistanceMeters>20369.827780403</DistanceMeters>
          </Trackpoint>
          <Trackpoint>
            <Time>2022-11-06T11:40:29.000Z</Time>
            <Position>
              <LatitudeDegrees>41.36195805855095386505126953125</LatitudeDegrees>
              <LongitudeDegrees>-1.6569522209465503692626953125</LongitudeDegrees>
            </Position>
            <AltitudeMeters>600.20001220703125</AltitudeMeters>
            <DistanceMeters>20373.383354481</DistanceMeters>
          </Trackpoint>
          <Trackpoint>
            <Time>2022-11-06T11:40:30.000Z</Time>
            <Position>
              <LatitudeDegrees>41.361988149583339691162109375</LatitudeDegrees>
              <LongitudeDegrees>-1.65696018375456333160400390625</LongitudeDegrees>
            </Position>
            <AltitudeMeters>600.4000244140625</AltitudeMeters>
            <DistanceMeters>20376.796388119</DistanceMeters>
          </Trackpoint>
          <Trackpoint>
            <Time>2022-11-06T11:40:31.000Z</Time>
            <Position>
              <LatitudeDegrees>41.36201824061572551727294921875</LatitudeDegrees>
              <LongitudeDegrees>-1.65697108022868633270263671875</LongitudeDegrees>
            </Position>
            <AltitudeMeters>600.5999755859375</AltitudeMeters>
            <DistanceMeters>20380.265839358</DistanceMeters>
          </Trackpoint>
          <Trackpoint>
            <Time>2022-11-06T11:40:32.000Z</Time>
            <Position>
              <LatitudeDegrees>41.362047158181667327880859375</LatitudeDegrees>
              <LongitudeDegrees>-1.65697929449379444122314453125</LongitudeDegrees>
            </Position>
            <AltitudeMeters>600.79998779296875</AltitudeMeters>
            <DistanceMeters>20383.556289427</DistanceMeters>
          </Trackpoint>
          <Trackpoint>
            <Time>2022-11-06T11:40:33.000Z</Time>
            <Position>
              <LatitudeDegrees>41.362080685794353485107421875</LatitudeDegrees>
              <LongitudeDegrees>-1.6569894365966320037841796875</LongitudeDegrees>
            </Position>
            <AltitudeMeters>600.79998779296875</AltitudeMeters>
            <DistanceMeters>20387.382221198</DistanceMeters>
          </Trackpoint>
          <Trackpoint>
            <Time>2022-11-06T11:40:34.000Z</Time>
            <Position>
              <LatitudeDegrees>41.36210180819034576416015625</LatitudeDegrees>
              <LongitudeDegrees>-1.65699471719563007354736328125</LongitudeDegrees>
            </Position>
            <AltitudeMeters>601</AltitudeMeters>
            <DistanceMeters>20389.774932728</DistanceMeters>
          </Trackpoint>
          <Trackpoint>
            <Time>2022-11-06T11:40:35.000Z</Time>
            <Position>
              <LatitudeDegrees>41.36212921701371669769287109375</LatitudeDegrees>
              <LongitudeDegrees>-1.65700041688978672027587890625</LongitudeDegrees>
            </Position>
            <AltitudeMeters>601.20001220703125</AltitudeMeters>
            <DistanceMeters>20392.862935436</DistanceMeters>
          </Trackpoint>
          <Trackpoint>
            <Time>2022-11-06T11:40:36.000Z</Time>
            <Position>
              <LatitudeDegrees>41.3621569611132144927978515625</LatitudeDegrees>
              <LongitudeDegrees>-1.656999997794628143310546875</LongitudeDegrees>
            </Position>
            <AltitudeMeters>601.20001220703125</AltitudeMeters>
            <DistanceMeters>20395.950938144</DistanceMeters>
          </Trackpoint>
          <Trackpoint>
            <Time>2022-11-06T11:40:37.000Z</Time>
            <Position>
              <LatitudeDegrees>41.36217682622373104095458984375</LatitudeDegrees>
              <LongitudeDegrees>-1.65700108744204044342041015625</LongitudeDegrees>
            </Position>
            <AltitudeMeters>601.5999755859375</AltitudeMeters>
            <DistanceMeters>20398.163244956</DistanceMeters>
          </Trackpoint>
          <Trackpoint>
            <Time>2022-11-06T11:40:38.000Z</Time>
            <Position>
              <LatitudeDegrees>41.3621995411813259124755859375</LatitudeDegrees>
              <LongitudeDegrees>-1.65700594894587993621826171875</LongitudeDegrees>
            </Position>
            <AltitudeMeters>602</AltitudeMeters>
            <DistanceMeters>20400.72368154</DistanceMeters>
          </Trackpoint>
          <Trackpoint>
            <Time>2022-11-06T11:40:39.000Z</Time>
            <Position>
              <LatitudeDegrees>41.36222510598599910736083984375</LatitudeDegrees>
              <LongitudeDegrees>-1.65700930170714855194091796875</LongitudeDegrees>
            </Position>
            <AltitudeMeters>602.4000244140625</AltitudeMeters>
            <DistanceMeters>20403.580811062</DistanceMeters>
          </Trackpoint>
          <Trackpoint>
            <Time>2022-11-06T11:40:40.000Z</Time>
            <Position>
              <LatitudeDegrees>41.36225008405745029449462890625</LatitudeDegrees>
              <LongitudeDegrees>-1.65701081044971942901611328125</LongitudeDegrees>
            </Position>
            <AltitudeMeters>602.5999755859375</AltitudeMeters>
            <DistanceMeters>20406.364299087</DistanceMeters>
          </Trackpoint>
          <Trackpoint>
            <Time>2022-11-06T11:40:41.000Z</Time>
            <Position>
              <LatitudeDegrees>41.36225008405745029449462890625</LatitudeDegrees>
              <LongitudeDegrees>-1.65701081044971942901611328125</LongitudeDegrees>
            </Position>
            <AltitudeMeters>602.79998779296875</AltitudeMeters>
            <DistanceMeters>20406.364299087</DistanceMeters>
          </Trackpoint>
          <Trackpoint>
            <Time>2022-11-06T11:40:42.000Z</Time>
            <Position>
              <LatitudeDegrees>41.3622984476387500762939453125</LatitudeDegrees>
              <LongitudeDegrees>-1.65701282210648059844970703125</LongitudeDegrees>
            </Position>
            <AltitudeMeters>603</AltitudeMeters>
            <DistanceMeters>20411.749891491</DistanceMeters>
          </Trackpoint>
          <Trackpoint>
            <Time>2022-11-06T11:40:43.000Z</Time>
            <Position>
              <LatitudeDegrees>41.362328790128231048583984375</LatitudeDegrees>
              <LongitudeDegrees>-1.657010056078433990478515625</LongitudeDegrees>
            </Position>
            <AltitudeMeters>603.20001220703125</AltitudeMeters>
            <DistanceMeters>20415.135030632</DistanceMeters>
          </Trackpoint>
          <Trackpoint>
            <Time>2022-11-06T11:40:44.000Z</Time>
            <Position>
              <LatitudeDegrees>41.3623484037816524505615234375</LatitudeDegrees>
              <LongitudeDegrees>-1.6570088826119899749755859375</LongitudeDegrees>
            </Position>
            <AltitudeMeters>603.4000244140625</AltitudeMeters>
            <DistanceMeters>20417.322709886</DistanceMeters>
          </Trackpoint>
          <Trackpoint>
            <Time>2022-11-06T11:40:45.000Z</Time>
            <Position>
              <LatitudeDegrees>41.36237279511988162994384765625</LatitudeDegrees>
              <LongitudeDegrees>-1.65700477547943592071533203125</LongitudeDegrees>
            </Position>
            <AltitudeMeters>603.4000244140625</AltitudeMeters>
            <DistanceMeters>20420.060402974</DistanceMeters>
          </Trackpoint>
          <Trackpoint>
            <Time>2022-11-06T11:40:46.000Z</Time>
            <Position>
              <LatitudeDegrees>41.3623963482677936553955078125</LatitudeDegrees>
              <LongitudeDegrees>-1.6570011712610721588134765625</LongitudeDegrees>
            </Position>
            <AltitudeMeters>603.5999755859375</AltitudeMeters>
            <DistanceMeters>20422.700709588</DistanceMeters>
          </Trackpoint>
          <Trackpoint>
            <Time>2022-11-06T11:40:47.000Z</Time>
            <Position>
              <LatitudeDegrees>41.36241788975894451141357421875</LatitudeDegrees>
              <LongitudeDegrees>-1.65699421428143978118896484375</LongitudeDegrees>
            </Position>
            <AltitudeMeters>603.79998779296875</AltitudeMeters>
            <DistanceMeters>20425.167746581</DistanceMeters>
          </Trackpoint>
          <Trackpoint>
            <Time>2022-11-06T11:40:48.000Z</Time>
            <Position>
              <LatitudeDegrees>41.36244119144976139068603515625</LatitudeDegrees>
              <LongitudeDegrees>-1.6569896042346954345703125</LongitudeDegrees>
            </Position>
            <AltitudeMeters>604.20001220703125</AltitudeMeters>
            <DistanceMeters>20427.787452308</DistanceMeters>
          </Trackpoint>
          <Trackpoint>
            <Time>2022-11-06T11:40:49.000Z</Time>
            <Position>
              <LatitudeDegrees>41.36245996691286563873291015625</LatitudeDegrees>
              <LongitudeDegrees>-1.656987257301807403564453125</LongitudeDegrees>
            </Position>
            <AltitudeMeters>604.4000244140625</AltitudeMeters>
            <DistanceMeters>20429.886661041</DistanceMeters>
          </Trackpoint>
          <Trackpoint>
            <Time>2022-11-06T11:40:50.000Z</Time>
            <Position>
              <LatitudeDegrees>41.36248058639466762542724609375</LatitudeDegrees>
              <LongitudeDegrees>-1.65698600001633167266845703125</LongitudeDegrees>
            </Position>
            <AltitudeMeters>604.79998779296875</AltitudeMeters>
            <DistanceMeters>20432.187014231</DistanceMeters>
          </Trackpoint>
          <Trackpoint>
            <Time>2022-11-06T11:40:51.000Z</Time>
            <Position>
              <LatitudeDegrees>41.3624994456768035888671875</LatitudeDegrees>
              <LongitudeDegrees>-1.6569803841412067413330078125</LongitudeDegrees>
            </Position>
            <AltitudeMeters>605</AltitudeMeters>
            <DistanceMeters>20434.341418857</DistanceMeters>
          </Trackpoint>
          <Trackpoint>
            <Time>2022-11-06T11:40:52.000Z</Time>
            <Position>
              <LatitudeDegrees>41.36252065189182758331298828125</LatitudeDegrees>
              <LongitudeDegrees>-1.6569740138947963714599609375</LongitudeDegrees>
            </Position>
            <AltitudeMeters>605.20001220703125</AltitudeMeters>
            <DistanceMeters>20436.764134211</DistanceMeters>
          </Trackpoint>
          <Trackpoint>
            <Time>2022-11-06T11:40:53.000Z</Time>
            <Position>
              <LatitudeDegrees>41.36254244484007358551025390625</LatitudeDegrees>
              <LongitudeDegrees>-1.65697124786674976348876953125</LongitudeDegrees>
            </Position>
            <AltitudeMeters>605.4000244140625</AltitudeMeters>
            <DistanceMeters>20439.199860021</DistanceMeters>
          </Trackpoint>
          <Trackpoint>
            <Time>2022-11-06T11:40:54.000Z</Time>
            <Position>
              <LatitudeDegrees>41.3625643216073513031005859375</LatitudeDegrees>
              <LongitudeDegrees>-1.6569720022380352020263671875</LongitudeDegrees>
            </Position>
            <AltitudeMeters>605.5999755859375</AltitudeMeters>
            <DistanceMeters>20441.633731453</DistanceMeters>
          </Trackpoint>
          <Trackpoint>
            <Time>2022-11-06T11:40:55.000Z</Time>
            <Position>
              <LatitudeDegrees>41.36258552782237529754638671875</LatitudeDegrees>
              <LongitudeDegrees>-1.656969822943210601806640625</LongitudeDegrees>
            </Position>
            <AltitudeMeters>605.79998779296875</AltitudeMeters>
            <DistanceMeters>20443.999877559</DistanceMeters>
          </Trackpoint>
          <Trackpoint>
            <Time>2022-11-06T11:40:56.000Z</Time>
            <Position>
              <LatitudeDegrees>41.36260430328547954559326171875</LatitudeDegrees>
              <LongitudeDegrees>-1.65696755982935428619384765625</LongitudeDegrees>
            </Position>
            <AltitudeMeters>606</AltitudeMeters>
            <DistanceMeters>20446.099086292</DistanceMeters>
          </Trackpoint>
          <Trackpoint>
            <Time>2022-11-06T11:40:57.000Z</Time>
            <Position>
              <LatitudeDegrees>41.36262483894824981689453125</LatitudeDegrees>
              <LongitudeDegrees>-1.656969487667083740234375</LongitudeDegrees>
            </Position>
            <AltitudeMeters>606.20001220703125</AltitudeMeters>
            <DistanceMeters>20448.389604665</DistanceMeters>
          </Trackpoint>
          <Trackpoint>
            <Time>2022-11-06T11:40:58.000Z</Time>
            <Position>
              <LatitudeDegrees>41.3626434467732906341552734375</LatitudeDegrees>
              <LongitudeDegrees>-1.65697476826608180999755859375</LongitudeDegrees>
            </Position>
            <AltitudeMeters>606.4000244140625</AltitudeMeters>
            <DistanceMeters>20450.503815591</DistanceMeters>
          </Trackpoint>
          <Trackpoint>
            <Time>2022-11-06T11:40:59.000Z</Time>
            <Position>
              <LatitudeDegrees>41.3626625575125217437744140625</LatitudeDegrees>
              <LongitudeDegrees>-1.6569793783128261566162109375</LongitudeDegrees>
            </Position>
            <AltitudeMeters>606.5999755859375</AltitudeMeters>
            <DistanceMeters>20452.662407596</DistanceMeters>
          </Trackpoint>
          <Trackpoint>
            <Time>2022-11-06T11:41:00.000Z</Time>
            <Position>
              <LatitudeDegrees>41.3626809976994991302490234375</LatitudeDegrees>
              <LongitudeDegrees>-1.65698331780731678009033203125</LongitudeDegrees>
            </Position>
            <AltitudeMeters>606.79998779296875</AltitudeMeters>
            <DistanceMeters>20454.739996713</DistanceMeters>
          </Trackpoint>
          <Trackpoint>
            <Time>2022-11-06T11:41:01.000Z</Time>
            <Position>
              <LatitudeDegrees>41.36270086281001567840576171875</LatitudeDegrees>
              <LongitudeDegrees>-1.65698801167309284210205078125</LongitudeDegrees>
            </Position>
            <AltitudeMeters>607.20001220703125</AltitudeMeters>
            <DistanceMeters>20456.984720005</DistanceMeters>
          </Trackpoint>
          <Trackpoint>
            <Time>2022-11-06T11:41:02.000Z</Time>
            <Position>
              <LatitudeDegrees>41.36272634379565715789794921875</LatitudeDegrees>
              <LongitudeDegrees>-1.6569964773952960968017578125</LongitudeDegrees>
            </Position>
            <AltitudeMeters>607.4000244140625</AltitudeMeters>
            <DistanceMeters>20459.907467397</DistanceMeters>
          </Trackpoint>
          <Trackpoint>
            <Time>2022-11-06T11:41:03.000Z</Time>
            <Position>
              <LatitudeDegrees>41.36274344287812709808349609375</LatitudeDegrees>
              <LongitudeDegrees>-1.65700427256524562835693359375</LongitudeDegrees>
            </Position>
            <AltitudeMeters>607.5999755859375</AltitudeMeters>
            <DistanceMeters>20461.91880383</DistanceMeters>
          </Trackpoint>
          <Trackpoint>
            <Time>2022-11-06T11:41:04.000Z</Time>
            <Position>
              <LatitudeDegrees>41.362761966884136199951171875</LatitudeDegrees>
              <LongitudeDegrees>-1.65701366029679775238037109375</LongitudeDegrees>
            </Position>
            <AltitudeMeters>607.79998779296875</AltitudeMeters>
            <DistanceMeters>20464.122932031</DistanceMeters>
          </Trackpoint>
          <Trackpoint>
            <Time>2022-11-06T11:41:05.000Z</Time>
            <Position>
              <LatitudeDegrees>41.362786106765270233154296875</LatitudeDegrees>
              <LongitudeDegrees>-1.6570269875228404998779296875</LongitudeDegrees>
            </Position>
            <AltitudeMeters>608</AltitudeMeters>
            <DistanceMeters>20467.030190456</DistanceMeters>
          </Trackpoint>
          <Trackpoint>
            <Time>2022-11-06T11:41:06.000Z</Time>
            <Position>
              <LatitudeDegrees>41.36280245147645473480224609375</LatitudeDegrees>
              <LongitudeDegrees>-1.657035537064075469970703125</LongitudeDegrees>
            </Position>
            <AltitudeMeters>608.20001220703125</AltitudeMeters>
            <DistanceMeters>20468.984601451</DistanceMeters>
          </Trackpoint>
          <Trackpoint>
            <Time>2022-11-06T11:41:07.000Z</Time>
            <Position>
              <LatitudeDegrees>41.36282189749181270599365234375</LatitudeDegrees>
              <LongitudeDegrees>-1.65704752318561077117919921875</LongitudeDegrees>
            </Position>
            <AltitudeMeters>608.4000244140625</AltitudeMeters>
            <DistanceMeters>20471.369753052</DistanceMeters>
          </Trackpoint>
          <Trackpoint>
            <Time>2022-11-06T11:41:08.000Z</Time>
            <Position>
              <LatitudeDegrees>41.36284184642136096954345703125</LatitudeDegrees>
              <LongitudeDegrees>-1.65705858729779720306396484375</LongitudeDegrees>
            </Position>
            <AltitudeMeters>608.5999755859375</AltitudeMeters>
            <DistanceMeters>20473.775637297</DistanceMeters>
          </Trackpoint>
          <Trackpoint>
            <Time>2022-11-06T11:41:09.000Z</Time>
            <Position>
              <LatitudeDegrees>41.3628600351512432098388671875</LatitudeDegrees>
              <LongitudeDegrees>-1.65706898085772991180419921875</LongitudeDegrees>
            </Position>
            <AltitudeMeters>608.79998779296875</AltitudeMeters>
            <DistanceMeters>20475.977716099</DistanceMeters>
          </Trackpoint>
          <Trackpoint>
            <Time>2022-11-06T11:41:10.000Z</Time>
            <Position>
              <LatitudeDegrees>41.36287621222436428070068359375</LatitudeDegrees>
              <LongitudeDegrees>-1.6570839844644069671630859375</LongitudeDegrees>
            </Position>
            <AltitudeMeters>609</AltitudeMeters>
            <DistanceMeters>20478.169519162</DistanceMeters>
          </Trackpoint>
          <Trackpoint>
            <Time>2022-11-06T11:41:11.000Z</Time>
            <Position>
              <LatitudeDegrees>41.3628937304019927978515625</LatitudeDegrees>
              <LongitudeDegrees>-1.6570957191288471221923828125</LongitudeDegrees>
            </Position>
            <AltitudeMeters>609.20001220703125</AltitudeMeters>
            <DistanceMeters>20480.348927387</DistanceMeters>
          </Trackpoint>
          <Trackpoint>
            <Time>2022-11-06T11:41:12.000Z</Time>
            <Position>
              <LatitudeDegrees>41.3629143498837947845458984375</LatitudeDegrees>
              <LongitudeDegrees>-1.657103933393955230712890625</LongitudeDegrees>
            </Position>
            <AltitudeMeters>609.4000244140625</AltitudeMeters>
            <DistanceMeters>20482.741638917</DistanceMeters>
          </Trackpoint>
          <Trackpoint>
            <Time>2022-11-06T11:41:13.000Z</Time>
            <Position>
              <LatitudeDegrees>41.36292985640466213226318359375</LatitudeDegrees>
              <LongitudeDegrees>-1.657108962535858154296875</LongitudeDegrees>
            </Position>
            <AltitudeMeters>609.79998779296875</AltitudeMeters>
            <DistanceMeters>20484.519425955</DistanceMeters>
          </Trackpoint>
          <Trackpoint>
            <Time>2022-11-06T11:41:14.000Z</Time>
            <Position>
              <LatitudeDegrees>41.362951062619686126708984375</LatitudeDegrees>
              <LongitudeDegrees>-1.6571155004203319549560546875</LongitudeDegrees>
            </Position>
            <AltitudeMeters>610</AltitudeMeters>
            <DistanceMeters>20486.944004221</DistanceMeters>
          </Trackpoint>
          <Trackpoint>
            <Time>2022-11-06T11:41:15.000Z</Time>
            <Position>
              <LatitudeDegrees>41.36296388693153858184814453125</LatitudeDegrees>
              <LongitudeDegrees>-1.65711876936256885528564453125</LongitudeDegrees>
            </Position>
            <AltitudeMeters>610.20001220703125</AltitudeMeters>
            <DistanceMeters>20488.400736167</DistanceMeters>
          </Trackpoint>
          <Trackpoint>
            <Time>2022-11-06T11:41:16.000Z</Time>
            <Position>
              <LatitudeDegrees>41.36297998018562793731689453125</LatitudeDegrees>
              <LongitudeDegrees>-1.65712304413318634033203125</LongitudeDegrees>
            </Position>
            <AltitudeMeters>610.5999755859375</AltitudeMeters>
            <DistanceMeters>20490.228611514</DistanceMeters>
          </Trackpoint>
          <Trackpoint>
            <Time>2022-11-06T11:41:17.000Z</Time>
            <Position>
              <LatitudeDegrees>41.3629995100200176239013671875</LatitudeDegrees>
              <LongitudeDegrees>-1.6571344435214996337890625</LongitudeDegrees>
            </Position>
            <AltitudeMeters>610.79998779296875</AltitudeMeters>
            <DistanceMeters>20492.602378079</DistanceMeters>
          </Trackpoint>
          <Trackpoint>
            <Time>2022-11-06T11:41:18.000Z</Time>
            <Position>
              <LatitudeDegrees>41.3630142621695995330810546875</LatitudeDegrees>
              <LongitudeDegrees>-1.6571419872343540191650390625</LongitudeDegrees>
            </Position>
            <AltitudeMeters>611.20001220703125</AltitudeMeters>
            <DistanceMeters>20494.359730105</DistanceMeters>
          </Trackpoint>
          <Trackpoint>
            <Time>2022-11-06T11:41:19.000Z</Time>
            <Position>
              <LatitudeDegrees>41.3630313612520694732666015625</LatitudeDegrees>
              <LongitudeDegrees>-1.65714726783335208892822265625</LongitudeDegrees>
            </Position>
            <AltitudeMeters>611.4000244140625</AltitudeMeters>
            <DistanceMeters>20496.311829554</DistanceMeters>
          </Trackpoint>
          <Trackpoint>
            <Time>2022-11-06T11:41:20.000Z</Time>
            <Position>
              <LatitudeDegrees>41.363047622144222259521484375</LatitudeDegrees>
              <LongitudeDegrees>-1.657152883708477020263671875</LongitudeDegrees>
            </Position>
            <AltitudeMeters>611.79998779296875</AltitudeMeters>
            <DistanceMeters>20498.183638748</DistanceMeters>
          </Trackpoint>
          <Trackpoint>
            <Time>2022-11-06T11:41:21.000Z</Time>
            <Position>
              <LatitudeDegrees>41.36306480504572391510009765625</LatitudeDegrees>
              <LongitudeDegrees>-1.657162271440029144287109375</LongitudeDegrees>
            </Position>
            <AltitudeMeters>612</AltitudeMeters>
            <DistanceMeters>20500.250333249</DistanceMeters>
          </Trackpoint>
          <Trackpoint>
            <Time>2022-11-06T11:41:22.000Z</Time>
            <Position>
              <LatitudeDegrees>41.3630814850330352783203125</LatitudeDegrees>
              <LongitudeDegrees>-1.6571724973618984222412109375</LongitudeDegrees>
            </Position>
            <AltitudeMeters>612.20001220703125</AltitudeMeters>
            <DistanceMeters>20502.292855052</DistanceMeters>
          </Trackpoint>
          <Trackpoint>
            <Time>2022-11-06T11:41:23.000Z</Time>
            <Position>
              <LatitudeDegrees>41.36309749446809291839599609375</LatitudeDegrees>
              <LongitudeDegrees>-1.6571854054927825927734375</LongitudeDegrees>
            </Position>
            <AltitudeMeters>612.4000244140625</AltitudeMeters>
            <DistanceMeters>20504.376953603</DistanceMeters>
          </Trackpoint>
          <Trackpoint>
            <Time>2022-11-06T11:41:24.000Z</Time>
            <Position>
              <LatitudeDegrees>41.3631155155599117279052734375</LatitudeDegrees>
              <LongitudeDegrees>-1.657198481261730194091796875</LongitudeDegrees>
            </Position>
            <AltitudeMeters>612.5999755859375</AltitudeMeters>
            <DistanceMeters>20506.661550763</DistanceMeters>
          </Trackpoint>
          <Trackpoint>
            <Time>2022-11-06T11:41:25.000Z</Time>
            <Position>
              <LatitudeDegrees>41.3631316088140010833740234375</LatitudeDegrees>
              <LongitudeDegrees>-1.65721356868743896484375</LongitudeDegrees>
            </Position>
            <AltitudeMeters>613.20001220703125</AltitudeMeters>
            <DistanceMeters>20508.851292892</DistanceMeters>
          </Trackpoint>
          <Trackpoint>
            <Time>2022-11-06T11:41:26.000Z</Time>
            <Position>
              <LatitudeDegrees>41.3631477020680904388427734375</LatitudeDegrees>
              <LongitudeDegrees>-1.65723477490246295928955078125</LongitudeDegrees>
            </Position>
            <AltitudeMeters>613.4000244140625</AltitudeMeters>
            <DistanceMeters>20511.370845182</DistanceMeters>
          </Trackpoint>
          <Trackpoint>
            <Time>2022-11-06T11:41:27.000Z</Time>
            <Position>
              <LatitudeDegrees>41.3631631247699260711669921875</LatitudeDegrees>
              <LongitudeDegrees>-1.65725983679294586181640625</LongitudeDegrees>
            </Position>
            <AltitudeMeters>613.5999755859375</AltitudeMeters>
            <DistanceMeters>20514.080356604</DistanceMeters>
          </Trackpoint>
          <Trackpoint>
            <Time>2022-11-06T11:41:28.000Z</Time>
            <Position>
              <LatitudeDegrees>41.3631807267665863037109375</LatitudeDegrees>
              <LongitudeDegrees>-1.65728288702666759490966796875</LongitudeDegrees>
            </Position>
            <AltitudeMeters>613.79998779296875</AltitudeMeters>
            <DistanceMeters>20516.827927151</DistanceMeters>
          </Trackpoint>
          <Trackpoint>
            <Time>2022-11-06T11:41:29.000Z</Time>
            <Position>
              <LatitudeDegrees>41.3631969876587390899658203125</LatitudeDegrees>
              <LongitudeDegrees>-1.65730945765972137451171875</LongitudeDegrees>
            </Position>
            <AltitudeMeters>613.79998779296875</AltitudeMeters>
            <DistanceMeters>20519.692947131</DistanceMeters>
          </Trackpoint>
          <Trackpoint>
            <Time>2022-11-06T11:41:30.000Z</Time>
            <Position>
              <LatitudeDegrees>41.3632124103605747222900390625</LatitudeDegrees>
              <LongitudeDegrees>-1.65734030306339263916015625</LongitudeDegrees>
            </Position>
            <AltitudeMeters>614</AltitudeMeters>
            <DistanceMeters>20522.789710148</DistanceMeters>
          </Trackpoint>
          <Trackpoint>
            <Time>2022-11-06T11:41:31.000Z</Time>
            <Position>
              <LatitudeDegrees>41.36322758160531520843505859375</LatitudeDegrees>
              <LongitudeDegrees>-1.65736888535320758819580078125</LongitudeDegrees>
            </Position>
            <AltitudeMeters>614</AltitudeMeters>
            <DistanceMeters>20525.71245754</DistanceMeters>
          </Trackpoint>
          <Trackpoint>
            <Time>2022-11-06T11:41:32.000Z</Time>
            <Position>
              <LatitudeDegrees>41.36324333958327770233154296875</LatitudeDegrees>
              <LongitudeDegrees>-1.65739553980529308319091796875</LongitudeDegrees>
            </Position>
            <AltitudeMeters>614</AltitudeMeters>
            <DistanceMeters>20528.545783846</DistanceMeters>
          </Trackpoint>
          <Trackpoint>
            <Time>2022-11-06T11:41:33.000Z</Time>
            <Position>
              <LatitudeDegrees>41.36325641535222530364990234375</LatitudeDegrees>
              <LongitudeDegrees>-1.6574232839047908782958984375</LongitudeDegrees>
            </Position>
            <AltitudeMeters>614</AltitudeMeters>
            <DistanceMeters>20531.283476935</DistanceMeters>
          </Trackpoint>
          <Trackpoint>
            <Time>2022-11-06T11:41:34.000Z</Time>
            <Position>
              <LatitudeDegrees>41.36327284388244152069091796875</LatitudeDegrees>
              <LongitudeDegrees>-1.657454632222652435302734375</LongitudeDegrees>
            </Position>
            <AltitudeMeters>614.20001220703125</AltitudeMeters>
            <DistanceMeters>20534.477844851</DistanceMeters>
          </Trackpoint>
          <Trackpoint>
            <Time>2022-11-06T11:41:35.000Z</Time>
            <Position>
              <LatitudeDegrees>41.3632834888994693756103515625</LatitudeDegrees>
              <LongitudeDegrees>-1.65747785009443759918212890625</LongitudeDegrees>
            </Position>
            <AltitudeMeters>614.4000244140625</AltitudeMeters>
            <DistanceMeters>20536.750553307</DistanceMeters>
          </Trackpoint>
          <Trackpoint>
            <Time>2022-11-06T11:41:36.000Z</Time>
            <Position>
              <LatitudeDegrees>41.36329807341098785400390625</LatitudeDegrees>
              <LongitudeDegrees>-1.65750953368842601776123046875</LongitudeDegrees>
            </Position>
            <AltitudeMeters>614.4000244140625</AltitudeMeters>
            <DistanceMeters>20539.854597695</DistanceMeters>
          </Trackpoint>
          <Trackpoint>
            <Time>2022-11-06T11:41:37.000Z</Time>
            <Position>
              <LatitudeDegrees>41.3633136637508869171142578125</LatitudeDegrees>
              <LongitudeDegrees>-1.65754172019660472869873046875</LongitudeDegrees>
            </Position>
            <AltitudeMeters>614.5999755859375</AltitudeMeters>
            <DistanceMeters>20543.053203112</DistanceMeters>
          </Trackpoint>
          <Trackpoint>
            <Time>2022-11-06T11:41:38.000Z</Time>
            <Position>
              <LatitudeDegrees>41.3633317686617374420166015625</LatitudeDegrees>
              <LongitudeDegrees>-1.65757273323833942413330078125</LongitudeDegrees>
            </Position>
            <AltitudeMeters>614.5999755859375</AltitudeMeters>
            <DistanceMeters>20546.335409869</DistanceMeters>
          </Trackpoint>
          <Trackpoint>
            <Time>2022-11-06T11:41:39.000Z</Time>
            <Position>
              <LatitudeDegrees>41.36334744282066822052001953125</LatitudeDegrees>
              <LongitudeDegrees>-1.657604835927486419677734375</LongitudeDegrees>
            </Position>
            <AltitudeMeters>614.79998779296875</AltitudeMeters>
            <DistanceMeters>20549.53824718</DistanceMeters>
          </Trackpoint>
          <Trackpoint>
            <Time>2022-11-06T11:41:40.000Z</Time>
            <Position>
              <LatitudeDegrees>41.36336470954120159149169921875</LatitudeDegrees>
              <LongitudeDegrees>-1.65763802826404571533203125</LongitudeDegrees>
            </Position>
            <AltitudeMeters>615</AltitudeMeters>
            <DistanceMeters>20552.911360922</DistanceMeters>
          </Trackpoint>
          <Trackpoint>
            <Time>2022-11-06T11:41:41.000Z</Time>
            <Position>
              <LatitudeDegrees>41.3633803837001323699951171875</LatitudeDegrees>
              <LongitudeDegrees>-1.65767080150544643402099609375</LongitudeDegrees>
            </Position>
            <AltitudeMeters>615</AltitudeMeters>
            <DistanceMeters>20556.157604784</DistanceMeters>
          </Trackpoint>
          <Trackpoint>
            <Time>2022-11-06T11:41:42.000Z</Time>
            <Position>
              <LatitudeDegrees>41.3633968122303485870361328125</LatitudeDegrees>
              <LongitudeDegrees>-1.65769946761429309844970703125</LongitudeDegrees>
            </Position>
            <AltitudeMeters>615</AltitudeMeters>
            <DistanceMeters>20559.171614887</DistanceMeters>
          </Trackpoint>
          <Trackpoint>
            <Time>2022-11-06T11:41:43.000Z</Time>
            <Position>
              <LatitudeDegrees>41.363412402570247650146484375</LatitudeDegrees>
              <LongitudeDegrees>-1.65773098357021808624267578125</LongitudeDegrees>
            </Position>
            <AltitudeMeters>615.20001220703125</AltitudeMeters>
            <DistanceMeters>20562.326158316</DistanceMeters>
          </Trackpoint>
          <Trackpoint>
            <Time>2022-11-06T11:41:44.000Z</Time>
            <Position>
              <LatitudeDegrees>41.3634286634624004364013671875</LatitudeDegrees>
              <LongitudeDegrees>-1.6577609069645404815673828125</LongitudeDegrees>
            </Position>
            <AltitudeMeters>615.20001220703125</AltitudeMeters>
            <DistanceMeters>20565.412698555</DistanceMeters>
          </Trackpoint>
          <Trackpoint>
            <Time>2022-11-06T11:41:45.000Z</Time>
            <Position>
              <LatitudeDegrees>41.36344651691615581512451171875</LatitudeDegrees>
              <LongitudeDegrees>-1.65778957307338714599609375</LongitudeDegrees>
            </Position>
            <AltitudeMeters>615.4000244140625</AltitudeMeters>
            <DistanceMeters>20568.524007275</DistanceMeters>
          </Trackpoint>
          <Trackpoint>
            <Time>2022-11-06T11:41:46.000Z</Time>
            <Position>
              <LatitudeDegrees>41.36346428655087947845458984375</LatitudeDegrees>
              <LongitudeDegrees>-1.65781932882964611053466796875</LongitudeDegrees>
            </Position>
            <AltitudeMeters>615.4000244140625</AltitudeMeters>
            <DistanceMeters>20571.699947354</DistanceMeters>
          </Trackpoint>
          <Trackpoint>
            <Time>2022-11-06T11:41:47.000Z</Time>
            <Position>
              <LatitudeDegrees>41.3634809665381908416748046875</LatitudeDegrees>
              <LongitudeDegrees>-1.65784782730042934417724609375</LongitudeDegrees>
            </Position>
            <AltitudeMeters>615.4000244140625</AltitudeMeters>
            <DistanceMeters>20574.71994358</DistanceMeters>
          </Trackpoint>
          <Trackpoint>
            <Time>2022-11-06T11:41:48.000Z</Time>
            <Position>
              <LatitudeDegrees>41.36349764652550220489501953125</LatitudeDegrees>
              <LongitudeDegrees>-1.65787816978991031646728515625</LongitudeDegrees>
            </Position>
            <AltitudeMeters>615.5999755859375</AltitudeMeters>
            <DistanceMeters>20577.861579071</DistanceMeters>
          </Trackpoint>
          <Trackpoint>
            <Time>2022-11-06T11:41:49.000Z</Time>
            <Position>
              <LatitudeDegrees>41.363513655960559844970703125</LatitudeDegrees>
              <LongitudeDegrees>-1.65791018866002559661865234375</LongitudeDegrees>
            </Position>
            <AltitudeMeters>615.5999755859375</AltitudeMeters>
            <DistanceMeters>20581.075674192</DistanceMeters>
          </Trackpoint>
          <Trackpoint>
            <Time>2022-11-06T11:41:50.000Z</Time>
            <Position>
              <LatitudeDegrees>41.36353352107107639312744140625</LatitudeDegrees>
              <LongitudeDegrees>-1.6579399444162845611572265625</LongitudeDegrees>
            </Position>
            <AltitudeMeters>615.79998779296875</AltitudeMeters>
            <DistanceMeters>20584.402966443</DistanceMeters>
          </Trackpoint>
          <Trackpoint>
            <Time>2022-11-06T11:41:51.000Z</Time>
            <Position>
              <LatitudeDegrees>41.363557912409305572509765625</LatitudeDegrees>
              <LongitudeDegrees>-1.65796265937387943267822265625</LongitudeDegrees>
            </Position>
            <AltitudeMeters>616</AltitudeMeters>
            <DistanceMeters>20587.715298383</DistanceMeters>
          </Trackpoint>
          <Trackpoint>
            <Time>2022-11-06T11:41:52.000Z</Time>
            <Position>
              <LatitudeDegrees>41.363582052290439605712890625</LatitudeDegrees>
              <LongitudeDegrees>-1.657987050712108612060546875</LongitudeDegrees>
            </Position>
            <AltitudeMeters>616</AltitudeMeters>
            <DistanceMeters>20591.088412125</DistanceMeters>
          </Trackpoint>
          <Trackpoint>
            <Time>2022-11-06T11:41:53.000Z</Time>
            <Position>
              <LatitudeDegrees>41.36360610835254192352294921875</LatitudeDegrees>
              <LongitudeDegrees>-1.65801085531711578369140625</LongitudeDegrees>
            </Position>
            <AltitudeMeters>616.20001220703125</AltitudeMeters>
            <DistanceMeters>20594.423836263</DistanceMeters>
          </Trackpoint>
          <Trackpoint>
            <Time>2022-11-06T11:41:54.000Z</Time>
            <Position>
              <LatitudeDegrees>41.363629661500453948974609375</LatitudeDegrees>
              <LongitudeDegrees>-1.65803365409374237060546875</LongitudeDegrees>
            </Position>
            <AltitudeMeters>616.4000244140625</AltitudeMeters>
            <DistanceMeters>20597.66590489</DistanceMeters>
          </Trackpoint>
          <Trackpoint>
            <Time>2022-11-06T11:41:55.000Z</Time>
            <Position>
              <LatitudeDegrees>41.36365405283868312835693359375</LatitudeDegrees>
              <LongitudeDegrees>-1.65805511176586151123046875</LongitudeDegrees>
            </Position>
            <AltitudeMeters>616.4000244140625</AltitudeMeters>
            <DistanceMeters>20600.919095569</DistanceMeters>
          </Trackpoint>
          <Trackpoint>
            <Time>2022-11-06T11:41:56.000Z</Time>
            <Position>
              <LatitudeDegrees>41.36367886327207088470458984375</LatitudeDegrees>
              <LongitudeDegrees>-1.6580758988857269287109375</LongitudeDegrees>
            </Position>
            <AltitudeMeters>616.5999755859375</AltitudeMeters>
            <DistanceMeters>20604.180602897</DistanceMeters>
          </Trackpoint>
          <Trackpoint>
            <Time>2022-11-06T11:41:57.000Z</Time>
            <Position>
              <LatitudeDegrees>41.3637042604386806488037109375</LatitudeDegrees>
              <LongitudeDegrees>-1.65809207595884799957275390625</LongitudeDegrees>
            </Position>
            <AltitudeMeters>616.5999755859375</AltitudeMeters>
            <DistanceMeters>20607.31360355</DistanceMeters>
          </Trackpoint>
          <Trackpoint>
            <Time>2022-11-06T11:41:58.000Z</Time>
            <Position>
              <LatitudeDegrees>41.363730914890766143798828125</LatitudeDegrees>
              <LongitudeDegrees>-1.6581065766513347625732421875</LongitudeDegrees>
            </Position>
            <AltitudeMeters>617</AltitudeMeters>
            <DistanceMeters>20610.516440861</DistanceMeters>
          </Trackpoint>
          <Trackpoint>
            <Time>2022-11-06T11:41:59.000Z</Time>
            <Position>
              <LatitudeDegrees>41.36375606060028076171875</LatitudeDegrees>
              <LongitudeDegrees>-1.65811738930642604827880859375</LongitudeDegrees>
            </Position>
            <AltitudeMeters>617.20001220703125</AltitudeMeters>
            <DistanceMeters>20613.456131858</DistanceMeters>
          </Trackpoint>
          <Trackpoint>
            <Time>2022-11-06T11:42:00.000Z</Time>
            <Position>
              <LatitudeDegrees>41.363781206309795379638671875</LatitudeDegrees>
              <LongitudeDegrees>-1.6581330634653568267822265625</LongitudeDegrees>
            </Position>
            <AltitudeMeters>617.79998779296875</AltitudeMeters>
            <DistanceMeters>20616.545596342</DistanceMeters>
          </Trackpoint>
          <Trackpoint>
            <Time>2022-11-06T11:42:01.000Z</Time>
            <Position>
              <LatitudeDegrees>41.36380710639059543609619140625</LatitudeDegrees>
              <LongitudeDegrees>-1.658147983253002166748046875</LongitudeDegrees>
            </Position>
            <AltitudeMeters>617.79998779296875</AltitudeMeters>
            <DistanceMeters>20619.685794342</DistanceMeters>
          </Trackpoint>
          <Trackpoint>
            <Time>2022-11-06T11:42:02.000Z</Time>
            <Position>
              <LatitudeDegrees>41.36383225210011005401611328125</LatitudeDegrees>
              <LongitudeDegrees>-1.6581618972122669219970703125</LongitudeDegrees>
            </Position>
            <AltitudeMeters>617.79998779296875</AltitudeMeters>
            <DistanceMeters>20622.716237832</DistanceMeters>
          </Trackpoint>
          <Trackpoint>
            <Time>2022-11-06T11:42:03.000Z</Time>
            <Position>
              <LatitudeDegrees>41.36386008001863956451416015625</LatitudeDegrees>
              <LongitudeDegrees>-1.65817438624799251556396484375</LongitudeDegrees>
            </Position>
            <AltitudeMeters>618</AltitudeMeters>
            <DistanceMeters>20625.983277831</DistanceMeters>
          </Trackpoint>
          <Trackpoint>
            <Time>2022-11-06T11:42:04.000Z</Time>
            <Position>
              <LatitudeDegrees>41.36388891376554965972900390625</LatitudeDegrees>
              <LongitudeDegrees>-1.6581870429217815399169921875</LongitudeDegrees>
            </Position>
            <AltitudeMeters>618</AltitudeMeters>
            <DistanceMeters>20629.363077633</DistanceMeters>
          </Trackpoint>
          <Trackpoint>
            <Time>2022-11-06T11:42:05.000Z</Time>
            <Position>
              <LatitudeDegrees>41.3639164902269840240478515625</LatitudeDegrees>
              <LongitudeDegrees>-1.6582004539668560028076171875</LongitudeDegrees>
            </Position>
            <AltitudeMeters>618.20001220703125</AltitudeMeters>
            <DistanceMeters>20632.630117632</DistanceMeters>
          </Trackpoint>
          <Trackpoint>
            <Time>2022-11-06T11:42:06.000Z</Time>
            <Position>
              <LatitudeDegrees>41.36394339613616466522216796875</LatitudeDegrees>
              <LongitudeDegrees>-1.6582135297358036041259765625</LongitudeDegrees>
            </Position>
            <AltitudeMeters>618.20001220703125</AltitudeMeters>
            <DistanceMeters>20635.818826787</DistanceMeters>
          </Trackpoint>
          <Trackpoint>
            <Time>2022-11-06T11:42:07.000Z</Time>
            <Position>
              <LatitudeDegrees>41.3639684580266475677490234375</LatitudeDegrees>
              <LongitudeDegrees>-1.65822836570441722869873046875</LongitudeDegrees>
            </Position>
            <AltitudeMeters>618.4000244140625</AltitudeMeters>
            <DistanceMeters>20638.871536877</DistanceMeters>
          </Trackpoint>
          <Trackpoint>
            <Time>2022-11-06T11:42:08.000Z</Time>
            <Position>
              <LatitudeDegrees>41.36399217881262302398681640625</LatitudeDegrees>
              <LongitudeDegrees>-1.6582416929304599761962890625</LongitudeDegrees>
            </Position>
            <AltitudeMeters>618.4000244140625</AltitudeMeters>
            <DistanceMeters>20641.734980505</DistanceMeters>
          </Trackpoint>
          <Trackpoint>
            <Time>2022-11-06T11:42:09.000Z</Time>
            <Position>
              <LatitudeDegrees>41.36401715688407421112060546875</LatitudeDegrees>
              <LongitudeDegrees>-1.65825300849974155426025390625</LongitudeDegrees>
            </Position>
            <AltitudeMeters>618.79998779296875</AltitudeMeters>
            <DistanceMeters>20644.671598117</DistanceMeters>
          </Trackpoint>
          <Trackpoint>
            <Time>2022-11-06T11:42:10.000Z</Time>
            <Position>
              <LatitudeDegrees>41.3640395365655422210693359375</LatitudeDegrees>
              <LongitudeDegrees>-1.658261977136135101318359375</LongitudeDegrees>
            </Position>
            <AltitudeMeters>619.20001220703125</AltitudeMeters>
            <DistanceMeters>20647.272276348</DistanceMeters>
          </Trackpoint>
          <Trackpoint>
            <Time>2022-11-06T11:42:11.000Z</Time>
            <Position>
              <LatitudeDegrees>41.36406124569475650787353515625</LatitudeDegrees>
              <LongitudeDegrees>-1.6582732088863849639892578125</LongitudeDegrees>
            </Position>
            <AltitudeMeters>619.4000244140625</AltitudeMeters>
            <DistanceMeters>20649.864259541</DistanceMeters>
          </Trackpoint>
          <Trackpoint>
            <Time>2022-11-06T11:42:12.000Z</Time>
            <Position>
              <LatitudeDegrees>41.36408664286136627197265625</LatitudeDegrees>
              <LongitudeDegrees>-1.65828066878020763397216796875</LongitudeDegrees>
            </Position>
            <AltitudeMeters>619.5999755859375</AltitudeMeters>
            <DistanceMeters>20652.759067123</DistanceMeters>
          </Trackpoint>
          <Trackpoint>
            <Time>2022-11-06T11:42:13.000Z</Time>
            <Position>
              <LatitudeDegrees>41.364114470779895782470703125</LatitudeDegrees>
              <LongitudeDegrees>-1.65828444063663482666015625</LongitudeDegrees>
            </Position>
            <AltitudeMeters>619.79998779296875</AltitudeMeters>
            <DistanceMeters>20655.873276831</DistanceMeters>
          </Trackpoint>
          <Trackpoint>
            <Time>2022-11-06T11:42:14.000Z</Time>
            <Position>
              <LatitudeDegrees>41.364145316183567047119140625</LatitudeDegrees>
              <LongitudeDegrees>-1.658289134502410888671875</LongitudeDegrees>
            </Position>
            <AltitudeMeters>619.79998779296875</AltitudeMeters>
            <DistanceMeters>20659.32838335</DistanceMeters>
          </Trackpoint>
          <Trackpoint>
            <Time>2022-11-06T11:42:15.000Z</Time>
            <Position>
              <LatitudeDegrees>41.36417758651077747344970703125</LatitudeDegrees>
              <LongitudeDegrees>-1.6582983545958995819091796875</LongitudeDegrees>
            </Position>
            <AltitudeMeters>619.79998779296875</AltitudeMeters>
            <DistanceMeters>20663.003841738</DistanceMeters>
          </Trackpoint>
          <Trackpoint>
            <Time>2022-11-06T11:42:16.000Z</Time>
            <Position>
              <LatitudeDegrees>41.3642111979424953460693359375</LatitudeDegrees>
              <LongitudeDegrees>-1.65831000544130802154541015625</LongitudeDegrees>
            </Position>
            <AltitudeMeters>620</AltitudeMeters>
            <DistanceMeters>20666.870856942</DistanceMeters>
          </Trackpoint>
          <Trackpoint>
            <Time>2022-11-06T11:42:17.000Z</Time>
            <Position>
              <LatitudeDegrees>41.36424782685935497283935546875</LatitudeDegrees>
              <LongitudeDegrees>-1.658322326838970184326171875</LongitudeDegrees>
            </Position>
            <AltitudeMeters>619.79998779296875</AltitudeMeters>
            <DistanceMeters>20671.075721943</DistanceMeters>
          </Trackpoint>
          <Trackpoint>
            <Time>2022-11-06T11:42:18.000Z</Time>
            <Position>
              <LatitudeDegrees>41.3642876408994197845458984375</LatitudeDegrees>
              <LongitudeDegrees>-1.6583352349698543548583984375</LongitudeDegrees>
            </Position>
            <AltitudeMeters>619.5999755859375</AltitudeMeters>
            <DistanceMeters>20675.636014264</DistanceMeters>
          </Trackpoint>
          <Trackpoint>
            <Time>2022-11-06T11:42:19.000Z</Time>
            <Position>
              <LatitudeDegrees>41.36433097533881664276123046875</LatitudeDegrees>
              <LongitudeDegrees>-1.6583446227014064788818359375</LongitudeDegrees>
            </Position>
            <AltitudeMeters>619.5999755859375</AltitudeMeters>
            <DistanceMeters>20680.522272763</DistanceMeters>
          </Trackpoint>
          <Trackpoint>
            <Time>2022-11-06T11:42:20.000Z</Time>
            <Position>
              <LatitudeDegrees>41.364376656711101531982421875</LatitudeDegrees>
              <LongitudeDegrees>-1.6583526693284511566162109375</LongitudeDegrees>
            </Position>
            <AltitudeMeters>619.5999755859375</AltitudeMeters>
            <DistanceMeters>20685.651075028</DistanceMeters>
          </Trackpoint>
          <Trackpoint>
            <Time>2022-11-06T11:42:21.000Z</Time>
            <Position>
              <LatitudeDegrees>41.36442552320659160614013671875</LatitudeDegrees>
              <LongitudeDegrees>-1.65836079977452754974365234375</LongitudeDegrees>
            </Position>
            <AltitudeMeters>619.4000244140625</AltitudeMeters>
            <DistanceMeters>20691.133054088</DistanceMeters>
          </Trackpoint>
          <Trackpoint>
            <Time>2022-11-06T11:42:22.000Z</Time>
            <Position>
              <LatitudeDegrees>41.36448855511844158172607421875</LatitudeDegrees>
              <LongitudeDegrees>-1.6583519987761974334716796875</LongitudeDegrees>
            </Position>
            <AltitudeMeters>619.20001220703125</AltitudeMeters>
            <DistanceMeters>20698.187467691</DistanceMeters>
          </Trackpoint>
          <Trackpoint>
            <Time>2022-11-06T11:42:23.000Z</Time>
            <Position>
              <LatitudeDegrees>41.36452543549239635467529296875</LatitudeDegrees>
              <LongitudeDegrees>-1.65832509286701679229736328125</LongitudeDegrees>
            </Position>
            <AltitudeMeters>619</AltitudeMeters>
            <DistanceMeters>20702.866990677</DistanceMeters>
          </Trackpoint>
          <Trackpoint>
            <Time>2022-11-06T11:42:24.000Z</Time>
            <Position>
              <LatitudeDegrees>41.36455125175416469573974609375</LatitudeDegrees>
              <LongitudeDegrees>-1.65828033350408077239990234375</LongitudeDegrees>
            </Position>
            <AltitudeMeters>619</AltitudeMeters>
            <DistanceMeters>20707.582077972</DistanceMeters>
          </Trackpoint>
          <Trackpoint>
            <Time>2022-11-06T11:42:25.000Z</Time>
            <Position>
              <LatitudeDegrees>41.36455644853413105010986328125</LatitudeDegrees>
              <LongitudeDegrees>-1.65823272429406642913818359375</LongitudeDegrees>
            </Position>
            <AltitudeMeters>619</AltitudeMeters>
            <DistanceMeters>20711.601382235</DistanceMeters>
          </Trackpoint>
          <Trackpoint>
            <Time>2022-11-06T11:42:26.000Z</Time>
            <Position>
              <LatitudeDegrees>41.3645478151738643646240234375</LatitudeDegrees>
              <LongitudeDegrees>-1.65818662382662296295166015625</LongitudeDegrees>
            </Position>
            <AltitudeMeters>619</AltitudeMeters>
            <DistanceMeters>20715.572089159</DistanceMeters>
          </Trackpoint>
          <Trackpoint>
            <Time>2022-11-06T11:42:27.000Z</Time>
            <Position>
              <LatitudeDegrees>41.36453666724264621734619140625</LatitudeDegrees>
              <LongitudeDegrees>-1.65814630687236785888671875</LongitudeDegrees>
            </Position>
            <AltitudeMeters>619</AltitudeMeters>
            <DistanceMeters>20719.1605274</DistanceMeters>
          </Trackpoint>
          <Trackpoint>
            <Time>2022-11-06T11:42:28.000Z</Time>
            <Position>
              <LatitudeDegrees>41.3645240105688571929931640625</LatitudeDegrees>
              <LongitudeDegrees>-1.65811001323163509368896484375</LongitudeDegrees>
            </Position>
            <AltitudeMeters>619</AltitudeMeters>
            <DistanceMeters>20722.504063647</DistanceMeters>
          </Trackpoint>
          <Trackpoint>
            <Time>2022-11-06T11:42:29.000Z</Time>
            <Position>
              <LatitudeDegrees>41.3645105995237827301025390625</LatitudeDegrees>
              <LongitudeDegrees>-1.65807950310409069061279296875</LongitudeDegrees>
            </Position>
            <AltitudeMeters>619.20001220703125</AltitudeMeters>
            <DistanceMeters>20725.456016182</DistanceMeters>
          </Trackpoint>
          <Trackpoint>
            <Time>2022-11-06T11:42:30.000Z</Time>
            <Position>
              <LatitudeDegrees>41.364503391087055206298828125</LatitudeDegrees>
              <LongitudeDegrees>-1.6580509208142757415771484375</LongitudeDegrees>
            </Position>
            <AltitudeMeters>619.20001220703125</AltitudeMeters>
            <DistanceMeters>20727.973775834</DistanceMeters>
          </Trackpoint>
          <Trackpoint>
            <Time>2022-11-06T11:42:31.000Z</Time>
            <Position>
              <LatitudeDegrees>41.36449542827904224395751953125</LatitudeDegrees>
              <LongitudeDegrees>-1.6580251045525074005126953125</LongitudeDegrees>
            </Position>
            <AltitudeMeters>619.5999755859375</AltitudeMeters>
            <DistanceMeters>20730.305321677</DistanceMeters>
          </Trackpoint>
          <Trackpoint>
            <Time>2022-11-06T11:42:32.000Z</Time>
            <Position>
              <LatitudeDegrees>41.36448469944298267364501953125</LatitudeDegrees>
              <LongitudeDegrees>-1.6580019704997539520263671875</LongitudeDegrees>
            </Position>
            <AltitudeMeters>619.79998779296875</AltitudeMeters>
            <DistanceMeters>20732.578030133</DistanceMeters>
          </Trackpoint>
          <Trackpoint>
            <Time>2022-11-06T11:42:33.000Z</Time>
            <Position>
              <LatitudeDegrees>41.36447380296885967254638671875</LatitudeDegrees>
              <LongitudeDegrees>-1.6579821892082691192626953125</LongitudeDegrees>
            </Position>
            <AltitudeMeters>620</AltitudeMeters>
            <DistanceMeters>20734.62717277</DistanceMeters>
          </Trackpoint>
          <Trackpoint>
            <Time>2022-11-06T11:42:34.000Z</Time>
            <Position>
              <LatitudeDegrees>41.364461816847324371337890625</LatitudeDegrees>
              <LongitudeDegrees>-1.65796752087771892547607421875</LongitudeDegrees>
            </Position>
            <AltitudeMeters>620.5999755859375</AltitudeMeters>
            <DistanceMeters>20736.437674841</DistanceMeters>
          </Trackpoint>
          <Trackpoint>
            <Time>2022-11-06T11:42:37.000Z</Time>
            <Position>
              <LatitudeDegrees>41.36442015878856182098388671875</LatitudeDegrees>
              <LongitudeDegrees>-1.65791521780192852020263671875</LongitudeDegrees>
            </Position>
            <AltitudeMeters>621.79998779296875</AltitudeMeters>
            <DistanceMeters>20742.80800949</DistanceMeters>
          </Trackpoint>
          <Trackpoint>
            <Time>2022-11-06T11:42:38.000Z</Time>
            <Position>
              <LatitudeDegrees>41.36440180242061614990234375</LatitudeDegrees>
              <LongitudeDegrees>-1.657898537814617156982421875</LongitudeDegrees>
            </Position>
            <AltitudeMeters>622</AltitudeMeters>
            <DistanceMeters>20745.282356238</DistanceMeters>
          </Trackpoint>
          <Trackpoint>
            <Time>2022-11-06T11:42:39.000Z</Time>
            <Position>
              <LatitudeDegrees>41.36438160203397274017333984375</LatitudeDegrees>
              <LongitudeDegrees>-1.65788210928440093994140625</LongitudeDegrees>
            </Position>
            <AltitudeMeters>622.20001220703125</AltitudeMeters>
            <DistanceMeters>20747.915813795</DistanceMeters>
          </Trackpoint>
          <Trackpoint>
            <Time>2022-11-06T11:42:41.000Z</Time>
            <Position>
              <LatitudeDegrees>41.36434941552579402923583984375</LatitudeDegrees>
              <LongitudeDegrees>-1.6578635014593601226806640625</LongitudeDegrees>
            </Position>
            <AltitudeMeters>622.5999755859375</AltitudeMeters>
            <DistanceMeters>20751.82116898</DistanceMeters>
          </Trackpoint>
          <Trackpoint>
            <Time>2022-11-06T11:42:42.000Z</Time>
            <Position>
              <LatitudeDegrees>41.36433198116719722747802734375</LatitudeDegrees>
              <LongitudeDegrees>-1.65785805322229862213134765625</LongitudeDegrees>
            </Position>
            <AltitudeMeters>623</AltitudeMeters>
            <DistanceMeters>20753.814466156</DistanceMeters>
          </Trackpoint>
          <Trackpoint>
            <Time>2022-11-06T11:42:43.000Z</Time>
            <Position>
              <LatitudeDegrees>41.36431639082729816436767578125</LatitudeDegrees>
              <LongitudeDegrees>-1.65785402990877628326416015625</LongitudeDegrees>
            </Position>
            <AltitudeMeters>623.4000244140625</AltitudeMeters>
            <DistanceMeters>20755.579509038</DistanceMeters>
          </Trackpoint>
          <Trackpoint>
            <Time>2022-11-06T11:42:44.000Z</Time>
            <Position>
              <LatitudeDegrees>41.36429878883063793182373046875</LatitudeDegrees>
              <LongitudeDegrees>-1.6578521020710468292236328125</LongitudeDegrees>
            </Position>
            <AltitudeMeters>623.79998779296875</AltitudeMeters>
            <DistanceMeters>20757.545436991</DistanceMeters>
          </Trackpoint>
          <Trackpoint>
            <Time>2022-11-06T11:42:45.000Z</Time>
            <Position>
              <LatitudeDegrees>41.36428168974816799163818359375</LatitudeDegrees>
              <LongitudeDegrees>-1.65784983895719051361083984375</LongitudeDegrees>
            </Position>
            <AltitudeMeters>624.20001220703125</AltitudeMeters>
            <DistanceMeters>20759.46017223</DistanceMeters>
          </Trackpoint>
          <Trackpoint>
            <Time>2022-11-06T11:42:46.000Z</Time>
            <Position>
              <LatitudeDegrees>41.3642698712646961212158203125</LatitudeDegrees>
              <LongitudeDegrees>-1.65784816257655620574951171875</LongitudeDegrees>
            </Position>
            <AltitudeMeters>624.4000244140625</AltitudeMeters>
            <DistanceMeters>20760.783741205</DistanceMeters>
          </Trackpoint>
          <Trackpoint>
            <Time>2022-11-06T11:42:47.000Z</Time>
            <Position>
              <LatitudeDegrees>41.36425972916185855865478515625</LatitudeDegrees>
              <LongitudeDegrees>-1.65784665383398532867431640625</LongitudeDegrees>
            </Position>
            <AltitudeMeters>624.5999755859375</AltitudeMeters>
            <DistanceMeters>20761.924061777</DistanceMeters>
          </Trackpoint>
          <Trackpoint>
            <Time>2022-11-06T11:42:48.000Z</Time>
            <Position>
              <LatitudeDegrees>41.36424615047872066497802734375</LatitudeDegrees>
              <LongitudeDegrees>-1.65784321725368499755859375</LongitudeDegrees>
            </Position>
            <AltitudeMeters>625</AltitudeMeters>
            <DistanceMeters>20763.462203523</DistanceMeters>
          </Trackpoint>
          <Trackpoint>
            <Time>2022-11-06T11:42:49.000Z</Time>
            <Position>
              <LatitudeDegrees>41.3642286323010921478271484375</LatitudeDegrees>
              <LongitudeDegrees>-1.6578390263020992279052734375</LongitudeDegrees>
            </Position>
            <AltitudeMeters>625.4000244140625</AltitudeMeters>
            <DistanceMeters>20765.446419572</DistanceMeters>
          </Trackpoint>
          <Trackpoint>
            <Time>2022-11-06T11:42:50.000Z</Time>
            <Position>
              <LatitudeDegrees>41.36421136558055877685546875</LatitudeDegrees>
              <LongitudeDegrees>-1.6578316502273082733154296875</LongitudeDegrees>
            </Position>
            <AltitudeMeters>625.79998779296875</AltitudeMeters>
            <DistanceMeters>20767.466715231</DistanceMeters>
          </Trackpoint>
          <Trackpoint>
            <Time>2022-11-06T11:42:51.000Z</Time>
            <Position>
              <LatitudeDegrees>41.3641957752406597137451171875</LatitudeDegrees>
              <LongitudeDegrees>-1.657822765409946441650390625</LongitudeDegrees>
            </Position>
            <AltitudeMeters>626</AltitudeMeters>
            <DistanceMeters>20769.352941654</DistanceMeters>
          </Trackpoint>
          <Trackpoint>
            <Time>2022-11-06T11:42:52.000Z</Time>
            <Position>
              <LatitudeDegrees>41.36418160982429981231689453125</LatitudeDegrees>
              <LongitudeDegrees>-1.6578185744583606719970703125</LongitudeDegrees>
            </Position>
            <AltitudeMeters>626</AltitudeMeters>
            <DistanceMeters>20770.965598473</DistanceMeters>
          </Trackpoint>
          <Trackpoint>
            <Time>2022-11-06T11:42:53.000Z</Time>
            <Position>
              <LatitudeDegrees>41.3641650974750518798828125</LatitudeDegrees>
              <LongitudeDegrees>-1.65781362913548946380615234375</LongitudeDegrees>
            </Position>
            <AltitudeMeters>626.20001220703125</AltitudeMeters>
            <DistanceMeters>20772.849429687</DistanceMeters>
          </Trackpoint>
          <Trackpoint>
            <Time>2022-11-06T11:42:54.000Z</Time>
            <Position>
              <LatitudeDegrees>41.3641572184860706329345703125</LatitudeDegrees>
              <LongitudeDegrees>-1.65781010873615741729736328125</LongitudeDegrees>
            </Position>
            <AltitudeMeters>626.5999755859375</AltitudeMeters>
            <DistanceMeters>20773.775635529</DistanceMeters>
          </Trackpoint>
          <Trackpoint>
            <Time>2022-11-06T11:42:55.000Z</Time>
            <Position>
              <LatitudeDegrees>41.3641468249261379241943359375</LatitudeDegrees>
              <LongitudeDegrees>-1.6578068397939205169677734375</LongitudeDegrees>
            </Position>
            <AltitudeMeters>627</AltitudeMeters>
            <DistanceMeters>20774.962518812</DistanceMeters>
          </Trackpoint>
          <Trackpoint>
            <Time>2022-11-06T11:42:56.000Z</Time>
            <Position>
              <LatitudeDegrees>41.36413416825234889984130859375</LatitudeDegrees>
              <LongitudeDegrees>-1.65780608542263507843017578125</LongitudeDegrees>
            </Position>
            <AltitudeMeters>627.4000244140625</AltitudeMeters>
            <DistanceMeters>20776.37519248</DistanceMeters>
          </Trackpoint>
          <Trackpoint>
            <Time>2022-11-06T11:42:57.000Z</Time>
            <Position>
              <LatitudeDegrees>41.3641193322837352752685546875</LatitudeDegrees>
              <LongitudeDegrees>-1.65780021809041500091552734375</LongitudeDegrees>
            </Position>
            <AltitudeMeters>627.5999755859375</AltitudeMeters>
            <DistanceMeters>20778.096199474</DistanceMeters>
          </Trackpoint>
          <Trackpoint>
            <Time>2022-11-06T11:42:58.000Z</Time>
            <Position>
              <LatitudeDegrees>41.3641062565147876739501953125</LatitudeDegrees>
              <LongitudeDegrees>-1.6577910818159580230712890625</LongitudeDegrees>
            </Position>
            <AltitudeMeters>627.5999755859375</AltitudeMeters>
            <DistanceMeters>20779.736614903</DistanceMeters>
          </Trackpoint>
          <Trackpoint>
            <Time>2022-11-06T11:42:59.000Z</Time>
            <Position>
              <LatitudeDegrees>41.36409443803131580352783203125</LatitudeDegrees>
              <LongitudeDegrees>-1.65778219699859619140625</LongitudeDegrees>
            </Position>
            <AltitudeMeters>627.5999755859375</AltitudeMeters>
            <DistanceMeters>20781.245117228</DistanceMeters>
          </Trackpoint>
          <Trackpoint>
            <Time>2022-11-06T11:43:00.000Z</Time>
            <Position>
              <LatitudeDegrees>41.36408605612814426422119140625</LatitudeDegrees>
              <LongitudeDegrees>-1.657771132886409759521484375</LongitudeDegrees>
            </Position>
            <AltitudeMeters>627.79998779296875</AltitudeMeters>
            <DistanceMeters>20782.561846007</DistanceMeters>
          </Trackpoint>
          <Trackpoint>
            <Time>2022-11-06T11:43:01.000Z</Time>
            <Position>
              <LatitudeDegrees>41.3640770874917507171630859375</LatitudeDegrees>
              <LongitudeDegrees>-1.6577595658600330352783203125</LongitudeDegrees>
            </Position>
            <AltitudeMeters>628</AltitudeMeters>
            <DistanceMeters>20783.951966994</DistanceMeters>
          </Trackpoint>
          <Trackpoint>
            <Time>2022-11-06T11:43:02.000Z</Time>
            <Position>
              <LatitudeDegrees>41.3640631735324859619140625</LatitudeDegrees>
              <LongitudeDegrees>-1.6577446460723876953125</LongitudeDegrees>
            </Position>
            <AltitudeMeters>628</AltitudeMeters>
            <DistanceMeters>20785.940728791</DistanceMeters>
          </Trackpoint>
          <Trackpoint>
            <Time>2022-11-06T11:43:03.000Z</Time>
            <Position>
              <LatitudeDegrees>41.3640532828867435455322265625</LatitudeDegrees>
              <LongitudeDegrees>-1.6577317379415035247802734375</LongitudeDegrees>
            </Position>
            <AltitudeMeters>628.20001220703125</AltitudeMeters>
            <DistanceMeters>20787.484730145</DistanceMeters>
          </Trackpoint>
          <Trackpoint>
            <Time>2022-11-06T11:43:04.000Z</Time>
            <Position>
              <LatitudeDegrees>41.3640425540506839752197265625</LatitudeDegrees>
              <LongitudeDegrees>-1.6577176563441753387451171875</LongitudeDegrees>
            </Position>
            <AltitudeMeters>628.4000244140625</AltitudeMeters>
            <DistanceMeters>20789.160544506</DistanceMeters>
          </Trackpoint>
          <Trackpoint>
            <Time>2022-11-06T11:43:05.000Z</Time>
            <Position>
              <LatitudeDegrees>41.36403174139559268951416015625</LatitudeDegrees>
              <LongitudeDegrees>-1.65770265273749828338623046875</LongitudeDegrees>
            </Position>
            <AltitudeMeters>628.79998779296875</AltitudeMeters>
            <DistanceMeters>20790.897221083</DistanceMeters>
          </Trackpoint>
          <Trackpoint>
            <Time>2022-11-06T11:43:06.000Z</Time>
            <Position>
              <LatitudeDegrees>41.36401958763599395751953125</LatitudeDegrees>
              <LongitudeDegrees>-1.65768723003566265106201171875</LongitudeDegrees>
            </Position>
            <AltitudeMeters>629.20001220703125</AltitudeMeters>
            <DistanceMeters>20792.766616596</DistanceMeters>
          </Trackpoint>
          <Trackpoint>
            <Time>2022-11-06T11:43:07.000Z</Time>
            <Position>
              <LatitudeDegrees>41.364008523523807525634765625</LatitudeDegrees>
              <LongitudeDegrees>-1.65767147205770015716552734375</LongitudeDegrees>
            </Position>
            <AltitudeMeters>629.5999755859375</AltitudeMeters>
            <DistanceMeters>20794.569621732</DistanceMeters>
          </Trackpoint>
          <Trackpoint>
            <Time>2022-11-06T11:43:08.000Z</Time>
            <Position>
              <LatitudeDegrees>41.363999135792255401611328125</LatitudeDegrees>
              <LongitudeDegrees>-1.6576552949845790863037109375</LongitudeDegrees>
            </Position>
            <AltitudeMeters>629.79998779296875</AltitudeMeters>
            <DistanceMeters>20796.274815156</DistanceMeters>
          </Trackpoint>
          <Trackpoint>
            <Time>2022-11-06T11:43:09.000Z</Time>
            <Position>
              <LatitudeDegrees>41.36399100534617900848388671875</LatitudeDegrees>
              <LongitudeDegrees>-1.6576368547976016998291015625</LongitudeDegrees>
            </Position>
            <AltitudeMeters>630.4000244140625</AltitudeMeters>
            <DistanceMeters>20798.057674351</DistanceMeters>
          </Trackpoint>
          <Trackpoint>
            <Time>2022-11-06T11:43:10.000Z</Time>
            <Position>
              <LatitudeDegrees>41.3639858923852443695068359375</LatitudeDegrees>
              <LongitudeDegrees>-1.65762570686638355255126953125</LongitudeDegrees>
            </Position>
            <AltitudeMeters>630.79998779296875</AltitudeMeters>
            <DistanceMeters>20799.149448178</DistanceMeters>
          </Trackpoint>
          <Trackpoint>
            <Time>2022-11-06T11:43:11.000Z</Time>
            <Position>
              <LatitudeDegrees>41.36397675611078739166259765625</LatitudeDegrees>
              <LongitudeDegrees>-1.65761196054518222808837890625</LongitudeDegrees>
            </Position>
            <AltitudeMeters>631.20001220703125</AltitudeMeters>
            <DistanceMeters>20800.684651732</DistanceMeters>
          </Trackpoint>
          <Trackpoint>
            <Time>2022-11-06T11:43:12.000Z</Time>
            <Position>
              <LatitudeDegrees>41.3639687933027744293212890625</LatitudeDegrees>
              <LongitudeDegrees>-1.6575959511101245880126953125</LongitudeDegrees>
            </Position>
            <AltitudeMeters>631.4000244140625</AltitudeMeters>
            <DistanceMeters>20802.286070388</DistanceMeters>
          </Trackpoint>
          <Trackpoint>
            <Time>2022-11-06T11:43:13.000Z</Time>
            <Position>
              <LatitudeDegrees>41.36395798064768314361572265625</LatitudeDegrees>
              <LongitudeDegrees>-1.6575811989605426788330078125</LongitudeDegrees>
            </Position>
            <AltitudeMeters>631.79998779296875</AltitudeMeters>
            <DistanceMeters>20804.007077382</DistanceMeters>
          </Trackpoint>
          <Trackpoint>
            <Time>2022-11-06T11:43:14.000Z</Time>
            <Position>
              <LatitudeDegrees>41.3639486767351627349853515625</LatitudeDegrees>
              <LongitudeDegrees>-1.6575684584677219390869140625</LongitudeDegrees>
            </Position>
            <AltitudeMeters>632</AltitudeMeters>
            <DistanceMeters>20805.494480733</DistanceMeters>
          </Trackpoint>
          <Trackpoint>
            <Time>2022-11-06T11:43:15.000Z</Time>
            <Position>
              <LatitudeDegrees>41.36394037865102291107177734375</LatitudeDegrees>
              <LongitudeDegrees>-1.6575560532510280609130859375</LongitudeDegrees>
            </Position>
            <AltitudeMeters>632</AltitudeMeters>
            <DistanceMeters>20806.88460172</DistanceMeters>
          </Trackpoint>
          <Trackpoint>
            <Time>2022-11-06T11:43:16.000Z</Time>
            <Position>
              <LatitudeDegrees>41.36393317021429538726806640625</LatitudeDegrees>
              <LongitudeDegrees>-1.657540798187255859375</LongitudeDegrees>
            </Position>
            <AltitudeMeters>632</AltitudeMeters>
            <DistanceMeters>20808.393104045</DistanceMeters>
          </Trackpoint>
          <Trackpoint>
            <Time>2022-11-06T11:43:17.000Z</Time>
            <Position>
              <LatitudeDegrees>41.36392646469175815582275390625</LatitudeDegrees>
              <LongitudeDegrees>-1.65752478875219821929931640625</LongitudeDegrees>
            </Position>
            <AltitudeMeters>632.20001220703125</AltitudeMeters>
            <DistanceMeters>20809.925363773</DistanceMeters>
          </Trackpoint>
          <Trackpoint>
            <Time>2022-11-06T11:43:18.000Z</Time>
            <Position>
              <LatitudeDegrees>41.36391657404601573944091796875</LatitudeDegrees>
              <LongitudeDegrees>-1.6575027443468570709228515625</LongitudeDegrees>
            </Position>
            <AltitudeMeters>632.20001220703125</AltitudeMeters>
            <DistanceMeters>20812.071369129</DistanceMeters>
          </Trackpoint>
          <Trackpoint>
            <Time>2022-11-06T11:43:19.000Z</Time>
            <Position>
              <LatitudeDegrees>41.3639054261147975921630859375</LatitudeDegrees>
              <LongitudeDegrees>-1.657473742961883544921875</LongitudeDegrees>
            </Position>
            <AltitudeMeters>632.20001220703125</AltitudeMeters>
            <DistanceMeters>20814.792520114</DistanceMeters>
          </Trackpoint>
          <Trackpoint>
            <Time>2022-11-06T11:43:20.000Z</Time>
            <Position>
              <LatitudeDegrees>41.3638930208981037139892578125</LatitudeDegrees>
              <LongitudeDegrees>-1.65744231082499027252197265625</LongitudeDegrees>
            </Position>
            <AltitudeMeters>632</AltitudeMeters>
            <DistanceMeters>20817.759728319</DistanceMeters>
          </Trackpoint>
          <Trackpoint>
            <Time>2022-11-06T11:43:21.000Z</Time>
            <Position>
              <LatitudeDegrees>41.36388011276721954345703125</LatitudeDegrees>
              <LongitudeDegrees>-1.65740693919360637664794921875</LongitudeDegrees>
            </Position>
            <AltitudeMeters>631.79998779296875</AltitudeMeters>
            <DistanceMeters>20821.046059317</DistanceMeters>
          </Trackpoint>
          <Trackpoint>
            <Time>2022-11-06T11:43:22.000Z</Time>
            <Position>
              <LatitudeDegrees>41.3638648577034473419189453125</LatitudeDegrees>
              <LongitudeDegrees>-1.65736586786806583404541015625</LongitudeDegrees>
            </Position>
            <AltitudeMeters>631.79998779296875</AltitudeMeters>
            <DistanceMeters>20824.873171021</DistanceMeters>
          </Trackpoint>
          <Trackpoint>
            <Time>2022-11-06T11:43:23.000Z</Time>
            <Position>
              <LatitudeDegrees>41.3638470880687236785888671875</LatitudeDegrees>
              <LongitudeDegrees>-1.6573159955441951751708984375</LongitudeDegrees>
            </Position>
            <AltitudeMeters>631.5999755859375</AltitudeMeters>
            <DistanceMeters>20829.485638918</DistanceMeters>
          </Trackpoint>
          <Trackpoint>
            <Time>2022-11-06T11:43:24.000Z</Time>
            <Position>
              <LatitudeDegrees>41.36382487602531909942626953125</LatitudeDegrees>
              <LongitudeDegrees>-1.65725958533585071563720703125</LongitudeDegrees>
            </Position>
            <AltitudeMeters>631.4000244140625</AltitudeMeters>
            <DistanceMeters>20834.807134923</DistanceMeters>
          </Trackpoint>
          <Trackpoint>
            <Time>2022-11-06T11:43:25.000Z</Time>
            <Position>
              <LatitudeDegrees>41.36379696428775787353515625</LatitudeDegrees>
              <LongitudeDegrees>-1.65719169192016124725341796875</LongitudeDegrees>
            </Position>
            <AltitudeMeters>631</AltitudeMeters>
            <DistanceMeters>20841.273142496</DistanceMeters>
          </Trackpoint>
          <Trackpoint>
            <Time>2022-11-06T11:43:26.000Z</Time>
            <Position>
              <LatitudeDegrees>41.36375497095286846160888671875</LatitudeDegrees>
              <LongitudeDegrees>-1.65709630586206912994384765625</LongitudeDegrees>
            </Position>
            <AltitudeMeters>630.4000244140625</AltitudeMeters>
            <DistanceMeters>20850.510794925</DistanceMeters>
          </Trackpoint>
          <Trackpoint>
            <Time>2022-11-06T11:43:27.000Z</Time>
            <Position>
              <LatitudeDegrees>41.36372144334018230438232421875</LatitudeDegrees>
              <LongitudeDegrees>-1.65701986290514469146728515625</LongitudeDegrees>
            </Position>
            <AltitudeMeters>629.4000244140625</AltitudeMeters>
            <DistanceMeters>20857.907023903</DistanceMeters>
          </Trackpoint>
          <Trackpoint>
            <Time>2022-11-06T11:43:28.000Z</Time>
            <Position>
              <LatitudeDegrees>41.36367903091013431549072265625</LatitudeDegrees>
              <LongitudeDegrees>-1.65691517293453216552734375</LongitudeDegrees>
            </Position>
            <AltitudeMeters>628.79998779296875</AltitudeMeters>
            <DistanceMeters>20867.845382728</DistanceMeters>
          </Trackpoint>
          <Trackpoint>
            <Time>2022-11-06T11:43:29.000Z</Time>
            <Position>
              <LatitudeDegrees>41.36363963596522808074951171875</LatitudeDegrees>
              <LongitudeDegrees>-1.65680796839296817779541015625</LongitudeDegrees>
            </Position>
            <AltitudeMeters>626.79998779296875</AltitudeMeters>
            <DistanceMeters>20877.816397804</DistanceMeters>
          </Trackpoint>
          <Trackpoint>
            <Time>2022-11-06T11:43:30.000Z</Time>
            <Position>
              <LatitudeDegrees>41.36360116302967071533203125</LatitudeDegrees>
              <LongitudeDegrees>-1.65670621208846569061279296875</LongitudeDegrees>
            </Position>
            <AltitudeMeters>626</AltitudeMeters>
            <DistanceMeters>20887.334261372</DistanceMeters>
          </Trackpoint>
          <Trackpoint>
            <Time>2022-11-06T11:43:31.000Z</Time>
            <Position>
              <LatitudeDegrees>41.363567300140857696533203125</LatitudeDegrees>
              <LongitudeDegrees>-1.6566109098494052886962890625</LongitudeDegrees>
            </Position>
            <AltitudeMeters>625.4000244140625</AltitudeMeters>
            <DistanceMeters>20896.14257658</DistanceMeters>
          </Trackpoint>
          <Trackpoint>
            <Time>2022-11-06T11:43:32.000Z</Time>
            <Position>
              <LatitudeDegrees>41.36353352107107639312744140625</LatitudeDegrees>
              <LongitudeDegrees>-1.6565309464931488037109375</LongitudeDegrees>
            </Position>
            <AltitudeMeters>625.20001220703125</AltitudeMeters>
            <DistanceMeters>20903.80741039</DistanceMeters>
          </Trackpoint>
          <Trackpoint>
            <Time>2022-11-06T11:43:33.000Z</Time>
            <Position>
              <LatitudeDegrees>41.36350334621965885162353515625</LatitudeDegrees>
              <LongitudeDegrees>-1.6564690880477428436279296875</LongitudeDegrees>
            </Position>
            <AltitudeMeters>625.20001220703125</AltitudeMeters>
            <DistanceMeters>20909.970242655</DistanceMeters>
          </Trackpoint>
          <Trackpoint>
            <Time>2022-11-06T11:43:34.000Z</Time>
            <Position>
              <LatitudeDegrees>41.3634759373962879180908203125</LatitudeDegrees>
              <LongitudeDegrees>-1.656421981751918792724609375</LongitudeDegrees>
            </Position>
            <AltitudeMeters>625.20001220703125</AltitudeMeters>
            <DistanceMeters>20914.948953315</DistanceMeters>
          </Trackpoint>
          <Trackpoint>
            <Time>2022-11-06T11:43:35.000Z</Time>
            <Position>
              <LatitudeDegrees>41.363445259630680084228515625</LatitudeDegrees>
              <LongitudeDegrees>-1.65637982077896595001220703125</LongitudeDegrees>
            </Position>
            <AltitudeMeters>626.20001220703125</AltitudeMeters>
            <DistanceMeters>20919.854578018</DistanceMeters>
          </Trackpoint>
          <Trackpoint>
            <Time>2022-11-06T11:43:36.000Z</Time>
            <Position>
              <LatitudeDegrees>41.36342279613018035888671875</LatitudeDegrees>
              <LongitudeDegrees>-1.65636171586811542510986328125</LongitudeDegrees>
            </Position>
            <AltitudeMeters>627.20001220703125</AltitudeMeters>
            <DistanceMeters>20922.77732541</DistanceMeters>
          </Trackpoint>
          <Trackpoint>
            <Time>2022-11-06T11:43:37.000Z</Time>
            <Position>
              <LatitudeDegrees>41.3633988238871097564697265625</LatitudeDegrees>
              <LongitudeDegrees>-1.656336151063442230224609375</LongitudeDegrees>
            </Position>
            <AltitudeMeters>628.20001220703125</AltitudeMeters>
            <DistanceMeters>20926.195646477</DistanceMeters>
          </Trackpoint>
          <Trackpoint>
            <Time>2022-11-06T11:43:38.000Z</Time>
            <Position>
              <LatitudeDegrees>41.3633738458156585693359375</LatitudeDegrees>
              <LongitudeDegrees>-1.65631771087646484375</LongitudeDegrees>
            </Position>
            <AltitudeMeters>629</AltitudeMeters>
            <DistanceMeters>20929.373007877</DistanceMeters>
          </Trackpoint>
          <Trackpoint>
            <Time>2022-11-06T11:43:39.000Z</Time>
            <Position>
              <LatitudeDegrees>41.3633604347705841064453125</LatitudeDegrees>
              <LongitudeDegrees>-1.65630270726978778839111328125</LongitudeDegrees>
            </Position>
            <AltitudeMeters>629.79998779296875</AltitudeMeters>
            <DistanceMeters>20931.32279304</DistanceMeters>
          </Trackpoint>
          <Trackpoint>
            <Time>2022-11-06T11:43:40.000Z</Time>
            <Position>
              <LatitudeDegrees>41.3633455149829387664794921875</LatitudeDegrees>
              <LongitudeDegrees>-1.65628217160701751708984375</LongitudeDegrees>
            </Position>
            <AltitudeMeters>630.20001220703125</AltitudeMeters>
            <DistanceMeters>20933.709836868</DistanceMeters>
          </Trackpoint>
          <Trackpoint>
            <Time>2022-11-06T11:43:41.000Z</Time>
            <Position>
              <LatitudeDegrees>41.36332917027175426483154296875</LatitudeDegrees>
              <LongitudeDegrees>-1.6562635637819766998291015625</LongitudeDegrees>
            </Position>
            <AltitudeMeters>630.4000244140625</AltitudeMeters>
            <DistanceMeters>20936.102548398</DistanceMeters>
          </Trackpoint>
          <Trackpoint>
            <Time>2022-11-06T11:43:42.000Z</Time>
            <Position>
              <LatitudeDegrees>41.36330704204738140106201171875</LatitudeDegrees>
              <LongitudeDegrees>-1.65623296983540058135986328125</LongitudeDegrees>
            </Position>
            <AltitudeMeters>630.4000244140625</AltitudeMeters>
            <DistanceMeters>20939.651767557</DistanceMeters>
          </Trackpoint>
          <Trackpoint>
            <Time>2022-11-06T11:43:43.000Z</Time>
            <Position>
              <LatitudeDegrees>41.36327669955790042877197265625</LatitudeDegrees>
              <LongitudeDegrees>-1.65618569590151309967041015625</LongitudeDegrees>
            </Position>
            <AltitudeMeters>630.20001220703125</AltitudeMeters>
            <DistanceMeters>20944.848781954</DistanceMeters>
          </Trackpoint>
          <Trackpoint>
            <Time>2022-11-06T11:43:45.000Z</Time>
            <Position>
              <LatitudeDegrees>41.3631865940988063812255859375</LatitudeDegrees>
              <LongitudeDegrees>-1.656063236296176910400390625</LongitudeDegrees>
            </Position>
            <AltitudeMeters>629</AltitudeMeters>
            <DistanceMeters>20959.174827375</DistanceMeters>
          </Trackpoint>
          <Trackpoint>
            <Time>2022-11-06T11:43:46.000Z</Time>
            <Position>
              <LatitudeDegrees>41.3631228916347026824951171875</LatitudeDegrees>
              <LongitudeDegrees>-1.6560077480971813201904296875</LongitudeDegrees>
            </Position>
            <AltitudeMeters>627.79998779296875</AltitudeMeters>
            <DistanceMeters>20967.645540889</DistanceMeters>
          </Trackpoint>
          <Trackpoint>
            <Time>2022-11-06T11:43:47.000Z</Time>
            <Position>
              <LatitudeDegrees>41.3630544953048229217529296875</LatitudeDegrees>
              <LongitudeDegrees>-1.65596843697130680084228515625</LongitudeDegrees>
            </Position>
            <AltitudeMeters>627</AltitudeMeters>
            <DistanceMeters>20975.936315394</DistanceMeters>
          </Trackpoint>
          <Trackpoint>
            <Time>2022-11-06T11:43:48.000Z</Time>
            <Position>
              <LatitudeDegrees>41.36299096047878265380859375</LatitudeDegrees>
              <LongitudeDegrees>-1.6559299640357494354248046875</LongitudeDegrees>
            </Position>
            <AltitudeMeters>626.5999755859375</AltitudeMeters>
            <DistanceMeters>20983.70413174</DistanceMeters>
          </Trackpoint>
          <Trackpoint>
            <Time>2022-11-06T11:43:50.000Z</Time>
            <Position>
              <LatitudeDegrees>41.36287235654890537261962890625</LatitudeDegrees>
              <LongitudeDegrees>-1.6558362543582916259765625</LongitudeDegrees>
            </Position>
            <AltitudeMeters>625.79998779296875</AltitudeMeters>
            <DistanceMeters>20999.051460953</DistanceMeters>
          </Trackpoint>
          <Trackpoint>
            <Time>2022-11-06T11:43:51.000Z</Time>
            <Position>
              <LatitudeDegrees>41.3628369010984897613525390625</LatitudeDegrees>
              <LongitudeDegrees>-1.6558022238314151763916015625</LongitudeDegrees>
            </Position>
            <AltitudeMeters>626</AltitudeMeters>
            <DistanceMeters>21003.915492232</DistanceMeters>
          </Trackpoint>
          <Trackpoint>
            <Time>2022-11-06T11:43:52.000Z</Time>
            <Position>
              <LatitudeDegrees>41.362798847258090972900390625</LatitudeDegrees>
              <LongitudeDegrees>-1.6557611525058746337890625</LongitudeDegrees>
            </Position>
            <AltitudeMeters>626.20001220703125</AltitudeMeters>
            <DistanceMeters>21009.366912375</DistanceMeters>
          </Trackpoint>
          <Trackpoint>
            <Time>2022-11-06T11:43:53.000Z</Time>
            <Position>
              <LatitudeDegrees>41.36277009733021259307861328125</LatitudeDegrees>
              <LongitudeDegrees>-1.65572670288383960723876953125</LongitudeDegrees>
            </Position>
            <AltitudeMeters>626.79998779296875</AltitudeMeters>
            <DistanceMeters>21013.671528138</DistanceMeters>
          </Trackpoint>
          <Trackpoint>
            <Time>2022-11-06T11:43:54.000Z</Time>
            <Position>
              <LatitudeDegrees>41.36274595744907855987548828125</LatitudeDegrees>
              <LongitudeDegrees>-1.65569745004177093505859375</LongitudeDegrees>
            </Position>
            <AltitudeMeters>627.20001220703125</AltitudeMeters>
            <DistanceMeters>21017.302493796</DistanceMeters>
          </Trackpoint>
          <Trackpoint>
            <Time>2022-11-06T11:43:55.000Z</Time>
            <Position>
              <LatitudeDegrees>41.3627232424914836883544921875</LatitudeDegrees>
              <LongitudeDegrees>-1.65566551499068737030029296875</LongitudeDegrees>
            </Position>
            <AltitudeMeters>627.4000244140625</AltitudeMeters>
            <DistanceMeters>21020.977952183</DistanceMeters>
          </Trackpoint>
          <Trackpoint>
            <Time>2022-11-06T11:43:56.000Z</Time>
            <Position>
              <LatitudeDegrees>41.36270555667579174041748046875</LatitudeDegrees>
              <LongitudeDegrees>-1.65563718415796756744384765625</LongitudeDegrees>
            </Position>
            <AltitudeMeters>627.79998779296875</AltitudeMeters>
            <DistanceMeters>21024.054235674</DistanceMeters>
          </Trackpoint>
          <Trackpoint>
            <Time>2022-11-06T11:43:57.000Z</Time>
            <Position>
              <LatitudeDegrees>41.362690217792987823486328125</LatitudeDegrees>
              <LongitudeDegrees>-1.65561136789619922637939453125</LongitudeDegrees>
            </Position>
            <AltitudeMeters>628</AltitudeMeters>
            <DistanceMeters>21026.805090825</DistanceMeters>
          </Trackpoint>
          <Trackpoint>
            <Time>2022-11-06T11:43:58.000Z</Time>
            <Position>
              <LatitudeDegrees>41.36267588473856449127197265625</LatitudeDegrees>
              <LongitudeDegrees>-1.65558454580605030059814453125</LongitudeDegrees>
            </Position>
            <AltitudeMeters>628.20001220703125</AltitudeMeters>
            <DistanceMeters>21029.555945975</DistanceMeters>
          </Trackpoint>
          <Trackpoint>
            <Time>2022-11-06T11:43:59.000Z</Time>
            <Position>
              <LatitudeDegrees>41.3626630604267120361328125</LatitudeDegrees>
              <LongitudeDegrees>-1.6555547900497913360595703125</LongitudeDegrees>
            </Position>
            <AltitudeMeters>628.4000244140625</AltitudeMeters>
            <DistanceMeters>21032.422541441</DistanceMeters>
          </Trackpoint>
          <Trackpoint>
            <Time>2022-11-06T11:44:00.000Z</Time>
            <Position>
              <LatitudeDegrees>41.36265174485743045806884765625</LatitudeDegrees>
              <LongitudeDegrees>-1.65552042424678802490234375</LongitudeDegrees>
            </Position>
            <AltitudeMeters>628.5999755859375</AltitudeMeters>
            <DistanceMeters>21035.558423015</DistanceMeters>
          </Trackpoint>
          <Trackpoint>
            <Time>2022-11-06T11:44:01.000Z</Time>
            <Position>
              <LatitudeDegrees>41.36264168657362461090087890625</LatitudeDegrees>
              <LongitudeDegrees>-1.6554816998541355133056640625</LongitudeDegrees>
            </Position>
            <AltitudeMeters>628.5999755859375</AltitudeMeters>
            <DistanceMeters>21038.982023346</DistanceMeters>
          </Trackpoint>
          <Trackpoint>
            <Time>2022-11-06T11:44:07.000Z</Time>
            <Position>
              <LatitudeDegrees>41.3625445403158664703369140625</LatitudeDegrees>
              <LongitudeDegrees>-1.6551886685192584991455078125</LongitudeDegrees>
            </Position>
            <AltitudeMeters>628.20001220703125</AltitudeMeters>
            <DistanceMeters>21065.742463968</DistanceMeters>
          </Trackpoint>
          <Trackpoint>
            <Time>2022-11-06T11:44:08.000Z</Time>
            <Position>
              <LatitudeDegrees>41.3625190593302249908447265625</LatitudeDegrees>
              <LongitudeDegrees>-1.65512907318770885467529296875</LongitudeDegrees>
            </Position>
            <AltitudeMeters>628.20001220703125</AltitudeMeters>
            <DistanceMeters>21071.470927794</DistanceMeters>
          </Trackpoint>
          <Trackpoint>
            <Time>2022-11-06T11:44:11.000Z</Time>
            <Position>
              <LatitudeDegrees>41.36238704435527324676513671875</LatitudeDegrees>
              <LongitudeDegrees>-1.65498440153896808624267578125</LongitudeDegrees>
            </Position>
            <AltitudeMeters>627.4000244140625</AltitudeMeters>
            <DistanceMeters>21090.496215812</DistanceMeters>
          </Trackpoint>
          <Trackpoint>
            <Time>2022-11-06T11:44:12.000Z</Time>
            <Position>
              <LatitudeDegrees>41.3623165525496006011962890625</LatitudeDegrees>
              <LongitudeDegrees>-1.654945425689220428466796875</LongitudeDegrees>
            </Position>
            <AltitudeMeters>626.5999755859375</AltitudeMeters>
            <DistanceMeters>21098.990881248</DistanceMeters>
          </Trackpoint>
          <Trackpoint>
            <Time>2022-11-06T11:44:13.000Z</Time>
            <Position>
              <LatitudeDegrees>41.362232230603694915771484375</LatitudeDegrees>
              <LongitudeDegrees>-1.6549238003790378570556640625</LongitudeDegrees>
            </Position>
            <AltitudeMeters>626.20001220703125</AltitudeMeters>
            <DistanceMeters>21108.548981654</DistanceMeters>
          </Trackpoint>
          <Trackpoint>
            <Time>2022-11-06T11:44:14.000Z</Time>
            <Position>
              <LatitudeDegrees>41.36214145459234714508056640625</LatitudeDegrees>
              <LongitudeDegrees>-1.6549308411777019500732421875</LongitudeDegrees>
            </Position>
            <AltitudeMeters>625.79998779296875</AltitudeMeters>
            <DistanceMeters>21118.66966133</DistanceMeters>
          </Trackpoint>
          <Trackpoint>
            <Time>2022-11-06T11:44:15.000Z</Time>
            <Position>
              <LatitudeDegrees>41.362049840390682220458984375</LatitudeDegrees>
              <LongitudeDegrees>-1.654961518943309783935546875</LongitudeDegrees>
            </Position>
            <AltitudeMeters>625.4000244140625</AltitudeMeters>
            <DistanceMeters>21129.182897543</DistanceMeters>
          </Trackpoint>
          <Trackpoint>
            <Time>2022-11-06T11:44:16.000Z</Time>
            <Position>
              <LatitudeDegrees>41.36195437051355838775634765625</LatitudeDegrees>
              <LongitudeDegrees>-1.65500820614397525787353515625</LongitudeDegrees>
            </Position>
            <AltitudeMeters>625</AltitudeMeters>
            <DistanceMeters>21140.501851761</DistanceMeters>
          </Trackpoint>
          <Trackpoint>
            <Time>2022-11-06T11:44:17.000Z</Time>
            <Position>
              <LatitudeDegrees>41.36190039105713367462158203125</LatitudeDegrees>
              <LongitudeDegrees>-1.6550317592918872833251953125</LongitudeDegrees>
            </Position>
            <AltitudeMeters>624.4000244140625</AltitudeMeters>
            <DistanceMeters>21146.823807024</DistanceMeters>
          </Trackpoint>
          <Trackpoint>
            <Time>2022-11-06T11:44:18.000Z</Time>
            <Position>
              <LatitudeDegrees>41.36184071190655231475830078125</LatitudeDegrees>
              <LongitudeDegrees>-1.65503921918570995330810546875</LongitudeDegrees>
            </Position>
            <AltitudeMeters>623.79998779296875</AltitudeMeters>
            <DistanceMeters>21153.495332096</DistanceMeters>
          </Trackpoint>
          <Trackpoint>
            <Time>2022-11-06T11:44:19.000Z</Time>
            <Position>
              <LatitudeDegrees>41.361786313354969024658203125</LatitudeDegrees>
              <LongitudeDegrees>-1.65502429939806461334228515625</LongitudeDegrees>
            </Position>
            <AltitudeMeters>623.4000244140625</AltitudeMeters>
            <DistanceMeters>21159.677183236</DistanceMeters>
          </Trackpoint>
          <Trackpoint>
            <Time>2022-11-06T11:44:20.000Z</Time>
            <Position>
              <LatitudeDegrees>41.36173359118402004241943359375</LatitudeDegrees>
              <LongitudeDegrees>-1.65499412454664707183837890625</LongitudeDegrees>
            </Position>
            <AltitudeMeters>623.4000244140625</AltitudeMeters>
            <DistanceMeters>21166.064505474</DistanceMeters>
          </Trackpoint>
          <Trackpoint>
            <Time>2022-11-06T11:44:21.000Z</Time>
            <Position>
              <LatitudeDegrees>41.361682713031768798828125</LatitudeDegrees>
              <LongitudeDegrees>-1.65495992638170719146728515625</LongitudeDegrees>
            </Position>
            <AltitudeMeters>623.20001220703125</AltitudeMeters>
            <DistanceMeters>21172.407138252</DistanceMeters>
          </Trackpoint>
          <Trackpoint>
            <Time>2022-11-06T11:44:22.000Z</Time>
            <Position>
              <LatitudeDegrees>41.36163468472659587860107421875</LatitudeDegrees>
              <LongitudeDegrees>-1.65492623113095760345458984375</LongitudeDegrees>
            </Position>
            <AltitudeMeters>623.20001220703125</AltitudeMeters>
            <DistanceMeters>21178.448625568</DistanceMeters>
          </Trackpoint>
          <Trackpoint>
            <Time>2022-11-06T11:44:23.000Z</Time>
            <Position>
              <LatitudeDegrees>41.3615863211452960968017578125</LatitudeDegrees>
              <LongitudeDegrees>-1.65489287115633487701416015625</LongitudeDegrees>
            </Position>
            <AltitudeMeters>623.20001220703125</AltitudeMeters>
            <DistanceMeters>21184.510257448</DistanceMeters>
          </Trackpoint>
          <Trackpoint>
            <Time>2022-11-06T11:44:24.000Z</Time>
            <Position>
              <LatitudeDegrees>41.3615405559539794921875</LatitudeDegrees>
              <LongitudeDegrees>-1.65486454032361507415771484375</LongitudeDegrees>
            </Position>
            <AltitudeMeters>623</AltitudeMeters>
            <DistanceMeters>21190.127292884</DistanceMeters>
          </Trackpoint>
          <Trackpoint>
            <Time>2022-11-06T11:44:25.000Z</Time>
            <Position>
              <LatitudeDegrees>41.36149504221975803375244140625</LatitudeDegrees>
              <LongitudeDegrees>-1.6548372991383075714111328125</LongitudeDegrees>
            </Position>
            <AltitudeMeters>623</AltitudeMeters>
            <DistanceMeters>21195.67965103</DistanceMeters>
          </Trackpoint>
          <Trackpoint>
            <Time>2022-11-06T11:44:26.000Z</Time>
            <Position>
              <LatitudeDegrees>41.3614481873810291290283203125</LatitudeDegrees>
              <LongitudeDegrees>-1.65481366217136383056640625</LongitudeDegrees>
            </Position>
            <AltitudeMeters>623</AltitudeMeters>
            <DistanceMeters>21201.256351065</DistanceMeters>
          </Trackpoint>
          <Trackpoint>
            <Time>2022-11-06T11:44:27.000Z</Time>
            <Position>
              <LatitudeDegrees>41.361401081085205078125</LatitudeDegrees>
              <LongitudeDegrees>-1.65479966439306735992431640625</LongitudeDegrees>
            </Position>
            <AltitudeMeters>623</AltitudeMeters>
            <DistanceMeters>21206.628513042</DistanceMeters>
          </Trackpoint>
          <Trackpoint>
            <Time>2022-11-06T11:44:28.000Z</Time>
            <Position>
              <LatitudeDegrees>41.361353136599063873291015625</LatitudeDegrees>
              <LongitudeDegrees>-1.65478692390024662017822265625</LongitudeDegrees>
            </Position>
            <AltitudeMeters>623</AltitudeMeters>
            <DistanceMeters>21212.069155521</DistanceMeters>
          </Trackpoint>
          <Trackpoint>
            <Time>2022-11-06T11:44:29.000Z</Time>
            <Position>
              <LatitudeDegrees>41.36130988597869873046875</LatitudeDegrees>
              <LongitudeDegrees>-1.654783822596073150634765625</LongitudeDegrees>
            </Position>
            <AltitudeMeters>623</AltitudeMeters>
            <DistanceMeters>21216.889361605</DistanceMeters>
          </Trackpoint>
          <Trackpoint>
            <Time>2022-11-06T11:44:30.000Z</Time>
            <Position>
              <LatitudeDegrees>41.36126085184514522552490234375</LatitudeDegrees>
              <LongitudeDegrees>-1.6547834873199462890625</LongitudeDegrees>
            </Position>
            <AltitudeMeters>623.20001220703125</AltitudeMeters>
            <DistanceMeters>21222.346576289</DistanceMeters>
          </Trackpoint>
          <Trackpoint>
            <Time>2022-11-06T11:44:31.000Z</Time>
            <Position>
              <LatitudeDegrees>41.3612118177115917205810546875</LatitudeDegrees>
              <LongitudeDegrees>-1.65478960610926151275634765625</LongitudeDegrees>
            </Position>
            <AltitudeMeters>623.4000244140625</AltitudeMeters>
            <DistanceMeters>21227.828555349</DistanceMeters>
          </Trackpoint>
          <Trackpoint>
            <Time>2022-11-06T11:44:32.000Z</Time>
            <Position>
              <LatitudeDegrees>41.3611618615686893463134765625</LatitudeDegrees>
              <LongitudeDegrees>-1.65479932911694049835205078125</LongitudeDegrees>
            </Position>
            <AltitudeMeters>623.5999755859375</AltitudeMeters>
            <DistanceMeters>21233.447198178</DistanceMeters>
          </Trackpoint>
          <Trackpoint>
            <Time>2022-11-06T11:44:33.000Z</Time>
            <Position>
              <LatitudeDegrees>41.3611102290451526641845703125</LatitudeDegrees>
              <LongitudeDegrees>-1.6548134945333003997802734375</LongitudeDegrees>
            </Position>
            <AltitudeMeters>623.79998779296875</AltitudeMeters>
            <DistanceMeters>21239.314280196</DistanceMeters>
          </Trackpoint>
          <Trackpoint>
            <Time>2022-11-06T11:44:35.000Z</Time>
            <Position>
              <LatitudeDegrees>41.36100570671260356903076171875</LatitudeDegrees>
              <LongitudeDegrees>-1.65482975542545318603515625</LongitudeDegrees>
            </Position>
            <AltitudeMeters>624</AltitudeMeters>
            <DistanceMeters>21251.026876891</DistanceMeters>
          </Trackpoint>
          <Trackpoint>
            <Time>2022-11-06T11:44:36.000Z</Time>
            <Position>
              <LatitudeDegrees>41.3609526492655277252197265625</LatitudeDegrees>
              <LongitudeDegrees>-1.65482682175934314727783203125</LongitudeDegrees>
            </Position>
            <AltitudeMeters>624.4000244140625</AltitudeMeters>
            <DistanceMeters>21256.937660744</DistanceMeters>
          </Trackpoint>
          <Trackpoint>
            <Time>2022-11-06T11:44:37.000Z</Time>
            <Position>
              <LatitudeDegrees>41.36089908890426158905029296875</LatitudeDegrees>
              <LongitudeDegrees>-1.65481902658939361572265625</LongitudeDegrees>
            </Position>
            <AltitudeMeters>624.5999755859375</AltitudeMeters>
            <DistanceMeters>21262.934140078</DistanceMeters>
          </Trackpoint>
          <Trackpoint>
            <Time>2022-11-06T11:44:39.000Z</Time>
            <Position>
              <LatitudeDegrees>41.36079833842813968658447265625</LatitudeDegrees>
              <LongitudeDegrees>-1.65476529859006404876708984375</LongitudeDegrees>
            </Position>
            <AltitudeMeters>624.79998779296875</AltitudeMeters>
            <DistanceMeters>21275.012629844</DistanceMeters>
          </Trackpoint>
          <Trackpoint>
            <Time>2022-11-06T11:44:40.000Z</Time>
            <Position>
              <LatitudeDegrees>41.3607541657984256744384765625</LatitudeDegrees>
              <LongitudeDegrees>-1.6547222994267940521240234375</LongitudeDegrees>
            </Position>
            <AltitudeMeters>624.79998779296875</AltitudeMeters>
            <DistanceMeters>21281.101017464</DistanceMeters>
          </Trackpoint>
          <Trackpoint>
            <Time>2022-11-06T11:44:41.000Z</Time>
            <Position>
              <LatitudeDegrees>41.36071116663515567779541015625</LatitudeDegrees>
              <LongitudeDegrees>-1.65467326529324054718017578125</LongitudeDegrees>
            </Position>
            <AltitudeMeters>624.79998779296875</AltitudeMeters>
            <DistanceMeters>21287.400077385</DistanceMeters>
          </Trackpoint>
          <Trackpoint>
            <Time>2022-11-06T11:44:42.000Z</Time>
            <Position>
              <LatitudeDegrees>41.36067009530961513519287109375</LatitudeDegrees>
              <LongitudeDegrees>-1.65462029166519641876220703125</LongitudeDegrees>
            </Position>
            <AltitudeMeters>624.5999755859375</AltitudeMeters>
            <DistanceMeters>21293.763320487</DistanceMeters>
          </Trackpoint>
          <Trackpoint>
            <Time>2022-11-06T11:44:43.000Z</Time>
            <Position>
              <LatitudeDegrees>41.36062399484217166900634765625</LatitudeDegrees>
              <LongitudeDegrees>-1.65456463582813739776611328125</LongitudeDegrees>
            </Position>
            <AltitudeMeters>624.20001220703125</AltitudeMeters>
            <DistanceMeters>21300.687893103</DistanceMeters>
          </Trackpoint>
          <Trackpoint>
            <Time>2022-11-06T11:44:47.000Z</Time>
            <Position>
              <LatitudeDegrees>41.36041939258575439453125</LatitudeDegrees>
              <LongitudeDegrees>-1.65435441769659519195556640625</LongitudeDegrees>
            </Position>
            <AltitudeMeters>623.20001220703125</AltitudeMeters>
            <DistanceMeters>21329.445369712</DistanceMeters>
          </Trackpoint>
          <Trackpoint>
            <Time>2022-11-06T11:44:51.000Z</Time>
            <Position>
              <LatitudeDegrees>41.360196769237518310546875</LatitudeDegrees>
              <LongitudeDegrees>-1.65413640439510345458984375</LongitudeDegrees>
            </Position>
            <AltitudeMeters>622.5999755859375</AltitudeMeters>
            <DistanceMeters>21360.19704813</DistanceMeters>
          </Trackpoint>
          <Trackpoint>
            <Time>2022-11-06T11:44:52.000Z</Time>
            <Position>
              <LatitudeDegrees>41.36015427298843860626220703125</LatitudeDegrees>
              <LongitudeDegrees>-1.65405652485787868499755859375</LongitudeDegrees>
            </Position>
            <AltitudeMeters>622.4000244140625</AltitudeMeters>
            <DistanceMeters>21368.377076641</DistanceMeters>
          </Trackpoint>
          <Trackpoint>
            <Time>2022-11-06T11:44:53.000Z</Time>
            <Position>
              <LatitudeDegrees>41.36012024246156215667724609375</LatitudeDegrees>
              <LongitudeDegrees>-1.653973124921321868896484375</LongitudeDegrees>
            </Position>
            <AltitudeMeters>622.20001220703125</AltitudeMeters>
            <DistanceMeters>21376.307680807</DistanceMeters>
          </Trackpoint>
          <Trackpoint>
            <Time>2022-11-06T11:44:54.000Z</Time>
            <Position>
              <LatitudeDegrees>41.360089480876922607421875</LatitudeDegrees>
              <LongitudeDegrees>-1.65388620458543300628662109375</LongitudeDegrees>
            </Position>
            <AltitudeMeters>622.20001220703125</AltitudeMeters>
            <DistanceMeters>21384.335610526</DistanceMeters>
          </Trackpoint>
          <Trackpoint>
            <Time>2022-11-06T11:44:55.000Z</Time>
            <Position>
              <LatitudeDegrees>41.36005888693034648895263671875</LatitudeDegrees>
              <LongitudeDegrees>-1.653802134096622467041015625</LongitudeDegrees>
            </Position>
            <AltitudeMeters>622</AltitudeMeters>
            <DistanceMeters>21392.140538181</DistanceMeters>
          </Trackpoint>
          <Trackpoint>
            <Time>2022-11-06T11:44:57.000Z</Time>
            <Position>
              <LatitudeDegrees>41.3599867187440395355224609375</LatitudeDegrees>
              <LongitudeDegrees>-1.6536289639770984649658203125</LongitudeDegrees>
            </Position>
            <AltitudeMeters>622</AltitudeMeters>
            <DistanceMeters>21408.687742716</DistanceMeters>
          </Trackpoint>
          <Trackpoint>
            <Time>2022-11-06T11:44:58.000Z</Time>
            <Position>
              <LatitudeDegrees>41.359942294657230377197265625</LatitudeDegrees>
              <LongitudeDegrees>-1.65353869087994098663330078125</LongitudeDegrees>
            </Position>
            <AltitudeMeters>621.79998779296875</AltitudeMeters>
            <DistanceMeters>21417.705272221</DistanceMeters>
          </Trackpoint>
          <Trackpoint>
            <Time>2022-11-06T11:45:01.000Z</Time>
            <Position>
              <LatitudeDegrees>41.35977767407894134521484375</LatitudeDegrees>
              <LongitudeDegrees>-1.65328371338546276092529296875</LongitudeDegrees>
            </Position>
            <AltitudeMeters>620.5999755859375</AltitudeMeters>
            <DistanceMeters>21445.802343297</DistanceMeters>
          </Trackpoint>
          <Trackpoint>
            <Time>2022-11-06T11:45:04.000Z</Time>
            <Position>
              <LatitudeDegrees>41.35960341431200504302978515625</LatitudeDegrees>
              <LongitudeDegrees>-1.653091013431549072265625</LongitudeDegrees>
            </Position>
            <AltitudeMeters>619.5999755859375</AltitudeMeters>
            <DistanceMeters>21471.008257652</DistanceMeters>
          </Trackpoint>
          <Trackpoint>
            <Time>2022-11-06T11:45:05.000Z</Time>
            <Position>
              <LatitudeDegrees>41.35954423807561397552490234375</LatitudeDegrees>
              <LongitudeDegrees>-1.65302253328263759613037109375</LongitudeDegrees>
            </Position>
            <AltitudeMeters>619.4000244140625</AltitudeMeters>
            <DistanceMeters>21479.732620915</DistanceMeters>
          </Trackpoint>
          <Trackpoint>
            <Time>2022-11-06T11:45:06.000Z</Time>
            <Position>
              <LatitudeDegrees>41.359508447349071502685546875</LatitudeDegrees>
              <LongitudeDegrees>-1.6529797017574310302734375</LongitudeDegrees>
            </Position>
            <AltitudeMeters>619.4000244140625</AltitudeMeters>
            <DistanceMeters>21485.087947495</DistanceMeters>
          </Trackpoint>
          <Trackpoint>
            <Time>2022-11-06T11:45:07.000Z</Time>
            <Position>
              <LatitudeDegrees>41.3594687171280384063720703125</LatitudeDegrees>
              <LongitudeDegrees>-1.65292832069098949432373046875</LongitudeDegrees>
            </Position>
            <AltitudeMeters>619.5999755859375</AltitudeMeters>
            <DistanceMeters>21491.25077976</DistanceMeters>
          </Trackpoint>
          <Trackpoint>
            <Time>2022-11-06T11:45:08.000Z</Time>
            <Position>
              <LatitudeDegrees>41.35943141765892505645751953125</LatitudeDegrees>
              <LongitudeDegrees>-1.65287417359650135040283203125</LongitudeDegrees>
            </Position>
            <AltitudeMeters>619.79998779296875</AltitudeMeters>
            <DistanceMeters>21497.390858681</DistanceMeters>
          </Trackpoint>
          <Trackpoint>
            <Time>2022-11-06T11:45:09.000Z</Time>
            <Position>
              <LatitudeDegrees>41.359400488436222076416015625</LatitudeDegrees>
              <LongitudeDegrees>-1.65281835012137889862060546875</LongitudeDegrees>
            </Position>
            <AltitudeMeters>620.20001220703125</AltitudeMeters>
            <DistanceMeters>21503.186709298</DistanceMeters>
          </Trackpoint>
          <Trackpoint>
            <Time>2022-11-06T11:45:10.000Z</Time>
            <Position>
              <LatitudeDegrees>41.3593661226332187652587890625</LatitudeDegrees>
              <LongitudeDegrees>-1.6527522169053554534912109375</LongitudeDegrees>
            </Position>
            <AltitudeMeters>622</AltitudeMeters>
            <DistanceMeters>21509.90611271</DistanceMeters>
          </Trackpoint>
          <Trackpoint>
            <Time>2022-11-06T11:45:11.000Z</Time>
            <Position>
              <LatitudeDegrees>41.3593480177223682403564453125</LatitudeDegrees>
              <LongitudeDegrees>-1.6527034342288970947265625</LongitudeDegrees>
            </Position>
            <AltitudeMeters>622</AltitudeMeters>
            <DistanceMeters>21514.451529622</DistanceMeters>
          </Trackpoint>
          <Trackpoint>
            <Time>2022-11-06T11:45:12.000Z</Time>
            <Position>
              <LatitudeDegrees>41.3593282364308834075927734375</LatitudeDegrees>
              <LongitudeDegrees>-1.6526375524699687957763671875</LongitudeDegrees>
            </Position>
            <AltitudeMeters>622</AltitudeMeters>
            <DistanceMeters>21520.378332923</DistanceMeters>
          </Trackpoint>
          <Trackpoint>
            <Time>2022-11-06T11:45:16.000Z</Time>
            <Position>
              <LatitudeDegrees>41.3592548109591007232666015625</LatitudeDegrees>
              <LongitudeDegrees>-1.6523587703704833984375</LongitudeDegrees>
            </Position>
            <AltitudeMeters>622</AltitudeMeters>
            <DistanceMeters>21545.060413006</DistanceMeters>
          </Trackpoint>
          <Trackpoint>
            <Time>2022-11-06T11:45:18.000Z</Time>
            <Position>
              <LatitudeDegrees>41.35921231471002101898193359375</LatitudeDegrees>
              <LongitudeDegrees>-1.65220848284661769866943359375</LongitudeDegrees>
            </Position>
            <AltitudeMeters>621.79998779296875</AltitudeMeters>
            <DistanceMeters>21558.477363997</DistanceMeters>
          </Trackpoint>
          <Trackpoint>
            <Time>2022-11-06T11:45:20.000Z</Time>
            <Position>
              <LatitudeDegrees>41.35915162973105907440185546875</LatitudeDegrees>
              <LongitudeDegrees>-1.65205526165664196014404296875</LongitudeDegrees>
            </Position>
            <AltitudeMeters>620.79998779296875</AltitudeMeters>
            <DistanceMeters>21572.950466058</DistanceMeters>
          </Trackpoint>
          <Trackpoint>
            <Time>2022-11-06T11:45:21.000Z</Time>
            <Position>
              <LatitudeDegrees>41.35911189951002597808837890625</LatitudeDegrees>
              <LongitudeDegrees>-1.6519871167838573455810546875</LongitudeDegrees>
            </Position>
            <AltitudeMeters>620.5999755859375</AltitudeMeters>
            <DistanceMeters>21580.158729362</DistanceMeters>
          </Trackpoint>
          <Trackpoint>
            <Time>2022-11-06T11:45:22.000Z</Time>
            <Position>
              <LatitudeDegrees>41.3590673916041851043701171875</LatitudeDegrees>
              <LongitudeDegrees>-1.651923917233943939208984375</LongitudeDegrees>
            </Position>
            <AltitudeMeters>620.20001220703125</AltitudeMeters>
            <DistanceMeters>21587.398867051</DistanceMeters>
          </Trackpoint>
          <Trackpoint>
            <Time>2022-11-06T11:45:24.000Z</Time>
            <Position>
              <LatitudeDegrees>41.35897041298449039459228515625</LatitudeDegrees>
              <LongitudeDegrees>-1.65180179290473461151123046875</LongitudeDegrees>
            </Position>
            <AltitudeMeters>619.5999755859375</AltitudeMeters>
            <DistanceMeters>21602.251636744</DistanceMeters>
          </Trackpoint>
          <Trackpoint>
            <Time>2022-11-06T11:45:26.000Z</Time>
            <Position>
              <LatitudeDegrees>41.358886174857616424560546875</LatitudeDegrees>
              <LongitudeDegrees>-1.65167740546166896820068359375</LongitudeDegrees>
            </Position>
            <AltitudeMeters>619.5999755859375</AltitudeMeters>
            <DistanceMeters>21616.248010502</DistanceMeters>
          </Trackpoint>
          <Trackpoint>
            <Time>2022-11-06T11:45:29.000Z</Time>
            <Position>
              <LatitudeDegrees>41.35876991786062717437744140625</LatitudeDegrees>
              <LongitudeDegrees>-1.65146618150174617767333984375</LongitudeDegrees>
            </Position>
            <AltitudeMeters>619.79998779296875</AltitudeMeters>
            <DistanceMeters>21638.12975571</DistanceMeters>
          </Trackpoint>
          <Trackpoint>
            <Time>2022-11-06T11:45:31.000Z</Time>
            <Position>
              <LatitudeDegrees>41.35867067612707614898681640625</LatitudeDegrees>
              <LongitudeDegrees>-1.65132922120392322540283203125</LongitudeDegrees>
            </Position>
            <AltitudeMeters>620</AltitudeMeters>
            <DistanceMeters>21654.033605596</DistanceMeters>
          </Trackpoint>
          <Trackpoint>
            <Time>2022-11-06T11:45:32.000Z</Time>
            <Position>
              <LatitudeDegrees>41.358628012239933013916015625</LatitudeDegrees>
              <LongitudeDegrees>-1.65125395171344280242919921875</LongitudeDegrees>
            </Position>
            <AltitudeMeters>619.79998779296875</AltitudeMeters>
            <DistanceMeters>21661.913377523</DistanceMeters>
          </Trackpoint>
          <Trackpoint>
            <Time>2022-11-06T11:45:34.000Z</Time>
            <Position>
              <LatitudeDegrees>41.3585909642279148101806640625</LatitudeDegrees>
              <LongitudeDegrees>-1.65104691870510578155517578125</LongitudeDegrees>
            </Position>
            <AltitudeMeters>619.79998779296875</AltitudeMeters>
            <DistanceMeters>21679.694041357</DistanceMeters>
          </Trackpoint>
          <Trackpoint>
            <Time>2022-11-06T11:45:35.000Z</Time>
            <Position>
              <LatitudeDegrees>41.35859255678951740264892578125</LatitudeDegrees>
              <LongitudeDegrees>-1.6509672068059444427490234375</LongitudeDegrees>
            </Position>
            <AltitudeMeters>619.5999755859375</AltitudeMeters>
            <DistanceMeters>21686.356085017</DistanceMeters>
          </Trackpoint>
          <Trackpoint>
            <Time>2022-11-06T11:45:36.000Z</Time>
            <Position>
              <LatitudeDegrees>41.35860018432140350341796875</LatitudeDegrees>
              <LongitudeDegrees>-1.650868467986583709716796875</LongitudeDegrees>
            </Position>
            <AltitudeMeters>618.4000244140625</AltitudeMeters>
            <DistanceMeters>21694.648493118</DistanceMeters>
          </Trackpoint>
          <Trackpoint>
            <Time>2022-11-06T11:45:37.000Z</Time>
            <Position>
              <LatitudeDegrees>41.35860420763492584228515625</LatitudeDegrees>
              <LongitudeDegrees>-1.650781296193599700927734375</LongitudeDegrees>
            </Position>
            <AltitudeMeters>617.79998779296875</AltitudeMeters>
            <DistanceMeters>21701.943921177</DistanceMeters>
          </Trackpoint>
          <Trackpoint>
            <Time>2022-11-06T11:45:38.000Z</Time>
            <Position>
              <LatitudeDegrees>41.35860093869268894195556640625</LatitudeDegrees>
              <LongitudeDegrees>-1.650698818266391754150390625</LongitudeDegrees>
            </Position>
            <AltitudeMeters>617.4000244140625</AltitudeMeters>
            <DistanceMeters>21708.843017708</DistanceMeters>
          </Trackpoint>
          <Trackpoint>
            <Time>2022-11-06T11:45:39.000Z</Time>
            <Position>
              <LatitudeDegrees>41.35858987458050251007080078125</LatitudeDegrees>
              <LongitudeDegrees>-1.65059949271380901336669921875</LongitudeDegrees>
            </Position>
            <AltitudeMeters>617.20001220703125</AltitudeMeters>
            <DistanceMeters>21717.231783155</DistanceMeters>
          </Trackpoint>
          <Trackpoint>
            <Time>2022-11-06T11:45:40.000Z</Time>
            <Position>
              <LatitudeDegrees>41.35857897810637950897216796875</LatitudeDegrees>
              <LongitudeDegrees>-1.65053310804069042205810546875</LongitudeDegrees>
            </Position>
            <AltitudeMeters>617</AltitudeMeters>
            <DistanceMeters>21722.908784373</DistanceMeters>
          </Trackpoint>
          <Trackpoint>
            <Time>2022-11-06T11:45:41.000Z</Time>
            <Position>
              <LatitudeDegrees>41.3585530780255794525146484375</LatitudeDegrees>
              <LongitudeDegrees>-1.65045783855020999908447265625</LongitudeDegrees>
            </Position>
            <AltitudeMeters>616.79998779296875</AltitudeMeters>
            <DistanceMeters>21729.826180926</DistanceMeters>
          </Trackpoint>
          <Trackpoint>
            <Time>2022-11-06T11:45:42.000Z</Time>
            <Position>
              <LatitudeDegrees>41.35851158760488033294677734375</LatitudeDegrees>
              <LongitudeDegrees>-1.6503922082483768463134765625</LongitudeDegrees>
            </Position>
            <AltitudeMeters>616.5999755859375</AltitudeMeters>
            <DistanceMeters>21736.99424447</DistanceMeters>
          </Trackpoint>
          <Trackpoint>
            <Time>2022-11-06T11:45:43.000Z</Time>
            <Position>
              <LatitudeDegrees>41.35845643468201160430908203125</LatitudeDegrees>
              <LongitudeDegrees>-1.65033060126006603240966796875</LongitudeDegrees>
            </Position>
            <AltitudeMeters>616.4000244140625</AltitudeMeters>
            <DistanceMeters>21745.004720311</DistanceMeters>
          </Trackpoint>
          <Trackpoint>
            <Time>2022-11-06T11:45:44.000Z</Time>
            <Position>
              <LatitudeDegrees>41.3584008626639842987060546875</LatitudeDegrees>
              <LongitudeDegrees>-1.6502604447305202484130859375</LongitudeDegrees>
            </Position>
            <AltitudeMeters>615.5999755859375</AltitudeMeters>
            <DistanceMeters>21753.525390157</DistanceMeters>
          </Trackpoint>
          <Trackpoint>
            <Time>2022-11-06T11:45:45.000Z</Time>
            <Position>
              <LatitudeDegrees>41.358353085815906524658203125</LatitudeDegrees>
              <LongitudeDegrees>-1.65016363374888896942138671875</LongitudeDegrees>
            </Position>
            <AltitudeMeters>613.79998779296875</AltitudeMeters>
            <DistanceMeters>21763.204596896</DistanceMeters>
          </Trackpoint>
          <Trackpoint>
            <Time>2022-11-06T11:45:46.000Z</Time>
            <Position>
              <LatitudeDegrees>41.3583307899534702301025390625</LatitudeDegrees>
              <LongitudeDegrees>-1.65008920244872570037841796875</LongitudeDegrees>
            </Position>
            <AltitudeMeters>613</AltitudeMeters>
            <DistanceMeters>21769.899766757</DistanceMeters>
          </Trackpoint>
          <Trackpoint>
            <Time>2022-11-06T11:45:47.000Z</Time>
            <Position>
              <LatitudeDegrees>41.3583113439381122589111328125</LatitudeDegrees>
              <LongitudeDegrees>-1.64999733678996562957763671875</LongitudeDegrees>
            </Position>
            <AltitudeMeters>612.4000244140625</AltitudeMeters>
            <DistanceMeters>21777.874087939</DistanceMeters>
          </Trackpoint>
          <Trackpoint>
            <Time>2022-11-06T11:45:48.000Z</Time>
            <Position>
              <LatitudeDegrees>41.358292400836944580078125</LatitudeDegrees>
              <LongitudeDegrees>-1.64988351054489612579345703125</LongitudeDegrees>
            </Position>
            <AltitudeMeters>612</AltitudeMeters>
            <DistanceMeters>21787.614210275</DistanceMeters>
          </Trackpoint>
          <Trackpoint>
            <Time>2022-11-06T11:45:49.000Z</Time>
            <Position>
              <LatitudeDegrees>41.35827806778252124786376953125</LatitudeDegrees>
              <LongitudeDegrees>-1.64980731904506683349609375</LongitudeDegrees>
            </Position>
            <AltitudeMeters>611.5999755859375</AltitudeMeters>
            <DistanceMeters>21794.175871992</DistanceMeters>
          </Trackpoint>
          <Trackpoint>
            <Time>2022-11-06T11:45:50.000Z</Time>
            <Position>
              <LatitudeDegrees>41.358262561261653900146484375</LatitudeDegrees>
              <LongitudeDegrees>-1.64971637539565563201904296875</LongitudeDegrees>
            </Position>
            <AltitudeMeters>611.4000244140625</AltitudeMeters>
            <DistanceMeters>21801.966903622</DistanceMeters>
          </Trackpoint>
          <Trackpoint>
            <Time>2022-11-06T11:45:51.000Z</Time>
            <Position>
              <LatitudeDegrees>41.358253844082355499267578125</LatitudeDegrees>
              <LongitudeDegrees>-1.64963087998330593109130859375</LongitudeDegrees>
            </Position>
            <AltitudeMeters>611.4000244140625</AltitudeMeters>
            <DistanceMeters>21809.175166926</DistanceMeters>
          </Trackpoint>
          <Trackpoint>
            <Time>2022-11-06T11:45:52.000Z</Time>
            <Position>
              <LatitudeDegrees>41.358247138559818267822265625</LatitudeDegrees>
              <LongitudeDegrees>-1.6495520062744617462158203125</LongitudeDegrees>
            </Position>
            <AltitudeMeters>611.20001220703125</AltitudeMeters>
            <DistanceMeters>21815.806642801</DistanceMeters>
          </Trackpoint>
          <Trackpoint>
            <Time>2022-11-06T11:45:53.000Z</Time>
            <Position>
              <LatitudeDegrees>41.35823682881891727447509765625</LatitudeDegrees>
              <LongitudeDegrees>-1.649471037089824676513671875</LongitudeDegrees>
            </Position>
            <AltitudeMeters>611.20001220703125</AltitudeMeters>
            <DistanceMeters>21822.667018769</DistanceMeters>
          </Trackpoint>
          <Trackpoint>
            <Time>2022-11-06T11:45:54.000Z</Time>
            <Position>
              <LatitudeDegrees>41.35822358541190624237060546875</LatitudeDegrees>
              <LongitudeDegrees>-1.64943038485944271087646484375</LongitudeDegrees>
            </Position>
            <AltitudeMeters>610.79998779296875</AltitudeMeters>
            <DistanceMeters>21826.368184257</DistanceMeters>
          </Trackpoint>
          <Trackpoint>
            <Time>2022-11-06T11:45:55.000Z</Time>
            <Position>
              <LatitudeDegrees>41.35820162482559680938720703125</LatitudeDegrees>
              <LongitudeDegrees>-1.64938176982104778289794921875</LongitudeDegrees>
            </Position>
            <AltitudeMeters>610.5999755859375</AltitudeMeters>
            <DistanceMeters>21831.109055513</DistanceMeters>
          </Trackpoint>
          <Trackpoint>
            <Time>2022-11-06T11:45:56.000Z</Time>
            <Position>
              <LatitudeDegrees>41.358167342841625213623046875</LatitudeDegrees>
              <LongitudeDegrees>-1.6493324004113674163818359375</LongitudeDegrees>
            </Position>
            <AltitudeMeters>610.4000244140625</AltitudeMeters>
            <DistanceMeters>21836.727698343</DistanceMeters>
          </Trackpoint>
          <Trackpoint>
            <Time>2022-11-06T11:45:57.000Z</Time>
            <Position>
              <LatitudeDegrees>41.3581316359341144561767578125</LatitudeDegrees>
              <LongitudeDegrees>-1.64930080063641071319580078125</LongitudeDegrees>
            </Position>
            <AltitudeMeters>610</AltitudeMeters>
            <DistanceMeters>21841.49894794</DistanceMeters>
          </Trackpoint>
          <Trackpoint>
            <Time>2022-11-06T11:45:58.000Z</Time>
            <Position>
              <LatitudeDegrees>41.35808377526700496673583984375</LatitudeDegrees>
              <LongitudeDegrees>-1.64926576428115367889404296875</LongitudeDegrees>
            </Position>
            <AltitudeMeters>609</AltitudeMeters>
            <DistanceMeters>21847.577687349</DistanceMeters>
          </Trackpoint>
          <Trackpoint>
            <Time>2022-11-06T11:45:59.000Z</Time>
            <Position>
              <LatitudeDegrees>41.3580441288650035858154296875</LatitudeDegrees>
              <LongitudeDegrees>-1.64923123084008693695068359375</LongitudeDegrees>
            </Position>
            <AltitudeMeters>608</AltitudeMeters>
            <DistanceMeters>21852.849743427</DistanceMeters>
          </Trackpoint>
          <Trackpoint>
            <Time>2022-11-06T11:46:00.000Z</Time>
            <Position>
              <LatitudeDegrees>41.35801521129906177520751953125</LatitudeDegrees>
              <LongitudeDegrees>-1.64919099770486354827880859375</LongitudeDegrees>
            </Position>
            <AltitudeMeters>607</AltitudeMeters>
            <DistanceMeters>21857.504112707</DistanceMeters>
          </Trackpoint>
          <Trackpoint>
            <Time>2022-11-06T11:46:01.000Z</Time>
            <Position>
              <LatitudeDegrees>41.35799610055983066558837890625</LatitudeDegrees>
              <LongitudeDegrees>-1.64914389140903949737548828125</LongitudeDegrees>
            </Position>
            <AltitudeMeters>606</AltitudeMeters>
            <DistanceMeters>21861.977439143</DistanceMeters>
          </Trackpoint>
          <Trackpoint>
            <Time>2022-11-06T11:46:02.000Z</Time>
            <Position>
              <LatitudeDegrees>41.3579800911247730255126953125</LatitudeDegrees>
              <LongitudeDegrees>-1.6490739025175571441650390625</LongitudeDegrees>
            </Position>
            <AltitudeMeters>605.4000244140625</AltitudeMeters>
            <DistanceMeters>21868.090249979</DistanceMeters>
          </Trackpoint>
          <Trackpoint>
            <Time>2022-11-06T11:46:03.000Z</Time>
            <Position>
              <LatitudeDegrees>41.35797782801091670989990234375</LatitudeDegrees>
              <LongitudeDegrees>-1.6490071825683116912841796875</LongitudeDegrees>
            </Position>
            <AltitudeMeters>604.5999755859375</AltitudeMeters>
            <DistanceMeters>21873.670187576</DistanceMeters>
          </Trackpoint>
          <Trackpoint>
            <Time>2022-11-06T11:46:04.000Z</Time>
            <Position>
              <LatitudeDegrees>41.35798168368637561798095703125</LatitudeDegrees>
              <LongitudeDegrees>-1.6489578969776630401611328125</LongitudeDegrees>
            </Position>
            <AltitudeMeters>604</AltitudeMeters>
            <DistanceMeters>21877.809034639</DistanceMeters>
          </Trackpoint>
          <Trackpoint>
            <Time>2022-11-06T11:46:05.000Z</Time>
            <Position>
              <LatitudeDegrees>41.3579857908189296722412109375</LatitudeDegrees>
              <LongitudeDegrees>-1.6488898359239101409912109375</LongitudeDegrees>
            </Position>
            <AltitudeMeters>602.79998779296875</AltitudeMeters>
            <DistanceMeters>21883.513804179</DistanceMeters>
          </Trackpoint>
          <Trackpoint>
            <Time>2022-11-06T11:46:06.000Z</Time>
            <Position>
              <LatitudeDegrees>41.357991993427276611328125</LatitudeDegrees>
              <LongitudeDegrees>-1.6488164104521274566650390625</LongitudeDegrees>
            </Position>
            <AltitudeMeters>602</AltitudeMeters>
            <DistanceMeters>21889.686884657</DistanceMeters>
          </Trackpoint>
          <Trackpoint>
            <Time>2022-11-06T11:46:07.000Z</Time>
            <Position>
              <LatitudeDegrees>41.35798461735248565673828125</LatitudeDegrees>
              <LongitudeDegrees>-1.6487527079880237579345703125</LongitudeDegrees>
            </Position>
            <AltitudeMeters>600.4000244140625</AltitudeMeters>
            <DistanceMeters>21895.07080009</DistanceMeters>
          </Trackpoint>
          <Trackpoint>
            <Time>2022-11-06T11:46:08.000Z</Time>
            <Position>
              <LatitudeDegrees>41.35796491988003253936767578125</LatitudeDegrees>
              <LongitudeDegrees>-1.64870736189186573028564453125</LongitudeDegrees>
            </Position>
            <AltitudeMeters>599.5999755859375</AltitudeMeters>
            <DistanceMeters>21899.448221958</DistanceMeters>
          </Trackpoint>
          <Trackpoint>
            <Time>2022-11-06T11:46:09.000Z</Time>
            <Position>
              <LatitudeDegrees>41.3579418696463108062744140625</LatitudeDegrees>
              <LongitudeDegrees>-1.64867433719336986541748046875</LongitudeDegrees>
            </Position>
            <AltitudeMeters>598.79998779296875</AltitudeMeters>
            <DistanceMeters>21903.215884386</DistanceMeters>
          </Trackpoint>
          <Trackpoint>
            <Time>2022-11-06T11:46:10.000Z</Time>
            <Position>
              <LatitudeDegrees>41.3579180650413036346435546875</LatitudeDegrees>
              <LongitudeDegrees>-1.6486427374184131622314453125</LongitudeDegrees>
            </Position>
            <AltitudeMeters>598.4000244140625</AltitudeMeters>
            <DistanceMeters>21906.957089872</DistanceMeters>
          </Trackpoint>
          <Trackpoint>
            <Time>2022-11-06T11:46:11.000Z</Time>
            <Position>
              <LatitudeDegrees>41.35788478888571262359619140625</LatitudeDegrees>
              <LongitudeDegrees>-1.6486065275967121124267578125</LongitudeDegrees>
            </Position>
            <AltitudeMeters>597.79998779296875</AltitudeMeters>
            <DistanceMeters>21911.73873745</DistanceMeters>
          </Trackpoint>
          <Trackpoint>
            <Time>2022-11-06T11:46:12.000Z</Time>
            <Position>
              <LatitudeDegrees>41.35785595513880252838134765625</LatitudeDegrees>
              <LongitudeDegrees>-1.64859135635197162628173828125</LongitudeDegrees>
            </Position>
            <AltitudeMeters>597</AltitudeMeters>
            <DistanceMeters>21915.188612919</DistanceMeters>
          </Trackpoint>
          <Trackpoint>
            <Time>2022-11-06T11:46:13.000Z</Time>
            <Position>
              <LatitudeDegrees>41.357827372848987579345703125</LatitudeDegrees>
              <LongitudeDegrees>-1.648585908114910125732421875</LongitudeDegrees>
            </Position>
            <AltitudeMeters>596.5999755859375</AltitudeMeters>
            <DistanceMeters>21918.402708041</DistanceMeters>
          </Trackpoint>
          <Trackpoint>
            <Time>2022-11-06T11:46:14.000Z</Time>
            <Position>
              <LatitudeDegrees>41.35780231095850467681884765625</LatitudeDegrees>
              <LongitudeDegrees>-1.64858984760940074920654296875</LongitudeDegrees>
            </Position>
            <AltitudeMeters>595.79998779296875</AltitudeMeters>
            <DistanceMeters>21921.212029456</DistanceMeters>
          </Trackpoint>
          <Trackpoint>
            <Time>2022-11-06T11:46:15.000Z</Time>
            <Position>
              <LatitudeDegrees>41.35777632705867290496826171875</LatitudeDegrees>
              <LongitudeDegrees>-1.648596636950969696044921875</LongitudeDegrees>
            </Position>
            <AltitudeMeters>595</AltitudeMeters>
            <DistanceMeters>21924.157857601</DistanceMeters>
          </Trackpoint>
          <Trackpoint>
            <Time>2022-11-06T11:46:16.000Z</Time>
            <Position>
              <LatitudeDegrees>41.35775185190141201019287109375</LatitudeDegrees>
              <LongitudeDegrees>-1.64859839715063571929931640625</LongitudeDegrees>
            </Position>
            <AltitudeMeters>594.5999755859375</AltitudeMeters>
            <DistanceMeters>21926.885637466</DistanceMeters>
          </Trackpoint>
          <Trackpoint>
            <Time>2022-11-06T11:46:17.000Z</Time>
            <Position>
              <LatitudeDegrees>41.357718408107757568359375</LatitudeDegrees>
              <LongitudeDegrees>-1.64860568940639495849609375</LongitudeDegrees>
            </Position>
            <AltitudeMeters>594</AltitudeMeters>
            <DistanceMeters>21930.658090312</DistanceMeters>
          </Trackpoint>
          <Trackpoint>
            <Time>2022-11-06T11:46:18.000Z</Time>
            <Position>
              <LatitudeDegrees>41.357699297368526458740234375</LatitudeDegrees>
              <LongitudeDegrees>-1.64861247874796390533447265625</LongitudeDegrees>
            </Position>
            <AltitudeMeters>593.20001220703125</AltitudeMeters>
            <DistanceMeters>21932.860169114</DistanceMeters>
          </Trackpoint>
          <Trackpoint>
            <Time>2022-11-06T11:46:20.000Z</Time>
            <Position>
              <LatitudeDegrees>41.3576578907668590545654296875</LatitudeDegrees>
              <LongitudeDegrees>-1.64861029945313930511474609375</LongitudeDegrees>
            </Position>
            <AltitudeMeters>592.4000244140625</AltitudeMeters>
            <DistanceMeters>21937.472637011</DistanceMeters>
          </Trackpoint>
          <Trackpoint>
            <Time>2022-11-06T11:46:21.000Z</Time>
            <Position>
              <LatitudeDegrees>41.35764540173113346099853515625</LatitudeDegrees>
              <LongitudeDegrees>-1.64859772659838199615478515625</LongitudeDegrees>
            </Position>
            <AltitudeMeters>592</AltitudeMeters>
            <DistanceMeters>21939.214505457</DistanceMeters>
          </Trackpoint>
          <Trackpoint>
            <Time>2022-11-06T11:46:22.000Z</Time>
            <Position>
              <LatitudeDegrees>41.3576285541057586669921875</LatitudeDegrees>
              <LongitudeDegrees>-1.64858012460172176361083984375</LongitudeDegrees>
            </Position>
            <AltitudeMeters>591.5999755859375</AltitudeMeters>
            <DistanceMeters>21941.597763329</DistanceMeters>
          </Trackpoint>
          <Trackpoint>
            <Time>2022-11-06T11:46:23.000Z</Time>
            <Position>
              <LatitudeDegrees>41.35761304758489131927490234375</LatitudeDegrees>
              <LongitudeDegrees>-1.6485548950731754302978515625</LongitudeDegrees>
            </Position>
            <AltitudeMeters>591.20001220703125</AltitudeMeters>
            <DistanceMeters>21944.32223077</DistanceMeters>
          </Trackpoint>
          <Trackpoint>
            <Time>2022-11-06T11:46:24.000Z</Time>
            <Position>
              <LatitudeDegrees>41.35760667733848094940185546875</LatitudeDegrees>
              <LongitudeDegrees>-1.64853285066783428192138671875</LongitudeDegrees>
            </Position>
            <AltitudeMeters>591</AltitudeMeters>
            <DistanceMeters>21946.297323938</DistanceMeters>
          </Trackpoint>
          <Trackpoint>
            <Time>2022-11-06T11:46:25.000Z</Time>
            <Position>
              <LatitudeDegrees>41.35759762488305568695068359375</LatitudeDegrees>
              <LongitudeDegrees>-1.64849798195064067840576171875</LongitudeDegrees>
            </Position>
            <AltitudeMeters>590.5999755859375</AltitudeMeters>
            <DistanceMeters>21949.379472608</DistanceMeters>
          </Trackpoint>
          <Trackpoint>
            <Time>2022-11-06T11:46:26.000Z</Time>
            <Position>
              <LatitudeDegrees>41.35759376920759677886962890625</LatitudeDegrees>
              <LongitudeDegrees>-1.648471243679523468017578125</LongitudeDegrees>
            </Position>
            <AltitudeMeters>589.79998779296875</AltitudeMeters>
            <DistanceMeters>21951.654166829</DistanceMeters>
          </Trackpoint>
          <Trackpoint>
            <Time>2022-11-06T11:46:27.000Z</Time>
            <Position>
              <LatitudeDegrees>41.3575941883027553558349609375</LatitudeDegrees>
              <LongitudeDegrees>-1.6484536416828632354736328125</LongitudeDegrees>
            </Position>
            <AltitudeMeters>588.79998779296875</AltitudeMeters>
            <DistanceMeters>21953.123244183</DistanceMeters>
          </Trackpoint>
          <Trackpoint>
            <Time>2022-11-06T11:46:28.000Z</Time>
            <Position>
              <LatitudeDegrees>41.35759770870208740234375</LatitudeDegrees>
              <LongitudeDegrees>-1.648432351648807525634765625</LongitudeDegrees>
            </Position>
            <AltitudeMeters>588.4000244140625</AltitudeMeters>
            <DistanceMeters>21954.941212273</DistanceMeters>
          </Trackpoint>
          <Trackpoint>
            <Time>2022-11-06T11:46:29.000Z</Time>
            <Position>
              <LatitudeDegrees>41.35760550387203693389892578125</LatitudeDegrees>
              <LongitudeDegrees>-1.6484026797115802764892578125</LongitudeDegrees>
            </Position>
            <AltitudeMeters>587.5999755859375</AltitudeMeters>
            <DistanceMeters>21957.569521327</DistanceMeters>
          </Trackpoint>
          <Trackpoint>
            <Time>2022-11-06T11:46:30.000Z</Time>
            <Position>
              <LatitudeDegrees>41.357616484165191650390625</LatitudeDegrees>
              <LongitudeDegrees>-1.648369990289211273193359375</LongitudeDegrees>
            </Position>
            <AltitudeMeters>587.4000244140625</AltitudeMeters>
            <DistanceMeters>21960.563993886</DistanceMeters>
          </Trackpoint>
          <Trackpoint>
            <Time>2022-11-06T11:46:31.000Z</Time>
            <Position>
              <LatitudeDegrees>41.357626207172870635986328125</LatitudeDegrees>
              <LongitudeDegrees>-1.64832950569689273834228515625</LongitudeDegrees>
            </Position>
            <AltitudeMeters>586.5999755859375</AltitudeMeters>
            <DistanceMeters>21964.115756377</DistanceMeters>
          </Trackpoint>
          <Trackpoint>
            <Time>2022-11-06T11:46:32.000Z</Time>
            <Position>
              <LatitudeDegrees>41.357632577419281005859375</LatitudeDegrees>
              <LongitudeDegrees>-1.64828927256166934967041015625</LongitudeDegrees>
            </Position>
            <AltitudeMeters>585.5999755859375</AltitudeMeters>
            <DistanceMeters>21967.549890887</DistanceMeters>
          </Trackpoint>
          <Trackpoint>
            <Time>2022-11-06T11:46:33.000Z</Time>
            <Position>
              <LatitudeDegrees>41.35763701982796192169189453125</LatitudeDegrees>
              <LongitudeDegrees>-1.64825792424380779266357421875</LongitudeDegrees>
            </Position>
            <AltitudeMeters>584.20001220703125</AltitudeMeters>
            <DistanceMeters>21970.214030539</DistanceMeters>
          </Trackpoint>
          <Trackpoint>
            <Time>2022-11-06T11:46:34.000Z</Time>
            <Position>
              <LatitudeDegrees>41.357643306255340576171875</LatitudeDegrees>
              <LongitudeDegrees>-1.64822003804147243499755859375</LongitudeDegrees>
            </Position>
            <AltitudeMeters>582.79998779296875</AltitudeMeters>
            <DistanceMeters>21973.456099166</DistanceMeters>
          </Trackpoint>
          <Trackpoint>
            <Time>2022-11-06T11:46:35.000Z</Time>
            <Position>
              <LatitudeDegrees>41.35764976032078266143798828125</LatitudeDegrees>
              <LongitudeDegrees>-1.6481800563633441925048828125</LongitudeDegrees>
            </Position>
            <AltitudeMeters>581.4000244140625</AltitudeMeters>
            <DistanceMeters>21976.874420233</DistanceMeters>
          </Trackpoint>
          <Trackpoint>
            <Time>2022-11-06T11:46:37.000Z</Time>
            <Position>
              <LatitudeDegrees>41.3576823659241199493408203125</LatitudeDegrees>
              <LongitudeDegrees>-1.6480821557343006134033203125</LongitudeDegrees>
            </Position>
            <AltitudeMeters>579.79998779296875</AltitudeMeters>
            <DistanceMeters>21985.822586963</DistanceMeters>
          </Trackpoint>
          <Trackpoint>
            <Time>2022-11-06T11:46:38.000Z</Time>
            <Position>
              <LatitudeDegrees>41.3577068410813808441162109375</LatitudeDegrees>
              <LongitudeDegrees>-1.64804083295166492462158203125</LongitudeDegrees>
            </Position>
            <AltitudeMeters>579</AltitudeMeters>
            <DistanceMeters>21990.220589208</DistanceMeters>
          </Trackpoint>
          <Trackpoint>
            <Time>2022-11-06T11:46:39.000Z</Time>
            <Position>
              <LatitudeDegrees>41.35772620327770709991455078125</LatitudeDegrees>
              <LongitudeDegrees>-1.6480080597102642059326171875</LongitudeDegrees>
            </Position>
            <AltitudeMeters>578.4000244140625</AltitudeMeters>
            <DistanceMeters>21993.704326101</DistanceMeters>
          </Trackpoint>
          <Trackpoint>
            <Time>2022-11-06T11:46:41.000Z</Time>
            <Position>
              <LatitudeDegrees>41.3577534444630146026611328125</LatitudeDegrees>
              <LongitudeDegrees>-1.64796237833797931671142578125</LongitudeDegrees>
            </Position>
            <AltitudeMeters>576.20001220703125</AltitudeMeters>
            <DistanceMeters>21998.577631042</DistanceMeters>
          </Trackpoint>
          <Trackpoint>
            <Time>2022-11-06T11:46:42.000Z</Time>
            <Position>
              <LatitudeDegrees>41.35775872506201267242431640625</LatitudeDegrees>
              <LongitudeDegrees>-1.64793153293430805206298828125</LongitudeDegrees>
            </Position>
            <AltitudeMeters>575.4000244140625</AltitudeMeters>
            <DistanceMeters>22001.217937656</DistanceMeters>
          </Trackpoint>
          <Trackpoint>
            <Time>2022-11-06T11:46:43.000Z</Time>
            <Position>
              <LatitudeDegrees>41.35774916969239711761474609375</LatitudeDegrees>
              <LongitudeDegrees>-1.64787939749658107757568359375</LongitudeDegrees>
            </Position>
            <AltitudeMeters>574.79998779296875</AltitudeMeters>
            <DistanceMeters>22005.699331413</DistanceMeters>
          </Trackpoint>
          <Trackpoint>
            <Time>2022-11-06T11:46:44.000Z</Time>
            <Position>
              <LatitudeDegrees>41.3577438890933990478515625</LatitudeDegrees>
              <LongitudeDegrees>-1.64782541804015636444091796875</LongitudeDegrees>
            </Position>
            <AltitudeMeters>574</AltitudeMeters>
            <DistanceMeters>22010.246734525</DistanceMeters>
          </Trackpoint>
          <Trackpoint>
            <Time>2022-11-06T11:46:45.000Z</Time>
            <Position>
              <LatitudeDegrees>41.35774900205433368682861328125</LatitudeDegrees>
              <LongitudeDegrees>-1.64776481688022613525390625</LongitudeDegrees>
            </Position>
            <AltitudeMeters>573.4000244140625</AltitudeMeters>
            <DistanceMeters>22015.340201873</DistanceMeters>
          </Trackpoint>
          <Trackpoint>
            <Time>2022-11-06T11:46:46.000Z</Time>
            <Position>
              <LatitudeDegrees>41.35776660405099391937255859375</LatitudeDegrees>
              <LongitudeDegrees>-1.647699773311614990234375</LongitudeDegrees>
            </Position>
            <AltitudeMeters>572.5999755859375</AltitudeMeters>
            <DistanceMeters>22021.115762658</DistanceMeters>
          </Trackpoint>
          <Trackpoint>
            <Time>2022-11-06T11:46:47.000Z</Time>
            <Position>
              <LatitudeDegrees>41.35779409669339656829833984375</LatitudeDegrees>
              <LongitudeDegrees>-1.64763271808624267578125</LongitudeDegrees>
            </Position>
            <AltitudeMeters>572</AltitudeMeters>
            <DistanceMeters>22027.499549543</DistanceMeters>
          </Trackpoint>
          <Trackpoint>
            <Time>2022-11-06T11:46:48.000Z</Time>
            <Position>
              <LatitudeDegrees>41.357819996774196624755859375</LatitudeDegrees>
              <LongitudeDegrees>-1.64756423793733119964599609375</LongitudeDegrees>
            </Position>
            <AltitudeMeters>571.5999755859375</AltitudeMeters>
            <DistanceMeters>22033.905224165</DistanceMeters>
          </Trackpoint>
          <Trackpoint>
            <Time>2022-11-06T11:46:49.000Z</Time>
            <Position>
              <LatitudeDegrees>41.35785126127302646636962890625</LatitudeDegrees>
              <LongitudeDegrees>-1.6474919021129608154296875</LongitudeDegrees>
            </Position>
            <AltitudeMeters>571.4000244140625</AltitudeMeters>
            <DistanceMeters>22040.878527661</DistanceMeters>
          </Trackpoint>
          <Trackpoint>
            <Time>2022-11-06T11:46:50.000Z</Time>
            <Position>
              <LatitudeDegrees>41.357881017029285430908203125</LatitudeDegrees>
              <LongitudeDegrees>-1.64743532426655292510986328125</LongitudeDegrees>
            </Position>
            <AltitudeMeters>571.20001220703125</AltitudeMeters>
            <DistanceMeters>22046.650178378</DistanceMeters>
          </Trackpoint>
          <Trackpoint>
            <Time>2022-11-06T11:46:51.000Z</Time>
            <Position>
              <LatitudeDegrees>41.35793759487569332122802734375</LatitudeDegrees>
              <LongitudeDegrees>-1.647375561296939849853515625</LongitudeDegrees>
            </Position>
            <AltitudeMeters>571</AltitudeMeters>
            <DistanceMeters>22054.686539913</DistanceMeters>
          </Trackpoint>
          <Trackpoint>
            <Time>2022-11-06T11:46:52.000Z</Time>
            <Position>
              <LatitudeDegrees>41.35799090377986431121826171875</LatitudeDegrees>
              <LongitudeDegrees>-1.647356450557708740234375</LongitudeDegrees>
            </Position>
            <AltitudeMeters>570.79998779296875</AltitudeMeters>
            <DistanceMeters>22060.831029283</DistanceMeters>
          </Trackpoint>
          <Trackpoint>
            <Time>2022-11-06T11:46:53.000Z</Time>
            <Position>
              <LatitudeDegrees>41.35803063400089740753173828125</LatitudeDegrees>
              <LongitudeDegrees>-1.647361814975738525390625</LongitudeDegrees>
            </Position>
            <AltitudeMeters>570.79998779296875</AltitudeMeters>
            <DistanceMeters>22065.27600479</DistanceMeters>
          </Trackpoint>
          <Trackpoint>
            <Time>2022-11-06T11:46:54.000Z</Time>
            <Position>
              <LatitudeDegrees>41.35809165425598621368408203125</LatitudeDegrees>
              <LongitudeDegrees>-1.6473864577710628509521484375</LongitudeDegrees>
            </Position>
            <AltitudeMeters>570.79998779296875</AltitudeMeters>
            <DistanceMeters>22072.373170873</DistanceMeters>
          </Trackpoint>
          <Trackpoint>
            <Time>2022-11-06T11:46:55.000Z</Time>
            <Position>
              <LatitudeDegrees>41.3581328094005584716796875</LatitudeDegrees>
              <LongitudeDegrees>-1.6474085859954357147216796875</LongitudeDegrees>
            </Position>
            <AltitudeMeters>570.79998779296875</AltitudeMeters>
            <DistanceMeters>22077.312732245</DistanceMeters>
          </Trackpoint>
          <Trackpoint>
            <Time>2022-11-06T11:46:56.000Z</Time>
            <Position>
              <LatitudeDegrees>41.35818234644830226898193359375</LatitudeDegrees>
              <LongitudeDegrees>-1.64743213914334774017333984375</LongitudeDegrees>
            </Position>
            <AltitudeMeters>571.20001220703125</AltitudeMeters>
            <DistanceMeters>22083.166717222</DistanceMeters>
          </Trackpoint>
          <Trackpoint>
            <Time>2022-11-06T11:46:57.000Z</Time>
            <Position>
              <LatitudeDegrees>41.3582208193838596343994140625</LatitudeDegrees>
              <LongitudeDegrees>-1.6474501602351665496826171875</LongitudeDegrees>
            </Position>
            <AltitudeMeters>571.4000244140625</AltitudeMeters>
            <DistanceMeters>22087.706170321</DistanceMeters>
          </Trackpoint>
          <Trackpoint>
            <Time>2022-11-06T11:46:58.000Z</Time>
            <Position>
              <LatitudeDegrees>41.3582737930119037628173828125</LatitudeDegrees>
              <LongitudeDegrees>-1.6474722884595394134521484375</LongitudeDegrees>
            </Position>
            <AltitudeMeters>571.79998779296875</AltitudeMeters>
            <DistanceMeters>22093.885099291</DistanceMeters>
          </Trackpoint>
          <Trackpoint>
            <Time>2022-11-06T11:46:59.000Z</Time>
            <Position>
              <LatitudeDegrees>41.3583190552890300750732421875</LatitudeDegrees>
              <LongitudeDegrees>-1.64749165065586566925048828125</LongitudeDegrees>
            </Position>
            <AltitudeMeters>572</AltitudeMeters>
            <DistanceMeters>22099.175962828</DistanceMeters>
          </Trackpoint>
          <Trackpoint>
            <Time>2022-11-06T11:47:00.000Z</Time>
            <Position>
              <LatitudeDegrees>41.3583616353571414947509765625</LatitudeDegrees>
              <LongitudeDegrees>-1.647511012852191925048828125</LongitudeDegrees>
            </Position>
            <AltitudeMeters>572.20001220703125</AltitudeMeters>
            <DistanceMeters>22104.18360921</DistanceMeters>
          </Trackpoint>
          <Trackpoint>
            <Time>2022-11-06T11:47:01.000Z</Time>
            <Position>
              <LatitudeDegrees>41.35841167531907558441162109375</LatitudeDegrees>
              <LongitudeDegrees>-1.64753758348524570465087890625</LongitudeDegrees>
            </Position>
            <AltitudeMeters>572.4000244140625</AltitudeMeters>
            <DistanceMeters>22110.179335548</DistanceMeters>
          </Trackpoint>
          <Trackpoint>
            <Time>2022-11-06T11:47:02.000Z</Time>
            <Position>
              <LatitudeDegrees>41.35844838805496692657470703125</LatitudeDegrees>
              <LongitudeDegrees>-1.64755451492965221405029296875</LongitudeDegrees>
            </Position>
            <AltitudeMeters>572.5999755859375</AltitudeMeters>
            <DistanceMeters>22114.501745543</DistanceMeters>
          </Trackpoint>
          <Trackpoint>
            <Time>2022-11-06T11:47:03.000Z</Time>
            <Position>
              <LatitudeDegrees>41.35850018821656703948974609375</LatitudeDegrees>
              <LongitudeDegrees>-1.64757706224918365478515625</LongitudeDegrees>
            </Position>
            <AltitudeMeters>572.79998779296875</AltitudeMeters>
            <DistanceMeters>22120.566356112</DistanceMeters>
          </Trackpoint>
          <Trackpoint>
            <Time>2022-11-06T11:47:04.000Z</Time>
            <Position>
              <LatitudeDegrees>41.3585431873798370361328125</LatitudeDegrees>
              <LongitudeDegrees>-1.647586114704608917236328125</LongitudeDegrees>
            </Position>
            <AltitudeMeters>573.20001220703125</AltitudeMeters>
            <DistanceMeters>22125.411786821</DistanceMeters>
          </Trackpoint>
          <Trackpoint>
            <Time>2022-11-06T11:47:05.000Z</Time>
            <Position>
              <LatitudeDegrees>41.35857847519218921661376953125</LatitudeDegrees>
              <LongitudeDegrees>-1.64759927429258823394775390625</LongitudeDegrees>
            </Position>
            <AltitudeMeters>573.4000244140625</AltitudeMeters>
            <DistanceMeters>22129.490193472</DistanceMeters>
          </Trackpoint>
          <Trackpoint>
            <Time>2022-11-06T11:47:06.000Z</Time>
            <Position>
              <LatitudeDegrees>41.35861887596547603607177734375</LatitudeDegrees>
              <LongitudeDegrees>-1.647618301212787628173828125</LongitudeDegrees>
            </Position>
            <AltitudeMeters>573.5999755859375</AltitudeMeters>
            <DistanceMeters>22134.259550091</DistanceMeters>
          </Trackpoint>
          <Trackpoint>
            <Time>2022-11-06T11:47:07.000Z</Time>
            <Position>
              <LatitudeDegrees>41.35866749100387096405029296875</LatitudeDegrees>
              <LongitudeDegrees>-1.6476459614932537078857421875</LongitudeDegrees>
            </Position>
            <AltitudeMeters>573.79998779296875</AltitudeMeters>
            <DistanceMeters>22140.143537947</DistanceMeters>
          </Trackpoint>
          <Trackpoint>
            <Time>2022-11-06T11:47:08.000Z</Time>
            <Position>
              <LatitudeDegrees>41.35870923288166522979736328125</LatitudeDegrees>
              <LongitudeDegrees>-1.64766599424183368682861328125</LongitudeDegrees>
            </Position>
            <AltitudeMeters>574</AltitudeMeters>
            <DistanceMeters>22145.082185178</DistanceMeters>
          </Trackpoint>
          <Trackpoint>
            <Time>2022-11-06T11:47:12.000Z</Time>
            <Position>
              <LatitudeDegrees>41.35886915959417819976806640625</LatitudeDegrees>
              <LongitudeDegrees>-1.6477234102785587310791015625</LongitudeDegrees>
            </Position>
            <AltitudeMeters>574.20001220703125</AltitudeMeters>
            <DistanceMeters>22163.517367766</DistanceMeters>
          </Trackpoint>
          <Trackpoint>
            <Time>2022-11-06T11:47:16.000Z</Time>
            <Position>
              <LatitudeDegrees>41.3590405695140361785888671875</LatitudeDegrees>
              <LongitudeDegrees>-1.647799350321292877197265625</LongitudeDegrees>
            </Position>
            <AltitudeMeters>574.5999755859375</AltitudeMeters>
            <DistanceMeters>22183.622873779</DistanceMeters>
          </Trackpoint>
          <Trackpoint>
            <Time>2022-11-06T11:47:20.000Z</Time>
            <Position>
              <LatitudeDegrees>41.359197981655597686767578125</LatitudeDegrees>
              <LongitudeDegrees>-1.64786808192729949951171875</LongitudeDegrees>
            </Position>
            <AltitudeMeters>575.20001220703125</AltitudeMeters>
            <DistanceMeters>22202.060260462</DistanceMeters>
          </Trackpoint>
          <Trackpoint>
            <Time>2022-11-06T11:47:22.000Z</Time>
            <Position>
              <LatitudeDegrees>41.359295547008514404296875</LatitudeDegrees>
              <LongitudeDegrees>-1.647904627025127410888671875</LongitudeDegrees>
            </Position>
            <AltitudeMeters>575.5999755859375</AltitudeMeters>
            <DistanceMeters>22213.340455814</DistanceMeters>
          </Trackpoint>
          <Trackpoint>
            <Time>2022-11-06T11:47:25.000Z</Time>
            <Position>
              <LatitudeDegrees>41.35942689143121242523193359375</LatitudeDegrees>
              <LongitudeDegrees>-1.647952906787395477294921875</LongitudeDegrees>
            </Position>
            <AltitudeMeters>576.20001220703125</AltitudeMeters>
            <DistanceMeters>22228.505480934</DistanceMeters>
          </Trackpoint>
          <Trackpoint>
            <Time>2022-11-06T11:47:26.000Z</Time>
            <Position>
              <LatitudeDegrees>41.3594633527100086212158203125</LatitudeDegrees>
              <LongitudeDegrees>-1.6479678265750408172607421875</LongitudeDegrees>
            </Position>
            <AltitudeMeters>576.20001220703125</AltitudeMeters>
            <DistanceMeters>22232.750952943</DistanceMeters>
          </Trackpoint>
          <Trackpoint>
            <Time>2022-11-06T11:47:28.000Z</Time>
            <Position>
              <LatitudeDegrees>41.359543316066265106201171875</LatitudeDegrees>
              <LongitudeDegrees>-1.64800822734832763671875</LongitudeDegrees>
            </Position>
            <AltitudeMeters>576.5999755859375</AltitudeMeters>
            <DistanceMeters>22242.269765213</DistanceMeters>
          </Trackpoint>
          <Trackpoint>
            <Time>2022-11-06T11:47:29.000Z</Time>
            <Position>
              <LatitudeDegrees>41.35958581231534481048583984375</LatitudeDegrees>
              <LongitudeDegrees>-1.648028008639812469482421875</LongitudeDegrees>
            </Position>
            <AltitudeMeters>576.79998779296875</AltitudeMeters>
            <DistanceMeters>22247.280115751</DistanceMeters>
          </Trackpoint>
          <Trackpoint>
            <Time>2022-11-06T11:47:30.000Z</Time>
            <Position>
              <LatitudeDegrees>41.35962755419313907623291015625</LatitudeDegrees>
              <LongitudeDegrees>-1.64805047214031219482421875</LongitudeDegrees>
            </Position>
            <AltitudeMeters>577</AltitudeMeters>
            <DistanceMeters>22252.290466289</DistanceMeters>
          </Trackpoint>
          <Trackpoint>
            <Time>2022-11-06T11:47:31.000Z</Time>
            <Position>
              <LatitudeDegrees>41.35967063717544078826904296875</LatitudeDegrees>
              <LongitudeDegrees>-1.64807033725082874298095703125</LongitudeDegrees>
            </Position>
            <AltitudeMeters>577</AltitudeMeters>
            <DistanceMeters>22257.365284318</DistanceMeters>
          </Trackpoint>
          <Trackpoint>
            <Time>2022-11-06T11:47:32.000Z</Time>
            <Position>
              <LatitudeDegrees>41.35970919393002986907958984375</LatitudeDegrees>
              <LongitudeDegrees>-1.6480912081897258758544921875</LongitudeDegrees>
            </Position>
            <AltitudeMeters>577.20001220703125</AltitudeMeters>
            <DistanceMeters>22261.99728838</DistanceMeters>
          </Trackpoint>
          <Trackpoint>
            <Time>2022-11-06T11:47:33.000Z</Time>
            <Position>
              <LatitudeDegrees>41.35976199992001056671142578125</LatitudeDegrees>
              <LongitudeDegrees>-1.64810704998672008514404296875</LongitudeDegrees>
            </Position>
            <AltitudeMeters>577.4000244140625</AltitudeMeters>
            <DistanceMeters>22268.02156238</DistanceMeters>
          </Trackpoint>
          <Trackpoint>
            <Time>2022-11-06T11:47:34.000Z</Time>
            <Position>
              <LatitudeDegrees>41.35979385115206241607666015625</LatitudeDegrees>
              <LongitudeDegrees>-1.64811794646084308624267578125</LongitudeDegrees>
            </Position>
            <AltitudeMeters>577.4000244140625</AltitudeMeters>
            <DistanceMeters>22271.682249944</DistanceMeters>
          </Trackpoint>
          <Trackpoint>
            <Time>2022-11-06T11:47:35.000Z</Time>
            <Position>
              <LatitudeDegrees>41.3598345033824443817138671875</LatitudeDegrees>
              <LongitudeDegrees>-1.64812968112528324127197265625</LongitudeDegrees>
            </Position>
            <AltitudeMeters>577.5999755859375</AltitudeMeters>
            <DistanceMeters>22276.311328837</DistanceMeters>
          </Trackpoint>
          <Trackpoint>
            <Time>2022-11-06T11:47:36.000Z</Time>
            <Position>
              <LatitudeDegrees>41.35988504625856876373291015625</LatitudeDegrees>
              <LongitudeDegrees>-1.64814108051359653472900390625</LongitudeDegrees>
            </Position>
            <AltitudeMeters>577.79998779296875</AltitudeMeters>
            <DistanceMeters>22282.016098377</DistanceMeters>
          </Trackpoint>
          <Trackpoint>
            <Time>2022-11-06T11:47:37.000Z</Time>
            <Position>
              <LatitudeDegrees>41.359916813671588897705078125</LatitudeDegrees>
              <LongitudeDegrees>-1.6481455229222774505615234375</LongitudeDegrees>
            </Position>
            <AltitudeMeters>577.79998779296875</AltitudeMeters>
            <DistanceMeters>22285.571672455</DistanceMeters>
          </Trackpoint>
          <Trackpoint>
            <Time>2022-11-06T11:47:38.000Z</Time>
            <Position>
              <LatitudeDegrees>41.35996316559612751007080078125</LatitudeDegrees>
              <LongitudeDegrees>-1.6481438465416431427001953125</LongitudeDegrees>
            </Position>
            <AltitudeMeters>578</AltitudeMeters>
            <DistanceMeters>22290.73294415</DistanceMeters>
          </Trackpoint>
          <Trackpoint>
            <Time>2022-11-06T11:47:39.000Z</Time>
            <Position>
              <LatitudeDegrees>41.3600028119981288909912109375</LatitudeDegrees>
              <LongitudeDegrees>-1.648148037493228912353515625</LongitudeDegrees>
            </Position>
            <AltitudeMeters>578</AltitudeMeters>
            <DistanceMeters>22295.159598178</DistanceMeters>
          </Trackpoint>
          <Trackpoint>
            <Time>2022-11-06T11:47:40.000Z</Time>
            <Position>
              <LatitudeDegrees>41.36003910563886165618896484375</LatitudeDegrees>
              <LongitudeDegrees>-1.6481539048254489898681640625</LongitudeDegrees>
            </Position>
            <AltitudeMeters>578</AltitudeMeters>
            <DistanceMeters>22299.226919169</DistanceMeters>
          </Trackpoint>
          <Trackpoint>
            <Time>2022-11-06T11:47:41.000Z</Time>
            <Position>
              <LatitudeDegrees>41.3600759021937847137451171875</LatitudeDegrees>
              <LongitudeDegrees>-1.648154743015766143798828125</LongitudeDegrees>
            </Position>
            <AltitudeMeters>578.20001220703125</AltitudeMeters>
            <DistanceMeters>22303.323000471</DistanceMeters>
          </Trackpoint>
          <Trackpoint>
            <Time>2022-11-06T11:47:42.000Z</Time>
            <Position>
              <LatitudeDegrees>41.36011823080480098724365234375</LatitudeDegrees>
              <LongitudeDegrees>-1.6481485404074192047119140625</LongitudeDegrees>
            </Position>
            <AltitudeMeters>578.20001220703125</AltitudeMeters>
            <DistanceMeters>22308.062919267</DistanceMeters>
          </Trackpoint>
          <Trackpoint>
            <Time>2022-11-06T11:47:43.000Z</Time>
            <Position>
              <LatitudeDegrees>41.36016483418643474578857421875</LatitudeDegrees>
              <LongitudeDegrees>-1.64813806302845478057861328125</LongitudeDegrees>
            </Position>
            <AltitudeMeters>578.4000244140625</AltitudeMeters>
            <DistanceMeters>22313.322113516</DistanceMeters>
          </Trackpoint>
          <Trackpoint>
            <Time>2022-11-06T11:47:44.000Z</Time>
            <Position>
              <LatitudeDegrees>41.3602180592715740203857421875</LatitudeDegrees>
              <LongitudeDegrees>-1.6481203772127628326416015625</LongitudeDegrees>
            </Position>
            <AltitudeMeters>578.4000244140625</AltitudeMeters>
            <DistanceMeters>22319.426794137</DistanceMeters>
          </Trackpoint>
          <Trackpoint>
            <Time>2022-11-06T11:47:45.000Z</Time>
            <Position>
              <LatitudeDegrees>41.36025150306522846221923828125</LatitudeDegrees>
              <LongitudeDegrees>-1.64809816516935825347900390625</LongitudeDegrees>
            </Position>
            <AltitudeMeters>578.5999755859375</AltitudeMeters>
            <DistanceMeters>22323.584145014</DistanceMeters>
          </Trackpoint>
          <Trackpoint>
            <Time>2022-11-06T11:47:46.000Z</Time>
            <Position>
              <LatitudeDegrees>41.36028469540178775787353515625</LatitudeDegrees>
              <LongitudeDegrees>-1.64806916378438472747802734375</LongitudeDegrees>
            </Position>
            <AltitudeMeters>578.79998779296875</AltitudeMeters>
            <DistanceMeters>22328.002631777</DistanceMeters>
          </Trackpoint>
          <Trackpoint>
            <Time>2022-11-06T11:47:47.000Z</Time>
            <Position>
              <LatitudeDegrees>41.3603226654231548309326171875</LatitudeDegrees>
              <LongitudeDegrees>-1.64802960120141506195068359375</LongitudeDegrees>
            </Position>
            <AltitudeMeters>579</AltitudeMeters>
            <DistanceMeters>22333.368907373</DistanceMeters>
          </Trackpoint>
          <Trackpoint>
            <Time>2022-11-06T11:47:48.000Z</Time>
            <Position>
              <LatitudeDegrees>41.360352672636508941650390625</LatitudeDegrees>
              <LongitudeDegrees>-1.6480000130832195281982421875</LongitudeDegrees>
            </Position>
            <AltitudeMeters>579.20001220703125</AltitudeMeters>
            <DistanceMeters>22337.525172071</DistanceMeters>
          </Trackpoint>
          <Trackpoint>
            <Time>2022-11-06T11:47:49.000Z</Time>
            <Position>
              <LatitudeDegrees>41.36037589050829410552978515625</LatitudeDegrees>
              <LongitudeDegrees>-1.6479762084782123565673828125</LongitudeDegrees>
            </Position>
            <AltitudeMeters>579.4000244140625</AltitudeMeters>
            <DistanceMeters>22340.786679399</DistanceMeters>
          </Trackpoint>
          <Trackpoint>
            <Time>2022-11-06T11:47:50.000Z</Time>
            <Position>
              <LatitudeDegrees>41.3604041375219821929931640625</LatitudeDegrees>
              <LongitudeDegrees>-1.64794586598873138427734375</LongitudeDegrees>
            </Position>
            <AltitudeMeters>579.5999755859375</AltitudeMeters>
            <DistanceMeters>22344.826153144</DistanceMeters>
          </Trackpoint>
          <Trackpoint>
            <Time>2022-11-06T11:47:51.000Z</Time>
            <Position>
              <LatitudeDegrees>41.36043020524084568023681640625</LatitudeDegrees>
              <LongitudeDegrees>-1.64791879244148731231689453125</LongitudeDegrees>
            </Position>
            <AltitudeMeters>579.79998779296875</AltitudeMeters>
            <DistanceMeters>22348.504067568</DistanceMeters>
          </Trackpoint>
          <Trackpoint>
            <Time>2022-11-06T11:47:52.000Z</Time>
            <Position>
              <LatitudeDegrees>41.36045585386455059051513671875</LatitudeDegrees>
              <LongitudeDegrees>-1.64789088070392608642578125</LongitudeDegrees>
            </Position>
            <AltitudeMeters>580</AltitudeMeters>
            <DistanceMeters>22352.189340281</DistanceMeters>
          </Trackpoint>
          <Trackpoint>
            <Time>2022-11-06T11:47:53.000Z</Time>
            <Position>
              <LatitudeDegrees>41.360482089221477508544921875</LatitudeDegrees>
              <LongitudeDegrees>-1.6478531621396541595458984375</LongitudeDegrees>
            </Position>
            <AltitudeMeters>580.20001220703125</AltitudeMeters>
            <DistanceMeters>22356.485556786</DistanceMeters>
          </Trackpoint>
          <Trackpoint>
            <Time>2022-11-06T11:47:54.000Z</Time>
            <Position>
              <LatitudeDegrees>41.3604990206658840179443359375</LatitudeDegrees>
              <LongitudeDegrees>-1.64783053100109100341796875</LongitudeDegrees>
            </Position>
            <AltitudeMeters>580.4000244140625</AltitudeMeters>
            <DistanceMeters>22359.156466816</DistanceMeters>
          </Trackpoint>
          <Trackpoint>
            <Time>2022-11-06T11:47:55.000Z</Time>
            <Position>
              <LatitudeDegrees>41.36052106507122516632080078125</LatitudeDegrees>
              <LongitudeDegrees>-1.6478052176535129547119140625</LongitudeDegrees>
            </Position>
            <AltitudeMeters>580.5999755859375</AltitudeMeters>
            <DistanceMeters>22362.395748963</DistanceMeters>
          </Trackpoint>
          <Trackpoint>
            <Time>2022-11-06T11:47:56.000Z</Time>
            <Position>
              <LatitudeDegrees>41.36054076254367828369140625</LatitudeDegrees>
              <LongitudeDegrees>-1.64778367616236209869384765625</LongitudeDegrees>
            </Position>
            <AltitudeMeters>580.79998779296875</AltitudeMeters>
            <DistanceMeters>22365.233851884</DistanceMeters>
          </Trackpoint>
          <Trackpoint>
            <Time>2022-11-06T11:47:57.000Z</Time>
            <Position>
              <LatitudeDegrees>41.360557191073894500732421875</LatitudeDegrees>
              <LongitudeDegrees>-1.6477609612047672271728515625</LongitudeDegrees>
            </Position>
            <AltitudeMeters>581</AltitudeMeters>
            <DistanceMeters>22367.870736193</DistanceMeters>
          </Trackpoint>
          <Trackpoint>
            <Time>2022-11-06T11:47:58.000Z</Time>
            <Position>
              <LatitudeDegrees>41.36057504452764987945556640625</LatitudeDegrees>
              <LongitudeDegrees>-1.64773774333298206329345703125</LongitudeDegrees>
            </Position>
            <AltitudeMeters>581.20001220703125</AltitudeMeters>
            <DistanceMeters>22370.647728322</DistanceMeters>
          </Trackpoint>
          <Trackpoint>
            <Time>2022-11-06T11:47:59.000Z</Time>
            <Position>
              <LatitudeDegrees>41.3605902157723903656005859375</LatitudeDegrees>
              <LongitudeDegrees>-1.64771645329892635345458984375</LongitudeDegrees>
            </Position>
            <AltitudeMeters>581.4000244140625</AltitudeMeters>
            <DistanceMeters>22373.10008044</DistanceMeters>
          </Trackpoint>
          <Trackpoint>
            <Time>2022-11-06T11:48:00.000Z</Time>
            <Position>
              <LatitudeDegrees>41.3606053031980991363525390625</LatitudeDegrees>
              <LongitudeDegrees>-1.64769700728356838226318359375</LongitudeDegrees>
            </Position>
            <AltitudeMeters>581.79998779296875</AltitudeMeters>
            <DistanceMeters>22375.437428563</DistanceMeters>
          </Trackpoint>
          <Trackpoint>
            <Time>2022-11-06T11:48:01.000Z</Time>
            <Position>
              <LatitudeDegrees>41.36061745695769786834716796875</LatitudeDegrees>
              <LongitudeDegrees>-1.64767630398273468017578125</LongitudeDegrees>
            </Position>
            <AltitudeMeters>582</AltitudeMeters>
            <DistanceMeters>22377.631290625</DistanceMeters>
          </Trackpoint>
          <Trackpoint>
            <Time>2022-11-06T11:48:02.000Z</Time>
            <Position>
              <LatitudeDegrees>41.3606304489076137542724609375</LatitudeDegrees>
              <LongitudeDegrees>-1.64765442721545696258544921875</LongitudeDegrees>
            </Position>
            <AltitudeMeters>582.20001220703125</AltitudeMeters>
            <DistanceMeters>22379.960899163</DistanceMeters>
          </Trackpoint>
          <Trackpoint>
            <Time>2022-11-06T11:48:03.000Z</Time>
            <Position>
              <LatitudeDegrees>41.36064277030527591705322265625</LatitudeDegrees>
              <LongitudeDegrees>-1.64763364009559154510498046875</LongitudeDegrees>
            </Position>
            <AltitudeMeters>582.4000244140625</AltitudeMeters>
            <DistanceMeters>22382.173205976</DistanceMeters>
          </Trackpoint>
          <Trackpoint>
            <Time>2022-11-06T11:48:04.000Z</Time>
            <Position>
              <LatitudeDegrees>41.36065634898841381072998046875</LatitudeDegrees>
              <LongitudeDegrees>-1.6476114280521869659423828125</LongitudeDegrees>
            </Position>
            <AltitudeMeters>582.79998779296875</AltitudeMeters>
            <DistanceMeters>22384.565917506</DistanceMeters>
          </Trackpoint>
          <Trackpoint>
            <Time>2022-11-06T11:48:05.000Z</Time>
            <Position>
              <LatitudeDegrees>41.36067084968090057373046875</LatitudeDegrees>
              <LongitudeDegrees>-1.64759047329425811767578125</LongitudeDegrees>
            </Position>
            <AltitudeMeters>583</AltitudeMeters>
            <DistanceMeters>22386.947280142</DistanceMeters>
          </Trackpoint>
          <Trackpoint>
            <Time>2022-11-06T11:48:06.000Z</Time>
            <Position>
              <LatitudeDegrees>41.36068669147789478302001953125</LatitudeDegrees>
              <LongitudeDegrees>-1.64757169783115386962890625</LongitudeDegrees>
            </Position>
            <AltitudeMeters>583.4000244140625</AltitudeMeters>
            <DistanceMeters>22389.305781168</DistanceMeters>
          </Trackpoint>
          <Trackpoint>
            <Time>2022-11-06T11:48:07.000Z</Time>
            <Position>
              <LatitudeDegrees>41.360700689256191253662109375</LatitudeDegrees>
              <LongitudeDegrees>-1.64755200035870075225830078125</LongitudeDegrees>
            </Position>
            <AltitudeMeters>583.5999755859375</AltitudeMeters>
            <DistanceMeters>22391.572521889</DistanceMeters>
          </Trackpoint>
          <Trackpoint>
            <Time>2022-11-06T11:48:08.000Z</Time>
            <Position>
              <LatitudeDegrees>41.3607146032154560089111328125</LatitudeDegrees>
              <LongitudeDegrees>-1.6475296206772327423095703125</LongitudeDegrees>
            </Position>
            <AltitudeMeters>583.79998779296875</AltitudeMeters>
            <DistanceMeters>22393.998961636</DistanceMeters>
          </Trackpoint>
          <Trackpoint>
            <Time>2022-11-06T11:48:09.000Z</Time>
            <Position>
              <LatitudeDegrees>41.36072776280343532562255859375</LatitudeDegrees>
              <LongitudeDegrees>-1.6475118510425090789794921875</LongitudeDegrees>
            </Position>
            <AltitudeMeters>584</AltitudeMeters>
            <DistanceMeters>22396.085225484</DistanceMeters>
          </Trackpoint>
          <Trackpoint>
            <Time>2022-11-06T11:48:10.000Z</Time>
            <Position>
              <LatitudeDegrees>41.36073849163949489593505859375</LatitudeDegrees>
              <LongitudeDegrees>-1.64749181829392910003662109375</LongitudeDegrees>
            </Position>
            <AltitudeMeters>584.20001220703125</AltitudeMeters>
            <DistanceMeters>22398.140967631</DistanceMeters>
          </Trackpoint>
          <Trackpoint>
            <Time>2022-11-06T11:48:11.000Z</Time>
            <Position>
              <LatitudeDegrees>41.36074737645685672760009765625</LatitudeDegrees>
              <LongitudeDegrees>-1.64747119881212711334228515625</LongitudeDegrees>
            </Position>
            <AltitudeMeters>584.4000244140625</AltitudeMeters>
            <DistanceMeters>22400.122906897</DistanceMeters>
          </Trackpoint>
          <Trackpoint>
            <Time>2022-11-06T11:48:12.000Z</Time>
            <Position>
              <LatitudeDegrees>41.360757686197757720947265625</LatitudeDegrees>
              <LongitudeDegrees>-1.64745057933032512664794921875</LongitudeDegrees>
            </Position>
            <AltitudeMeters>584.4000244140625</AltitudeMeters>
            <DistanceMeters>22402.19178491</DistanceMeters>
          </Trackpoint>
          <Trackpoint>
            <Time>2022-11-06T11:48:13.000Z</Time>
            <Position>
              <LatitudeDegrees>41.36077252216637134552001953125</LatitudeDegrees>
              <LongitudeDegrees>-1.6474317200481891632080078125</LongitudeDegrees>
            </Position>
            <AltitudeMeters>584.5999755859375</AltitudeMeters>
            <DistanceMeters>22404.47440492</DistanceMeters>
          </Trackpoint>
          <Trackpoint>
            <Time>2022-11-06T11:48:14.000Z</Time>
            <Position>
              <LatitudeDegrees>41.36078350245952606201171875</LatitudeDegrees>
              <LongitudeDegrees>-1.6474109329283237457275390625</LongitudeDegrees>
            </Position>
            <AltitudeMeters>584.79998779296875</AltitudeMeters>
            <DistanceMeters>22406.597140925</DistanceMeters>
          </Trackpoint>
          <Trackpoint>
            <Time>2022-11-06T11:48:15.000Z</Time>
            <Position>
              <LatitudeDegrees>41.36078895069658756256103515625</LatitudeDegrees>
              <LongitudeDegrees>-1.64738888852298259735107421875</LongitudeDegrees>
            </Position>
            <AltitudeMeters>585</AltitudeMeters>
            <DistanceMeters>22408.535313208</DistanceMeters>
          </Trackpoint>
          <Trackpoint>
            <Time>2022-11-06T11:48:16.000Z</Time>
            <Position>
              <LatitudeDegrees>41.36079825460910797119140625</LatitudeDegrees>
              <LongitudeDegrees>-1.647368185222148895263671875</LongitudeDegrees>
            </Position>
            <AltitudeMeters>585.20001220703125</AltitudeMeters>
            <DistanceMeters>22410.548893185</DistanceMeters>
          </Trackpoint>
          <Trackpoint>
            <Time>2022-11-06T11:48:17.000Z</Time>
            <Position>
              <LatitudeDegrees>41.3608094863593578338623046875</LatitudeDegrees>
              <LongitudeDegrees>-1.6473502479493618011474609375</LongitudeDegrees>
            </Position>
            <AltitudeMeters>585.4000244140625</AltitudeMeters>
            <DistanceMeters>22412.496361312</DistanceMeters>
          </Trackpoint>
          <Trackpoint>
            <Time>2022-11-06T11:48:18.000Z</Time>
            <Position>
              <LatitudeDegrees>41.36081795208156108856201171875</LatitudeDegrees>
              <LongitudeDegrees>-1.64733524434268474578857421875</LongitudeDegrees>
            </Position>
            <AltitudeMeters>585.5999755859375</AltitudeMeters>
            <DistanceMeters>22414.063582035</DistanceMeters>
          </Trackpoint>
          <Trackpoint>
            <Time>2022-11-06T11:48:19.000Z</Time>
            <Position>
              <LatitudeDegrees>41.36082868091762065887451171875</LatitudeDegrees>
              <LongitudeDegrees>-1.647317223250865936279296875</LongitudeDegrees>
            </Position>
            <AltitudeMeters>585.79998779296875</AltitudeMeters>
            <DistanceMeters>22415.983027577</DistanceMeters>
          </Trackpoint>
          <Trackpoint>
            <Time>2022-11-06T11:48:20.000Z</Time>
            <Position>
              <LatitudeDegrees>41.36084116995334625244140625</LatitudeDegrees>
              <LongitudeDegrees>-1.64729936979711055755615234375</LongitudeDegrees>
            </Position>
            <AltitudeMeters>586</AltitudeMeters>
            <DistanceMeters>22418.021123542</DistanceMeters>
          </Trackpoint>
          <Trackpoint>
            <Time>2022-11-06T11:48:21.000Z</Time>
            <Position>
              <LatitudeDegrees>41.3608493842184543609619140625</LatitudeDegrees>
              <LongitudeDegrees>-1.647280342876911163330078125</LongitudeDegrees>
            </Position>
            <AltitudeMeters>586.20001220703125</AltitudeMeters>
            <DistanceMeters>22419.858852736</DistanceMeters>
          </Trackpoint>
          <Trackpoint>
            <Time>2022-11-06T11:48:22.000Z</Time>
            <Position>
              <LatitudeDegrees>41.3608579337596893310546875</LatitudeDegrees>
              <LongitudeDegrees>-1.6472617350518703460693359375</LongitudeDegrees>
            </Position>
            <AltitudeMeters>586.4000244140625</AltitudeMeters>
            <DistanceMeters>22421.681781186</DistanceMeters>
          </Trackpoint>
          <Trackpoint>
            <Time>2022-11-06T11:48:23.000Z</Time>
            <Position>
              <LatitudeDegrees>41.36086522601544857025146484375</LatitudeDegrees>
              <LongitudeDegrees>-1.64724312722682952880859375</LongitudeDegrees>
            </Position>
            <AltitudeMeters>586.4000244140625</AltitudeMeters>
            <DistanceMeters>22423.433987221</DistanceMeters>
          </Trackpoint>
          <Trackpoint>
            <Time>2022-11-06T11:48:24.000Z</Time>
            <Position>
              <LatitudeDegrees>41.36087411083281040191650390625</LatitudeDegrees>
              <LongitudeDegrees>-1.6472231782972812652587890625</LongitudeDegrees>
            </Position>
            <AltitudeMeters>586.5999755859375</AltitudeMeters>
            <DistanceMeters>22425.372159505</DistanceMeters>
          </Trackpoint>
          <Trackpoint>
            <Time>2022-11-06T11:48:25.000Z</Time>
            <Position>
              <LatitudeDegrees>41.360885761678218841552734375</LatitudeDegrees>
              <LongitudeDegrees>-1.64720817469060420989990234375</LongitudeDegrees>
            </Position>
            <AltitudeMeters>587</AltitudeMeters>
            <DistanceMeters>22427.17516464</DistanceMeters>
          </Trackpoint>
          <Trackpoint>
            <Time>2022-11-06T11:48:26.000Z</Time>
            <Position>
              <LatitudeDegrees>41.360899843275547027587890625</LatitudeDegrees>
              <LongitudeDegrees>-1.64719727821648120880126953125</LongitudeDegrees>
            </Position>
            <AltitudeMeters>587.20001220703125</AltitudeMeters>
            <DistanceMeters>22428.985666711</DistanceMeters>
          </Trackpoint>
          <Trackpoint>
            <Time>2022-11-06T11:48:27.000Z</Time>
            <Position>
              <LatitudeDegrees>41.3609142601490020751953125</LatitudeDegrees>
              <LongitudeDegrees>-1.64718453772366046905517578125</LongitudeDegrees>
            </Position>
            <AltitudeMeters>587.4000244140625</AltitudeMeters>
            <DistanceMeters>22430.912156114</DistanceMeters>
          </Trackpoint>
          <Trackpoint>
            <Time>2022-11-06T11:48:28.000Z</Time>
            <Position>
              <LatitudeDegrees>41.3609244860708713531494140625</LatitudeDegrees>
              <LongitudeDegrees>-1.64716945029795169830322265625</LongitudeDegrees>
            </Position>
            <AltitudeMeters>587.5999755859375</AltitudeMeters>
            <DistanceMeters>22432.612045658</DistanceMeters>
          </Trackpoint>
          <Trackpoint>
            <Time>2022-11-06T11:48:29.000Z</Time>
            <Position>
              <LatitudeDegrees>41.3609311915934085845947265625</LatitudeDegrees>
              <LongitudeDegrees>-1.64715536870062351226806640625</LongitudeDegrees>
            </Position>
            <AltitudeMeters>588</AltitudeMeters>
            <DistanceMeters>22434.005410806</DistanceMeters>
          </Trackpoint>
          <Trackpoint>
            <Time>2022-11-06T11:48:30.000Z</Time>
            <Position>
              <LatitudeDegrees>41.3609435968101024627685546875</LatitudeDegrees>
              <LongitudeDegrees>-1.6471393592655658721923828125</LongitudeDegrees>
            </Position>
            <AltitudeMeters>588.4000244140625</AltitudeMeters>
            <DistanceMeters>22435.92720717</DistanceMeters>
          </Trackpoint>
          <Trackpoint>
            <Time>2022-11-06T11:48:31.000Z</Time>
            <Position>
              <LatitudeDegrees>41.360954158008098602294921875</LatitudeDegrees>
              <LongitudeDegrees>-1.64712376892566680908203125</LongitudeDegrees>
            </Position>
            <AltitudeMeters>588.5999755859375</AltitudeMeters>
            <DistanceMeters>22437.681988087</DistanceMeters>
          </Trackpoint>
          <Trackpoint>
            <Time>2022-11-06T11:48:32.000Z</Time>
            <Position>
              <LatitudeDegrees>41.360964886844158172607421875</LatitudeDegrees>
              <LongitudeDegrees>-1.6471122018992900848388671875</LongitudeDegrees>
            </Position>
            <AltitudeMeters>588.5999755859375</AltitudeMeters>
            <DistanceMeters>22439.220129833</DistanceMeters>
          </Trackpoint>
          <Trackpoint>
            <Time>2022-11-06T11:48:33.000Z</Time>
            <Position>
              <LatitudeDegrees>41.3609761185944080352783203125</LatitudeDegrees>
              <LongitudeDegrees>-1.6471034847199916839599609375</LongitudeDegrees>
            </Position>
            <AltitudeMeters>589</AltitudeMeters>
            <DistanceMeters>22440.667533624</DistanceMeters>
          </Trackpoint>
          <Trackpoint>
            <Time>2022-11-06T11:48:34.000Z</Time>
            <Position>
              <LatitudeDegrees>41.360990367829799652099609375</LatitudeDegrees>
              <LongitudeDegrees>-1.64709602482616901397705078125</LongitudeDegrees>
            </Position>
            <AltitudeMeters>589</AltitudeMeters>
            <DistanceMeters>22442.372727048</DistanceMeters>
          </Trackpoint>
          <Trackpoint>
            <Time>2022-11-06T11:48:35.000Z</Time>
            <Position>
              <LatitudeDegrees>41.36100721545517444610595703125</LatitudeDegrees>
              <LongitudeDegrees>-1.647084541618824005126953125</LongitudeDegrees>
            </Position>
            <AltitudeMeters>589.20001220703125</AltitudeMeters>
            <DistanceMeters>22444.480521538</DistanceMeters>
          </Trackpoint>
          <Trackpoint>
            <Time>2022-11-06T11:48:36.000Z</Time>
            <Position>
              <LatitudeDegrees>41.36102012358605861663818359375</LatitudeDegrees>
              <LongitudeDegrees>-1.6470746509730815887451171875</LongitudeDegrees>
            </Position>
            <AltitudeMeters>589.5999755859375</AltitudeMeters>
            <DistanceMeters>22446.134641595</DistanceMeters>
          </Trackpoint>
          <Trackpoint>
            <Time>2022-11-06T11:48:37.000Z</Time>
            <Position>
              <LatitudeDegrees>41.36102984659373760223388671875</LatitudeDegrees>
              <LongitudeDegrees>-1.647061072289943695068359375</LongitudeDegrees>
            </Position>
            <AltitudeMeters>590</AltitudeMeters>
            <DistanceMeters>22447.701862317</DistanceMeters>
          </Trackpoint>
          <Trackpoint>
            <Time>2022-11-06T11:48:38.000Z</Time>
            <Position>
              <LatitudeDegrees>41.3610371388494968414306640625</LatitudeDegrees>
              <LongitudeDegrees>-1.6470427997410297393798828125</LongitudeDegrees>
            </Position>
            <AltitudeMeters>590.20001220703125</AltitudeMeters>
            <DistanceMeters>22449.42810831</DistanceMeters>
          </Trackpoint>
          <Trackpoint>
            <Time>2022-11-06T11:48:39.000Z</Time>
            <Position>
              <LatitudeDegrees>41.3610470294952392578125</LatitudeDegrees>
              <LongitudeDegrees>-1.6470297239720821380615234375</LongitudeDegrees>
            </Position>
            <AltitudeMeters>590.5999755859375</AltitudeMeters>
            <DistanceMeters>22450.977947119</DistanceMeters>
          </Trackpoint>
          <Trackpoint>
            <Time>2022-11-06T11:48:40.000Z</Time>
            <Position>
              <LatitudeDegrees>41.361060105264186859130859375</LatitudeDegrees>
              <LongitudeDegrees>-1.64701824076473712921142578125</LongitudeDegrees>
            </Position>
            <AltitudeMeters>590.79998779296875</AltitudeMeters>
            <DistanceMeters>22452.719815565</DistanceMeters>
          </Trackpoint>
          <Trackpoint>
            <Time>2022-11-06T11:48:41.000Z</Time>
            <Position>
              <LatitudeDegrees>41.361073516309261322021484375</LatitudeDegrees>
              <LongitudeDegrees>-1.64700298570096492767333984375</LongitudeDegrees>
            </Position>
            <AltitudeMeters>591</AltitudeMeters>
            <DistanceMeters>22454.685743519</DistanceMeters>
          </Trackpoint>
          <Trackpoint>
            <Time>2022-11-06T11:48:42.000Z</Time>
            <Position>
              <LatitudeDegrees>41.3610857538878917694091796875</LatitudeDegrees>
              <LongitudeDegrees>-1.64698773063719272613525390625</LongitudeDegrees>
            </Position>
            <AltitudeMeters>591</AltitudeMeters>
            <DistanceMeters>22456.55272223</DistanceMeters>
          </Trackpoint>
          <Trackpoint>
            <Time>2022-11-06T11:48:43.000Z</Time>
            <Position>
              <LatitudeDegrees>41.36109606362879276275634765625</LatitudeDegrees>
              <LongitudeDegrees>-1.6469750739634037017822265625</LongitudeDegrees>
            </Position>
            <AltitudeMeters>591.4000244140625</AltitudeMeters>
            <DistanceMeters>22458.114170481</DistanceMeters>
          </Trackpoint>
          <Trackpoint>
            <Time>2022-11-06T11:48:44.000Z</Time>
            <Position>
              <LatitudeDegrees>41.36110930703580379486083984375</LatitudeDegrees>
              <LongitudeDegrees>-1.64696007035672664642333984375</LongitudeDegrees>
            </Position>
            <AltitudeMeters>591.5999755859375</AltitudeMeters>
            <DistanceMeters>22460.047678083</DistanceMeters>
          </Trackpoint>
          <Trackpoint>
            <Time>2022-11-06T11:48:45.000Z</Time>
            <Position>
              <LatitudeDegrees>41.36112037114799022674560546875</LatitudeDegrees>
              <LongitudeDegrees>-1.64694515056908130645751953125</LongitudeDegrees>
            </Position>
            <AltitudeMeters>591.79998779296875</AltitudeMeters>
            <DistanceMeters>22461.799884118</DistanceMeters>
          </Trackpoint>
          <Trackpoint>
            <Time>2022-11-06T11:48:46.000Z</Time>
            <Position>
              <LatitudeDegrees>41.36112992651760578155517578125</LatitudeDegrees>
              <LongitudeDegrees>-1.64693425409495830535888671875</LongitudeDegrees>
            </Position>
            <AltitudeMeters>592.20001220703125</AltitudeMeters>
            <DistanceMeters>22463.196485891</DistanceMeters>
          </Trackpoint>
          <Trackpoint>
            <Time>2022-11-06T11:48:47.000Z</Time>
            <Position>
              <LatitudeDegrees>41.36113948188722133636474609375</LatitudeDegrees>
              <LongitudeDegrees>-1.6469204239547252655029296875</LongitudeDegrees>
            </Position>
            <AltitudeMeters>592.4000244140625</AltitudeMeters>
            <DistanceMeters>22464.766584891</DistanceMeters>
          </Trackpoint>
          <Trackpoint>
            <Time>2022-11-06T11:48:48.000Z</Time>
            <Position>
              <LatitudeDegrees>41.3611502945423126220703125</LatitudeDegrees>
              <LongitudeDegrees>-1.64690525270998477935791015625</LongitudeDegrees>
            </Position>
            <AltitudeMeters>592.5999755859375</AltitudeMeters>
            <DistanceMeters>22466.513629778</DistanceMeters>
          </Trackpoint>
          <Trackpoint>
            <Time>2022-11-06T11:48:49.000Z</Time>
            <Position>
              <LatitudeDegrees>41.36116881854832172393798828125</LatitudeDegrees>
              <LongitudeDegrees>-1.64688848890364170074462890625</LongitudeDegrees>
            </Position>
            <AltitudeMeters>592.79998779296875</AltitudeMeters>
            <DistanceMeters>22469.006157129</DistanceMeters>
          </Trackpoint>
          <Trackpoint>
            <Time>2022-11-06T11:48:50.000Z</Time>
            <Position>
              <LatitudeDegrees>41.36117644608020782470703125</LatitudeDegrees>
              <LongitudeDegrees>-1.6468781791627407073974609375</LongitudeDegrees>
            </Position>
            <AltitudeMeters>593.20001220703125</AltitudeMeters>
            <DistanceMeters>22470.215649743</DistanceMeters>
          </Trackpoint>
          <Trackpoint>
            <Time>2022-11-06T11:48:51.000Z</Time>
            <Position>
              <LatitudeDegrees>41.36118449270725250244140625</LatitudeDegrees>
              <LongitudeDegrees>-1.64686652831733226776123046875</LongitudeDegrees>
            </Position>
            <AltitudeMeters>593.4000244140625</AltitudeMeters>
            <DistanceMeters>22471.539218718</DistanceMeters>
          </Trackpoint>
          <Trackpoint>
            <Time>2022-11-06T11:48:52.000Z</Time>
            <Position>
              <LatitudeDegrees>41.36119144968688488006591796875</LatitudeDegrees>
              <LongitudeDegrees>-1.64685781113803386688232421875</LongitudeDegrees>
            </Position>
            <AltitudeMeters>593.4000244140625</AltitudeMeters>
            <DistanceMeters>22472.605890941</DistanceMeters>
          </Trackpoint>
          <Trackpoint>
            <Time>2022-11-06T11:48:53.000Z</Time>
            <Position>
              <LatitudeDegrees>41.3611994124948978424072265625</LatitudeDegrees>
              <LongitudeDegrees>-1.64685060270130634307861328125</LongitudeDegrees>
            </Position>
            <AltitudeMeters>593.5999755859375</AltitudeMeters>
            <DistanceMeters>22473.680995487</DistanceMeters>
          </Trackpoint>
          <Trackpoint>
            <Time>2022-11-06T11:48:54.000Z</Time>
            <Position>
              <LatitudeDegrees>41.36121391318738460540771484375</LatitudeDegrees>
              <LongitudeDegrees>-1.6468369401991367340087890625</LongitudeDegrees>
            </Position>
            <AltitudeMeters>593.79998779296875</AltitudeMeters>
            <DistanceMeters>22475.658373321</DistanceMeters>
          </Trackpoint>
          <Trackpoint>
            <Time>2022-11-06T11:48:55.000Z</Time>
            <Position>
              <LatitudeDegrees>41.36122598312795162200927734375</LatitudeDegrees>
              <LongitudeDegrees>-1.6468226909637451171875</LongitudeDegrees>
            </Position>
            <AltitudeMeters>594</AltitudeMeters>
            <DistanceMeters>22477.453850219</DistanceMeters>
          </Trackpoint>
          <Trackpoint>
            <Time>2022-11-06T11:48:56.000Z</Time>
            <Position>
              <LatitudeDegrees>41.361237131059169769287109375</LatitudeDegrees>
              <LongitudeDegrees>-1.6468114592134952545166015625</LongitudeDegrees>
            </Position>
            <AltitudeMeters>594.20001220703125</AltitudeMeters>
            <DistanceMeters>22479.009504579</DistanceMeters>
          </Trackpoint>
          <Trackpoint>
            <Time>2022-11-06T11:48:57.000Z</Time>
            <Position>
              <LatitudeDegrees>41.36124962009489536285400390625</LatitudeDegrees>
              <LongitudeDegrees>-1.6468044184148311614990234375</LongitudeDegrees>
            </Position>
            <AltitudeMeters>594.4000244140625</AltitudeMeters>
            <DistanceMeters>22480.518006904</DistanceMeters>
          </Trackpoint>
          <Trackpoint>
            <Time>2022-11-06T11:48:58.000Z</Time>
            <Position>
              <LatitudeDegrees>41.361264288425445556640625</LatitudeDegrees>
              <LongitudeDegrees>-1.64679846726357936859130859375</LongitudeDegrees>
            </Position>
            <AltitudeMeters>594.5999755859375</AltitudeMeters>
            <DistanceMeters>22482.228487762</DistanceMeters>
          </Trackpoint>
          <Trackpoint>
            <Time>2022-11-06T11:48:59.000Z</Time>
            <Position>
              <LatitudeDegrees>41.36127526871860027313232421875</LatitudeDegrees>
              <LongitudeDegrees>-1.64678975008428096771240234375</LongitudeDegrees>
            </Position>
            <AltitudeMeters>594.5999755859375</AltitudeMeters>
            <DistanceMeters>22483.650717393</DistanceMeters>
          </Trackpoint>
          <Trackpoint>
            <Time>2022-11-06T11:49:00.000Z</Time>
            <Position>
              <LatitudeDegrees>41.36128842830657958984375</LatitudeDegrees>
              <LongitudeDegrees>-1.64678421802818775177001953125</LongitudeDegrees>
            </Position>
            <AltitudeMeters>595</AltitudeMeters>
            <DistanceMeters>22485.182977122</DistanceMeters>
          </Trackpoint>
          <Trackpoint>
            <Time>2022-11-06T11:49:01.000Z</Time>
            <Position>
              <LatitudeDegrees>41.361301504075527191162109375</LatitudeDegrees>
              <LongitudeDegrees>-1.64678136818110942840576171875</LongitudeDegrees>
            </Position>
            <AltitudeMeters>595.20001220703125</AltitudeMeters>
            <DistanceMeters>22486.655124651</DistanceMeters>
          </Trackpoint>
          <Trackpoint>
            <Time>2022-11-06T11:49:02.000Z</Time>
            <Position>
              <LatitudeDegrees>41.361316926777362823486328125</LatitudeDegrees>
              <LongitudeDegrees>-1.64677298627793788909912109375</LongitudeDegrees>
            </Position>
            <AltitudeMeters>595.20001220703125</AltitudeMeters>
            <DistanceMeters>22488.509972117</DistanceMeters>
          </Trackpoint>
          <Trackpoint>
            <Time>2022-11-06T11:49:03.000Z</Time>
            <Position>
              <LatitudeDegrees>41.3613288290798664093017578125</LatitudeDegrees>
              <LongitudeDegrees>-1.64676561020314693450927734375</LongitudeDegrees>
            </Position>
            <AltitudeMeters>595.4000244140625</AltitudeMeters>
            <DistanceMeters>22489.969800203</DistanceMeters>
          </Trackpoint>
          <Trackpoint>
            <Time>2022-11-06T11:49:04.000Z</Time>
            <Position>
              <LatitudeDegrees>41.3613422401249408721923828125</LatitudeDegrees>
              <LongitudeDegrees>-1.646762676537036895751953125</LongitudeDegrees>
            </Position>
            <AltitudeMeters>595.5999755859375</AltitudeMeters>
            <DistanceMeters>22491.484276818</DistanceMeters>
          </Trackpoint>
          <Trackpoint>
            <Time>2022-11-06T11:49:05.000Z</Time>
            <Position>
              <LatitudeDegrees>41.3613539747893810272216796875</LatitudeDegrees>
              <LongitudeDegrees>-1.64675605483353137969970703125</LongitudeDegrees>
            </Position>
            <AltitudeMeters>596</AltitudeMeters>
            <DistanceMeters>22492.906506449</DistanceMeters>
          </Trackpoint>
          <Trackpoint>
            <Time>2022-11-06T11:49:06.000Z</Time>
            <Position>
              <LatitudeDegrees>41.36136495508253574371337890625</LatitudeDegrees>
              <LongitudeDegrees>-1.646750606596469879150390625</LongitudeDegrees>
            </Position>
            <AltitudeMeters>596.20001220703125</AltitudeMeters>
            <DistanceMeters>22494.209447112</DistanceMeters>
          </Trackpoint>
          <Trackpoint>
            <Time>2022-11-06T11:49:07.000Z</Time>
            <Position>
              <LatitudeDegrees>41.3613787852227687835693359375</LatitudeDegrees>
              <LongitudeDegrees>-1.6467430628836154937744140625</LongitudeDegrees>
            </Position>
            <AltitudeMeters>596.20001220703125</AltitudeMeters>
            <DistanceMeters>22495.871735713</DistanceMeters>
          </Trackpoint>
          <Trackpoint>
            <Time>2022-11-06T11:49:08.000Z</Time>
            <Position>
              <LatitudeDegrees>41.36138834059238433837890625</LatitudeDegrees>
              <LongitudeDegrees>-1.64674147032201290130615234375</LongitudeDegrees>
            </Position>
            <AltitudeMeters>596.4000244140625</AltitudeMeters>
            <DistanceMeters>22496.946840259</DistanceMeters>
          </Trackpoint>
          <Trackpoint>
            <Time>2022-11-06T11:49:09.000Z</Time>
            <Position>
              <LatitudeDegrees>41.36140703223645687103271484375</LatitudeDegrees>
              <LongitudeDegrees>-1.64673711173236370086669921875</LongitudeDegrees>
            </Position>
            <AltitudeMeters>596.5999755859375</AltitudeMeters>
            <DistanceMeters>22499.061051185</DistanceMeters>
          </Trackpoint>
          <Trackpoint>
            <Time>2022-11-06T11:49:10.000Z</Time>
            <Position>
              <LatitudeDegrees>41.36141926981508731842041015625</LatitudeDegrees>
              <LongitudeDegrees>-1.64673811756074428558349609375</LongitudeDegrees>
            </Position>
            <AltitudeMeters>596.79998779296875</AltitudeMeters>
            <DistanceMeters>22500.428247522</DistanceMeters>
          </Trackpoint>
          <Trackpoint>
            <Time>2022-11-06T11:49:11.000Z</Time>
            <Position>
              <LatitudeDegrees>41.36143393814563751220703125</LatitudeDegrees>
              <LongitudeDegrees>-1.6467435657978057861328125</LongitudeDegrees>
            </Position>
            <AltitudeMeters>597</AltitudeMeters>
            <DistanceMeters>22502.122816585</DistanceMeters>
          </Trackpoint>
          <Trackpoint>
            <Time>2022-11-06T11:49:12.000Z</Time>
            <Position>
              <LatitudeDegrees>41.36145078577101230621337890625</LatitudeDegrees>
              <LongitudeDegrees>-1.64674825966358184814453125</LongitudeDegrees>
            </Position>
            <AltitudeMeters>597.20001220703125</AltitudeMeters>
            <DistanceMeters>22504.037551824</DistanceMeters>
          </Trackpoint>
          <Trackpoint>
            <Time>2022-11-06T11:49:13.000Z</Time>
            <Position>
              <LatitudeDegrees>41.36146822012960910797119140625</LatitudeDegrees>
              <LongitudeDegrees>-1.6467462480068206787109375</LongitudeDegrees>
            </Position>
            <AltitudeMeters>597.4000244140625</AltitudeMeters>
            <DistanceMeters>22505.985019951</DistanceMeters>
          </Trackpoint>
          <Trackpoint>
            <Time>2022-11-06T11:49:14.000Z</Time>
            <Position>
              <LatitudeDegrees>41.36147953569889068603515625</LatitudeDegrees>
              <LongitudeDegrees>-1.64673711173236370086669921875</LongitudeDegrees>
            </Position>
            <AltitudeMeters>597.5999755859375</AltitudeMeters>
            <DistanceMeters>22507.45716748</DistanceMeters>
          </Trackpoint>
          <Trackpoint>
            <Time>2022-11-06T11:49:15.000Z</Time>
            <Position>
              <LatitudeDegrees>41.3614914380013942718505859375</LatitudeDegrees>
              <LongitudeDegrees>-1.64672537706792354583740234375</LongitudeDegrees>
            </Position>
            <AltitudeMeters>597.79998779296875</AltitudeMeters>
            <DistanceMeters>22509.103078454</DistanceMeters>
          </Trackpoint>
          <Trackpoint>
            <Time>2022-11-06T11:49:16.000Z</Time>
            <Position>
              <LatitudeDegrees>41.3615065254271030426025390625</LatitudeDegrees>
              <LongitudeDegrees>-1.64670961908996105194091796875</LongitudeDegrees>
            </Position>
            <AltitudeMeters>598</AltitudeMeters>
            <DistanceMeters>22511.238538265</DistanceMeters>
          </Trackpoint>
          <Trackpoint>
            <Time>2022-11-06T11:49:17.000Z</Time>
            <Position>
              <LatitudeDegrees>41.3615172542631626129150390625</LatitudeDegrees>
              <LongitudeDegrees>-1.646700315177440643310546875</LongitudeDegrees>
            </Position>
            <AltitudeMeters>598.4000244140625</AltitudeMeters>
            <DistanceMeters>22512.667103026</DistanceMeters>
          </Trackpoint>
          <Trackpoint>
            <Time>2022-11-06T11:49:18.000Z</Time>
            <Position>
              <LatitudeDegrees>41.36153091676533222198486328125</LatitudeDegrees>
              <LongitudeDegrees>-1.64668925106525421142578125</LongitudeDegrees>
            </Position>
            <AltitudeMeters>598.5999755859375</AltitudeMeters>
            <DistanceMeters>22514.447427949</DistanceMeters>
          </Trackpoint>
          <Trackpoint>
            <Time>2022-11-06T11:49:19.000Z</Time>
            <Position>
              <LatitudeDegrees>41.36153829284012317657470703125</LatitudeDegrees>
              <LongitudeDegrees>-1.6466820426285266876220703125</LongitudeDegrees>
            </Position>
            <AltitudeMeters>598.79998779296875</AltitudeMeters>
            <DistanceMeters>22515.462035614</DistanceMeters>
          </Trackpoint>
          <Trackpoint>
            <Time>2022-11-06T11:49:20.000Z</Time>
            <Position>
              <LatitudeDegrees>41.36155354790389537811279296875</LatitudeDegrees>
              <LongitudeDegrees>-1.64667424745857715606689453125</LongitudeDegrees>
            </Position>
            <AltitudeMeters>599</AltitudeMeters>
            <DistanceMeters>22517.280003705</DistanceMeters>
          </Trackpoint>
          <Trackpoint>
            <Time>2022-11-06T11:49:21.000Z</Time>
            <Position>
              <LatitudeDegrees>41.36156628839671611785888671875</LatitudeDegrees>
              <LongitudeDegrees>-1.64666653610765933990478515625</LongitudeDegrees>
            </Position>
            <AltitudeMeters>599.20001220703125</AltitudeMeters>
            <DistanceMeters>22518.835658065</DistanceMeters>
          </Trackpoint>
          <Trackpoint>
            <Time>2022-11-06T11:49:22.000Z</Time>
            <Position>
              <LatitudeDegrees>41.36158070527017116546630859375</LatitudeDegrees>
              <LongitudeDegrees>-1.64666770957410335540771484375</LongitudeDegrees>
            </Position>
            <AltitudeMeters>599.4000244140625</AltitudeMeters>
            <DistanceMeters>22520.442705626</DistanceMeters>
          </Trackpoint>
          <Trackpoint>
            <Time>2022-11-06T11:49:23.000Z</Time>
            <Position>
              <LatitudeDegrees>41.361592523753643035888671875</LatitudeDegrees>
              <LongitudeDegrees>-1.6466719843447208404541015625</LongitudeDegrees>
            </Position>
            <AltitudeMeters>599.79998779296875</AltitudeMeters>
            <DistanceMeters>22521.806595558</DistanceMeters>
          </Trackpoint>
          <Trackpoint>
            <Time>2022-11-06T11:49:24.000Z</Time>
            <Position>
              <LatitudeDegrees>41.361607946455478668212890625</LatitudeDegrees>
              <LongitudeDegrees>-1.6466733254492282867431640625</LongitudeDegrees>
            </Position>
            <AltitudeMeters>600</AltitudeMeters>
            <DistanceMeters>22523.527602552</DistanceMeters>
          </Trackpoint>
          <Trackpoint>
            <Time>2022-11-06T11:49:25.000Z</Time>
            <Position>
              <LatitudeDegrees>41.36162571609020233154296875</LatitudeDegrees>
              <LongitudeDegrees>-1.64667391218245029449462890625</LongitudeDegrees>
            </Position>
            <AltitudeMeters>600.20001220703125</AltitudeMeters>
            <DistanceMeters>22525.507262416</DistanceMeters>
          </Trackpoint>
          <Trackpoint>
            <Time>2022-11-06T11:49:26.000Z</Time>
            <Position>
              <LatitudeDegrees>41.36164239607751369476318359375</LatitudeDegrees>
              <LongitudeDegrees>-1.6466703079640865325927734375</LongitudeDegrees>
            </Position>
            <AltitudeMeters>600.4000244140625</AltitudeMeters>
            <DistanceMeters>22527.388695371</DistanceMeters>
          </Trackpoint>
          <Trackpoint>
            <Time>2022-11-06T11:49:27.000Z</Time>
            <Position>
              <LatitudeDegrees>41.36165446601808071136474609375</LatitudeDegrees>
              <LongitudeDegrees>-1.64666787721216678619384765625</LongitudeDegrees>
            </Position>
            <AltitudeMeters>600.79998779296875</AltitudeMeters>
            <DistanceMeters>22528.752585304</DistanceMeters>
          </Trackpoint>
          <Trackpoint>
            <Time>2022-11-06T11:49:28.000Z</Time>
            <Position>
              <LatitudeDegrees>41.36166636832058429718017578125</LatitudeDegrees>
              <LongitudeDegrees>-1.64666284807026386260986328125</LongitudeDegrees>
            </Position>
            <AltitudeMeters>601</AltitudeMeters>
            <DistanceMeters>22530.142706291</DistanceMeters>
          </Trackpoint>
          <Trackpoint>
            <Time>2022-11-06T11:49:29.000Z</Time>
            <Position>
              <LatitudeDegrees>41.3616751693189144134521484375</LatitudeDegrees>
              <LongitudeDegrees>-1.646652035415172576904296875</LongitudeDegrees>
            </Position>
            <AltitudeMeters>601.4000244140625</AltitudeMeters>
            <DistanceMeters>22531.473080292</DistanceMeters>
          </Trackpoint>
          <Trackpoint>
            <Time>2022-11-06T11:49:30.000Z</Time>
            <Position>
              <LatitudeDegrees>41.36168279685080051422119140625</LatitudeDegrees>
              <LongitudeDegrees>-1.64663719944655895233154296875</LongitudeDegrees>
            </Position>
            <AltitudeMeters>601.5999755859375</AltitudeMeters>
            <DistanceMeters>22532.975584572</DistanceMeters>
          </Trackpoint>
          <Trackpoint>
            <Time>2022-11-06T11:49:31.000Z</Time>
            <Position>
              <LatitudeDegrees>41.36169436387717723846435546875</LatitudeDegrees>
              <LongitudeDegrees>-1.64662060327827930450439453125</LongitudeDegrees>
            </Position>
            <AltitudeMeters>601.79998779296875</AltitudeMeters>
            <DistanceMeters>22534.866592312</DistanceMeters>
          </Trackpoint>
          <Trackpoint>
            <Time>2022-11-06T11:49:32.000Z</Time>
            <Position>
              <LatitudeDegrees>41.36170526035130023956298828125</LatitudeDegrees>
              <LongitudeDegrees>-1.64661708287894725799560546875</LongitudeDegrees>
            </Position>
            <AltitudeMeters>602</AltitudeMeters>
            <DistanceMeters>22536.116473596</DistanceMeters>
          </Trackpoint>
          <Trackpoint>
            <Time>2022-11-06T11:49:33.000Z</Time>
            <Position>
              <LatitudeDegrees>41.3617170788347721099853515625</LatitudeDegrees>
              <LongitudeDegrees>-1.6466149874031543731689453125</LongitudeDegrees>
            </Position>
            <AltitudeMeters>602.20001220703125</AltitudeMeters>
            <DistanceMeters>22537.443449446</DistanceMeters>
          </Trackpoint>
          <Trackpoint>
            <Time>2022-11-06T11:49:34.000Z</Time>
            <Position>
              <LatitudeDegrees>41.36173300445079803466796875</LatitudeDegrees>
              <LongitudeDegrees>-1.64661146700382232666015625</LongitudeDegrees>
            </Position>
            <AltitudeMeters>602.4000244140625</AltitudeMeters>
            <DistanceMeters>22539.241439259</DistanceMeters>
          </Trackpoint>
          <Trackpoint>
            <Time>2022-11-06T11:49:35.000Z</Time>
            <Position>
              <LatitudeDegrees>41.36174800805747509002685546875</LatitudeDegrees>
              <LongitudeDegrees>-1.64661146700382232666015625</LongitudeDegrees>
            </Position>
            <AltitudeMeters>602.5999755859375</AltitudeMeters>
            <DistanceMeters>22540.909151328</DistanceMeters>
          </Trackpoint>
          <Trackpoint>
            <Time>2022-11-06T11:49:36.000Z</Time>
            <Position>
              <LatitudeDegrees>41.361756809055805206298828125</LatitudeDegrees>
              <LongitudeDegrees>-1.6466102935373783111572265625</LongitudeDegrees>
            </Position>
            <AltitudeMeters>603</AltitudeMeters>
            <DistanceMeters>22541.892115304</DistanceMeters>
          </Trackpoint>
          <Trackpoint>
            <Time>2022-11-06T11:49:37.000Z</Time>
            <Position>
              <LatitudeDegrees>41.3617697171866893768310546875</LatitudeDegrees>
              <LongitudeDegrees>-1.6466079466044902801513671875</LongitudeDegrees>
            </Position>
            <AltitudeMeters>603.20001220703125</AltitudeMeters>
            <DistanceMeters>22543.342635146</DistanceMeters>
          </Trackpoint>
          <Trackpoint>
            <Time>2022-11-06T11:49:38.000Z</Time>
            <Position>
              <LatitudeDegrees>41.36178530752658843994140625</LatitudeDegrees>
              <LongitudeDegrees>-1.64660744369029998779296875</LongitudeDegrees>
            </Position>
            <AltitudeMeters>603.4000244140625</AltitudeMeters>
            <DistanceMeters>22545.076709959</DistanceMeters>
          </Trackpoint>
          <Trackpoint>
            <Time>2022-11-06T11:49:39.000Z</Time>
            <Position>
              <LatitudeDegrees>41.3617951981723308563232421875</LatitudeDegrees>
              <LongitudeDegrees>-1.6466029174625873565673828125</LongitudeDegrees>
            </Position>
            <AltitudeMeters>603.5999755859375</AltitudeMeters>
            <DistanceMeters>22546.248277976</DistanceMeters>
          </Trackpoint>
          <Trackpoint>
            <Time>2022-11-06T11:49:40.000Z</Time>
            <Position>
              <LatitudeDegrees>41.3618055917322635650634765625</LatitudeDegrees>
              <LongitudeDegrees>-1.646595038473606109619140625</LongitudeDegrees>
            </Position>
            <AltitudeMeters>603.79998779296875</AltitudeMeters>
            <DistanceMeters>22547.582041471</DistanceMeters>
          </Trackpoint>
          <Trackpoint>
            <Time>2022-11-06T11:49:41.000Z</Time>
            <Position>
              <LatitudeDegrees>41.36181456036865711212158203125</LatitudeDegrees>
              <LongitudeDegrees>-1.646580956876277923583984375</LongitudeDegrees>
            </Position>
            <AltitudeMeters>604</AltitudeMeters>
            <DistanceMeters>22549.126042825</DistanceMeters>
          </Trackpoint>
          <Trackpoint>
            <Time>2022-11-06T11:49:42.000Z</Time>
            <Position>
              <LatitudeDegrees>41.3618220202624797821044921875</LatitudeDegrees>
              <LongitudeDegrees>-1.6465670429170131683349609375</LongitudeDegrees>
            </Position>
            <AltitudeMeters>604.20001220703125</AltitudeMeters>
            <DistanceMeters>22550.554607586</DistanceMeters>
          </Trackpoint>
          <Trackpoint>
            <Time>2022-11-06T11:49:43.000Z</Time>
            <Position>
              <LatitudeDegrees>41.36182956397533416748046875</LatitudeDegrees>
              <LongitudeDegrees>-1.64655421860516071319580078125</LongitudeDegrees>
            </Position>
            <AltitudeMeters>604.5999755859375</AltitudeMeters>
            <DistanceMeters>22551.915183078</DistanceMeters>
          </Trackpoint>
          <Trackpoint>
            <Time>2022-11-06T11:49:44.000Z</Time>
            <Position>
              <LatitudeDegrees>41.3618404604494571685791015625</LatitudeDegrees>
              <LongitudeDegrees>-1.64654583670198917388916015625</LongitudeDegrees>
            </Position>
            <AltitudeMeters>604.79998779296875</AltitudeMeters>
            <DistanceMeters>22553.311784851</DistanceMeters>
          </Trackpoint>
          <Trackpoint>
            <Time>2022-11-06T11:49:45.000Z</Time>
            <Position>
              <LatitudeDegrees>41.36185110546648502349853515625</LatitudeDegrees>
              <LongitudeDegrees>-1.6465418972074985504150390625</LongitudeDegrees>
            </Position>
            <AltitudeMeters>605.20001220703125</AltitudeMeters>
            <DistanceMeters>22554.539800635</DistanceMeters>
          </Trackpoint>
          <Trackpoint>
            <Time>2022-11-06T11:49:46.000Z</Time>
            <Position>
              <LatitudeDegrees>41.36185772716999053955078125</LatitudeDegrees>
              <LongitudeDegrees>-1.6465424001216888427734375</LongitudeDegrees>
            </Position>
            <AltitudeMeters>605.4000244140625</AltitudeMeters>
            <DistanceMeters>22555.2758744</DistanceMeters>
          </Trackpoint>
          <Trackpoint>
            <Time>2022-11-06T11:49:47.000Z</Time>
            <Position>
              <LatitudeDegrees>41.3618709705770015716552734375</LatitudeDegrees>
              <LongitudeDegrees>-1.64654466323554515838623046875</LongitudeDegrees>
            </Position>
            <AltitudeMeters>605.5999755859375</AltitudeMeters>
            <DistanceMeters>22556.76023913</DistanceMeters>
          </Trackpoint>
          <Trackpoint>
            <Time>2022-11-06T11:49:48.000Z</Time>
            <Position>
              <LatitudeDegrees>41.36188463307917118072509765625</LatitudeDegrees>
              <LongitudeDegrees>-1.64655421860516071319580078125</LongitudeDegrees>
            </Position>
            <AltitudeMeters>606</AltitudeMeters>
            <DistanceMeters>22558.475991129</DistanceMeters>
          </Trackpoint>
          <Trackpoint>
            <Time>2022-11-06T11:49:49.000Z</Time>
            <Position>
              <LatitudeDegrees>41.36190039105713367462158203125</LatitudeDegrees>
              <LongitudeDegrees>-1.64656310342252254486083984375</LongitudeDegrees>
            </Position>
            <AltitudeMeters>606.20001220703125</AltitudeMeters>
            <DistanceMeters>22560.381270827</DistanceMeters>
          </Trackpoint>
          <Trackpoint>
            <Time>2022-11-06T11:49:50.000Z</Time>
            <Position>
              <LatitudeDegrees>41.36191497556865215301513671875</LatitudeDegrees>
              <LongitudeDegrees>-1.64656042121350765228271484375</LongitudeDegrees>
            </Position>
            <AltitudeMeters>606.4000244140625</AltitudeMeters>
            <DistanceMeters>22562.021686256</DistanceMeters>
          </Trackpoint>
          <Trackpoint>
            <Time>2022-11-06T11:49:51.000Z</Time>
            <Position>
              <LatitudeDegrees>41.3619293086230754852294921875</LatitudeDegrees>
              <LongitudeDegrees>-1.64655354805290699005126953125</LongitudeDegrees>
            </Position>
            <AltitudeMeters>606.5999755859375</AltitudeMeters>
            <DistanceMeters>22563.721575801</DistanceMeters>
          </Trackpoint>
          <Trackpoint>
            <Time>2022-11-06T11:49:52.000Z</Time>
            <Position>
              <LatitudeDegrees>41.36194288730621337890625</LatitudeDegrees>
              <LongitudeDegrees>-1.64653678424656391143798828125</LongitudeDegrees>
            </Position>
            <AltitudeMeters>607</AltitudeMeters>
            <DistanceMeters>22565.781705876</DistanceMeters>
          </Trackpoint>
          <Trackpoint>
            <Time>2022-11-06T11:49:53.000Z</Time>
            <Position>
              <LatitudeDegrees>41.36195302940905094146728515625</LatitudeDegrees>
              <LongitudeDegrees>-1.6465204395353794097900390625</LongitudeDegrees>
            </Position>
            <AltitudeMeters>607</AltitudeMeters>
            <DistanceMeters>22567.551857431</DistanceMeters>
          </Trackpoint>
          <Trackpoint>
            <Time>2022-11-06T11:49:54.000Z</Time>
            <Position>
              <LatitudeDegrees>41.361961662769317626953125</LatitudeDegrees>
              <LongitudeDegrees>-1.64650619029998779296875</LongitudeDegrees>
            </Position>
            <AltitudeMeters>607.4000244140625</AltitudeMeters>
            <DistanceMeters>22569.084117159</DistanceMeters>
          </Trackpoint>
          <Trackpoint>
            <Time>2022-11-06T11:49:55.000Z</Time>
            <Position>
              <LatitudeDegrees>41.36197046376764774322509765625</LatitudeDegrees>
              <LongitudeDegrees>-1.64650023914873600006103515625</LongitudeDegrees>
            </Position>
            <AltitudeMeters>607.5999755859375</AltitudeMeters>
            <DistanceMeters>22570.184130906</DistanceMeters>
          </Trackpoint>
          <Trackpoint>
            <Time>2022-11-06T11:49:56.000Z</Time>
            <Position>
              <LatitudeDegrees>41.36198119260370731353759765625</LatitudeDegrees>
              <LongitudeDegrees>-1.64650015532970428466796875</LongitudeDegrees>
            </Position>
            <AltitudeMeters>608</AltitudeMeters>
            <DistanceMeters>22571.378598184</DistanceMeters>
          </Trackpoint>
          <Trackpoint>
            <Time>2022-11-06T11:49:57.000Z</Time>
            <Position>
              <LatitudeDegrees>41.36198915541172027587890625</LatitudeDegrees>
              <LongitudeDegrees>-1.646504513919353485107421875</LongitudeDegrees>
            </Position>
            <AltitudeMeters>608</AltitudeMeters>
            <DistanceMeters>22572.338320955</DistanceMeters>
          </Trackpoint>
          <Trackpoint>
            <Time>2022-11-06T11:49:58.000Z</Time>
            <Position>
              <LatitudeDegrees>41.36200122535228729248046875</LatitudeDegrees>
              <LongitudeDegrees>-1.64651180617511272430419921875</LongitudeDegrees>
            </Position>
            <AltitudeMeters>608.4000244140625</AltitudeMeters>
            <DistanceMeters>22573.81353227</DistanceMeters>
          </Trackpoint>
          <Trackpoint>
            <Time>2022-11-06T11:49:59.000Z</Time>
            <Position>
              <LatitudeDegrees>41.3620112836360931396484375</LatitudeDegrees>
              <LongitudeDegrees>-1.6465120576322078704833984375</LongitudeDegrees>
            </Position>
            <AltitudeMeters>608.79998779296875</AltitudeMeters>
            <DistanceMeters>22574.929843404</DistanceMeters>
          </Trackpoint>
          <Trackpoint>
            <Time>2022-11-06T11:50:00.000Z</Time>
            <Position>
              <LatitudeDegrees>41.36202444322407245635986328125</LatitudeDegrees>
              <LongitudeDegrees>-1.64650417864322662353515625</LongitudeDegrees>
            </Position>
            <AltitudeMeters>609</AltitudeMeters>
            <DistanceMeters>22576.536890965</DistanceMeters>
          </Trackpoint>
          <Trackpoint>
            <Time>2022-11-06T11:50:01.000Z</Time>
            <Position>
              <LatitudeDegrees>41.362035758793354034423828125</LatitudeDegrees>
              <LongitudeDegrees>-1.64649386890232563018798828125</LongitudeDegrees>
            </Position>
            <AltitudeMeters>609.20001220703125</AltitudeMeters>
            <DistanceMeters>22578.06324601</DistanceMeters>
          </Trackpoint>
          <Trackpoint>
            <Time>2022-11-06T11:50:02.000Z</Time>
            <Position>
              <LatitudeDegrees>41.36204279959201812744140625</LatitudeDegrees>
              <LongitudeDegrees>-1.646482050418853759765625</LongitudeDegrees>
            </Position>
            <AltitudeMeters>609.4000244140625</AltitudeMeters>
            <DistanceMeters>22579.323917837</DistanceMeters>
          </Trackpoint>
          <Trackpoint>
            <Time>2022-11-06T11:50:03.000Z</Time>
            <Position>
              <LatitudeDegrees>41.362049169838428497314453125</LatitudeDegrees>
              <LongitudeDegrees>-1.646468304097652435302734375</LongitudeDegrees>
            </Position>
            <AltitudeMeters>609.79998779296875</AltitudeMeters>
            <DistanceMeters>22580.674501207</DistanceMeters>
          </Trackpoint>
          <Trackpoint>
            <Time>2022-11-06T11:50:04.000Z</Time>
            <Position>
              <LatitudeDegrees>41.36205612681806087493896484375</LatitudeDegrees>
              <LongitudeDegrees>-1.64645480923354625701904296875</LongitudeDegrees>
            </Position>
            <AltitudeMeters>611</AltitudeMeters>
            <DistanceMeters>22582.041697544</DistanceMeters>
          </Trackpoint>
          <Trackpoint>
            <Time>2022-11-06T11:50:05.000Z</Time>
            <Position>
              <LatitudeDegrees>41.36206367053091526031494140625</LatitudeDegrees>
              <LongitudeDegrees>-1.6464480198919773101806640625</LongitudeDegrees>
            </Position>
            <AltitudeMeters>611</AltitudeMeters>
            <DistanceMeters>22583.051845374</DistanceMeters>
          </Trackpoint>
          <Trackpoint>
            <Time>2022-11-06T11:50:06.000Z</Time>
            <Position>
              <LatitudeDegrees>41.362070627510547637939453125</LatitudeDegrees>
              <LongitudeDegrees>-1.6464382968842983245849609375</LongitudeDegrees>
            </Position>
            <AltitudeMeters>611</AltitudeMeters>
            <DistanceMeters>22584.176216622</DistanceMeters>
          </Trackpoint>
          <Trackpoint>
            <Time>2022-11-06T11:50:07.000Z</Time>
            <Position>
              <LatitudeDegrees>41.362075991928577423095703125</LatitudeDegrees>
              <LongitudeDegrees>-1.6464346088469028472900390625</LongitudeDegrees>
            </Position>
            <AltitudeMeters>611</AltitudeMeters>
            <DistanceMeters>22584.848156963</DistanceMeters>
          </Trackpoint>
          <Trackpoint>
            <Time>2022-11-06T11:50:08.000Z</Time>
            <Position>
              <LatitudeDegrees>41.3620805181562900543212890625</LatitudeDegrees>
              <LongitudeDegrees>-1.6464305855333805084228515625</LongitudeDegrees>
            </Position>
            <AltitudeMeters>611.20001220703125</AltitudeMeters>
            <DistanceMeters>22585.456624821</DistanceMeters>
          </Trackpoint>
          <Trackpoint>
            <Time>2022-11-06T11:50:09.000Z</Time>
            <Position>
              <LatitudeDegrees>41.36209468357264995574951171875</LatitudeDegrees>
              <LongitudeDegrees>-1.64642262272536754608154296875</LongitudeDegrees>
            </Position>
            <AltitudeMeters>611.5999755859375</AltitudeMeters>
            <DistanceMeters>22587.16710568</DistanceMeters>
          </Trackpoint>
          <Trackpoint>
            <Time>2022-11-06T11:50:10.000Z</Time>
            <Position>
              <LatitudeDegrees>41.36210205964744091033935546875</LatitudeDegrees>
              <LongitudeDegrees>-1.64641910232603549957275390625</LongitudeDegrees>
            </Position>
            <AltitudeMeters>611.79998779296875</AltitudeMeters>
            <DistanceMeters>22588.043208697</DistanceMeters>
          </Trackpoint>
          <Trackpoint>
            <Time>2022-11-06T11:50:11.000Z</Time>
            <Position>
              <LatitudeDegrees>41.36210910044610500335693359375</LatitudeDegrees>
              <LongitudeDegrees>-1.64641507901251316070556640625</LongitudeDegrees>
            </Position>
            <AltitudeMeters>612</AltitudeMeters>
            <DistanceMeters>22588.89315347</DistanceMeters>
          </Trackpoint>
          <Trackpoint>
            <Time>2022-11-06T11:50:12.000Z</Time>
            <Position>
              <LatitudeDegrees>41.362112872302532196044921875</LatitudeDegrees>
              <LongitudeDegrees>-1.64639999158680438995361328125</LongitudeDegrees>
            </Position>
            <AltitudeMeters>612.20001220703125</AltitudeMeters>
            <DistanceMeters>22590.22012932</DistanceMeters>
          </Trackpoint>
          <Trackpoint>
            <Time>2022-11-06T11:50:13.000Z</Time>
            <Position>
              <LatitudeDegrees>41.36211681179702281951904296875</LatitudeDegrees>
              <LongitudeDegrees>-1.64638238959014415740966796875</LongitudeDegrees>
            </Position>
            <AltitudeMeters>612.4000244140625</AltitudeMeters>
            <DistanceMeters>22591.752389048</DistanceMeters>
          </Trackpoint>
          <Trackpoint>
            <Time>2022-11-06T11:50:14.000Z</Time>
            <Position>
              <LatitudeDegrees>41.36212334968149662017822265625</LatitudeDegrees>
              <LongitudeDegrees>-1.64637467823922634124755859375</LongitudeDegrees>
            </Position>
            <AltitudeMeters>612.5999755859375</AltitudeMeters>
            <DistanceMeters>22592.72147519</DistanceMeters>
          </Trackpoint>
          <Trackpoint>
            <Time>2022-11-06T11:50:15.000Z</Time>
            <Position>
              <LatitudeDegrees>41.36212988756597042083740234375</LatitudeDegrees>
              <LongitudeDegrees>-1.6463608480989933013916015625</LongitudeDegrees>
            </Position>
            <AltitudeMeters>612.79998779296875</AltitudeMeters>
            <DistanceMeters>22594.088671527</DistanceMeters>
          </Trackpoint>
          <Trackpoint>
            <Time>2022-11-06T11:50:16.000Z</Time>
            <Position>
              <LatitudeDegrees>41.36213692836463451385498046875</LatitudeDegrees>
              <LongitudeDegrees>-1.6463439166545867919921875</LongitudeDegrees>
            </Position>
            <AltitudeMeters>613</AltitudeMeters>
            <DistanceMeters>22595.704125671</DistanceMeters>
          </Trackpoint>
          <Trackpoint>
            <Time>2022-11-06T11:50:17.000Z</Time>
            <Position>
              <LatitudeDegrees>41.36214279569685459136962890625</LatitudeDegrees>
              <LongitudeDegrees>-1.6463239677250385284423828125</LongitudeDegrees>
            </Position>
            <AltitudeMeters>613.20001220703125</AltitudeMeters>
            <DistanceMeters>22597.494566158</DistanceMeters>
          </Trackpoint>
          <Trackpoint>
            <Time>2022-11-06T11:50:18.000Z</Time>
            <Position>
              <LatitudeDegrees>41.36214899830520153045654296875</LatitudeDegrees>
              <LongitudeDegrees>-1.6463139094412326812744140625</LongitudeDegrees>
            </Position>
            <AltitudeMeters>613.4000244140625</AltitudeMeters>
            <DistanceMeters>22598.586339986</DistanceMeters>
          </Trackpoint>
          <Trackpoint>
            <Time>2022-11-06T11:50:19.000Z</Time>
            <Position>
              <LatitudeDegrees>41.36215285398066043853759765625</LatitudeDegrees>
              <LongitudeDegrees>-1.64630192331969738006591796875</LongitudeDegrees>
            </Position>
            <AltitudeMeters>613.79998779296875</AltitudeMeters>
            <DistanceMeters>22599.678113813</DistanceMeters>
          </Trackpoint>
          <Trackpoint>
            <Time>2022-11-06T11:50:20.000Z</Time>
            <Position>
              <LatitudeDegrees>41.362154781818389892578125</LatitudeDegrees>
              <LongitudeDegrees>-1.646291948854923248291015625</LongitudeDegrees>
            </Position>
            <AltitudeMeters>614</AltitudeMeters>
            <DistanceMeters>22600.53861731</DistanceMeters>
          </Trackpoint>
          <Trackpoint>
            <Time>2022-11-06T11:50:21.000Z</Time>
            <Position>
              <LatitudeDegrees>41.362159810960292816162109375</LatitudeDegrees>
              <LongitudeDegrees>-1.646281890571117401123046875</LongitudeDegrees>
            </Position>
            <AltitudeMeters>614.20001220703125</AltitudeMeters>
            <DistanceMeters>22601.553224976</DistanceMeters>
          </Trackpoint>
          <Trackpoint>
            <Time>2022-11-06T11:50:22.000Z</Time>
            <Position>
              <LatitudeDegrees>41.36216576211154460906982421875</LatitudeDegrees>
              <LongitudeDegrees>-1.64625967852771282196044921875</LongitudeDegrees>
            </Position>
            <AltitudeMeters>614.5999755859375</AltitudeMeters>
            <DistanceMeters>22603.521448234</DistanceMeters>
          </Trackpoint>
          <Trackpoint>
            <Time>2022-11-06T11:50:23.000Z</Time>
            <Position>
              <LatitudeDegrees>41.36217062361538410186767578125</LatitudeDegrees>
              <LongitudeDegrees>-1.64624224416911602020263671875</LongitudeDegrees>
            </Position>
            <AltitudeMeters>614.79998779296875</AltitudeMeters>
            <DistanceMeters>22605.074197541</DistanceMeters>
          </Trackpoint>
          <Trackpoint>
            <Time>2022-11-06T11:50:24.000Z</Time>
            <Position>
              <LatitudeDegrees>41.36217514984309673309326171875</LatitudeDegrees>
              <LongitudeDegrees>-1.6462280787527561187744140625</LongitudeDegrees>
            </Position>
            <AltitudeMeters>615</AltitudeMeters>
            <DistanceMeters>22606.359695106</DistanceMeters>
          </Trackpoint>
          <Trackpoint>
            <Time>2022-11-06T11:50:25.000Z</Time>
            <Position>
              <LatitudeDegrees>41.36218135245144367218017578125</LatitudeDegrees>
              <LongitudeDegrees>-1.64621584117412567138671875</LongitudeDegrees>
            </Position>
            <AltitudeMeters>615.4000244140625</AltitudeMeters>
            <DistanceMeters>22607.591382096</DistanceMeters>
          </Trackpoint>
          <Trackpoint>
            <Time>2022-11-06T11:50:26.000Z</Time>
            <Position>
              <LatitudeDegrees>41.36218755505979061126708984375</LatitudeDegrees>
              <LongitudeDegrees>-1.6462039388716220855712890625</LongitudeDegrees>
            </Position>
            <AltitudeMeters>615.5999755859375</AltitudeMeters>
            <DistanceMeters>22608.800874711</DistanceMeters>
          </Trackpoint>
          <Trackpoint>
            <Time>2022-11-06T11:50:27.000Z</Time>
            <Position>
              <LatitudeDegrees>41.36219744570553302764892578125</LatitudeDegrees>
              <LongitudeDegrees>-1.64619212038815021514892578125</LongitudeDegrees>
            </Position>
            <AltitudeMeters>615.79998779296875</AltitudeMeters>
            <DistanceMeters>22610.276086025</DistanceMeters>
          </Trackpoint>
          <Trackpoint>
            <Time>2022-11-06T11:50:28.000Z</Time>
            <Position>
              <LatitudeDegrees>41.3622075878083705902099609375</LatitudeDegrees>
              <LongitudeDegrees>-1.64617686532437801361083984375</LongitudeDegrees>
            </Position>
            <AltitudeMeters>616.20001220703125</AltitudeMeters>
            <DistanceMeters>22611.978629575</DistanceMeters>
          </Trackpoint>
          <Trackpoint>
            <Time>2022-11-06T11:50:29.000Z</Time>
            <Position>
              <LatitudeDegrees>41.36221203021705150604248046875</LatitudeDegrees>
              <LongitudeDegrees>-1.64616311900317668914794921875</LongitudeDegrees>
            </Position>
            <AltitudeMeters>616.4000244140625</AltitudeMeters>
            <DistanceMeters>22613.232118028</DistanceMeters>
          </Trackpoint>
          <Trackpoint>
            <Time>2022-11-06T11:50:30.000Z</Time>
            <Position>
              <LatitudeDegrees>41.3622163049876689910888671875</LatitudeDegrees>
              <LongitudeDegrees>-1.64614744484424591064453125</LongitudeDegrees>
            </Position>
            <AltitudeMeters>616.5999755859375</AltitudeMeters>
            <DistanceMeters>22614.628719801</DistanceMeters>
          </Trackpoint>
          <Trackpoint>
            <Time>2022-11-06T11:50:31.000Z</Time>
            <Position>
              <LatitudeDegrees>41.36222041212022304534912109375</LatitudeDegrees>
              <LongitudeDegrees>-1.64613227359950542449951171875</LongitudeDegrees>
            </Position>
            <AltitudeMeters>617</AltitudeMeters>
            <DistanceMeters>22615.979303171</DistanceMeters>
          </Trackpoint>
          <Trackpoint>
            <Time>2022-11-06T11:50:32.000Z</Time>
            <Position>
              <LatitudeDegrees>41.36222577653825283050537109375</LatitudeDegrees>
              <LongitudeDegrees>-1.64611567743122577667236328125</LongitudeDegrees>
            </Position>
            <AltitudeMeters>617.20001220703125</AltitudeMeters>
            <DistanceMeters>22617.487805496</DistanceMeters>
          </Trackpoint>
          <Trackpoint>
            <Time>2022-11-06T11:50:33.000Z</Time>
            <Position>
              <LatitudeDegrees>41.36222778819501399993896484375</LatitudeDegrees>
              <LongitudeDegrees>-1.6461000032722949981689453125</LongitudeDegrees>
            </Position>
            <AltitudeMeters>617.4000244140625</AltitudeMeters>
            <DistanceMeters>22618.818179497</DistanceMeters>
          </Trackpoint>
          <Trackpoint>
            <Time>2022-11-06T11:50:34.000Z</Time>
            <Position>
              <LatitudeDegrees>41.3622290454804897308349609375</LatitudeDegrees>
              <LongitudeDegrees>-1.6460845805704593658447265625</LongitudeDegrees>
            </Position>
            <AltitudeMeters>617.79998779296875</AltitudeMeters>
            <DistanceMeters>22620.117650272</DistanceMeters>
          </Trackpoint>
          <Trackpoint>
            <Time>2022-11-06T11:50:35.000Z</Time>
            <Position>
              <LatitudeDegrees>41.36223197914659976959228515625</LatitudeDegrees>
              <LongitudeDegrees>-1.64607024751603603363037109375</LongitudeDegrees>
            </Position>
            <AltitudeMeters>618.20001220703125</AltitudeMeters>
            <DistanceMeters>22621.360285807</DistanceMeters>
          </Trackpoint>
          <Trackpoint>
            <Time>2022-11-06T11:50:36.000Z</Time>
            <Position>
              <LatitudeDegrees>41.362235248088836669921875</LatitudeDegrees>
              <LongitudeDegrees>-1.64605650119483470916748046875</LongitudeDegrees>
            </Position>
            <AltitudeMeters>618.4000244140625</AltitudeMeters>
            <DistanceMeters>22622.562289231</DistanceMeters>
          </Trackpoint>
          <Trackpoint>
            <Time>2022-11-06T11:50:37.000Z</Time>
            <Position>
              <LatitudeDegrees>41.3622370921075344085693359375</LatitudeDegrees>
              <LongitudeDegrees>-1.6460440121591091156005859375</LongitudeDegrees>
            </Position>
            <AltitudeMeters>618.4000244140625</AltitudeMeters>
            <DistanceMeters>22623.628961454</DistanceMeters>
          </Trackpoint>
          <Trackpoint>
            <Time>2022-11-06T11:50:38.000Z</Time>
            <Position>
              <LatitudeDegrees>41.36224371381103992462158203125</LatitudeDegrees>
              <LongitudeDegrees>-1.64602599106729030609130859375</LongitudeDegrees>
            </Position>
            <AltitudeMeters>618.79998779296875</AltitudeMeters>
            <DistanceMeters>22625.307467889</DistanceMeters>
          </Trackpoint>
          <Trackpoint>
            <Time>2022-11-06T11:50:39.000Z</Time>
            <Position>
              <LatitudeDegrees>41.36224773712456226348876953125</LatitudeDegrees>
              <LongitudeDegrees>-1.646009646356105804443359375</LongitudeDegrees>
            </Position>
            <AltitudeMeters>619</AltitudeMeters>
            <DistanceMeters>22626.742339809</DistanceMeters>
          </Trackpoint>
          <Trackpoint>
            <Time>2022-11-06T11:50:40.000Z</Time>
            <Position>
              <LatitudeDegrees>41.36224874295294284820556640625</LatitudeDegrees>
              <LongitudeDegrees>-1.645995564758777618408203125</LongitudeDegrees>
            </Position>
            <AltitudeMeters>619.20001220703125</AltitudeMeters>
            <DistanceMeters>22627.925412863</DistanceMeters>
          </Trackpoint>
          <Trackpoint>
            <Time>2022-11-06T11:50:41.000Z</Time>
            <Position>
              <LatitudeDegrees>41.3622528500854969024658203125</LatitudeDegrees>
              <LongitudeDegrees>-1.64597385562956333160400390625</LongitudeDegrees>
            </Position>
            <AltitudeMeters>619.5999755859375</AltitudeMeters>
            <DistanceMeters>22629.794808375</DistanceMeters>
          </Trackpoint>
          <Trackpoint>
            <Time>2022-11-06T11:50:42.000Z</Time>
            <Position>
              <LatitudeDegrees>41.36225762777030467987060546875</LatitudeDegrees>
              <LongitudeDegrees>-1.645954661071300506591796875</LongitudeDegrees>
            </Position>
            <AltitudeMeters>619.79998779296875</AltitudeMeters>
            <DistanceMeters>22631.478686044</DistanceMeters>
          </Trackpoint>
          <Trackpoint>
            <Time>2022-11-06T11:50:43.000Z</Time>
            <Position>
              <LatitudeDegrees>41.36226131580770015716552734375</LatitudeDegrees>
              <LongitudeDegrees>-1.645940244197845458984375</LongitudeDegrees>
            </Position>
            <AltitudeMeters>620.20001220703125</AltitudeMeters>
            <DistanceMeters>22632.750056833</DistanceMeters>
          </Trackpoint>
          <Trackpoint>
            <Time>2022-11-06T11:50:44.000Z</Time>
            <Position>
              <LatitudeDegrees>41.3622635789215564727783203125</LatitudeDegrees>
              <LongitudeDegrees>-1.6459199599921703338623046875</LongitudeDegrees>
            </Position>
            <AltitudeMeters>620.4000244140625</AltitudeMeters>
            <DistanceMeters>22634.463175289</DistanceMeters>
          </Trackpoint>
          <Trackpoint>
            <Time>2022-11-06T11:50:45.000Z</Time>
            <Position>
              <LatitudeDegrees>41.36226366274058818817138671875</LatitudeDegrees>
              <LongitudeDegrees>-1.645903028547763824462890625</LongitudeDegrees>
            </Position>
            <AltitudeMeters>620.5999755859375</AltitudeMeters>
            <DistanceMeters>22635.879041445</DistanceMeters>
          </Trackpoint>
          <Trackpoint>
            <Time>2022-11-06T11:50:46.000Z</Time>
            <Position>
              <LatitudeDegrees>41.3622655905783176422119140625</LatitudeDegrees>
              <LongitudeDegrees>-1.64588215760886669158935546875</LongitudeDegrees>
            </Position>
            <AltitudeMeters>620.5999755859375</AltitudeMeters>
            <DistanceMeters>22637.636393471</DistanceMeters>
          </Trackpoint>
          <Trackpoint>
            <Time>2022-11-06T11:50:47.000Z</Time>
            <Position>
              <LatitudeDegrees>41.36226399801671504974365234375</LatitudeDegrees>
              <LongitudeDegrees>-1.64586623199284076690673828125</LongitudeDegrees>
            </Position>
            <AltitudeMeters>621</AltitudeMeters>
            <DistanceMeters>22638.976910242</DistanceMeters>
          </Trackpoint>
          <Trackpoint>
            <Time>2022-11-06T11:50:48.000Z</Time>
            <Position>
              <LatitudeDegrees>41.36226366274058818817138671875</LatitudeDegrees>
              <LongitudeDegrees>-1.64584997110068798065185546875</LongitudeDegrees>
            </Position>
            <AltitudeMeters>621.4000244140625</AltitudeMeters>
            <DistanceMeters>22640.334163201</DistanceMeters>
          </Trackpoint>
          <Trackpoint>
            <Time>2022-11-06T11:50:49.000Z</Time>
            <Position>
              <LatitudeDegrees>41.3622642494738101959228515625</LatitudeDegrees>
              <LongitudeDegrees>-1.64583622477948665618896484375</LongitudeDegrees>
            </Position>
            <AltitudeMeters>621.5999755859375</AltitudeMeters>
            <DistanceMeters>22641.486300882</DistanceMeters>
          </Trackpoint>
          <Trackpoint>
            <Time>2022-11-06T11:50:50.000Z</Time>
            <Position>
              <LatitudeDegrees>41.3622649200260639190673828125</LatitudeDegrees>
              <LongitudeDegrees>-1.64581862278282642364501953125</LongitudeDegrees>
            </Position>
            <AltitudeMeters>621.79998779296875</AltitudeMeters>
            <DistanceMeters>22642.958448411</DistanceMeters>
          </Trackpoint>
          <Trackpoint>
            <Time>2022-11-06T11:50:51.000Z</Time>
            <Position>
              <LatitudeDegrees>41.3622686080634593963623046875</LatitudeDegrees>
              <LongitudeDegrees>-1.6458052955567836761474609375</LongitudeDegrees>
            </Position>
            <AltitudeMeters>622</AltitudeMeters>
            <DistanceMeters>22644.141521464</DistanceMeters>
          </Trackpoint>
          <Trackpoint>
            <Time>2022-11-06T11:50:52.000Z</Time>
            <Position>
              <LatitudeDegrees>41.3622687757015228271484375</LatitudeDegrees>
              <LongitudeDegrees>-1.6457898728549480438232421875</LongitudeDegrees>
            </Position>
            <AltitudeMeters>622.20001220703125</AltitudeMeters>
            <DistanceMeters>22645.430526532</DistanceMeters>
          </Trackpoint>
          <Trackpoint>
            <Time>2022-11-06T11:50:53.000Z</Time>
            <Position>
              <LatitudeDegrees>41.36226969771087169647216796875</LatitudeDegrees>
              <LongitudeDegrees>-1.64576925337314605712890625</LongitudeDegrees>
            </Position>
            <AltitudeMeters>622.4000244140625</AltitudeMeters>
            <DistanceMeters>22647.154155016</DistanceMeters>
          </Trackpoint>
          <Trackpoint>
            <Time>2022-11-06T11:50:54.000Z</Time>
            <Position>
              <LatitudeDegrees>41.36227137409150600433349609375</LatitudeDegrees>
              <LongitudeDegrees>-1.64575793780386447906494140625</LongitudeDegrees>
            </Position>
            <AltitudeMeters>622.5999755859375</AltitudeMeters>
            <DistanceMeters>22648.113877787</DistanceMeters>
          </Trackpoint>
          <Trackpoint>
            <Time>2022-11-06T11:50:55.000Z</Time>
            <Position>
              <LatitudeDegrees>41.36227372102439403533935546875</LatitudeDegrees>
              <LongitudeDegrees>-1.6457457840442657470703125</LongitudeDegrees>
            </Position>
            <AltitudeMeters>623</AltitudeMeters>
            <DistanceMeters>22649.163482154</DistanceMeters>
          </Trackpoint>
          <Trackpoint>
            <Time>2022-11-06T11:50:56.000Z</Time>
            <Position>
              <LatitudeDegrees>41.36227321811020374298095703125</LatitudeDegrees>
              <LongitudeDegrees>-1.64573279209434986114501953125</LongitudeDegrees>
            </Position>
            <AltitudeMeters>623.4000244140625</AltitudeMeters>
            <DistanceMeters>22650.251112612</DistanceMeters>
          </Trackpoint>
          <Trackpoint>
            <Time>2022-11-06T11:50:57.000Z</Time>
            <Position>
              <LatitudeDegrees>41.3622741401195526123046875</LatitudeDegrees>
              <LongitudeDegrees>-1.645717285573482513427734375</LongitudeDegrees>
            </Position>
            <AltitudeMeters>623.5999755859375</AltitudeMeters>
            <DistanceMeters>22651.554053275</DistanceMeters>
          </Trackpoint>
          <Trackpoint>
            <Time>2022-11-06T11:50:58.000Z</Time>
            <Position>
              <LatitudeDegrees>41.36227673850953578948974609375</LatitudeDegrees>
              <LongitudeDegrees>-1.6456980071961879730224609375</LongitudeDegrees>
            </Position>
            <AltitudeMeters>623.79998779296875</AltitudeMeters>
            <DistanceMeters>22653.191714016</DistanceMeters>
          </Trackpoint>
          <Trackpoint>
            <Time>2022-11-06T11:50:59.000Z</Time>
            <Position>
              <LatitudeDegrees>41.36227992363274097442626953125</LatitudeDegrees>
              <LongitudeDegrees>-1.6456867754459381103515625</LongitudeDegrees>
            </Position>
            <AltitudeMeters>624</AltitudeMeters>
            <DistanceMeters>22654.188362605</DistanceMeters>
          </Trackpoint>
          <Trackpoint>
            <Time>2022-11-06T11:51:00.000Z</Time>
            <Position>
              <LatitudeDegrees>41.3622820191085338592529296875</LatitudeDegrees>
              <LongitudeDegrees>-1.6456695087254047393798828125</LongitudeDegrees>
            </Position>
            <AltitudeMeters>624</AltitudeMeters>
            <DistanceMeters>22655.648190691</DistanceMeters>
          </Trackpoint>
          <Trackpoint>
            <Time>2022-11-06T11:51:01.000Z</Time>
            <Position>
              <LatitudeDegrees>41.362285874783992767333984375</LatitudeDegrees>
              <LongitudeDegrees>-1.64565651677548885345458984375</LongitudeDegrees>
            </Position>
            <AltitudeMeters>624.20001220703125</AltitudeMeters>
            <DistanceMeters>22656.819758708</DistanceMeters>
          </Trackpoint>
          <Trackpoint>
            <Time>2022-11-06T11:51:02.000Z</Time>
            <Position>
              <LatitudeDegrees>41.3622940890491008758544921875</LatitudeDegrees>
              <LongitudeDegrees>-1.6456369869410991668701171875</LongitudeDegrees>
            </Position>
            <AltitudeMeters>624.4000244140625</AltitudeMeters>
            <DistanceMeters>22658.691567903</DistanceMeters>
          </Trackpoint>
          <Trackpoint>
            <Time>2022-11-06T11:51:03.000Z</Time>
            <Position>
              <LatitudeDegrees>41.36229987256228923797607421875</LatitudeDegrees>
              <LongitudeDegrees>-1.64562349207699298858642578125</LongitudeDegrees>
            </Position>
            <AltitudeMeters>624.79998779296875</AltitudeMeters>
            <DistanceMeters>22659.991038678</DistanceMeters>
          </Trackpoint>
          <Trackpoint>
            <Time>2022-11-06T11:51:04.000Z</Time>
            <Position>
              <LatitudeDegrees>41.36230557225644588470458984375</LatitudeDegrees>
              <LongitudeDegrees>-1.64561410434544086456298828125</LongitudeDegrees>
            </Position>
            <AltitudeMeters>625</AltitudeMeters>
            <DistanceMeters>22661.001186508</DistanceMeters>
          </Trackpoint>
          <Trackpoint>
            <Time>2022-11-06T11:51:05.000Z</Time>
            <Position>
              <LatitudeDegrees>41.36231613345444202423095703125</LatitudeDegrees>
              <LongitudeDegrees>-1.6455994360148906707763671875</LongitudeDegrees>
            </Position>
            <AltitudeMeters>625.20001220703125</AltitudeMeters>
            <DistanceMeters>22662.701076052</DistanceMeters>
          </Trackpoint>
          <Trackpoint>
            <Time>2022-11-06T11:51:06.000Z</Time>
            <Position>
              <LatitudeDegrees>41.3623224198818206787109375</LatitudeDegrees>
              <LongitudeDegrees>-1.64558862335979938507080078125</LongitudeDegrees>
            </Position>
            <AltitudeMeters>625.5999755859375</AltitudeMeters>
            <DistanceMeters>22663.841396624</DistanceMeters>
          </Trackpoint>
          <Trackpoint>
            <Time>2022-11-06T11:51:07.000Z</Time>
            <Position>
              <LatitudeDegrees>41.3623323105275630950927734375</LatitudeDegrees>
              <LongitudeDegrees>-1.64557320065796375274658203125</LongitudeDegrees>
            </Position>
            <AltitudeMeters>625.79998779296875</AltitudeMeters>
            <DistanceMeters>22665.535965687</DistanceMeters>
          </Trackpoint>
          <Trackpoint>
            <Time>2022-11-06T11:51:08.000Z</Time>
            <Position>
              <LatitudeDegrees>41.362340189516544342041015625</LatitudeDegrees>
              <LongitudeDegrees>-1.64554822258651256561279296875</LongitudeDegrees>
            </Position>
            <AltitudeMeters>626</AltitudeMeters>
            <DistanceMeters>22667.79672292</DistanceMeters>
          </Trackpoint>
          <Trackpoint>
            <Time>2022-11-06T11:51:09.000Z</Time>
            <Position>
              <LatitudeDegrees>41.362349577248096466064453125</LatitudeDegrees>
              <LongitudeDegrees>-1.64551855064928531646728515625</LongitudeDegrees>
            </Position>
            <AltitudeMeters>626</AltitudeMeters>
            <DistanceMeters>22670.486163611</DistanceMeters>
          </Trackpoint>
          <Trackpoint>
            <Time>2022-11-06T11:51:10.000Z</Time>
            <Position>
              <LatitudeDegrees>41.36235619895160198211669921875</LatitudeDegrees>
              <LongitudeDegrees>-1.6454914771020412445068359375</LongitudeDegrees>
            </Position>
            <AltitudeMeters>626.4000244140625</AltitudeMeters>
            <DistanceMeters>22672.863731245</DistanceMeters>
          </Trackpoint>
          <Trackpoint>
            <Time>2022-11-06T11:51:11.000Z</Time>
            <Position>
              <LatitudeDegrees>41.36235636658966541290283203125</LatitudeDegrees>
              <LongitudeDegrees>-1.6454633139073848724365234375</LongitudeDegrees>
            </Position>
            <AltitudeMeters>626.79998779296875</AltitudeMeters>
            <DistanceMeters>22675.214562329</DistanceMeters>
          </Trackpoint>
          <Trackpoint>
            <Time>2022-11-06T11:51:12.000Z</Time>
            <Position>
              <LatitudeDegrees>41.36234932579100131988525390625</LatitudeDegrees>
              <LongitudeDegrees>-1.64544344879686832427978515625</LongitudeDegrees>
            </Position>
            <AltitudeMeters>627.5999755859375</AltitudeMeters>
            <DistanceMeters>22677.052291523</DistanceMeters>
          </Trackpoint>
          <Trackpoint>
            <Time>2022-11-06T11:51:13.000Z</Time>
            <Position>
              <LatitudeDegrees>41.36233960278332233428955078125</LatitudeDegrees>
              <LongitudeDegrees>-1.64542718790471553802490234375</LongitudeDegrees>
            </Position>
            <AltitudeMeters>628.20001220703125</AltitudeMeters>
            <DistanceMeters>22678.7889681</DistanceMeters>
          </Trackpoint>
          <Trackpoint>
            <Time>2022-11-06T11:51:14.000Z</Time>
            <Position>
              <LatitudeDegrees>41.362324096262454986572265625</LatitudeDegrees>
              <LongitudeDegrees>-1.64540673606097698211669921875</LongitudeDegrees>
            </Position>
            <AltitudeMeters>628.4000244140625</AltitudeMeters>
            <DistanceMeters>22681.215407846</DistanceMeters>
          </Trackpoint>
          <Trackpoint>
            <Time>2022-11-06T11:51:15.000Z</Time>
            <Position>
              <LatitudeDegrees>41.36231445707380771636962890625</LatitudeDegrees>
              <LongitudeDegrees>-1.64539508521556854248046875</LongitudeDegrees>
            </Position>
            <AltitudeMeters>628.5999755859375</AltitudeMeters>
            <DistanceMeters>22682.662811637</DistanceMeters>
          </Trackpoint>
          <Trackpoint>
            <Time>2022-11-06T11:51:16.000Z</Time>
            <Position>
              <LatitudeDegrees>41.36230305768549442291259765625</LatitudeDegrees>
              <LongitudeDegrees>-1.64538041688501834869384765625</LongitudeDegrees>
            </Position>
            <AltitudeMeters>628.79998779296875</AltitudeMeters>
            <DistanceMeters>22684.427854518</DistanceMeters>
          </Trackpoint>
          <Trackpoint>
            <Time>2022-11-06T11:51:17.000Z</Time>
            <Position>
              <LatitudeDegrees>41.3622904010117053985595703125</LatitudeDegrees>
              <LongitudeDegrees>-1.6453630663454532623291015625</LongitudeDegrees>
            </Position>
            <AltitudeMeters>629.20001220703125</AltitudeMeters>
            <DistanceMeters>22686.452614925</DistanceMeters>
          </Trackpoint>
          <Trackpoint>
            <Time>2022-11-06T11:51:18.000Z</Time>
            <Position>
              <LatitudeDegrees>41.36227548122406005859375</LatitudeDegrees>
              <LongitudeDegrees>-1.645344793796539306640625</LongitudeDegrees>
            </Position>
            <AltitudeMeters>629.4000244140625</AltitudeMeters>
            <DistanceMeters>22688.709374353</DistanceMeters>
          </Trackpoint>
          <Trackpoint>
            <Time>2022-11-06T11:51:19.000Z</Time>
            <Position>
              <LatitudeDegrees>41.36225695721805095672607421875</LatitudeDegrees>
              <LongitudeDegrees>-1.645323000848293304443359375</LongitudeDegrees>
            </Position>
            <AltitudeMeters>629.5999755859375</AltitudeMeters>
            <DistanceMeters>22691.460229504</DistanceMeters>
          </Trackpoint>
          <Trackpoint>
            <Time>2022-11-06T11:51:20.000Z</Time>
            <Position>
              <LatitudeDegrees>41.362239606678485870361328125</LatitudeDegrees>
              <LongitudeDegrees>-1.64531185291707515716552734375</LongitudeDegrees>
            </Position>
            <AltitudeMeters>629.79998779296875</AltitudeMeters>
            <DistanceMeters>22693.602022872</DistanceMeters>
          </Trackpoint>
          <Trackpoint>
            <Time>2022-11-06T11:51:21.000Z</Time>
            <Position>
              <LatitudeDegrees>41.36221840046346187591552734375</LatitudeDegrees>
              <LongitudeDegrees>-1.64530145935714244842529296875</LongitudeDegrees>
            </Position>
            <AltitudeMeters>630</AltitudeMeters>
            <DistanceMeters>22696.116193414</DistanceMeters>
          </Trackpoint>
          <Trackpoint>
            <Time>2022-11-06T11:51:22.000Z</Time>
            <Position>
              <LatitudeDegrees>41.36219459585845470428466796875</LatitudeDegrees>
              <LongitudeDegrees>-1.645295508205890655517578125</LongitudeDegrees>
            </Position>
            <AltitudeMeters>630</AltitudeMeters>
            <DistanceMeters>22698.814015056</DistanceMeters>
          </Trackpoint>
          <Trackpoint>
            <Time>2022-11-06T11:51:23.000Z</Time>
            <Position>
              <LatitudeDegrees>41.3621668517589569091796875</LatitudeDegrees>
              <LongitudeDegrees>-1.64529173634946346282958984375</LongitudeDegrees>
            </Position>
            <AltitudeMeters>630.20001220703125</AltitudeMeters>
            <DistanceMeters>22701.91951367</DistanceMeters>
          </Trackpoint>
          <Trackpoint>
            <Time>2022-11-06T11:51:24.000Z</Time>
            <Position>
              <LatitudeDegrees>41.36213508434593677520751953125</LatitudeDegrees>
              <LongitudeDegrees>-1.6452884674072265625</LongitudeDegrees>
            </Position>
            <AltitudeMeters>630.20001220703125</AltitudeMeters>
            <DistanceMeters>22705.46491441</DistanceMeters>
          </Trackpoint>
          <Trackpoint>
            <Time>2022-11-06T11:51:25.000Z</Time>
            <Position>
              <LatitudeDegrees>41.36209937743842601776123046875</LatitudeDegrees>
              <LongitudeDegrees>-1.64528067223727703094482421875</LongitudeDegrees>
            </Position>
            <AltitudeMeters>630.20001220703125</AltitudeMeters>
            <DistanceMeters>22709.492074364</DistanceMeters>
          </Trackpoint>
          <Trackpoint>
            <Time>2022-11-06T11:51:26.000Z</Time>
            <Position>
              <LatitudeDegrees>41.36206350289285182952880859375</LatitudeDegrees>
              <LongitudeDegrees>-1.645270027220249176025390625</LongitudeDegrees>
            </Position>
            <AltitudeMeters>630.20001220703125</AltitudeMeters>
            <DistanceMeters>22713.581536624</DistanceMeters>
          </Trackpoint>
          <Trackpoint>
            <Time>2022-11-06T11:51:27.000Z</Time>
            <Position>
              <LatitudeDegrees>41.362027041614055633544921875</LatitudeDegrees>
              <LongitudeDegrees>-1.645257286727428436279296875</LongitudeDegrees>
            </Position>
            <AltitudeMeters>630.20001220703125</AltitudeMeters>
            <DistanceMeters>22717.775650227</DistanceMeters>
          </Trackpoint>
          <Trackpoint>
            <Time>2022-11-06T11:51:28.000Z</Time>
            <Position>
              <LatitudeDegrees>41.36198404245078563690185546875</LatitudeDegrees>
              <LongitudeDegrees>-1.6452500782907009124755859375</LongitudeDegrees>
            </Position>
            <AltitudeMeters>630</AltitudeMeters>
            <DistanceMeters>22722.598665562</DistanceMeters>
          </Trackpoint>
          <Trackpoint>
            <Time>2022-11-06T11:51:29.000Z</Time>
            <Position>
              <LatitudeDegrees>41.3619380258023738861083984375</LatitudeDegrees>
              <LongitudeDegrees>-1.64524530060589313507080078125</LongitudeDegrees>
            </Position>
            <AltitudeMeters>629.79998779296875</AltitudeMeters>
            <DistanceMeters>22727.735384687</DistanceMeters>
          </Trackpoint>
          <Trackpoint>
            <Time>2022-11-06T11:51:30.000Z</Time>
            <Position>
              <LatitudeDegrees>41.36188982985913753509521484375</LatitudeDegrees>
              <LongitudeDegrees>-1.6452400200068950653076171875</LongitudeDegrees>
            </Position>
            <AltitudeMeters>629.4000244140625</AltitudeMeters>
            <DistanceMeters>22733.117622626</DistanceMeters>
          </Trackpoint>
          <Trackpoint>
            <Time>2022-11-06T11:51:31.000Z</Time>
            <Position>
              <LatitudeDegrees>41.361832916736602783203125</LatitudeDegrees>
              <LongitudeDegrees>-1.6452256031334400177001953125</LongitudeDegrees>
            </Position>
            <AltitudeMeters>629</AltitudeMeters>
            <DistanceMeters>22739.566849874</DistanceMeters>
          </Trackpoint>
          <Trackpoint>
            <Time>2022-11-06T11:51:32.000Z</Time>
            <Position>
              <LatitudeDegrees>41.36179444380104541778564453125</LatitudeDegrees>
              <LongitudeDegrees>-1.64521546103060245513916015625</LongitudeDegrees>
            </Position>
            <AltitudeMeters>628.79998779296875</AltitudeMeters>
            <DistanceMeters>22743.931876941</DistanceMeters>
          </Trackpoint>
          <Trackpoint>
            <Time>2022-11-06T11:51:33.000Z</Time>
            <Position>
              <LatitudeDegrees>41.36174641549587249755859375</LatitudeDegrees>
              <LongitudeDegrees>-1.64520272053778171539306640625</LongitudeDegrees>
            </Position>
            <AltitudeMeters>628.79998779296875</AltitudeMeters>
            <DistanceMeters>22749.38246879</DistanceMeters>
          </Trackpoint>
          <Trackpoint>
            <Time>2022-11-06T11:51:34.000Z</Time>
            <Position>
              <LatitudeDegrees>41.3616915978491306304931640625</LatitudeDegrees>
              <LongitudeDegrees>-1.645187549293041229248046875</LongitudeDegrees>
            </Position>
            <AltitudeMeters>628.5999755859375</AltitudeMeters>
            <DistanceMeters>22755.613787166</DistanceMeters>
          </Trackpoint>
          <Trackpoint>
            <Time>2022-11-06T11:51:35.000Z</Time>
            <Position>
              <LatitudeDegrees>41.36165563948452472686767578125</LatitudeDegrees>
              <LongitudeDegrees>-1.64517908357083797454833984375</LongitudeDegrees>
            </Position>
            <AltitudeMeters>628.5999755859375</AltitudeMeters>
            <DistanceMeters>22759.676665424</DistanceMeters>
          </Trackpoint>
          <Trackpoint>
            <Time>2022-11-06T11:51:36.000Z</Time>
            <Position>
              <LatitudeDegrees>41.3616017438471317291259765625</LatitudeDegrees>
              <LongitudeDegrees>-1.64516718126833438873291015625</LongitudeDegrees>
            </Position>
            <AltitudeMeters>628.79998779296875</AltitudeMeters>
            <DistanceMeters>22765.75689017</DistanceMeters>
          </Trackpoint>
          <Trackpoint>
            <Time>2022-11-06T11:51:37.000Z</Time>
            <Position>
              <LatitudeDegrees>41.36156536638736724853515625</LatitudeDegrees>
              <LongitudeDegrees>-1.64516039192676544189453125</LongitudeDegrees>
            </Position>
            <AltitudeMeters>629</AltitudeMeters>
            <DistanceMeters>22769.845248214</DistanceMeters>
          </Trackpoint>
          <Trackpoint>
            <Time>2022-11-06T11:51:38.000Z</Time>
            <Position>
              <LatitudeDegrees>41.36152245104312896728515625</LatitudeDegrees>
              <LongitudeDegrees>-1.6451572068035602569580078125</LongitudeDegrees>
            </Position>
            <AltitudeMeters>629.4000244140625</AltitudeMeters>
            <DistanceMeters>22774.629727683</DistanceMeters>
          </Trackpoint>
          <Trackpoint>
            <Time>2022-11-06T11:51:40.000Z</Time>
            <Position>
              <LatitudeDegrees>41.3614364527165889739990234375</LatitudeDegrees>
              <LongitudeDegrees>-1.64514689706265926361083984375</LongitudeDegrees>
            </Position>
            <AltitudeMeters>629.79998779296875</AltitudeMeters>
            <DistanceMeters>22784.240119031</DistanceMeters>
          </Trackpoint>
          <Trackpoint>
            <Time>2022-11-06T11:51:41.000Z</Time>
            <Position>
              <LatitudeDegrees>41.36140602640807628631591796875</LatitudeDegrees>
              <LongitudeDegrees>-1.64514237083494663238525390625</LongitudeDegrees>
            </Position>
            <AltitudeMeters>629.79998779296875</AltitudeMeters>
            <DistanceMeters>22787.647857036</DistanceMeters>
          </Trackpoint>
          <Trackpoint>
            <Time>2022-11-06T11:51:42.000Z</Time>
            <Position>
              <LatitudeDegrees>41.3613683916628360748291015625</LatitudeDegrees>
              <LongitudeDegrees>-1.64513717405498027801513671875</LongitudeDegrees>
            </Position>
            <AltitudeMeters>630</AltitudeMeters>
            <DistanceMeters>22791.859159701</DistanceMeters>
          </Trackpoint>
          <Trackpoint>
            <Time>2022-11-06T11:51:43.000Z</Time>
            <Position>
              <LatitudeDegrees>41.36132908053696155548095703125</LatitudeDegrees>
              <LongitudeDegrees>-1.64513231255114078521728515625</LongitudeDegrees>
            </Position>
            <AltitudeMeters>630.20001220703125</AltitudeMeters>
            <DistanceMeters>22796.253053582</DistanceMeters>
          </Trackpoint>
          <Trackpoint>
            <Time>2022-11-06T11:51:50.000Z</Time>
            <Position>
              <LatitudeDegrees>41.36104040779173374176025390625</LatitudeDegrees>
              <LongitudeDegrees>-1.6450857929885387420654296875</LongitudeDegrees>
            </Position>
            <AltitudeMeters>630.4000244140625</AltitudeMeters>
            <DistanceMeters>22828.617149229</DistanceMeters>
          </Trackpoint>
          <Trackpoint>
            <Time>2022-11-06T11:51:56.000Z</Time>
            <Position>
              <LatitudeDegrees>41.36083672754466533660888671875</LatitudeDegrees>
              <LongitudeDegrees>-1.6450458951294422149658203125</LongitudeDegrees>
            </Position>
            <AltitudeMeters>631</AltitudeMeters>
            <DistanceMeters>22851.53100453</DistanceMeters>
          </Trackpoint>
          <Trackpoint>
            <Time>2022-11-06T11:51:57.000Z</Time>
            <Position>
              <LatitudeDegrees>41.3608024455606937408447265625</LatitudeDegrees>
              <LongitudeDegrees>-1.6450351662933826446533203125</LongitudeDegrees>
            </Position>
            <AltitudeMeters>631.4000244140625</AltitudeMeters>
            <DistanceMeters>22855.449056336</DistanceMeters>
          </Trackpoint>
          <Trackpoint>
            <Time>2022-11-06T11:51:59.000Z</Time>
            <Position>
              <LatitudeDegrees>41.36074603535234928131103515625</LatitudeDegrees>
              <LongitudeDegrees>-1.6450135409832000732421875</LongitudeDegrees>
            </Position>
            <AltitudeMeters>632</AltitudeMeters>
            <DistanceMeters>22861.983136334</DistanceMeters>
          </Trackpoint>
          <Trackpoint>
            <Time>2022-11-06T11:52:00.000Z</Time>
            <Position>
              <LatitudeDegrees>41.360716111958026885986328125</LatitudeDegrees>
              <LongitudeDegrees>-1.644995100796222686767578125</LongitudeDegrees>
            </Position>
            <AltitudeMeters>632.4000244140625</AltitudeMeters>
            <DistanceMeters>22865.652447438</DistanceMeters>
          </Trackpoint>
          <Trackpoint>
            <Time>2022-11-06T11:52:01.000Z</Time>
            <Position>
              <LatitudeDegrees>41.3606864400207996368408203125</LatitudeDegrees>
              <LongitudeDegrees>-1.6449754871428012847900390625</LongitudeDegrees>
            </Position>
            <AltitudeMeters>632.79998779296875</AltitudeMeters>
            <DistanceMeters>22869.337720152</DistanceMeters>
          </Trackpoint>
          <Trackpoint>
            <Time>2022-11-06T11:52:02.000Z</Time>
            <Position>
              <LatitudeDegrees>41.360660456120967864990234375</LatitudeDegrees>
              <LongitudeDegrees>-1.644952856004238128662109375</LongitudeDegrees>
            </Position>
            <AltitudeMeters>633</AltitudeMeters>
            <DistanceMeters>22872.792826671</DistanceMeters>
          </Trackpoint>
          <Trackpoint>
            <Time>2022-11-06T11:52:03.000Z</Time>
            <Position>
              <LatitudeDegrees>41.36063690297305583953857421875</LatitudeDegrees>
              <LongitudeDegrees>-1.64492896758019924163818359375</LongitudeDegrees>
            </Position>
            <AltitudeMeters>633.20001220703125</AltitudeMeters>
            <DistanceMeters>22876.087390661</DistanceMeters>
          </Trackpoint>
          <Trackpoint>
            <Time>2022-11-06T11:52:04.000Z</Time>
            <Position>
              <LatitudeDegrees>41.36061645112931728363037109375</LatitudeDegrees>
              <LongitudeDegrees>-1.64490667171776294708251953125</LongitudeDegrees>
            </Position>
            <AltitudeMeters>633.4000244140625</AltitudeMeters>
            <DistanceMeters>22879.027081658</DistanceMeters>
          </Trackpoint>
          <Trackpoint>
            <Time>2022-11-06T11:52:05.000Z</Time>
            <Position>
              <LatitudeDegrees>41.36059666983783245086669921875</LatitudeDegrees>
              <LongitudeDegrees>-1.64488353766500949859619140625</LongitudeDegrees>
            </Position>
            <AltitudeMeters>633.5999755859375</AltitudeMeters>
            <DistanceMeters>22881.954459759</DistanceMeters>
          </Trackpoint>
          <Trackpoint>
            <Time>2022-11-06T11:52:06.000Z</Time>
            <Position>
              <LatitudeDegrees>41.3605744577944278717041015625</LatitudeDegrees>
              <LongitudeDegrees>-1.64485822431743144989013671875</LongitudeDegrees>
            </Position>
            <AltitudeMeters>634.20001220703125</AltitudeMeters>
            <DistanceMeters>22885.207650437</DistanceMeters>
          </Trackpoint>
          <Trackpoint>
            <Time>2022-11-06T11:52:07.000Z</Time>
            <Position>
              <LatitudeDegrees>41.36056146584451198577880859375</LatitudeDegrees>
              <LongitudeDegrees>-1.64484078995883464813232421875</LongitudeDegrees>
            </Position>
            <AltitudeMeters>636</AltitudeMeters>
            <DistanceMeters>22887.261195104</DistanceMeters>
          </Trackpoint>
          <Trackpoint>
            <Time>2022-11-06T11:52:08.000Z</Time>
            <Position>
              <LatitudeDegrees>41.360546462237834930419921875</LatitudeDegrees>
              <LongitudeDegrees>-1.64481916464865207672119140625</LongitudeDegrees>
            </Position>
            <AltitudeMeters>636</AltitudeMeters>
            <DistanceMeters>22889.720900619</DistanceMeters>
          </Trackpoint>
          <Trackpoint>
            <Time>2022-11-06T11:52:09.000Z</Time>
            <Position>
              <LatitudeDegrees>41.36052425019443035125732421875</LatitudeDegrees>
              <LongitudeDegrees>-1.64479720406234264373779296875</LongitudeDegrees>
            </Position>
            <AltitudeMeters>636</AltitudeMeters>
            <DistanceMeters>22892.800118095</DistanceMeters>
          </Trackpoint>
          <Trackpoint>
            <Time>2022-11-06T11:52:10.000Z</Time>
            <Position>
              <LatitudeDegrees>41.3605119287967681884765625</LatitudeDegrees>
              <LongitudeDegrees>-1.64478312246501445770263671875</LongitudeDegrees>
            </Position>
            <AltitudeMeters>636.4000244140625</AltitudeMeters>
            <DistanceMeters>22894.605625668</DistanceMeters>
          </Trackpoint>
          <Trackpoint>
            <Time>2022-11-06T11:52:11.000Z</Time>
            <Position>
              <LatitudeDegrees>41.3605003617703914642333984375</LatitudeDegrees>
              <LongitudeDegrees>-1.6447614133358001708984375</LongitudeDegrees>
            </Position>
            <AltitudeMeters>636.79998779296875</AltitudeMeters>
            <DistanceMeters>22896.830144018</DistanceMeters>
          </Trackpoint>
          <Trackpoint>
            <Time>2022-11-06T11:52:12.000Z</Time>
            <Position>
              <LatitudeDegrees>41.36049675755202770233154296875</LatitudeDegrees>
              <LongitudeDegrees>-1.64473702199757099151611328125</LongitudeDegrees>
            </Position>
            <AltitudeMeters>637.20001220703125</AltitudeMeters>
            <DistanceMeters>22898.907733136</DistanceMeters>
          </Trackpoint>
          <Trackpoint>
            <Time>2022-11-06T11:52:13.000Z</Time>
            <Position>
              <LatitudeDegrees>41.36050597764551639556884765625</LatitudeDegrees>
              <LongitudeDegrees>-1.6447082720696926116943359375</LongitudeDegrees>
            </Position>
            <AltitudeMeters>637.20001220703125</AltitudeMeters>
            <DistanceMeters>22901.51880719</DistanceMeters>
          </Trackpoint>
          <Trackpoint>
            <Time>2022-11-06T11:52:14.000Z</Time>
            <Position>
              <LatitudeDegrees>41.36052927933633327484130859375</LatitudeDegrees>
              <LongitudeDegrees>-1.64466091431677341461181640625</LongitudeDegrees>
            </Position>
            <AltitudeMeters>637.4000244140625</AltitudeMeters>
            <DistanceMeters>22906.248236262</DistanceMeters>
          </Trackpoint>
          <Trackpoint>
            <Time>2022-11-06T11:52:15.000Z</Time>
            <Position>
              <LatitudeDegrees>41.360556185245513916015625</LatitudeDegrees>
              <LongitudeDegrees>-1.64462252520024776458740234375</LongitudeDegrees>
            </Position>
            <AltitudeMeters>637.20001220703125</AltitudeMeters>
            <DistanceMeters>22910.635960385</DistanceMeters>
          </Trackpoint>
          <Trackpoint>
            <Time>2022-11-06T11:52:16.000Z</Time>
            <Position>
              <LatitudeDegrees>41.3605950772762298583984375</LatitudeDegrees>
              <LongitudeDegrees>-1.64457038976252079010009765625</LongitudeDegrees>
            </Position>
            <AltitudeMeters>636.79998779296875</AltitudeMeters>
            <DistanceMeters>22916.776774601</DistanceMeters>
          </Trackpoint>
          <Trackpoint>
            <Time>2022-11-06T11:52:17.000Z</Time>
            <Position>
              <LatitudeDegrees>41.3606452010571956634521484375</LatitudeDegrees>
              <LongitudeDegrees>-1.64449897594749927520751953125</LongitudeDegrees>
            </Position>
            <AltitudeMeters>636.4000244140625</AltitudeMeters>
            <DistanceMeters>22924.944650993</DistanceMeters>
          </Trackpoint>
          <Trackpoint>
            <Time>2022-11-06T11:52:18.000Z</Time>
            <Position>
              <LatitudeDegrees>41.3606790639460086822509765625</LatitudeDegrees>
              <LongitudeDegrees>-1.64444767870008945465087890625</LongitudeDegrees>
            </Position>
            <AltitudeMeters>635.79998779296875</AltitudeMeters>
            <DistanceMeters>22930.652585454</DistanceMeters>
          </Trackpoint>
          <Trackpoint>
            <Time>2022-11-06T11:52:19.000Z</Time>
            <Position>
              <LatitudeDegrees>41.3607243262231349945068359375</LatitudeDegrees>
              <LongitudeDegrees>-1.6443817131221294403076171875</LongitudeDegrees>
            </Position>
            <AltitudeMeters>635.4000244140625</AltitudeMeters>
            <DistanceMeters>22938.119291017</DistanceMeters>
          </Trackpoint>
          <Trackpoint>
            <Time>2022-11-06T11:52:20.000Z</Time>
            <Position>
              <LatitudeDegrees>41.36078308336436748504638671875</LatitudeDegrees>
              <LongitudeDegrees>-1.6442935355007648468017578125</LongitudeDegrees>
            </Position>
            <AltitudeMeters>634.5999755859375</AltitudeMeters>
            <DistanceMeters>22947.969578901</DistanceMeters>
          </Trackpoint>
          <Trackpoint>
            <Time>2022-11-06T11:52:21.000Z</Time>
            <Position>
              <LatitudeDegrees>41.36082583107054233551025390625</LatitudeDegrees>
              <LongitudeDegrees>-1.64422824047505855560302734375</LongitudeDegrees>
            </Position>
            <AltitudeMeters>634.20001220703125</AltitudeMeters>
            <DistanceMeters>22955.207845512</DistanceMeters>
          </Trackpoint>
          <Trackpoint>
            <Time>2022-11-06T11:52:22.000Z</Time>
            <Position>
              <LatitudeDegrees>41.36087746359407901763916015625</LatitudeDegrees>
              <LongitudeDegrees>-1.644148863852024078369140625</LongitudeDegrees>
            </Position>
            <AltitudeMeters>634</AltitudeMeters>
            <DistanceMeters>22963.983293757</DistanceMeters>
          </Trackpoint>
          <Trackpoint>
            <Time>2022-11-06T11:52:23.000Z</Time>
            <Position>
              <LatitudeDegrees>41.36092959903180599212646484375</LatitudeDegrees>
              <LongitudeDegrees>-1.64406781084835529327392578125</LongitudeDegrees>
            </Position>
            <AltitudeMeters>633.79998779296875</AltitudeMeters>
            <DistanceMeters>22972.900628178</DistanceMeters>
          </Trackpoint>
          <Trackpoint>
            <Time>2022-11-06T11:52:24.000Z</Time>
            <Position>
              <LatitudeDegrees>41.36097569949924945831298828125</LatitudeDegrees>
              <LongitudeDegrees>-1.6439857520163059234619140625</LongitudeDegrees>
            </Position>
            <AltitudeMeters>633.20001220703125</AltitudeMeters>
            <DistanceMeters>22981.463584485</DistanceMeters>
          </Trackpoint>
          <Trackpoint>
            <Time>2022-11-06T11:52:25.000Z</Time>
            <Position>
              <LatitudeDegrees>41.36102481745183467864990234375</LatitudeDegrees>
              <LongitudeDegrees>-1.64388709701597690582275390625</LongitudeDegrees>
            </Position>
            <AltitudeMeters>632.79998779296875</AltitudeMeters>
            <DistanceMeters>22991.353669826</DistanceMeters>
          </Trackpoint>
          <Trackpoint>
            <Time>2022-11-06T11:52:26.000Z</Time>
            <Position>
              <LatitudeDegrees>41.3610482029616832733154296875</LatitudeDegrees>
              <LongitudeDegrees>-1.643818281590938568115234375</LongitudeDegrees>
            </Position>
            <AltitudeMeters>632.5999755859375</AltitudeMeters>
            <DistanceMeters>22997.664187801</DistanceMeters>
          </Trackpoint>
          <Trackpoint>
            <Time>2022-11-06T11:52:27.000Z</Time>
            <Position>
              <LatitudeDegrees>41.361064128577709197998046875</LatitudeDegrees>
              <LongitudeDegrees>-1.6437299363315105438232421875</LongitudeDegrees>
            </Position>
            <AltitudeMeters>632.20001220703125</AltitudeMeters>
            <DistanceMeters>23005.254437317</DistanceMeters>
          </Trackpoint>
          <Trackpoint>
            <Time>2022-11-06T11:52:28.000Z</Time>
            <Position>
              <LatitudeDegrees>41.3610740192234516143798828125</LatitudeDegrees>
              <LongitudeDegrees>-1.64364159107208251953125</LongitudeDegrees>
            </Position>
            <AltitudeMeters>632</AltitudeMeters>
            <DistanceMeters>23012.716303796</DistanceMeters>
          </Trackpoint>
          <Trackpoint>
            <Time>2022-11-06T11:52:29.000Z</Time>
            <Position>
              <LatitudeDegrees>41.36108399368822574615478515625</LatitudeDegrees>
              <LongitudeDegrees>-1.64354980923235416412353515625</LongitudeDegrees>
            </Position>
            <AltitudeMeters>631.79998779296875</AltitudeMeters>
            <DistanceMeters>23020.464332462</DistanceMeters>
          </Trackpoint>
          <Trackpoint>
            <Time>2022-11-06T11:52:31.000Z</Time>
            <Position>
              <LatitudeDegrees>41.36111416853964328765869140625</LatitudeDegrees>
              <LongitudeDegrees>-1.643369682133197784423828125</LongitudeDegrees>
            </Position>
            <AltitudeMeters>631.5999755859375</AltitudeMeters>
            <DistanceMeters>23035.882105722</DistanceMeters>
          </Trackpoint>
          <Trackpoint>
            <Time>2022-11-06T11:52:32.000Z</Time>
            <Position>
              <LatitudeDegrees>41.36112707667052745819091796875</LatitudeDegrees>
              <LongitudeDegrees>-1.64327806793153285980224609375</LongitudeDegrees>
            </Position>
            <AltitudeMeters>631.20001220703125</AltitudeMeters>
            <DistanceMeters>23043.669659471</DistanceMeters>
          </Trackpoint>
          <Trackpoint>
            <Time>2022-11-06T11:52:33.000Z</Time>
            <Position>
              <LatitudeDegrees>41.3611518032848834991455078125</LatitudeDegrees>
              <LongitudeDegrees>-1.64317094720900058746337890625</LongitudeDegrees>
            </Position>
            <AltitudeMeters>630.79998779296875</AltitudeMeters>
            <DistanceMeters>23053.032564048</DistanceMeters>
          </Trackpoint>
          <Trackpoint>
            <Time>2022-11-06T11:52:35.000Z</Time>
            <Position>
              <LatitudeDegrees>41.3612191937863826751708984375</LatitudeDegrees>
              <LongitudeDegrees>-1.64303398691117763519287109375</LongitudeDegrees>
            </Position>
            <AltitudeMeters>630</AltitudeMeters>
            <DistanceMeters>23066.713771032</DistanceMeters>
          </Trackpoint>
          <Trackpoint>
            <Time>2022-11-06T11:52:36.000Z</Time>
            <Position>
              <LatitudeDegrees>41.3612466864287853240966796875</LatitudeDegrees>
              <LongitudeDegrees>-1.6429547779262065887451171875</LongitudeDegrees>
            </Position>
            <AltitudeMeters>629.5999755859375</AltitudeMeters>
            <DistanceMeters>23074.004246322</DistanceMeters>
          </Trackpoint>
          <Trackpoint>
            <Time>2022-11-06T11:52:37.000Z</Time>
            <Position>
              <LatitudeDegrees>41.36125096119940280914306640625</LatitudeDegrees>
              <LongitudeDegrees>-1.642909348011016845703125</LongitudeDegrees>
            </Position>
            <AltitudeMeters>629</AltitudeMeters>
            <DistanceMeters>23077.828997796</DistanceMeters>
          </Trackpoint>
          <Trackpoint>
            <Time>2022-11-06T11:52:38.000Z</Time>
            <Position>
              <LatitudeDegrees>41.3612443394958972930908203125</LatitudeDegrees>
              <LongitudeDegrees>-1.64286064915359020233154296875</LongitudeDegrees>
            </Position>
            <AltitudeMeters>628.79998779296875</AltitudeMeters>
            <DistanceMeters>23081.964570886</DistanceMeters>
          </Trackpoint>
          <Trackpoint>
            <Time>2022-11-06T11:52:39.000Z</Time>
            <Position>
              <LatitudeDegrees>41.36121843941509723663330078125</LatitudeDegrees>
              <LongitudeDegrees>-1.64280004799365997314453125</LongitudeDegrees>
            </Position>
            <AltitudeMeters>628.4000244140625</AltitudeMeters>
            <DistanceMeters>23087.790723764</DistanceMeters>
          </Trackpoint>
          <Trackpoint>
            <Time>2022-11-06T11:52:40.000Z</Time>
            <Position>
              <LatitudeDegrees>41.36120368726551532745361328125</LatitudeDegrees>
              <LongitudeDegrees>-1.6427629999816417694091796875</LongitudeDegrees>
            </Position>
            <AltitudeMeters>628.4000244140625</AltitudeMeters>
            <DistanceMeters>23091.295135835</DistanceMeters>
          </Trackpoint>
          <Trackpoint>
            <Time>2022-11-06T11:52:41.000Z</Time>
            <Position>
              <LatitudeDegrees>41.36118725873529911041259765625</LatitudeDegrees>
              <LongitudeDegrees>-1.6427093558013439178466796875</LongitudeDegrees>
            </Position>
            <AltitudeMeters>628.4000244140625</AltitudeMeters>
            <DistanceMeters>23096.134972433</DistanceMeters>
          </Trackpoint>
          <Trackpoint>
            <Time>2022-11-06T11:52:42.000Z</Time>
            <Position>
              <LatitudeDegrees>41.36117887683212757110595703125</LatitudeDegrees>
              <LongitudeDegrees>-1.6426721401512622833251953125</LongitudeDegrees>
            </Position>
            <AltitudeMeters>628.20001220703125</AltitudeMeters>
            <DistanceMeters>23099.381216295</DistanceMeters>
          </Trackpoint>
          <Trackpoint>
            <Time>2022-11-06T11:52:43.000Z</Time>
            <Position>
              <LatitudeDegrees>41.36117384769022464752197265625</LatitudeDegrees>
              <LongitudeDegrees>-1.6426148079335689544677734375</LongitudeDegrees>
            </Position>
            <AltitudeMeters>628</AltitudeMeters>
            <DistanceMeters>23104.204231629</DistanceMeters>
          </Trackpoint>
          <Trackpoint>
            <Time>2022-11-06T11:52:44.000Z</Time>
            <Position>
              <LatitudeDegrees>41.36117108166217803955078125</LatitudeDegrees>
              <LongitudeDegrees>-1.64255118928849697113037109375</LongitudeDegrees>
            </Position>
            <AltitudeMeters>627.5999755859375</AltitudeMeters>
            <DistanceMeters>23109.528272384</DistanceMeters>
          </Trackpoint>
          <Trackpoint>
            <Time>2022-11-06T11:52:45.000Z</Time>
            <Position>
              <LatitudeDegrees>41.3611712493002414703369140625</LatitudeDegrees>
              <LongitudeDegrees>-1.6424867324531078338623046875</LongitudeDegrees>
            </Position>
            <AltitudeMeters>627</AltitudeMeters>
            <DistanceMeters>23114.913026367</DistanceMeters>
          </Trackpoint>
          <Trackpoint>
            <Time>2022-11-06T11:52:46.000Z</Time>
            <Position>
              <LatitudeDegrees>41.3611809723079204559326171875</LatitudeDegrees>
              <LongitudeDegrees>-1.64241607300937175750732421875</LongitudeDegrees>
            </Position>
            <AltitudeMeters>625.5999755859375</AltitudeMeters>
            <DistanceMeters>23120.91402169</DistanceMeters>
          </Trackpoint>
          <Trackpoint>
            <Time>2022-11-06T11:52:47.000Z</Time>
            <Position>
              <LatitudeDegrees>41.3611990772187709808349609375</LatitudeDegrees>
              <LongitudeDegrees>-1.6423174180090427398681640625</LongitudeDegrees>
            </Position>
            <AltitudeMeters>624.4000244140625</AltitudeMeters>
            <DistanceMeters>23129.398582339</DistanceMeters>
          </Trackpoint>
          <Trackpoint>
            <Time>2022-11-06T11:52:48.000Z</Time>
            <Position>
              <LatitudeDegrees>41.36121542192995548248291015625</LatitudeDegrees>
              <LongitudeDegrees>-1.64224944077432155609130859375</LongitudeDegrees>
            </Position>
            <AltitudeMeters>623.20001220703125</AltitudeMeters>
            <DistanceMeters>23135.361839925</DistanceMeters>
          </Trackpoint>
          <Trackpoint>
            <Time>2022-11-06T11:52:49.000Z</Time>
            <Position>
              <LatitudeDegrees>41.361232101917266845703125</LatitudeDegrees>
              <LongitudeDegrees>-1.6422118060290813446044921875</LongitudeDegrees>
            </Position>
            <AltitudeMeters>621.79998779296875</AltitudeMeters>
            <DistanceMeters>23139.012647073</DistanceMeters>
          </Trackpoint>
          <Trackpoint>
            <Time>2022-11-06T11:52:50.000Z</Time>
            <Position>
              <LatitudeDegrees>41.36125498451292514801025390625</LatitudeDegrees>
              <LongitudeDegrees>-1.642155982553958892822265625</LongitudeDegrees>
            </Position>
            <AltitudeMeters>621</AltitudeMeters>
            <DistanceMeters>23144.325651775</DistanceMeters>
          </Trackpoint>
          <Trackpoint>
            <Time>2022-11-06T11:52:51.000Z</Time>
            <Position>
              <LatitudeDegrees>41.3612815551459789276123046875</LatitudeDegrees>
              <LongitudeDegrees>-1.64207811467349529266357421875</LongitudeDegrees>
            </Position>
            <AltitudeMeters>620</AltitudeMeters>
            <DistanceMeters>23151.471635422</DistanceMeters>
          </Trackpoint>
          <Trackpoint>
            <Time>2022-11-06T11:52:53.000Z</Time>
            <Position>
              <LatitudeDegrees>41.36133997701108455657958984375</LatitudeDegrees>
              <LongitudeDegrees>-1.64192774333059787750244140625</LongitudeDegrees>
            </Position>
            <AltitudeMeters>618.4000244140625</AltitudeMeters>
            <DistanceMeters>23165.616578115</DistanceMeters>
          </Trackpoint>
          <Trackpoint>
            <Time>2022-11-06T11:52:54.000Z</Time>
            <Position>
              <LatitudeDegrees>41.36135640554130077362060546875</LatitudeDegrees>
              <LongitudeDegrees>-1.64187862537801265716552734375</LongitudeDegrees>
            </Position>
            <AltitudeMeters>617.79998779296875</AltitudeMeters>
            <DistanceMeters>23170.108035648</DistanceMeters>
          </Trackpoint>
          <Trackpoint>
            <Time>2022-11-06T11:52:55.000Z</Time>
            <Position>
              <LatitudeDegrees>41.36136897839605808258056640625</LatitudeDegrees>
              <LongitudeDegrees>-1.64184023626148700714111328125</LongitudeDegrees>
            </Position>
            <AltitudeMeters>617.4000244140625</AltitudeMeters>
            <DistanceMeters>23173.607290377</DistanceMeters>
          </Trackpoint>
          <Trackpoint>
            <Time>2022-11-06T11:52:56.000Z</Time>
            <Position>
              <LatitudeDegrees>41.36139295063912868499755859375</LatitudeDegrees>
              <LongitudeDegrees>-1.6417762823402881622314453125</LongitudeDegrees>
            </Position>
            <AltitudeMeters>617</AltitudeMeters>
            <DistanceMeters>23179.578870727</DistanceMeters>
          </Trackpoint>
          <Trackpoint>
            <Time>2022-11-06T11:52:57.000Z</Time>
            <Position>
              <LatitudeDegrees>41.36141574941575527191162109375</LatitudeDegrees>
              <LongitudeDegrees>-1.6417119093239307403564453125</LongitudeDegrees>
            </Position>
            <AltitudeMeters>616.4000244140625</AltitudeMeters>
            <DistanceMeters>23185.52544784</DistanceMeters>
          </Trackpoint>
          <Trackpoint>
            <Time>2022-11-06T11:52:58.000Z</Time>
            <Position>
              <LatitudeDegrees>41.3614438287913799285888671875</LatitudeDegrees>
              <LongitudeDegrees>-1.64161677472293376922607421875</LongitudeDegrees>
            </Position>
            <AltitudeMeters>615.20001220703125</AltitudeMeters>
            <DistanceMeters>23194.065172505</DistanceMeters>
          </Trackpoint>
          <Trackpoint>
            <Time>2022-11-06T11:52:59.000Z</Time>
            <Position>
              <LatitudeDegrees>41.36147760786116123199462890625</LatitudeDegrees>
              <LongitudeDegrees>-1.6414971649646759033203125</LongitudeDegrees>
            </Position>
            <AltitudeMeters>614.20001220703125</AltitudeMeters>
            <DistanceMeters>23204.741202895</DistanceMeters>
          </Trackpoint>
          <Trackpoint>
            <Time>2022-11-06T11:53:00.000Z</Time>
            <Position>
              <LatitudeDegrees>41.3615058548748493194580078125</LatitudeDegrees>
              <LongitudeDegrees>-1.64142382331192493438720703125</LongitudeDegrees>
            </Position>
            <AltitudeMeters>613</AltitudeMeters>
            <DistanceMeters>23211.627853857</DistanceMeters>
          </Trackpoint>
          <Trackpoint>
            <Time>2022-11-06T11:53:02.000Z</Time>
            <Position>
              <LatitudeDegrees>41.36157877743244171142578125</LatitudeDegrees>
              <LongitudeDegrees>-1.6412369906902313232421875</LongitudeDegrees>
            </Position>
            <AltitudeMeters>610.79998779296875</AltitudeMeters>
            <DistanceMeters>23229.219606181</DistanceMeters>
          </Trackpoint>
          <Trackpoint>
            <Time>2022-11-06T11:53:04.000Z</Time>
            <Position>
              <LatitudeDegrees>41.36163317598402500152587890625</LatitudeDegrees>
              <LongitudeDegrees>-1.64108703844249248504638671875</LongitudeDegrees>
            </Position>
            <AltitudeMeters>608.4000244140625</AltitudeMeters>
            <DistanceMeters>23243.133152774</DistanceMeters>
          </Trackpoint>
          <Trackpoint>
            <Time>2022-11-06T11:53:05.000Z</Time>
            <Position>
              <LatitudeDegrees>41.361665613949298858642578125</LatitudeDegrees>
              <LongitudeDegrees>-1.64103691466152667999267578125</LongitudeDegrees>
            </Position>
            <AltitudeMeters>607.4000244140625</AltitudeMeters>
            <DistanceMeters>23248.662695146</DistanceMeters>
          </Trackpoint>
          <Trackpoint>
            <Time>2022-11-06T11:53:06.000Z</Time>
            <Position>
              <LatitudeDegrees>41.36171062476933002471923828125</LatitudeDegrees>
              <LongitudeDegrees>-1.64098553359508514404296875</LongitudeDegrees>
            </Position>
            <AltitudeMeters>606.4000244140625</AltitudeMeters>
            <DistanceMeters>23255.260040707</DistanceMeters>
          </Trackpoint>
          <Trackpoint>
            <Time>2022-11-06T11:53:07.000Z</Time>
            <Position>
              <LatitudeDegrees>41.3617485947906970977783203125</LatitudeDegrees>
              <LongitudeDegrees>-1.64092778228223323822021484375</LongitudeDegrees>
            </Position>
            <AltitudeMeters>605.5999755859375</AltitudeMeters>
            <DistanceMeters>23261.67346399</DistanceMeters>
          </Trackpoint>
          <Trackpoint>
            <Time>2022-11-06T11:53:08.000Z</Time>
            <Position>
              <LatitudeDegrees>41.361764185130596160888671875</LatitudeDegrees>
              <LongitudeDegrees>-1.640874557197093963623046875</LongitudeDegrees>
            </Position>
            <AltitudeMeters>604.4000244140625</AltitudeMeters>
            <DistanceMeters>23266.445659794</DistanceMeters>
          </Trackpoint>
          <Trackpoint>
            <Time>2022-11-06T11:53:09.000Z</Time>
            <Position>
              <LatitudeDegrees>41.36177382431924343109130859375</LatitudeDegrees>
              <LongitudeDegrees>-1.6408214159309864044189453125</LongitudeDegrees>
            </Position>
            <AltitudeMeters>603.5999755859375</AltitudeMeters>
            <DistanceMeters>23271.01188871</DistanceMeters>
          </Trackpoint>
          <Trackpoint>
            <Time>2022-11-06T11:53:10.000Z</Time>
            <Position>
              <LatitudeDegrees>41.3617975451052188873291015625</LatitudeDegrees>
              <LongitudeDegrees>-1.64077305234968662261962890625</LongitudeDegrees>
            </Position>
            <AltitudeMeters>603</AltitudeMeters>
            <DistanceMeters>23275.83771166</DistanceMeters>
          </Trackpoint>
          <Trackpoint>
            <Time>2022-11-06T11:53:11.000Z</Time>
            <Position>
              <LatitudeDegrees>41.361833252012729644775390625</LatitudeDegrees>
              <LongitudeDegrees>-1.6407345794141292572021484375</LongitudeDegrees>
            </Position>
            <AltitudeMeters>602.20001220703125</AltitudeMeters>
            <DistanceMeters>23280.948877002</DistanceMeters>
          </Trackpoint>
          <Trackpoint>
            <Time>2022-11-06T11:53:12.000Z</Time>
            <Position>
              <LatitudeDegrees>41.36187759228050708770751953125</LatitudeDegrees>
              <LongitudeDegrees>-1.6406728886067867279052734375</LongitudeDegrees>
            </Position>
            <AltitudeMeters>601.5999755859375</AltitudeMeters>
            <DistanceMeters>23288.084111475</DistanceMeters>
          </Trackpoint>
          <Trackpoint>
            <Time>2022-11-06T11:53:14.000Z</Time>
            <Position>
              <LatitudeDegrees>41.36192344129085540771484375</LatitudeDegrees>
              <LongitudeDegrees>-1.64056937210261821746826171875</LongitudeDegrees>
            </Position>
            <AltitudeMeters>600</AltitudeMeters>
            <DistanceMeters>23298.125067779</DistanceMeters>
          </Trackpoint>
          <Trackpoint>
            <Time>2022-11-06T11:53:15.000Z</Time>
            <Position>
              <LatitudeDegrees>41.36193576268851757049560546875</LatitudeDegrees>
              <LongitudeDegrees>-1.64051606319844722747802734375</LongitudeDegrees>
            </Position>
            <AltitudeMeters>599.20001220703125</AltitudeMeters>
            <DistanceMeters>23302.784284856</DistanceMeters>
          </Trackpoint>
          <Trackpoint>
            <Time>2022-11-06T11:53:16.000Z</Time>
            <Position>
              <LatitudeDegrees>41.3619469106197357177734375</LatitudeDegrees>
              <LongitudeDegrees>-1.64046543650329113006591796875</LongitudeDegrees>
            </Position>
            <AltitudeMeters>598.5999755859375</AltitudeMeters>
            <DistanceMeters>23307.192541259</DistanceMeters>
          </Trackpoint>
          <Trackpoint>
            <Time>2022-11-06T11:53:17.000Z</Time>
            <Position>
              <LatitudeDegrees>41.36195956729352474212646484375</LatitudeDegrees>
              <LongitudeDegrees>-1.64041782729327678680419921875</LongitudeDegrees>
            </Position>
            <AltitudeMeters>598</AltitudeMeters>
            <DistanceMeters>23311.412412198</DistanceMeters>
          </Trackpoint>
          <Trackpoint>
            <Time>2022-11-06T11:53:18.000Z</Time>
            <Position>
              <LatitudeDegrees>41.3619722239673137664794921875</LatitudeDegrees>
              <LongitudeDegrees>-1.6403691284358501434326171875</LongitudeDegrees>
            </Position>
            <AltitudeMeters>597.4000244140625</AltitudeMeters>
            <DistanceMeters>23315.718076716</DistanceMeters>
          </Trackpoint>
          <Trackpoint>
            <Time>2022-11-06T11:53:19.000Z</Time>
            <Position>
              <LatitudeDegrees>41.36198605410754680633544921875</LatitudeDegrees>
              <LongitudeDegrees>-1.640314646065235137939453125</LongitudeDegrees>
            </Position>
            <AltitudeMeters>597.20001220703125</AltitudeMeters>
            <DistanceMeters>23320.522332682</DistanceMeters>
          </Trackpoint>
          <Trackpoint>
            <Time>2022-11-06T11:53:20.000Z</Time>
            <Position>
              <LatitudeDegrees>41.36199845932424068450927734375</LatitudeDegrees>
              <LongitudeDegrees>-1.64025136269629001617431640625</LongitudeDegrees>
            </Position>
            <AltitudeMeters>596.4000244140625</AltitudeMeters>
            <DistanceMeters>23325.986988463</DistanceMeters>
          </Trackpoint>
          <Trackpoint>
            <Time>2022-11-06T11:53:22.000Z</Time>
            <Position>
              <LatitudeDegrees>41.362023018300533294677734375</LatitudeDegrees>
              <LongitudeDegrees>-1.64011222310364246368408203125</LongitudeDegrees>
            </Position>
            <AltitudeMeters>595</AltitudeMeters>
            <DistanceMeters>23337.927124429</DistanceMeters>
          </Trackpoint>
          <Trackpoint>
            <Time>2022-11-06T11:53:24.000Z</Time>
            <Position>
              <LatitudeDegrees>41.36203701607882976531982421875</LatitudeDegrees>
              <LongitudeDegrees>-1.6399728320538997650146484375</LongitudeDegrees>
            </Position>
            <AltitudeMeters>593.79998779296875</AltitudeMeters>
            <DistanceMeters>23349.675132276</DistanceMeters>
          </Trackpoint>
          <Trackpoint>
            <Time>2022-11-06T11:53:25.000Z</Time>
            <Position>
              <LatitudeDegrees>41.3620409555733203887939453125</LatitudeDegrees>
              <LongitudeDegrees>-1.63990485481917858123779296875</LongitudeDegrees>
            </Position>
            <AltitudeMeters>593</AltitudeMeters>
            <DistanceMeters>23355.371189216</DistanceMeters>
          </Trackpoint>
          <Trackpoint>
            <Time>2022-11-06T11:53:26.000Z</Time>
            <Position>
              <LatitudeDegrees>41.36203818954527378082275390625</LatitudeDegrees>
              <LongitudeDegrees>-1.6398420743644237518310546875</LongitudeDegrees>
            </Position>
            <AltitudeMeters>592.4000244140625</AltitudeMeters>
            <DistanceMeters>23360.624370501</DistanceMeters>
          </Trackpoint>
          <Trackpoint>
            <Time>2022-11-06T11:53:27.000Z</Time>
            <Position>
              <LatitudeDegrees>41.3620308972895145416259765625</LatitudeDegrees>
              <LongitudeDegrees>-1.63978390395641326904296875</LongitudeDegrees>
            </Position>
            <AltitudeMeters>591.79998779296875</AltitudeMeters>
            <DistanceMeters>23365.550201944</DistanceMeters>
          </Trackpoint>
          <Trackpoint>
            <Time>2022-11-06T11:53:28.000Z</Time>
            <Position>
              <LatitudeDegrees>41.36202670633792877197265625</LatitudeDegrees>
              <LongitudeDegrees>-1.63972380571067333221435546875</LongitudeDegrees>
            </Position>
            <AltitudeMeters>590.79998779296875</AltitudeMeters>
            <DistanceMeters>23370.591993807</DistanceMeters>
          </Trackpoint>
          <Trackpoint>
            <Time>2022-11-06T11:53:30.000Z</Time>
            <Position>
              <LatitudeDegrees>41.3620198331773281097412109375</LatitudeDegrees>
              <LongitudeDegrees>-1.63960578851401805877685546875</LongitudeDegrees>
            </Position>
            <AltitudeMeters>589.4000244140625</AltitudeMeters>
            <DistanceMeters>23380.480252892</DistanceMeters>
          </Trackpoint>
          <Trackpoint>
            <Time>2022-11-06T11:53:32.000Z</Time>
            <Position>
              <LatitudeDegrees>41.362016312777996063232421875</LatitudeDegrees>
              <LongitudeDegrees>-1.63951124064624309539794921875</LongitudeDegrees>
            </Position>
            <AltitudeMeters>588.79998779296875</AltitudeMeters>
            <DistanceMeters>23388.388622475</DistanceMeters>
          </Trackpoint>
          <Trackpoint>
            <Time>2022-11-06T11:53:33.000Z</Time>
            <Position>
              <LatitudeDegrees>41.36201798915863037109375</LatitudeDegrees>
              <LongitudeDegrees>-1.63947687484323978424072265625</LongitudeDegrees>
            </Position>
            <AltitudeMeters>588</AltitudeMeters>
            <DistanceMeters>23391.264652729</DistanceMeters>
          </Trackpoint>
          <Trackpoint>
            <Time>2022-11-06T11:53:34.000Z</Time>
            <Position>
              <LatitudeDegrees>41.3620235212147235870361328125</LatitudeDegrees>
              <LongitudeDegrees>-1.63943982683122158050537109375</LongitudeDegrees>
            </Position>
            <AltitudeMeters>586.79998779296875</AltitudeMeters>
            <DistanceMeters>23394.419196157</DistanceMeters>
          </Trackpoint>
          <Trackpoint>
            <Time>2022-11-06T11:53:35.000Z</Time>
            <Position>
              <LatitudeDegrees>41.3620305620133876800537109375</LatitudeDegrees>
              <LongitudeDegrees>-1.6393914632499217987060546875</LongitudeDegrees>
            </Position>
            <AltitudeMeters>586</AltitudeMeters>
            <DistanceMeters>23398.535070719</DistanceMeters>
          </Trackpoint>
          <Trackpoint>
            <Time>2022-11-06T11:53:36.000Z</Time>
            <Position>
              <LatitudeDegrees>41.36204506270587444305419921875</LatitudeDegrees>
              <LongitudeDegrees>-1.6393344663083553314208984375</LongitudeDegrees>
            </Position>
            <AltitudeMeters>585.4000244140625</AltitudeMeters>
            <DistanceMeters>23403.563411802</DistanceMeters>
          </Trackpoint>
          <Trackpoint>
            <Time>2022-11-06T11:53:37.000Z</Time>
            <Position>
              <LatitudeDegrees>41.362060569226741790771484375</LatitudeDegrees>
              <LongitudeDegrees>-1.63927051238715648651123046875</LongitudeDegrees>
            </Position>
            <AltitudeMeters>584.20001220703125</AltitudeMeters>
            <DistanceMeters>23409.178035285</DistanceMeters>
          </Trackpoint>
          <Trackpoint>
            <Time>2022-11-06T11:53:38.000Z</Time>
            <Position>
              <LatitudeDegrees>41.36206752620637416839599609375</LatitudeDegrees>
              <LongitudeDegrees>-1.63920580409467220306396484375</LongitudeDegrees>
            </Position>
            <AltitudeMeters>583.5999755859375</AltitudeMeters>
            <DistanceMeters>23414.638558376</DistanceMeters>
          </Trackpoint>
          <Trackpoint>
            <Time>2022-11-06T11:53:39.000Z</Time>
            <Position>
              <LatitudeDegrees>41.36206165887415409088134765625</LatitudeDegrees>
              <LongitudeDegrees>-1.6391408443450927734375</LongitudeDegrees>
            </Position>
            <AltitudeMeters>583</AltitudeMeters>
            <DistanceMeters>23420.104040319</DistanceMeters>
          </Trackpoint>
          <Trackpoint>
            <Time>2022-11-06T11:53:40.000Z</Time>
            <Position>
              <LatitudeDegrees>41.36204548180103302001953125</LatitudeDegrees>
              <LongitudeDegrees>-1.6390766389667987823486328125</LongitudeDegrees>
            </Position>
            <AltitudeMeters>582.4000244140625</AltitudeMeters>
            <DistanceMeters>23425.761123571</DistanceMeters>
          </Trackpoint>
          <Trackpoint>
            <Time>2022-11-06T11:53:41.000Z</Time>
            <Position>
              <LatitudeDegrees>41.3620238564908504486083984375</LatitudeDegrees>
              <LongitudeDegrees>-1.63900732062757015228271484375</LongitudeDegrees>
            </Position>
            <AltitudeMeters>582.20001220703125</AltitudeMeters>
            <DistanceMeters>23432.031446755</DistanceMeters>
          </Trackpoint>
          <Trackpoint>
            <Time>2022-11-06T11:53:42.000Z</Time>
            <Position>
              <LatitudeDegrees>41.36200231499969959259033203125</LatitudeDegrees>
              <LongitudeDegrees>-1.63893054239451885223388671875</LongitudeDegrees>
            </Position>
            <AltitudeMeters>581.5999755859375</AltitudeMeters>
            <DistanceMeters>23438.879306784</DistanceMeters>
          </Trackpoint>
          <Trackpoint>
            <Time>2022-11-06T11:53:43.000Z</Time>
            <Position>
              <LatitudeDegrees>41.361976750195026397705078125</LatitudeDegrees>
              <LongitudeDegrees>-1.6388509981334209442138671875</LongitudeDegrees>
            </Position>
            <AltitudeMeters>581.20001220703125</AltitudeMeters>
            <DistanceMeters>23446.10758613</DistanceMeters>
          </Trackpoint>
          <Trackpoint>
            <Time>2022-11-06T11:53:44.000Z</Time>
            <Position>
              <LatitudeDegrees>41.3619442284107208251953125</LatitudeDegrees>
              <LongitudeDegrees>-1.63876793347299098968505859375</LongitudeDegrees>
            </Position>
            <AltitudeMeters>581</AltitudeMeters>
            <DistanceMeters>23453.933311556</DistanceMeters>
          </Trackpoint>
          <Trackpoint>
            <Time>2022-11-06T11:53:45.000Z</Time>
            <Position>
              <LatitudeDegrees>41.36190307326614856719970703125</LatitudeDegrees>
              <LongitudeDegrees>-1.6386867128312587738037109375</LongitudeDegrees>
            </Position>
            <AltitudeMeters>579.79998779296875</AltitudeMeters>
            <DistanceMeters>23462.119409362</DistanceMeters>
          </Trackpoint>
          <Trackpoint>
            <Time>2022-11-06T11:53:46.000Z</Time>
            <Position>
              <LatitudeDegrees>41.36186049319803714752197265625</LatitudeDegrees>
              <LongitudeDegrees>-1.638618148863315582275390625</LongitudeDegrees>
            </Position>
            <AltitudeMeters>578.4000244140625</AltitudeMeters>
            <DistanceMeters>23469.552782605</DistanceMeters>
          </Trackpoint>
          <Trackpoint>
            <Time>2022-11-06T11:53:48.000Z</Time>
            <Position>
              <LatitudeDegrees>41.36177918873727321624755859375</LatitudeDegrees>
              <LongitudeDegrees>-1.638514213263988494873046875</LongitudeDegrees>
            </Position>
            <AltitudeMeters>576.79998779296875</AltitudeMeters>
            <DistanceMeters>23482.094149018</DistanceMeters>
          </Trackpoint>
          <Trackpoint>
            <Time>2022-11-06T11:53:49.000Z</Time>
            <Position>
              <LatitudeDegrees>41.3617439009249210357666015625</LatitudeDegrees>
              <LongitudeDegrees>-1.63845629431307315826416015625</LongitudeDegrees>
            </Position>
            <AltitudeMeters>575.5999755859375</AltitudeMeters>
            <DistanceMeters>23488.326191924</DistanceMeters>
          </Trackpoint>
          <Trackpoint>
            <Time>2022-11-06T11:53:50.000Z</Time>
            <Position>
              <LatitudeDegrees>41.36170928366482257843017578125</LatitudeDegrees>
              <LongitudeDegrees>-1.63839192129671573638916015625</LongitudeDegrees>
            </Position>
            <AltitudeMeters>575</AltitudeMeters>
            <DistanceMeters>23494.941307225</DistanceMeters>
          </Trackpoint>
          <Trackpoint>
            <Time>2022-11-06T11:53:51.000Z</Time>
            <Position>
              <LatitudeDegrees>41.36167667806148529052734375</LatitudeDegrees>
              <LongitudeDegrees>-1.6383276320993900299072265625</LongitudeDegrees>
            </Position>
            <AltitudeMeters>574.20001220703125</AltitudeMeters>
            <DistanceMeters>23501.422658598</DistanceMeters>
          </Trackpoint>
          <Trackpoint>
            <Time>2022-11-06T11:53:53.000Z</Time>
            <Position>
              <LatitudeDegrees>41.361619345843791961669921875</LatitudeDegrees>
              <LongitudeDegrees>-1.63820031099021434783935546875</LongitudeDegrees>
            </Position>
            <AltitudeMeters>573</AltitudeMeters>
            <DistanceMeters>23513.826466177</DistanceMeters>
          </Trackpoint>
          <Trackpoint>
            <Time>2022-11-06T11:53:54.000Z</Time>
            <Position>
              <LatitudeDegrees>41.3615883328020572662353515625</LatitudeDegrees>
              <LongitudeDegrees>-1.63814012892544269561767578125</LongitudeDegrees>
            </Position>
            <AltitudeMeters>572.4000244140625</AltitudeMeters>
            <DistanceMeters>23519.92448674</DistanceMeters>
          </Trackpoint>
          <Trackpoint>
            <Time>2022-11-06T11:53:55.000Z</Time>
            <Position>
              <LatitudeDegrees>41.361551620066165924072265625</LatitudeDegrees>
              <LongitudeDegrees>-1.63808531127870082855224609375</LongitudeDegrees>
            </Position>
            <AltitudeMeters>572</AltitudeMeters>
            <DistanceMeters>23526.062359248</DistanceMeters>
          </Trackpoint>
          <Trackpoint>
            <Time>2022-11-06T11:53:56.000Z</Time>
            <Position>
              <LatitudeDegrees>41.361503340303897857666015625</LatitudeDegrees>
              <LongitudeDegrees>-1.63803904317319393157958984375</LongitudeDegrees>
            </Position>
            <AltitudeMeters>570.79998779296875</AltitudeMeters>
            <DistanceMeters>23532.682932566</DistanceMeters>
          </Trackpoint>
          <Trackpoint>
            <Time>2022-11-06T11:53:57.000Z</Time>
            <Position>
              <LatitudeDegrees>41.36144743300974369049072265625</LatitudeDegrees>
              <LongitudeDegrees>-1.63800157606601715087890625</LongitudeDegrees>
            </Position>
            <AltitudeMeters>570.20001220703125</AltitudeMeters>
            <DistanceMeters>23539.649110199</DistanceMeters>
          </Trackpoint>
          <Trackpoint>
            <Time>2022-11-06T11:53:58.000Z</Time>
            <Position>
              <LatitudeDegrees>41.3613794557750225067138671875</LatitudeDegrees>
              <LongitudeDegrees>-1.637949608266353607177734375</LongitudeDegrees>
            </Position>
            <AltitudeMeters>569.5999755859375</AltitudeMeters>
            <DistanceMeters>23548.371920762</DistanceMeters>
          </Trackpoint>
          <Trackpoint>
            <Time>2022-11-06T11:53:59.000Z</Time>
            <Position>
              <LatitudeDegrees>41.36133360676467418670654296875</LatitudeDegrees>
              <LongitudeDegrees>-1.6379065252840518951416015625</LongitudeDegrees>
            </Position>
            <AltitudeMeters>568.5999755859375</AltitudeMeters>
            <DistanceMeters>23554.616267812</DistanceMeters>
          </Trackpoint>
          <Trackpoint>
            <Time>2022-11-06T11:54:00.000Z</Time>
            <Position>
              <LatitudeDegrees>41.361280716955661773681640625</LatitudeDegrees>
              <LongitudeDegrees>-1.63784223608672618865966796875</LongitudeDegrees>
            </Position>
            <AltitudeMeters>567.5999755859375</AltitudeMeters>
            <DistanceMeters>23562.584925011</DistanceMeters>
          </Trackpoint>
          <Trackpoint>
            <Time>2022-11-06T11:54:02.000Z</Time>
            <Position>
              <LatitudeDegrees>41.3611766137182712554931640625</LatitudeDegrees>
              <LongitudeDegrees>-1.63769337348639965057373046875</LongitudeDegrees>
            </Position>
            <AltitudeMeters>566.79998779296875</AltitudeMeters>
            <DistanceMeters>23579.582226731</DistanceMeters>
          </Trackpoint>
          <Trackpoint>
            <Time>2022-11-06T11:54:03.000Z</Time>
            <Position>
              <LatitudeDegrees>41.361116431653499603271484375</LatitudeDegrees>
              <LongitudeDegrees>-1.63762866519391536712646484375</LongitudeDegrees>
            </Position>
            <AltitudeMeters>565.79998779296875</AltitudeMeters>
            <DistanceMeters>23588.189884788</DistanceMeters>
          </Trackpoint>
          <Trackpoint>
            <Time>2022-11-06T11:54:05.000Z</Time>
            <Position>
              <LatitudeDegrees>41.3609570078551769256591796875</LatitudeDegrees>
              <LongitudeDegrees>-1.6375581733882427215576171875</LongitudeDegrees>
            </Position>
            <AltitudeMeters>564.79998779296875</AltitudeMeters>
            <DistanceMeters>23606.885289005</DistanceMeters>
          </Trackpoint>
          <Trackpoint>
            <Time>2022-11-06T11:54:06.000Z</Time>
            <Position>
              <LatitudeDegrees>41.3608959876000881195068359375</LatitudeDegrees>
              <LongitudeDegrees>-1.63753931410610675811767578125</LongitudeDegrees>
            </Position>
            <AltitudeMeters>564.5999755859375</AltitudeMeters>
            <DistanceMeters>23613.857297431</DistanceMeters>
          </Trackpoint>
          <Trackpoint>
            <Time>2022-11-06T11:54:07.000Z</Time>
            <Position>
              <LatitudeDegrees>41.3608473725616931915283203125</LatitudeDegrees>
              <LongitudeDegrees>-1.6375085525214672088623046875</LongitudeDegrees>
            </Position>
            <AltitudeMeters>563.79998779296875</AltitudeMeters>
            <DistanceMeters>23619.847750151</DistanceMeters>
          </Trackpoint>
          <Trackpoint>
            <Time>2022-11-06T11:54:08.000Z</Time>
            <Position>
              <LatitudeDegrees>41.3608148507773876190185546875</LatitudeDegrees>
              <LongitudeDegrees>-1.63746907375752925872802734375</LongitudeDegrees>
            </Position>
            <AltitudeMeters>563.4000244140625</AltitudeMeters>
            <DistanceMeters>23624.743240206</DistanceMeters>
          </Trackpoint>
          <Trackpoint>
            <Time>2022-11-06T11:54:09.000Z</Time>
            <Position>
              <LatitudeDegrees>41.360786855220794677734375</LatitudeDegrees>
              <LongitudeDegrees>-1.6374056227505207061767578125</LongitudeDegrees>
            </Position>
            <AltitudeMeters>562.4000244140625</AltitudeMeters>
            <DistanceMeters>23630.891402533</DistanceMeters>
          </Trackpoint>
          <Trackpoint>
            <Time>2022-11-06T11:54:10.000Z</Time>
            <Position>
              <LatitudeDegrees>41.3607669062912464141845703125</LatitudeDegrees>
              <LongitudeDegrees>-1.637330353260040283203125</LongitudeDegrees>
            </Position>
            <AltitudeMeters>561.79998779296875</AltitudeMeters>
            <DistanceMeters>23637.559542934</DistanceMeters>
          </Trackpoint>
          <Trackpoint>
            <Time>2022-11-06T11:54:11.000Z</Time>
            <Position>
              <LatitudeDegrees>41.36074720881879329681396484375</LatitudeDegrees>
              <LongitudeDegrees>-1.63725080899894237518310546875</LongitudeDegrees>
            </Position>
            <AltitudeMeters>561.5999755859375</AltitudeMeters>
            <DistanceMeters>23644.556761987</DistanceMeters>
          </Trackpoint>
          <Trackpoint>
            <Time>2022-11-06T11:54:12.000Z</Time>
            <Position>
              <LatitudeDegrees>41.36072441004216670989990234375</LatitudeDegrees>
              <LongitudeDegrees>-1.63716548122465610504150390625</LongitudeDegrees>
            </Position>
            <AltitudeMeters>561.20001220703125</AltitudeMeters>
            <DistanceMeters>23652.123180206</DistanceMeters>
          </Trackpoint>
          <Trackpoint>
            <Time>2022-11-06T11:54:13.000Z</Time>
            <Position>
              <LatitudeDegrees>41.3607008568942546844482421875</LatitudeDegrees>
              <LongitudeDegrees>-1.63708602078258991241455078125</LongitudeDegrees>
            </Position>
            <AltitudeMeters>561</AltitudeMeters>
            <DistanceMeters>23659.260945353</DistanceMeters>
          </Trackpoint>
          <Trackpoint>
            <Time>2022-11-06T11:54:15.000Z</Time>
            <Position>
              <LatitudeDegrees>41.36067797429859638214111328125</LatitudeDegrees>
              <LongitudeDegrees>-1.63690530695021152496337890625</LongitudeDegrees>
            </Position>
            <AltitudeMeters>560.5999755859375</AltitudeMeters>
            <DistanceMeters>23674.570866785</DistanceMeters>
          </Trackpoint>
          <Trackpoint>
            <Time>2022-11-06T11:54:18.000Z</Time>
            <Position>
              <LatitudeDegrees>41.36066154576838016510009765625</LatitudeDegrees>
              <LongitudeDegrees>-1.6365882195532321929931640625</LongitudeDegrees>
            </Position>
            <AltitudeMeters>559.4000244140625</AltitudeMeters>
            <DistanceMeters>23701.123140103</DistanceMeters>
          </Trackpoint>
          <Trackpoint>
            <Time>2022-11-06T11:54:19.000Z</Time>
            <Position>
              <LatitudeDegrees>41.3606445305049419403076171875</LatitudeDegrees>
              <LongitudeDegrees>-1.63647615350782871246337890625</LongitudeDegrees>
            </Position>
            <AltitudeMeters>558.79998779296875</AltitudeMeters>
            <DistanceMeters>23710.675097619</DistanceMeters>
          </Trackpoint>
          <Trackpoint>
            <Time>2022-11-06T11:54:20.000Z</Time>
            <Position>
              <LatitudeDegrees>41.3606123439967632293701171875</LatitudeDegrees>
              <LongitudeDegrees>-1.63637322373688220977783203125</LongitudeDegrees>
            </Position>
            <AltitudeMeters>558.5999755859375</AltitudeMeters>
            <DistanceMeters>23719.990139463</DistanceMeters>
          </Trackpoint>
          <Trackpoint>
            <Time>2022-11-06T11:54:21.000Z</Time>
            <Position>
              <LatitudeDegrees>41.36056230403482913970947265625</LatitudeDegrees>
              <LongitudeDegrees>-1.63628789596259593963623046875</LongitudeDegrees>
            </Position>
            <AltitudeMeters>557.4000244140625</AltitudeMeters>
            <DistanceMeters>23729.036163602</DistanceMeters>
          </Trackpoint>
          <Trackpoint>
            <Time>2022-11-06T11:54:22.000Z</Time>
            <Position>
              <LatitudeDegrees>41.36050061322748661041259765625</LatitudeDegrees>
              <LongitudeDegrees>-1.63620625622570514678955078125</LongitudeDegrees>
            </Position>
            <AltitudeMeters>556.20001220703125</AltitudeMeters>
            <DistanceMeters>23738.713970837</DistanceMeters>
          </Trackpoint>
          <Trackpoint>
            <Time>2022-11-06T11:54:23.000Z</Time>
            <Position>
              <LatitudeDegrees>41.3604400120675563812255859375</LatitudeDegrees>
              <LongitudeDegrees>-1.63613207638263702392578125</LongitudeDegrees>
            </Position>
            <AltitudeMeters>554.79998779296875</AltitudeMeters>
            <DistanceMeters>23747.874072928</DistanceMeters>
          </Trackpoint>
          <Trackpoint>
            <Time>2022-11-06T11:54:24.000Z</Time>
            <Position>
              <LatitudeDegrees>41.3603836856782436370849609375</LatitudeDegrees>
              <LongitudeDegrees>-1.63607633672654628753662109375</LongitudeDegrees>
            </Position>
            <AltitudeMeters>554</AltitudeMeters>
            <DistanceMeters>23755.683627096</DistanceMeters>
          </Trackpoint>
          <Trackpoint>
            <Time>2022-11-06T11:54:25.000Z</Time>
            <Position>
              <LatitudeDegrees>41.360321827232837677001953125</LatitudeDegrees>
              <LongitudeDegrees>-1.63604113273322582244873046875</LongitudeDegrees>
            </Position>
            <AltitudeMeters>553.4000244140625</AltitudeMeters>
            <DistanceMeters>23763.169657714</DistanceMeters>
          </Trackpoint>
          <Trackpoint>
            <Time>2022-11-06T11:54:26.000Z</Time>
            <Position>
              <LatitudeDegrees>41.36025250889360904693603515625</LatitudeDegrees>
              <LongitudeDegrees>-1.63603593595325946807861328125</LongitudeDegrees>
            </Position>
            <AltitudeMeters>552.79998779296875</AltitudeMeters>
            <DistanceMeters>23770.897263781</DistanceMeters>
          </Trackpoint>
          <Trackpoint>
            <Time>2022-11-06T11:54:27.000Z</Time>
            <Position>
              <LatitudeDegrees>41.3601912371814250946044921875</LatitudeDegrees>
              <LongitudeDegrees>-1.6360588185489177703857421875</LongitudeDegrees>
            </Position>
            <AltitudeMeters>552.5999755859375</AltitudeMeters>
            <DistanceMeters>23777.97914521</DistanceMeters>
          </Trackpoint>
          <Trackpoint>
            <Time>2022-11-06T11:54:28.000Z</Time>
            <Position>
              <LatitudeDegrees>41.36014840565621852874755859375</LatitudeDegrees>
              <LongitudeDegrees>-1.636101566255092620849609375</LongitudeDegrees>
            </Position>
            <AltitudeMeters>552.4000244140625</AltitudeMeters>
            <DistanceMeters>23783.936342573</DistanceMeters>
          </Trackpoint>
          <Trackpoint>
            <Time>2022-11-06T11:54:29.000Z</Time>
            <Position>
              <LatitudeDegrees>41.36011336930096149444580078125</LatitudeDegrees>
              <LongitudeDegrees>-1.63615755736827850341796875</LongitudeDegrees>
            </Position>
            <AltitudeMeters>552.4000244140625</AltitudeMeters>
            <DistanceMeters>23790.026954532</DistanceMeters>
          </Trackpoint>
          <Trackpoint>
            <Time>2022-11-06T11:54:30.000Z</Time>
            <Position>
              <LatitudeDegrees>41.36008034460246562957763671875</LatitudeDegrees>
              <LongitudeDegrees>-1.63621648214757442474365234375</LongitudeDegrees>
            </Position>
            <AltitudeMeters>552.20001220703125</AltitudeMeters>
            <DistanceMeters>23796.169974103</DistanceMeters>
          </Trackpoint>
          <Trackpoint>
            <Time>2022-11-06T11:54:31.000Z</Time>
            <Position>
              <LatitudeDegrees>41.360044889152050018310546875</LatitudeDegrees>
              <LongitudeDegrees>-1.63627532310783863067626953125</LongitudeDegrees>
            </Position>
            <AltitudeMeters>552</AltitudeMeters>
            <DistanceMeters>23802.473333236</DistanceMeters>
          </Trackpoint>
          <Trackpoint>
            <Time>2022-11-06T11:54:32.000Z</Time>
            <Position>
              <LatitudeDegrees>41.360012032091617584228515625</LatitudeDegrees>
              <LongitudeDegrees>-1.63633734919130802154541015625</LongitudeDegrees>
            </Position>
            <AltitudeMeters>551.79998779296875</AltitudeMeters>
            <DistanceMeters>23808.815254119</DistanceMeters>
          </Trackpoint>
          <Trackpoint>
            <Time>2022-11-06T11:54:33.000Z</Time>
            <Position>
              <LatitudeDegrees>41.359980516135692596435546875</LatitudeDegrees>
              <LongitudeDegrees>-1.6364038176834583282470703125</LongitudeDegrees>
            </Position>
            <AltitudeMeters>551.79998779296875</AltitudeMeters>
            <DistanceMeters>23815.383793168</DistanceMeters>
          </Trackpoint>
          <Trackpoint>
            <Time>2022-11-06T11:54:37.000Z</Time>
            <Position>
              <LatitudeDegrees>41.3598552905023097991943359375</LatitudeDegrees>
              <LongitudeDegrees>-1.6366529278457164764404296875</LongitudeDegrees>
            </Position>
            <AltitudeMeters>551.5999755859375</AltitudeMeters>
            <DistanceMeters>23840.430859481</DistanceMeters>
          </Trackpoint>
          <Trackpoint>
            <Time>2022-11-06T11:54:40.000Z</Time>
            <Position>
              <LatitudeDegrees>41.35976585559546947479248046875</LatitudeDegrees>
              <LongitudeDegrees>-1.63683556951582431793212890625</LongitudeDegrees>
            </Position>
            <AltitudeMeters>551.5999755859375</AltitudeMeters>
            <DistanceMeters>23858.648747109</DistanceMeters>
          </Trackpoint>
          <Trackpoint>
            <Time>2022-11-06T11:54:43.000Z</Time>
            <Position>
              <LatitudeDegrees>41.35968270711600780487060546875</LatitudeDegrees>
              <LongitudeDegrees>-1.63702148012816905975341796875</LongitudeDegrees>
            </Position>
            <AltitudeMeters>477.399993896484375</AltitudeMeters>
            <DistanceMeters>23876.728063386</DistanceMeters>
          </Trackpoint>
          <Trackpoint>
            <Time>2022-11-06T11:54:44.000Z</Time>
            <Position>
              <LatitudeDegrees>41.35965563356876373291015625</LatitudeDegrees>
              <LongitudeDegrees>-1.6370773874223232269287109375</LongitudeDegrees>
            </Position>
            <AltitudeMeters>477.399993896484375</AltitudeMeters>
            <DistanceMeters>23882.286923124</DistanceMeters>
          </Trackpoint>
          <Trackpoint>
            <Time>2022-11-06T11:54:45.000Z</Time>
            <Position>
              <LatitudeDegrees>41.359628476202487945556640625</LatitudeDegrees>
              <LongitudeDegrees>-1.63713463582098484039306640625</LongitudeDegrees>
            </Position>
            <AltitudeMeters>477.399993896484375</AltitudeMeters>
            <DistanceMeters>23887.944006376</DistanceMeters>
          </Trackpoint>
          <Trackpoint>
            <Time>2022-11-06T11:54:46.000Z</Time>
            <Position>
              <LatitudeDegrees>41.3595972955226898193359375</LatitudeDegrees>
              <LongitudeDegrees>-1.63718945346772670745849609375</LongitudeDegrees>
            </Position>
            <AltitudeMeters>477.399993896484375</AltitudeMeters>
            <DistanceMeters>23893.689783911</DistanceMeters>
          </Trackpoint>
          <Trackpoint>
            <Time>2022-11-06T11:54:47.000Z</Time>
            <Position>
              <LatitudeDegrees>41.35956603102385997772216796875</LatitudeDegrees>
              <LongitudeDegrees>-1.63723873905837535858154296875</LongitudeDegrees>
            </Position>
            <AltitudeMeters>477.399993896484375</AltitudeMeters>
            <DistanceMeters>23899.080404097</DistanceMeters>
          </Trackpoint>
          <Trackpoint>
            <Time>2022-11-06T11:54:49.000Z</Time>
            <Position>
              <LatitudeDegrees>41.3595082797110080718994140625</LatitudeDegrees>
              <LongitudeDegrees>-1.6373419202864170074462890625</LongitudeDegrees>
            </Position>
            <AltitudeMeters>477.79998779296875</AltitudeMeters>
            <DistanceMeters>23909.833129277</DistanceMeters>
          </Trackpoint>
          <Trackpoint>
            <Time>2022-11-06T11:54:50.000Z</Time>
            <Position>
              <LatitudeDegrees>41.35947617702186107635498046875</LatitudeDegrees>
              <LongitudeDegrees>-1.637389697134494781494140625</LongitudeDegrees>
            </Position>
            <AltitudeMeters>477.79998779296875</AltitudeMeters>
            <DistanceMeters>23915.190141778</DistanceMeters>
          </Trackpoint>
          <Trackpoint>
            <Time>2022-11-06T11:54:51.000Z</Time>
            <Position>
              <LatitudeDegrees>41.35944633744657039642333984375</LatitudeDegrees>
              <LongitudeDegrees>-1.63743655197322368621826171875</LongitudeDegrees>
            </Position>
            <AltitudeMeters>478</AltitudeMeters>
            <DistanceMeters>23920.323343807</DistanceMeters>
          </Trackpoint>
          <Trackpoint>
            <Time>2022-11-06T11:54:52.000Z</Time>
            <Position>
              <LatitudeDegrees>41.3594164140522480010986328125</LatitudeDegrees>
              <LongitudeDegrees>-1.63748323917388916015625</LongitudeDegrees>
            </Position>
            <AltitudeMeters>478.20001220703125</AltitudeMeters>
            <DistanceMeters>23925.45038511</DistanceMeters>
          </Trackpoint>
          <Trackpoint>
            <Time>2022-11-06T11:54:53.000Z</Time>
            <Position>
              <LatitudeDegrees>41.359384059906005859375</LatitudeDegrees>
              <LongitudeDegrees>-1.6375336982309818267822265625</LongitudeDegrees>
            </Position>
            <AltitudeMeters>478.600006103515625</AltitudeMeters>
            <DistanceMeters>23930.994605544</DistanceMeters>
          </Trackpoint>
          <Trackpoint>
            <Time>2022-11-06T11:54:54.000Z</Time>
            <Position>
              <LatitudeDegrees>41.35935723781585693359375</LatitudeDegrees>
              <LongitudeDegrees>-1.63758206181228160858154296875</LongitudeDegrees>
            </Position>
            <AltitudeMeters>478.79998779296875</AltitudeMeters>
            <DistanceMeters>23936.01935367</DistanceMeters>
          </Trackpoint>
          <Trackpoint>
            <Time>2022-11-06T11:54:55.000Z</Time>
            <Position>
              <LatitudeDegrees>41.3593289069831371307373046875</LatitudeDegrees>
              <LongitudeDegrees>-1.6376275755465030670166015625</LongitudeDegrees>
            </Position>
            <AltitudeMeters>479</AltitudeMeters>
            <DistanceMeters>23940.958915043</DistanceMeters>
          </Trackpoint>
          <Trackpoint>
            <Time>2022-11-06T11:54:57.000Z</Time>
            <Position>
              <LatitudeDegrees>41.35926964692771434783935546875</LatitudeDegrees>
              <LongitudeDegrees>-1.63771516643464565277099609375</LongitudeDegrees>
            </Position>
            <AltitudeMeters>479.20001220703125</AltitudeMeters>
            <DistanceMeters>23950.809661282</DistanceMeters>
          </Trackpoint>
          <Trackpoint>
            <Time>2022-11-06T11:54:58.000Z</Time>
            <Position>
              <LatitudeDegrees>41.35924031026661396026611328125</LatitudeDegrees>
              <LongitudeDegrees>-1.63775724358856678009033203125</LongitudeDegrees>
            </Position>
            <AltitudeMeters>479.399993896484375</AltitudeMeters>
            <DistanceMeters>23955.60733414</DistanceMeters>
          </Trackpoint>
          <Trackpoint>
            <Time>2022-11-06T11:54:59.000Z</Time>
            <Position>
              <LatitudeDegrees>41.359209716320037841796875</LatitudeDegrees>
              <LongitudeDegrees>-1.63779613561928272247314453125</LongitudeDegrees>
            </Position>
            <AltitudeMeters>479.79998779296875</AltitudeMeters>
            <DistanceMeters>23960.313795392</DistanceMeters>
          </Trackpoint>
          <Trackpoint>
            <Time>2022-11-06T11:55:00.000Z</Time>
            <Position>
              <LatitudeDegrees>41.35918012820184230804443359375</LatitudeDegrees>
              <LongitudeDegrees>-1.637834943830966949462890625</LongitudeDegrees>
            </Position>
            <AltitudeMeters>480</AltitudeMeters>
            <DistanceMeters>23964.935064784</DistanceMeters>
          </Trackpoint>
          <Trackpoint>
            <Time>2022-11-06T11:55:01.000Z</Time>
            <Position>
              <LatitudeDegrees>41.3591498695313930511474609375</LatitudeDegrees>
              <LongitudeDegrees>-1.63787257857620716094970703125</LongitudeDegrees>
            </Position>
            <AltitudeMeters>480.20001220703125</AltitudeMeters>
            <DistanceMeters>23969.54361551</DistanceMeters>
          </Trackpoint>
          <Trackpoint>
            <Time>2022-11-06T11:55:02.000Z</Time>
            <Position>
              <LatitudeDegrees>41.35911860503256320953369140625</LatitudeDegrees>
              <LongitudeDegrees>-1.63790845312178134918212890625</LongitudeDegrees>
            </Position>
            <AltitudeMeters>480.399993896484375</AltitudeMeters>
            <DistanceMeters>23974.137447097</DistanceMeters>
          </Trackpoint>
          <Trackpoint>
            <Time>2022-11-06T11:55:03.000Z</Time>
            <Position>
              <LatitudeDegrees>41.35908960364758968353271484375</LatitudeDegrees>
              <LongitudeDegrees>-1.63794633932411670684814453125</LongitudeDegrees>
            </Position>
            <AltitudeMeters>480.399993896484375</AltitudeMeters>
            <DistanceMeters>23978.658961563</DistanceMeters>
          </Trackpoint>
          <Trackpoint>
            <Time>2022-11-06T11:55:04.000Z</Time>
            <Position>
              <LatitudeDegrees>41.359059847891330718994140625</LatitudeDegrees>
              <LongitudeDegrees>-1.6379861533641815185546875</LongitudeDegrees>
            </Position>
            <AltitudeMeters>480.399993896484375</AltitudeMeters>
            <DistanceMeters>23983.352934989</DistanceMeters>
          </Trackpoint>
          <Trackpoint>
            <Time>2022-11-06T11:55:05.000Z</Time>
            <Position>
              <LatitudeDegrees>41.3590251468122005462646484375</LatitudeDegrees>
              <LongitudeDegrees>-1.63802278228104114532470703125</LongitudeDegrees>
            </Position>
            <AltitudeMeters>480.399993896484375</AltitudeMeters>
            <DistanceMeters>23988.2805993</DistanceMeters>
          </Trackpoint>
          <Trackpoint>
            <Time>2022-11-06T11:55:06.000Z</Time>
            <Position>
              <LatitudeDegrees>41.358992792665958404541015625</LatitudeDegrees>
              <LongitudeDegrees>-1.638062931597232818603515625</LongitudeDegrees>
            </Position>
            <AltitudeMeters>480.399993896484375</AltitudeMeters>
            <DistanceMeters>23993.201845587</DistanceMeters>
          </Trackpoint>
          <Trackpoint>
            <Time>2022-11-06T11:55:07.000Z</Time>
            <Position>
              <LatitudeDegrees>41.358959935605525970458984375</LatitudeDegrees>
              <LongitudeDegrees>-1.6381009854376316070556640625</LongitudeDegrees>
            </Position>
            <AltitudeMeters>480.600006103515625</AltitudeMeters>
            <DistanceMeters>23998.047276296</DistanceMeters>
          </Trackpoint>
          <Trackpoint>
            <Time>2022-11-06T11:55:09.000Z</Time>
            <Position>
              <LatitudeDegrees>41.35890151374042034149169921875</LatitudeDegrees>
              <LongitudeDegrees>-1.63818396627902984619140625</LongitudeDegrees>
            </Position>
            <AltitudeMeters>480.79998779296875</AltitudeMeters>
            <DistanceMeters>24007.551848078</DistanceMeters>
          </Trackpoint>
          <Trackpoint>
            <Time>2022-11-06T11:55:10.000Z</Time>
            <Position>
              <LatitudeDegrees>41.35887234471738338470458984375</LatitudeDegrees>
              <LongitudeDegrees>-1.63822394795715808868408203125</LongitudeDegrees>
            </Position>
            <AltitudeMeters>480.79998779296875</AltitudeMeters>
            <DistanceMeters>24012.209126641</DistanceMeters>
          </Trackpoint>
          <Trackpoint>
            <Time>2022-11-06T11:55:12.000Z</Time>
            <Position>
              <LatitudeDegrees>41.35880998335778713226318359375</LatitudeDegrees>
              <LongitudeDegrees>-1.6382998041808605194091796875</LongitudeDegrees>
            </Position>
            <AltitudeMeters>481</AltitudeMeters>
            <DistanceMeters>24021.607648215</DistanceMeters>
          </Trackpoint>
          <Trackpoint>
            <Time>2022-11-06T11:55:16.000Z</Time>
            <Position>
              <LatitudeDegrees>41.35868928395211696624755859375</LatitudeDegrees>
              <LongitudeDegrees>-1.63844388909637928009033203125</LongitudeDegrees>
            </Position>
            <AltitudeMeters>481.399993896484375</AltitudeMeters>
            <DistanceMeters>24039.64571115</DistanceMeters>
          </Trackpoint>
          <Trackpoint>
            <Time>2022-11-06T11:55:19.000Z</Time>
            <Position>
              <LatitudeDegrees>41.3585939817130565643310546875</LatitudeDegrees>
              <LongitudeDegrees>-1.6385482437908649444580078125</LongitudeDegrees>
            </Position>
            <AltitudeMeters>481.600006103515625</AltitudeMeters>
            <DistanceMeters>24053.376331529</DistanceMeters>
          </Trackpoint>
          <Trackpoint>
            <Time>2022-11-06T11:55:20.000Z</Time>
            <Position>
              <LatitudeDegrees>41.3585628010332584381103515625</LatitudeDegrees>
              <LongitudeDegrees>-1.63858227431774139404296875</LongitudeDegrees>
            </Position>
            <AltitudeMeters>481.79998779296875</AltitudeMeters>
            <DistanceMeters>24057.86376626</DistanceMeters>
          </Trackpoint>
          <Trackpoint>
            <Time>2022-11-06T11:55:21.000Z</Time>
            <Position>
              <LatitudeDegrees>41.35853111743927001953125</LatitudeDegrees>
              <LongitudeDegrees>-1.63861571811139583587646484375</LongitudeDegrees>
            </Position>
            <AltitudeMeters>481.79998779296875</AltitudeMeters>
            <DistanceMeters>24062.363258608</DistanceMeters>
          </Trackpoint>
          <Trackpoint>
            <Time>2022-11-06T11:55:23.000Z</Time>
            <Position>
              <LatitudeDegrees>41.3584756292402744293212890625</LatitudeDegrees>
              <LongitudeDegrees>-1.63868763484060764312744140625</LongitudeDegrees>
            </Position>
            <AltitudeMeters>482</AltitudeMeters>
            <DistanceMeters>24070.979305175</DistanceMeters>
          </Trackpoint>
          <Trackpoint>
            <Time>2022-11-06T11:55:24.000Z</Time>
            <Position>
              <LatitudeDegrees>41.3584451191127300262451171875</LatitudeDegrees>
              <LongitudeDegrees>-1.63871906697750091552734375</LongitudeDegrees>
            </Position>
            <AltitudeMeters>482</AltitudeMeters>
            <DistanceMeters>24075.270263794</DistanceMeters>
          </Trackpoint>
          <Trackpoint>
            <Time>2022-11-06T11:55:28.000Z</Time>
            <Position>
              <LatitudeDegrees>41.358318217098712921142578125</LatitudeDegrees>
              <LongitudeDegrees>-1.63886122405529022216796875</LongitudeDegrees>
            </Position>
            <AltitudeMeters>482.79998779296875</AltitudeMeters>
            <DistanceMeters>24093.724050475</DistanceMeters>
          </Trackpoint>
          <Trackpoint>
            <Time>2022-11-06T11:55:30.000Z</Time>
            <Position>
              <LatitudeDegrees>41.35824680328369140625</LatitudeDegrees>
              <LongitudeDegrees>-1.6389274410903453826904296875</LongitudeDegrees>
            </Position>
            <AltitudeMeters>483.600006103515625</AltitudeMeters>
            <DistanceMeters>24103.407920769</DistanceMeters>
          </Trackpoint>
          <Trackpoint>
            <Time>2022-11-06T11:55:31.000Z</Time>
            <Position>
              <LatitudeDegrees>41.3582090847194194793701171875</LatitudeDegrees>
              <LongitudeDegrees>-1.638961471617221832275390625</LongitudeDegrees>
            </Position>
            <AltitudeMeters>484</AltitudeMeters>
            <DistanceMeters>24108.477397818</DistanceMeters>
          </Trackpoint>
          <Trackpoint>
            <Time>2022-11-06T11:55:32.000Z</Time>
            <Position>
              <LatitudeDegrees>41.35817329399287700653076171875</LatitudeDegrees>
              <LongitudeDegrees>-1.6389968432486057281494140625</LongitudeDegrees>
            </Position>
            <AltitudeMeters>484.399993896484375</AltitudeMeters>
            <DistanceMeters>24113.437027667</DistanceMeters>
          </Trackpoint>
          <Trackpoint>
            <Time>2022-11-06T11:55:39.000Z</Time>
            <Position>
              <LatitudeDegrees>41.357895433902740478515625</LatitudeDegrees>
              <LongitudeDegrees>-1.63927252404391765594482421875</LongitudeDegrees>
            </Position>
            <AltitudeMeters>483.600006103515625</AltitudeMeters>
            <DistanceMeters>24151.997037095</DistanceMeters>
          </Trackpoint>
          <Trackpoint>
            <Time>2022-11-06T11:55:41.000Z</Time>
            <Position>
              <LatitudeDegrees>41.3577873073518276214599609375</LatitudeDegrees>
              <LongitudeDegrees>-1.63936816155910491943359375</LongitudeDegrees>
            </Position>
            <AltitudeMeters>483</AltitudeMeters>
            <DistanceMeters>24166.442660534</DistanceMeters>
          </Trackpoint>
          <Trackpoint>
            <Time>2022-11-06T11:55:42.000Z</Time>
            <Position>
              <LatitudeDegrees>41.35773374699056148529052734375</LatitudeDegrees>
              <LongitudeDegrees>-1.63941082544624805450439453125</LongitudeDegrees>
            </Position>
            <AltitudeMeters>482.600006103515625</AltitudeMeters>
            <DistanceMeters>24173.388066812</DistanceMeters>
          </Trackpoint>
          <Trackpoint>
            <Time>2022-11-06T11:55:43.000Z</Time>
            <Position>
              <LatitudeDegrees>41.3576793484389781951904296875</LatitudeDegrees>
              <LongitudeDegrees>-1.63945474661886692047119140625</LongitudeDegrees>
            </Position>
            <AltitudeMeters>482.20001220703125</AltitudeMeters>
            <DistanceMeters>24180.46739759</DistanceMeters>
          </Trackpoint>
          <Trackpoint>
            <Time>2022-11-06T11:55:44.000Z</Time>
            <Position>
              <LatitudeDegrees>41.357638947665691375732421875</LatitudeDegrees>
              <LongitudeDegrees>-1.6394890286028385162353515625</LongitudeDegrees>
            </Position>
            <AltitudeMeters>481.79998779296875</AltitudeMeters>
            <DistanceMeters>24185.798218406</DistanceMeters>
          </Trackpoint>
          <Trackpoint>
            <Time>2022-11-06T11:55:45.000Z</Time>
            <Position>
              <LatitudeDegrees>41.35758220218122005462646484375</LatitudeDegrees>
              <LongitudeDegrees>-1.639528088271617889404296875</LongitudeDegrees>
            </Position>
            <AltitudeMeters>481.600006103515625</AltitudeMeters>
            <DistanceMeters>24192.906826412</DistanceMeters>
          </Trackpoint>
          <Trackpoint>
            <Time>2022-11-06T11:55:46.000Z</Time>
            <Position>
              <LatitudeDegrees>41.3575143925845623016357421875</LatitudeDegrees>
              <LongitudeDegrees>-1.63957511074841022491455078125</LongitudeDegrees>
            </Position>
            <AltitudeMeters>481.399993896484375</AltitudeMeters>
            <DistanceMeters>24201.415830638</DistanceMeters>
          </Trackpoint>
          <Trackpoint>
            <Time>2022-11-06T11:55:48.000Z</Time>
            <Position>
              <LatitudeDegrees>41.35739612393081188201904296875</LatitudeDegrees>
              <LongitudeDegrees>-1.63965607993304729461669921875</LongitudeDegrees>
            </Position>
            <AltitudeMeters>481</AltitudeMeters>
            <DistanceMeters>24216.215612198</DistanceMeters>
          </Trackpoint>
          <Trackpoint>
            <Time>2022-11-06T11:55:51.000Z</Time>
            <Position>
              <LatitudeDegrees>41.35721683502197265625</LatitudeDegrees>
              <LongitudeDegrees>-1.63977962918579578399658203125</LongitudeDegrees>
            </Position>
            <AltitudeMeters>480.399993896484375</AltitudeMeters>
            <DistanceMeters>24238.68234723</DistanceMeters>
          </Trackpoint>
          <Trackpoint>
            <Time>2022-11-06T11:55:55.000Z</Time>
            <Position>
              <LatitudeDegrees>41.35698105208575725555419921875</LatitudeDegrees>
              <LongitudeDegrees>-1.63994357921183109283447265625</LongitudeDegrees>
            </Position>
            <AltitudeMeters>480</AltitudeMeters>
            <DistanceMeters>24268.284808417</DistanceMeters>
          </Trackpoint>
          <Trackpoint>
            <Time>2022-11-06T11:55:58.000Z</Time>
            <Position>
              <LatitudeDegrees>41.35680536739528179168701171875</LatitudeDegrees>
              <LongitudeDegrees>-1.64006193168461322784423828125</LongitudeDegrees>
            </Position>
            <AltitudeMeters>479.20001220703125</AltitudeMeters>
            <DistanceMeters>24290.196658283</DistanceMeters>
          </Trackpoint>
          <Trackpoint>
            <Time>2022-11-06T11:56:01.000Z</Time>
            <Position>
              <LatitudeDegrees>41.35663085617125034332275390625</LatitudeDegrees>
              <LongitudeDegrees>-1.640183217823505401611328125</LongitudeDegrees>
            </Position>
            <AltitudeMeters>479</AltitudeMeters>
            <DistanceMeters>24312.104386668</DistanceMeters>
          </Trackpoint>
          <Trackpoint>
            <Time>2022-11-06T11:56:02.000Z</Time>
            <Position>
              <LatitudeDegrees>41.3565695844590663909912109375</LatitudeDegrees>
              <LongitudeDegrees>-1.6402236185967922210693359375</LongitudeDegrees>
            </Position>
            <AltitudeMeters>479</AltitudeMeters>
            <DistanceMeters>24319.713647483</DistanceMeters>
          </Trackpoint>
          <Trackpoint>
            <Time>2022-11-06T11:56:04.000Z</Time>
            <Position>
              <LatitudeDegrees>41.35644502937793731689453125</LatitudeDegrees>
              <LongitudeDegrees>-1.64032034575939178466796875</LongitudeDegrees>
            </Position>
            <AltitudeMeters>479.399993896484375</AltitudeMeters>
            <DistanceMeters>24335.759942997</DistanceMeters>
          </Trackpoint>
          <Trackpoint>
            <Time>2022-11-06T11:56:05.000Z</Time>
            <Position>
              <LatitudeDegrees>41.35640211403369903564453125</LatitudeDegrees>
              <LongitudeDegrees>-1.6403580643236637115478515625</LongitudeDegrees>
            </Position>
            <AltitudeMeters>479.399993896484375</AltitudeMeters>
            <DistanceMeters>24341.48209794</DistanceMeters>
          </Trackpoint>
          <Trackpoint>
            <Time>2022-11-06T11:56:06.000Z</Time>
            <Position>
              <LatitudeDegrees>41.3563483022153377532958984375</LatitudeDegrees>
              <LongitudeDegrees>-1.6404070146381855010986328125</LongitudeDegrees>
            </Position>
            <AltitudeMeters>479.399993896484375</AltitudeMeters>
            <DistanceMeters>24348.734074582</DistanceMeters>
          </Trackpoint>
          <Trackpoint>
            <Time>2022-11-06T11:56:10.000Z</Time>
            <Position>
              <LatitudeDegrees>41.35611754842102527618408203125</LatitudeDegrees>
              <LongitudeDegrees>-1.64058580063283443450927734375</LongitudeDegrees>
            </Position>
            <AltitudeMeters>479</AltitudeMeters>
            <DistanceMeters>24378.445085215</DistanceMeters>
          </Trackpoint>
          <Trackpoint>
            <Time>2022-11-06T11:56:14.000Z</Time>
            <Position>
              <LatitudeDegrees>41.35588419623672962188720703125</LatitudeDegrees>
              <LongitudeDegrees>-1.64076584391295909881591796875</LongitudeDegrees>
            </Position>
            <AltitudeMeters>478.20001220703125</AltitudeMeters>
            <DistanceMeters>24408.458938616</DistanceMeters>
          </Trackpoint>
          <Trackpoint>
            <Time>2022-11-06T11:56:16.000Z</Time>
            <Position>
              <LatitudeDegrees>41.355768777430057525634765625</LatitudeDegrees>
              <LongitudeDegrees>-1.64087899960577487945556640625</LongitudeDegrees>
            </Position>
            <AltitudeMeters>478</AltitudeMeters>
            <DistanceMeters>24424.408713335</DistanceMeters>
          </Trackpoint>
          <Trackpoint>
            <Time>2022-11-06T11:56:18.000Z</Time>
            <Position>
              <LatitudeDegrees>41.355638690292835235595703125</LatitudeDegrees>
              <LongitudeDegrees>-1.64096617139875888824462890625</LongitudeDegrees>
            </Position>
            <AltitudeMeters>477.79998779296875</AltitudeMeters>
            <DistanceMeters>24440.616270947</DistanceMeters>
          </Trackpoint>
          <Trackpoint>
            <Time>2022-11-06T11:56:19.000Z</Time>
            <Position>
              <LatitudeDegrees>41.355578005313873291015625</LatitudeDegrees>
              <LongitudeDegrees>-1.64101763628423213958740234375</LongitudeDegrees>
            </Position>
            <AltitudeMeters>477.20001220703125</AltitudeMeters>
            <DistanceMeters>24448.623364224</DistanceMeters>
          </Trackpoint>
          <Trackpoint>
            <Time>2022-11-06T11:56:20.000Z</Time>
            <Position>
              <LatitudeDegrees>41.35552360676229000091552734375</LatitudeDegrees>
              <LongitudeDegrees>-1.64107513613998889923095703125</LongitudeDegrees>
            </Position>
            <AltitudeMeters>476.79998779296875</AltitudeMeters>
            <DistanceMeters>24456.352722914</DistanceMeters>
          </Trackpoint>
          <Trackpoint>
            <Time>2022-11-06T11:56:22.000Z</Time>
            <Position>
              <LatitudeDegrees>41.35542017407715320587158203125</LatitudeDegrees>
              <LongitudeDegrees>-1.64116666652262210845947265625</LongitudeDegrees>
            </Position>
            <AltitudeMeters>476.600006103515625</AltitudeMeters>
            <DistanceMeters>24470.173148991</DistanceMeters>
          </Trackpoint>
          <Trackpoint>
            <Time>2022-11-06T11:56:24.000Z</Time>
            <Position>
              <LatitudeDegrees>41.3552915118634700775146484375</LatitudeDegrees>
              <LongitudeDegrees>-1.6412167064845561981201171875</LongitudeDegrees>
            </Position>
            <AltitudeMeters>476.399993896484375</AltitudeMeters>
            <DistanceMeters>24485.091132566</DistanceMeters>
          </Trackpoint>
          <Trackpoint>
            <Time>2022-11-06T11:56:25.000Z</Time>
            <Position>
              <LatitudeDegrees>41.355220936238765716552734375</LatitudeDegrees>
              <LongitudeDegrees>-1.641242019832134246826171875</LongitudeDegrees>
            </Position>
            <AltitudeMeters>476.399993896484375</AltitudeMeters>
            <DistanceMeters>24493.225774549</DistanceMeters>
          </Trackpoint>
          <Trackpoint>
            <Time>2022-11-06T11:56:26.000Z</Time>
            <Position>
              <LatitudeDegrees>41.3551528751850128173828125</LatitudeDegrees>
              <LongitudeDegrees>-1.64127512834966182708740234375</LongitudeDegrees>
            </Position>
            <AltitudeMeters>476.399993896484375</AltitudeMeters>
            <DistanceMeters>24501.290178466</DistanceMeters>
          </Trackpoint>
          <Trackpoint>
            <Time>2022-11-06T11:56:27.000Z</Time>
            <Position>
              <LatitudeDegrees>41.35508540086448192596435546875</LatitudeDegrees>
              <LongitudeDegrees>-1.64130899123847484588623046875</LongitudeDegrees>
            </Position>
            <AltitudeMeters>476.399993896484375</AltitudeMeters>
            <DistanceMeters>24509.315295612</DistanceMeters>
          </Trackpoint>
          <Trackpoint>
            <Time>2022-11-06T11:56:28.000Z</Time>
            <Position>
              <LatitudeDegrees>41.355017088353633880615234375</LatitudeDegrees>
              <LongitudeDegrees>-1.64134168066084384918212890625</LongitudeDegrees>
            </Position>
            <AltitudeMeters>476.600006103515625</AltitudeMeters>
            <DistanceMeters>24517.394243101</DistanceMeters>
          </Trackpoint>
          <Trackpoint>
            <Time>2022-11-06T11:56:29.000Z</Time>
            <Position>
              <LatitudeDegrees>41.3549548946321010589599609375</LatitudeDegrees>
              <LongitudeDegrees>-1.64137453772127628326416015625</LongitudeDegrees>
            </Position>
            <AltitudeMeters>476.79998779296875</AltitudeMeters>
            <DistanceMeters>24524.840360839</DistanceMeters>
          </Trackpoint>
          <Trackpoint>
            <Time>2022-11-06T11:56:30.000Z</Time>
            <Position>
              <LatitudeDegrees>41.35489328764379024505615234375</LatitudeDegrees>
              <LongitudeDegrees>-1.641408316791057586669921875</LongitudeDegrees>
            </Position>
            <AltitudeMeters>476.79998779296875</AltitudeMeters>
            <DistanceMeters>24532.254880742</DistanceMeters>
          </Trackpoint>
          <Trackpoint>
            <Time>2022-11-06T11:56:31.000Z</Time>
            <Position>
              <LatitudeDegrees>41.3548341952264308929443359375</LatitudeDegrees>
              <LongitudeDegrees>-1.6414470411837100982666015625</LongitudeDegrees>
            </Position>
            <AltitudeMeters>477</AltitudeMeters>
            <DistanceMeters>24539.583652446</DistanceMeters>
          </Trackpoint>
          <Trackpoint>
            <Time>2022-11-06T11:56:32.000Z</Time>
            <Position>
              <LatitudeDegrees>41.35477862320840358734130859375</LatitudeDegrees>
              <LongitudeDegrees>-1.64149892516434192657470703125</LongitudeDegrees>
            </Position>
            <AltitudeMeters>477</AltitudeMeters>
            <DistanceMeters>24547.136931401</DistanceMeters>
          </Trackpoint>
          <Trackpoint>
            <Time>2022-11-06T11:56:33.000Z</Time>
            <Position>
              <LatitudeDegrees>41.354738138616085052490234375</LatitudeDegrees>
              <LongitudeDegrees>-1.64155927486717700958251953125</LongitudeDegrees>
            </Position>
            <AltitudeMeters>477</AltitudeMeters>
            <DistanceMeters>24553.898534542</DistanceMeters>
          </Trackpoint>
          <Trackpoint>
            <Time>2022-11-06T11:56:34.000Z</Time>
            <Position>
              <LatitudeDegrees>41.35468952357769012451171875</LatitudeDegrees>
              <LongitudeDegrees>-1.64161442779004573822021484375</LongitudeDegrees>
            </Position>
            <AltitudeMeters>477</AltitudeMeters>
            <DistanceMeters>24561.005872133</DistanceMeters>
          </Trackpoint>
          <Trackpoint>
            <Time>2022-11-06T11:56:35.000Z</Time>
            <Position>
              <LatitudeDegrees>41.3546457700431346893310546875</LatitudeDegrees>
              <LongitudeDegrees>-1.6416669823229312896728515625</LongitudeDegrees>
            </Position>
            <AltitudeMeters>477.20001220703125</AltitudeMeters>
            <DistanceMeters>24567.563403987</DistanceMeters>
          </Trackpoint>
          <Trackpoint>
            <Time>2022-11-06T11:56:36.000Z</Time>
            <Position>
              <LatitudeDegrees>41.35459740646183490753173828125</LatitudeDegrees>
              <LongitudeDegrees>-1.6417169384658336639404296875</LongitudeDegrees>
            </Position>
            <AltitudeMeters>477.20001220703125</AltitudeMeters>
            <DistanceMeters>24574.374904025</DistanceMeters>
          </Trackpoint>
          <Trackpoint>
            <Time>2022-11-06T11:56:37.000Z</Time>
            <Position>
              <LatitudeDegrees>41.35455071926116943359375</LatitudeDegrees>
              <LongitudeDegrees>-1.6417665593326091766357421875</LongitudeDegrees>
            </Position>
            <AltitudeMeters>477.20001220703125</AltitudeMeters>
            <DistanceMeters>24581.022020998</DistanceMeters>
          </Trackpoint>
          <Trackpoint>
            <Time>2022-11-06T11:56:40.000Z</Time>
            <Position>
              <LatitudeDegrees>41.35445709340274333953857421875</LatitudeDegrees>
              <LongitudeDegrees>-1.641941070556640625</LongitudeDegrees>
            </Position>
            <AltitudeMeters>477.79998779296875</AltitudeMeters>
            <DistanceMeters>24598.943061671</DistanceMeters>
          </Trackpoint>
          <Trackpoint>
            <Time>2022-11-06T11:56:41.000Z</Time>
            <Position>
              <LatitudeDegrees>41.35443462990224361419677734375</LatitudeDegrees>
              <LongitudeDegrees>-1.64200636558234691619873046875</LongitudeDegrees>
            </Position>
            <AltitudeMeters>478</AltitudeMeters>
            <DistanceMeters>24604.944056993</DistanceMeters>
          </Trackpoint>
          <Trackpoint>
            <Time>2022-11-06T11:56:42.000Z</Time>
            <Position>
              <LatitudeDegrees>41.35441585443913936614990234375</LatitudeDegrees>
              <LongitudeDegrees>-1.64207861758768558502197265625</LongitudeDegrees>
            </Position>
            <AltitudeMeters>478</AltitudeMeters>
            <DistanceMeters>24611.331379231</DistanceMeters>
          </Trackpoint>
          <Trackpoint>
            <Time>2022-11-06T11:56:43.000Z</Time>
            <Position>
              <LatitudeDegrees>41.3543855957686901092529296875</LatitudeDegrees>
              <LongitudeDegrees>-1.642120443284511566162109375</LongitudeDegrees>
            </Position>
            <AltitudeMeters>478.20001220703125</AltitudeMeters>
            <DistanceMeters>24616.184258723</DistanceMeters>
          </Trackpoint>
          <Trackpoint>
            <Time>2022-11-06T11:56:44.000Z</Time>
            <Position>
              <LatitudeDegrees>41.354339160025119781494140625</LatitudeDegrees>
              <LongitudeDegrees>-1.642183475196361541748046875</LongitudeDegrees>
            </Position>
            <AltitudeMeters>478.20001220703125</AltitudeMeters>
            <DistanceMeters>24623.563375266</DistanceMeters>
          </Trackpoint>
          <Trackpoint>
            <Time>2022-11-06T11:56:45.000Z</Time>
            <Position>
              <LatitudeDegrees>41.354298256337642669677734375</LatitudeDegrees>
              <LongitudeDegrees>-1.64223468862473964691162109375</LongitudeDegrees>
            </Position>
            <AltitudeMeters>478.20001220703125</AltitudeMeters>
            <DistanceMeters>24629.810613888</DistanceMeters>
          </Trackpoint>
          <Trackpoint>
            <Time>2022-11-06T11:56:46.000Z</Time>
            <Position>
              <LatitudeDegrees>41.3542665727436542510986328125</LatitudeDegrees>
              <LongitudeDegrees>-1.64227567613124847412109375</LongitudeDegrees>
            </Position>
            <AltitudeMeters>478.399993896484375</AltitudeMeters>
            <DistanceMeters>24634.726352343</DistanceMeters>
          </Trackpoint>
          <Trackpoint>
            <Time>2022-11-06T11:56:48.000Z</Time>
            <Position>
              <LatitudeDegrees>41.3541968353092670440673828125</LatitudeDegrees>
              <LongitudeDegrees>-1.64239746518433094024658203125</LongitudeDegrees>
            </Position>
            <AltitudeMeters>478.600006103515625</AltitudeMeters>
            <DistanceMeters>24647.523596827</DistanceMeters>
          </Trackpoint>
          <Trackpoint>
            <Time>2022-11-06T11:56:50.000Z</Time>
            <Position>
              <LatitudeDegrees>41.354169510304927825927734375</LatitudeDegrees>
              <LongitudeDegrees>-1.64252185262739658355712890625</LongitudeDegrees>
            </Position>
            <AltitudeMeters>478.600006103515625</AltitudeMeters>
            <DistanceMeters>24658.352056673</DistanceMeters>
          </Trackpoint>
          <Trackpoint>
            <Time>2022-11-06T11:56:52.000Z</Time>
            <Position>
              <LatitudeDegrees>41.3541019521653652191162109375</LatitudeDegrees>
              <LongitudeDegrees>-1.64264439605176448822021484375</LongitudeDegrees>
            </Position>
            <AltitudeMeters>479</AltitudeMeters>
            <DistanceMeters>24671.055106151</DistanceMeters>
          </Trackpoint>
          <Trackpoint>
            <Time>2022-11-06T11:56:53.000Z</Time>
            <Position>
              <LatitudeDegrees>41.35407663881778717041015625</LatitudeDegrees>
              <LongitudeDegrees>-1.642706505954265594482421875</LongitudeDegrees>
            </Position>
            <AltitudeMeters>479.20001220703125</AltitudeMeters>
            <DistanceMeters>24676.959011221</DistanceMeters>
          </Trackpoint>
          <Trackpoint>
            <Time>2022-11-06T11:56:55.000Z</Time>
            <Position>
              <LatitudeDegrees>41.3540261797606945037841796875</LatitudeDegrees>
              <LongitudeDegrees>-1.642835251986980438232421875</LongitudeDegrees>
            </Position>
            <AltitudeMeters>479.399993896484375</AltitudeMeters>
            <DistanceMeters>24689.093442666</DistanceMeters>
          </Trackpoint>
          <Trackpoint>
            <Time>2022-11-06T11:56:56.000Z</Time>
            <Position>
              <LatitudeDegrees>41.35401519946753978729248046875</LatitudeDegrees>
              <LongitudeDegrees>-1.64290197193622589111328125</LongitudeDegrees>
            </Position>
            <AltitudeMeters>479.600006103515625</AltitudeMeters>
            <DistanceMeters>24694.799794886</DistanceMeters>
          </Trackpoint>
          <Trackpoint>
            <Time>2022-11-06T11:56:58.000Z</Time>
            <Position>
              <LatitudeDegrees>41.35403799824416637420654296875</LatitudeDegrees>
              <LongitudeDegrees>-1.64304739795625209808349609375</LongitudeDegrees>
            </Position>
            <AltitudeMeters>479.79998779296875</AltitudeMeters>
            <DistanceMeters>24707.211971738</DistanceMeters>
          </Trackpoint>
          <Trackpoint>
            <Time>2022-11-06T11:56:59.000Z</Time>
            <Position>
              <LatitudeDegrees>41.3540815003216266632080078125</LatitudeDegrees>
              <LongitudeDegrees>-1.64310489781200885772705078125</LongitudeDegrees>
            </Position>
            <AltitudeMeters>479.79998779296875</AltitudeMeters>
            <DistanceMeters>24714.032745436</DistanceMeters>
          </Trackpoint>
          <Trackpoint>
            <Time>2022-11-06T11:57:00.000Z</Time>
            <Position>
              <LatitudeDegrees>41.35413003154098987579345703125</LatitudeDegrees>
              <LongitudeDegrees>-1.6431472264230251312255859375</LongitudeDegrees>
            </Position>
            <AltitudeMeters>480</AltitudeMeters>
            <DistanceMeters>24720.488969787</DistanceMeters>
          </Trackpoint>
          <Trackpoint>
            <Time>2022-11-06T11:57:02.000Z</Time>
            <Position>
              <LatitudeDegrees>41.3542266748845577239990234375</LatitudeDegrees>
              <LongitudeDegrees>-1.6432025469839572906494140625</LongitudeDegrees>
            </Position>
            <AltitudeMeters>480.20001220703125</AltitudeMeters>
            <DistanceMeters>24732.196168438</DistanceMeters>
          </Trackpoint>
          <Trackpoint>
            <Time>2022-11-06T11:57:03.000Z</Time>
            <Position>
              <LatitudeDegrees>41.35427118279039859771728515625</LatitudeDegrees>
              <LongitudeDegrees>-1.64323129691183567047119140625</LongitudeDegrees>
            </Position>
            <AltitudeMeters>480.20001220703125</AltitudeMeters>
            <DistanceMeters>24737.701980515</DistanceMeters>
          </Trackpoint>
          <Trackpoint>
            <Time>2022-11-06T11:57:04.000Z</Time>
            <Position>
              <LatitudeDegrees>41.35431141592562198638916015625</LatitudeDegrees>
              <LongitudeDegrees>-1.6432649083435535430908203125</LongitudeDegrees>
            </Position>
            <AltitudeMeters>480.20001220703125</AltitudeMeters>
            <DistanceMeters>24742.987721382</DistanceMeters>
          </Trackpoint>
          <Trackpoint>
            <Time>2022-11-06T11:57:05.000Z</Time>
            <Position>
              <LatitudeDegrees>41.35433186776936054229736328125</LatitudeDegrees>
              <LongitudeDegrees>-1.643306650221347808837890625</LongitudeDegrees>
            </Position>
            <AltitudeMeters>480.399993896484375</AltitudeMeters>
            <DistanceMeters>24747.152667582</DistanceMeters>
          </Trackpoint>
          <Trackpoint>
            <Time>2022-11-06T11:57:06.000Z</Time>
            <Position>
              <LatitudeDegrees>41.3543329574167728424072265625</LatitudeDegrees>
              <LongitudeDegrees>-1.64334478788077831268310546875</LongitudeDegrees>
            </Position>
            <AltitudeMeters>480.399993896484375</AltitudeMeters>
            <DistanceMeters>24750.339960478</DistanceMeters>
          </Trackpoint>
          <Trackpoint>
            <Time>2022-11-06T11:57:07.000Z</Time>
            <Position>
              <LatitudeDegrees>41.35431845672428607940673828125</LatitudeDegrees>
              <LongitudeDegrees>-1.64337194524705410003662109375</LongitudeDegrees>
            </Position>
            <AltitudeMeters>480.600006103515625</AltitudeMeters>
            <DistanceMeters>24753.123448503</DistanceMeters>
          </Trackpoint>
          <Trackpoint>
            <Time>2022-11-06T11:57:08.000Z</Time>
            <Position>
              <LatitudeDegrees>41.35429783724248409271240234375</LatitudeDegrees>
              <LongitudeDegrees>-1.64338745176792144775390625</LongitudeDegrees>
            </Position>
            <AltitudeMeters>480.79998779296875</AltitudeMeters>
            <DistanceMeters>24755.756906061</DistanceMeters>
          </Trackpoint>
          <Trackpoint>
            <Time>2022-11-06T11:57:42.000Z</Time>
            <Position>
              <LatitudeDegrees>41.354070603847503662109375</LatitudeDegrees>
              <LongitudeDegrees>-1.6433762200176715850830078125</LongitudeDegrees>
            </Position>
            <AltitudeMeters>480.399993896484375</AltitudeMeters>
            <DistanceMeters>24781.065786765</DistanceMeters>
          </Trackpoint>
          <Trackpoint>
            <Time>2022-11-06T11:57:44.000Z</Time>
            <Position>
              <LatitudeDegrees>41.354045458137989044189453125</LatitudeDegrees>
              <LongitudeDegrees>-1.6433215700089931488037109375</LongitudeDegrees>
            </Position>
            <AltitudeMeters>480.399993896484375</AltitudeMeters>
            <DistanceMeters>24786.422799266</DistanceMeters>
          </Trackpoint>
          <Trackpoint>
            <Time>2022-11-06T11:57:45.000Z</Time>
            <Position>
              <LatitudeDegrees>41.3540365733206272125244140625</LatitudeDegrees>
              <LongitudeDegrees>-1.6432860307395458221435546875</LongitudeDegrees>
            </Position>
            <AltitudeMeters>480.399993896484375</AltitudeMeters>
            <DistanceMeters>24789.552916347</DistanceMeters>
          </Trackpoint>
          <Trackpoint>
            <Time>2022-11-06T11:57:46.000Z</Time>
            <Position>
              <LatitudeDegrees>41.35403766296803951263427734375</LatitudeDegrees>
              <LongitudeDegrees>-1.64324655197560787200927734375</LongitudeDegrees>
            </Position>
            <AltitudeMeters>480.399993896484375</AltitudeMeters>
            <DistanceMeters>24792.852957588</DistanceMeters>
          </Trackpoint>
          <Trackpoint>
            <Time>2022-11-06T11:57:48.000Z</Time>
            <Position>
              <LatitudeDegrees>41.35405006818473339080810546875</LatitudeDegrees>
              <LongitudeDegrees>-1.6431509144604206085205078125</LongitudeDegrees>
            </Position>
            <AltitudeMeters>480.399993896484375</AltitudeMeters>
            <DistanceMeters>24800.961470805</DistanceMeters>
          </Trackpoint>
          <Trackpoint>
            <Time>2022-11-06T11:57:50.000Z</Time>
            <Position>
              <LatitudeDegrees>41.35404202155768871307373046875</LatitudeDegrees>
              <LongitudeDegrees>-1.6430654190480709075927734375</LongitudeDegrees>
            </Position>
            <AltitudeMeters>480.399993896484375</AltitudeMeters>
            <DistanceMeters>24808.160332431</DistanceMeters>
          </Trackpoint>
          <Trackpoint>
            <Time>2022-11-06T11:57:52.000Z</Time>
            <Position>
              <LatitudeDegrees>41.35401654057204723358154296875</LatitudeDegrees>
              <LongitudeDegrees>-1.64299207739531993865966796875</LongitudeDegrees>
            </Position>
            <AltitudeMeters>480.20001220703125</AltitudeMeters>
            <DistanceMeters>24814.911911942</DistanceMeters>
          </Trackpoint>
          <Trackpoint>
            <Time>2022-11-06T11:57:54.000Z</Time>
            <Position>
              <LatitudeDegrees>41.3539725355803966522216796875</LatitudeDegrees>
              <LongitudeDegrees>-1.64293491281569004058837890625</LongitudeDegrees>
            </Position>
            <AltitudeMeters>480</AltitudeMeters>
            <DistanceMeters>24821.753835376</DistanceMeters>
          </Trackpoint>
          <Trackpoint>
            <Time>2022-11-06T11:57:57.000Z</Time>
            <Position>
              <LatitudeDegrees>41.35389399714767932891845703125</LatitudeDegrees>
              <LongitudeDegrees>-1.642874814569950103759765625</LongitudeDegrees>
            </Position>
            <AltitudeMeters>480</AltitudeMeters>
            <DistanceMeters>24831.834732177</DistanceMeters>
          </Trackpoint>
          <Trackpoint>
            <Time>2022-11-06T11:58:00.000Z</Time>
            <Position>
              <LatitudeDegrees>41.3537968508899211883544921875</LatitudeDegrees>
              <LongitudeDegrees>-1.64278202690184116363525390625</LongitudeDegrees>
            </Position>
            <AltitudeMeters>480.20001220703125</AltitudeMeters>
            <DistanceMeters>24845.139150934</DistanceMeters>
          </Trackpoint>
          <Trackpoint>
            <Time>2022-11-06T11:58:04.000Z</Time>
            <Position>
              <LatitudeDegrees>41.35370926000177860260009765625</LatitudeDegrees>
              <LongitudeDegrees>-1.64264841936528682708740234375</LongitudeDegrees>
            </Position>
            <AltitudeMeters>480</AltitudeMeters>
            <DistanceMeters>24859.959663051</DistanceMeters>
          </Trackpoint>
          <Trackpoint>
            <Time>2022-11-06T11:58:05.000Z</Time>
            <Position>
              <LatitudeDegrees>41.3537049852311611175537109375</LatitudeDegrees>
              <LongitudeDegrees>-1.64262411184608936309814453125</LongitudeDegrees>
            </Position>
            <AltitudeMeters>480</AltitudeMeters>
            <DistanceMeters>24862.0459269</DistanceMeters>
          </Trackpoint>
          <Trackpoint>
            <Time>2022-11-06T11:58:07.000Z</Time>
            <Position>
              <LatitudeDegrees>41.35364555753767490386962890625</LatitudeDegrees>
              <LongitudeDegrees>-1.6425846330821514129638671875</LongitudeDegrees>
            </Position>
            <AltitudeMeters>479.600006103515625</AltitudeMeters>
            <DistanceMeters>24869.437270653</DistanceMeters>
          </Trackpoint>
          <Trackpoint>
            <Time>2022-11-06T11:58:09.000Z</Time>
            <Position>
              <LatitudeDegrees>41.3535816036164760589599609375</LatitudeDegrees>
              <LongitudeDegrees>-1.6425407119095325469970703125</LongitudeDegrees>
            </Position>
            <AltitudeMeters>479.399993896484375</AltitudeMeters>
            <DistanceMeters>24877.446055391</DistanceMeters>
          </Trackpoint>
          <Trackpoint>
            <Time>2022-11-06T11:58:11.000Z</Time>
            <Position>
              <LatitudeDegrees>41.35353575460612773895263671875</LatitudeDegrees>
              <LongitudeDegrees>-1.6424813680350780487060546875</LongitudeDegrees>
            </Position>
            <AltitudeMeters>479</AltitudeMeters>
            <DistanceMeters>24884.56101207</DistanceMeters>
          </Trackpoint>
          <Trackpoint>
            <Time>2022-11-06T11:58:12.000Z</Time>
            <Position>
              <LatitudeDegrees>41.35353215038776397705078125</LatitudeDegrees>
              <LongitudeDegrees>-1.64246418513357639312744140625</LongitudeDegrees>
            </Position>
            <AltitudeMeters>479</AltitudeMeters>
            <DistanceMeters>24886.051447847</DistanceMeters>
          </Trackpoint>
          <Trackpoint>
            <Time>2022-11-06T11:58:14.000Z</Time>
            <Position>
              <LatitudeDegrees>41.35352075099945068359375</LatitudeDegrees>
              <LongitudeDegrees>-1.642429567873477935791015625</LongitudeDegrees>
            </Position>
            <AltitudeMeters>479</AltitudeMeters>
            <DistanceMeters>24889.207422232</DistanceMeters>
          </Trackpoint>
          <Trackpoint>
            <Time>2022-11-06T11:58:15.000Z</Time>
            <Position>
              <LatitudeDegrees>41.35352452285587787628173828125</LatitudeDegrees>
              <LongitudeDegrees>-1.64240039885044097900390625</LongitudeDegrees>
            </Position>
            <AltitudeMeters>478.79998779296875</AltitudeMeters>
            <DistanceMeters>24891.68176898</DistanceMeters>
          </Trackpoint>
          <Trackpoint>
            <Time>2022-11-06T11:58:17.000Z</Time>
            <Position>
              <LatitudeDegrees>41.35355763137340545654296875</LatitudeDegrees>
              <LongitudeDegrees>-1.64236553013324737548828125</LongitudeDegrees>
            </Position>
            <AltitudeMeters>479.20001220703125</AltitudeMeters>
            <DistanceMeters>24896.37958835</DistanceMeters>
          </Trackpoint>
          <Trackpoint>
            <Time>2022-11-06T11:58:20.000Z</Time>
            <Position>
              <LatitudeDegrees>41.35361102409660816192626953125</LatitudeDegrees>
              <LongitudeDegrees>-1.642312221229076385498046875</LongitudeDegrees>
            </Position>
            <AltitudeMeters>479.600006103515625</AltitudeMeters>
            <DistanceMeters>24903.806277176</DistanceMeters>
          </Trackpoint>
          <Trackpoint>
            <Time>2022-11-06T11:58:22.000Z</Time>
            <Position>
              <LatitudeDegrees>41.35365578345954418182373046875</LatitudeDegrees>
              <LongitudeDegrees>-1.64226897060871124267578125</LongitudeDegrees>
            </Position>
            <AltitudeMeters>479.79998779296875</AltitudeMeters>
            <DistanceMeters>24909.960311674</DistanceMeters>
          </Trackpoint>
          <Trackpoint>
            <Time>2022-11-06T11:58:23.000Z</Time>
            <Position>
              <LatitudeDegrees>41.353674642741680145263671875</LatitudeDegrees>
              <LongitudeDegrees>-1.64223812520503997802734375</LongitudeDegrees>
            </Position>
            <AltitudeMeters>479.79998779296875</AltitudeMeters>
            <DistanceMeters>24913.282171607</DistanceMeters>
          </Trackpoint>
          <Trackpoint>
            <Time>2022-11-06T11:58:24.000Z</Time>
            <Position>
              <LatitudeDegrees>41.353695094585418701171875</LatitudeDegrees>
              <LongitudeDegrees>-1.6422252170741558074951171875</LongitudeDegrees>
            </Position>
            <AltitudeMeters>479.79998779296875</AltitudeMeters>
            <DistanceMeters>24915.799931259</DistanceMeters>
          </Trackpoint>
          <Trackpoint>
            <Time>2022-11-06T11:58:27.000Z</Time>
            <Position>
              <LatitudeDegrees>41.35378302074968814849853515625</LatitudeDegrees>
              <LongitudeDegrees>-1.64219613187015056610107421875</LongitudeDegrees>
            </Position>
            <AltitudeMeters>480</AltitudeMeters>
            <DistanceMeters>24925.883514985</DistanceMeters>
          </Trackpoint>
          <Trackpoint>
            <Time>2022-11-06T11:58:32.000Z</Time>
            <Position>
              <LatitudeDegrees>41.3538920693099498748779296875</LatitudeDegrees>
              <LongitudeDegrees>-1.64211080409586429595947265625</LongitudeDegrees>
            </Position>
            <AltitudeMeters>480</AltitudeMeters>
            <DistanceMeters>24939.959342039</DistanceMeters>
          </Trackpoint>
          <Trackpoint>
            <Time>2022-11-06T11:58:34.000Z</Time>
            <Position>
              <LatitudeDegrees>41.35394990444183349609375</LatitudeDegrees>
              <LongitudeDegrees>-1.6420800425112247467041015625</LongitudeDegrees>
            </Position>
            <AltitudeMeters>479.79998779296875</AltitudeMeters>
            <DistanceMeters>24946.889780453</DistanceMeters>
          </Trackpoint>
          <Trackpoint>
            <Time>2022-11-06T11:58:36.000Z</Time>
            <Position>
              <LatitudeDegrees>41.354013942182064056396484375</LatitudeDegrees>
              <LongitudeDegrees>-1.642041318118572235107421875</LongitudeDegrees>
            </Position>
            <AltitudeMeters>479.600006103515625</AltitudeMeters>
            <DistanceMeters>24954.71665969</DistanceMeters>
          </Trackpoint>
          <Trackpoint>
            <Time>2022-11-06T11:58:42.000Z</Time>
            <Position>
              <LatitudeDegrees>41.35416649281978607177734375</LatitudeDegrees>
              <LongitudeDegrees>-1.6419370472431182861328125</LongitudeDegrees>
            </Position>
            <AltitudeMeters>479.20001220703125</AltitudeMeters>
            <DistanceMeters>24973.800238573</DistanceMeters>
          </Trackpoint>
          <Trackpoint>
            <Time>2022-11-06T11:58:47.000Z</Time>
            <Position>
              <LatitudeDegrees>41.354326419532299041748046875</LatitudeDegrees>
              <LongitudeDegrees>-1.64182615466415882110595703125</LongitudeDegrees>
            </Position>
            <AltitudeMeters>479.399993896484375</AltitudeMeters>
            <DistanceMeters>24993.867306843</DistanceMeters>
          </Trackpoint>
          <Trackpoint>
            <Time>2022-11-06T11:58:50.000Z</Time>
            <Position>
              <LatitudeDegrees>41.3543869368731975555419921875</LatitudeDegrees>
              <LongitudeDegrees>-1.6417528130114078521728515625</LongitudeDegrees>
            </Position>
            <AltitudeMeters>479.399993896484375</AltitudeMeters>
            <DistanceMeters>25002.973028226</DistanceMeters>
          </Trackpoint>
          <Trackpoint>
            <Time>2022-11-06T11:58:52.000Z</Time>
            <Position>
              <LatitudeDegrees>41.3544271700084209442138671875</LatitudeDegrees>
              <LongitudeDegrees>-1.6417454369366168975830078125</LongitudeDegrees>
            </Position>
            <AltitudeMeters>479.20001220703125</AltitudeMeters>
            <DistanceMeters>25007.493544014</DistanceMeters>
          </Trackpoint>
          <Trackpoint>
            <Time>2022-11-06T11:58:54.000Z</Time>
            <Position>
              <LatitudeDegrees>41.3544858433306217193603515625</LatitudeDegrees>
              <LongitudeDegrees>-1.64174468256533145904541015625</LongitudeDegrees>
            </Position>
            <AltitudeMeters>479.20001220703125</AltitudeMeters>
            <DistanceMeters>25014.024859435</DistanceMeters>
          </Trackpoint>
          <Trackpoint>
            <Time>2022-11-06T11:58:56.000Z</Time>
            <Position>
              <LatitudeDegrees>41.354530267417430877685546875</LatitudeDegrees>
              <LongitudeDegrees>-1.641759015619754791259765625</LongitudeDegrees>
            </Position>
            <AltitudeMeters>478.79998779296875</AltitudeMeters>
            <DistanceMeters>25019.11300538</DistanceMeters>
          </Trackpoint>
          <Trackpoint>
            <Time>2022-11-06T11:58:57.000Z</Time>
            <Position>
              <LatitudeDegrees>41.3545555807650089263916015625</LatitudeDegrees>
              <LongitudeDegrees>-1.6417524777352809906005859375</LongitudeDegrees>
            </Position>
            <AltitudeMeters>478.79998779296875</AltitudeMeters>
            <DistanceMeters>25021.982749222</DistanceMeters>
          </Trackpoint>
          <Trackpoint>
            <Time>2022-11-06T11:59:04.000Z</Time>
            <Position>
              <LatitudeDegrees>41.3547570817172527313232421875</LatitudeDegrees>
              <LongitudeDegrees>-1.64166019298136234283447265625</LongitudeDegrees>
            </Position>
            <AltitudeMeters>478.399993896484375</AltitudeMeters>
            <DistanceMeters>25045.698721506</DistanceMeters>
          </Trackpoint>
          <Trackpoint>
            <Time>2022-11-06T11:59:05.000Z</Time>
            <Position>
              <LatitudeDegrees>41.35478608310222625732421875</LatitudeDegrees>
              <LongitudeDegrees>-1.64164292626082897186279296875</LongitudeDegrees>
            </Position>
            <AltitudeMeters>478.399993896484375</AltitudeMeters>
            <DistanceMeters>25049.233919633</DistanceMeters>
          </Trackpoint>
          <Trackpoint>
            <Time>2022-11-06T11:59:07.000Z</Time>
            <Position>
              <LatitudeDegrees>41.3548444211483001708984375</LatitudeDegrees>
              <LongitudeDegrees>-1.6416103206574916839599609375</LongitudeDegrees>
            </Position>
            <AltitudeMeters>478</AltitudeMeters>
            <DistanceMeters>25056.275520996</DistanceMeters>
          </Trackpoint>
          <Trackpoint>
            <Time>2022-11-06T11:59:12.000Z</Time>
            <Position>
              <LatitudeDegrees>41.354974843561649322509765625</LatitudeDegrees>
              <LongitudeDegrees>-1.64144662208855152130126953125</LongitudeDegrees>
            </Position>
            <AltitudeMeters>477.79998779296875</AltitudeMeters>
            <DistanceMeters>25076.219362332</DistanceMeters>
          </Trackpoint>
          <Trackpoint>
            <Time>2022-11-06T11:59:19.000Z</Time>
            <Position>
              <LatitudeDegrees>41.35512881912291049957275390625</LatitudeDegrees>
              <LongitudeDegrees>-1.64126540534198284149169921875</LongitudeDegrees>
            </Position>
            <AltitudeMeters>478</AltitudeMeters>
            <DistanceMeters>25099.08666796</DistanceMeters>
          </Trackpoint>
          <Trackpoint>
            <Time>2022-11-06T11:59:25.000Z</Time>
            <Position>
              <LatitudeDegrees>41.3553039170801639556884765625</LatitudeDegrees>
              <LongitudeDegrees>-1.6411369107663631439208984375</LongitudeDegrees>
            </Position>
            <AltitudeMeters>478</AltitudeMeters>
            <DistanceMeters>25121.336519216</DistanceMeters>
          </Trackpoint>
          <Trackpoint>
            <Time>2022-11-06T11:59:26.000Z</Time>
            <Position>
              <LatitudeDegrees>41.35534188710153102874755859375</LatitudeDegrees>
              <LongitudeDegrees>-1.64112458936870098114013671875</LongitudeDegrees>
            </Position>
            <AltitudeMeters>477.79998779296875</AltitudeMeters>
            <DistanceMeters>25125.68704105</DistanceMeters>
          </Trackpoint>
          <Trackpoint>
            <Time>2022-11-06T11:59:31.000Z</Time>
            <Position>
              <LatitudeDegrees>41.3554621674120426177978515625</LatitudeDegrees>
              <LongitudeDegrees>-1.64104320108890533447265625</LongitudeDegrees>
            </Position>
            <AltitudeMeters>477.20001220703125</AltitudeMeters>
            <DistanceMeters>25140.702164045</DistanceMeters>
          </Trackpoint>
          <Trackpoint>
            <Time>2022-11-06T11:59:32.000Z</Time>
            <Position>
              <LatitudeDegrees>41.35547767393290996551513671875</LatitudeDegrees>
              <LongitudeDegrees>-1.6410138644278049468994140625</LongitudeDegrees>
            </Position>
            <AltitudeMeters>477.20001220703125</AltitudeMeters>
            <DistanceMeters>25143.698144016</DistanceMeters>
          </Trackpoint>
          <Trackpoint>
            <Time>2022-11-06T11:59:35.000Z</Time>
            <Position>
              <LatitudeDegrees>41.355481110513210296630859375</LatitudeDegrees>
              <LongitudeDegrees>-1.64090230129659175872802734375</LongitudeDegrees>
            </Position>
            <AltitudeMeters>477</AltitudeMeters>
            <DistanceMeters>25153.0267477</DistanceMeters>
          </Trackpoint>
          <Trackpoint>
            <Time>2022-11-06T11:59:36.000Z</Time>
            <Position>
              <LatitudeDegrees>41.35548354126513004302978515625</LatitudeDegrees>
              <LongitudeDegrees>-1.64086072705686092376708984375</LongitudeDegrees>
            </Position>
            <AltitudeMeters>477</AltitudeMeters>
            <DistanceMeters>25156.510484593</DistanceMeters>
          </Trackpoint>
          <Trackpoint>
            <Time>2022-11-06T11:59:42.000Z</Time>
            <Position>
              <LatitudeDegrees>41.355463005602359771728515625</LatitudeDegrees>
              <LongitudeDegrees>-1.64061178453266620635986328125</LongitudeDegrees>
            </Position>
            <AltitudeMeters>476.399993896484375</AltitudeMeters>
            <DistanceMeters>25177.433632205</DistanceMeters>
          </Trackpoint>
          <Trackpoint>
            <Time>2022-11-06T11:59:43.000Z</Time>
            <Position>
              <LatitudeDegrees>41.35546308942139148712158203125</LatitudeDegrees>
              <LongitudeDegrees>-1.640570461750030517578125</LongitudeDegrees>
            </Position>
            <AltitudeMeters>476.399993896484375</AltitudeMeters>
            <DistanceMeters>25180.88612419</DistanceMeters>
          </Trackpoint>
          <Trackpoint>
            <Time>2022-11-06T11:59:47.000Z</Time>
            <Position>
              <LatitudeDegrees>41.355420760810375213623046875</LatitudeDegrees>
              <LongitudeDegrees>-1.640417911112308502197265625</LongitudeDegrees>
            </Position>
            <AltitudeMeters>476.399993896484375</AltitudeMeters>
            <DistanceMeters>25194.473947525</DistanceMeters>
          </Trackpoint>
          <Trackpoint>
            <Time>2022-11-06T11:59:50.000Z</Time>
            <Position>
              <LatitudeDegrees>41.35537290014326572418212890625</LatitudeDegrees>
              <LongitudeDegrees>-1.64031590335071086883544921875</LongitudeDegrees>
            </Position>
            <AltitudeMeters>476.600006103515625</AltitudeMeters>
            <DistanceMeters>25204.524342298</DistanceMeters>
          </Trackpoint>
          <Trackpoint>
            <Time>2022-11-06T11:59:52.000Z</Time>
            <Position>
              <LatitudeDegrees>41.35531070642173290252685546875</LatitudeDegrees>
              <LongitudeDegrees>-1.64025471545755863189697265625</LongitudeDegrees>
            </Position>
            <AltitudeMeters>476.600006103515625</AltitudeMeters>
            <DistanceMeters>25213.129377269</DistanceMeters>
          </Trackpoint>
          <Trackpoint>
            <Time>2022-11-06T11:59:56.000Z</Time>
            <Position>
              <LatitudeDegrees>41.3551892526447772979736328125</LatitudeDegrees>
              <LongitudeDegrees>-1.64016586728394031524658203125</LongitudeDegrees>
            </Position>
            <AltitudeMeters>476.399993896484375</AltitudeMeters>
            <DistanceMeters>25228.551249833</DistanceMeters>
          </Trackpoint>
          <Trackpoint>
            <Time>2022-11-06T11:59:58.000Z</Time>
            <Position>
              <LatitudeDegrees>41.35512781329452991485595703125</LatitudeDegrees>
              <LongitudeDegrees>-1.64012965746223926544189453125</LongitudeDegrees>
            </Position>
            <AltitudeMeters>476.20001220703125</AltitudeMeters>
            <DistanceMeters>25236.02943567</DistanceMeters>
          </Trackpoint>
          <Trackpoint>
            <Time>2022-11-06T12:00:03.000Z</Time>
            <Position>
              <LatitudeDegrees>41.35498054325580596923828125</LatitudeDegrees>
              <LongitudeDegrees>-1.64003091864287853240966796875</LongitudeDegrees>
            </Position>
            <AltitudeMeters>476</AltitudeMeters>
            <DistanceMeters>25254.379682278</DistanceMeters>
          </Trackpoint>
          <Trackpoint>
            <Time>2022-11-06T12:00:04.000Z</Time>
            <Position>
              <LatitudeDegrees>41.3549461774528026580810546875</LatitudeDegrees>
              <LongitudeDegrees>-1.64001683704555034637451171875</LongitudeDegrees>
            </Position>
            <AltitudeMeters>476</AltitudeMeters>
            <DistanceMeters>25258.379844208</DistanceMeters>
          </Trackpoint>
          <Trackpoint>
            <Time>2022-11-06T12:00:05.000Z</Time>
            <Position>
              <LatitudeDegrees>41.35491508059203624725341796875</LatitudeDegrees>
              <LongitudeDegrees>-1.640002168715000152587890625</LongitudeDegrees>
            </Position>
            <AltitudeMeters>476</AltitudeMeters>
            <DistanceMeters>25262.050385592</DistanceMeters>
          </Trackpoint>
          <Trackpoint>
            <Time>2022-11-06T12:00:11.000Z</Time>
            <Position>
              <LatitudeDegrees>41.3547560758888721466064453125</LatitudeDegrees>
              <LongitudeDegrees>-1.63988088257610797882080078125</LongitudeDegrees>
            </Position>
            <AltitudeMeters>475.79998779296875</AltitudeMeters>
            <DistanceMeters>25282.443747274</DistanceMeters>
          </Trackpoint>
          <Trackpoint>
            <Time>2022-11-06T12:00:12.000Z</Time>
            <Position>
              <LatitudeDegrees>41.35472732596099376678466796875</LatitudeDegrees>
              <LongitudeDegrees>-1.639862358570098876953125</LongitudeDegrees>
            </Position>
            <AltitudeMeters>475.79998779296875</AltitudeMeters>
            <DistanceMeters>25285.999321352</DistanceMeters>
          </Trackpoint>
          <Trackpoint>
            <Time>2022-11-06T12:00:18.000Z</Time>
            <Position>
              <LatitudeDegrees>41.3545686565339565277099609375</LatitudeDegrees>
              <LongitudeDegrees>-1.639766134321689605712890625</LongitudeDegrees>
            </Position>
            <AltitudeMeters>475.399993896484375</AltitudeMeters>
            <DistanceMeters>25305.403394826</DistanceMeters>
          </Trackpoint>
          <Trackpoint>
            <Time>2022-11-06T12:00:21.000Z</Time>
            <Position>
              <LatitudeDegrees>41.354475282132625579833984375</LatitudeDegrees>
              <LongitudeDegrees>-1.6397146694362163543701171875</LongitudeDegrees>
            </Position>
            <AltitudeMeters>475.399993896484375</AltitudeMeters>
            <DistanceMeters>25316.650720771</DistanceMeters>
          </Trackpoint>
          <Trackpoint>
            <Time>2022-11-06T12:00:27.000Z</Time>
            <Position>
              <LatitudeDegrees>41.3543017767369747161865234375</LatitudeDegrees>
              <LongitudeDegrees>-1.639590449631214141845703125</LongitudeDegrees>
            </Position>
            <AltitudeMeters>475.399993896484375</AltitudeMeters>
            <DistanceMeters>25338.574518548</DistanceMeters>
          </Trackpoint>
          <Trackpoint>
            <Time>2022-11-06T12:00:30.000Z</Time>
            <Position>
              <LatitudeDegrees>41.35422139428555965423583984375</LatitudeDegrees>
              <LongitudeDegrees>-1.63951962254941463470458984375</LongitudeDegrees>
            </Position>
            <AltitudeMeters>475.399993896484375</AltitudeMeters>
            <DistanceMeters>25349.301599424</DistanceMeters>
          </Trackpoint>
          <Trackpoint>
            <Time>2022-11-06T12:00:37.000Z</Time>
            <Position>
              <LatitudeDegrees>41.35404185391962528228759765625</LatitudeDegrees>
              <LongitudeDegrees>-1.6393871046602725982666015625</LongitudeDegrees>
            </Position>
            <AltitudeMeters>475.399993896484375</AltitudeMeters>
            <DistanceMeters>25372.14697813</DistanceMeters>
          </Trackpoint>
          <Trackpoint>
            <Time>2022-11-06T12:00:44.000Z</Time>
            <Position>
              <LatitudeDegrees>41.353865079581737518310546875</LatitudeDegrees>
              <LongitudeDegrees>-1.63925525732338428497314453125</LongitudeDegrees>
            </Position>
            <AltitudeMeters>475.399993896484375</AltitudeMeters>
            <DistanceMeters>25394.696158701</DistanceMeters>
          </Trackpoint>
          <Trackpoint>
            <Time>2022-11-06T12:00:45.000Z</Time>
            <Position>
              <LatitudeDegrees>41.3538411073386669158935546875</LatitudeDegrees>
              <LongitudeDegrees>-1.63924570195376873016357421875</LongitudeDegrees>
            </Position>
            <AltitudeMeters>475.399993896484375</AltitudeMeters>
            <DistanceMeters>25397.482888997</DistanceMeters>
          </Trackpoint>
          <Trackpoint>
            <Time>2022-11-06T12:00:51.000Z</Time>
            <Position>
              <LatitudeDegrees>41.3536830246448516845703125</LatitudeDegrees>
              <LongitudeDegrees>-1.63912399671971797943115234375</LongitudeDegrees>
            </Position>
            <AltitudeMeters>475.399993896484375</AltitudeMeters>
            <DistanceMeters>25417.804835658</DistanceMeters>
          </Trackpoint>
          <Trackpoint>
            <Time>2022-11-06T12:00:57.000Z</Time>
            <Position>
              <LatitudeDegrees>41.35349518619477748870849609375</LatitudeDegrees>
              <LongitudeDegrees>-1.6390357352793216705322265625</LongitudeDegrees>
            </Position>
            <AltitudeMeters>475.399993896484375</AltitudeMeters>
            <DistanceMeters>25439.974183204</DistanceMeters>
          </Trackpoint>
          <Trackpoint>
            <Time>2022-11-06T12:00:58.000Z</Time>
            <Position>
              <LatitudeDegrees>41.353470794856548309326171875</LatitudeDegrees>
              <LongitudeDegrees>-1.63901369087398052215576171875</LongitudeDegrees>
            </Position>
            <AltitudeMeters>475.399993896484375</AltitudeMeters>
            <DistanceMeters>25443.255014062</DistanceMeters>
          </Trackpoint>
          <Trackpoint>
            <Time>2022-11-06T12:01:00.000Z</Time>
            <Position>
              <LatitudeDegrees>41.35341287590563297271728515625</LatitudeDegrees>
              <LongitudeDegrees>-1.63897949270904064178466796875</LongitudeDegrees>
            </Position>
            <AltitudeMeters>475.399993896484375</AltitudeMeters>
            <DistanceMeters>25450.306226787</DistanceMeters>
          </Trackpoint>
          <Trackpoint>
            <Time>2022-11-06T12:01:01.000Z</Time>
            <Position>
              <LatitudeDegrees>41.35338119231164455413818359375</LatitudeDegrees>
              <LongitudeDegrees>-1.6389653272926807403564453125</LongitudeDegrees>
            </Position>
            <AltitudeMeters>475.399993896484375</AltitudeMeters>
            <DistanceMeters>25454.025645709</DistanceMeters>
          </Trackpoint>
          <Trackpoint>
            <Time>2022-11-06T12:01:06.000Z</Time>
            <Position>
              <LatitudeDegrees>41.35321833193302154541015625</LatitudeDegrees>
              <LongitudeDegrees>-1.6388996131718158721923828125</LongitudeDegrees>
            </Position>
            <AltitudeMeters>475.399993896484375</AltitudeMeters>
            <DistanceMeters>25472.965545042</DistanceMeters>
          </Trackpoint>
          <Trackpoint>
            <Time>2022-11-06T12:01:12.000Z</Time>
            <Position>
              <LatitudeDegrees>41.3530371151864528656005859375</LatitudeDegrees>
              <LongitudeDegrees>-1.63883012719452381134033203125</LongitudeDegrees>
            </Position>
            <AltitudeMeters>475.20001220703125</AltitudeMeters>
            <DistanceMeters>25493.954190764</DistanceMeters>
          </Trackpoint>
          <Trackpoint>
            <Time>2022-11-06T12:01:15.000Z</Time>
            <Position>
              <LatitudeDegrees>41.3529429025948047637939453125</LatitudeDegrees>
              <LongitudeDegrees>-1.638793163001537322998046875</LongitudeDegrees>
            </Position>
            <AltitudeMeters>475.20001220703125</AltitudeMeters>
            <DistanceMeters>25504.88598072</DistanceMeters>
          </Trackpoint>
          <Trackpoint>
            <Time>2022-11-06T12:01:19.000Z</Time>
            <Position>
              <LatitudeDegrees>41.3528379611670970916748046875</LatitudeDegrees>
              <LongitudeDegrees>-1.6387380100786685943603515625</LongitudeDegrees>
            </Position>
            <AltitudeMeters>475.399993896484375</AltitudeMeters>
            <DistanceMeters>25517.442458519</DistanceMeters>
          </Trackpoint>
          <Trackpoint>
            <Time>2022-11-06T12:01:21.000Z</Time>
            <Position>
              <LatitudeDegrees>41.352829746901988983154296875</LatitudeDegrees>
              <LongitudeDegrees>-1.63868361152708530426025390625</LongitudeDegrees>
            </Position>
            <AltitudeMeters>475.399993896484375</AltitudeMeters>
            <DistanceMeters>25522.079333761</DistanceMeters>
          </Trackpoint>
          <Trackpoint>
            <Time>2022-11-06T12:01:24.000Z</Time>
            <Position>
              <LatitudeDegrees>41.3528647832572460174560546875</LatitudeDegrees>
              <LongitudeDegrees>-1.63857531733810901641845703125</LongitudeDegrees>
            </Position>
            <AltitudeMeters>475.399993896484375</AltitudeMeters>
            <DistanceMeters>25531.931913209</DistanceMeters>
          </Trackpoint>
          <Trackpoint>
            <Time>2022-11-06T12:01:25.000Z</Time>
            <Position>
              <LatitudeDegrees>41.3528842292726039886474609375</LatitudeDegrees>
              <LongitudeDegrees>-1.6385398618876934051513671875</LongitudeDegrees>
            </Position>
            <AltitudeMeters>475.399993896484375</AltitudeMeters>
            <DistanceMeters>25535.601224313</DistanceMeters>
          </Trackpoint>
          <Trackpoint>
            <Time>2022-11-06T12:01:31.000Z</Time>
            <Position>
              <LatitudeDegrees>41.35298104025423526763916015625</LatitudeDegrees>
              <LongitudeDegrees>-1.63830173201858997344970703125</LongitudeDegrees>
            </Position>
            <AltitudeMeters>475.399993896484375</AltitudeMeters>
            <DistanceMeters>25558.22716283</DistanceMeters>
          </Trackpoint>
          <Trackpoint>
            <Time>2022-11-06T12:01:33.000Z</Time>
            <Position>
              <LatitudeDegrees>41.353003419935703277587890625</LatitudeDegrees>
              <LongitudeDegrees>-1.6382247023284435272216796875</LongitudeDegrees>
            </Position>
            <AltitudeMeters>475.399993896484375</AltitudeMeters>
            <DistanceMeters>25565.128222398</DistanceMeters>
          </Trackpoint>
          <Trackpoint>
            <Time>2022-11-06T12:01:38.000Z</Time>
            <Position>
              <LatitudeDegrees>41.3530714809894561767578125</LatitudeDegrees>
              <LongitudeDegrees>-1.6380371153354644775390625</LongitudeDegrees>
            </Position>
            <AltitudeMeters>475.20001220703125</AltitudeMeters>
            <DistanceMeters>25582.535757411</DistanceMeters>
          </Trackpoint>
          <Trackpoint>
            <Time>2022-11-06T12:01:44.000Z</Time>
            <Position>
              <LatitudeDegrees>41.3531970418989658355712890625</LatitudeDegrees>
              <LongitudeDegrees>-1.63783125579357147216796875</LongitudeDegrees>
            </Position>
            <AltitudeMeters>475</AltitudeMeters>
            <DistanceMeters>25604.696753271</DistanceMeters>
          </Trackpoint>
          <Trackpoint>
            <Time>2022-11-06T12:01:45.000Z</Time>
            <Position>
              <LatitudeDegrees>41.3532149791717529296875</LatitudeDegrees>
              <LongitudeDegrees>-1.63780032657086849212646484375</LongitudeDegrees>
            </Position>
            <AltitudeMeters>475</AltitudeMeters>
            <DistanceMeters>25607.961028106</DistanceMeters>
          </Trackpoint>
          <Trackpoint>
            <Time>2022-11-06T12:01:48.000Z</Time>
            <Position>
              <LatitudeDegrees>41.35326283983886241912841796875</LatitudeDegrees>
              <LongitudeDegrees>-1.63769722916185855865478515625</LongitudeDegrees>
            </Position>
            <AltitudeMeters>475</AltitudeMeters>
            <DistanceMeters>25618.089288984</DistanceMeters>
          </Trackpoint>
          <Trackpoint>
            <Time>2022-11-06T12:01:51.000Z</Time>
            <Position>
              <LatitudeDegrees>41.353317238390445709228515625</LatitudeDegrees>
              <LongitudeDegrees>-1.63756647147238254547119140625</LongitudeDegrees>
            </Position>
            <AltitudeMeters>475</AltitudeMeters>
            <DistanceMeters>25630.579790604</DistanceMeters>
          </Trackpoint>
          <Trackpoint>
            <Time>2022-11-06T12:01:57.000Z</Time>
            <Position>
              <LatitudeDegrees>41.35343634523451328277587890625</LatitudeDegrees>
              <LongitudeDegrees>-1.63735256530344486236572265625</LongitudeDegrees>
            </Position>
            <AltitudeMeters>474.79998779296875</AltitudeMeters>
            <DistanceMeters>25652.831468104</DistanceMeters>
          </Trackpoint>
          <Trackpoint>
            <Time>2022-11-06T12:01:58.000Z</Time>
            <Position>
              <LatitudeDegrees>41.353458724915981292724609375</LatitudeDegrees>
              <LongitudeDegrees>-1.63731300272047519683837890625</LongitudeDegrees>
            </Position>
            <AltitudeMeters>474.79998779296875</AltitudeMeters>
            <DistanceMeters>25656.971405917</DistanceMeters>
          </Trackpoint>
          <Trackpoint>
            <Time>2022-11-06T12:02:04.000Z</Time>
            <Position>
              <LatitudeDegrees>41.35354246012866497039794921875</LatitudeDegrees>
              <LongitudeDegrees>-1.6370864398777484893798828125</LongitudeDegrees>
            </Position>
            <AltitudeMeters>474.600006103515625</AltitudeMeters>
            <DistanceMeters>25678.070332632</DistanceMeters>
          </Trackpoint>
          <Trackpoint>
            <Time>2022-11-06T12:02:05.000Z</Time>
            <Position>
              <LatitudeDegrees>41.35355989448726177215576171875</LatitudeDegrees>
              <LongitudeDegrees>-1.63704930804669857025146484375</LongitudeDegrees>
            </Position>
            <AltitudeMeters>474.600006103515625</AltitudeMeters>
            <DistanceMeters>25681.729786603</DistanceMeters>
          </Trackpoint>
          <Trackpoint>
            <Time>2022-11-06T12:02:11.000Z</Time>
            <Position>
              <LatitudeDegrees>41.35363407433032989501953125</LatitudeDegrees>
              <LongitudeDegrees>-1.6368118487298488616943359375</LongitudeDegrees>
            </Position>
            <AltitudeMeters>474.399993896484375</AltitudeMeters>
            <DistanceMeters>25703.218854735</DistanceMeters>
          </Trackpoint>
          <Trackpoint>
            <Time>2022-11-06T12:02:13.000Z</Time>
            <Position>
              <LatitudeDegrees>41.35365695692598819732666015625</LatitudeDegrees>
              <LongitudeDegrees>-1.6367394290864467620849609375</LongitudeDegrees>
            </Position>
            <AltitudeMeters>474.399993896484375</AltitudeMeters>
            <DistanceMeters>25709.783956019</DistanceMeters>
          </Trackpoint>
          <Trackpoint>
            <Time>2022-11-06T12:02:17.000Z</Time>
            <Position>
              <LatitudeDegrees>41.3537120260298252105712890625</LatitudeDegrees>
              <LongitudeDegrees>-1.636593081057071685791015625</LongitudeDegrees>
            </Position>
            <AltitudeMeters>474</AltitudeMeters>
            <DistanceMeters>25723.461202219</DistanceMeters>
          </Trackpoint>
          <Trackpoint>
            <Time>2022-11-06T12:02:20.000Z</Time>
            <Position>
              <LatitudeDegrees>41.3537438772618770599365234375</LatitudeDegrees>
              <LongitudeDegrees>-1.63647405803203582763671875</LongitudeDegrees>
            </Position>
            <AltitudeMeters>473.79998779296875</AltitudeMeters>
            <DistanceMeters>25734.018580376</DistanceMeters>
          </Trackpoint>
          <Trackpoint>
            <Time>2022-11-06T12:02:26.000Z</Time>
            <Position>
              <LatitudeDegrees>41.35381856001913547515869140625</LatitudeDegrees>
              <LongitudeDegrees>-1.63625956512987613677978515625</LongitudeDegrees>
            </Position>
            <AltitudeMeters>473.79998779296875</AltitudeMeters>
            <DistanceMeters>25753.773169301</DistanceMeters>
          </Trackpoint>
          <Trackpoint>
            <Time>2022-11-06T12:02:30.000Z</Time>
            <Position>
              <LatitudeDegrees>41.3538709469139575958251953125</LatitudeDegrees>
              <LongitudeDegrees>-1.6361024044454097747802734375</LongitudeDegrees>
            </Position>
            <AltitudeMeters>473.600006103515625</AltitudeMeters>
            <DistanceMeters>25768.140127481</DistanceMeters>
          </Trackpoint>
          <Trackpoint>
            <Time>2022-11-06T12:02:36.000Z</Time>
            <Position>
              <LatitudeDegrees>41.3539869524538516998291015625</LatitudeDegrees>
              <LongitudeDegrees>-1.63590031675994396209716796875</LongitudeDegrees>
            </Position>
            <AltitudeMeters>473.79998779296875</AltitudeMeters>
            <DistanceMeters>25789.395332834</DistanceMeters>
          </Trackpoint>
          <Trackpoint>
            <Time>2022-11-06T12:02:38.000Z</Time>
            <Position>
              <LatitudeDegrees>41.35400430299341678619384765625</LatitudeDegrees>
              <LongitudeDegrees>-1.63582404144108295440673828125</LongitudeDegrees>
            </Position>
            <AltitudeMeters>473.79998779296875</AltitudeMeters>
            <DistanceMeters>25796.053987003</DistanceMeters>
          </Trackpoint>
          <Trackpoint>
            <Time>2022-11-06T12:02:44.000Z</Time>
            <Position>
              <LatitudeDegrees>41.3541076518595218658447265625</LatitudeDegrees>
              <LongitudeDegrees>-1.63562606088817119598388671875</LongitudeDegrees>
            </Position>
            <AltitudeMeters>473.79998779296875</AltitudeMeters>
            <DistanceMeters>25816.201219225</DistanceMeters>
          </Trackpoint>
          <Trackpoint>
            <Time>2022-11-06T12:02:45.000Z</Time>
            <Position>
              <LatitudeDegrees>41.35412969626486301422119140625</LatitudeDegrees>
              <LongitudeDegrees>-1.63559085689485073089599609375</LongitudeDegrees>
            </Position>
            <AltitudeMeters>473.79998779296875</AltitudeMeters>
            <DistanceMeters>25820.031868546</DistanceMeters>
          </Trackpoint>
          <Trackpoint>
            <Time>2022-11-06T12:02:47.000Z</Time>
            <Position>
              <LatitudeDegrees>41.354166157543659210205078125</LatitudeDegrees>
              <LongitudeDegrees>-1.6355217061936855316162109375</LongitudeDegrees>
            </Position>
            <AltitudeMeters>473.79998779296875</AltitudeMeters>
            <DistanceMeters>25827.092040072</DistanceMeters>
          </Trackpoint>
          <Trackpoint>
            <Time>2022-11-06T12:02:53.000Z</Time>
            <Position>
              <LatitudeDegrees>41.354266069829463958740234375</LatitudeDegrees>
              <LongitudeDegrees>-1.63532012142241001129150390625</LongitudeDegrees>
            </Position>
            <AltitudeMeters>474.399993896484375</AltitudeMeters>
            <DistanceMeters>25847.274201952</DistanceMeters>
          </Trackpoint>
          <Trackpoint>
            <Time>2022-11-06T12:02:55.000Z</Time>
            <Position>
              <LatitudeDegrees>41.35429532267153263092041015625</LatitudeDegrees>
              <LongitudeDegrees>-1.63524770177900791168212890625</LongitudeDegrees>
            </Position>
            <AltitudeMeters>474.600006103515625</AltitudeMeters>
            <DistanceMeters>25854.145099976</DistanceMeters>
          </Trackpoint>
          <Trackpoint>
            <Time>2022-11-06T12:03:01.000Z</Time>
            <Position>
              <LatitudeDegrees>41.35438534431159496307373046875</LatitudeDegrees>
              <LongitudeDegrees>-1.63502759300172328948974609375</LongitudeDegrees>
            </Position>
            <AltitudeMeters>474.600006103515625</AltitudeMeters>
            <DistanceMeters>25875.087013037</DistanceMeters>
          </Trackpoint>
          <Trackpoint>
            <Time>2022-11-06T12:03:08.000Z</Time>
            <Position>
              <LatitudeDegrees>41.354473941028118133544921875</LatitudeDegrees>
              <LongitudeDegrees>-1.63478602655231952667236328125</LongitudeDegrees>
            </Position>
            <AltitudeMeters>474.600006103515625</AltitudeMeters>
            <DistanceMeters>25897.549527397</DistanceMeters>
          </Trackpoint>
          <Trackpoint>
            <Time>2022-11-06T12:03:09.000Z</Time>
            <Position>
              <LatitudeDegrees>41.3544875197112560272216796875</LatitudeDegrees>
              <LongitudeDegrees>-1.63475249893963336944580078125</LongitudeDegrees>
            </Position>
            <AltitudeMeters>474.600006103515625</AltitudeMeters>
            <DistanceMeters>25900.732567731</DistanceMeters>
          </Trackpoint>
          <Trackpoint>
            <Time>2022-11-06T12:03:15.000Z</Time>
            <Position>
              <LatitudeDegrees>41.35458852164447307586669921875</LatitudeDegrees>
              <LongitudeDegrees>-1.634559296071529388427734375</LongitudeDegrees>
            </Position>
            <AltitudeMeters>474.600006103515625</AltitudeMeters>
            <DistanceMeters>25920.402868071</DistanceMeters>
          </Trackpoint>
          <Trackpoint>
            <Time>2022-11-06T12:03:17.000Z</Time>
            <Position>
              <LatitudeDegrees>41.3546137511730194091796875</LatitudeDegrees>
              <LongitudeDegrees>-1.63448411040008068084716796875</LongitudeDegrees>
            </Position>
            <AltitudeMeters>474.600006103515625</AltitudeMeters>
            <DistanceMeters>25927.283615908</DistanceMeters>
          </Trackpoint>
          <Trackpoint>
            <Time>2022-11-06T12:03:24.000Z</Time>
            <Position>
              <LatitudeDegrees>41.354699246585369110107421875</LatitudeDegrees>
              <LongitudeDegrees>-1.63424137048423290252685546875</LongitudeDegrees>
            </Position>
            <AltitudeMeters>474.600006103515625</AltitudeMeters>
            <DistanceMeters>25949.685345044</DistanceMeters>
          </Trackpoint>
          <Trackpoint>
            <Time>2022-11-06T12:03:30.000Z</Time>
            <Position>
              <LatitudeDegrees>41.3546880148351192474365234375</LatitudeDegrees>
              <LongitudeDegrees>-1.63403056561946868896484375</LongitudeDegrees>
            </Position>
            <AltitudeMeters>474.600006103515625</AltitudeMeters>
            <DistanceMeters>25967.341656354</DistanceMeters>
          </Trackpoint>
          <Trackpoint>
            <Time>2022-11-06T12:03:32.000Z</Time>
            <Position>
              <LatitudeDegrees>41.35469949804246425628662109375</LatitudeDegrees>
              <LongitudeDegrees>-1.63396577350795269012451171875</LongitudeDegrees>
            </Position>
            <AltitudeMeters>475</AltitudeMeters>
            <DistanceMeters>25972.903764039</DistanceMeters>
          </Trackpoint>
          <Trackpoint>
            <Time>2022-11-06T12:03:33.000Z</Time>
            <Position>
              <LatitudeDegrees>41.35471240617334842681884765625</LatitudeDegrees>
              <LongitudeDegrees>-1.6339304856956005096435546875</LongitudeDegrees>
            </Position>
            <AltitudeMeters>475</AltitudeMeters>
            <DistanceMeters>25976.181841367</DistanceMeters>
          </Trackpoint>
          <Trackpoint>
            <Time>2022-11-06T12:03:39.000Z</Time>
            <Position>
              <LatitudeDegrees>41.35483059100806713104248046875</LatitudeDegrees>
              <LongitudeDegrees>-1.63377106189727783203125</LongitudeDegrees>
            </Position>
            <AltitudeMeters>474</AltitudeMeters>
            <DistanceMeters>25994.901862912</DistanceMeters>
          </Trackpoint>
          <Trackpoint>
            <Time>2022-11-06T12:03:40.000Z</Time>
            <Position>
              <LatitudeDegrees>41.35485741309821605682373046875</LatitudeDegrees>
              <LongitudeDegrees>-1.63376997224986553192138671875</LongitudeDegrees>
            </Position>
            <AltitudeMeters>473.600006103515625</AltitudeMeters>
            <DistanceMeters>25997.888787003</DistanceMeters>
          </Trackpoint>
          <Trackpoint>
            <Time>2022-11-06T12:03:43.000Z</Time>
            <Position>
              <LatitudeDegrees>41.3549411483108997344970703125</LatitudeDegrees>
              <LongitudeDegrees>-1.6337859816849231719970703125</LongitudeDegrees>
            </Position>
            <AltitudeMeters>472.79998779296875</AltitudeMeters>
            <DistanceMeters>26007.304107521</DistanceMeters>
          </Trackpoint>
          <Trackpoint>
            <Time>2022-11-06T12:03:44.000Z</Time>
            <Position>
              <LatitudeDegrees>41.3549706526100635528564453125</LatitudeDegrees>
              <LongitudeDegrees>-1.63378086872398853302001953125</LongitudeDegrees>
            </Position>
            <AltitudeMeters>472.79998779296875</AltitudeMeters>
            <DistanceMeters>26010.616439461</DistanceMeters>
          </Trackpoint>
          <Trackpoint>
            <Time>2022-11-06T12:03:50.000Z</Time>
            <Position>
              <LatitudeDegrees>41.3551322557032108306884765625</LatitudeDegrees>
              <LongitudeDegrees>-1.6336582414805889129638671875</LongitudeDegrees>
            </Position>
            <AltitudeMeters>472.600006103515625</AltitudeMeters>
            <DistanceMeters>26031.316128523</DistanceMeters>
          </Trackpoint>
          <Trackpoint>
            <Time>2022-11-06T12:03:55.000Z</Time>
            <Position>
              <LatitudeDegrees>41.3552650250494480133056640625</LatitudeDegrees>
              <LongitudeDegrees>-1.63354642689228057861328125</LongitudeDegrees>
            </Position>
            <AltitudeMeters>472.600006103515625</AltitudeMeters>
            <DistanceMeters>26048.798719789</DistanceMeters>
          </Trackpoint>
          <Trackpoint>
            <Time>2022-11-06T12:03:59.000Z</Time>
            <Position>
              <LatitudeDegrees>41.35537658818066120147705078125</LatitudeDegrees>
              <LongitudeDegrees>-1.63349018432199954986572265625</LongitudeDegrees>
            </Position>
            <AltitudeMeters>472.399993896484375</AltitudeMeters>
            <DistanceMeters>26062.07528155</DistanceMeters>
          </Trackpoint>
          <Trackpoint>
            <Time>2022-11-06T12:04:02.000Z</Time>
            <Position>
              <LatitudeDegrees>41.3554631732404232025146484375</LatitudeDegrees>
              <LongitudeDegrees>-1.63346000947058200836181640625</LongitudeDegrees>
            </Position>
            <AltitudeMeters>472.399993896484375</AltitudeMeters>
            <DistanceMeters>26072.036782945</DistanceMeters>
          </Trackpoint>
          <Trackpoint>
            <Time>2022-11-06T12:04:05.000Z</Time>
            <Position>
              <LatitudeDegrees>41.3555473275482654571533203125</LatitudeDegrees>
              <LongitudeDegrees>-1.63343654014170169830322265625</LongitudeDegrees>
            </Position>
            <AltitudeMeters>472.399993896484375</AltitudeMeters>
            <DistanceMeters>26081.60668552</DistanceMeters>
          </Trackpoint>
          <Trackpoint>
            <Time>2022-11-06T12:04:07.000Z</Time>
            <Position>
              <LatitudeDegrees>41.3556039892137050628662109375</LatitudeDegrees>
              <LongitudeDegrees>-1.6334255598485469818115234375</LongitudeDegrees>
            </Position>
            <AltitudeMeters>472.399993896484375</AltitudeMeters>
            <DistanceMeters>26087.979854578</DistanceMeters>
          </Trackpoint>
          <Trackpoint>
            <Time>2022-11-06T12:04:13.000Z</Time>
            <Position>
              <LatitudeDegrees>41.3557836972177028656005859375</LatitudeDegrees>
              <LongitudeDegrees>-1.633401922881603240966796875</LongitudeDegrees>
            </Position>
            <AltitudeMeters>472.399993896484375</AltitudeMeters>
            <DistanceMeters>26108.079071724</DistanceMeters>
          </Trackpoint>
          <Trackpoint>
            <Time>2022-11-06T12:04:17.000Z</Time>
            <Position>
              <LatitudeDegrees>41.35589643381536006927490234375</LatitudeDegrees>
              <LongitudeDegrees>-1.6333554871380329132080078125</LongitudeDegrees>
            </Position>
            <AltitudeMeters>472.399993896484375</AltitudeMeters>
            <DistanceMeters>26121.213400043</DistanceMeters>
          </Trackpoint>
          <Trackpoint>
            <Time>2022-11-06T12:04:24.000Z</Time>
            <Position>
              <LatitudeDegrees>41.35608988814055919647216796875</LatitudeDegrees>
              <LongitudeDegrees>-1.633340232074260711669921875</LongitudeDegrees>
            </Position>
            <AltitudeMeters>472.600006103515625</AltitudeMeters>
            <DistanceMeters>26142.782998986</DistanceMeters>
          </Trackpoint>
          <Trackpoint>
            <Time>2022-11-06T12:04:25.000Z</Time>
            <Position>
              <LatitudeDegrees>41.3561172969639301300048828125</LatitudeDegrees>
              <LongitudeDegrees>-1.633353643119335174560546875</LongitudeDegrees>
            </Position>
            <AltitudeMeters>472.600006103515625</AltitudeMeters>
            <DistanceMeters>26146.033412719</DistanceMeters>
          </Trackpoint>
          <Trackpoint>
            <Time>2022-11-06T12:04:29.000Z</Time>
            <Position>
              <LatitudeDegrees>41.35618460364639759063720703125</LatitudeDegrees>
              <LongitudeDegrees>-1.633467972278594970703125</LongitudeDegrees>
            </Position>
            <AltitudeMeters>472.600006103515625</AltitudeMeters>
            <DistanceMeters>26158.172308361</DistanceMeters>
          </Trackpoint>
          <Trackpoint>
            <Time>2022-11-06T12:04:33.000Z</Time>
            <Position>
              <LatitudeDegrees>41.356207989156246185302734375</LatitudeDegrees>
              <LongitudeDegrees>-1.633619181811809539794921875</LongitudeDegrees>
            </Position>
            <AltitudeMeters>472.79998779296875</AltitudeMeters>
            <DistanceMeters>26171.070762858</DistanceMeters>
          </Trackpoint>
          <Trackpoint>
            <Time>2022-11-06T12:04:34.000Z</Time>
            <Position>
              <LatitudeDegrees>41.35622919537127017974853515625</LatitudeDegrees>
              <LongitudeDegrees>-1.63364659063518047332763671875</LongitudeDegrees>
            </Position>
            <AltitudeMeters>472.79998779296875</AltitudeMeters>
            <DistanceMeters>26174.359840476</DistanceMeters>
          </Trackpoint>
          <Trackpoint>
            <Time>2022-11-06T12:04:39.000Z</Time>
            <Position>
              <LatitudeDegrees>41.35637487284839153289794921875</LatitudeDegrees>
              <LongitudeDegrees>-1.63371230475604534149169921875</LongitudeDegrees>
            </Position>
            <AltitudeMeters>472.79998779296875</AltitudeMeters>
            <DistanceMeters>26191.478369641</DistanceMeters>
          </Trackpoint>
          <Trackpoint>
            <Time>2022-11-06T12:04:45.000Z</Time>
            <Position>
              <LatitudeDegrees>41.35654334910213947296142578125</LatitudeDegrees>
              <LongitudeDegrees>-1.63381540216505527496337890625</LongitudeDegrees>
            </Position>
            <AltitudeMeters>472.600006103515625</AltitudeMeters>
            <DistanceMeters>26212.113831468</DistanceMeters>
          </Trackpoint>
          <Trackpoint>
            <Time>2022-11-06T12:04:47.000Z</Time>
            <Position>
              <LatitudeDegrees>41.35659682564437389373779296875</LatitudeDegrees>
              <LongitudeDegrees>-1.63385060615837574005126953125</LongitudeDegrees>
            </Position>
            <AltitudeMeters>472.600006103515625</AltitudeMeters>
            <DistanceMeters>26218.753472512</DistanceMeters>
          </Trackpoint>
          <Trackpoint>
            <Time>2022-11-06T12:04:54.000Z</Time>
            <Position>
              <LatitudeDegrees>41.35677686892449855804443359375</LatitudeDegrees>
              <LongitudeDegrees>-1.63389486260712146759033203125</LongitudeDegrees>
            </Position>
            <AltitudeMeters>472.79998779296875</AltitudeMeters>
            <DistanceMeters>26239.130887343</DistanceMeters>
          </Trackpoint>
          <Trackpoint>
            <Time>2022-11-06T12:04:56.000Z</Time>
            <Position>
              <LatitudeDegrees>41.35678458027541637420654296875</LatitudeDegrees>
              <LongitudeDegrees>-1.63383635692298412322998046875</LongitudeDegrees>
            </Position>
            <AltitudeMeters>473</AltitudeMeters>
            <DistanceMeters>26244.094157287</DistanceMeters>
          </Trackpoint>
          <Trackpoint>
            <Time>2022-11-06T12:04:57.000Z</Time>
            <Position>
              <LatitudeDegrees>41.3567751087248325347900390625</LatitudeDegrees>
              <LongitudeDegrees>-1.63380324840545654296875</LongitudeDegrees>
            </Position>
            <AltitudeMeters>473.20001220703125</AltitudeMeters>
            <DistanceMeters>26247.053747487</DistanceMeters>
          </Trackpoint>
          <Trackpoint>
            <Time>2022-11-06T12:05:03.000Z</Time>
            <Position>
              <LatitudeDegrees>41.3566644676029682159423828125</LatitudeDegrees>
              <LongitudeDegrees>-1.63360677659511566162109375</LongitudeDegrees>
            </Position>
            <AltitudeMeters>473.600006103515625</AltitudeMeters>
            <DistanceMeters>26267.573797794</DistanceMeters>
          </Trackpoint>
          <Trackpoint>
            <Time>2022-11-06T12:05:04.000Z</Time>
            <Position>
              <LatitudeDegrees>41.3566466979682445526123046875</LatitudeDegrees>
              <LongitudeDegrees>-1.633575595915317535400390625</LongitudeDegrees>
            </Position>
            <AltitudeMeters>473.600006103515625</AltitudeMeters>
            <DistanceMeters>26270.843600618</DistanceMeters>
          </Trackpoint>
          <Trackpoint>
            <Time>2022-11-06T12:05:10.000Z</Time>
            <Position>
              <LatitudeDegrees>41.35652692057192325592041015625</LatitudeDegrees>
              <LongitudeDegrees>-1.63339060731232166290283203125</LongitudeDegrees>
            </Position>
            <AltitudeMeters>473.79998779296875</AltitudeMeters>
            <DistanceMeters>26291.254002784</DistanceMeters>
          </Trackpoint>
          <Trackpoint>
            <Time>2022-11-06T12:05:14.000Z</Time>
            <Position>
              <LatitudeDegrees>41.356443352997303009033203125</LatitudeDegrees>
              <LongitudeDegrees>-1.63327158428728580474853515625</LongitudeDegrees>
            </Position>
            <AltitudeMeters>473.79998779296875</AltitudeMeters>
            <DistanceMeters>26304.869709501</DistanceMeters>
          </Trackpoint>
          <Trackpoint>
            <Time>2022-11-06T12:05:15.000Z</Time>
            <Position>
              <LatitudeDegrees>41.3564254157245159149169921875</LatitudeDegrees>
              <LongitudeDegrees>-1.63324895314872264862060546875</LongitudeDegrees>
            </Position>
            <AltitudeMeters>473.79998779296875</AltitudeMeters>
            <DistanceMeters>26307.61892284</DistanceMeters>
          </Trackpoint>
          <Trackpoint>
            <Time>2022-11-06T12:05:21.000Z</Time>
            <Position>
              <LatitudeDegrees>41.35628283955156803131103515625</LatitudeDegrees>
              <LongitudeDegrees>-1.63309087045490741729736328125</LongitudeDegrees>
            </Position>
            <AltitudeMeters>473.600006103515625</AltitudeMeters>
            <DistanceMeters>26328.264884393</DistanceMeters>
          </Trackpoint>
          <Trackpoint>
            <Time>2022-11-06T12:05:22.000Z</Time>
            <Position>
              <LatitudeDegrees>41.3562524132430553436279296875</LatitudeDegrees>
              <LongitudeDegrees>-1.63307704031467437744140625</LongitudeDegrees>
            </Position>
            <AltitudeMeters>473.600006103515625</AltitudeMeters>
            <DistanceMeters>26331.843242732</DistanceMeters>
          </Trackpoint>
          <Trackpoint>
            <Time>2022-11-06T12:05:28.000Z</Time>
            <Position>
              <LatitudeDegrees>41.35607513599097728729248046875</LatitudeDegrees>
              <LongitudeDegrees>-1.63300252519547939300537109375</LongitudeDegrees>
            </Position>
            <AltitudeMeters>474</AltitudeMeters>
            <DistanceMeters>26352.533550462</DistanceMeters>
          </Trackpoint>
          <Trackpoint>
            <Time>2022-11-06T12:05:32.000Z</Time>
            <Position>
              <LatitudeDegrees>41.3559550233185291290283203125</LatitudeDegrees>
              <LongitudeDegrees>-1.632992886006832122802734375</LongitudeDegrees>
            </Position>
            <AltitudeMeters>474</AltitudeMeters>
            <DistanceMeters>26365.926587402</DistanceMeters>
          </Trackpoint>
          <Trackpoint>
            <Time>2022-11-06T12:05:39.000Z</Time>
            <Position>
              <LatitudeDegrees>41.3557458110153675079345703125</LatitudeDegrees>
              <LongitudeDegrees>-1.6330202110111713409423828125</LongitudeDegrees>
            </Position>
            <AltitudeMeters>474</AltitudeMeters>
            <DistanceMeters>26389.324009361</DistanceMeters>
          </Trackpoint>
          <Trackpoint>
            <Time>2022-11-06T12:05:41.000Z</Time>
            <Position>
              <LatitudeDegrees>41.35569132864475250244140625</LatitudeDegrees>
              <LongitudeDegrees>-1.633029766380786895751953125</LongitudeDegrees>
            </Position>
            <AltitudeMeters>473.79998779296875</AltitudeMeters>
            <DistanceMeters>26395.43977396</DistanceMeters>
          </Trackpoint>
          <Trackpoint>
            <Time>2022-11-06T12:05:46.000Z</Time>
            <Position>
              <LatitudeDegrees>41.35554104112088680267333984375</LatitudeDegrees>
              <LongitudeDegrees>-1.6330470331013202667236328125</LongitudeDegrees>
            </Position>
            <AltitudeMeters>473.79998779296875</AltitudeMeters>
            <DistanceMeters>26412.229141616</DistanceMeters>
          </Trackpoint>
          <Trackpoint>
            <Time>2022-11-06T12:05:49.000Z</Time>
            <Position>
              <LatitudeDegrees>41.35545068420469760894775390625</LatitudeDegrees>
              <LongitudeDegrees>-1.63306036032736301422119140625</LongitudeDegrees>
            </Position>
            <AltitudeMeters>473.79998779296875</AltitudeMeters>
            <DistanceMeters>26422.347590446</DistanceMeters>
          </Trackpoint>
          <Trackpoint>
            <Time>2022-11-06T12:05:55.000Z</Time>
            <Position>
              <LatitudeDegrees>41.3552680425345897674560546875</LatitudeDegrees>
              <LongitudeDegrees>-1.63310847245156764984130859375</LongitudeDegrees>
            </Position>
            <AltitudeMeters>474</AltitudeMeters>
            <DistanceMeters>26443.069515913</DistanceMeters>
          </Trackpoint>
          <Trackpoint>
            <Time>2022-11-06T12:05:56.000Z</Time>
            <Position>
              <LatitudeDegrees>41.3552388735115528106689453125</LatitudeDegrees>
              <LongitudeDegrees>-1.6331187821924686431884765625</LongitudeDegrees>
            </Position>
            <AltitudeMeters>474</AltitudeMeters>
            <DistanceMeters>26446.426528782</DistanceMeters>
          </Trackpoint>
          <Trackpoint>
            <Time>2022-11-06T12:06:02.000Z</Time>
            <Position>
              <LatitudeDegrees>41.3550618477165699005126953125</LatitudeDegrees>
              <LongitudeDegrees>-1.63318508304655551910400390625</LongitudeDegrees>
            </Position>
            <AltitudeMeters>474</AltitudeMeters>
            <DistanceMeters>26466.893703629</DistanceMeters>
          </Trackpoint>
          <Trackpoint>
            <Time>2022-11-06T12:06:08.000Z</Time>
            <Position>
              <LatitudeDegrees>41.354889012873172760009765625</LatitudeDegrees>
              <LongitudeDegrees>-1.63327476941049098968505859375</LongitudeDegrees>
            </Position>
            <AltitudeMeters>474.20001220703125</AltitudeMeters>
            <DistanceMeters>26487.538353009</DistanceMeters>
          </Trackpoint>
          <Trackpoint>
            <Time>2022-11-06T12:06:10.000Z</Time>
            <Position>
              <LatitudeDegrees>41.35483570396900177001953125</LatitudeDegrees>
              <LongitudeDegrees>-1.63330310024321079254150390625</LongitudeDegrees>
            </Position>
            <AltitudeMeters>474.20001220703125</AltitudeMeters>
            <DistanceMeters>26493.925675247</DistanceMeters>
          </Trackpoint>
          <Trackpoint>
            <Time>2022-11-06T12:06:17.000Z</Time>
            <Position>
              <LatitudeDegrees>41.35466664098203182220458984375</LatitudeDegrees>
              <LongitudeDegrees>-1.6334570758044719696044921875</LongitudeDegrees>
            </Position>
            <AltitudeMeters>474.399993896484375</AltitudeMeters>
            <DistanceMeters>26516.719611027</DistanceMeters>
          </Trackpoint>
          <Trackpoint>
            <Time>2022-11-06T12:06:18.000Z</Time>
            <Position>
              <LatitudeDegrees>41.354641579091548919677734375</LatitudeDegrees>
              <LongitudeDegrees>-1.63348280824720859527587890625</LongitudeDegrees>
            </Position>
            <AltitudeMeters>474.20001220703125</AltitudeMeters>
            <DistanceMeters>26520.240732291</DistanceMeters>
          </Trackpoint>
          <Trackpoint>
            <Time>2022-11-06T12:06:20.000Z</Time>
            <Position>
              <LatitudeDegrees>41.35460243560373783111572265625</LatitudeDegrees>
              <LongitudeDegrees>-1.6335398890078067779541015625</LongitudeDegrees>
            </Position>
            <AltitudeMeters>474</AltitudeMeters>
            <DistanceMeters>26526.701151266</DistanceMeters>
          </Trackpoint>
          <Trackpoint>
            <Time>2022-11-06T12:06:22.000Z</Time>
            <Position>
              <LatitudeDegrees>41.35460947640240192413330078125</LatitudeDegrees>
              <LongitudeDegrees>-1.633612811565399169921875</LongitudeDegrees>
            </Position>
            <AltitudeMeters>474</AltitudeMeters>
            <DistanceMeters>26532.844170838</DistanceMeters>
          </Trackpoint>
          <Trackpoint>
            <Time>2022-11-06T12:06:26.000Z</Time>
            <Position>
              <LatitudeDegrees>41.354685164988040924072265625</LatitudeDegrees>
              <LongitudeDegrees>-1.63375672884285449981689453125</LongitudeDegrees>
            </Position>
            <AltitudeMeters>472.79998779296875</AltitudeMeters>
            <DistanceMeters>26547.525721325</DistanceMeters>
          </Trackpoint>
          <Trackpoint>
            <Time>2022-11-06T12:06:27.000Z</Time>
            <Position>
              <LatitudeDegrees>41.35468189604580402374267578125</LatitudeDegrees>
              <LongitudeDegrees>-1.63379142992198467254638671875</LongitudeDegrees>
            </Position>
            <AltitudeMeters>472.600006103515625</AltitudeMeters>
            <DistanceMeters>26550.448468717</DistanceMeters>
          </Trackpoint>
          <Trackpoint>
            <Time>2022-11-06T12:06:30.000Z</Time>
            <Position>
              <LatitudeDegrees>41.35464669205248355865478515625</LatitudeDegrees>
              <LongitudeDegrees>-1.6338775120675563812255859375</LongitudeDegrees>
            </Position>
            <AltitudeMeters>472.79998779296875</AltitudeMeters>
            <DistanceMeters>26558.638426459</DistanceMeters>
          </Trackpoint>
          <Trackpoint>
            <Time>2022-11-06T12:06:33.000Z</Time>
            <Position>
              <LatitudeDegrees>41.35462137870490550994873046875</LatitudeDegrees>
              <LongitudeDegrees>-1.63398270495235919952392578125</LongitudeDegrees>
            </Position>
            <AltitudeMeters>473.79998779296875</AltitudeMeters>
            <DistanceMeters>26567.867766149</DistanceMeters>
          </Trackpoint>
          <Trackpoint>
            <Time>2022-11-06T12:06:37.000Z</Time>
            <Position>
              <LatitudeDegrees>41.35462204925715923309326171875</LatitudeDegrees>
              <LongitudeDegrees>-1.6341430507600307464599609375</LongitudeDegrees>
            </Position>
            <AltitudeMeters>475</AltitudeMeters>
            <DistanceMeters>26581.264510877</DistanceMeters>
          </Trackpoint>
          <Trackpoint>
            <Time>2022-11-06T12:06:38.000Z</Time>
            <Position>
              <LatitudeDegrees>41.35463043116033077239990234375</LatitudeDegrees>
              <LongitudeDegrees>-1.63418236188590526580810546875</LongitudeDegrees>
            </Position>
            <AltitudeMeters>475</AltitudeMeters>
            <DistanceMeters>26584.67886714</DistanceMeters>
          </Trackpoint>
          <Trackpoint>
            <Time>2022-11-06T12:06:43.000Z</Time>
            <Position>
              <LatitudeDegrees>41.354639567434787750244140625</LatitudeDegrees>
              <LongitudeDegrees>-1.6343593038618564605712890625</LongitudeDegrees>
            </Position>
            <AltitudeMeters>474.600006103515625</AltitudeMeters>
            <DistanceMeters>26599.496637172</DistanceMeters>
          </Trackpoint>
          <Trackpoint>
            <Time>2022-11-06T12:06:44.000Z</Time>
            <Position>
              <LatitudeDegrees>41.35462380945682525634765625</LatitudeDegrees>
              <LongitudeDegrees>-1.6343851201236248016357421875</LongitudeDegrees>
            </Position>
            <AltitudeMeters>474.600006103515625</AltitudeMeters>
            <DistanceMeters>26602.276879147</DistanceMeters>
          </Trackpoint>
          <Trackpoint>
            <Time>2022-11-06T12:06:49.000Z</Time>
            <Position>
              <LatitudeDegrees>41.3545217178761959075927734375</LatitudeDegrees>
              <LongitudeDegrees>-1.63452702574431896209716796875</LongitudeDegrees>
            </Position>
            <AltitudeMeters>474.399993896484375</AltitudeMeters>
            <DistanceMeters>26618.69863919</DistanceMeters>
          </Trackpoint>
          <Trackpoint>
            <Time>2022-11-06T12:06:54.000Z</Time>
            <Position>
              <LatitudeDegrees>41.35444250889122486114501953125</LatitudeDegrees>
              <LongitudeDegrees>-1.63468837738037109375</LongitudeDegrees>
            </Position>
            <AltitudeMeters>474.20001220703125</AltitudeMeters>
            <DistanceMeters>26634.805597197</DistanceMeters>
          </Trackpoint>
          <Trackpoint>
            <Time>2022-11-06T12:07:00.000Z</Time>
            <Position>
              <LatitudeDegrees>41.354331113398075103759765625</LatitudeDegrees>
              <LongitudeDegrees>-1.63490890525281429290771484375</LongitudeDegrees>
            </Position>
            <AltitudeMeters>474.20001220703125</AltitudeMeters>
            <DistanceMeters>26657.013403371</DistanceMeters>
          </Trackpoint>
          <Trackpoint>
            <Time>2022-11-06T12:07:02.000Z</Time>
            <Position>
              <LatitudeDegrees>41.3542903773486614227294921875</LatitudeDegrees>
              <LongitudeDegrees>-1.634976379573345184326171875</LongitudeDegrees>
            </Position>
            <AltitudeMeters>474.20001220703125</AltitudeMeters>
            <DistanceMeters>26664.247926373</DistanceMeters>
          </Trackpoint>
          <Trackpoint>
            <Time>2022-11-06T12:07:08.000Z</Time>
            <Position>
              <LatitudeDegrees>41.35418283753097057342529296875</LatitudeDegrees>
              <LongitudeDegrees>-1.63519036956131458282470703125</LongitudeDegrees>
            </Position>
            <AltitudeMeters>474</AltitudeMeters>
            <DistanceMeters>26685.763032198</DistanceMeters>
          </Trackpoint>
          <Trackpoint>
            <Time>2022-11-06T12:07:10.000Z</Time>
            <Position>
              <LatitudeDegrees>41.35414478369057178497314453125</LatitudeDegrees>
              <LongitudeDegrees>-1.63525608368217945098876953125</LongitudeDegrees>
            </Position>
            <AltitudeMeters>474</AltitudeMeters>
            <DistanceMeters>26692.696727244</DistanceMeters>
          </Trackpoint>
          <Trackpoint>
            <Time>2022-11-06T12:07:16.000Z</Time>
            <Position>
              <LatitudeDegrees>41.3540499843657016754150390625</LatitudeDegrees>
              <LongitudeDegrees>-1.63547736592590808868408203125</LongitudeDegrees>
            </Position>
            <AltitudeMeters>474.20001220703125</AltitudeMeters>
            <DistanceMeters>26713.983559699</DistanceMeters>
          </Trackpoint>
          <Trackpoint>
            <Time>2022-11-06T12:07:17.000Z</Time>
            <Position>
              <LatitudeDegrees>41.354036740958690643310546875</LatitudeDegrees>
              <LongitudeDegrees>-1.63551659323275089263916015625</LongitudeDegrees>
            </Position>
            <AltitudeMeters>474.20001220703125</AltitudeMeters>
            <DistanceMeters>26717.577027288</DistanceMeters>
          </Trackpoint>
          <Trackpoint>
            <Time>2022-11-06T12:07:23.000Z</Time>
            <Position>
              <LatitudeDegrees>41.3539433665573596954345703125</LatitudeDegrees>
              <LongitudeDegrees>-1.63573435507714748382568359375</LongitudeDegrees>
            </Position>
            <AltitudeMeters>474</AltitudeMeters>
            <DistanceMeters>26738.529932971</DistanceMeters>
          </Trackpoint>
          <Trackpoint>
            <Time>2022-11-06T12:07:26.000Z</Time>
            <Position>
              <LatitudeDegrees>41.353893578052520751953125</LatitudeDegrees>
              <LongitudeDegrees>-1.63583979941904544830322265625</LongitudeDegrees>
            </Position>
            <AltitudeMeters>473.79998779296875</AltitudeMeters>
            <DistanceMeters>26748.937852889</DistanceMeters>
          </Trackpoint>
          <Trackpoint>
            <Time>2022-11-06T12:07:32.000Z</Time>
            <Position>
              <LatitudeDegrees>41.35379039682447910308837890625</LatitudeDegrees>
              <LongitudeDegrees>-1.6360480897128582000732421875</LongitudeDegrees>
            </Position>
            <AltitudeMeters>473.79998779296875</AltitudeMeters>
            <DistanceMeters>26769.788151934</DistanceMeters>
          </Trackpoint>
          <Trackpoint>
            <Time>2022-11-06T12:07:34.000Z</Time>
            <Position>
              <LatitudeDegrees>41.35375100187957286834716796875</LatitudeDegrees>
              <LongitudeDegrees>-1.63611891679465770721435546875</LongitudeDegrees>
            </Position>
            <AltitudeMeters>473.600006103515625</AltitudeMeters>
            <DistanceMeters>26777.15318209</DistanceMeters>
          </Trackpoint>
          <Trackpoint>
            <Time>2022-11-06T12:07:40.000Z</Time>
            <Position>
              <LatitudeDegrees>41.353649161756038665771484375</LatitudeDegrees>
              <LongitudeDegrees>-1.63632527925074100494384765625</LongitudeDegrees>
            </Position>
            <AltitudeMeters>473.600006103515625</AltitudeMeters>
            <DistanceMeters>26797.786674622</DistanceMeters>
          </Trackpoint>
          <Trackpoint>
            <Time>2022-11-06T12:07:42.000Z</Time>
            <Position>
              <LatitudeDegrees>41.35363549925386905670166015625</LatitudeDegrees>
              <LongitudeDegrees>-1.63643826730549335479736328125</LongitudeDegrees>
            </Position>
            <AltitudeMeters>473.399993896484375</AltitudeMeters>
            <DistanceMeters>26807.348553308</DistanceMeters>
          </Trackpoint>
          <Trackpoint>
            <Time>2022-11-06T12:07:48.000Z</Time>
            <Position>
              <LatitudeDegrees>41.35356106795370578765869140625</LatitudeDegrees>
              <LongitudeDegrees>-1.6366914846003055572509765625</LongitudeDegrees>
            </Position>
            <AltitudeMeters>473.79998779296875</AltitudeMeters>
            <DistanceMeters>26830.068484862</DistanceMeters>
          </Trackpoint>
          <Trackpoint>
            <Time>2022-11-06T12:07:51.000Z</Time>
            <Position>
              <LatitudeDegrees>41.35352150537073612213134765625</LatitudeDegrees>
              <LongitudeDegrees>-1.63680036552250385284423828125</LongitudeDegrees>
            </Position>
            <AltitudeMeters>474</AltitudeMeters>
            <DistanceMeters>26840.174878614</DistanceMeters>
          </Trackpoint>
          <Trackpoint>
            <Time>2022-11-06T12:07:58.000Z</Time>
            <Position>
              <LatitudeDegrees>41.35342092253267765045166015625</LatitudeDegrees>
              <LongitudeDegrees>-1.6370207257568836212158203125</LongitudeDegrees>
            </Position>
            <AltitudeMeters>474.20001220703125</AltitudeMeters>
            <DistanceMeters>26861.721858687</DistanceMeters>
          </Trackpoint>
          <Trackpoint>
            <Time>2022-11-06T12:07:59.000Z</Time>
            <Position>
              <LatitudeDegrees>41.35339996777474880218505859375</LatitudeDegrees>
              <LongitudeDegrees>-1.637048386037349700927734375</LongitudeDegrees>
            </Position>
            <AltitudeMeters>474.20001220703125</AltitudeMeters>
            <DistanceMeters>26865.006815514</DistanceMeters>
          </Trackpoint>
          <Trackpoint>
            <Time>2022-11-06T12:08:06.000Z</Time>
            <Position>
              <LatitudeDegrees>41.353269629180431365966796875</LatitudeDegrees>
              <LongitudeDegrees>-1.63726991973817348480224609375</LongitudeDegrees>
            </Position>
            <AltitudeMeters>474.600006103515625</AltitudeMeters>
            <DistanceMeters>26888.523575531</DistanceMeters>
          </Trackpoint>
          <Trackpoint>
            <Time>2022-11-06T12:08:07.000Z</Time>
            <Position>
              <LatitudeDegrees>41.35325454175472259521484375</LatitudeDegrees>
              <LongitudeDegrees>-1.63730411790311336517333984375</LongitudeDegrees>
            </Position>
            <AltitudeMeters>474.600006103515625</AltitudeMeters>
            <DistanceMeters>26891.83727029</DistanceMeters>
          </Trackpoint>
          <Trackpoint>
            <Time>2022-11-06T12:08:11.000Z</Time>
            <Position>
              <LatitudeDegrees>41.3531866483390331268310546875</LatitudeDegrees>
              <LongitudeDegrees>-1.637456081807613372802734375</LongitudeDegrees>
            </Position>
            <AltitudeMeters>474.79998779296875</AltitudeMeters>
            <DistanceMeters>26906.612625721</DistanceMeters>
          </Trackpoint>
          <Trackpoint>
            <Time>2022-11-06T12:08:16.000Z</Time>
            <Position>
              <LatitudeDegrees>41.3531031645834445953369140625</LatitudeDegrees>
              <LongitudeDegrees>-1.63763277232646942138671875</LongitudeDegrees>
            </Position>
            <AltitudeMeters>474.79998779296875</AltitudeMeters>
            <DistanceMeters>26924.055658591</DistanceMeters>
          </Trackpoint>
          <Trackpoint>
            <Time>2022-11-06T12:08:22.000Z</Time>
            <Position>
              <LatitudeDegrees>41.35302965529263019561767578125</LatitudeDegrees>
              <LongitudeDegrees>-1.63785464130342006683349609375</LongitudeDegrees>
            </Position>
            <AltitudeMeters>475</AltitudeMeters>
            <DistanceMeters>26944.317974737</DistanceMeters>
          </Trackpoint>
          <Trackpoint>
            <Time>2022-11-06T12:08:25.000Z</Time>
            <Position>
              <LatitudeDegrees>41.35298003442585468292236328125</LatitudeDegrees>
              <LongitudeDegrees>-1.637952961027622222900390625</LongitudeDegrees>
            </Position>
            <AltitudeMeters>475.20001220703125</AltitudeMeters>
            <DistanceMeters>26954.2171863</DistanceMeters>
          </Trackpoint>
          <Trackpoint>
            <Time>2022-11-06T12:08:31.000Z</Time>
            <Position>
              <LatitudeDegrees>41.35289437137544155120849609375</LatitudeDegrees>
              <LongitudeDegrees>-1.63820064626634120941162109375</LongitudeDegrees>
            </Position>
            <AltitudeMeters>475.20001220703125</AltitudeMeters>
            <DistanceMeters>26977.002206707</DistanceMeters>
          </Trackpoint>
          <Trackpoint>
            <Time>2022-11-06T12:08:33.000Z</Time>
            <Position>
              <LatitudeDegrees>41.35285799391567707061767578125</LatitudeDegrees>
              <LongitudeDegrees>-1.63828027434647083282470703125</LongitudeDegrees>
            </Position>
            <AltitudeMeters>475.399993896484375</AltitudeMeters>
            <DistanceMeters>26984.79034021</DistanceMeters>
          </Trackpoint>
          <Trackpoint>
            <Time>2022-11-06T12:08:39.000Z</Time>
            <Position>
              <LatitudeDegrees>41.3527759350836277008056640625</LatitudeDegrees>
              <LongitudeDegrees>-1.638545729219913482666015625</LongitudeDegrees>
            </Position>
            <AltitudeMeters>475.600006103515625</AltitudeMeters>
            <DistanceMeters>27008.775881068</DistanceMeters>
          </Trackpoint>
          <Trackpoint>
            <Time>2022-11-06T12:08:41.000Z</Time>
            <Position>
              <LatitudeDegrees>41.35274902917444705963134765625</LatitudeDegrees>
              <LongitudeDegrees>-1.6386352479457855224609375</LongitudeDegrees>
            </Position>
            <AltitudeMeters>475.600006103515625</AltitudeMeters>
            <DistanceMeters>27016.832442958</DistanceMeters>
          </Trackpoint>
          <Trackpoint>
            <Time>2022-11-06T12:08:47.000Z</Time>
            <Position>
              <LatitudeDegrees>41.35265230201184749603271484375</LatitudeDegrees>
              <LongitudeDegrees>-1.63885694928467273712158203125</LongitudeDegrees>
            </Position>
            <AltitudeMeters>475.79998779296875</AltitudeMeters>
            <DistanceMeters>27038.257121387</DistanceMeters>
          </Trackpoint>
          <Trackpoint>
            <Time>2022-11-06T12:08:49.000Z</Time>
            <Position>
              <LatitudeDegrees>41.3526223786175251007080078125</LatitudeDegrees>
              <LongitudeDegrees>-1.63892886601388454437255859375</LongitudeDegrees>
            </Position>
            <AltitudeMeters>476</AltitudeMeters>
            <DistanceMeters>27045.127362254</DistanceMeters>
          </Trackpoint>
          <Trackpoint>
            <Time>2022-11-06T12:08:54.000Z</Time>
            <Position>
              <LatitudeDegrees>41.35253981687128543853759765625</LatitudeDegrees>
              <LongitudeDegrees>-1.63911863230168819427490234375</LongitudeDegrees>
            </Position>
            <AltitudeMeters>475.79998779296875</AltitudeMeters>
            <DistanceMeters>27063.452987563</DistanceMeters>
          </Trackpoint>
          <Trackpoint>
            <Time>2022-11-06T12:08:58.000Z</Time>
            <Position>
              <LatitudeDegrees>41.3524842448532581329345703125</LatitudeDegrees>
              <LongitudeDegrees>-1.63926615379750728607177734375</LongitudeDegrees>
            </Position>
            <AltitudeMeters>476</AltitudeMeters>
            <DistanceMeters>27077.243652521</DistanceMeters>
          </Trackpoint>
          <Trackpoint>
            <Time>2022-11-06T12:09:04.000Z</Time>
            <Position>
              <LatitudeDegrees>41.352362371981143951416015625</LatitudeDegrees>
              <LongitudeDegrees>-1.639464385807514190673828125</LongitudeDegrees>
            </Position>
            <AltitudeMeters>476</AltitudeMeters>
            <DistanceMeters>27098.651886914</DistanceMeters>
          </Trackpoint>
          <Trackpoint>
            <Time>2022-11-06T12:09:06.000Z</Time>
            <Position>
              <LatitudeDegrees>41.3523216359317302703857421875</LatitudeDegrees>
              <LongitudeDegrees>-1.63953454233705997467041015625</LongitudeDegrees>
            </Position>
            <AltitudeMeters>476.20001220703125</AltitudeMeters>
            <DistanceMeters>27106.062752244</DistanceMeters>
          </Trackpoint>
          <Trackpoint>
            <Time>2022-11-06T12:09:12.000Z</Time>
            <Position>
              <LatitudeDegrees>41.3522408343851566314697265625</LatitudeDegrees>
              <LongitudeDegrees>-1.6397632844746112823486328125</LongitudeDegrees>
            </Position>
            <AltitudeMeters>476.399993896484375</AltitudeMeters>
            <DistanceMeters>27127.184563878</DistanceMeters>
          </Trackpoint>
          <Trackpoint>
            <Time>2022-11-06T12:09:13.000Z</Time>
            <Position>
              <LatitudeDegrees>41.35223018936812877655029296875</LatitudeDegrees>
              <LongitudeDegrees>-1.63980024866759777069091796875</LongitudeDegrees>
            </Position>
            <AltitudeMeters>476.600006103515625</AltitudeMeters>
            <DistanceMeters>27130.492803992</DistanceMeters>
          </Trackpoint>
          <Trackpoint>
            <Time>2022-11-06T12:09:19.000Z</Time>
            <Position>
              <LatitudeDegrees>41.352124996483325958251953125</LatitudeDegrees>
              <LongitudeDegrees>-1.64003930054605007171630859375</LongitudeDegrees>
            </Position>
            <AltitudeMeters>476.600006103515625</AltitudeMeters>
            <DistanceMeters>27153.644244928</DistanceMeters>
          </Trackpoint>
          <Trackpoint>
            <Time>2022-11-06T12:09:24.000Z</Time>
            <Position>
              <LatitudeDegrees>41.35204729624092578887939453125</LatitudeDegrees>
              <LongitudeDegrees>-1.6402393765747547149658203125</LongitudeDegrees>
            </Position>
            <AltitudeMeters>477</AltitudeMeters>
            <DistanceMeters>27172.465292687</DistanceMeters>
          </Trackpoint>
          <Trackpoint>
            <Time>2022-11-06T12:09:26.000Z</Time>
            <Position>
              <LatitudeDegrees>41.35200387798249721527099609375</LatitudeDegrees>
              <LongitudeDegrees>-1.64031305350363254547119140625</LongitudeDegrees>
            </Position>
            <AltitudeMeters>477.20001220703125</AltitudeMeters>
            <DistanceMeters>27180.291018113</DistanceMeters>
          </Trackpoint>
          <Trackpoint>
            <Time>2022-11-06T12:09:32.000Z</Time>
            <Position>
              <LatitudeDegrees>41.35188753716647624969482421875</LatitudeDegrees>
              <LongitudeDegrees>-1.6405424661934375762939453125</LongitudeDegrees>
            </Position>
            <AltitudeMeters>477.399993896484375</AltitudeMeters>
            <DistanceMeters>27203.42255826</DistanceMeters>
          </Trackpoint>
          <Trackpoint>
            <Time>2022-11-06T12:09:33.000Z</Time>
            <Position>
              <LatitudeDegrees>41.35187529958784580230712890625</LatitudeDegrees>
              <LongitudeDegrees>-1.64058797992765903472900390625</LongitudeDegrees>
            </Position>
            <AltitudeMeters>477.600006103515625</AltitudeMeters>
            <DistanceMeters>27207.460914121</DistanceMeters>
          </Trackpoint>
          <Trackpoint>
            <Time>2022-11-06T12:09:38.000Z</Time>
            <Position>
              <LatitudeDegrees>41.35179902426898479461669921875</LatitudeDegrees>
              <LongitudeDegrees>-1.6408051550388336181640625</LongitudeDegrees>
            </Position>
            <AltitudeMeters>477.600006103515625</AltitudeMeters>
            <DistanceMeters>27227.493753593</DistanceMeters>
          </Trackpoint>
          <Trackpoint>
            <Time>2022-11-06T12:09:40.000Z</Time>
            <Position>
              <LatitudeDegrees>41.35176055133342742919921875</LatitudeDegrees>
              <LongitudeDegrees>-1.64089500904083251953125</LongitudeDegrees>
            </Position>
            <AltitudeMeters>477.600006103515625</AltitudeMeters>
            <DistanceMeters>27236.1364842</DistanceMeters>
          </Trackpoint>
          <Trackpoint>
            <Time>2022-11-06T12:09:46.000Z</Time>
            <Position>
              <LatitudeDegrees>41.35166793130338191986083984375</LatitudeDegrees>
              <LongitudeDegrees>-1.64115124382078647613525390625</LongitudeDegrees>
            </Position>
            <AltitudeMeters>478</AltitudeMeters>
            <DistanceMeters>27259.897723637</DistanceMeters>
          </Trackpoint>
          <Trackpoint>
            <Time>2022-11-06T12:09:47.000Z</Time>
            <Position>
              <LatitudeDegrees>41.35165326297283172607421875</LatitudeDegrees>
              <LongitudeDegrees>-1.6411887109279632568359375</LongitudeDegrees>
            </Position>
            <AltitudeMeters>478</AltitudeMeters>
            <DistanceMeters>27263.4278094</DistanceMeters>
          </Trackpoint>
          <Trackpoint>
            <Time>2022-11-06T12:09:50.000Z</Time>
            <Position>
              <LatitudeDegrees>41.35160900652408599853515625</LatitudeDegrees>
              <LongitudeDegrees>-1.64131603203713893890380859375</LongitudeDegrees>
            </Position>
            <AltitudeMeters>478</AltitudeMeters>
            <DistanceMeters>27275.150809588</DistanceMeters>
          </Trackpoint>
          <Trackpoint>
            <Time>2022-11-06T12:09:52.000Z</Time>
            <Position>
              <LatitudeDegrees>41.35158696211874485015869140625</LatitudeDegrees>
              <LongitudeDegrees>-1.6414021141827106475830078125</LongitudeDegrees>
            </Position>
            <AltitudeMeters>478</AltitudeMeters>
            <DistanceMeters>27282.750570698</DistanceMeters>
          </Trackpoint>
        </Track>
      </Lap>
    </Activity>
  </Activities>
</TrainingCenterDatabase>
